<?xml version='1.0' encoding='UTF-8'?><gpx version="1.1" creator="JPX - https://github.com/jenetics/jpx" xmlns="http://www.topografix.com/GPX/1/1"><trk><trkseg><trkpt lat="43.3302671" lon="11.553026"><ele>221.00000000000003</ele><time>2026-04-26T07:33:54.175Z</time></trkpt><trkpt lat="43.3302242" lon="11.5531496"><ele>221.0</ele><time>2026-04-26T07:33:56.187Z</time></trkpt><trkpt lat="43.3301657" lon="11.5532998"><ele>221.0</ele><time>2026-04-26T07:33:58.177Z</time></trkpt><trkpt lat="43.3301346" lon="11.5533789"><ele>221.0</ele><time>2026-04-26T07:33:59.189Z</time></trkpt><trkpt lat="43.330099" lon="11.553466"><ele>221.00000000000003</ele><time>2026-04-26T07:34:00.193Z</time></trkpt><trkpt lat="43.3300599" lon="11.553554"><ele>221.0</ele><time>2026-04-26T07:34:01.191Z</time></trkpt><trkpt lat="43.3300178" lon="11.5536473"><ele>220.83333333333334</ele><time>2026-04-26T07:34:02.192Z</time></trkpt><trkpt lat="43.3299727" lon="11.5537462"><ele>220.66666666666669</ele><time>2026-04-26T07:34:03.18Z</time></trkpt><trkpt lat="43.3299224" lon="11.5538467"><ele>220.5</ele><time>2026-04-26T07:34:04.194Z</time></trkpt><trkpt lat="43.3298677" lon="11.5539453"><ele>220.33333333333331</ele><time>2026-04-26T07:34:05.193Z</time></trkpt><trkpt lat="43.3298129" lon="11.5540437"><ele>220.16666666666666</ele><time>2026-04-26T07:34:06.175Z</time></trkpt><trkpt lat="43.3297591" lon="11.5541452"><ele>220.0</ele><time>2026-04-26T07:34:07.187Z</time></trkpt><trkpt lat="43.3297039" lon="11.5542485"><ele>220.0</ele><time>2026-04-26T07:34:08.188Z</time></trkpt><trkpt lat="43.3296476" lon="11.5543557"><ele>220.0</ele><time>2026-04-26T07:34:09.18Z</time></trkpt><trkpt lat="43.3295872" lon="11.5544676"><ele>220.0</ele><time>2026-04-26T07:34:10.174Z</time></trkpt><trkpt lat="43.3295254" lon="11.5545877"><ele>220.0</ele><time>2026-04-26T07:34:11.179Z</time></trkpt><trkpt lat="43.3294633" lon="11.5547158"><ele>220.0</ele><time>2026-04-26T07:34:12.187Z</time></trkpt><trkpt lat="43.3294021" lon="11.5548503"><ele>220.5</ele><time>2026-04-26T07:34:13.192Z</time></trkpt><trkpt lat="43.3293441" lon="11.5549869"><ele>221.0</ele><time>2026-04-26T07:34:14.19Z</time></trkpt><trkpt lat="43.3292852" lon="11.5551242"><ele>221.5</ele><time>2026-04-26T07:34:15.171Z</time></trkpt><trkpt lat="43.3292255" lon="11.5552635"><ele>222.0</ele><time>2026-04-26T07:34:16.179Z</time></trkpt><trkpt lat="43.3291632" lon="11.555403"><ele>222.5</ele><time>2026-04-26T07:34:17.181Z</time></trkpt><trkpt lat="43.329099" lon="11.5555421"><ele>223.0</ele><time>2026-04-26T07:34:18.189Z</time></trkpt><trkpt lat="43.3290322" lon="11.5556819"><ele>223.5</ele><time>2026-04-26T07:34:19.173Z</time></trkpt><trkpt lat="43.3289639" lon="11.5558225"><ele>224.0</ele><time>2026-04-26T07:34:20.177Z</time></trkpt><trkpt lat="43.328895" lon="11.5559647"><ele>222.75</ele><time>2026-04-26T07:34:21.185Z</time></trkpt><trkpt lat="43.3288249" lon="11.5561086"><ele>221.5</ele><time>2026-04-26T07:34:22.179Z</time></trkpt><trkpt lat="43.3287538" lon="11.5562535"><ele>220.25</ele><time>2026-04-26T07:34:23.183Z</time></trkpt><trkpt lat="43.3286832" lon="11.5563995"><ele>219.0</ele><time>2026-04-26T07:34:24.186Z</time></trkpt><trkpt lat="43.3286149" lon="11.5565475"><ele>218.25</ele><time>2026-04-26T07:34:25.181Z</time></trkpt><trkpt lat="43.3285493" lon="11.5566951"><ele>217.5</ele><time>2026-04-26T07:34:26.191Z</time></trkpt><trkpt lat="43.3284897" lon="11.5568385"><ele>216.75</ele><time>2026-04-26T07:34:27.169Z</time></trkpt><trkpt lat="43.3284369" lon="11.556981"><ele>216.0</ele><time>2026-04-26T07:34:28.169Z</time></trkpt><trkpt lat="43.3283888" lon="11.5571282"><ele>216.0</ele><time>2026-04-26T07:34:29.181Z</time></trkpt><trkpt lat="43.32834" lon="11.5572774"><ele>216.0</ele><time>2026-04-26T07:34:30.186Z</time></trkpt><trkpt lat="43.3283044" lon="11.5574364"><ele>216.0</ele><time>2026-04-26T07:34:31.163Z</time></trkpt><trkpt lat="43.3282723" lon="11.5576047"><ele>216.0</ele><time>2026-04-26T07:34:32.184Z</time></trkpt><trkpt lat="43.3282433" lon="11.5577693"><ele>215.75</ele><time>2026-04-26T07:34:33.183Z</time></trkpt><trkpt lat="43.3282158" lon="11.5579284"><ele>215.5</ele><time>2026-04-26T07:34:34.172Z</time></trkpt><trkpt lat="43.3281875" lon="11.5580835"><ele>215.25</ele><time>2026-04-26T07:34:35.194Z</time></trkpt><trkpt lat="43.3281593" lon="11.5582366"><ele>215.0</ele><time>2026-04-26T07:34:36.173Z</time></trkpt><trkpt lat="43.3281319" lon="11.5583891"><ele>215.0</ele><time>2026-04-26T07:34:37.187Z</time></trkpt><trkpt lat="43.3281051" lon="11.5585451"><ele>215.0</ele><time>2026-04-26T07:34:38.184Z</time></trkpt><trkpt lat="43.3280809" lon="11.5587079"><ele>215.0</ele><time>2026-04-26T07:34:39.184Z</time></trkpt><trkpt lat="43.3280603" lon="11.5588743"><ele>215.0</ele><time>2026-04-26T07:34:40.18Z</time></trkpt><trkpt lat="43.3280416" lon="11.5590446"><ele>214.75</ele><time>2026-04-26T07:34:41.187Z</time></trkpt><trkpt lat="43.3280231" lon="11.5592207"><ele>214.5</ele><time>2026-04-26T07:34:42.189Z</time></trkpt><trkpt lat="43.3280045" lon="11.5593979"><ele>214.25</ele><time>2026-04-26T07:34:43.162Z</time></trkpt><trkpt lat="43.3279842" lon="11.5595777"><ele>214.0</ele><time>2026-04-26T07:34:44.174Z</time></trkpt><trkpt lat="43.3279625" lon="11.559758"><ele>213.5</ele><time>2026-04-26T07:34:45.186Z</time></trkpt><trkpt lat="43.3279371" lon="11.5599379"><ele>213.0</ele><time>2026-04-26T07:34:46.179Z</time></trkpt><trkpt lat="43.3279052" lon="11.560117"><ele>212.5</ele><time>2026-04-26T07:34:47.172Z</time></trkpt><trkpt lat="43.3278662" lon="11.5602938"><ele>212.0</ele><time>2026-04-26T07:34:48.194Z</time></trkpt><trkpt lat="43.3278274" lon="11.5604713"><ele>212.0</ele><time>2026-04-26T07:34:49.18Z</time></trkpt><trkpt lat="43.327785" lon="11.5606483"><ele>212.0</ele><time>2026-04-26T07:34:50.187Z</time></trkpt><trkpt lat="43.3277427" lon="11.5608265"><ele>212.0</ele><time>2026-04-26T07:34:51.175Z</time></trkpt><trkpt lat="43.3277006" lon="11.5610054"><ele>212.0</ele><time>2026-04-26T07:34:52.187Z</time></trkpt><trkpt lat="43.3276614" lon="11.5611851"><ele>212.75</ele><time>2026-04-26T07:34:53.171Z</time></trkpt><trkpt lat="43.3276246" lon="11.5613639"><ele>213.5</ele><time>2026-04-26T07:34:54.174Z</time></trkpt><trkpt lat="43.3275948" lon="11.561541"><ele>214.25</ele><time>2026-04-26T07:34:55.187Z</time></trkpt><trkpt lat="43.3275746" lon="11.5617135"><ele>215.0</ele><time>2026-04-26T07:34:56.183Z</time></trkpt><trkpt lat="43.3275693" lon="11.5618819"><ele>215.6</ele><time>2026-04-26T07:34:57.171Z</time></trkpt><trkpt lat="43.3275829" lon="11.562043"><ele>216.2</ele><time>2026-04-26T07:34:58.183Z</time></trkpt><trkpt lat="43.3276092" lon="11.5621898"><ele>216.8</ele><time>2026-04-26T07:34:59.177Z</time></trkpt><trkpt lat="43.327644" lon="11.5623271"><ele>217.4</ele><time>2026-04-26T07:35:00.193Z</time></trkpt><trkpt lat="43.3276807" lon="11.5624549"><ele>218.0</ele><time>2026-04-26T07:35:01.182Z</time></trkpt><trkpt lat="43.3277155" lon="11.5625716"><ele>218.00000000000003</ele><time>2026-04-26T07:35:02.187Z</time></trkpt><trkpt lat="43.3277451" lon="11.5626823"><ele>218.0</ele><time>2026-04-26T07:35:03.175Z</time></trkpt><trkpt lat="43.3277564" lon="11.5627943"><ele>218.0</ele><time>2026-04-26T07:35:04.188Z</time></trkpt><trkpt lat="43.3277376" lon="11.5629048"><ele>218.0</ele><time>2026-04-26T07:35:05.185Z</time></trkpt><trkpt lat="43.3276904" lon="11.563009"><ele>218.00000000000003</ele><time>2026-04-26T07:35:06.168Z</time></trkpt><trkpt lat="43.3276176" lon="11.5631"><ele>218.0</ele><time>2026-04-26T07:35:07.187Z</time></trkpt><trkpt lat="43.3275244" lon="11.5631728"><ele>218.25</ele><time>2026-04-26T07:35:08.187Z</time></trkpt><trkpt lat="43.3274166" lon="11.563228"><ele>218.5</ele><time>2026-04-26T07:35:09.184Z</time></trkpt><trkpt lat="43.3272998" lon="11.5632717"><ele>218.75</ele><time>2026-04-26T07:35:10.188Z</time></trkpt><trkpt lat="43.3271778" lon="11.5633097"><ele>219.0</ele><time>2026-04-26T07:35:11.177Z</time></trkpt><trkpt lat="43.3270537" lon="11.5633469"><ele>219.0</ele><time>2026-04-26T07:35:12.179Z</time></trkpt><trkpt lat="43.3269313" lon="11.5633839"><ele>219.0</ele><time>2026-04-26T07:35:13.18Z</time></trkpt><trkpt lat="43.3268076" lon="11.5634217"><ele>219.0</ele><time>2026-04-26T07:35:14.172Z</time></trkpt><trkpt lat="43.3266836" lon="11.5634591"><ele>219.0</ele><time>2026-04-26T07:35:15.174Z</time></trkpt><trkpt lat="43.3265595" lon="11.5634943"><ele>219.0</ele><time>2026-04-26T07:35:16.196Z</time></trkpt><trkpt lat="43.3264357" lon="11.5635274"><ele>219.0</ele><time>2026-04-26T07:35:17.174Z</time></trkpt><trkpt lat="43.3263132" lon="11.5635611"><ele>219.0</ele><time>2026-04-26T07:35:18.191Z</time></trkpt><trkpt lat="43.3261918" lon="11.5635973"><ele>219.0</ele><time>2026-04-26T07:35:19.191Z</time></trkpt><trkpt lat="43.3260732" lon="11.5636407"><ele>220.5</ele><time>2026-04-26T07:35:20.17Z</time></trkpt><trkpt lat="43.32596" lon="11.5637016"><ele>222.0</ele><time>2026-04-26T07:35:21.186Z</time></trkpt><trkpt lat="43.3258547" lon="11.5637845"><ele>223.5</ele><time>2026-04-26T07:35:22.191Z</time></trkpt><trkpt lat="43.3257595" lon="11.5638882"><ele>225.0</ele><time>2026-04-26T07:35:23.172Z</time></trkpt><trkpt lat="43.3256704" lon="11.5640064"><ele>225.0</ele><time>2026-04-26T07:35:24.174Z</time></trkpt><trkpt lat="43.3255811" lon="11.5641246"><ele>225.0</ele><time>2026-04-26T07:35:25.184Z</time></trkpt><trkpt lat="43.3255007" lon="11.564261"><ele>225.0</ele><time>2026-04-26T07:35:26.185Z</time></trkpt><trkpt lat="43.3254224" lon="11.5644006"><ele>225.0</ele><time>2026-04-26T07:35:27.19Z</time></trkpt><trkpt lat="43.3253497" lon="11.564545"><ele>224.25</ele><time>2026-04-26T07:35:28.174Z</time></trkpt><trkpt lat="43.3252869" lon="11.5646958"><ele>223.5</ele><time>2026-04-26T07:35:29.183Z</time></trkpt><trkpt lat="43.3252249" lon="11.564848"><ele>222.75</ele><time>2026-04-26T07:35:30.172Z</time></trkpt><trkpt lat="43.3251854" lon="11.5650194"><ele>222.0</ele><time>2026-04-26T07:35:31.192Z</time></trkpt><trkpt lat="43.3251605" lon="11.5651992"><ele>222.5</ele><time>2026-04-26T07:35:32.188Z</time></trkpt><trkpt lat="43.3251353" lon="11.5653803"><ele>223.0</ele><time>2026-04-26T07:35:33.187Z</time></trkpt><trkpt lat="43.3251268" lon="11.5655678"><ele>223.5</ele><time>2026-04-26T07:35:34.172Z</time></trkpt><trkpt lat="43.3251161" lon="11.5657607"><ele>224.0</ele><time>2026-04-26T07:35:35.191Z</time></trkpt><trkpt lat="43.3251027" lon="11.5659537"><ele>224.0</ele><time>2026-04-26T07:35:36.184Z</time></trkpt><trkpt lat="43.3250826" lon="11.566152"><ele>224.0</ele><time>2026-04-26T07:35:37.17Z</time></trkpt><trkpt lat="43.3250487" lon="11.5663444"><ele>224.0</ele><time>2026-04-26T07:35:38.169Z</time></trkpt><trkpt lat="43.3250145" lon="11.5665335"><ele>224.0</ele><time>2026-04-26T07:35:39.17Z</time></trkpt><trkpt lat="43.3249638" lon="11.56672"><ele>223.75</ele><time>2026-04-26T07:35:40.174Z</time></trkpt><trkpt lat="43.324906" lon="11.566901"><ele>223.5</ele><time>2026-04-26T07:35:41.171Z</time></trkpt><trkpt lat="43.324848" lon="11.5670841"><ele>223.25</ele><time>2026-04-26T07:35:42.187Z</time></trkpt><trkpt lat="43.3247904" lon="11.5672657"><ele>223.0</ele><time>2026-04-26T07:35:43.185Z</time></trkpt><trkpt lat="43.3247346" lon="11.5674409"><ele>220.75</ele><time>2026-04-26T07:35:44.17Z</time></trkpt><trkpt lat="43.3246811" lon="11.5676112"><ele>218.5</ele><time>2026-04-26T07:35:45.185Z</time></trkpt><trkpt lat="43.3246261" lon="11.5677738"><ele>216.25</ele><time>2026-04-26T07:35:46.176Z</time></trkpt><trkpt lat="43.3245627" lon="11.5679272"><ele>214.0</ele><time>2026-04-26T07:35:47.176Z</time></trkpt><trkpt lat="43.3244869" lon="11.5680711"><ele>213.25</ele><time>2026-04-26T07:35:48.17Z</time></trkpt><trkpt lat="43.3243933" lon="11.5681975"><ele>212.5</ele><time>2026-04-26T07:35:49.184Z</time></trkpt><trkpt lat="43.324284" lon="11.5683099"><ele>211.75</ele><time>2026-04-26T07:35:50.17Z</time></trkpt><trkpt lat="43.3241729" lon="11.5684214"><ele>211.0</ele><time>2026-04-26T07:35:51.188Z</time></trkpt><trkpt lat="43.3240472" lon="11.5685278"><ele>211.0</ele><time>2026-04-26T07:35:52.173Z</time></trkpt><trkpt lat="43.3239171" lon="11.5686366"><ele>211.0</ele><time>2026-04-26T07:35:53.187Z</time></trkpt><trkpt lat="43.3237876" lon="11.568744"><ele>211.0</ele><time>2026-04-26T07:35:54.178Z</time></trkpt><trkpt lat="43.3236592" lon="11.5688505"><ele>211.0</ele><time>2026-04-26T07:35:55.175Z</time></trkpt><trkpt lat="43.3235364" lon="11.5689482"><ele>211.0</ele><time>2026-04-26T07:35:56.168Z</time></trkpt><trkpt lat="43.3234171" lon="11.569034"><ele>211.0</ele><time>2026-04-26T07:35:57.173Z</time></trkpt><trkpt lat="43.3232954" lon="11.5691018"><ele>211.0</ele><time>2026-04-26T07:35:58.179Z</time></trkpt><trkpt lat="43.3231692" lon="11.5691497"><ele>210.0</ele><time>2026-04-26T07:35:59.182Z</time></trkpt><trkpt lat="43.3230383" lon="11.5691856"><ele>209.0</ele><time>2026-04-26T07:36:00.185Z</time></trkpt><trkpt lat="43.3229041" lon="11.569216"><ele>208.0</ele><time>2026-04-26T07:36:01.187Z</time></trkpt><trkpt lat="43.3227676" lon="11.569245"><ele>207.0</ele><time>2026-04-26T07:36:02.188Z</time></trkpt><trkpt lat="43.3226288" lon="11.5692761"><ele>207.0</ele><time>2026-04-26T07:36:03.183Z</time></trkpt><trkpt lat="43.3224887" lon="11.5693076"><ele>207.0</ele><time>2026-04-26T07:36:04.188Z</time></trkpt><trkpt lat="43.3223469" lon="11.5693358"><ele>207.0</ele><time>2026-04-26T07:36:05.177Z</time></trkpt><trkpt lat="43.3222047" lon="11.5693652"><ele>207.0</ele><time>2026-04-26T07:36:06.184Z</time></trkpt><trkpt lat="43.3220607" lon="11.569396"><ele>206.75</ele><time>2026-04-26T07:36:07.173Z</time></trkpt><trkpt lat="43.3219161" lon="11.56943"><ele>206.5</ele><time>2026-04-26T07:36:08.173Z</time></trkpt><trkpt lat="43.3217715" lon="11.5694639"><ele>206.25</ele><time>2026-04-26T07:36:09.185Z</time></trkpt><trkpt lat="43.3216267" lon="11.569498"><ele>206.0</ele><time>2026-04-26T07:36:10.18Z</time></trkpt><trkpt lat="43.3214845" lon="11.5695421"><ele>206.0</ele><time>2026-04-26T07:36:11.167Z</time></trkpt><trkpt lat="43.3213532" lon="11.5696206"><ele>206.0</ele><time>2026-04-26T07:36:12.172Z</time></trkpt><trkpt lat="43.3212371" lon="11.5697397"><ele>206.0</ele><time>2026-04-26T07:36:13.179Z</time></trkpt><trkpt lat="43.3211277" lon="11.5698712"><ele>206.0</ele><time>2026-04-26T07:36:14.181Z</time></trkpt><trkpt lat="43.3210206" lon="11.5700067"><ele>206.0</ele><time>2026-04-26T07:36:15.18Z</time></trkpt><trkpt lat="43.3209141" lon="11.5701403"><ele>206.0</ele><time>2026-04-26T07:36:16.178Z</time></trkpt><trkpt lat="43.3208091" lon="11.570273"><ele>206.0</ele><time>2026-04-26T07:36:17.176Z</time></trkpt><trkpt lat="43.3207055" lon="11.5704048"><ele>206.0</ele><time>2026-04-26T07:36:18.174Z</time></trkpt><trkpt lat="43.3206031" lon="11.5705378"><ele>206.0</ele><time>2026-04-26T07:36:19.179Z</time></trkpt><trkpt lat="43.3204999" lon="11.5706722"><ele>206.0</ele><time>2026-04-26T07:36:20.165Z</time></trkpt><trkpt lat="43.3203964" lon="11.5708061"><ele>206.0</ele><time>2026-04-26T07:36:21.17Z</time></trkpt><trkpt lat="43.3202903" lon="11.5709437"><ele>206.0</ele><time>2026-04-26T07:36:22.18Z</time></trkpt><trkpt lat="43.3201815" lon="11.5710855"><ele>206.66666666666669</ele><time>2026-04-26T07:36:23.176Z</time></trkpt><trkpt lat="43.3200699" lon="11.5712293"><ele>207.33333333333331</ele><time>2026-04-26T07:36:24.178Z</time></trkpt><trkpt lat="43.3199543" lon="11.57138"><ele>208.0</ele><time>2026-04-26T07:36:25.173Z</time></trkpt><trkpt lat="43.3198383" lon="11.5715349"><ele>206.66666666666666</ele><time>2026-04-26T07:36:26.185Z</time></trkpt><trkpt lat="43.3197219" lon="11.5716892"><ele>205.33333333333331</ele><time>2026-04-26T07:36:27.172Z</time></trkpt><trkpt lat="43.3196053" lon="11.5718402"><ele>204.0</ele><time>2026-04-26T07:36:28.171Z</time></trkpt><trkpt lat="43.3194877" lon="11.5719861"><ele>204.33333333333331</ele><time>2026-04-26T07:36:29.195Z</time></trkpt><trkpt lat="43.3193695" lon="11.5721231"><ele>204.66666666666666</ele><time>2026-04-26T07:36:30.181Z</time></trkpt><trkpt lat="43.319242" lon="11.5722346"><ele>205.0</ele><time>2026-04-26T07:36:31.18Z</time></trkpt><trkpt lat="43.3191078" lon="11.5723278"><ele>205.0</ele><time>2026-04-26T07:36:32.174Z</time></trkpt><trkpt lat="43.3189704" lon="11.5723999"><ele>205.0</ele><time>2026-04-26T07:36:33.182Z</time></trkpt><trkpt lat="43.3188282" lon="11.572457"><ele>205.0</ele><time>2026-04-26T07:36:34.192Z</time></trkpt><trkpt lat="43.3186864" lon="11.5725103"><ele>205.0</ele><time>2026-04-26T07:36:35.182Z</time></trkpt><trkpt lat="43.3185552" lon="11.5725727"><ele>205.5</ele><time>2026-04-26T07:36:36.187Z</time></trkpt><trkpt lat="43.3184375" lon="11.5726609"><ele>206.0</ele><time>2026-04-26T07:36:37.197Z</time></trkpt><trkpt lat="43.318331" lon="11.5727777"><ele>206.5</ele><time>2026-04-26T07:36:38.17Z</time></trkpt><trkpt lat="43.3182296" lon="11.5729032"><ele>207.0</ele><time>2026-04-26T07:36:39.179Z</time></trkpt><trkpt lat="43.3181285" lon="11.573032"><ele>207.5</ele><time>2026-04-26T07:36:40.181Z</time></trkpt><trkpt lat="43.3180263" lon="11.5731625"><ele>208.0</ele><time>2026-04-26T07:36:41.184Z</time></trkpt><trkpt lat="43.3179244" lon="11.5732922"><ele>208.5</ele><time>2026-04-26T07:36:42.172Z</time></trkpt><trkpt lat="43.3178222" lon="11.5734223"><ele>209.0</ele><time>2026-04-26T07:36:43.196Z</time></trkpt><trkpt lat="43.3177194" lon="11.5735537"><ele>209.0</ele><time>2026-04-26T07:36:44.185Z</time></trkpt><trkpt lat="43.3176134" lon="11.5736848"><ele>209.0</ele><time>2026-04-26T07:36:45.189Z</time></trkpt><trkpt lat="43.3175076" lon="11.5738153"><ele>209.0</ele><time>2026-04-26T07:36:46.186Z</time></trkpt><trkpt lat="43.3174046" lon="11.5739437"><ele>209.0</ele><time>2026-04-26T07:36:47.193Z</time></trkpt><trkpt lat="43.3173035" lon="11.5740694"><ele>209.25</ele><time>2026-04-26T07:36:48.175Z</time></trkpt><trkpt lat="43.3172057" lon="11.5741924"><ele>209.5</ele><time>2026-04-26T07:36:49.169Z</time></trkpt><trkpt lat="43.3171068" lon="11.5743082"><ele>209.75</ele><time>2026-04-26T07:36:50.18Z</time></trkpt><trkpt lat="43.3170054" lon="11.5744347"><ele>210.0</ele><time>2026-04-26T07:36:51.167Z</time></trkpt><trkpt lat="43.3169026" lon="11.5745663"><ele>211.5</ele><time>2026-04-26T07:36:52.194Z</time></trkpt><trkpt lat="43.3168007" lon="11.5746978"><ele>213.0</ele><time>2026-04-26T07:36:53.189Z</time></trkpt><trkpt lat="43.3166942" lon="11.5748305"><ele>214.5</ele><time>2026-04-26T07:36:54.193Z</time></trkpt><trkpt lat="43.3165849" lon="11.574965"><ele>216.0</ele><time>2026-04-26T07:36:55.186Z</time></trkpt><trkpt lat="43.316476" lon="11.5750998"><ele>213.25</ele><time>2026-04-26T07:36:56.185Z</time></trkpt><trkpt lat="43.3163659" lon="11.5752343"><ele>210.5</ele><time>2026-04-26T07:36:57.19Z</time></trkpt><trkpt lat="43.3162571" lon="11.5753667"><ele>207.75</ele><time>2026-04-26T07:36:58.179Z</time></trkpt><trkpt lat="43.3161514" lon="11.5754968"><ele>205.0</ele><time>2026-04-26T07:36:59.175Z</time></trkpt><trkpt lat="43.3160479" lon="11.5756227"><ele>204.5</ele><time>2026-04-26T07:37:00.19Z</time></trkpt><trkpt lat="43.3159478" lon="11.5757445"><ele>204.0</ele><time>2026-04-26T07:37:01.181Z</time></trkpt><trkpt lat="43.3158504" lon="11.5758616"><ele>203.5</ele><time>2026-04-26T07:37:02.187Z</time></trkpt><trkpt lat="43.3157561" lon="11.5759738"><ele>203.0</ele><time>2026-04-26T07:37:03.175Z</time></trkpt><trkpt lat="43.3156644" lon="11.5760799"><ele>203.0</ele><time>2026-04-26T07:37:04.182Z</time></trkpt><trkpt lat="43.3155772" lon="11.5761823"><ele>203.0</ele><time>2026-04-26T07:37:05.186Z</time></trkpt><trkpt lat="43.3154953" lon="11.5762817"><ele>203.0</ele><time>2026-04-26T07:37:06.182Z</time></trkpt><trkpt lat="43.3154185" lon="11.5763774"><ele>203.0</ele><time>2026-04-26T07:37:07.178Z</time></trkpt><trkpt lat="43.3153473" lon="11.5764696"><ele>203.0</ele><time>2026-04-26T07:37:08.186Z</time></trkpt><trkpt lat="43.3152843" lon="11.5765584"><ele>202.83333333333334</ele><time>2026-04-26T07:37:09.18Z</time></trkpt><trkpt lat="43.3152296" lon="11.5766352"><ele>202.66666666666669</ele><time>2026-04-26T07:37:10.188Z</time></trkpt><trkpt lat="43.3151814" lon="11.576693"><ele>202.5</ele><time>2026-04-26T07:37:11.171Z</time></trkpt><trkpt lat="43.3150794" lon="11.5767055"><ele>202.33333333333331</ele><time>2026-04-26T07:37:13.186Z</time></trkpt><trkpt lat="43.3149795" lon="11.5766158"><ele>202.16666666666666</ele><time>2026-04-26T07:37:15.175Z</time></trkpt><trkpt lat="43.3149301" lon="11.5765599"><ele>202.0</ele><time>2026-04-26T07:37:16.18Z</time></trkpt><trkpt lat="43.3148831" lon="11.5764907"><ele>201.99999999999997</ele><time>2026-04-26T07:37:17.176Z</time></trkpt><trkpt lat="43.3148408" lon="11.5764241"><ele>202.0</ele><time>2026-04-26T07:37:18.178Z</time></trkpt><trkpt lat="43.3147601" lon="11.5763037"><ele>202.0</ele><time>2026-04-26T07:37:20.172Z</time></trkpt><trkpt lat="43.3147145" lon="11.5762238"><ele>202.0</ele><time>2026-04-26T07:37:22.177Z</time></trkpt><trkpt lat="43.3147353" lon="11.5761066"><ele>201.99999999999997</ele><time>2026-04-26T07:37:24.189Z</time></trkpt><trkpt lat="43.3147719" lon="11.5760314"><ele>202.0</ele><time>2026-04-26T07:37:25.17Z</time></trkpt><trkpt lat="43.3148262" lon="11.5759535"><ele>201.99999999999997</ele><time>2026-04-26T07:37:26.188Z</time></trkpt><trkpt lat="43.3148855" lon="11.5758754"><ele>202.0</ele><time>2026-04-26T07:37:27.17Z</time></trkpt><trkpt lat="43.3149471" lon="11.5758005"><ele>202.0</ele><time>2026-04-26T07:37:28.17Z</time></trkpt><trkpt lat="43.3150074" lon="11.5757202"><ele>202.0</ele><time>2026-04-26T07:37:29.169Z</time></trkpt><trkpt lat="43.3150703" lon="11.5756409"><ele>201.99999999999997</ele><time>2026-04-26T07:37:30.181Z</time></trkpt><trkpt lat="43.3151344" lon="11.5755566"><ele>202.0</ele><time>2026-04-26T07:37:31.188Z</time></trkpt><trkpt lat="43.3151996" lon="11.5754726"><ele>202.0</ele><time>2026-04-26T07:37:32.169Z</time></trkpt><trkpt lat="43.3152702" lon="11.5753883"><ele>202.0</ele><time>2026-04-26T07:37:33.186Z</time></trkpt><trkpt lat="43.3153418" lon="11.5753059"><ele>202.0</ele><time>2026-04-26T07:37:34.178Z</time></trkpt><trkpt lat="43.3154107" lon="11.5752258"><ele>202.0</ele><time>2026-04-26T07:37:35.183Z</time></trkpt><trkpt lat="43.3154854" lon="11.5751378"><ele>202.0</ele><time>2026-04-26T07:37:36.168Z</time></trkpt><trkpt lat="43.3155631" lon="11.5750494"><ele>202.6</ele><time>2026-04-26T07:37:37.169Z</time></trkpt><trkpt lat="43.315635" lon="11.5749706"><ele>203.2</ele><time>2026-04-26T07:37:38.171Z</time></trkpt><trkpt lat="43.315713" lon="11.5748861"><ele>203.8</ele><time>2026-04-26T07:37:39.181Z</time></trkpt><trkpt lat="43.315786" lon="11.5748129"><ele>204.4</ele><time>2026-04-26T07:37:40.172Z</time></trkpt><trkpt lat="43.3158554" lon="11.5747393"><ele>205.0</ele><time>2026-04-26T07:37:41.182Z</time></trkpt><trkpt lat="43.3159232" lon="11.5746625"><ele>205.0</ele><time>2026-04-26T07:37:42.189Z</time></trkpt><trkpt lat="43.3159919" lon="11.574578"><ele>205.0</ele><time>2026-04-26T07:37:43.19Z</time></trkpt><trkpt lat="43.3160591" lon="11.5744873"><ele>205.0</ele><time>2026-04-26T07:37:44.173Z</time></trkpt><trkpt lat="43.3161255" lon="11.5743986"><ele>205.0</ele><time>2026-04-26T07:37:45.19Z</time></trkpt><trkpt lat="43.3161908" lon="11.5743054"><ele>205.0</ele><time>2026-04-26T07:37:46.184Z</time></trkpt><trkpt lat="43.3162574" lon="11.574205"><ele>204.8</ele><time>2026-04-26T07:37:47.172Z</time></trkpt><trkpt lat="43.3163243" lon="11.5741003"><ele>204.6</ele><time>2026-04-26T07:37:48.176Z</time></trkpt><trkpt lat="43.31639" lon="11.5739885"><ele>204.39999999999998</ele><time>2026-04-26T07:37:49.18Z</time></trkpt><trkpt lat="43.3164556" lon="11.5738735"><ele>204.2</ele><time>2026-04-26T07:37:50.186Z</time></trkpt><trkpt lat="43.3165198" lon="11.5737603"><ele>204.0</ele><time>2026-04-26T07:37:51.177Z</time></trkpt><trkpt lat="43.3165831" lon="11.5736489"><ele>204.6</ele><time>2026-04-26T07:37:52.171Z</time></trkpt><trkpt lat="43.3166454" lon="11.5735438"><ele>205.2</ele><time>2026-04-26T07:37:53.188Z</time></trkpt><trkpt lat="43.3167036" lon="11.5734462"><ele>205.79999999999998</ele><time>2026-04-26T07:37:54.171Z</time></trkpt><trkpt lat="43.316763" lon="11.5733581"><ele>206.39999999999998</ele><time>2026-04-26T07:37:55.172Z</time></trkpt><trkpt lat="43.3168285" lon="11.5732726"><ele>207.0</ele><time>2026-04-26T07:37:56.17Z</time></trkpt><trkpt lat="43.3168897" lon="11.5731893"><ele>207.0</ele><time>2026-04-26T07:37:57.18Z</time></trkpt><trkpt lat="43.3169581" lon="11.573112"><ele>207.0</ele><time>2026-04-26T07:37:58.166Z</time></trkpt><trkpt lat="43.3170353" lon="11.5730438"><ele>207.0</ele><time>2026-04-26T07:37:59.18Z</time></trkpt><trkpt lat="43.3171302" lon="11.5729827"><ele>207.0</ele><time>2026-04-26T07:38:00.174Z</time></trkpt><trkpt lat="43.3172175" lon="11.5729513"><ele>207.0</ele><time>2026-04-26T07:38:01.185Z</time></trkpt><trkpt lat="43.3173034" lon="11.5729305"><ele>207.39999999999998</ele><time>2026-04-26T07:38:02.18Z</time></trkpt><trkpt lat="43.31737" lon="11.5729087"><ele>207.79999999999998</ele><time>2026-04-26T07:38:03.184Z</time></trkpt><trkpt lat="43.3174715" lon="11.5728584"><ele>208.2</ele><time>2026-04-26T07:38:05.172Z</time></trkpt><trkpt lat="43.3175211" lon="11.5727461"><ele>208.6</ele><time>2026-04-26T07:38:07.182Z</time></trkpt><trkpt lat="43.3174979" lon="11.5725906"><ele>209.0</ele><time>2026-04-26T07:38:09.187Z</time></trkpt><trkpt lat="43.3174692" lon="11.5724922"><ele>208.2</ele><time>2026-04-26T07:38:10.185Z</time></trkpt><trkpt lat="43.3174369" lon="11.5723814"><ele>207.39999999999998</ele><time>2026-04-26T07:38:11.179Z</time></trkpt><trkpt lat="43.3174063" lon="11.5722675"><ele>206.6</ele><time>2026-04-26T07:38:12.168Z</time></trkpt><trkpt lat="43.3173716" lon="11.5721493"><ele>205.8</ele><time>2026-04-26T07:38:13.171Z</time></trkpt><trkpt lat="43.3173292" lon="11.5720287"><ele>205.0</ele><time>2026-04-26T07:38:14.176Z</time></trkpt><trkpt lat="43.3172797" lon="11.571905"><ele>204.4</ele><time>2026-04-26T07:38:15.187Z</time></trkpt><trkpt lat="43.3172242" lon="11.5717813"><ele>203.8</ele><time>2026-04-26T07:38:16.173Z</time></trkpt><trkpt lat="43.3171643" lon="11.5716548"><ele>203.2</ele><time>2026-04-26T07:38:17.185Z</time></trkpt><trkpt lat="43.3171075" lon="11.571525"><ele>202.6</ele><time>2026-04-26T07:38:18.188Z</time></trkpt><trkpt lat="43.3170527" lon="11.5714025"><ele>202.0</ele><time>2026-04-26T07:38:19.188Z</time></trkpt><trkpt lat="43.3170016" lon="11.5712812"><ele>202.0</ele><time>2026-04-26T07:38:20.185Z</time></trkpt><trkpt lat="43.3169519" lon="11.5711634"><ele>202.0</ele><time>2026-04-26T07:38:21.191Z</time></trkpt><trkpt lat="43.3169026" lon="11.5710477"><ele>202.0</ele><time>2026-04-26T07:38:22.172Z</time></trkpt><trkpt lat="43.3168547" lon="11.5709321"><ele>202.0</ele><time>2026-04-26T07:38:23.182Z</time></trkpt><trkpt lat="43.3168076" lon="11.5708173"><ele>202.0</ele><time>2026-04-26T07:38:24.167Z</time></trkpt><trkpt lat="43.3167613" lon="11.5707042"><ele>202.0</ele><time>2026-04-26T07:38:25.188Z</time></trkpt><trkpt lat="43.3167149" lon="11.5705947"><ele>202.0</ele><time>2026-04-26T07:38:26.191Z</time></trkpt><trkpt lat="43.3166645" lon="11.5704889"><ele>202.0</ele><time>2026-04-26T07:38:27.184Z</time></trkpt><trkpt lat="43.3166035" lon="11.5703933"><ele>202.0</ele><time>2026-04-26T07:38:28.178Z</time></trkpt><trkpt lat="43.3165316" lon="11.5703139"><ele>202.0</ele><time>2026-04-26T07:38:29.191Z</time></trkpt><trkpt lat="43.3164602" lon="11.5702356"><ele>202.0</ele><time>2026-04-26T07:38:30.185Z</time></trkpt><trkpt lat="43.3163846" lon="11.5701497"><ele>202.0</ele><time>2026-04-26T07:38:31.186Z</time></trkpt><trkpt lat="43.3163065" lon="11.5700611"><ele>202.0</ele><time>2026-04-26T07:38:32.189Z</time></trkpt><trkpt lat="43.3162254" lon="11.5699734"><ele>202.0</ele><time>2026-04-26T07:38:33.181Z</time></trkpt><trkpt lat="43.3161443" lon="11.5698858"><ele>202.0</ele><time>2026-04-26T07:38:34.183Z</time></trkpt><trkpt lat="43.3160636" lon="11.5697993"><ele>202.0</ele><time>2026-04-26T07:38:35.19Z</time></trkpt><trkpt lat="43.315985" lon="11.5697182"><ele>202.0</ele><time>2026-04-26T07:38:36.18Z</time></trkpt><trkpt lat="43.3159082" lon="11.5696435"><ele>202.0</ele><time>2026-04-26T07:38:37.193Z</time></trkpt><trkpt lat="43.3158312" lon="11.5695713"><ele>202.0</ele><time>2026-04-26T07:38:38.187Z</time></trkpt><trkpt lat="43.3157562" lon="11.5695026"><ele>202.0</ele><time>2026-04-26T07:38:39.182Z</time></trkpt><trkpt lat="43.3156791" lon="11.5694394"><ele>203.0</ele><time>2026-04-26T07:38:40.19Z</time></trkpt><trkpt lat="43.3155985" lon="11.569383"><ele>204.0</ele><time>2026-04-26T07:38:41.173Z</time></trkpt><trkpt lat="43.3155151" lon="11.5693304"><ele>205.0</ele><time>2026-04-26T07:38:42.18Z</time></trkpt><trkpt lat="43.3154295" lon="11.5692787"><ele>206.0</ele><time>2026-04-26T07:38:43.183Z</time></trkpt><trkpt lat="43.3153442" lon="11.5692299"><ele>207.0</ele><time>2026-04-26T07:38:44.171Z</time></trkpt><trkpt lat="43.3152606" lon="11.5691829"><ele>207.0</ele><time>2026-04-26T07:38:45.187Z</time></trkpt><trkpt lat="43.3151812" lon="11.5691353"><ele>207.0</ele><time>2026-04-26T07:38:46.173Z</time></trkpt><trkpt lat="43.3151041" lon="11.5690925"><ele>207.0</ele><time>2026-04-26T07:38:47.179Z</time></trkpt><trkpt lat="43.3150262" lon="11.5690543"><ele>207.0</ele><time>2026-04-26T07:38:48.171Z</time></trkpt><trkpt lat="43.3149506" lon="11.5690186"><ele>207.0</ele><time>2026-04-26T07:38:49.175Z</time></trkpt><trkpt lat="43.3148718" lon="11.5690158"><ele>207.0</ele><time>2026-04-26T07:38:50.18Z</time></trkpt><trkpt lat="43.3147987" lon="11.5690347"><ele>208.33333333333334</ele><time>2026-04-26T07:38:51.172Z</time></trkpt><trkpt lat="43.3147289" lon="11.5690683"><ele>209.66666666666669</ele><time>2026-04-26T07:38:52.185Z</time></trkpt><trkpt lat="43.3146561" lon="11.569107"><ele>211.0</ele><time>2026-04-26T07:38:53.18Z</time></trkpt><trkpt lat="43.3145833" lon="11.5691453"><ele>212.33333333333334</ele><time>2026-04-26T07:38:54.172Z</time></trkpt><trkpt lat="43.31451" lon="11.5691836"><ele>213.66666666666669</ele><time>2026-04-26T07:38:55.177Z</time></trkpt><trkpt lat="43.314431" lon="11.569212"><ele>215.0</ele><time>2026-04-26T07:38:56.182Z</time></trkpt><trkpt lat="43.314345" lon="11.5692264"><ele>215.0</ele><time>2026-04-26T07:38:57.184Z</time></trkpt><trkpt lat="43.3142529" lon="11.5692249"><ele>215.0</ele><time>2026-04-26T07:38:58.184Z</time></trkpt><trkpt lat="43.3141576" lon="11.5692188"><ele>215.0</ele><time>2026-04-26T07:38:59.183Z</time></trkpt><trkpt lat="43.3140652" lon="11.5692139"><ele>215.0</ele><time>2026-04-26T07:39:00.171Z</time></trkpt><trkpt lat="43.3139777" lon="11.5692134"><ele>215.0</ele><time>2026-04-26T07:39:01.174Z</time></trkpt><trkpt lat="43.313891" lon="11.5692083"><ele>216.2</ele><time>2026-04-26T07:39:02.17Z</time></trkpt><trkpt lat="43.3138033" lon="11.5692001"><ele>217.4</ele><time>2026-04-26T07:39:03.198Z</time></trkpt><trkpt lat="43.3137137" lon="11.5691876"><ele>218.60000000000002</ele><time>2026-04-26T07:39:04.175Z</time></trkpt><trkpt lat="43.3136231" lon="11.5691724"><ele>219.8</ele><time>2026-04-26T07:39:05.179Z</time></trkpt><trkpt lat="43.3135307" lon="11.5691565"><ele>221.0</ele><time>2026-04-26T07:39:06.17Z</time></trkpt><trkpt lat="43.3134379" lon="11.5691412"><ele>221.00000000000003</ele><time>2026-04-26T07:39:07.18Z</time></trkpt><trkpt lat="43.3133472" lon="11.5691251"><ele>221.0</ele><time>2026-04-26T07:39:08.186Z</time></trkpt><trkpt lat="43.3132578" lon="11.5691051"><ele>221.0</ele><time>2026-04-26T07:39:09.178Z</time></trkpt><trkpt lat="43.3131727" lon="11.5690833"><ele>221.0</ele><time>2026-04-26T07:39:10.169Z</time></trkpt><trkpt lat="43.3130927" lon="11.5690609"><ele>221.00000000000003</ele><time>2026-04-26T07:39:11.175Z</time></trkpt><trkpt lat="43.3130153" lon="11.569032"><ele>221.0</ele><time>2026-04-26T07:39:12.179Z</time></trkpt><trkpt lat="43.3129396" lon="11.5689935"><ele>223.8</ele><time>2026-04-26T07:39:13.19Z</time></trkpt><trkpt lat="43.3128606" lon="11.5689463"><ele>226.60000000000002</ele><time>2026-04-26T07:39:14.172Z</time></trkpt><trkpt lat="43.3127798" lon="11.5688938"><ele>229.4</ele><time>2026-04-26T07:39:15.192Z</time></trkpt><trkpt lat="43.3126982" lon="11.5688383"><ele>232.2</ele><time>2026-04-26T07:39:16.191Z</time></trkpt><trkpt lat="43.3126152" lon="11.5687819"><ele>235.0</ele><time>2026-04-26T07:39:17.184Z</time></trkpt><trkpt lat="43.3125315" lon="11.5687238"><ele>233.4</ele><time>2026-04-26T07:39:18.189Z</time></trkpt><trkpt lat="43.3124493" lon="11.5686604"><ele>231.8</ele><time>2026-04-26T07:39:19.193Z</time></trkpt><trkpt lat="43.3123673" lon="11.5685936"><ele>230.2</ele><time>2026-04-26T07:39:20.179Z</time></trkpt><trkpt lat="43.3122835" lon="11.5685218"><ele>228.6</ele><time>2026-04-26T07:39:21.186Z</time></trkpt><trkpt lat="43.3121985" lon="11.568445"><ele>227.0</ele><time>2026-04-26T07:39:22.187Z</time></trkpt><trkpt lat="43.3121144" lon="11.5683663"><ele>230.8</ele><time>2026-04-26T07:39:23.174Z</time></trkpt><trkpt lat="43.3120316" lon="11.568286"><ele>234.6</ele><time>2026-04-26T07:39:24.194Z</time></trkpt><trkpt lat="43.3119523" lon="11.5682078"><ele>238.40000000000003</ele><time>2026-04-26T07:39:25.175Z</time></trkpt><trkpt lat="43.3118776" lon="11.5681342"><ele>242.20000000000002</ele><time>2026-04-26T07:39:26.177Z</time></trkpt><trkpt lat="43.3118056" lon="11.5680646"><ele>246.0</ele><time>2026-04-26T07:39:27.184Z</time></trkpt><trkpt lat="43.3117337" lon="11.5680007"><ele>246.0</ele><time>2026-04-26T07:39:28.173Z</time></trkpt><trkpt lat="43.3116618" lon="11.5679454"><ele>246.0</ele><time>2026-04-26T07:39:29.196Z</time></trkpt><trkpt lat="43.3115908" lon="11.5678919"><ele>246.0</ele><time>2026-04-26T07:39:30.193Z</time></trkpt><trkpt lat="43.3115125" lon="11.5678597"><ele>246.0</ele><time>2026-04-26T07:39:31.184Z</time></trkpt><trkpt lat="43.311434" lon="11.5678296"><ele>246.0</ele><time>2026-04-26T07:39:32.185Z</time></trkpt><trkpt lat="43.3113498" lon="11.5678272"><ele>246.0</ele><time>2026-04-26T07:39:33.172Z</time></trkpt><trkpt lat="43.3112622" lon="11.5678265"><ele>247.83333333333334</ele><time>2026-04-26T07:39:34.179Z</time></trkpt><trkpt lat="43.3111742" lon="11.5678242"><ele>249.66666666666669</ele><time>2026-04-26T07:39:35.172Z</time></trkpt><trkpt lat="43.3110913" lon="11.5678191"><ele>251.5</ele><time>2026-04-26T07:39:36.165Z</time></trkpt><trkpt lat="43.3110178" lon="11.5677916"><ele>253.33333333333334</ele><time>2026-04-26T07:39:37.179Z</time></trkpt><trkpt lat="43.3109564" lon="11.5677252"><ele>255.16666666666669</ele><time>2026-04-26T07:39:38.181Z</time></trkpt><trkpt lat="43.3109071" lon="11.5676454"><ele>257.0</ele><time>2026-04-26T07:39:39.18Z</time></trkpt><trkpt lat="43.3108535" lon="11.5675683"><ele>257.0</ele><time>2026-04-26T07:39:40.177Z</time></trkpt><trkpt lat="43.3107974" lon="11.5674946"><ele>257.0</ele><time>2026-04-26T07:39:41.183Z</time></trkpt><trkpt lat="43.3107274" lon="11.5674303"><ele>257.0</ele><time>2026-04-26T07:39:42.17Z</time></trkpt><trkpt lat="43.310653" lon="11.5673711"><ele>257.0</ele><time>2026-04-26T07:39:43.176Z</time></trkpt><trkpt lat="43.310574" lon="11.5673184"><ele>257.0</ele><time>2026-04-26T07:39:44.18Z</time></trkpt><trkpt lat="43.3104866" lon="11.5672716"><ele>257.0</ele><time>2026-04-26T07:39:45.167Z</time></trkpt><trkpt lat="43.3104" lon="11.5672366"><ele>258.85714285714283</ele><time>2026-04-26T07:39:46.185Z</time></trkpt><trkpt lat="43.3103191" lon="11.5672082"><ele>260.7142857142857</ele><time>2026-04-26T07:39:47.184Z</time></trkpt><trkpt lat="43.310242" lon="11.5671822"><ele>262.57142857142856</ele><time>2026-04-26T07:39:48.178Z</time></trkpt><trkpt lat="43.3101712" lon="11.5671459"><ele>264.42857142857144</ele><time>2026-04-26T07:39:49.177Z</time></trkpt><trkpt lat="43.3101098" lon="11.5670948"><ele>266.2857142857143</ele><time>2026-04-26T07:39:50.185Z</time></trkpt><trkpt lat="43.3100638" lon="11.5670286"><ele>268.1428571428571</ele><time>2026-04-26T07:39:51.178Z</time></trkpt><trkpt lat="43.3100366" lon="11.5669454"><ele>270.0</ele><time>2026-04-26T07:39:52.181Z</time></trkpt><trkpt lat="43.3100343" lon="11.5668524"><ele>270.0</ele><time>2026-04-26T07:39:53.19Z</time></trkpt><trkpt lat="43.3100393" lon="11.5667499"><ele>270.0</ele><time>2026-04-26T07:39:54.174Z</time></trkpt><trkpt lat="43.3100455" lon="11.5666465"><ele>270.0</ele><time>2026-04-26T07:39:55.17Z</time></trkpt><trkpt lat="43.3100458" lon="11.5665481"><ele>270.0</ele><time>2026-04-26T07:39:56.183Z</time></trkpt><trkpt lat="43.3100354" lon="11.5664491"><ele>270.0</ele><time>2026-04-26T07:39:57.187Z</time></trkpt><trkpt lat="43.3100252" lon="11.5663568"><ele>270.0</ele><time>2026-04-26T07:39:58.176Z</time></trkpt><trkpt lat="43.3099981" lon="11.5662687"><ele>270.0</ele><time>2026-04-26T07:39:59.185Z</time></trkpt><trkpt lat="43.3099701" lon="11.5661813"><ele>270.6666666666667</ele><time>2026-04-26T07:40:00.179Z</time></trkpt><trkpt lat="43.309939" lon="11.5660882"><ele>271.3333333333333</ele><time>2026-04-26T07:40:01.162Z</time></trkpt><trkpt lat="43.3099063" lon="11.5659859"><ele>272.0</ele><time>2026-04-26T07:40:02.172Z</time></trkpt><trkpt lat="43.3098729" lon="11.5658882"><ele>272.66666666666663</ele><time>2026-04-26T07:40:03.172Z</time></trkpt><trkpt lat="43.3098383" lon="11.5657953"><ele>273.3333333333333</ele><time>2026-04-26T07:40:04.171Z</time></trkpt><trkpt lat="43.3098066" lon="11.565706"><ele>274.0</ele><time>2026-04-26T07:40:05.186Z</time></trkpt><trkpt lat="43.309774" lon="11.5656226"><ele>274.0</ele><time>2026-04-26T07:40:06.18Z</time></trkpt><trkpt lat="43.309747" lon="11.5655435"><ele>274.0</ele><time>2026-04-26T07:40:07.178Z</time></trkpt><trkpt lat="43.3096986" lon="11.5653871"><ele>274.0</ele><time>2026-04-26T07:40:09.191Z</time></trkpt><trkpt lat="43.3096267" lon="11.5652447"><ele>274.0</ele><time>2026-04-26T07:40:11.174Z</time></trkpt><trkpt lat="43.3095659" lon="11.5651993"><ele>274.0</ele><time>2026-04-26T07:40:12.175Z</time></trkpt><trkpt lat="43.3094974" lon="11.5651739"><ele>274.3333333333333</ele><time>2026-04-26T07:40:13.188Z</time></trkpt><trkpt lat="43.3094179" lon="11.5651715"><ele>274.66666666666663</ele><time>2026-04-26T07:40:14.182Z</time></trkpt><trkpt lat="43.309336" lon="11.5651746"><ele>275.0</ele><time>2026-04-26T07:40:15.178Z</time></trkpt><trkpt lat="43.3092485" lon="11.5651938"><ele>275.3333333333333</ele><time>2026-04-26T07:40:16.172Z</time></trkpt><trkpt lat="43.3091669" lon="11.5652139"><ele>275.6666666666667</ele><time>2026-04-26T07:40:17.185Z</time></trkpt><trkpt lat="43.3090859" lon="11.5652302"><ele>276.0</ele><time>2026-04-26T07:40:18.186Z</time></trkpt><trkpt lat="43.3090056" lon="11.5652367"><ele>276.0</ele><time>2026-04-26T07:40:19.183Z</time></trkpt><trkpt lat="43.3089271" lon="11.5652261"><ele>276.0</ele><time>2026-04-26T07:40:20.184Z</time></trkpt><trkpt lat="43.3088497" lon="11.5651973"><ele>276.0</ele><time>2026-04-26T07:40:21.183Z</time></trkpt><trkpt lat="43.3087792" lon="11.5651465"><ele>276.0</ele><time>2026-04-26T07:40:22.178Z</time></trkpt><trkpt lat="43.308721" lon="11.5650735"><ele>276.0</ele><time>2026-04-26T07:40:23.181Z</time></trkpt><trkpt lat="43.3086738" lon="11.564982"><ele>276.0</ele><time>2026-04-26T07:40:24.179Z</time></trkpt><trkpt lat="43.3086375" lon="11.5648826"><ele>275.5</ele><time>2026-04-26T07:40:25.189Z</time></trkpt><trkpt lat="43.3086026" lon="11.5647802"><ele>275.0</ele><time>2026-04-26T07:40:26.188Z</time></trkpt><trkpt lat="43.3085691" lon="11.5646717"><ele>274.5</ele><time>2026-04-26T07:40:27.173Z</time></trkpt><trkpt lat="43.308534" lon="11.5645605"><ele>274.0</ele><time>2026-04-26T07:40:28.175Z</time></trkpt><trkpt lat="43.3084986" lon="11.564445"><ele>273.5</ele><time>2026-04-26T07:40:29.182Z</time></trkpt><trkpt lat="43.308461" lon="11.5643226"><ele>273.0</ele><time>2026-04-26T07:40:30.188Z</time></trkpt><trkpt lat="43.3084219" lon="11.5641951"><ele>273.0</ele><time>2026-04-26T07:40:31.194Z</time></trkpt><trkpt lat="43.3083825" lon="11.5640673"><ele>273.0</ele><time>2026-04-26T07:40:32.176Z</time></trkpt><trkpt lat="43.3083419" lon="11.5639359"><ele>273.0</ele><time>2026-04-26T07:40:33.176Z</time></trkpt><trkpt lat="43.3082984" lon="11.5638073"><ele>273.0</ele><time>2026-04-26T07:40:34.178Z</time></trkpt><trkpt lat="43.3082493" lon="11.5636867"><ele>273.0</ele><time>2026-04-26T07:40:35.187Z</time></trkpt><trkpt lat="43.3081936" lon="11.5635781"><ele>273.4</ele><time>2026-04-26T07:40:36.189Z</time></trkpt><trkpt lat="43.3081291" lon="11.5634847"><ele>273.8</ele><time>2026-04-26T07:40:37.174Z</time></trkpt><trkpt lat="43.3080569" lon="11.5634051"><ele>274.2</ele><time>2026-04-26T07:40:38.18Z</time></trkpt><trkpt lat="43.307977" lon="11.563332"><ele>274.6</ele><time>2026-04-26T07:40:39.179Z</time></trkpt><trkpt lat="43.3078933" lon="11.5632605"><ele>275.0</ele><time>2026-04-26T07:40:40.187Z</time></trkpt><trkpt lat="43.3078078" lon="11.5631864"><ele>275.0</ele><time>2026-04-26T07:40:41.191Z</time></trkpt><trkpt lat="43.3077206" lon="11.5631101"><ele>275.0</ele><time>2026-04-26T07:40:42.18Z</time></trkpt><trkpt lat="43.3076324" lon="11.5630339"><ele>275.0</ele><time>2026-04-26T07:40:43.179Z</time></trkpt><trkpt lat="43.3075465" lon="11.5629591"><ele>275.0</ele><time>2026-04-26T07:40:44.185Z</time></trkpt><trkpt lat="43.3074626" lon="11.5628858"><ele>275.0</ele><time>2026-04-26T07:40:45.188Z</time></trkpt><trkpt lat="43.30738" lon="11.562815"><ele>275.5</ele><time>2026-04-26T07:40:46.184Z</time></trkpt><trkpt lat="43.307301" lon="11.5627467"><ele>276.0</ele><time>2026-04-26T07:40:47.167Z</time></trkpt><trkpt lat="43.3072247" lon="11.5626803"><ele>276.5</ele><time>2026-04-26T07:40:48.166Z</time></trkpt><trkpt lat="43.3071517" lon="11.5626157"><ele>277.0</ele><time>2026-04-26T07:40:49.173Z</time></trkpt><trkpt lat="43.3070768" lon="11.5625597"><ele>277.5</ele><time>2026-04-26T07:40:50.172Z</time></trkpt><trkpt lat="43.3069937" lon="11.5625225"><ele>278.0</ele><time>2026-04-26T07:40:51.194Z</time></trkpt><trkpt lat="43.3069053" lon="11.5625124"><ele>278.4</ele><time>2026-04-26T07:40:52.188Z</time></trkpt><trkpt lat="43.3068129" lon="11.5625178"><ele>278.8</ele><time>2026-04-26T07:40:53.182Z</time></trkpt><trkpt lat="43.3067166" lon="11.5625263"><ele>279.2</ele><time>2026-04-26T07:40:54.186Z</time></trkpt><trkpt lat="43.3066174" lon="11.5625328"><ele>279.6</ele><time>2026-04-26T07:40:55.171Z</time></trkpt><trkpt lat="43.3065174" lon="11.562542"><ele>280.0</ele><time>2026-04-26T07:40:56.191Z</time></trkpt><trkpt lat="43.3064172" lon="11.5625524"><ele>280.4</ele><time>2026-04-26T07:40:57.173Z</time></trkpt><trkpt lat="43.3063182" lon="11.5625626"><ele>280.8</ele><time>2026-04-26T07:40:58.175Z</time></trkpt><trkpt lat="43.3062209" lon="11.5625703"><ele>281.2</ele><time>2026-04-26T07:40:59.169Z</time></trkpt><trkpt lat="43.3061247" lon="11.5625716"><ele>281.6</ele><time>2026-04-26T07:41:00.168Z</time></trkpt><trkpt lat="43.3060302" lon="11.562565"><ele>282.0</ele><time>2026-04-26T07:41:01.171Z</time></trkpt><trkpt lat="43.3059369" lon="11.5625445"><ele>282.0</ele><time>2026-04-26T07:41:02.179Z</time></trkpt><trkpt lat="43.3058485" lon="11.5624992"><ele>282.0</ele><time>2026-04-26T07:41:03.185Z</time></trkpt><trkpt lat="43.3057667" lon="11.562428"><ele>282.0</ele><time>2026-04-26T07:41:04.18Z</time></trkpt><trkpt lat="43.3056932" lon="11.5623365"><ele>282.0</ele><time>2026-04-26T07:41:05.181Z</time></trkpt><trkpt lat="43.3056242" lon="11.5622347"><ele>282.0</ele><time>2026-04-26T07:41:06.187Z</time></trkpt><trkpt lat="43.3055671" lon="11.5621371"><ele>282.0</ele><time>2026-04-26T07:41:07.176Z</time></trkpt><trkpt lat="43.3055154" lon="11.5620464"><ele>282.0</ele><time>2026-04-26T07:41:08.186Z</time></trkpt><trkpt lat="43.3054652" lon="11.5619627"><ele>282.0</ele><time>2026-04-26T07:41:09.18Z</time></trkpt><trkpt lat="43.3054227" lon="11.5618771"><ele>282.0</ele><time>2026-04-26T07:41:10.185Z</time></trkpt><trkpt lat="43.3053902" lon="11.56178"><ele>282.0</ele><time>2026-04-26T07:41:11.173Z</time></trkpt><trkpt lat="43.3053622" lon="11.5616733"><ele>282.0</ele><time>2026-04-26T07:41:12.172Z</time></trkpt><trkpt lat="43.3053349" lon="11.5615611"><ele>282.0</ele><time>2026-04-26T07:41:13.191Z</time></trkpt><trkpt lat="43.3053049" lon="11.5614471"><ele>282.0</ele><time>2026-04-26T07:41:14.187Z</time></trkpt><trkpt lat="43.305273" lon="11.5613339"><ele>282.0</ele><time>2026-04-26T07:41:15.19Z</time></trkpt><trkpt lat="43.3052384" lon="11.5612232"><ele>282.0</ele><time>2026-04-26T07:41:16.169Z</time></trkpt><trkpt lat="43.3052029" lon="11.5611168"><ele>282.0</ele><time>2026-04-26T07:41:17.175Z</time></trkpt><trkpt lat="43.3051713" lon="11.561014"><ele>282.0</ele><time>2026-04-26T07:41:18.189Z</time></trkpt><trkpt lat="43.305134" lon="11.5609181"><ele>282.0</ele><time>2026-04-26T07:41:19.184Z</time></trkpt><trkpt lat="43.3050865" lon="11.5608329"><ele>282.0</ele><time>2026-04-26T07:41:20.19Z</time></trkpt><trkpt lat="43.3050375" lon="11.560749"><ele>282.0</ele><time>2026-04-26T07:41:21.168Z</time></trkpt><trkpt lat="43.3049719" lon="11.5606854"><ele>282.0</ele><time>2026-04-26T07:41:22.171Z</time></trkpt><trkpt lat="43.3048945" lon="11.5606276"><ele>282.0</ele><time>2026-04-26T07:41:23.177Z</time></trkpt><trkpt lat="43.3048148" lon="11.5605685"><ele>282.0</ele><time>2026-04-26T07:41:24.172Z</time></trkpt><trkpt lat="43.3047306" lon="11.5604981"><ele>282.0</ele><time>2026-04-26T07:41:25.184Z</time></trkpt><trkpt lat="43.3046454" lon="11.5604261"><ele>282.0</ele><time>2026-04-26T07:41:26.171Z</time></trkpt><trkpt lat="43.3045597" lon="11.5603545"><ele>282.0</ele><time>2026-04-26T07:41:27.187Z</time></trkpt><trkpt lat="43.3044742" lon="11.5602853"><ele>282.0</ele><time>2026-04-26T07:41:28.167Z</time></trkpt><trkpt lat="43.304389" lon="11.5602142"><ele>282.0</ele><time>2026-04-26T07:41:29.18Z</time></trkpt><trkpt lat="43.3043022" lon="11.5601419"><ele>282.0</ele><time>2026-04-26T07:41:30.167Z</time></trkpt><trkpt lat="43.3042167" lon="11.56007"><ele>282.0</ele><time>2026-04-26T07:41:31.165Z</time></trkpt><trkpt lat="43.3041313" lon="11.5599973"><ele>282.0</ele><time>2026-04-26T07:41:32.182Z</time></trkpt><trkpt lat="43.3040482" lon="11.5599275"><ele>282.0</ele><time>2026-04-26T07:41:33.186Z</time></trkpt><trkpt lat="43.3039652" lon="11.5598581"><ele>282.0</ele><time>2026-04-26T07:41:34.183Z</time></trkpt><trkpt lat="43.303888" lon="11.5597872"><ele>280.0</ele><time>2026-04-26T07:41:35.189Z</time></trkpt><trkpt lat="43.3038181" lon="11.5597057"><ele>278.0</ele><time>2026-04-26T07:41:36.173Z</time></trkpt><trkpt lat="43.3037633" lon="11.5596095"><ele>276.0</ele><time>2026-04-26T07:41:37.191Z</time></trkpt><trkpt lat="43.3037232" lon="11.5595011"><ele>274.0</ele><time>2026-04-26T07:41:38.184Z</time></trkpt><trkpt lat="43.3036909" lon="11.5593804"><ele>272.0</ele><time>2026-04-26T07:41:39.188Z</time></trkpt><trkpt lat="43.3036621" lon="11.5592479"><ele>272.0</ele><time>2026-04-26T07:41:40.175Z</time></trkpt><trkpt lat="43.3036344" lon="11.5591083"><ele>272.0</ele><time>2026-04-26T07:41:41.178Z</time></trkpt><trkpt lat="43.3036109" lon="11.5589696"><ele>272.0</ele><time>2026-04-26T07:41:42.197Z</time></trkpt><trkpt lat="43.3035881" lon="11.5588325"><ele>272.0</ele><time>2026-04-26T07:41:43.179Z</time></trkpt><trkpt lat="43.3035658" lon="11.5586978"><ele>272.0</ele><time>2026-04-26T07:41:44.193Z</time></trkpt><trkpt lat="43.3035448" lon="11.5585633"><ele>272.6</ele><time>2026-04-26T07:41:45.186Z</time></trkpt><trkpt lat="43.3035236" lon="11.5584297"><ele>273.2</ele><time>2026-04-26T07:41:46.189Z</time></trkpt><trkpt lat="43.3035018" lon="11.5582957"><ele>273.8</ele><time>2026-04-26T07:41:47.17Z</time></trkpt><trkpt lat="43.3034803" lon="11.5581644"><ele>274.4</ele><time>2026-04-26T07:41:48.178Z</time></trkpt><trkpt lat="43.3034596" lon="11.5580359"><ele>275.0</ele><time>2026-04-26T07:41:49.192Z</time></trkpt><trkpt lat="43.3034408" lon="11.5579101"><ele>275.6666666666667</ele><time>2026-04-26T07:41:50.189Z</time></trkpt><trkpt lat="43.3034233" lon="11.5577859"><ele>276.33333333333337</ele><time>2026-04-26T07:41:51.181Z</time></trkpt><trkpt lat="43.3034071" lon="11.5576648"><ele>277.0</ele><time>2026-04-26T07:41:52.183Z</time></trkpt><trkpt lat="43.3033911" lon="11.5575488"><ele>277.6666666666667</ele><time>2026-04-26T07:41:53.168Z</time></trkpt><trkpt lat="43.3033763" lon="11.5574402"><ele>278.3333333333333</ele><time>2026-04-26T07:41:54.175Z</time></trkpt><trkpt lat="43.3033585" lon="11.5573387"><ele>279.0</ele><time>2026-04-26T07:41:55.186Z</time></trkpt><trkpt lat="43.3033313" lon="11.5572462"><ele>279.0</ele><time>2026-04-26T07:41:56.185Z</time></trkpt><trkpt lat="43.3032894" lon="11.5571615"><ele>279.0</ele><time>2026-04-26T07:41:57.165Z</time></trkpt><trkpt lat="43.3032335" lon="11.5570847"><ele>279.0</ele><time>2026-04-26T07:41:58.186Z</time></trkpt><trkpt lat="43.303166" lon="11.5570181"><ele>279.0</ele><time>2026-04-26T07:41:59.188Z</time></trkpt><trkpt lat="43.303089" lon="11.5569679"><ele>279.0</ele><time>2026-04-26T07:42:00.172Z</time></trkpt><trkpt lat="43.303004" lon="11.5569366"><ele>279.0</ele><time>2026-04-26T07:42:01.19Z</time></trkpt><trkpt lat="43.3029114" lon="11.5569283"><ele>277.2</ele><time>2026-04-26T07:42:02.176Z</time></trkpt><trkpt lat="43.3028109" lon="11.5569376"><ele>275.4</ele><time>2026-04-26T07:42:03.18Z</time></trkpt><trkpt lat="43.3027028" lon="11.5569607"><ele>273.6</ele><time>2026-04-26T07:42:04.177Z</time></trkpt><trkpt lat="43.3025928" lon="11.5569888"><ele>271.8</ele><time>2026-04-26T07:42:05.171Z</time></trkpt><trkpt lat="43.3024864" lon="11.5570119"><ele>270.0</ele><time>2026-04-26T07:42:06.178Z</time></trkpt><trkpt lat="43.3023818" lon="11.5570289"><ele>269.8</ele><time>2026-04-26T07:42:07.172Z</time></trkpt><trkpt lat="43.3022766" lon="11.5570398"><ele>269.6</ele><time>2026-04-26T07:42:08.17Z</time></trkpt><trkpt lat="43.3021725" lon="11.5570414"><ele>269.4</ele><time>2026-04-26T07:42:09.172Z</time></trkpt><trkpt lat="43.3020726" lon="11.5570278"><ele>269.2</ele><time>2026-04-26T07:42:10.182Z</time></trkpt><trkpt lat="43.3019778" lon="11.5569932"><ele>269.0</ele><time>2026-04-26T07:42:11.178Z</time></trkpt><trkpt lat="43.3018852" lon="11.5569395"><ele>270.8</ele><time>2026-04-26T07:42:12.17Z</time></trkpt><trkpt lat="43.3017936" lon="11.556872"><ele>272.59999999999997</ele><time>2026-04-26T07:42:13.182Z</time></trkpt><trkpt lat="43.3017005" lon="11.5567966"><ele>274.4</ele><time>2026-04-26T07:42:14.188Z</time></trkpt><trkpt lat="43.3016077" lon="11.5567205"><ele>276.2</ele><time>2026-04-26T07:42:15.184Z</time></trkpt><trkpt lat="43.3015182" lon="11.5566485"><ele>278.0</ele><time>2026-04-26T07:42:16.172Z</time></trkpt><trkpt lat="43.3014345" lon="11.5565812"><ele>278.83333333333337</ele><time>2026-04-26T07:42:17.18Z</time></trkpt><trkpt lat="43.3013545" lon="11.556512"><ele>279.6666666666667</ele><time>2026-04-26T07:42:18.185Z</time></trkpt><trkpt lat="43.3012803" lon="11.5564428"><ele>280.5</ele><time>2026-04-26T07:42:19.182Z</time></trkpt><trkpt lat="43.3012118" lon="11.5563694"><ele>281.3333333333333</ele><time>2026-04-26T07:42:20.173Z</time></trkpt><trkpt lat="43.3011491" lon="11.5562857"><ele>282.16666666666663</ele><time>2026-04-26T07:42:21.175Z</time></trkpt><trkpt lat="43.3011003" lon="11.5561905"><ele>283.0</ele><time>2026-04-26T07:42:22.175Z</time></trkpt><trkpt lat="43.3010555" lon="11.5560911"><ele>283.0</ele><time>2026-04-26T07:42:23.186Z</time></trkpt><trkpt lat="43.3010104" lon="11.5559937"><ele>283.0</ele><time>2026-04-26T07:42:24.185Z</time></trkpt><trkpt lat="43.3009519" lon="11.5559037"><ele>283.0</ele><time>2026-04-26T07:42:25.188Z</time></trkpt><trkpt lat="43.3008829" lon="11.5558167"><ele>283.0</ele><time>2026-04-26T07:42:26.181Z</time></trkpt><trkpt lat="43.3008044" lon="11.5557319"><ele>283.0</ele><time>2026-04-26T07:42:27.191Z</time></trkpt><trkpt lat="43.3007188" lon="11.5556541"><ele>283.0</ele><time>2026-04-26T07:42:28.184Z</time></trkpt><trkpt lat="43.3006301" lon="11.555577"><ele>283.0</ele><time>2026-04-26T07:42:29.179Z</time></trkpt><trkpt lat="43.3005408" lon="11.5554978"><ele>283.0</ele><time>2026-04-26T07:42:30.172Z</time></trkpt><trkpt lat="43.3004518" lon="11.5554166"><ele>283.0</ele><time>2026-04-26T07:42:31.185Z</time></trkpt><trkpt lat="43.3003667" lon="11.5553346"><ele>283.0</ele><time>2026-04-26T07:42:32.186Z</time></trkpt><trkpt lat="43.3002841" lon="11.5552551"><ele>283.8</ele><time>2026-04-26T07:42:33.179Z</time></trkpt><trkpt lat="43.300202" lon="11.5551791"><ele>284.6</ele><time>2026-04-26T07:42:34.16Z</time></trkpt><trkpt lat="43.3001213" lon="11.5551035"><ele>285.4</ele><time>2026-04-26T07:42:35.188Z</time></trkpt><trkpt lat="43.3000411" lon="11.5550283"><ele>286.2</ele><time>2026-04-26T07:42:36.174Z</time></trkpt><trkpt lat="43.29996" lon="11.5549529"><ele>287.0</ele><time>2026-04-26T07:42:37.172Z</time></trkpt><trkpt lat="43.2998772" lon="11.554875"><ele>287.0</ele><time>2026-04-26T07:42:38.171Z</time></trkpt><trkpt lat="43.2997917" lon="11.5547972"><ele>287.0</ele><time>2026-04-26T07:42:39.18Z</time></trkpt><trkpt lat="43.2997056" lon="11.5547205"><ele>287.0</ele><time>2026-04-26T07:42:40.169Z</time></trkpt><trkpt lat="43.2996202" lon="11.5546449"><ele>287.0</ele><time>2026-04-26T07:42:41.179Z</time></trkpt><trkpt lat="43.2995364" lon="11.5545716"><ele>287.0</ele><time>2026-04-26T07:42:42.184Z</time></trkpt><trkpt lat="43.299453" lon="11.554497"><ele>287.2</ele><time>2026-04-26T07:42:43.173Z</time></trkpt><trkpt lat="43.2993702" lon="11.5544212"><ele>287.4</ele><time>2026-04-26T07:42:44.172Z</time></trkpt><trkpt lat="43.2992863" lon="11.554344"><ele>287.6</ele><time>2026-04-26T07:42:45.183Z</time></trkpt><trkpt lat="43.2992004" lon="11.554262"><ele>287.8</ele><time>2026-04-26T07:42:46.17Z</time></trkpt><trkpt lat="43.2991137" lon="11.5541784"><ele>288.0</ele><time>2026-04-26T07:42:47.176Z</time></trkpt><trkpt lat="43.2990273" lon="11.5540947"><ele>288.0</ele><time>2026-04-26T07:42:48.186Z</time></trkpt><trkpt lat="43.2989405" lon="11.5540146"><ele>288.0</ele><time>2026-04-26T07:42:49.192Z</time></trkpt><trkpt lat="43.2988525" lon="11.5539361"><ele>288.0</ele><time>2026-04-26T07:42:50.186Z</time></trkpt><trkpt lat="43.2987645" lon="11.553858"><ele>288.0</ele><time>2026-04-26T07:42:51.185Z</time></trkpt><trkpt lat="43.2986764" lon="11.5537795"><ele>288.0</ele><time>2026-04-26T07:42:52.183Z</time></trkpt><trkpt lat="43.2985896" lon="11.5537009"><ele>288.2</ele><time>2026-04-26T07:42:53.17Z</time></trkpt><trkpt lat="43.298505" lon="11.5536228"><ele>288.4</ele><time>2026-04-26T07:42:54.172Z</time></trkpt><trkpt lat="43.298425" lon="11.5535449"><ele>288.59999999999997</ele><time>2026-04-26T07:42:55.17Z</time></trkpt><trkpt lat="43.298354" lon="11.5534697"><ele>288.8</ele><time>2026-04-26T07:42:56.187Z</time></trkpt><trkpt lat="43.298289" lon="11.5533902"><ele>289.0</ele><time>2026-04-26T07:42:57.172Z</time></trkpt><trkpt lat="43.298228" lon="11.5533043"><ele>289.0</ele><time>2026-04-26T07:42:58.17Z</time></trkpt><trkpt lat="43.2981707" lon="11.5532086"><ele>289.0</ele><time>2026-04-26T07:42:59.171Z</time></trkpt><trkpt lat="43.2981173" lon="11.5531049"><ele>289.0</ele><time>2026-04-26T07:43:00.186Z</time></trkpt><trkpt lat="43.2980627" lon="11.5529994"><ele>289.0</ele><time>2026-04-26T07:43:01.173Z</time></trkpt><trkpt lat="43.2980017" lon="11.5529034"><ele>289.0</ele><time>2026-04-26T07:43:02.186Z</time></trkpt><trkpt lat="43.2979308" lon="11.5528216"><ele>289.4</ele><time>2026-04-26T07:43:03.173Z</time></trkpt><trkpt lat="43.2978518" lon="11.552757"><ele>289.79999999999995</ele><time>2026-04-26T07:43:04.187Z</time></trkpt><trkpt lat="43.2977687" lon="11.5527021"><ele>290.20000000000005</ele><time>2026-04-26T07:43:05.185Z</time></trkpt><trkpt lat="43.2976826" lon="11.5526565"><ele>290.6</ele><time>2026-04-26T07:43:06.185Z</time></trkpt><trkpt lat="43.2975961" lon="11.5526201"><ele>291.0</ele><time>2026-04-26T07:43:07.187Z</time></trkpt><trkpt lat="43.2975083" lon="11.5525918"><ele>291.0</ele><time>2026-04-26T07:43:08.184Z</time></trkpt><trkpt lat="43.2974229" lon="11.5525586"><ele>291.0</ele><time>2026-04-26T07:43:09.178Z</time></trkpt><trkpt lat="43.2973402" lon="11.5525126"><ele>291.0</ele><time>2026-04-26T07:43:10.184Z</time></trkpt><trkpt lat="43.2972599" lon="11.5524516"><ele>291.0</ele><time>2026-04-26T07:43:11.169Z</time></trkpt><trkpt lat="43.2971843" lon="11.5523782"><ele>291.0</ele><time>2026-04-26T07:43:12.185Z</time></trkpt><trkpt lat="43.2971168" lon="11.552293"><ele>291.40000000000003</ele><time>2026-04-26T07:43:13.179Z</time></trkpt><trkpt lat="43.2970579" lon="11.5521962"><ele>291.8</ele><time>2026-04-26T07:43:14.164Z</time></trkpt><trkpt lat="43.2970002" lon="11.5520989"><ele>292.20000000000005</ele><time>2026-04-26T07:43:15.184Z</time></trkpt><trkpt lat="43.2969356" lon="11.5520088"><ele>292.6</ele><time>2026-04-26T07:43:16.179Z</time></trkpt><trkpt lat="43.2968639" lon="11.5519271"><ele>293.0</ele><time>2026-04-26T07:43:17.187Z</time></trkpt><trkpt lat="43.2967885" lon="11.5518498"><ele>293.2</ele><time>2026-04-26T07:43:18.183Z</time></trkpt><trkpt lat="43.2967104" lon="11.5517758"><ele>293.4</ele><time>2026-04-26T07:43:19.167Z</time></trkpt><trkpt lat="43.2966296" lon="11.5517019"><ele>293.59999999999997</ele><time>2026-04-26T07:43:20.188Z</time></trkpt><trkpt lat="43.2965481" lon="11.5516239"><ele>293.8</ele><time>2026-04-26T07:43:21.185Z</time></trkpt><trkpt lat="43.2964664" lon="11.5515426"><ele>294.0</ele><time>2026-04-26T07:43:22.187Z</time></trkpt><trkpt lat="43.2963855" lon="11.5514598"><ele>293.59999999999997</ele><time>2026-04-26T07:43:23.19Z</time></trkpt><trkpt lat="43.296308" lon="11.5513764"><ele>293.2</ele><time>2026-04-26T07:43:24.186Z</time></trkpt><trkpt lat="43.2962339" lon="11.5512909"><ele>292.79999999999995</ele><time>2026-04-26T07:43:25.186Z</time></trkpt><trkpt lat="43.2961612" lon="11.5512049"><ele>292.4</ele><time>2026-04-26T07:43:26.191Z</time></trkpt><trkpt lat="43.2960887" lon="11.5511182"><ele>292.0</ele><time>2026-04-26T07:43:27.169Z</time></trkpt><trkpt lat="43.2960152" lon="11.5510287"><ele>292.0</ele><time>2026-04-26T07:43:28.186Z</time></trkpt><trkpt lat="43.2959435" lon="11.5509355"><ele>292.0</ele><time>2026-04-26T07:43:29.184Z</time></trkpt><trkpt lat="43.2958719" lon="11.5508431"><ele>292.0</ele><time>2026-04-26T07:43:30.182Z</time></trkpt><trkpt lat="43.2958004" lon="11.5507506"><ele>292.0</ele><time>2026-04-26T07:43:31.179Z</time></trkpt><trkpt lat="43.2957278" lon="11.550653"><ele>292.0</ele><time>2026-04-26T07:43:32.174Z</time></trkpt><trkpt lat="43.2956567" lon="11.5505595"><ele>291.0</ele><time>2026-04-26T07:43:33.164Z</time></trkpt><trkpt lat="43.295582" lon="11.5504736"><ele>290.0</ele><time>2026-04-26T07:43:34.169Z</time></trkpt><trkpt lat="43.2955019" lon="11.550394"><ele>289.0</ele><time>2026-04-26T07:43:35.172Z</time></trkpt><trkpt lat="43.2954182" lon="11.5503197"><ele>288.0</ele><time>2026-04-26T07:43:36.176Z</time></trkpt><trkpt lat="43.2953379" lon="11.5502501"><ele>287.0</ele><time>2026-04-26T07:43:37.19Z</time></trkpt><trkpt lat="43.2952647" lon="11.5501784"><ele>287.0</ele><time>2026-04-26T07:43:38.177Z</time></trkpt><trkpt lat="43.2951919" lon="11.5500919"><ele>287.0</ele><time>2026-04-26T07:43:39.171Z</time></trkpt><trkpt lat="43.2951187" lon="11.5499977"><ele>287.0</ele><time>2026-04-26T07:43:40.167Z</time></trkpt><trkpt lat="43.2950456" lon="11.5498989"><ele>287.0</ele><time>2026-04-26T07:43:41.185Z</time></trkpt><trkpt lat="43.2949739" lon="11.5497982"><ele>287.0</ele><time>2026-04-26T07:43:42.193Z</time></trkpt><trkpt lat="43.2949065" lon="11.5496962"><ele>287.0</ele><time>2026-04-26T07:43:43.18Z</time></trkpt><trkpt lat="43.2948424" lon="11.5495942"><ele>287.0</ele><time>2026-04-26T07:43:44.171Z</time></trkpt><trkpt lat="43.2947795" lon="11.5494983"><ele>287.0</ele><time>2026-04-26T07:43:45.192Z</time></trkpt><trkpt lat="43.294712" lon="11.5494073"><ele>287.0</ele><time>2026-04-26T07:43:46.189Z</time></trkpt><trkpt lat="43.2946354" lon="11.5493225"><ele>287.0</ele><time>2026-04-26T07:43:47.184Z</time></trkpt><trkpt lat="43.2945525" lon="11.549244"><ele>289.4</ele><time>2026-04-26T07:43:48.184Z</time></trkpt><trkpt lat="43.2944666" lon="11.5491689"><ele>291.79999999999995</ele><time>2026-04-26T07:43:49.171Z</time></trkpt><trkpt lat="43.29438" lon="11.549095"><ele>294.2</ele><time>2026-04-26T07:43:50.176Z</time></trkpt><trkpt lat="43.2942944" lon="11.5490205"><ele>296.59999999999997</ele><time>2026-04-26T07:43:51.171Z</time></trkpt><trkpt lat="43.2942092" lon="11.548944"><ele>299.0</ele><time>2026-04-26T07:43:52.177Z</time></trkpt><trkpt lat="43.2941266" lon="11.5488644"><ele>299.0</ele><time>2026-04-26T07:43:53.168Z</time></trkpt><trkpt lat="43.2940469" lon="11.5487814"><ele>299.0</ele><time>2026-04-26T07:43:54.169Z</time></trkpt><trkpt lat="43.2939689" lon="11.5486966"><ele>299.0</ele><time>2026-04-26T07:43:55.179Z</time></trkpt><trkpt lat="43.2938982" lon="11.5486122"><ele>299.0</ele><time>2026-04-26T07:43:56.186Z</time></trkpt><trkpt lat="43.2938353" lon="11.5485244"><ele>299.0</ele><time>2026-04-26T07:43:57.177Z</time></trkpt><trkpt lat="43.2937797" lon="11.5484313"><ele>298.8</ele><time>2026-04-26T07:43:58.167Z</time></trkpt><trkpt lat="43.2937304" lon="11.5483347"><ele>298.59999999999997</ele><time>2026-04-26T07:43:59.186Z</time></trkpt><trkpt lat="43.293687" lon="11.5482316"><ele>298.4</ele><time>2026-04-26T07:44:00.17Z</time></trkpt><trkpt lat="43.2936473" lon="11.5481188"><ele>298.2</ele><time>2026-04-26T07:44:01.191Z</time></trkpt><trkpt lat="43.2936048" lon="11.547998"><ele>298.0</ele><time>2026-04-26T07:44:02.18Z</time></trkpt><trkpt lat="43.2935565" lon="11.5478753"><ele>298.0</ele><time>2026-04-26T07:44:03.171Z</time></trkpt><trkpt lat="43.2935016" lon="11.5477551"><ele>298.0</ele><time>2026-04-26T07:44:04.19Z</time></trkpt><trkpt lat="43.2934435" lon="11.5476453"><ele>298.0</ele><time>2026-04-26T07:44:05.173Z</time></trkpt><trkpt lat="43.2933819" lon="11.5475476"><ele>298.0</ele><time>2026-04-26T07:44:06.175Z</time></trkpt><trkpt lat="43.2933179" lon="11.5474637"><ele>298.0</ele><time>2026-04-26T07:44:07.183Z</time></trkpt><trkpt lat="43.2932503" lon="11.547396"><ele>298.0</ele><time>2026-04-26T07:44:08.185Z</time></trkpt><trkpt lat="43.2931755" lon="11.5473444"><ele>298.0</ele><time>2026-04-26T07:44:09.168Z</time></trkpt><trkpt lat="43.2930942" lon="11.5473104"><ele>298.0</ele><time>2026-04-26T07:44:10.194Z</time></trkpt><trkpt lat="43.2930071" lon="11.5472918"><ele>298.0</ele><time>2026-04-26T07:44:11.172Z</time></trkpt><trkpt lat="43.2929175" lon="11.5472814"><ele>298.0</ele><time>2026-04-26T07:44:12.18Z</time></trkpt><trkpt lat="43.2928249" lon="11.5472769"><ele>298.0</ele><time>2026-04-26T07:44:13.189Z</time></trkpt><trkpt lat="43.2927307" lon="11.547276"><ele>299.2</ele><time>2026-04-26T07:44:14.166Z</time></trkpt><trkpt lat="43.2926348" lon="11.5472738"><ele>300.4</ele><time>2026-04-26T07:44:15.17Z</time></trkpt><trkpt lat="43.292537" lon="11.5472686"><ele>301.59999999999997</ele><time>2026-04-26T07:44:16.187Z</time></trkpt><trkpt lat="43.2924373" lon="11.5472579"><ele>302.8</ele><time>2026-04-26T07:44:17.174Z</time></trkpt><trkpt lat="43.2923383" lon="11.5472373"><ele>304.0</ele><time>2026-04-26T07:44:18.174Z</time></trkpt><trkpt lat="43.2922407" lon="11.5472035"><ele>301.8</ele><time>2026-04-26T07:44:19.189Z</time></trkpt><trkpt lat="43.2921455" lon="11.5471507"><ele>299.59999999999997</ele><time>2026-04-26T07:44:20.18Z</time></trkpt><trkpt lat="43.292057" lon="11.5470745"><ele>297.4</ele><time>2026-04-26T07:44:21.186Z</time></trkpt><trkpt lat="43.2919737" lon="11.546974"><ele>295.2</ele><time>2026-04-26T07:44:22.186Z</time></trkpt><trkpt lat="43.291893" lon="11.5468619"><ele>293.0</ele><time>2026-04-26T07:44:23.17Z</time></trkpt><trkpt lat="43.2918152" lon="11.5467492"><ele>293.0</ele><time>2026-04-26T07:44:24.183Z</time></trkpt><trkpt lat="43.29174" lon="11.546638"><ele>293.0</ele><time>2026-04-26T07:44:25.183Z</time></trkpt><trkpt lat="43.2916671" lon="11.5465283"><ele>293.0</ele><time>2026-04-26T07:44:26.175Z</time></trkpt><trkpt lat="43.2915962" lon="11.5464209"><ele>293.0</ele><time>2026-04-26T07:44:27.18Z</time></trkpt><trkpt lat="43.2915258" lon="11.5463139"><ele>293.0</ele><time>2026-04-26T07:44:28.184Z</time></trkpt><trkpt lat="43.2914549" lon="11.546207"><ele>295.6</ele><time>2026-04-26T07:44:29.186Z</time></trkpt><trkpt lat="43.2913857" lon="11.5461032"><ele>298.20000000000005</ele><time>2026-04-26T07:44:30.177Z</time></trkpt><trkpt lat="43.2913183" lon="11.5460054"><ele>300.8</ele><time>2026-04-26T07:44:31.194Z</time></trkpt><trkpt lat="43.2912552" lon="11.5459101"><ele>303.40000000000003</ele><time>2026-04-26T07:44:32.168Z</time></trkpt><trkpt lat="43.2911918" lon="11.5458154"><ele>306.0</ele><time>2026-04-26T07:44:33.185Z</time></trkpt><trkpt lat="43.2911364" lon="11.5457153"><ele>306.0</ele><time>2026-04-26T07:44:34.191Z</time></trkpt><trkpt lat="43.2910837" lon="11.5456099"><ele>306.0</ele><time>2026-04-26T07:44:35.183Z</time></trkpt><trkpt lat="43.2910333" lon="11.5454956"><ele>306.0</ele><time>2026-04-26T07:44:36.181Z</time></trkpt><trkpt lat="43.2909821" lon="11.5453725"><ele>306.0</ele><time>2026-04-26T07:44:37.191Z</time></trkpt><trkpt lat="43.2909317" lon="11.5452506"><ele>306.0</ele><time>2026-04-26T07:44:38.188Z</time></trkpt><trkpt lat="43.2908824" lon="11.5451311"><ele>306.8</ele><time>2026-04-26T07:44:39.17Z</time></trkpt><trkpt lat="43.290832" lon="11.54501"><ele>307.6</ele><time>2026-04-26T07:44:40.166Z</time></trkpt><trkpt lat="43.2907824" lon="11.544892"><ele>308.4</ele><time>2026-04-26T07:44:41.173Z</time></trkpt><trkpt lat="43.2907348" lon="11.5447757"><ele>309.2</ele><time>2026-04-26T07:44:42.166Z</time></trkpt><trkpt lat="43.2906883" lon="11.5446614"><ele>310.0</ele><time>2026-04-26T07:44:43.174Z</time></trkpt><trkpt lat="43.2906414" lon="11.544552"><ele>310.5</ele><time>2026-04-26T07:44:44.177Z</time></trkpt><trkpt lat="43.2905955" lon="11.544449"><ele>311.0</ele><time>2026-04-26T07:44:45.168Z</time></trkpt><trkpt lat="43.2905509" lon="11.5443492"><ele>311.5</ele><time>2026-04-26T07:44:46.189Z</time></trkpt><trkpt lat="43.290504" lon="11.5442462"><ele>312.0</ele><time>2026-04-26T07:44:47.177Z</time></trkpt><trkpt lat="43.29046" lon="11.5441445"><ele>312.5</ele><time>2026-04-26T07:44:48.179Z</time></trkpt><trkpt lat="43.2904177" lon="11.544042"><ele>313.0</ele><time>2026-04-26T07:44:49.188Z</time></trkpt><trkpt lat="43.2903747" lon="11.5439413"><ele>313.0</ele><time>2026-04-26T07:44:50.176Z</time></trkpt><trkpt lat="43.2903328" lon="11.5438444"><ele>313.0</ele><time>2026-04-26T07:44:51.188Z</time></trkpt><trkpt lat="43.2902943" lon="11.5437577"><ele>313.0</ele><time>2026-04-26T07:44:52.188Z</time></trkpt><trkpt lat="43.2902616" lon="11.5436812"><ele>313.0</ele><time>2026-04-26T07:44:53.187Z</time></trkpt><trkpt lat="43.2902215" lon="11.5435354"><ele>313.0</ele><time>2026-04-26T07:44:55.187Z</time></trkpt><trkpt lat="43.2902195" lon="11.5433668"><ele>312.85714285714283</ele><time>2026-04-26T07:44:57.171Z</time></trkpt><trkpt lat="43.2902332" lon="11.5432758"><ele>312.7142857142857</ele><time>2026-04-26T07:44:58.191Z</time></trkpt><trkpt lat="43.2902523" lon="11.5431832"><ele>312.57142857142856</ele><time>2026-04-26T07:44:59.183Z</time></trkpt><trkpt lat="43.2902763" lon="11.5430892"><ele>312.42857142857144</ele><time>2026-04-26T07:45:00.178Z</time></trkpt><trkpt lat="43.290307" lon="11.5429966"><ele>312.2857142857143</ele><time>2026-04-26T07:45:01.184Z</time></trkpt><trkpt lat="43.2903449" lon="11.5429027"><ele>312.14285714285717</ele><time>2026-04-26T07:45:02.194Z</time></trkpt><trkpt lat="43.2903861" lon="11.5428011"><ele>312.0</ele><time>2026-04-26T07:45:03.175Z</time></trkpt><trkpt lat="43.290435" lon="11.5426991"><ele>312.0</ele><time>2026-04-26T07:45:04.184Z</time></trkpt><trkpt lat="43.2904865" lon="11.5426017"><ele>312.0</ele><time>2026-04-26T07:45:05.166Z</time></trkpt><trkpt lat="43.2905389" lon="11.5425073"><ele>312.0</ele><time>2026-04-26T07:45:06.169Z</time></trkpt><trkpt lat="43.2905941" lon="11.5424097"><ele>312.0</ele><time>2026-04-26T07:45:07.184Z</time></trkpt><trkpt lat="43.290649" lon="11.5423163"><ele>312.0</ele><time>2026-04-26T07:45:08.18Z</time></trkpt><trkpt lat="43.2907026" lon="11.5422248"><ele>312.0</ele><time>2026-04-26T07:45:09.195Z</time></trkpt><trkpt lat="43.2907548" lon="11.542129"><ele>311.6666666666667</ele><time>2026-04-26T07:45:10.177Z</time></trkpt><trkpt lat="43.2908065" lon="11.5420294"><ele>311.3333333333333</ele><time>2026-04-26T07:45:11.169Z</time></trkpt><trkpt lat="43.2908597" lon="11.5419327"><ele>311.0</ele><time>2026-04-26T07:45:12.187Z</time></trkpt><trkpt lat="43.2909118" lon="11.5418394"><ele>310.66666666666663</ele><time>2026-04-26T07:45:13.191Z</time></trkpt><trkpt lat="43.290962" lon="11.5417469"><ele>310.3333333333333</ele><time>2026-04-26T07:45:14.188Z</time></trkpt><trkpt lat="43.2910123" lon="11.5416576"><ele>310.0</ele><time>2026-04-26T07:45:15.181Z</time></trkpt><trkpt lat="43.2910614" lon="11.5415707"><ele>310.0</ele><time>2026-04-26T07:45:16.167Z</time></trkpt><trkpt lat="43.2911102" lon="11.5414871"><ele>310.0</ele><time>2026-04-26T07:45:17.175Z</time></trkpt><trkpt lat="43.2911544" lon="11.5414122"><ele>310.0</ele><time>2026-04-26T07:45:18.171Z</time></trkpt><trkpt lat="43.291221" lon="11.5413105"><ele>310.0</ele><time>2026-04-26T07:45:20.184Z</time></trkpt><trkpt lat="43.2912617" lon="11.5412413"><ele>310.0</ele><time>2026-04-26T07:45:22.182Z</time></trkpt><trkpt lat="43.291238" lon="11.5411604"><ele>310.0</ele><time>2026-04-26T07:45:26.169Z</time></trkpt><trkpt lat="43.2911698" lon="11.5412143"><ele>310.0</ele><time>2026-04-26T07:45:28.185Z</time></trkpt><trkpt lat="43.2910627" lon="11.541314"><ele>310.0</ele><time>2026-04-26T07:45:30.173Z</time></trkpt><trkpt lat="43.2909768" lon="11.5413521"><ele>310.0</ele><time>2026-04-26T07:45:31.167Z</time></trkpt><trkpt lat="43.2908887" lon="11.541368"><ele>310.0</ele><time>2026-04-26T07:45:32.18Z</time></trkpt><trkpt lat="43.2907994" lon="11.5413615"><ele>310.0</ele><time>2026-04-26T07:45:33.171Z</time></trkpt><trkpt lat="43.2907108" lon="11.5413367"><ele>310.0</ele><time>2026-04-26T07:45:34.167Z</time></trkpt><trkpt lat="43.2906215" lon="11.5412995"><ele>310.0</ele><time>2026-04-26T07:45:35.165Z</time></trkpt><trkpt lat="43.2905357" lon="11.5412607"><ele>310.0</ele><time>2026-04-26T07:45:36.172Z</time></trkpt><trkpt lat="43.2904524" lon="11.5412286"><ele>310.0</ele><time>2026-04-26T07:45:37.176Z</time></trkpt><trkpt lat="43.2903678" lon="11.5412048"><ele>310.0</ele><time>2026-04-26T07:45:38.182Z</time></trkpt><trkpt lat="43.2902802" lon="11.541188"><ele>310.0</ele><time>2026-04-26T07:45:39.183Z</time></trkpt><trkpt lat="43.2901916" lon="11.5411766"><ele>308.66666666666663</ele><time>2026-04-26T07:45:40.192Z</time></trkpt><trkpt lat="43.2901036" lon="11.5411662"><ele>307.3333333333333</ele><time>2026-04-26T07:45:41.178Z</time></trkpt><trkpt lat="43.2900209" lon="11.5411708"><ele>306.0</ele><time>2026-04-26T07:45:42.177Z</time></trkpt><trkpt lat="43.2899345" lon="11.5411762"><ele>304.6666666666667</ele><time>2026-04-26T07:45:43.176Z</time></trkpt><trkpt lat="43.2898475" lon="11.5411873"><ele>303.33333333333337</ele><time>2026-04-26T07:45:44.18Z</time></trkpt><trkpt lat="43.2897586" lon="11.5411853"><ele>302.0</ele><time>2026-04-26T07:45:45.173Z</time></trkpt><trkpt lat="43.2896674" lon="11.5411701"><ele>302.0</ele><time>2026-04-26T07:45:46.187Z</time></trkpt><trkpt lat="43.2895754" lon="11.541141"><ele>302.0</ele><time>2026-04-26T07:45:47.182Z</time></trkpt><trkpt lat="43.2894915" lon="11.541109"><ele>302.0</ele><time>2026-04-26T07:45:48.186Z</time></trkpt><trkpt lat="43.2894074" lon="11.5410805"><ele>302.0</ele><time>2026-04-26T07:45:49.187Z</time></trkpt><trkpt lat="43.2893181" lon="11.5410649"><ele>302.0</ele><time>2026-04-26T07:45:50.189Z</time></trkpt><trkpt lat="43.289221" lon="11.5410655"><ele>302.0</ele><time>2026-04-26T07:45:51.189Z</time></trkpt><trkpt lat="43.2891214" lon="11.5410816"><ele>302.0</ele><time>2026-04-26T07:45:52.183Z</time></trkpt><trkpt lat="43.2890212" lon="11.5411109"><ele>302.0</ele><time>2026-04-26T07:45:53.188Z</time></trkpt><trkpt lat="43.2889216" lon="11.541143"><ele>302.0</ele><time>2026-04-26T07:45:54.184Z</time></trkpt><trkpt lat="43.288823" lon="11.5411709"><ele>302.0</ele><time>2026-04-26T07:45:55.174Z</time></trkpt><trkpt lat="43.2887283" lon="11.5412012"><ele>302.0</ele><time>2026-04-26T07:45:56.176Z</time></trkpt><trkpt lat="43.2886354" lon="11.5412369"><ele>302.0</ele><time>2026-04-26T07:45:57.165Z</time></trkpt><trkpt lat="43.2885448" lon="11.5412835"><ele>302.0</ele><time>2026-04-26T07:45:58.177Z</time></trkpt><trkpt lat="43.2884627" lon="11.5413403"><ele>302.0</ele><time>2026-04-26T07:45:59.189Z</time></trkpt><trkpt lat="43.2883914" lon="11.5414054"><ele>302.0</ele><time>2026-04-26T07:46:00.162Z</time></trkpt><trkpt lat="43.2883309" lon="11.5414832"><ele>302.0</ele><time>2026-04-26T07:46:01.186Z</time></trkpt><trkpt lat="43.2882808" lon="11.5415774"><ele>302.0</ele><time>2026-04-26T07:46:02.175Z</time></trkpt><trkpt lat="43.2882397" lon="11.5416843"><ele>302.0</ele><time>2026-04-26T07:46:03.186Z</time></trkpt><trkpt lat="43.2882041" lon="11.5417963"><ele>302.0</ele><time>2026-04-26T07:46:04.162Z</time></trkpt><trkpt lat="43.2881663" lon="11.5419069"><ele>302.0</ele><time>2026-04-26T07:46:05.172Z</time></trkpt><trkpt lat="43.2881208" lon="11.5420139"><ele>302.0</ele><time>2026-04-26T07:46:06.186Z</time></trkpt><trkpt lat="43.2880693" lon="11.542119"><ele>298.0</ele><time>2026-04-26T07:46:07.189Z</time></trkpt><trkpt lat="43.2880132" lon="11.5422199"><ele>294.0</ele><time>2026-04-26T07:46:08.192Z</time></trkpt><trkpt lat="43.2879546" lon="11.542315"><ele>290.0</ele><time>2026-04-26T07:46:09.183Z</time></trkpt><trkpt lat="43.2878964" lon="11.5424108"><ele>286.0</ele><time>2026-04-26T07:46:10.165Z</time></trkpt><trkpt lat="43.2878449" lon="11.5425137"><ele>282.0</ele><time>2026-04-26T07:46:11.177Z</time></trkpt><trkpt lat="43.2877979" lon="11.5426275"><ele>282.0</ele><time>2026-04-26T07:46:12.191Z</time></trkpt><trkpt lat="43.2877558" lon="11.5427544"><ele>282.0</ele><time>2026-04-26T07:46:13.176Z</time></trkpt><trkpt lat="43.2877181" lon="11.5428884"><ele>282.0</ele><time>2026-04-26T07:46:14.171Z</time></trkpt><trkpt lat="43.2876828" lon="11.5430224"><ele>282.0</ele><time>2026-04-26T07:46:15.186Z</time></trkpt><trkpt lat="43.2876511" lon="11.5431569"><ele>282.0</ele><time>2026-04-26T07:46:16.173Z</time></trkpt><trkpt lat="43.2876289" lon="11.5432951"><ele>284.4</ele><time>2026-04-26T07:46:17.18Z</time></trkpt><trkpt lat="43.2876168" lon="11.5434338"><ele>286.79999999999995</ele><time>2026-04-26T07:46:18.174Z</time></trkpt><trkpt lat="43.2876148" lon="11.5435705"><ele>289.2</ele><time>2026-04-26T07:46:19.175Z</time></trkpt><trkpt lat="43.287613" lon="11.5437044"><ele>291.59999999999997</ele><time>2026-04-26T07:46:20.182Z</time></trkpt><trkpt lat="43.2876073" lon="11.5438321"><ele>294.0</ele><time>2026-04-26T07:46:21.173Z</time></trkpt><trkpt lat="43.287588" lon="11.5439597"><ele>295.0</ele><time>2026-04-26T07:46:22.191Z</time></trkpt><trkpt lat="43.2875549" lon="11.5440848"><ele>296.0</ele><time>2026-04-26T07:46:23.17Z</time></trkpt><trkpt lat="43.2875145" lon="11.5442051"><ele>297.0</ele><time>2026-04-26T07:46:24.167Z</time></trkpt><trkpt lat="43.2874752" lon="11.5443234"><ele>298.0</ele><time>2026-04-26T07:46:25.182Z</time></trkpt><trkpt lat="43.2874411" lon="11.5444448"><ele>299.0</ele><time>2026-04-26T07:46:26.174Z</time></trkpt><trkpt lat="43.2874119" lon="11.5445733"><ele>299.4</ele><time>2026-04-26T07:46:27.162Z</time></trkpt><trkpt lat="43.2873886" lon="11.544708"><ele>299.79999999999995</ele><time>2026-04-26T07:46:28.185Z</time></trkpt><trkpt lat="43.2873715" lon="11.5448469"><ele>300.20000000000005</ele><time>2026-04-26T07:46:29.171Z</time></trkpt><trkpt lat="43.2873542" lon="11.544985"><ele>300.6</ele><time>2026-04-26T07:46:30.182Z</time></trkpt><trkpt lat="43.2873398" lon="11.5451216"><ele>301.0</ele><time>2026-04-26T07:46:31.17Z</time></trkpt><trkpt lat="43.2873295" lon="11.5452626"><ele>300.0</ele><time>2026-04-26T07:46:32.18Z</time></trkpt><trkpt lat="43.2873123" lon="11.5454004"><ele>299.0</ele><time>2026-04-26T07:46:33.184Z</time></trkpt><trkpt lat="43.2872909" lon="11.5455323"><ele>298.0</ele><time>2026-04-26T07:46:34.179Z</time></trkpt><trkpt lat="43.2872699" lon="11.5456577"><ele>297.0</ele><time>2026-04-26T07:46:35.168Z</time></trkpt><trkpt lat="43.2872416" lon="11.5457757"><ele>296.0</ele><time>2026-04-26T07:46:36.176Z</time></trkpt><trkpt lat="43.2872058" lon="11.545887"><ele>298.6666666666667</ele><time>2026-04-26T07:46:37.188Z</time></trkpt><trkpt lat="43.287171" lon="11.5459923"><ele>301.33333333333337</ele><time>2026-04-26T07:46:38.18Z</time></trkpt><trkpt lat="43.2871218" lon="11.5460762"><ele>304.0</ele><time>2026-04-26T07:46:39.163Z</time></trkpt><trkpt lat="43.2870488" lon="11.5461298"><ele>306.6666666666667</ele><time>2026-04-26T07:46:40.186Z</time></trkpt><trkpt lat="43.2869606" lon="11.5461495"><ele>309.3333333333333</ele><time>2026-04-26T07:46:41.171Z</time></trkpt><trkpt lat="43.2868697" lon="11.5461481"><ele>312.0</ele><time>2026-04-26T07:46:42.184Z</time></trkpt><trkpt lat="43.2867796" lon="11.546119"><ele>312.0</ele><time>2026-04-26T07:46:43.168Z</time></trkpt><trkpt lat="43.2866921" lon="11.546067"><ele>312.0</ele><time>2026-04-26T07:46:44.169Z</time></trkpt><trkpt lat="43.2866055" lon="11.5460131"><ele>312.0</ele><time>2026-04-26T07:46:45.175Z</time></trkpt><trkpt lat="43.2865254" lon="11.5459451"><ele>312.0</ele><time>2026-04-26T07:46:46.184Z</time></trkpt><trkpt lat="43.2864468" lon="11.5458868"><ele>312.0</ele><time>2026-04-26T07:46:47.177Z</time></trkpt><trkpt lat="43.2863599" lon="11.5458637"><ele>312.4</ele><time>2026-04-26T07:46:48.184Z</time></trkpt><trkpt lat="43.2862725" lon="11.5458689"><ele>312.79999999999995</ele><time>2026-04-26T07:46:49.182Z</time></trkpt><trkpt lat="43.2861784" lon="11.5458963"><ele>313.2</ele><time>2026-04-26T07:46:50.169Z</time></trkpt><trkpt lat="43.2860855" lon="11.5459487"><ele>313.59999999999997</ele><time>2026-04-26T07:46:51.179Z</time></trkpt><trkpt lat="43.285994" lon="11.5460219"><ele>314.0</ele><time>2026-04-26T07:46:52.175Z</time></trkpt><trkpt lat="43.2859057" lon="11.5461064"><ele>314.0</ele><time>2026-04-26T07:46:53.171Z</time></trkpt><trkpt lat="43.2858219" lon="11.5461846"><ele>314.0</ele><time>2026-04-26T07:46:54.179Z</time></trkpt><trkpt lat="43.2857385" lon="11.5462529"><ele>314.0</ele><time>2026-04-26T07:46:55.173Z</time></trkpt><trkpt lat="43.285653" lon="11.5463113"><ele>314.0</ele><time>2026-04-26T07:46:56.183Z</time></trkpt><trkpt lat="43.2855645" lon="11.5463597"><ele>314.0</ele><time>2026-04-26T07:46:57.175Z</time></trkpt><trkpt lat="43.2854739" lon="11.5463976"><ele>313.2</ele><time>2026-04-26T07:46:58.166Z</time></trkpt><trkpt lat="43.2853808" lon="11.5464352"><ele>312.4</ele><time>2026-04-26T07:46:59.181Z</time></trkpt><trkpt lat="43.2852877" lon="11.5464735"><ele>311.6</ele><time>2026-04-26T07:47:00.175Z</time></trkpt><trkpt lat="43.2851963" lon="11.5465154"><ele>310.8</ele><time>2026-04-26T07:47:01.166Z</time></trkpt><trkpt lat="43.2851081" lon="11.5465581"><ele>310.0</ele><time>2026-04-26T07:47:02.175Z</time></trkpt><trkpt lat="43.2850247" lon="11.5466202"><ele>310.0</ele><time>2026-04-26T07:47:03.168Z</time></trkpt><trkpt lat="43.2849503" lon="11.546699"><ele>310.0</ele><time>2026-04-26T07:47:04.168Z</time></trkpt><trkpt lat="43.2848851" lon="11.5467815"><ele>310.0</ele><time>2026-04-26T07:47:05.158Z</time></trkpt><trkpt lat="43.2848278" lon="11.5468796"><ele>310.0</ele><time>2026-04-26T07:47:06.182Z</time></trkpt><trkpt lat="43.2847824" lon="11.5469936"><ele>310.0</ele><time>2026-04-26T07:47:07.181Z</time></trkpt><trkpt lat="43.2847502" lon="11.5471186"><ele>305.0</ele><time>2026-04-26T07:47:08.182Z</time></trkpt><trkpt lat="43.2847342" lon="11.5472524"><ele>300.0</ele><time>2026-04-26T07:47:09.172Z</time></trkpt><trkpt lat="43.2847228" lon="11.5473906"><ele>295.0</ele><time>2026-04-26T07:47:10.167Z</time></trkpt><trkpt lat="43.2847077" lon="11.5475316"><ele>290.0</ele><time>2026-04-26T07:47:11.178Z</time></trkpt><trkpt lat="43.284683" lon="11.5476702"><ele>285.0</ele><time>2026-04-26T07:47:12.17Z</time></trkpt><trkpt lat="43.2846457" lon="11.5478071"><ele>287.0</ele><time>2026-04-26T07:47:13.185Z</time></trkpt><trkpt lat="43.2846002" lon="11.5479459"><ele>289.0</ele><time>2026-04-26T07:47:14.183Z</time></trkpt><trkpt lat="43.2845495" lon="11.5480839"><ele>291.0</ele><time>2026-04-26T07:47:15.168Z</time></trkpt><trkpt lat="43.2844967" lon="11.5482209"><ele>293.0</ele><time>2026-04-26T07:47:16.185Z</time></trkpt><trkpt lat="43.2844439" lon="11.5483491"><ele>295.0</ele><time>2026-04-26T07:47:17.178Z</time></trkpt><trkpt lat="43.2843955" lon="11.5484623"><ele>295.0</ele><time>2026-04-26T07:47:18.17Z</time></trkpt><trkpt lat="43.2843453" lon="11.5485619"><ele>295.0</ele><time>2026-04-26T07:47:19.171Z</time></trkpt><trkpt lat="43.2842871" lon="11.5486494"><ele>295.0</ele><time>2026-04-26T07:47:20.174Z</time></trkpt><trkpt lat="43.284218" lon="11.5487205"><ele>295.0</ele><time>2026-04-26T07:47:21.17Z</time></trkpt><trkpt lat="43.2841369" lon="11.5487722"><ele>295.0</ele><time>2026-04-26T07:47:22.18Z</time></trkpt><trkpt lat="43.2840475" lon="11.5488057"><ele>295.0</ele><time>2026-04-26T07:47:23.181Z</time></trkpt><trkpt lat="43.2839582" lon="11.5488373"><ele>299.2</ele><time>2026-04-26T07:47:24.167Z</time></trkpt><trkpt lat="43.2838639" lon="11.5488351"><ele>303.4</ele><time>2026-04-26T07:47:25.169Z</time></trkpt><trkpt lat="43.2837518" lon="11.5488128"><ele>307.6</ele><time>2026-04-26T07:47:26.174Z</time></trkpt><trkpt lat="43.2836409" lon="11.5487891"><ele>311.8</ele><time>2026-04-26T07:47:27.179Z</time></trkpt><trkpt lat="43.2835306" lon="11.5487494"><ele>316.0</ele><time>2026-04-26T07:47:28.168Z</time></trkpt><trkpt lat="43.283422" lon="11.5487141"><ele>314.40000000000003</ele><time>2026-04-26T07:47:29.177Z</time></trkpt><trkpt lat="43.2833214" lon="11.5486505"><ele>312.8</ele><time>2026-04-26T07:47:30.165Z</time></trkpt><trkpt lat="43.2832229" lon="11.548577"><ele>311.20000000000005</ele><time>2026-04-26T07:47:31.167Z</time></trkpt><trkpt lat="43.2831284" lon="11.5484987"><ele>309.6</ele><time>2026-04-26T07:47:32.176Z</time></trkpt><trkpt lat="43.2830339" lon="11.5484161"><ele>308.0</ele><time>2026-04-26T07:47:33.178Z</time></trkpt><trkpt lat="43.2829433" lon="11.5483432"><ele>308.0</ele><time>2026-04-26T07:47:34.162Z</time></trkpt><trkpt lat="43.2828512" lon="11.5482804"><ele>308.0</ele><time>2026-04-26T07:47:35.17Z</time></trkpt><trkpt lat="43.2827561" lon="11.5482179"><ele>308.0</ele><time>2026-04-26T07:47:36.167Z</time></trkpt><trkpt lat="43.2826591" lon="11.5481713"><ele>308.0</ele><time>2026-04-26T07:47:37.167Z</time></trkpt><trkpt lat="43.2825668" lon="11.5481427"><ele>308.0</ele><time>2026-04-26T07:47:38.175Z</time></trkpt><trkpt lat="43.2824924" lon="11.548134"><ele>308.0</ele><time>2026-04-26T07:47:39.181Z</time></trkpt><trkpt lat="43.282421" lon="11.5481247"><ele>308.0</ele><time>2026-04-26T07:47:40.176Z</time></trkpt><trkpt lat="43.2823512" lon="11.5481165"><ele>308.0</ele><time>2026-04-26T07:47:41.18Z</time></trkpt><trkpt lat="43.282244" lon="11.5481061"><ele>308.0</ele><time>2026-04-26T07:47:43.18Z</time></trkpt><trkpt lat="43.2821361" lon="11.5481092"><ele>308.0</ele><time>2026-04-26T07:47:45.165Z</time></trkpt><trkpt lat="43.2820359" lon="11.5481211"><ele>306.6</ele><time>2026-04-26T07:47:47.174Z</time></trkpt><trkpt lat="43.2819225" lon="11.5481002"><ele>305.20000000000005</ele><time>2026-04-26T07:47:49.184Z</time></trkpt><trkpt lat="43.2817963" lon="11.5481046"><ele>303.8</ele><time>2026-04-26T07:47:51.178Z</time></trkpt><trkpt lat="43.2817266" lon="11.5481213"><ele>302.40000000000003</ele><time>2026-04-26T07:47:52.183Z</time></trkpt><trkpt lat="43.2816527" lon="11.5481671"><ele>301.0</ele><time>2026-04-26T07:47:53.178Z</time></trkpt><trkpt lat="43.2815824" lon="11.5482251"><ele>301.0</ele><time>2026-04-26T07:47:54.17Z</time></trkpt><trkpt lat="43.2815133" lon="11.5482847"><ele>301.0</ele><time>2026-04-26T07:47:55.164Z</time></trkpt><trkpt lat="43.2814511" lon="11.5483559"><ele>301.0</ele><time>2026-04-26T07:47:56.169Z</time></trkpt><trkpt lat="43.2813893" lon="11.5484256"><ele>301.0</ele><time>2026-04-26T07:47:57.186Z</time></trkpt><trkpt lat="43.2813245" lon="11.5484962"><ele>301.0</ele><time>2026-04-26T07:47:58.189Z</time></trkpt><trkpt lat="43.2812629" lon="11.5485636"><ele>301.0</ele><time>2026-04-26T07:47:59.178Z</time></trkpt><trkpt lat="43.2811965" lon="11.5486354"><ele>297.66666666666663</ele><time>2026-04-26T07:48:00.184Z</time></trkpt><trkpt lat="43.2811314" lon="11.5487042"><ele>294.3333333333333</ele><time>2026-04-26T07:48:01.17Z</time></trkpt><trkpt lat="43.2810664" lon="11.5487727"><ele>291.0</ele><time>2026-04-26T07:48:02.168Z</time></trkpt><trkpt lat="43.281006" lon="11.5488517"><ele>287.6666666666667</ele><time>2026-04-26T07:48:03.178Z</time></trkpt><trkpt lat="43.2809444" lon="11.5489411"><ele>284.33333333333337</ele><time>2026-04-26T07:48:04.17Z</time></trkpt><trkpt lat="43.2808848" lon="11.5490408"><ele>281.0</ele><time>2026-04-26T07:48:05.18Z</time></trkpt><trkpt lat="43.2808238" lon="11.5491473"><ele>281.0</ele><time>2026-04-26T07:48:06.172Z</time></trkpt><trkpt lat="43.2807609" lon="11.5492565"><ele>281.0</ele><time>2026-04-26T07:48:07.166Z</time></trkpt><trkpt lat="43.280694" lon="11.549365"><ele>281.0</ele><time>2026-04-26T07:48:08.184Z</time></trkpt><trkpt lat="43.2806135" lon="11.5494599"><ele>281.0</ele><time>2026-04-26T07:48:09.18Z</time></trkpt><trkpt lat="43.2805246" lon="11.5495416"><ele>281.0</ele><time>2026-04-26T07:48:10.181Z</time></trkpt><trkpt lat="43.2804256" lon="11.5496129"><ele>278.6</ele><time>2026-04-26T07:48:11.178Z</time></trkpt><trkpt lat="43.2803255" lon="11.5496842"><ele>276.20000000000005</ele><time>2026-04-26T07:48:12.174Z</time></trkpt><trkpt lat="43.2802256" lon="11.5497503"><ele>273.79999999999995</ele><time>2026-04-26T07:48:13.174Z</time></trkpt><trkpt lat="43.2801225" lon="11.5498069"><ele>271.4</ele><time>2026-04-26T07:48:14.17Z</time></trkpt><trkpt lat="43.2800165" lon="11.5498491"><ele>269.0</ele><time>2026-04-26T07:48:15.164Z</time></trkpt><trkpt lat="43.2799134" lon="11.5498765"><ele>269.0</ele><time>2026-04-26T07:48:16.188Z</time></trkpt><trkpt lat="43.2798148" lon="11.5498905"><ele>269.0</ele><time>2026-04-26T07:48:17.18Z</time></trkpt><trkpt lat="43.2797146" lon="11.5498927"><ele>269.0</ele><time>2026-04-26T07:48:18.185Z</time></trkpt><trkpt lat="43.2796128" lon="11.5498829"><ele>269.0</ele><time>2026-04-26T07:48:19.18Z</time></trkpt><trkpt lat="43.2795115" lon="11.5498579"><ele>269.0</ele><time>2026-04-26T07:48:20.169Z</time></trkpt><trkpt lat="43.2794124" lon="11.5498166"><ele>268.59999999999997</ele><time>2026-04-26T07:48:21.188Z</time></trkpt><trkpt lat="43.2793143" lon="11.5497608"><ele>268.2</ele><time>2026-04-26T07:48:22.181Z</time></trkpt><trkpt lat="43.2792198" lon="11.5496958"><ele>267.79999999999995</ele><time>2026-04-26T07:48:23.177Z</time></trkpt><trkpt lat="43.2791294" lon="11.5496309"><ele>267.4</ele><time>2026-04-26T07:48:24.185Z</time></trkpt><trkpt lat="43.2790424" lon="11.549572"><ele>267.0</ele><time>2026-04-26T07:48:25.171Z</time></trkpt><trkpt lat="43.2789546" lon="11.5495191"><ele>268.4</ele><time>2026-04-26T07:48:26.189Z</time></trkpt><trkpt lat="43.278864" lon="11.5494765"><ele>269.79999999999995</ele><time>2026-04-26T07:48:27.187Z</time></trkpt><trkpt lat="43.2787686" lon="11.5494485"><ele>271.2</ele><time>2026-04-26T07:48:28.183Z</time></trkpt><trkpt lat="43.2786714" lon="11.5494366"><ele>272.59999999999997</ele><time>2026-04-26T07:48:29.171Z</time></trkpt><trkpt lat="43.2785747" lon="11.5494261"><ele>274.0</ele><time>2026-04-26T07:48:30.17Z</time></trkpt><trkpt lat="43.278475" lon="11.5494277"><ele>274.0</ele><time>2026-04-26T07:48:31.185Z</time></trkpt><trkpt lat="43.2783768" lon="11.5494305"><ele>274.0</ele><time>2026-04-26T07:48:32.185Z</time></trkpt><trkpt lat="43.2782785" lon="11.5494262"><ele>274.0</ele><time>2026-04-26T07:48:33.174Z</time></trkpt><trkpt lat="43.2781793" lon="11.5494233"><ele>274.0</ele><time>2026-04-26T07:48:34.176Z</time></trkpt><trkpt lat="43.278079" lon="11.5494197"><ele>274.0</ele><time>2026-04-26T07:48:35.167Z</time></trkpt><trkpt lat="43.2779784" lon="11.5494124"><ele>277.0</ele><time>2026-04-26T07:48:36.18Z</time></trkpt><trkpt lat="43.2778757" lon="11.5493932"><ele>280.0</ele><time>2026-04-26T07:48:37.171Z</time></trkpt><trkpt lat="43.2777762" lon="11.5493532"><ele>283.0</ele><time>2026-04-26T07:48:38.179Z</time></trkpt><trkpt lat="43.2776821" lon="11.5492931"><ele>286.0</ele><time>2026-04-26T07:48:39.182Z</time></trkpt><trkpt lat="43.2775935" lon="11.5492203"><ele>289.0</ele><time>2026-04-26T07:48:40.174Z</time></trkpt><trkpt lat="43.2775082" lon="11.5491452"><ele>289.0</ele><time>2026-04-26T07:48:41.179Z</time></trkpt><trkpt lat="43.2774244" lon="11.5490712"><ele>289.0</ele><time>2026-04-26T07:48:42.169Z</time></trkpt><trkpt lat="43.27734" lon="11.5489983"><ele>289.0</ele><time>2026-04-26T07:48:43.186Z</time></trkpt><trkpt lat="43.2772547" lon="11.5489259"><ele>289.0</ele><time>2026-04-26T07:48:44.183Z</time></trkpt><trkpt lat="43.2771694" lon="11.5488523"><ele>289.0</ele><time>2026-04-26T07:48:45.189Z</time></trkpt><trkpt lat="43.2770873" lon="11.5487768"><ele>290.0</ele><time>2026-04-26T07:48:46.177Z</time></trkpt><trkpt lat="43.2770086" lon="11.5486979"><ele>291.0</ele><time>2026-04-26T07:48:47.183Z</time></trkpt><trkpt lat="43.2769306" lon="11.5486163"><ele>292.0</ele><time>2026-04-26T07:48:48.183Z</time></trkpt><trkpt lat="43.2768515" lon="11.5485366"><ele>293.0</ele><time>2026-04-26T07:48:49.179Z</time></trkpt><trkpt lat="43.2767711" lon="11.5484608"><ele>294.0</ele><time>2026-04-26T07:48:50.171Z</time></trkpt><trkpt lat="43.2766891" lon="11.5483925"><ele>294.0</ele><time>2026-04-26T07:48:51.185Z</time></trkpt><trkpt lat="43.2766054" lon="11.5483326"><ele>294.0</ele><time>2026-04-26T07:48:52.183Z</time></trkpt><trkpt lat="43.276519" lon="11.548282"><ele>294.0</ele><time>2026-04-26T07:48:53.175Z</time></trkpt><trkpt lat="43.2764334" lon="11.5482403"><ele>294.0</ele><time>2026-04-26T07:48:54.18Z</time></trkpt><trkpt lat="43.2763484" lon="11.5482054"><ele>294.0</ele><time>2026-04-26T07:48:55.18Z</time></trkpt><trkpt lat="43.2762628" lon="11.5481714"><ele>295.1666666666667</ele><time>2026-04-26T07:48:56.169Z</time></trkpt><trkpt lat="43.2761744" lon="11.5481424"><ele>296.3333333333333</ele><time>2026-04-26T07:48:57.169Z</time></trkpt><trkpt lat="43.2760876" lon="11.5481133"><ele>297.5</ele><time>2026-04-26T07:48:58.186Z</time></trkpt><trkpt lat="43.2760025" lon="11.5480814"><ele>298.66666666666663</ele><time>2026-04-26T07:48:59.172Z</time></trkpt><trkpt lat="43.2759193" lon="11.5480446"><ele>299.8333333333333</ele><time>2026-04-26T07:49:00.171Z</time></trkpt><trkpt lat="43.2758375" lon="11.5480075"><ele>301.0</ele><time>2026-04-26T07:49:01.185Z</time></trkpt><trkpt lat="43.2757592" lon="11.5479699"><ele>301.0</ele><time>2026-04-26T07:49:02.184Z</time></trkpt><trkpt lat="43.2756902" lon="11.5479299"><ele>301.0</ele><time>2026-04-26T07:49:03.166Z</time></trkpt><trkpt lat="43.2756299" lon="11.5478891"><ele>301.0</ele><time>2026-04-26T07:49:04.188Z</time></trkpt><trkpt lat="43.2755718" lon="11.5478477"><ele>301.0</ele><time>2026-04-26T07:49:05.17Z</time></trkpt><trkpt lat="43.2755126" lon="11.5478013"><ele>301.0</ele><time>2026-04-26T07:49:06.192Z</time></trkpt><trkpt lat="43.2754528" lon="11.5477477"><ele>301.0</ele><time>2026-04-26T07:49:07.191Z</time></trkpt><trkpt lat="43.2753907" lon="11.5476925"><ele>301.0</ele><time>2026-04-26T07:49:08.172Z</time></trkpt><trkpt lat="43.2753251" lon="11.5476348"><ele>298.5</ele><time>2026-04-26T07:49:09.178Z</time></trkpt><trkpt lat="43.2752571" lon="11.547576"><ele>296.0</ele><time>2026-04-26T07:49:10.168Z</time></trkpt><trkpt lat="43.275185" lon="11.5475156"><ele>293.5</ele><time>2026-04-26T07:49:11.173Z</time></trkpt><trkpt lat="43.2751123" lon="11.5474543"><ele>291.0</ele><time>2026-04-26T07:49:12.179Z</time></trkpt><trkpt lat="43.2750409" lon="11.5473938"><ele>288.5</ele><time>2026-04-26T07:49:13.19Z</time></trkpt><trkpt lat="43.2749693" lon="11.5473349"><ele>286.0</ele><time>2026-04-26T07:49:14.187Z</time></trkpt><trkpt lat="43.274899" lon="11.547276"><ele>286.0</ele><time>2026-04-26T07:49:15.184Z</time></trkpt><trkpt lat="43.2748283" lon="11.5472184"><ele>286.0</ele><time>2026-04-26T07:49:16.174Z</time></trkpt><trkpt lat="43.2747573" lon="11.547165"><ele>286.0</ele><time>2026-04-26T07:49:17.183Z</time></trkpt><trkpt lat="43.2746863" lon="11.54712"><ele>286.0</ele><time>2026-04-26T07:49:18.181Z</time></trkpt><trkpt lat="43.2746119" lon="11.5470862"><ele>286.0</ele><time>2026-04-26T07:49:19.177Z</time></trkpt><trkpt lat="43.274531" lon="11.5470683"><ele>286.0</ele><time>2026-04-26T07:49:20.179Z</time></trkpt><trkpt lat="43.2744457" lon="11.5470659"><ele>284.8333333333333</ele><time>2026-04-26T07:49:21.171Z</time></trkpt><trkpt lat="43.2743572" lon="11.5470742"><ele>283.66666666666663</ele><time>2026-04-26T07:49:22.179Z</time></trkpt><trkpt lat="43.2742684" lon="11.5470847"><ele>282.5</ele><time>2026-04-26T07:49:23.169Z</time></trkpt><trkpt lat="43.274179" lon="11.5470911"><ele>281.3333333333333</ele><time>2026-04-26T07:49:24.173Z</time></trkpt><trkpt lat="43.2740893" lon="11.547094"><ele>280.1666666666667</ele><time>2026-04-26T07:49:25.18Z</time></trkpt><trkpt lat="43.274001" lon="11.5470943"><ele>279.0</ele><time>2026-04-26T07:49:26.179Z</time></trkpt><trkpt lat="43.2739172" lon="11.547091"><ele>276.8</ele><time>2026-04-26T07:49:27.18Z</time></trkpt><trkpt lat="43.2738342" lon="11.5470795"><ele>274.59999999999997</ele><time>2026-04-26T07:49:28.173Z</time></trkpt><trkpt lat="43.2737523" lon="11.5470533"><ele>272.4</ele><time>2026-04-26T07:49:29.187Z</time></trkpt><trkpt lat="43.2736655" lon="11.5470242"><ele>270.2</ele><time>2026-04-26T07:49:30.179Z</time></trkpt><trkpt lat="43.2735865" lon="11.5469523"><ele>268.0</ele><time>2026-04-26T07:49:31.181Z</time></trkpt><trkpt lat="43.2735138" lon="11.5468605"><ele>266.6</ele><time>2026-04-26T07:49:32.173Z</time></trkpt><trkpt lat="43.2734475" lon="11.5467501"><ele>265.20000000000005</ele><time>2026-04-26T07:49:33.18Z</time></trkpt><trkpt lat="43.273389" lon="11.5466222"><ele>263.8</ele><time>2026-04-26T07:49:34.184Z</time></trkpt><trkpt lat="43.2733382" lon="11.5464845"><ele>262.40000000000003</ele><time>2026-04-26T07:49:35.175Z</time></trkpt><trkpt lat="43.2732922" lon="11.5463447"><ele>261.0</ele><time>2026-04-26T07:49:36.18Z</time></trkpt><trkpt lat="43.2732515" lon="11.5462055"><ele>259.2</ele><time>2026-04-26T07:49:37.171Z</time></trkpt><trkpt lat="43.273218" lon="11.5460664"><ele>257.40000000000003</ele><time>2026-04-26T07:49:38.181Z</time></trkpt><trkpt lat="43.2731926" lon="11.5459269"><ele>255.6</ele><time>2026-04-26T07:49:39.183Z</time></trkpt><trkpt lat="43.2731742" lon="11.5457889"><ele>253.8</ele><time>2026-04-26T07:49:40.176Z</time></trkpt><trkpt lat="43.2731627" lon="11.5456529"><ele>252.0</ele><time>2026-04-26T07:49:41.188Z</time></trkpt><trkpt lat="43.2731578" lon="11.5455173"><ele>252.0</ele><time>2026-04-26T07:49:42.181Z</time></trkpt><trkpt lat="43.2731595" lon="11.5453827"><ele>252.0</ele><time>2026-04-26T07:49:43.19Z</time></trkpt><trkpt lat="43.2731646" lon="11.5452496"><ele>252.0</ele><time>2026-04-26T07:49:44.172Z</time></trkpt><trkpt lat="43.2731698" lon="11.5451215"><ele>252.0</ele><time>2026-04-26T07:49:45.177Z</time></trkpt><trkpt lat="43.2731743" lon="11.544994"><ele>252.0</ele><time>2026-04-26T07:49:46.172Z</time></trkpt><trkpt lat="43.273178" lon="11.5448701"><ele>250.83333333333334</ele><time>2026-04-26T07:49:47.169Z</time></trkpt><trkpt lat="43.2731818" lon="11.5447509"><ele>249.66666666666669</ele><time>2026-04-26T07:49:48.173Z</time></trkpt><trkpt lat="43.2731881" lon="11.5446359"><ele>248.5</ele><time>2026-04-26T07:49:49.185Z</time></trkpt><trkpt lat="43.2732007" lon="11.5445237"><ele>247.33333333333334</ele><time>2026-04-26T07:49:50.183Z</time></trkpt><trkpt lat="43.2732254" lon="11.544412"><ele>246.16666666666669</ele><time>2026-04-26T07:49:51.184Z</time></trkpt><trkpt lat="43.2732662" lon="11.5443035"><ele>245.0</ele><time>2026-04-26T07:49:52.184Z</time></trkpt><trkpt lat="43.2733189" lon="11.5442023"><ele>244.16666666666669</ele><time>2026-04-26T07:49:53.178Z</time></trkpt><trkpt lat="43.2733785" lon="11.544107"><ele>243.33333333333334</ele><time>2026-04-26T07:49:54.183Z</time></trkpt><trkpt lat="43.2734396" lon="11.5440136"><ele>242.5</ele><time>2026-04-26T07:49:55.184Z</time></trkpt><trkpt lat="43.2734965" lon="11.5439227"><ele>241.66666666666669</ele><time>2026-04-26T07:49:56.179Z</time></trkpt><trkpt lat="43.2735479" lon="11.543834"><ele>240.83333333333334</ele><time>2026-04-26T07:49:57.184Z</time></trkpt><trkpt lat="43.2735929" lon="11.5437416"><ele>240.0</ele><time>2026-04-26T07:49:58.175Z</time></trkpt><trkpt lat="43.2736259" lon="11.5436446"><ele>238.66666666666666</ele><time>2026-04-26T07:49:59.166Z</time></trkpt><trkpt lat="43.2736404" lon="11.5435443"><ele>237.33333333333331</ele><time>2026-04-26T07:50:00.176Z</time></trkpt><trkpt lat="43.2736341" lon="11.5434462"><ele>236.0</ele><time>2026-04-26T07:50:01.168Z</time></trkpt><trkpt lat="43.2736057" lon="11.5433506"><ele>234.66666666666666</ele><time>2026-04-26T07:50:02.181Z</time></trkpt><trkpt lat="43.2735548" lon="11.5432584"><ele>233.33333333333331</ele><time>2026-04-26T07:50:03.183Z</time></trkpt><trkpt lat="43.2734876" lon="11.5431735"><ele>232.0</ele><time>2026-04-26T07:50:04.168Z</time></trkpt><trkpt lat="43.2734186" lon="11.5430972"><ele>231.99999999999997</ele><time>2026-04-26T07:50:05.171Z</time></trkpt><trkpt lat="43.2733537" lon="11.5430287"><ele>232.0</ele><time>2026-04-26T07:50:06.171Z</time></trkpt><trkpt lat="43.2732883" lon="11.5429712"><ele>232.0</ele><time>2026-04-26T07:50:07.17Z</time></trkpt><trkpt lat="43.2732207" lon="11.5429245"><ele>232.0</ele><time>2026-04-26T07:50:08.171Z</time></trkpt><trkpt lat="43.2731501" lon="11.5428912"><ele>231.99999999999997</ele><time>2026-04-26T07:50:09.174Z</time></trkpt><trkpt lat="43.2730772" lon="11.5428754"><ele>232.0</ele><time>2026-04-26T07:50:10.165Z</time></trkpt><trkpt lat="43.2730036" lon="11.5428791"><ele>230.2857142857143</ele><time>2026-04-26T07:50:11.171Z</time></trkpt><trkpt lat="43.2729353" lon="11.5428963"><ele>228.57142857142858</ele><time>2026-04-26T07:50:12.179Z</time></trkpt><trkpt lat="43.2728717" lon="11.5429183"><ele>226.85714285714286</ele><time>2026-04-26T07:50:13.173Z</time></trkpt><trkpt lat="43.2728072" lon="11.5429239"><ele>225.14285714285717</ele><time>2026-04-26T07:50:14.183Z</time></trkpt><trkpt lat="43.272746" lon="11.5428996"><ele>223.42857142857144</ele><time>2026-04-26T07:50:15.17Z</time></trkpt><trkpt lat="43.2726919" lon="11.5428458"><ele>221.7142857142857</ele><time>2026-04-26T07:50:16.181Z</time></trkpt><trkpt lat="43.2726481" lon="11.5427646"><ele>220.0</ele><time>2026-04-26T07:50:17.188Z</time></trkpt><trkpt lat="43.2726139" lon="11.5426578"><ele>218.2</ele><time>2026-04-26T07:50:18.175Z</time></trkpt><trkpt lat="43.2725788" lon="11.5425461"><ele>216.4</ele><time>2026-04-26T07:50:19.163Z</time></trkpt><trkpt lat="43.2725541" lon="11.5423993"><ele>214.60000000000002</ele><time>2026-04-26T07:50:20.186Z</time></trkpt><trkpt lat="43.2725334" lon="11.5422454"><ele>212.8</ele><time>2026-04-26T07:50:21.167Z</time></trkpt><trkpt lat="43.272516" lon="11.5420872"><ele>211.0</ele><time>2026-04-26T07:50:22.166Z</time></trkpt><trkpt lat="43.2724996" lon="11.5419329"><ele>209.0</ele><time>2026-04-26T07:50:23.175Z</time></trkpt><trkpt lat="43.2724819" lon="11.5417778"><ele>207.0</ele><time>2026-04-26T07:50:24.179Z</time></trkpt><trkpt lat="43.2724623" lon="11.5416219"><ele>205.0</ele><time>2026-04-26T07:50:25.182Z</time></trkpt><trkpt lat="43.2724386" lon="11.5414666"><ele>203.0</ele><time>2026-04-26T07:50:26.173Z</time></trkpt><trkpt lat="43.272408" lon="11.5413079"><ele>201.25</ele><time>2026-04-26T07:50:27.193Z</time></trkpt><trkpt lat="43.272368" lon="11.5411476"><ele>199.5</ele><time>2026-04-26T07:50:28.184Z</time></trkpt><trkpt lat="43.2723191" lon="11.5409897"><ele>197.75</ele><time>2026-04-26T07:50:29.181Z</time></trkpt><trkpt lat="43.2722697" lon="11.5408332"><ele>196.0</ele><time>2026-04-26T07:50:30.185Z</time></trkpt><trkpt lat="43.2722104" lon="11.5406853"><ele>194.75</ele><time>2026-04-26T07:50:31.167Z</time></trkpt><trkpt lat="43.2721529" lon="11.5405396"><ele>193.5</ele><time>2026-04-26T07:50:32.188Z</time></trkpt><trkpt lat="43.2720975" lon="11.5404005"><ele>192.25</ele><time>2026-04-26T07:50:33.174Z</time></trkpt><trkpt lat="43.2720431" lon="11.5402671"><ele>191.0</ele><time>2026-04-26T07:50:34.182Z</time></trkpt><trkpt lat="43.2719878" lon="11.5401344"><ele>190.60000000000002</ele><time>2026-04-26T07:50:35.183Z</time></trkpt><trkpt lat="43.2719335" lon="11.5400024"><ele>190.2</ele><time>2026-04-26T07:50:36.174Z</time></trkpt><trkpt lat="43.27188" lon="11.5398717"><ele>189.8</ele><time>2026-04-26T07:50:37.188Z</time></trkpt><trkpt lat="43.2718278" lon="11.5397427"><ele>189.39999999999998</ele><time>2026-04-26T07:50:38.171Z</time></trkpt><trkpt lat="43.2717754" lon="11.5396131"><ele>189.0</ele><time>2026-04-26T07:50:39.18Z</time></trkpt><trkpt lat="43.2717246" lon="11.5394864"><ele>188.6</ele><time>2026-04-26T07:50:40.177Z</time></trkpt><trkpt lat="43.2716741" lon="11.5393589"><ele>188.2</ele><time>2026-04-26T07:50:41.187Z</time></trkpt><trkpt lat="43.2716249" lon="11.5392312"><ele>187.79999999999998</ele><time>2026-04-26T07:50:42.187Z</time></trkpt><trkpt lat="43.2715756" lon="11.5391034"><ele>187.39999999999998</ele><time>2026-04-26T07:50:43.17Z</time></trkpt><trkpt lat="43.2715252" lon="11.5389738"><ele>187.0</ele><time>2026-04-26T07:50:44.178Z</time></trkpt><trkpt lat="43.2714732" lon="11.5388441"><ele>186.2</ele><time>2026-04-26T07:50:45.185Z</time></trkpt><trkpt lat="43.2714195" lon="11.5387155"><ele>185.39999999999998</ele><time>2026-04-26T07:50:46.171Z</time></trkpt><trkpt lat="43.2713672" lon="11.5385902"><ele>184.60000000000002</ele><time>2026-04-26T07:50:47.19Z</time></trkpt><trkpt lat="43.2713152" lon="11.5384702"><ele>183.8</ele><time>2026-04-26T07:50:48.168Z</time></trkpt><trkpt lat="43.271265" lon="11.5383549"><ele>183.0</ele><time>2026-04-26T07:50:49.181Z</time></trkpt><trkpt lat="43.2712096" lon="11.5382527"><ele>183.0</ele><time>2026-04-26T07:50:50.182Z</time></trkpt><trkpt lat="43.271149" lon="11.5381504"><ele>183.0</ele><time>2026-04-26T07:50:51.178Z</time></trkpt><trkpt lat="43.2710838" lon="11.538054"><ele>183.0</ele><time>2026-04-26T07:50:52.173Z</time></trkpt><trkpt lat="43.2710132" lon="11.5379699"><ele>183.0</ele><time>2026-04-26T07:50:53.179Z</time></trkpt><trkpt lat="43.2709392" lon="11.5378989"><ele>183.0</ele><time>2026-04-26T07:50:54.183Z</time></trkpt><trkpt lat="43.2708631" lon="11.5378382"><ele>183.4</ele><time>2026-04-26T07:50:55.167Z</time></trkpt><trkpt lat="43.2707846" lon="11.5377845"><ele>183.8</ele><time>2026-04-26T07:50:56.189Z</time></trkpt><trkpt lat="43.2706998" lon="11.5377381"><ele>184.2</ele><time>2026-04-26T07:50:57.178Z</time></trkpt><trkpt lat="43.2706105" lon="11.5377032"><ele>184.6</ele><time>2026-04-26T07:50:58.176Z</time></trkpt><trkpt lat="43.2705179" lon="11.5376762"><ele>185.0</ele><time>2026-04-26T07:50:59.181Z</time></trkpt><trkpt lat="43.270423" lon="11.5376478"><ele>186.0</ele><time>2026-04-26T07:51:00.166Z</time></trkpt><trkpt lat="43.2703304" lon="11.5376136"><ele>187.0</ele><time>2026-04-26T07:51:01.186Z</time></trkpt><trkpt lat="43.2702409" lon="11.5375776"><ele>188.0</ele><time>2026-04-26T07:51:02.172Z</time></trkpt><trkpt lat="43.2701511" lon="11.5375526"><ele>189.0</ele><time>2026-04-26T07:51:03.174Z</time></trkpt><trkpt lat="43.2700538" lon="11.5375498"><ele>190.0</ele><time>2026-04-26T07:51:04.171Z</time></trkpt><trkpt lat="43.2699459" lon="11.5375739"><ele>190.0</ele><time>2026-04-26T07:51:05.185Z</time></trkpt><trkpt lat="43.2698289" lon="11.5376284"><ele>190.0</ele><time>2026-04-26T07:51:06.179Z</time></trkpt><trkpt lat="43.2697097" lon="11.5376928"><ele>190.0</ele><time>2026-04-26T07:51:07.185Z</time></trkpt><trkpt lat="43.2695984" lon="11.5377455"><ele>190.0</ele><time>2026-04-26T07:51:08.178Z</time></trkpt><trkpt lat="43.2694935" lon="11.5377937"><ele>192.6</ele><time>2026-04-26T07:51:09.168Z</time></trkpt><trkpt lat="43.2693939" lon="11.5378162"><ele>195.2</ele><time>2026-04-26T07:51:10.174Z</time></trkpt><trkpt lat="43.2692946" lon="11.537824"><ele>197.8</ele><time>2026-04-26T07:51:11.185Z</time></trkpt><trkpt lat="43.2691984" lon="11.5378171"><ele>200.4</ele><time>2026-04-26T07:51:12.177Z</time></trkpt><trkpt lat="43.2691061" lon="11.5377948"><ele>203.0</ele><time>2026-04-26T07:51:13.173Z</time></trkpt><trkpt lat="43.269014" lon="11.5377657"><ele>205.8</ele><time>2026-04-26T07:51:14.17Z</time></trkpt><trkpt lat="43.2689215" lon="11.5377362"><ele>208.60000000000002</ele><time>2026-04-26T07:51:15.184Z</time></trkpt><trkpt lat="43.268826" lon="11.5377108"><ele>211.39999999999998</ele><time>2026-04-26T07:51:16.183Z</time></trkpt><trkpt lat="43.2687269" lon="11.5377033"><ele>214.2</ele><time>2026-04-26T07:51:17.18Z</time></trkpt><trkpt lat="43.2686244" lon="11.5377245"><ele>217.0</ele><time>2026-04-26T07:51:18.185Z</time></trkpt><trkpt lat="43.2685184" lon="11.5377499"><ele>217.0</ele><time>2026-04-26T07:51:19.172Z</time></trkpt><trkpt lat="43.26841" lon="11.5378291"><ele>217.0</ele><time>2026-04-26T07:51:20.174Z</time></trkpt><trkpt lat="43.268306" lon="11.5379057"><ele>217.0</ele><time>2026-04-26T07:51:21.171Z</time></trkpt><trkpt lat="43.2682121" lon="11.5379721"><ele>217.0</ele><time>2026-04-26T07:51:22.182Z</time></trkpt><trkpt lat="43.2681255" lon="11.5380331"><ele>217.0</ele><time>2026-04-26T07:51:23.175Z</time></trkpt><trkpt lat="43.2680427" lon="11.538093"><ele>219.66666666666666</ele><time>2026-04-26T07:51:24.186Z</time></trkpt><trkpt lat="43.2679616" lon="11.5381516"><ele>222.33333333333331</ele><time>2026-04-26T07:51:25.185Z</time></trkpt><trkpt lat="43.2678832" lon="11.5382098"><ele>225.0</ele><time>2026-04-26T07:51:26.191Z</time></trkpt><trkpt lat="43.267806" lon="11.5382669"><ele>227.66666666666669</ele><time>2026-04-26T07:51:27.173Z</time></trkpt><trkpt lat="43.2677287" lon="11.5383245"><ele>230.33333333333334</ele><time>2026-04-26T07:51:28.186Z</time></trkpt><trkpt lat="43.2676481" lon="11.538384"><ele>233.0</ele><time>2026-04-26T07:51:29.17Z</time></trkpt><trkpt lat="43.2675646" lon="11.5384457"><ele>233.0</ele><time>2026-04-26T07:51:30.181Z</time></trkpt><trkpt lat="43.2674786" lon="11.5385058"><ele>233.0</ele><time>2026-04-26T07:51:31.184Z</time></trkpt><trkpt lat="43.2673915" lon="11.538565"><ele>233.0</ele><time>2026-04-26T07:51:32.167Z</time></trkpt><trkpt lat="43.2673036" lon="11.5386253"><ele>233.0</ele><time>2026-04-26T07:51:33.19Z</time></trkpt><trkpt lat="43.267217" lon="11.5386859"><ele>233.0</ele><time>2026-04-26T07:51:34.185Z</time></trkpt><trkpt lat="43.2671298" lon="11.5387444"><ele>234.0</ele><time>2026-04-26T07:51:35.18Z</time></trkpt><trkpt lat="43.2670424" lon="11.538801"><ele>235.0</ele><time>2026-04-26T07:51:36.172Z</time></trkpt><trkpt lat="43.2669525" lon="11.5388551"><ele>236.0</ele><time>2026-04-26T07:51:37.167Z</time></trkpt><trkpt lat="43.266864" lon="11.538907"><ele>237.0</ele><time>2026-04-26T07:51:38.182Z</time></trkpt><trkpt lat="43.2667762" lon="11.5389539"><ele>238.0</ele><time>2026-04-26T07:51:39.169Z</time></trkpt><trkpt lat="43.2666905" lon="11.5389988"><ele>238.0</ele><time>2026-04-26T07:51:40.184Z</time></trkpt><trkpt lat="43.2666093" lon="11.5390484"><ele>238.0</ele><time>2026-04-26T07:51:41.184Z</time></trkpt><trkpt lat="43.2665273" lon="11.5391006"><ele>238.0</ele><time>2026-04-26T07:51:42.171Z</time></trkpt><trkpt lat="43.2664536" lon="11.5391793"><ele>238.0</ele><time>2026-04-26T07:51:43.171Z</time></trkpt><trkpt lat="43.2663877" lon="11.5392868"><ele>238.0</ele><time>2026-04-26T07:51:44.172Z</time></trkpt><trkpt lat="43.2663235" lon="11.5394039"><ele>239.8</ele><time>2026-04-26T07:51:45.173Z</time></trkpt><trkpt lat="43.2662609" lon="11.5395259"><ele>241.60000000000002</ele><time>2026-04-26T07:51:46.168Z</time></trkpt><trkpt lat="43.2661955" lon="11.53964"><ele>243.39999999999998</ele><time>2026-04-26T07:51:47.187Z</time></trkpt><trkpt lat="43.2661261" lon="11.5397508"><ele>245.2</ele><time>2026-04-26T07:51:48.167Z</time></trkpt><trkpt lat="43.2660591" lon="11.5398592"><ele>247.0</ele><time>2026-04-26T07:51:49.191Z</time></trkpt><trkpt lat="43.2659928" lon="11.5399602"><ele>246.99999999999997</ele><time>2026-04-26T07:51:50.173Z</time></trkpt><trkpt lat="43.2659305" lon="11.5400548"><ele>247.0</ele><time>2026-04-26T07:51:51.169Z</time></trkpt><trkpt lat="43.2658709" lon="11.5401446"><ele>247.0</ele><time>2026-04-26T07:51:52.182Z</time></trkpt><trkpt lat="43.2658133" lon="11.5402293"><ele>247.0</ele><time>2026-04-26T07:51:53.183Z</time></trkpt><trkpt lat="43.2657588" lon="11.5403058"><ele>246.99999999999997</ele><time>2026-04-26T07:51:54.174Z</time></trkpt><trkpt lat="43.2657068" lon="11.5403757"><ele>247.0</ele><time>2026-04-26T07:51:55.188Z</time></trkpt><trkpt lat="43.2656562" lon="11.5404473"><ele>245.49999999999997</ele><time>2026-04-26T07:51:56.17Z</time></trkpt><trkpt lat="43.26561" lon="11.5405302"><ele>244.0</ele><time>2026-04-26T07:51:57.166Z</time></trkpt><trkpt lat="43.2655719" lon="11.5406267"><ele>242.5</ele><time>2026-04-26T07:51:58.18Z</time></trkpt><trkpt lat="43.2655453" lon="11.5407359"><ele>241.0</ele><time>2026-04-26T07:51:59.189Z</time></trkpt><trkpt lat="43.2655299" lon="11.5408533"><ele>239.49999999999997</ele><time>2026-04-26T07:52:00.19Z</time></trkpt><trkpt lat="43.2655212" lon="11.5409803"><ele>238.0</ele><time>2026-04-26T07:52:01.183Z</time></trkpt><trkpt lat="43.2655136" lon="11.5411142"><ele>237.2</ele><time>2026-04-26T07:52:02.186Z</time></trkpt><trkpt lat="43.2655011" lon="11.5412539"><ele>236.4</ele><time>2026-04-26T07:52:03.173Z</time></trkpt><trkpt lat="43.2654854" lon="11.5413943"><ele>235.59999999999997</ele><time>2026-04-26T07:52:04.171Z</time></trkpt><trkpt lat="43.2654704" lon="11.5415261"><ele>234.79999999999998</ele><time>2026-04-26T07:52:05.184Z</time></trkpt><trkpt lat="43.2654553" lon="11.5416496"><ele>234.0</ele><time>2026-04-26T07:52:06.179Z</time></trkpt><trkpt lat="43.2654358" lon="11.5417638"><ele>234.0</ele><time>2026-04-26T07:52:07.171Z</time></trkpt><trkpt lat="43.2654105" lon="11.541867"><ele>234.0</ele><time>2026-04-26T07:52:08.177Z</time></trkpt><trkpt lat="43.2653797" lon="11.5419613"><ele>234.0</ele><time>2026-04-26T07:52:09.181Z</time></trkpt><trkpt lat="43.2653448" lon="11.5420551"><ele>234.0</ele><time>2026-04-26T07:52:10.188Z</time></trkpt><trkpt lat="43.2653092" lon="11.5421531"><ele>234.0</ele><time>2026-04-26T07:52:11.176Z</time></trkpt><trkpt lat="43.2652721" lon="11.5422593"><ele>234.0</ele><time>2026-04-26T07:52:12.169Z</time></trkpt><trkpt lat="43.2652379" lon="11.5423762"><ele>234.6</ele><time>2026-04-26T07:52:13.18Z</time></trkpt><trkpt lat="43.2652112" lon="11.542502"><ele>235.2</ele><time>2026-04-26T07:52:14.18Z</time></trkpt><trkpt lat="43.2651957" lon="11.542635"><ele>235.79999999999998</ele><time>2026-04-26T07:52:15.187Z</time></trkpt><trkpt lat="43.2651946" lon="11.5427695"><ele>236.39999999999998</ele><time>2026-04-26T07:52:16.184Z</time></trkpt><trkpt lat="43.2652052" lon="11.5429021"><ele>237.0</ele><time>2026-04-26T07:52:17.175Z</time></trkpt><trkpt lat="43.2652193" lon="11.5430388"><ele>238.39999999999998</ele><time>2026-04-26T07:52:18.168Z</time></trkpt><trkpt lat="43.2652271" lon="11.5431846"><ele>239.79999999999998</ele><time>2026-04-26T07:52:19.178Z</time></trkpt><trkpt lat="43.2652197" lon="11.5433327"><ele>241.2</ele><time>2026-04-26T07:52:20.183Z</time></trkpt><trkpt lat="43.2651975" lon="11.5434728"><ele>242.6</ele><time>2026-04-26T07:52:21.168Z</time></trkpt><trkpt lat="43.2651648" lon="11.5435993"><ele>244.0</ele><time>2026-04-26T07:52:22.19Z</time></trkpt><trkpt lat="43.2651253" lon="11.5437246"><ele>245.79999999999998</ele><time>2026-04-26T07:52:23.182Z</time></trkpt><trkpt lat="43.26508" lon="11.5438537"><ele>247.59999999999997</ele><time>2026-04-26T07:52:24.184Z</time></trkpt><trkpt lat="43.2650318" lon="11.5439814"><ele>249.4</ele><time>2026-04-26T07:52:25.185Z</time></trkpt><trkpt lat="43.2649823" lon="11.5440967"><ele>251.2</ele><time>2026-04-26T07:52:26.179Z</time></trkpt><trkpt lat="43.264927" lon="11.5442036"><ele>253.0</ele><time>2026-04-26T07:52:27.173Z</time></trkpt><trkpt lat="43.2648681" lon="11.5443025"><ele>253.0</ele><time>2026-04-26T07:52:28.179Z</time></trkpt><trkpt lat="43.2648102" lon="11.544398"><ele>253.0</ele><time>2026-04-26T07:52:29.173Z</time></trkpt><trkpt lat="43.2647529" lon="11.5444926"><ele>253.0</ele><time>2026-04-26T07:52:30.184Z</time></trkpt><trkpt lat="43.2647087" lon="11.5446039"><ele>253.0</ele><time>2026-04-26T07:52:31.184Z</time></trkpt><trkpt lat="43.2646731" lon="11.5447253"><ele>253.0</ele><time>2026-04-26T07:52:32.19Z</time></trkpt><trkpt lat="43.2646466" lon="11.5448516"><ele>257.6</ele><time>2026-04-26T07:52:33.188Z</time></trkpt><trkpt lat="43.2646294" lon="11.5449788"><ele>262.20000000000005</ele><time>2026-04-26T07:52:34.18Z</time></trkpt><trkpt lat="43.2646123" lon="11.5451067"><ele>266.8</ele><time>2026-04-26T07:52:35.184Z</time></trkpt><trkpt lat="43.2645908" lon="11.5452362"><ele>271.40000000000003</ele><time>2026-04-26T07:52:36.174Z</time></trkpt><trkpt lat="43.2645686" lon="11.5453728"><ele>276.0</ele><time>2026-04-26T07:52:37.188Z</time></trkpt><trkpt lat="43.2645466" lon="11.5455144"><ele>276.0</ele><time>2026-04-26T07:52:38.188Z</time></trkpt><trkpt lat="43.2645228" lon="11.5456566"><ele>276.0</ele><time>2026-04-26T07:52:39.172Z</time></trkpt><trkpt lat="43.2644983" lon="11.5457885"><ele>276.0</ele><time>2026-04-26T07:52:40.187Z</time></trkpt><trkpt lat="43.2644705" lon="11.5459173"><ele>276.0</ele><time>2026-04-26T07:52:41.188Z</time></trkpt><trkpt lat="43.2644347" lon="11.546041"><ele>276.0</ele><time>2026-04-26T07:52:42.185Z</time></trkpt><trkpt lat="43.2643903" lon="11.5461594"><ele>273.6</ele><time>2026-04-26T07:52:43.186Z</time></trkpt><trkpt lat="43.2643364" lon="11.5462747"><ele>271.20000000000005</ele><time>2026-04-26T07:52:44.186Z</time></trkpt><trkpt lat="43.2642737" lon="11.546386"><ele>268.79999999999995</ele><time>2026-04-26T07:52:45.174Z</time></trkpt><trkpt lat="43.2642022" lon="11.5464876"><ele>266.4</ele><time>2026-04-26T07:52:46.189Z</time></trkpt><trkpt lat="43.2641258" lon="11.5465796"><ele>264.0</ele><time>2026-04-26T07:52:47.181Z</time></trkpt><trkpt lat="43.2640477" lon="11.546667"><ele>264.0</ele><time>2026-04-26T07:52:48.186Z</time></trkpt><trkpt lat="43.2639689" lon="11.5467498"><ele>264.0</ele><time>2026-04-26T07:52:49.188Z</time></trkpt><trkpt lat="43.2638888" lon="11.5468251"><ele>264.0</ele><time>2026-04-26T07:52:50.173Z</time></trkpt><trkpt lat="43.2638104" lon="11.546896"><ele>264.0</ele><time>2026-04-26T07:52:51.174Z</time></trkpt><trkpt lat="43.2637343" lon="11.5469641"><ele>264.0</ele><time>2026-04-26T07:52:52.187Z</time></trkpt><trkpt lat="43.2636589" lon="11.5470312"><ele>264.0</ele><time>2026-04-26T07:52:53.183Z</time></trkpt><trkpt lat="43.2635857" lon="11.5470981"><ele>264.0</ele><time>2026-04-26T07:52:54.18Z</time></trkpt><trkpt lat="43.2635179" lon="11.5471641"><ele>264.0</ele><time>2026-04-26T07:52:55.19Z</time></trkpt><trkpt lat="43.2634534" lon="11.5472301"><ele>264.0</ele><time>2026-04-26T07:52:56.184Z</time></trkpt><trkpt lat="43.2633914" lon="11.5473021"><ele>264.0</ele><time>2026-04-26T07:52:57.177Z</time></trkpt><trkpt lat="43.2633309" lon="11.5473819"><ele>264.0</ele><time>2026-04-26T07:52:58.191Z</time></trkpt><trkpt lat="43.2632737" lon="11.5474668"><ele>264.0</ele><time>2026-04-26T07:52:59.173Z</time></trkpt><trkpt lat="43.2632241" lon="11.5475579"><ele>264.0</ele><time>2026-04-26T07:53:00.169Z</time></trkpt><trkpt lat="43.263181" lon="11.5476529"><ele>264.0</ele><time>2026-04-26T07:53:01.169Z</time></trkpt><trkpt lat="43.2631428" lon="11.5477514"><ele>264.0</ele><time>2026-04-26T07:53:02.169Z</time></trkpt><trkpt lat="43.2631037" lon="11.5478506"><ele>264.0</ele><time>2026-04-26T07:53:03.169Z</time></trkpt><trkpt lat="43.2630624" lon="11.5479531"><ele>264.0</ele><time>2026-04-26T07:53:04.167Z</time></trkpt><trkpt lat="43.2630184" lon="11.5480616"><ele>262.0</ele><time>2026-04-26T07:53:05.18Z</time></trkpt><trkpt lat="43.2629698" lon="11.5481718"><ele>260.0</ele><time>2026-04-26T07:53:06.173Z</time></trkpt><trkpt lat="43.2629157" lon="11.5482836"><ele>258.0</ele><time>2026-04-26T07:53:07.18Z</time></trkpt><trkpt lat="43.2628573" lon="11.5483947"><ele>256.0</ele><time>2026-04-26T07:53:08.178Z</time></trkpt><trkpt lat="43.2627943" lon="11.5485113"><ele>254.0</ele><time>2026-04-26T07:53:09.186Z</time></trkpt><trkpt lat="43.2627273" lon="11.5486354"><ele>252.0</ele><time>2026-04-26T07:53:10.181Z</time></trkpt><trkpt lat="43.262659" lon="11.5487629"><ele>250.0</ele><time>2026-04-26T07:53:11.177Z</time></trkpt><trkpt lat="43.2625888" lon="11.5488911"><ele>248.0</ele><time>2026-04-26T07:53:12.175Z</time></trkpt><trkpt lat="43.2625139" lon="11.5490201"><ele>246.0</ele><time>2026-04-26T07:53:13.191Z</time></trkpt><trkpt lat="43.2624347" lon="11.5491465"><ele>246.0</ele><time>2026-04-26T07:53:14.186Z</time></trkpt><trkpt lat="43.2623507" lon="11.5492645"><ele>246.00000000000003</ele><time>2026-04-26T07:53:15.189Z</time></trkpt><trkpt lat="43.2622647" lon="11.5493694"><ele>246.00000000000003</ele><time>2026-04-26T07:53:16.168Z</time></trkpt><trkpt lat="43.2621813" lon="11.5494673"><ele>246.0</ele><time>2026-04-26T07:53:17.174Z</time></trkpt><trkpt lat="43.2621013" lon="11.5495582"><ele>246.0</ele><time>2026-04-26T07:53:18.193Z</time></trkpt><trkpt lat="43.2620244" lon="11.5496417"><ele>243.8</ele><time>2026-04-26T07:53:19.185Z</time></trkpt><trkpt lat="43.2619437" lon="11.5497189"><ele>241.60000000000002</ele><time>2026-04-26T07:53:20.186Z</time></trkpt><trkpt lat="43.2618583" lon="11.5497861"><ele>239.4</ele><time>2026-04-26T07:53:21.17Z</time></trkpt><trkpt lat="43.2617668" lon="11.549845"><ele>237.2</ele><time>2026-04-26T07:53:22.196Z</time></trkpt><trkpt lat="43.2616673" lon="11.549895"><ele>235.0</ele><time>2026-04-26T07:53:23.175Z</time></trkpt><trkpt lat="43.2615604" lon="11.5499325"><ele>234.6</ele><time>2026-04-26T07:53:24.168Z</time></trkpt><trkpt lat="43.2614486" lon="11.5499577"><ele>234.2</ele><time>2026-04-26T07:53:25.179Z</time></trkpt><trkpt lat="43.2613354" lon="11.5499696"><ele>233.8</ele><time>2026-04-26T07:53:26.17Z</time></trkpt><trkpt lat="43.2612236" lon="11.5499659"><ele>233.4</ele><time>2026-04-26T07:53:27.186Z</time></trkpt><trkpt lat="43.2611168" lon="11.5499517"><ele>233.0</ele><time>2026-04-26T07:53:28.189Z</time></trkpt><trkpt lat="43.2610137" lon="11.5499357"><ele>233.0</ele><time>2026-04-26T07:53:29.182Z</time></trkpt><trkpt lat="43.2609089" lon="11.5499197"><ele>233.0</ele><time>2026-04-26T07:53:30.176Z</time></trkpt><trkpt lat="43.2608056" lon="11.5499324"><ele>233.0</ele><time>2026-04-26T07:53:31.192Z</time></trkpt><trkpt lat="43.2606982" lon="11.5499603"><ele>233.0</ele><time>2026-04-26T07:53:32.177Z</time></trkpt><trkpt lat="43.2605911" lon="11.5500035"><ele>233.0</ele><time>2026-04-26T07:53:33.188Z</time></trkpt><trkpt lat="43.2604876" lon="11.5500614"><ele>234.60000000000002</ele><time>2026-04-26T07:53:34.188Z</time></trkpt><trkpt lat="43.2603901" lon="11.5501354"><ele>236.20000000000002</ele><time>2026-04-26T07:53:35.185Z</time></trkpt><trkpt lat="43.2603002" lon="11.550226"><ele>237.8</ele><time>2026-04-26T07:53:36.191Z</time></trkpt><trkpt lat="43.2602208" lon="11.5503306"><ele>239.4</ele><time>2026-04-26T07:53:37.188Z</time></trkpt><trkpt lat="43.2601489" lon="11.5504415"><ele>241.0</ele><time>2026-04-26T07:53:38.183Z</time></trkpt><trkpt lat="43.2600813" lon="11.5505539"><ele>242.4</ele><time>2026-04-26T07:53:39.177Z</time></trkpt><trkpt lat="43.2600168" lon="11.5506634"><ele>243.8</ele><time>2026-04-26T07:53:40.176Z</time></trkpt><trkpt lat="43.2599557" lon="11.5507696"><ele>245.20000000000002</ele><time>2026-04-26T07:53:41.181Z</time></trkpt><trkpt lat="43.2598979" lon="11.550875"><ele>246.60000000000002</ele><time>2026-04-26T07:53:42.178Z</time></trkpt><trkpt lat="43.2598434" lon="11.5509851"><ele>248.0</ele><time>2026-04-26T07:53:43.174Z</time></trkpt><trkpt lat="43.2597945" lon="11.5511035"><ele>247.66666666666669</ele><time>2026-04-26T07:53:44.174Z</time></trkpt><trkpt lat="43.2597518" lon="11.5512248"><ele>247.33333333333334</ele><time>2026-04-26T07:53:45.177Z</time></trkpt><trkpt lat="43.25972" lon="11.5513422"><ele>247.0</ele><time>2026-04-26T07:53:46.189Z</time></trkpt><trkpt lat="43.2596956" lon="11.5514529"><ele>246.66666666666669</ele><time>2026-04-26T07:53:47.188Z</time></trkpt><trkpt lat="43.2596706" lon="11.5515631"><ele>246.33333333333334</ele><time>2026-04-26T07:53:48.18Z</time></trkpt><trkpt lat="43.2596437" lon="11.5516818"><ele>246.0</ele><time>2026-04-26T07:53:49.179Z</time></trkpt><trkpt lat="43.2596143" lon="11.5518102"><ele>246.0</ele><time>2026-04-26T07:53:50.197Z</time></trkpt><trkpt lat="43.2595832" lon="11.5519425"><ele>246.00000000000003</ele><time>2026-04-26T07:53:51.19Z</time></trkpt><trkpt lat="43.2595524" lon="11.5520729"><ele>246.00000000000003</ele><time>2026-04-26T07:53:52.189Z</time></trkpt><trkpt lat="43.2595197" lon="11.5521982"><ele>246.0</ele><time>2026-04-26T07:53:53.192Z</time></trkpt><trkpt lat="43.2594815" lon="11.5523207"><ele>246.0</ele><time>2026-04-26T07:53:54.17Z</time></trkpt><trkpt lat="43.2594325" lon="11.5524439"><ele>246.0</ele><time>2026-04-26T07:53:55.184Z</time></trkpt><trkpt lat="43.2593718" lon="11.5525589"><ele>246.00000000000003</ele><time>2026-04-26T07:53:56.184Z</time></trkpt><trkpt lat="43.2593016" lon="11.5526623"><ele>246.00000000000003</ele><time>2026-04-26T07:53:57.17Z</time></trkpt><trkpt lat="43.2592254" lon="11.55276"><ele>246.0</ele><time>2026-04-26T07:53:58.19Z</time></trkpt><trkpt lat="43.2591451" lon="11.5528539"><ele>246.0</ele><time>2026-04-26T07:53:59.167Z</time></trkpt><trkpt lat="43.2590581" lon="11.5529429"><ele>245.4</ele><time>2026-04-26T07:54:00.182Z</time></trkpt><trkpt lat="43.2589627" lon="11.5530176"><ele>244.8</ele><time>2026-04-26T07:54:01.179Z</time></trkpt><trkpt lat="43.258862" lon="11.5530766"><ele>244.20000000000002</ele><time>2026-04-26T07:54:02.189Z</time></trkpt><trkpt lat="43.2587581" lon="11.5531199"><ele>243.60000000000002</ele><time>2026-04-26T07:54:03.178Z</time></trkpt><trkpt lat="43.2586484" lon="11.553155"><ele>243.0</ele><time>2026-04-26T07:54:04.168Z</time></trkpt><trkpt lat="43.2585327" lon="11.5531838"><ele>244.8</ele><time>2026-04-26T07:54:05.185Z</time></trkpt><trkpt lat="43.2584157" lon="11.5532098"><ele>246.60000000000002</ele><time>2026-04-26T07:54:06.181Z</time></trkpt><trkpt lat="43.2583031" lon="11.5532362"><ele>248.39999999999998</ele><time>2026-04-26T07:54:07.184Z</time></trkpt><trkpt lat="43.2581975" lon="11.5532646"><ele>250.2</ele><time>2026-04-26T07:54:08.19Z</time></trkpt><trkpt lat="43.2580987" lon="11.5532972"><ele>252.0</ele><time>2026-04-26T07:54:09.181Z</time></trkpt><trkpt lat="43.258003" lon="11.5533365"><ele>252.0</ele><time>2026-04-26T07:54:10.173Z</time></trkpt><trkpt lat="43.2579056" lon="11.5533818"><ele>252.0</ele><time>2026-04-26T07:54:11.17Z</time></trkpt><trkpt lat="43.257803" lon="11.5534341"><ele>252.0</ele><time>2026-04-26T07:54:12.18Z</time></trkpt><trkpt lat="43.2576943" lon="11.5534901"><ele>252.0</ele><time>2026-04-26T07:54:13.172Z</time></trkpt><trkpt lat="43.2575811" lon="11.5535432"><ele>252.0</ele><time>2026-04-26T07:54:14.185Z</time></trkpt><trkpt lat="43.2574662" lon="11.55359"><ele>252.0</ele><time>2026-04-26T07:54:15.173Z</time></trkpt><trkpt lat="43.2573523" lon="11.5536277"><ele>252.0</ele><time>2026-04-26T07:54:16.188Z</time></trkpt><trkpt lat="43.2572441" lon="11.553657"><ele>252.0</ele><time>2026-04-26T07:54:17.174Z</time></trkpt><trkpt lat="43.2571413" lon="11.5536818"><ele>252.0</ele><time>2026-04-26T07:54:18.184Z</time></trkpt><trkpt lat="43.2570402" lon="11.5536984"><ele>252.0</ele><time>2026-04-26T07:54:19.181Z</time></trkpt><trkpt lat="43.2569371" lon="11.5536989"><ele>252.0</ele><time>2026-04-26T07:54:20.191Z</time></trkpt><trkpt lat="43.2568347" lon="11.5536755"><ele>252.0</ele><time>2026-04-26T07:54:21.175Z</time></trkpt><trkpt lat="43.2567333" lon="11.5536327"><ele>252.0</ele><time>2026-04-26T07:54:22.175Z</time></trkpt><trkpt lat="43.2566347" lon="11.5535788"><ele>252.0</ele><time>2026-04-26T07:54:23.183Z</time></trkpt><trkpt lat="43.2565394" lon="11.5535193"><ele>252.0</ele><time>2026-04-26T07:54:24.19Z</time></trkpt><trkpt lat="43.2564451" lon="11.5534596"><ele>252.0</ele><time>2026-04-26T07:54:25.184Z</time></trkpt><trkpt lat="43.2563548" lon="11.5533999"><ele>252.0</ele><time>2026-04-26T07:54:26.188Z</time></trkpt><trkpt lat="43.2562682" lon="11.5533438"><ele>252.0</ele><time>2026-04-26T07:54:27.171Z</time></trkpt><trkpt lat="43.2561857" lon="11.5532904"><ele>252.0</ele><time>2026-04-26T07:54:28.176Z</time></trkpt><trkpt lat="43.2561056" lon="11.5532385"><ele>252.0</ele><time>2026-04-26T07:54:29.166Z</time></trkpt><trkpt lat="43.2560255" lon="11.5531859"><ele>252.0</ele><time>2026-04-26T07:54:30.179Z</time></trkpt><trkpt lat="43.2559463" lon="11.5531337"><ele>252.0</ele><time>2026-04-26T07:54:31.171Z</time></trkpt><trkpt lat="43.2558665" lon="11.5530814"><ele>252.0</ele><time>2026-04-26T07:54:32.189Z</time></trkpt><trkpt lat="43.2557877" lon="11.5530305"><ele>252.0</ele><time>2026-04-26T07:54:33.175Z</time></trkpt><trkpt lat="43.2557079" lon="11.5529821"><ele>252.0</ele><time>2026-04-26T07:54:34.184Z</time></trkpt><trkpt lat="43.255625" lon="11.5529395"><ele>252.0</ele><time>2026-04-26T07:54:35.171Z</time></trkpt><trkpt lat="43.2555397" lon="11.5529061"><ele>251.2</ele><time>2026-04-26T07:54:36.19Z</time></trkpt><trkpt lat="43.2554515" lon="11.5528878"><ele>250.39999999999998</ele><time>2026-04-26T07:54:37.183Z</time></trkpt><trkpt lat="43.2553608" lon="11.5528819"><ele>249.60000000000002</ele><time>2026-04-26T07:54:38.174Z</time></trkpt><trkpt lat="43.2552695" lon="11.552883"><ele>248.8</ele><time>2026-04-26T07:54:39.178Z</time></trkpt><trkpt lat="43.2551796" lon="11.5528852"><ele>248.0</ele><time>2026-04-26T07:54:40.169Z</time></trkpt><trkpt lat="43.2550899" lon="11.5528899"><ele>248.00000000000003</ele><time>2026-04-26T07:54:41.188Z</time></trkpt><trkpt lat="43.2550022" lon="11.5528952"><ele>248.0</ele><time>2026-04-26T07:54:42.171Z</time></trkpt><trkpt lat="43.2549167" lon="11.5528996"><ele>248.0</ele><time>2026-04-26T07:54:43.185Z</time></trkpt><trkpt lat="43.2548324" lon="11.5529047"><ele>248.0</ele><time>2026-04-26T07:54:44.186Z</time></trkpt><trkpt lat="43.254747" lon="11.5529113"><ele>248.00000000000003</ele><time>2026-04-26T07:54:45.187Z</time></trkpt><trkpt lat="43.2546606" lon="11.5529171"><ele>248.0</ele><time>2026-04-26T07:54:46.185Z</time></trkpt><trkpt lat="43.2545755" lon="11.5529211"><ele>247.50000000000003</ele><time>2026-04-26T07:54:47.176Z</time></trkpt><trkpt lat="43.2544941" lon="11.5529239"><ele>247.0</ele><time>2026-04-26T07:54:48.169Z</time></trkpt><trkpt lat="43.2544177" lon="11.5529294"><ele>246.5</ele><time>2026-04-26T07:54:49.183Z</time></trkpt><trkpt lat="43.2543459" lon="11.5529405"><ele>246.0</ele><time>2026-04-26T07:54:50.188Z</time></trkpt><trkpt lat="43.2542754" lon="11.5529671"><ele>245.50000000000003</ele><time>2026-04-26T07:54:51.166Z</time></trkpt><trkpt lat="43.2542098" lon="11.5530156"><ele>245.0</ele><time>2026-04-26T07:54:52.171Z</time></trkpt><trkpt lat="43.2541519" lon="11.5530842"><ele>245.00000000000003</ele><time>2026-04-26T07:54:53.166Z</time></trkpt><trkpt lat="43.2540935" lon="11.5531557"><ele>245.0</ele><time>2026-04-26T07:54:54.181Z</time></trkpt><trkpt lat="43.2540613" lon="11.5532579"><ele>245.0</ele><time>2026-04-26T07:54:55.171Z</time></trkpt><trkpt lat="43.2540423" lon="11.5533695"><ele>245.0</ele><time>2026-04-26T07:54:56.171Z</time></trkpt><trkpt lat="43.2540315" lon="11.5534874"><ele>245.00000000000003</ele><time>2026-04-26T07:54:57.189Z</time></trkpt><trkpt lat="43.254018" lon="11.5536122"><ele>245.0</ele><time>2026-04-26T07:54:58.17Z</time></trkpt><trkpt lat="43.2539939" lon="11.5537425"><ele>242.4</ele><time>2026-04-26T07:54:59.189Z</time></trkpt><trkpt lat="43.2539523" lon="11.5538761"><ele>239.8</ele><time>2026-04-26T07:55:00.184Z</time></trkpt><trkpt lat="43.2539089" lon="11.5540086"><ele>237.2</ele><time>2026-04-26T07:55:01.189Z</time></trkpt><trkpt lat="43.2538374" lon="11.5541124"><ele>234.6</ele><time>2026-04-26T07:55:02.182Z</time></trkpt><trkpt lat="43.2537572" lon="11.5541973"><ele>232.0</ele><time>2026-04-26T07:55:03.166Z</time></trkpt><trkpt lat="43.2536754" lon="11.5542715"><ele>232.0</ele><time>2026-04-26T07:55:04.168Z</time></trkpt><trkpt lat="43.2535973" lon="11.5543406"><ele>232.0</ele><time>2026-04-26T07:55:05.167Z</time></trkpt><trkpt lat="43.2535175" lon="11.5544043"><ele>232.0</ele><time>2026-04-26T07:55:06.169Z</time></trkpt><trkpt lat="43.2534334" lon="11.5544637"><ele>232.0</ele><time>2026-04-26T07:55:07.185Z</time></trkpt><trkpt lat="43.253343" lon="11.5545205"><ele>232.0</ele><time>2026-04-26T07:55:08.183Z</time></trkpt><trkpt lat="43.253245" lon="11.5545727"><ele>230.0</ele><time>2026-04-26T07:55:09.173Z</time></trkpt><trkpt lat="43.253141" lon="11.5546188"><ele>228.0</ele><time>2026-04-26T07:55:10.179Z</time></trkpt><trkpt lat="43.2530337" lon="11.554653"><ele>226.0</ele><time>2026-04-26T07:55:11.183Z</time></trkpt><trkpt lat="43.2529244" lon="11.5546765"><ele>224.0</ele><time>2026-04-26T07:55:12.18Z</time></trkpt><trkpt lat="43.2528138" lon="11.5546935"><ele>222.0</ele><time>2026-04-26T07:55:13.189Z</time></trkpt><trkpt lat="43.2527005" lon="11.5547009"><ele>220.0</ele><time>2026-04-26T07:55:14.175Z</time></trkpt><trkpt lat="43.2525828" lon="11.5546914"><ele>218.0</ele><time>2026-04-26T07:55:15.193Z</time></trkpt><trkpt lat="43.2524632" lon="11.554665"><ele>216.0</ele><time>2026-04-26T07:55:16.174Z</time></trkpt><trkpt lat="43.2523483" lon="11.5546324"><ele>214.0</ele><time>2026-04-26T07:55:17.182Z</time></trkpt><trkpt lat="43.2522441" lon="11.5546071"><ele>213.79999999999998</ele><time>2026-04-26T07:55:18.182Z</time></trkpt><trkpt lat="43.2521458" lon="11.5545939"><ele>213.59999999999997</ele><time>2026-04-26T07:55:19.181Z</time></trkpt><trkpt lat="43.2520503" lon="11.5545971"><ele>213.4</ele><time>2026-04-26T07:55:20.174Z</time></trkpt><trkpt lat="43.2519553" lon="11.5546152"><ele>213.2</ele><time>2026-04-26T07:55:21.175Z</time></trkpt><trkpt lat="43.2518558" lon="11.5546441"><ele>213.0</ele><time>2026-04-26T07:55:22.191Z</time></trkpt><trkpt lat="43.2517498" lon="11.5546803"><ele>213.0</ele><time>2026-04-26T07:55:23.179Z</time></trkpt><trkpt lat="43.2516431" lon="11.5547164"><ele>213.0</ele><time>2026-04-26T07:55:24.188Z</time></trkpt><trkpt lat="43.2515368" lon="11.5547526"><ele>213.0</ele><time>2026-04-26T07:55:25.179Z</time></trkpt><trkpt lat="43.2514368" lon="11.5547886"><ele>213.0</ele><time>2026-04-26T07:55:26.188Z</time></trkpt><trkpt lat="43.2513409" lon="11.5548233"><ele>213.0</ele><time>2026-04-26T07:55:27.178Z</time></trkpt><trkpt lat="43.251249" lon="11.5548618"><ele>213.4</ele><time>2026-04-26T07:55:28.181Z</time></trkpt><trkpt lat="43.2511618" lon="11.5549026"><ele>213.8</ele><time>2026-04-26T07:55:29.18Z</time></trkpt><trkpt lat="43.2510774" lon="11.5549432"><ele>214.2</ele><time>2026-04-26T07:55:30.177Z</time></trkpt><trkpt lat="43.2509968" lon="11.5549951"><ele>214.6</ele><time>2026-04-26T07:55:31.185Z</time></trkpt><trkpt lat="43.250915" lon="11.5550541"><ele>215.0</ele><time>2026-04-26T07:55:32.182Z</time></trkpt><trkpt lat="43.2508367" lon="11.5551232"><ele>215.0</ele><time>2026-04-26T07:55:33.18Z</time></trkpt><trkpt lat="43.2507595" lon="11.5552023"><ele>215.0</ele><time>2026-04-26T07:55:34.185Z</time></trkpt><trkpt lat="43.2506843" lon="11.5552871"><ele>215.0</ele><time>2026-04-26T07:55:35.186Z</time></trkpt><trkpt lat="43.2506095" lon="11.5553727"><ele>215.0</ele><time>2026-04-26T07:55:36.183Z</time></trkpt><trkpt lat="43.2505275" lon="11.5554607"><ele>215.0</ele><time>2026-04-26T07:55:37.18Z</time></trkpt><trkpt lat="43.2504464" lon="11.5555497"><ele>211.8</ele><time>2026-04-26T07:55:38.189Z</time></trkpt><trkpt lat="43.2503642" lon="11.5556352"><ele>208.6</ele><time>2026-04-26T07:55:39.17Z</time></trkpt><trkpt lat="43.2502799" lon="11.5557164"><ele>205.39999999999998</ele><time>2026-04-26T07:55:40.169Z</time></trkpt><trkpt lat="43.2501914" lon="11.5557885"><ele>202.2</ele><time>2026-04-26T07:55:41.175Z</time></trkpt><trkpt lat="43.2500992" lon="11.5558523"><ele>199.0</ele><time>2026-04-26T07:55:42.181Z</time></trkpt><trkpt lat="43.2500024" lon="11.5559032"><ele>199.0</ele><time>2026-04-26T07:55:43.18Z</time></trkpt><trkpt lat="43.2498999" lon="11.5559356"><ele>199.0</ele><time>2026-04-26T07:55:44.182Z</time></trkpt><trkpt lat="43.2497948" lon="11.555954"><ele>199.0</ele><time>2026-04-26T07:55:45.183Z</time></trkpt><trkpt lat="43.2496878" lon="11.5559659"><ele>199.0</ele><time>2026-04-26T07:55:46.188Z</time></trkpt><trkpt lat="43.2495837" lon="11.5559779"><ele>199.0</ele><time>2026-04-26T07:55:47.172Z</time></trkpt><trkpt lat="43.249485" lon="11.5559933"><ele>198.39999999999998</ele><time>2026-04-26T07:55:48.179Z</time></trkpt><trkpt lat="43.2493908" lon="11.5560116"><ele>197.8</ele><time>2026-04-26T07:55:49.174Z</time></trkpt><trkpt lat="43.2492964" lon="11.5560319"><ele>197.2</ele><time>2026-04-26T07:55:50.181Z</time></trkpt><trkpt lat="43.2491997" lon="11.5560513"><ele>196.60000000000002</ele><time>2026-04-26T07:55:51.173Z</time></trkpt><trkpt lat="43.2491023" lon="11.5560673"><ele>196.0</ele><time>2026-04-26T07:55:52.172Z</time></trkpt><trkpt lat="43.2490035" lon="11.5560748"><ele>194.20000000000002</ele><time>2026-04-26T07:55:53.172Z</time></trkpt><trkpt lat="43.2489077" lon="11.5560657"><ele>192.4</ele><time>2026-04-26T07:55:54.19Z</time></trkpt><trkpt lat="43.2488166" lon="11.5560365"><ele>190.6</ele><time>2026-04-26T07:55:55.191Z</time></trkpt><trkpt lat="43.2487314" lon="11.5559889"><ele>188.8</ele><time>2026-04-26T07:55:56.178Z</time></trkpt><trkpt lat="43.248649" lon="11.5559306"><ele>187.0</ele><time>2026-04-26T07:55:57.171Z</time></trkpt><trkpt lat="43.248567" lon="11.5558677"><ele>187.0</ele><time>2026-04-26T07:55:58.172Z</time></trkpt><trkpt lat="43.2484854" lon="11.5558029"><ele>187.0</ele><time>2026-04-26T07:55:59.173Z</time></trkpt><trkpt lat="43.2484041" lon="11.5557357"><ele>187.0</ele><time>2026-04-26T07:56:00.185Z</time></trkpt><trkpt lat="43.2483249" lon="11.5556661"><ele>187.0</ele><time>2026-04-26T07:56:01.18Z</time></trkpt><trkpt lat="43.2482486" lon="11.5555909"><ele>187.0</ele><time>2026-04-26T07:56:02.186Z</time></trkpt><trkpt lat="43.2481728" lon="11.5555078"><ele>185.39999999999998</ele><time>2026-04-26T07:56:03.181Z</time></trkpt><trkpt lat="43.2480993" lon="11.5554172"><ele>183.79999999999998</ele><time>2026-04-26T07:56:04.169Z</time></trkpt><trkpt lat="43.2480317" lon="11.5553199"><ele>182.2</ele><time>2026-04-26T07:56:05.18Z</time></trkpt><trkpt lat="43.2479728" lon="11.5552206"><ele>180.6</ele><time>2026-04-26T07:56:06.182Z</time></trkpt><trkpt lat="43.2479166" lon="11.5551211"><ele>179.0</ele><time>2026-04-26T07:56:07.178Z</time></trkpt><trkpt lat="43.247856" lon="11.5550218"><ele>179.0</ele><time>2026-04-26T07:56:08.185Z</time></trkpt><trkpt lat="43.2477832" lon="11.5549286"><ele>179.0</ele><time>2026-04-26T07:56:09.189Z</time></trkpt><trkpt lat="43.247696" lon="11.5548465"><ele>179.0</ele><time>2026-04-26T07:56:10.178Z</time></trkpt><trkpt lat="43.2475986" lon="11.5547704"><ele>179.0</ele><time>2026-04-26T07:56:11.182Z</time></trkpt><trkpt lat="43.2474958" lon="11.5546934"><ele>179.0</ele><time>2026-04-26T07:56:12.168Z</time></trkpt><trkpt lat="43.247392" lon="11.5546154"><ele>177.6</ele><time>2026-04-26T07:56:13.176Z</time></trkpt><trkpt lat="43.2472897" lon="11.554539"><ele>176.2</ele><time>2026-04-26T07:56:14.172Z</time></trkpt><trkpt lat="43.2471939" lon="11.5544687"><ele>174.79999999999998</ele><time>2026-04-26T07:56:15.191Z</time></trkpt><trkpt lat="43.247107" lon="11.5544052"><ele>173.39999999999998</ele><time>2026-04-26T07:56:16.17Z</time></trkpt><trkpt lat="43.2470281" lon="11.5543474"><ele>172.0</ele><time>2026-04-26T07:56:17.169Z</time></trkpt><trkpt lat="43.2469511" lon="11.5542893"><ele>172.0</ele><time>2026-04-26T07:56:18.17Z</time></trkpt><trkpt lat="43.2468701" lon="11.5542334"><ele>172.0</ele><time>2026-04-26T07:56:19.185Z</time></trkpt><trkpt lat="43.2467846" lon="11.5541842"><ele>172.0</ele><time>2026-04-26T07:56:20.181Z</time></trkpt><trkpt lat="43.2466969" lon="11.5541476"><ele>172.0</ele><time>2026-04-26T07:56:21.173Z</time></trkpt><trkpt lat="43.2466063" lon="11.5541243"><ele>172.0</ele><time>2026-04-26T07:56:22.176Z</time></trkpt><trkpt lat="43.2465116" lon="11.5541114"><ele>173.0</ele><time>2026-04-26T07:56:23.184Z</time></trkpt><trkpt lat="43.2464106" lon="11.5541084"><ele>174.0</ele><time>2026-04-26T07:56:24.191Z</time></trkpt><trkpt lat="43.2463059" lon="11.554107"><ele>175.0</ele><time>2026-04-26T07:56:25.18Z</time></trkpt><trkpt lat="43.2461862" lon="11.5541215"><ele>176.0</ele><time>2026-04-26T07:56:26.188Z</time></trkpt><trkpt lat="43.246064" lon="11.5541376"><ele>177.0</ele><time>2026-04-26T07:56:27.182Z</time></trkpt><trkpt lat="43.2459412" lon="11.5541538"><ele>177.0</ele><time>2026-04-26T07:56:28.178Z</time></trkpt><trkpt lat="43.2458202" lon="11.554171"><ele>177.0</ele><time>2026-04-26T07:56:29.173Z</time></trkpt><trkpt lat="43.2457006" lon="11.5541907"><ele>177.0</ele><time>2026-04-26T07:56:30.182Z</time></trkpt><trkpt lat="43.2455803" lon="11.5542124"><ele>177.0</ele><time>2026-04-26T07:56:31.167Z</time></trkpt><trkpt lat="43.2454621" lon="11.5542304"><ele>179.25</ele><time>2026-04-26T07:56:32.186Z</time></trkpt><trkpt lat="43.2453446" lon="11.5542485"><ele>181.5</ele><time>2026-04-26T07:56:33.175Z</time></trkpt><trkpt lat="43.2452285" lon="11.5542671"><ele>183.75</ele><time>2026-04-26T07:56:34.184Z</time></trkpt><trkpt lat="43.2451145" lon="11.5542867"><ele>186.0</ele><time>2026-04-26T07:56:35.175Z</time></trkpt><trkpt lat="43.2450018" lon="11.5543045"><ele>186.0</ele><time>2026-04-26T07:56:36.18Z</time></trkpt><trkpt lat="43.2448883" lon="11.5543203"><ele>186.0</ele><time>2026-04-26T07:56:37.171Z</time></trkpt><trkpt lat="43.2447731" lon="11.5543339"><ele>186.0</ele><time>2026-04-26T07:56:38.188Z</time></trkpt><trkpt lat="43.2446562" lon="11.554344"><ele>186.0</ele><time>2026-04-26T07:56:39.184Z</time></trkpt><trkpt lat="43.2445382" lon="11.5543539"><ele>187.0</ele><time>2026-04-26T07:56:40.169Z</time></trkpt><trkpt lat="43.2444204" lon="11.5543653"><ele>188.0</ele><time>2026-04-26T07:56:41.188Z</time></trkpt><trkpt lat="43.2443054" lon="11.5543779"><ele>189.0</ele><time>2026-04-26T07:56:42.169Z</time></trkpt><trkpt lat="43.2441934" lon="11.5543916"><ele>190.0</ele><time>2026-04-26T07:56:43.183Z</time></trkpt><trkpt lat="43.244085" lon="11.5544066"><ele>190.0</ele><time>2026-04-26T07:56:44.175Z</time></trkpt><trkpt lat="43.2439806" lon="11.5544234"><ele>190.0</ele><time>2026-04-26T07:56:45.187Z</time></trkpt><trkpt lat="43.2438758" lon="11.5544396"><ele>190.0</ele><time>2026-04-26T07:56:46.178Z</time></trkpt><trkpt lat="43.243773" lon="11.5544544"><ele>190.0</ele><time>2026-04-26T07:56:47.172Z</time></trkpt><trkpt lat="43.2436688" lon="11.5544677"><ele>190.0</ele><time>2026-04-26T07:56:48.174Z</time></trkpt><trkpt lat="43.2435665" lon="11.5544796"><ele>190.8</ele><time>2026-04-26T07:56:49.172Z</time></trkpt><trkpt lat="43.2434617" lon="11.5544908"><ele>191.6</ele><time>2026-04-26T07:56:50.181Z</time></trkpt><trkpt lat="43.2433567" lon="11.5545058"><ele>192.39999999999998</ele><time>2026-04-26T07:56:51.173Z</time></trkpt><trkpt lat="43.2432544" lon="11.5545198"><ele>193.2</ele><time>2026-04-26T07:56:52.191Z</time></trkpt><trkpt lat="43.2431549" lon="11.5545265"><ele>194.0</ele><time>2026-04-26T07:56:53.168Z</time></trkpt><trkpt lat="43.2430569" lon="11.5545317"><ele>194.0</ele><time>2026-04-26T07:56:54.184Z</time></trkpt><trkpt lat="43.24296" lon="11.5545128"><ele>194.0</ele><time>2026-04-26T07:56:55.187Z</time></trkpt><trkpt lat="43.2428643" lon="11.5544822"><ele>194.0</ele><time>2026-04-26T07:56:56.187Z</time></trkpt><trkpt lat="43.2427731" lon="11.5544425"><ele>194.0</ele><time>2026-04-26T07:56:57.182Z</time></trkpt><trkpt lat="43.2426878" lon="11.554394"><ele>194.0</ele><time>2026-04-26T07:56:58.174Z</time></trkpt><trkpt lat="43.2426088" lon="11.5543368"><ele>194.00000000000003</ele><time>2026-04-26T07:56:59.192Z</time></trkpt><trkpt lat="43.2425311" lon="11.5542758"><ele>194.0</ele><time>2026-04-26T07:57:00.178Z</time></trkpt><trkpt lat="43.2424518" lon="11.5542138"><ele>194.0</ele><time>2026-04-26T07:57:01.182Z</time></trkpt><trkpt lat="43.242377" lon="11.5541555"><ele>194.0</ele><time>2026-04-26T07:57:02.168Z</time></trkpt><trkpt lat="43.2423055" lon="11.5540983"><ele>194.00000000000003</ele><time>2026-04-26T07:57:03.185Z</time></trkpt><trkpt lat="43.2422384" lon="11.5540415"><ele>194.0</ele><time>2026-04-26T07:57:04.168Z</time></trkpt><trkpt lat="43.2421706" lon="11.553987"><ele>191.33333333333334</ele><time>2026-04-26T07:57:05.177Z</time></trkpt><trkpt lat="43.2421034" lon="11.5539402"><ele>188.66666666666669</ele><time>2026-04-26T07:57:06.191Z</time></trkpt><trkpt lat="43.2420323" lon="11.553898"><ele>186.0</ele><time>2026-04-26T07:57:07.187Z</time></trkpt><trkpt lat="43.241958" lon="11.5538579"><ele>183.33333333333334</ele><time>2026-04-26T07:57:08.188Z</time></trkpt><trkpt lat="43.2418807" lon="11.5538299"><ele>180.66666666666669</ele><time>2026-04-26T07:57:09.187Z</time></trkpt><trkpt lat="43.2417967" lon="11.5538147"><ele>178.0</ele><time>2026-04-26T07:57:10.183Z</time></trkpt><trkpt lat="43.2417088" lon="11.5538116"><ele>178.0</ele><time>2026-04-26T07:57:11.168Z</time></trkpt><trkpt lat="43.2416198" lon="11.5538055"><ele>178.0</ele><time>2026-04-26T07:57:12.171Z</time></trkpt><trkpt lat="43.2415342" lon="11.5537875"><ele>178.0</ele><time>2026-04-26T07:57:13.183Z</time></trkpt><trkpt lat="43.2414471" lon="11.5537618"><ele>178.0</ele><time>2026-04-26T07:57:14.182Z</time></trkpt><trkpt lat="43.2413563" lon="11.5537297"><ele>178.0</ele><time>2026-04-26T07:57:15.19Z</time></trkpt><trkpt lat="43.2412677" lon="11.5536918"><ele>177.4</ele><time>2026-04-26T07:57:16.182Z</time></trkpt><trkpt lat="43.2411828" lon="11.5536551"><ele>176.8</ele><time>2026-04-26T07:57:17.177Z</time></trkpt><trkpt lat="43.2411085" lon="11.5535982"><ele>176.2</ele><time>2026-04-26T07:57:18.182Z</time></trkpt><trkpt lat="43.2410351" lon="11.5535423"><ele>175.6</ele><time>2026-04-26T07:57:19.183Z</time></trkpt><trkpt lat="43.2409721" lon="11.5534837"><ele>175.0</ele><time>2026-04-26T07:57:20.184Z</time></trkpt><trkpt lat="43.2408733" lon="11.5533912"><ele>175.0</ele><time>2026-04-26T07:57:22.171Z</time></trkpt><trkpt lat="43.2407813" lon="11.5533216"><ele>175.0</ele><time>2026-04-26T07:57:24.188Z</time></trkpt><trkpt lat="43.240721" lon="11.5532492"><ele>175.0</ele><time>2026-04-26T07:57:26.19Z</time></trkpt><trkpt lat="43.2406624" lon="11.5531982"><ele>175.0</ele><time>2026-04-26T07:57:29.176Z</time></trkpt><trkpt lat="43.2405807" lon="11.553151"><ele>175.0</ele><time>2026-04-26T07:57:57.165Z</time></trkpt><trkpt lat="43.2405201" lon="11.5531204"><ele>175.0</ele><time>2026-04-26T07:57:59.169Z</time></trkpt><trkpt lat="43.240456" lon="11.5530879"><ele>174.66666666666669</ele><time>2026-04-26T07:58:01.192Z</time></trkpt><trkpt lat="43.2403921" lon="11.553001"><ele>174.33333333333334</ele><time>2026-04-26T07:58:04.188Z</time></trkpt><trkpt lat="43.2404325" lon="11.5528657"><ele>174.0</ele><time>2026-04-26T07:58:06.17Z</time></trkpt><trkpt lat="43.2404771" lon="11.5527901"><ele>173.66666666666666</ele><time>2026-04-26T07:58:07.17Z</time></trkpt><trkpt lat="43.2405199" lon="11.5527096"><ele>173.33333333333331</ele><time>2026-04-26T07:58:08.185Z</time></trkpt><trkpt lat="43.24056" lon="11.5526276"><ele>173.0</ele><time>2026-04-26T07:58:09.184Z</time></trkpt><trkpt lat="43.2405968" lon="11.5525443"><ele>172.83333333333331</ele><time>2026-04-26T07:58:10.179Z</time></trkpt><trkpt lat="43.2406316" lon="11.552462"><ele>172.66666666666666</ele><time>2026-04-26T07:58:11.168Z</time></trkpt><trkpt lat="43.240664" lon="11.5523858"><ele>172.5</ele><time>2026-04-26T07:58:12.173Z</time></trkpt><trkpt lat="43.2407228" lon="11.5522445"><ele>172.33333333333334</ele><time>2026-04-26T07:58:14.186Z</time></trkpt><trkpt lat="43.2407827" lon="11.5521033"><ele>172.16666666666669</ele><time>2026-04-26T07:58:16.187Z</time></trkpt><trkpt lat="43.2408109" lon="11.5520225"><ele>172.0</ele><time>2026-04-26T07:58:17.177Z</time></trkpt><trkpt lat="43.2408326" lon="11.5519304"><ele>171.8</ele><time>2026-04-26T07:58:18.175Z</time></trkpt><trkpt lat="43.2408366" lon="11.5518243"><ele>171.6</ele><time>2026-04-26T07:58:19.175Z</time></trkpt><trkpt lat="43.2408391" lon="11.5517114"><ele>171.4</ele><time>2026-04-26T07:58:20.166Z</time></trkpt><trkpt lat="43.2407839" lon="11.5515931"><ele>171.20000000000002</ele><time>2026-04-26T07:58:21.176Z</time></trkpt><trkpt lat="43.2407099" lon="11.551481"><ele>171.0</ele><time>2026-04-26T07:58:22.17Z</time></trkpt><trkpt lat="43.2406277" lon="11.5513705"><ele>171.0</ele><time>2026-04-26T07:58:23.166Z</time></trkpt><trkpt lat="43.2405399" lon="11.5512506"><ele>171.0</ele><time>2026-04-26T07:58:24.185Z</time></trkpt><trkpt lat="43.2404511" lon="11.5511312"><ele>171.0</ele><time>2026-04-26T07:58:25.189Z</time></trkpt><trkpt lat="43.240361" lon="11.551009"><ele>171.0</ele><time>2026-04-26T07:58:26.169Z</time></trkpt><trkpt lat="43.2402699" lon="11.5508875"><ele>171.5</ele><time>2026-04-26T07:58:27.19Z</time></trkpt><trkpt lat="43.2401783" lon="11.5507674"><ele>172.0</ele><time>2026-04-26T07:58:28.193Z</time></trkpt><trkpt lat="43.2400883" lon="11.5506488"><ele>172.5</ele><time>2026-04-26T07:58:29.17Z</time></trkpt><trkpt lat="43.239997" lon="11.5505292"><ele>173.0</ele><time>2026-04-26T07:58:30.193Z</time></trkpt><trkpt lat="43.2399089" lon="11.5504073"><ele>173.5</ele><time>2026-04-26T07:58:31.187Z</time></trkpt><trkpt lat="43.2398226" lon="11.550285"><ele>174.0</ele><time>2026-04-26T07:58:32.158Z</time></trkpt><trkpt lat="43.2397336" lon="11.5501631"><ele>174.5</ele><time>2026-04-26T07:58:33.18Z</time></trkpt><trkpt lat="43.2396433" lon="11.5500413"><ele>175.0</ele><time>2026-04-26T07:58:34.19Z</time></trkpt><trkpt lat="43.2395528" lon="11.54992"><ele>175.0</ele><time>2026-04-26T07:58:35.198Z</time></trkpt><trkpt lat="43.2394597" lon="11.5498017"><ele>175.0</ele><time>2026-04-26T07:58:36.191Z</time></trkpt><trkpt lat="43.2393671" lon="11.549691"><ele>175.0</ele><time>2026-04-26T07:58:37.181Z</time></trkpt><trkpt lat="43.2392723" lon="11.5495883"><ele>175.0</ele><time>2026-04-26T07:58:38.18Z</time></trkpt><trkpt lat="43.2391744" lon="11.5494931"><ele>175.25</ele><time>2026-04-26T07:58:39.183Z</time></trkpt><trkpt lat="43.2390744" lon="11.5494057"><ele>175.5</ele><time>2026-04-26T07:58:40.189Z</time></trkpt><trkpt lat="43.2389714" lon="11.5493239"><ele>175.75</ele><time>2026-04-26T07:58:41.167Z</time></trkpt><trkpt lat="43.2388667" lon="11.5492468"><ele>176.0</ele><time>2026-04-26T07:58:42.174Z</time></trkpt><trkpt lat="43.2387604" lon="11.5491712"><ele>176.0</ele><time>2026-04-26T07:58:43.176Z</time></trkpt><trkpt lat="43.2386531" lon="11.5490925"><ele>176.0</ele><time>2026-04-26T07:58:44.175Z</time></trkpt><trkpt lat="43.2385452" lon="11.5490078"><ele>176.0</ele><time>2026-04-26T07:58:45.187Z</time></trkpt><trkpt lat="43.2384376" lon="11.5489171"><ele>176.0</ele><time>2026-04-26T07:58:46.185Z</time></trkpt><trkpt lat="43.2383298" lon="11.5488198"><ele>176.0</ele><time>2026-04-26T07:58:47.18Z</time></trkpt><trkpt lat="43.2382198" lon="11.5487171"><ele>176.0</ele><time>2026-04-26T07:58:48.174Z</time></trkpt><trkpt lat="43.2381085" lon="11.5486087"><ele>176.0</ele><time>2026-04-26T07:58:49.175Z</time></trkpt><trkpt lat="43.2379935" lon="11.5484985"><ele>176.0</ele><time>2026-04-26T07:58:50.191Z</time></trkpt><trkpt lat="43.2378757" lon="11.5483863"><ele>176.0</ele><time>2026-04-26T07:58:51.172Z</time></trkpt><trkpt lat="43.2377593" lon="11.5482637"><ele>176.0</ele><time>2026-04-26T07:58:52.183Z</time></trkpt><trkpt lat="43.2376454" lon="11.5481308"><ele>176.0</ele><time>2026-04-26T07:58:53.174Z</time></trkpt><trkpt lat="43.2375236" lon="11.5480029"><ele>175.33333333333331</ele><time>2026-04-26T07:58:54.174Z</time></trkpt><trkpt lat="43.2374059" lon="11.5478625"><ele>174.66666666666666</ele><time>2026-04-26T07:58:55.17Z</time></trkpt><trkpt lat="43.2372831" lon="11.5477245"><ele>174.0</ele><time>2026-04-26T07:58:56.184Z</time></trkpt><trkpt lat="43.2371571" lon="11.5475831"><ele>174.0</ele><time>2026-04-26T07:58:57.183Z</time></trkpt><trkpt lat="43.2370302" lon="11.54744"><ele>174.0</ele><time>2026-04-26T07:58:58.183Z</time></trkpt><trkpt lat="43.2368983" lon="11.5472962"><ele>174.0</ele><time>2026-04-26T07:58:59.182Z</time></trkpt><trkpt lat="43.2367656" lon="11.5471243"><ele>173.66666666666666</ele><time>2026-04-26T07:59:00.169Z</time></trkpt><trkpt lat="43.2366323" lon="11.5469339"><ele>173.33333333333331</ele><time>2026-04-26T07:59:01.183Z</time></trkpt><trkpt lat="43.2364992" lon="11.5467439"><ele>173.0</ele><time>2026-04-26T07:59:02.176Z</time></trkpt><trkpt lat="43.2363688" lon="11.5465537"><ele>173.0</ele><time>2026-04-26T07:59:03.185Z</time></trkpt><trkpt lat="43.2362438" lon="11.5463613"><ele>173.0</ele><time>2026-04-26T07:59:04.179Z</time></trkpt><trkpt lat="43.2361314" lon="11.5461593"><ele>173.0</ele><time>2026-04-26T07:59:05.175Z</time></trkpt><trkpt lat="43.2360335" lon="11.5459435"><ele>174.0</ele><time>2026-04-26T07:59:06.176Z</time></trkpt><trkpt lat="43.2359498" lon="11.5457235"><ele>175.0</ele><time>2026-04-26T07:59:07.169Z</time></trkpt><trkpt lat="43.2358769" lon="11.5455104"><ele>176.0</ele><time>2026-04-26T07:59:08.178Z</time></trkpt><trkpt lat="43.2358155" lon="11.5453061"><ele>176.0</ele><time>2026-04-26T07:59:09.167Z</time></trkpt><trkpt lat="43.2357701" lon="11.5451038"><ele>176.0</ele><time>2026-04-26T07:59:10.178Z</time></trkpt><trkpt lat="43.2357423" lon="11.5448985"><ele>176.0</ele><time>2026-04-26T07:59:11.183Z</time></trkpt><trkpt lat="43.2357306" lon="11.5446891"><ele>176.33333333333331</ele><time>2026-04-26T07:59:12.168Z</time></trkpt><trkpt lat="43.2357327" lon="11.5444767"><ele>176.66666666666666</ele><time>2026-04-26T07:59:13.184Z</time></trkpt><trkpt lat="43.2357421" lon="11.5442606"><ele>177.0</ele><time>2026-04-26T07:59:14.176Z</time></trkpt><trkpt lat="43.2357507" lon="11.5440405"><ele>177.0</ele><time>2026-04-26T07:59:15.169Z</time></trkpt><trkpt lat="43.235757" lon="11.5438192"><ele>177.0</ele><time>2026-04-26T07:59:16.172Z</time></trkpt><trkpt lat="43.235763" lon="11.5435954"><ele>177.0</ele><time>2026-04-26T07:59:17.179Z</time></trkpt><trkpt lat="43.2357701" lon="11.5433718"><ele>177.33333333333334</ele><time>2026-04-26T07:59:18.177Z</time></trkpt><trkpt lat="43.2357773" lon="11.5431485"><ele>177.66666666666669</ele><time>2026-04-26T07:59:19.186Z</time></trkpt><trkpt lat="43.235784" lon="11.542928"><ele>178.0</ele><time>2026-04-26T07:59:20.181Z</time></trkpt><trkpt lat="43.2357924" lon="11.5427141"><ele>178.33333333333334</ele><time>2026-04-26T07:59:21.183Z</time></trkpt><trkpt lat="43.2358002" lon="11.5424896"><ele>178.66666666666666</ele><time>2026-04-26T07:59:22.186Z</time></trkpt><trkpt lat="43.2358098" lon="11.5422608"><ele>179.0</ele><time>2026-04-26T07:59:23.182Z</time></trkpt><trkpt lat="43.2358198" lon="11.5420284"><ele>179.0</ele><time>2026-04-26T07:59:24.183Z</time></trkpt><trkpt lat="43.2358321" lon="11.5417964"><ele>179.0</ele><time>2026-04-26T07:59:25.168Z</time></trkpt><trkpt lat="43.2358439" lon="11.5415652"><ele>179.0</ele><time>2026-04-26T07:59:26.185Z</time></trkpt><trkpt lat="43.2358558" lon="11.5413314"><ele>177.66666666666666</ele><time>2026-04-26T07:59:27.18Z</time></trkpt><trkpt lat="43.2358666" lon="11.5410929"><ele>176.33333333333334</ele><time>2026-04-26T07:59:28.174Z</time></trkpt><trkpt lat="43.235876" lon="11.5408547"><ele>175.0</ele><time>2026-04-26T07:59:29.175Z</time></trkpt><trkpt lat="43.2358855" lon="11.5406201"><ele>175.0</ele><time>2026-04-26T07:59:30.18Z</time></trkpt><trkpt lat="43.2358944" lon="11.5403894"><ele>175.0</ele><time>2026-04-26T07:59:31.165Z</time></trkpt><trkpt lat="43.235908" lon="11.5401573"><ele>175.0</ele><time>2026-04-26T07:59:32.181Z</time></trkpt><trkpt lat="43.2359174" lon="11.539933"><ele>175.0</ele><time>2026-04-26T07:59:33.175Z</time></trkpt><trkpt lat="43.2358879" lon="11.5397189"><ele>175.0</ele><time>2026-04-26T07:59:34.182Z</time></trkpt><trkpt lat="43.23582" lon="11.5395122"><ele>175.0</ele><time>2026-04-26T07:59:35.17Z</time></trkpt><trkpt lat="43.2357276" lon="11.5393176"><ele>174.33333333333334</ele><time>2026-04-26T07:59:36.18Z</time></trkpt><trkpt lat="43.235628" lon="11.5391222"><ele>173.66666666666666</ele><time>2026-04-26T07:59:37.185Z</time></trkpt><trkpt lat="43.2355248" lon="11.5389333"><ele>173.0</ele><time>2026-04-26T07:59:38.178Z</time></trkpt><trkpt lat="43.2354225" lon="11.5387412"><ele>173.33333333333331</ele><time>2026-04-26T07:59:39.185Z</time></trkpt><trkpt lat="43.2353197" lon="11.5385484"><ele>173.66666666666666</ele><time>2026-04-26T07:59:40.174Z</time></trkpt><trkpt lat="43.2352142" lon="11.5383577"><ele>174.0</ele><time>2026-04-26T07:59:41.178Z</time></trkpt><trkpt lat="43.2351097" lon="11.5381673"><ele>174.0</ele><time>2026-04-26T07:59:42.192Z</time></trkpt><trkpt lat="43.2350058" lon="11.5379775"><ele>174.0</ele><time>2026-04-26T07:59:43.174Z</time></trkpt><trkpt lat="43.2349023" lon="11.5377893"><ele>174.0</ele><time>2026-04-26T07:59:44.183Z</time></trkpt><trkpt lat="43.2347986" lon="11.5375996"><ele>173.33333333333334</ele><time>2026-04-26T07:59:45.186Z</time></trkpt><trkpt lat="43.2346966" lon="11.5374124"><ele>172.66666666666669</ele><time>2026-04-26T07:59:46.192Z</time></trkpt><trkpt lat="43.2345964" lon="11.537225"><ele>172.0</ele><time>2026-04-26T07:59:47.186Z</time></trkpt><trkpt lat="43.234498" lon="11.537039"><ele>172.0</ele><time>2026-04-26T07:59:48.173Z</time></trkpt><trkpt lat="43.2344001" lon="11.5368541"><ele>172.0</ele><time>2026-04-26T07:59:49.175Z</time></trkpt><trkpt lat="43.2343027" lon="11.5366699"><ele>172.0</ele><time>2026-04-26T07:59:50.188Z</time></trkpt><trkpt lat="43.2342051" lon="11.5364873"><ele>172.0</ele><time>2026-04-26T07:59:51.183Z</time></trkpt><trkpt lat="43.2341091" lon="11.5363055"><ele>172.0</ele><time>2026-04-26T07:59:52.176Z</time></trkpt><trkpt lat="43.2340133" lon="11.5361234"><ele>172.0</ele><time>2026-04-26T07:59:53.173Z</time></trkpt><trkpt lat="43.2339181" lon="11.5359434"><ele>171.0</ele><time>2026-04-26T07:59:54.187Z</time></trkpt><trkpt lat="43.2338218" lon="11.5357656"><ele>170.0</ele><time>2026-04-26T07:59:55.174Z</time></trkpt><trkpt lat="43.233724" lon="11.5355915"><ele>169.0</ele><time>2026-04-26T07:59:56.174Z</time></trkpt><trkpt lat="43.2336197" lon="11.5354267"><ele>170.66666666666669</ele><time>2026-04-26T07:59:57.173Z</time></trkpt><trkpt lat="43.2335016" lon="11.5352798"><ele>172.33333333333334</ele><time>2026-04-26T07:59:58.178Z</time></trkpt><trkpt lat="43.2333708" lon="11.5351526"><ele>174.0</ele><time>2026-04-26T07:59:59.183Z</time></trkpt><trkpt lat="43.2332335" lon="11.5350398"><ele>172.66666666666666</ele><time>2026-04-26T08:00:00.181Z</time></trkpt><trkpt lat="43.2330934" lon="11.5349343"><ele>171.33333333333331</ele><time>2026-04-26T08:00:01.18Z</time></trkpt><trkpt lat="43.2329553" lon="11.5348318"><ele>170.0</ele><time>2026-04-26T08:00:02.17Z</time></trkpt><trkpt lat="43.2328209" lon="11.534729"><ele>170.0</ele><time>2026-04-26T08:00:03.183Z</time></trkpt><trkpt lat="43.2326929" lon="11.5346294"><ele>170.0</ele><time>2026-04-26T08:00:04.187Z</time></trkpt><trkpt lat="43.2325711" lon="11.5345339"><ele>170.0</ele><time>2026-04-26T08:00:05.183Z</time></trkpt><trkpt lat="43.2324534" lon="11.5344374"><ele>170.0</ele><time>2026-04-26T08:00:06.184Z</time></trkpt><trkpt lat="43.2323406" lon="11.5343365"><ele>169.5</ele><time>2026-04-26T08:00:07.182Z</time></trkpt><trkpt lat="43.2322355" lon="11.5342267"><ele>169.0</ele><time>2026-04-26T08:00:08.175Z</time></trkpt><trkpt lat="43.2321434" lon="11.5341014"><ele>168.5</ele><time>2026-04-26T08:00:09.184Z</time></trkpt><trkpt lat="43.2320665" lon="11.5339608"><ele>168.0</ele><time>2026-04-26T08:00:10.186Z</time></trkpt><trkpt lat="43.2320053" lon="11.533807"><ele>168.5</ele><time>2026-04-26T08:00:11.17Z</time></trkpt><trkpt lat="43.23196" lon="11.5336431"><ele>169.0</ele><time>2026-04-26T08:00:12.19Z</time></trkpt><trkpt lat="43.231924" lon="11.5334708"><ele>169.5</ele><time>2026-04-26T08:00:13.187Z</time></trkpt><trkpt lat="43.2318891" lon="11.5332919"><ele>170.0</ele><time>2026-04-26T08:00:14.183Z</time></trkpt><trkpt lat="43.2318513" lon="11.5331084"><ele>170.0</ele><time>2026-04-26T08:00:15.186Z</time></trkpt><trkpt lat="43.2318121" lon="11.5329186"><ele>170.0</ele><time>2026-04-26T08:00:16.177Z</time></trkpt><trkpt lat="43.2317734" lon="11.5327225"><ele>170.0</ele><time>2026-04-26T08:00:17.186Z</time></trkpt><trkpt lat="43.2317338" lon="11.5325224"><ele>170.0</ele><time>2026-04-26T08:00:18.175Z</time></trkpt><trkpt lat="43.2316928" lon="11.5323206"><ele>170.0</ele><time>2026-04-26T08:00:19.193Z</time></trkpt><trkpt lat="43.2316514" lon="11.5321197"><ele>170.0</ele><time>2026-04-26T08:00:20.187Z</time></trkpt><trkpt lat="43.2316105" lon="11.5319212"><ele>170.0</ele><time>2026-04-26T08:00:21.188Z</time></trkpt><trkpt lat="43.2315716" lon="11.5317239"><ele>170.0</ele><time>2026-04-26T08:00:22.168Z</time></trkpt><trkpt lat="43.231533" lon="11.5315281"><ele>170.0</ele><time>2026-04-26T08:00:23.175Z</time></trkpt><trkpt lat="43.2314944" lon="11.5313343"><ele>170.0</ele><time>2026-04-26T08:00:24.175Z</time></trkpt><trkpt lat="43.231454" lon="11.5311432"><ele>170.0</ele><time>2026-04-26T08:00:25.178Z</time></trkpt><trkpt lat="43.2314062" lon="11.530957"><ele>169.75</ele><time>2026-04-26T08:00:26.182Z</time></trkpt><trkpt lat="43.2313427" lon="11.5307811"><ele>169.5</ele><time>2026-04-26T08:00:27.174Z</time></trkpt><trkpt lat="43.231264" lon="11.5306171"><ele>169.25</ele><time>2026-04-26T08:00:28.185Z</time></trkpt><trkpt lat="43.2311743" lon="11.5304637"><ele>169.0</ele><time>2026-04-26T08:00:29.184Z</time></trkpt><trkpt lat="43.2310821" lon="11.5303208"><ele>169.75</ele><time>2026-04-26T08:00:30.176Z</time></trkpt><trkpt lat="43.2309833" lon="11.5301862"><ele>170.5</ele><time>2026-04-26T08:00:31.185Z</time></trkpt><trkpt lat="43.2308906" lon="11.5300564"><ele>171.25</ele><time>2026-04-26T08:00:32.192Z</time></trkpt><trkpt lat="43.2308001" lon="11.529936"><ele>172.0</ele><time>2026-04-26T08:00:33.196Z</time></trkpt><trkpt lat="43.2307122" lon="11.5298174"><ele>171.5</ele><time>2026-04-26T08:00:34.18Z</time></trkpt><trkpt lat="43.2306282" lon="11.5297043"><ele>171.0</ele><time>2026-04-26T08:00:35.188Z</time></trkpt><trkpt lat="43.2305449" lon="11.5295945"><ele>170.5</ele><time>2026-04-26T08:00:36.176Z</time></trkpt><trkpt lat="43.2304631" lon="11.5294864"><ele>170.0</ele><time>2026-04-26T08:00:37.197Z</time></trkpt><trkpt lat="43.2303834" lon="11.5293795"><ele>171.2</ele><time>2026-04-26T08:00:38.188Z</time></trkpt><trkpt lat="43.2303057" lon="11.5292748"><ele>172.4</ele><time>2026-04-26T08:00:39.183Z</time></trkpt><trkpt lat="43.2302292" lon="11.529173"><ele>173.60000000000002</ele><time>2026-04-26T08:00:40.174Z</time></trkpt><trkpt lat="43.2301567" lon="11.5290755"><ele>174.8</ele><time>2026-04-26T08:00:41.192Z</time></trkpt><trkpt lat="43.2300867" lon="11.5289834"><ele>176.0</ele><time>2026-04-26T08:00:42.191Z</time></trkpt><trkpt lat="43.2300218" lon="11.5289011"><ele>176.0</ele><time>2026-04-26T08:00:43.175Z</time></trkpt><trkpt lat="43.2299608" lon="11.5288252"><ele>176.0</ele><time>2026-04-26T08:00:44.183Z</time></trkpt><trkpt lat="43.2298957" lon="11.5287629"><ele>176.0</ele><time>2026-04-26T08:00:45.169Z</time></trkpt><trkpt lat="43.2298275" lon="11.5287187"><ele>176.0</ele><time>2026-04-26T08:00:46.181Z</time></trkpt><trkpt lat="43.2297618" lon="11.5286797"><ele>176.0</ele><time>2026-04-26T08:00:47.174Z</time></trkpt><trkpt lat="43.2296902" lon="11.5286242"><ele>176.0</ele><time>2026-04-26T08:00:48.188Z</time></trkpt><trkpt lat="43.2296212" lon="11.5285542"><ele>175.60000000000002</ele><time>2026-04-26T08:00:49.189Z</time></trkpt><trkpt lat="43.2295435" lon="11.5284706"><ele>175.2</ele><time>2026-04-26T08:00:50.187Z</time></trkpt><trkpt lat="43.2294607" lon="11.5283794"><ele>174.8</ele><time>2026-04-26T08:00:51.183Z</time></trkpt><trkpt lat="43.2293777" lon="11.5282801"><ele>174.39999999999998</ele><time>2026-04-26T08:00:52.173Z</time></trkpt><trkpt lat="43.2292957" lon="11.5281803"><ele>174.0</ele><time>2026-04-26T08:00:53.192Z</time></trkpt><trkpt lat="43.2292155" lon="11.5280799"><ele>174.0</ele><time>2026-04-26T08:00:54.185Z</time></trkpt><trkpt lat="43.2291356" lon="11.5279821"><ele>174.0</ele><time>2026-04-26T08:00:55.189Z</time></trkpt><trkpt lat="43.2290561" lon="11.5278865"><ele>174.0</ele><time>2026-04-26T08:00:56.173Z</time></trkpt><trkpt lat="43.2289795" lon="11.5277927"><ele>174.0</ele><time>2026-04-26T08:00:57.182Z</time></trkpt><trkpt lat="43.2289041" lon="11.5277035"><ele>174.0</ele><time>2026-04-26T08:00:58.193Z</time></trkpt><trkpt lat="43.2288308" lon="11.5276222"><ele>172.79999999999998</ele><time>2026-04-26T08:00:59.186Z</time></trkpt><trkpt lat="43.2287573" lon="11.52755"><ele>171.6</ele><time>2026-04-26T08:01:00.166Z</time></trkpt><trkpt lat="43.228681" lon="11.5274867"><ele>170.4</ele><time>2026-04-26T08:01:01.191Z</time></trkpt><trkpt lat="43.2286016" lon="11.5274379"><ele>169.2</ele><time>2026-04-26T08:01:02.185Z</time></trkpt><trkpt lat="43.2285118" lon="11.5274009"><ele>168.0</ele><time>2026-04-26T08:01:03.186Z</time></trkpt><trkpt lat="43.2284214" lon="11.5273609"><ele>168.0</ele><time>2026-04-26T08:01:04.186Z</time></trkpt><trkpt lat="43.2283308" lon="11.527327"><ele>168.0</ele><time>2026-04-26T08:01:05.178Z</time></trkpt><trkpt lat="43.2282371" lon="11.52728"><ele>168.0</ele><time>2026-04-26T08:01:06.18Z</time></trkpt><trkpt lat="43.2281403" lon="11.5272272"><ele>168.0</ele><time>2026-04-26T08:01:07.173Z</time></trkpt><trkpt lat="43.2280457" lon="11.5271655"><ele>168.0</ele><time>2026-04-26T08:01:08.175Z</time></trkpt><trkpt lat="43.2279489" lon="11.5270987"><ele>169.0</ele><time>2026-04-26T08:01:09.185Z</time></trkpt><trkpt lat="43.2278524" lon="11.5270289"><ele>170.0</ele><time>2026-04-26T08:01:10.172Z</time></trkpt><trkpt lat="43.2277641" lon="11.5269475"><ele>171.0</ele><time>2026-04-26T08:01:11.19Z</time></trkpt><trkpt lat="43.2276739" lon="11.5268702"><ele>172.0</ele><time>2026-04-26T08:01:12.171Z</time></trkpt><trkpt lat="43.2275894" lon="11.5267863"><ele>173.0</ele><time>2026-04-26T08:01:13.178Z</time></trkpt><trkpt lat="43.2275138" lon="11.5266964"><ele>173.0</ele><time>2026-04-26T08:01:14.179Z</time></trkpt><trkpt lat="43.2274385" lon="11.526612"><ele>173.0</ele><time>2026-04-26T08:01:15.191Z</time></trkpt><trkpt lat="43.2273644" lon="11.5265338"><ele>173.0</ele><time>2026-04-26T08:01:16.185Z</time></trkpt><trkpt lat="43.2272898" lon="11.5264655"><ele>173.0</ele><time>2026-04-26T08:01:17.18Z</time></trkpt><trkpt lat="43.2272086" lon="11.5264074"><ele>173.0</ele><time>2026-04-26T08:01:18.171Z</time></trkpt><trkpt lat="43.2271217" lon="11.5263724"><ele>173.8</ele><time>2026-04-26T08:01:19.193Z</time></trkpt><trkpt lat="43.2270285" lon="11.5263524"><ele>174.60000000000002</ele><time>2026-04-26T08:01:20.192Z</time></trkpt><trkpt lat="43.2269288" lon="11.5263496"><ele>175.39999999999998</ele><time>2026-04-26T08:01:21.171Z</time></trkpt><trkpt lat="43.2268208" lon="11.5263604"><ele>176.2</ele><time>2026-04-26T08:01:22.192Z</time></trkpt><trkpt lat="43.2267157" lon="11.5263666"><ele>177.0</ele><time>2026-04-26T08:01:23.181Z</time></trkpt><trkpt lat="43.226623" lon="11.5263679"><ele>177.0</ele><time>2026-04-26T08:01:24.173Z</time></trkpt><trkpt lat="43.2265436" lon="11.5263681"><ele>177.0</ele><time>2026-04-26T08:01:25.19Z</time></trkpt><trkpt lat="43.2264662" lon="11.5263691"><ele>177.0</ele><time>2026-04-26T08:01:26.189Z</time></trkpt><trkpt lat="43.226384" lon="11.5263676"><ele>177.0</ele><time>2026-04-26T08:01:27.172Z</time></trkpt><trkpt lat="43.2262981" lon="11.5263723"><ele>177.0</ele><time>2026-04-26T08:01:28.182Z</time></trkpt><trkpt lat="43.2262098" lon="11.5263811"><ele>177.0</ele><time>2026-04-26T08:01:29.188Z</time></trkpt><trkpt lat="43.2261257" lon="11.5263863"><ele>176.66666666666666</ele><time>2026-04-26T08:01:30.172Z</time></trkpt><trkpt lat="43.226045" lon="11.526376"><ele>176.33333333333334</ele><time>2026-04-26T08:01:31.185Z</time></trkpt><trkpt lat="43.2259658" lon="11.5263638"><ele>176.0</ele><time>2026-04-26T08:01:32.188Z</time></trkpt><trkpt lat="43.2258815" lon="11.5263429"><ele>175.66666666666669</ele><time>2026-04-26T08:01:33.186Z</time></trkpt><trkpt lat="43.2257909" lon="11.5263159"><ele>175.33333333333334</ele><time>2026-04-26T08:01:34.185Z</time></trkpt><trkpt lat="43.2256954" lon="11.5262883"><ele>175.0</ele><time>2026-04-26T08:01:35.19Z</time></trkpt><trkpt lat="43.2255891" lon="11.5262521"><ele>176.25</ele><time>2026-04-26T08:01:36.194Z</time></trkpt><trkpt lat="43.2254806" lon="11.5262137"><ele>177.5</ele><time>2026-04-26T08:01:37.169Z</time></trkpt><trkpt lat="43.2253687" lon="11.5261801"><ele>178.75</ele><time>2026-04-26T08:01:38.188Z</time></trkpt><trkpt lat="43.2252545" lon="11.526148"><ele>180.0</ele><time>2026-04-26T08:01:39.172Z</time></trkpt><trkpt lat="43.2251414" lon="11.5261148"><ele>180.0</ele><time>2026-04-26T08:01:40.18Z</time></trkpt><trkpt lat="43.2250281" lon="11.5260837"><ele>180.0</ele><time>2026-04-26T08:01:41.178Z</time></trkpt><trkpt lat="43.2249158" lon="11.5260521"><ele>180.0</ele><time>2026-04-26T08:01:42.187Z</time></trkpt><trkpt lat="43.224804" lon="11.5260198"><ele>180.0</ele><time>2026-04-26T08:01:43.184Z</time></trkpt><trkpt lat="43.2246915" lon="11.5259875"><ele>179.25</ele><time>2026-04-26T08:01:44.189Z</time></trkpt><trkpt lat="43.2245788" lon="11.5259536"><ele>178.5</ele><time>2026-04-26T08:01:45.17Z</time></trkpt><trkpt lat="43.2244648" lon="11.5259252"><ele>177.75</ele><time>2026-04-26T08:01:46.19Z</time></trkpt><trkpt lat="43.2243477" lon="11.5259106"><ele>177.0</ele><time>2026-04-26T08:01:47.178Z</time></trkpt><trkpt lat="43.2242277" lon="11.5259096"><ele>177.0</ele><time>2026-04-26T08:01:48.18Z</time></trkpt><trkpt lat="43.2241085" lon="11.5259193"><ele>177.0</ele><time>2026-04-26T08:01:49.167Z</time></trkpt><trkpt lat="43.2239923" lon="11.525933"><ele>177.0</ele><time>2026-04-26T08:01:50.171Z</time></trkpt><trkpt lat="43.2238777" lon="11.5259457"><ele>177.0</ele><time>2026-04-26T08:01:51.181Z</time></trkpt><trkpt lat="43.2237622" lon="11.5259552"><ele>176.8</ele><time>2026-04-26T08:01:52.184Z</time></trkpt><trkpt lat="43.2236452" lon="11.5259611"><ele>176.6</ele><time>2026-04-26T08:01:53.179Z</time></trkpt><trkpt lat="43.2235275" lon="11.5259633"><ele>176.4</ele><time>2026-04-26T08:01:54.199Z</time></trkpt><trkpt lat="43.2234181" lon="11.5259617"><ele>176.20000000000002</ele><time>2026-04-26T08:01:55.17Z</time></trkpt><trkpt lat="43.2233149" lon="11.5259499"><ele>176.0</ele><time>2026-04-26T08:01:56.181Z</time></trkpt><trkpt lat="43.2232165" lon="11.5259183"><ele>174.60000000000002</ele><time>2026-04-26T08:01:57.193Z</time></trkpt><trkpt lat="43.2231239" lon="11.5258685"><ele>173.2</ele><time>2026-04-26T08:01:58.182Z</time></trkpt><trkpt lat="43.2230372" lon="11.5257994"><ele>171.8</ele><time>2026-04-26T08:01:59.173Z</time></trkpt><trkpt lat="43.2229558" lon="11.5257184"><ele>170.39999999999998</ele><time>2026-04-26T08:02:00.175Z</time></trkpt><trkpt lat="43.2228823" lon="11.5256406"><ele>169.0</ele><time>2026-04-26T08:02:01.173Z</time></trkpt><trkpt lat="43.2228092" lon="11.5255717"><ele>169.0</ele><time>2026-04-26T08:02:02.188Z</time></trkpt><trkpt lat="43.2227362" lon="11.5255047"><ele>169.0</ele><time>2026-04-26T08:02:03.185Z</time></trkpt><trkpt lat="43.2226513" lon="11.525461"><ele>169.0</ele><time>2026-04-26T08:02:04.183Z</time></trkpt><trkpt lat="43.2225539" lon="11.5254469"><ele>169.0</ele><time>2026-04-26T08:02:05.18Z</time></trkpt><trkpt lat="43.2224457" lon="11.5254463"><ele>169.0</ele><time>2026-04-26T08:02:06.188Z</time></trkpt><trkpt lat="43.2223344" lon="11.5254437"><ele>169.5</ele><time>2026-04-26T08:02:07.191Z</time></trkpt><trkpt lat="43.2222238" lon="11.5254345"><ele>170.0</ele><time>2026-04-26T08:02:08.184Z</time></trkpt><trkpt lat="43.2221131" lon="11.5254168"><ele>170.5</ele><time>2026-04-26T08:02:09.182Z</time></trkpt><trkpt lat="43.2220012" lon="11.5253979"><ele>171.0</ele><time>2026-04-26T08:02:10.167Z</time></trkpt><trkpt lat="43.2218871" lon="11.5253802"><ele>172.75</ele><time>2026-04-26T08:02:11.175Z</time></trkpt><trkpt lat="43.2217723" lon="11.5253636"><ele>174.5</ele><time>2026-04-26T08:02:12.185Z</time></trkpt><trkpt lat="43.2216577" lon="11.525345"><ele>176.25</ele><time>2026-04-26T08:02:13.19Z</time></trkpt><trkpt lat="43.2215449" lon="11.5253234"><ele>178.0</ele><time>2026-04-26T08:02:14.195Z</time></trkpt><trkpt lat="43.2214332" lon="11.5252987"><ele>178.0</ele><time>2026-04-26T08:02:15.184Z</time></trkpt><trkpt lat="43.2213216" lon="11.5252744"><ele>178.0</ele><time>2026-04-26T08:02:16.177Z</time></trkpt><trkpt lat="43.2212114" lon="11.5252513"><ele>178.0</ele><time>2026-04-26T08:02:17.172Z</time></trkpt><trkpt lat="43.2211074" lon="11.5252255"><ele>178.0</ele><time>2026-04-26T08:02:18.183Z</time></trkpt><trkpt lat="43.2210083" lon="11.5251915"><ele>178.0</ele><time>2026-04-26T08:02:19.179Z</time></trkpt><trkpt lat="43.2209185" lon="11.5251465"><ele>178.0</ele><time>2026-04-26T08:02:20.162Z</time></trkpt><trkpt lat="43.2208381" lon="11.525089"><ele>178.0</ele><time>2026-04-26T08:02:21.182Z</time></trkpt><trkpt lat="43.2207616" lon="11.5250218"><ele>178.0</ele><time>2026-04-26T08:02:22.169Z</time></trkpt><trkpt lat="43.2206845" lon="11.5249539"><ele>178.0</ele><time>2026-04-26T08:02:23.168Z</time></trkpt><trkpt lat="43.2206044" lon="11.5248926"><ele>178.0</ele><time>2026-04-26T08:02:24.177Z</time></trkpt><trkpt lat="43.2205176" lon="11.5248428"><ele>177.0</ele><time>2026-04-26T08:02:25.187Z</time></trkpt><trkpt lat="43.2204257" lon="11.5248158"><ele>176.0</ele><time>2026-04-26T08:02:26.182Z</time></trkpt><trkpt lat="43.22033" lon="11.5248176"><ele>175.0</ele><time>2026-04-26T08:02:27.19Z</time></trkpt><trkpt lat="43.2202296" lon="11.5248459"><ele>174.0</ele><time>2026-04-26T08:02:28.179Z</time></trkpt><trkpt lat="43.2201273" lon="11.5248891"><ele>173.0</ele><time>2026-04-26T08:02:29.181Z</time></trkpt><trkpt lat="43.2200273" lon="11.5249301"><ele>173.0</ele><time>2026-04-26T08:02:30.184Z</time></trkpt><trkpt lat="43.2199329" lon="11.524963"><ele>173.0</ele><time>2026-04-26T08:02:31.191Z</time></trkpt><trkpt lat="43.219843" lon="11.5249811"><ele>173.0</ele><time>2026-04-26T08:02:32.186Z</time></trkpt><trkpt lat="43.2197539" lon="11.5249793"><ele>173.0</ele><time>2026-04-26T08:02:33.189Z</time></trkpt><trkpt lat="43.2196625" lon="11.5249534"><ele>173.0</ele><time>2026-04-26T08:02:34.193Z</time></trkpt><trkpt lat="43.2195765" lon="11.5249019"><ele>172.8</ele><time>2026-04-26T08:02:35.187Z</time></trkpt><trkpt lat="43.2194953" lon="11.5248297"><ele>172.60000000000002</ele><time>2026-04-26T08:02:36.177Z</time></trkpt><trkpt lat="43.2194173" lon="11.5247399"><ele>172.39999999999998</ele><time>2026-04-26T08:02:37.178Z</time></trkpt><trkpt lat="43.2193407" lon="11.5246343"><ele>172.2</ele><time>2026-04-26T08:02:38.176Z</time></trkpt><trkpt lat="43.2192661" lon="11.5245176"><ele>172.0</ele><time>2026-04-26T08:02:39.19Z</time></trkpt><trkpt lat="43.2191955" lon="11.5243967"><ele>172.0</ele><time>2026-04-26T08:02:40.183Z</time></trkpt><trkpt lat="43.2191271" lon="11.5242768"><ele>172.0</ele><time>2026-04-26T08:02:41.185Z</time></trkpt><trkpt lat="43.2190591" lon="11.524159"><ele>172.0</ele><time>2026-04-26T08:02:42.173Z</time></trkpt><trkpt lat="43.2189936" lon="11.5240451"><ele>172.0</ele><time>2026-04-26T08:02:43.185Z</time></trkpt><trkpt lat="43.2189306" lon="11.5239366"><ele>172.0</ele><time>2026-04-26T08:02:44.18Z</time></trkpt><trkpt lat="43.2188681" lon="11.523831"><ele>172.0</ele><time>2026-04-26T08:02:45.191Z</time></trkpt><trkpt lat="43.2188058" lon="11.5237251"><ele>172.0</ele><time>2026-04-26T08:02:46.186Z</time></trkpt><trkpt lat="43.2187443" lon="11.5236174"><ele>172.0</ele><time>2026-04-26T08:02:47.177Z</time></trkpt><trkpt lat="43.2186843" lon="11.5235074"><ele>172.0</ele><time>2026-04-26T08:02:48.19Z</time></trkpt><trkpt lat="43.2186242" lon="11.5233949"><ele>172.0</ele><time>2026-04-26T08:02:49.17Z</time></trkpt><trkpt lat="43.2185646" lon="11.5232782"><ele>172.0</ele><time>2026-04-26T08:02:50.187Z</time></trkpt><trkpt lat="43.2185083" lon="11.5231566"><ele>172.0</ele><time>2026-04-26T08:02:51.182Z</time></trkpt><trkpt lat="43.2184551" lon="11.5230285"><ele>172.0</ele><time>2026-04-26T08:02:52.187Z</time></trkpt><trkpt lat="43.2184054" lon="11.5228939"><ele>172.0</ele><time>2026-04-26T08:02:53.19Z</time></trkpt><trkpt lat="43.2183599" lon="11.5227537"><ele>172.0</ele><time>2026-04-26T08:02:54.184Z</time></trkpt><trkpt lat="43.2183175" lon="11.5226111"><ele>173.6</ele><time>2026-04-26T08:02:55.178Z</time></trkpt><trkpt lat="43.2182778" lon="11.5224706"><ele>175.2</ele><time>2026-04-26T08:02:56.187Z</time></trkpt><trkpt lat="43.2182427" lon="11.5223344"><ele>176.8</ele><time>2026-04-26T08:02:57.184Z</time></trkpt><trkpt lat="43.2182143" lon="11.5222006"><ele>178.4</ele><time>2026-04-26T08:02:58.178Z</time></trkpt><trkpt lat="43.2181962" lon="11.5220683"><ele>180.0</ele><time>2026-04-26T08:02:59.176Z</time></trkpt><trkpt lat="43.2181889" lon="11.5219386"><ele>179.83333333333334</ele><time>2026-04-26T08:03:00.188Z</time></trkpt><trkpt lat="43.2181798" lon="11.5218227"><ele>179.66666666666666</ele><time>2026-04-26T08:03:01.176Z</time></trkpt><trkpt lat="43.2181579" lon="11.5217252"><ele>179.5</ele><time>2026-04-26T08:03:02.183Z</time></trkpt><trkpt lat="43.2181354" lon="11.5216335"><ele>179.33333333333331</ele><time>2026-04-26T08:03:03.186Z</time></trkpt><trkpt lat="43.2180686" lon="11.5215622"><ele>179.16666666666666</ele><time>2026-04-26T08:03:04.193Z</time></trkpt><trkpt lat="43.2179799" lon="11.5215006"><ele>179.0</ele><time>2026-04-26T08:03:05.183Z</time></trkpt><trkpt lat="43.2178825" lon="11.5214436"><ele>179.0</ele><time>2026-04-26T08:03:06.193Z</time></trkpt><trkpt lat="43.2177854" lon="11.5213879"><ele>179.0</ele><time>2026-04-26T08:03:07.181Z</time></trkpt><trkpt lat="43.2176996" lon="11.5213166"><ele>179.0</ele><time>2026-04-26T08:03:08.191Z</time></trkpt><trkpt lat="43.2176227" lon="11.5212334"><ele>179.0</ele><time>2026-04-26T08:03:09.189Z</time></trkpt><trkpt lat="43.2175579" lon="11.5211384"><ele>179.0</ele><time>2026-04-26T08:03:10.176Z</time></trkpt><trkpt lat="43.2175069" lon="11.5210362"><ele>179.16666666666666</ele><time>2026-04-26T08:03:11.183Z</time></trkpt><trkpt lat="43.2174668" lon="11.520931"><ele>179.33333333333331</ele><time>2026-04-26T08:03:12.174Z</time></trkpt><trkpt lat="43.2174379" lon="11.5208248"><ele>179.5</ele><time>2026-04-26T08:03:13.193Z</time></trkpt><trkpt lat="43.2174224" lon="11.5207111"><ele>179.66666666666666</ele><time>2026-04-26T08:03:14.189Z</time></trkpt><trkpt lat="43.2174184" lon="11.5205899"><ele>179.83333333333334</ele><time>2026-04-26T08:03:15.187Z</time></trkpt><trkpt lat="43.2174211" lon="11.5204604"><ele>180.0</ele><time>2026-04-26T08:03:16.175Z</time></trkpt><trkpt lat="43.2174253" lon="11.5203226"><ele>180.0</ele><time>2026-04-26T08:03:17.177Z</time></trkpt><trkpt lat="43.2174314" lon="11.520179"><ele>180.0</ele><time>2026-04-26T08:03:18.176Z</time></trkpt><trkpt lat="43.2174376" lon="11.52003"><ele>180.0</ele><time>2026-04-26T08:03:19.183Z</time></trkpt><trkpt lat="43.2174457" lon="11.5198773"><ele>180.0</ele><time>2026-04-26T08:03:20.173Z</time></trkpt><trkpt lat="43.2174562" lon="11.5197215"><ele>180.0</ele><time>2026-04-26T08:03:21.192Z</time></trkpt><trkpt lat="43.2174672" lon="11.5195678"><ele>178.8</ele><time>2026-04-26T08:03:22.177Z</time></trkpt><trkpt lat="43.2174778" lon="11.5194168"><ele>177.6</ele><time>2026-04-26T08:03:23.192Z</time></trkpt><trkpt lat="43.2174865" lon="11.519268"><ele>176.39999999999998</ele><time>2026-04-26T08:03:24.19Z</time></trkpt><trkpt lat="43.2174876" lon="11.5191186"><ele>175.2</ele><time>2026-04-26T08:03:25.186Z</time></trkpt><trkpt lat="43.2174761" lon="11.5189684"><ele>174.0</ele><time>2026-04-26T08:03:26.196Z</time></trkpt><trkpt lat="43.2174521" lon="11.5188241"><ele>174.0</ele><time>2026-04-26T08:03:27.191Z</time></trkpt><trkpt lat="43.2174191" lon="11.5186854"><ele>174.0</ele><time>2026-04-26T08:03:28.184Z</time></trkpt><trkpt lat="43.2173803" lon="11.5185524"><ele>174.0</ele><time>2026-04-26T08:03:29.176Z</time></trkpt><trkpt lat="43.2173422" lon="11.5184237"><ele>174.0</ele><time>2026-04-26T08:03:30.194Z</time></trkpt><trkpt lat="43.2172977" lon="11.5183013"><ele>174.0</ele><time>2026-04-26T08:03:31.195Z</time></trkpt><trkpt lat="43.2172502" lon="11.5181762"><ele>173.2</ele><time>2026-04-26T08:03:32.184Z</time></trkpt><trkpt lat="43.2171996" lon="11.5180455"><ele>172.39999999999998</ele><time>2026-04-26T08:03:33.176Z</time></trkpt><trkpt lat="43.2171472" lon="11.5179117"><ele>171.6</ele><time>2026-04-26T08:03:34.182Z</time></trkpt><trkpt lat="43.2170936" lon="11.5177747"><ele>170.8</ele><time>2026-04-26T08:03:35.176Z</time></trkpt><trkpt lat="43.21704" lon="11.5176346"><ele>170.0</ele><time>2026-04-26T08:03:36.172Z</time></trkpt><trkpt lat="43.2169845" lon="11.5174933"><ele>170.0</ele><time>2026-04-26T08:03:37.177Z</time></trkpt><trkpt lat="43.2169269" lon="11.5173522"><ele>170.0</ele><time>2026-04-26T08:03:38.175Z</time></trkpt><trkpt lat="43.2168682" lon="11.5172132"><ele>170.0</ele><time>2026-04-26T08:03:39.176Z</time></trkpt><trkpt lat="43.216809" lon="11.5170761"><ele>170.0</ele><time>2026-04-26T08:03:40.188Z</time></trkpt><trkpt lat="43.216748" lon="11.5169391"><ele>169.75</ele><time>2026-04-26T08:03:41.179Z</time></trkpt><trkpt lat="43.2166845" lon="11.5168048"><ele>169.5</ele><time>2026-04-26T08:03:42.173Z</time></trkpt><trkpt lat="43.216621" lon="11.5166748"><ele>169.25</ele><time>2026-04-26T08:03:43.172Z</time></trkpt><trkpt lat="43.2165571" lon="11.5165472"><ele>169.0</ele><time>2026-04-26T08:03:44.175Z</time></trkpt><trkpt lat="43.2164934" lon="11.5164249"><ele>168.79999999999998</ele><time>2026-04-26T08:03:45.188Z</time></trkpt><trkpt lat="43.2164286" lon="11.516304"><ele>168.6</ele><time>2026-04-26T08:03:46.178Z</time></trkpt><trkpt lat="43.2163644" lon="11.5161837"><ele>168.4</ele><time>2026-04-26T08:03:47.173Z</time></trkpt><trkpt lat="43.2162996" lon="11.5160628"><ele>168.2</ele><time>2026-04-26T08:03:48.181Z</time></trkpt><trkpt lat="43.2162356" lon="11.51594"><ele>168.0</ele><time>2026-04-26T08:03:49.174Z</time></trkpt><trkpt lat="43.2161727" lon="11.5158156"><ele>168.0</ele><time>2026-04-26T08:03:50.172Z</time></trkpt><trkpt lat="43.21611" lon="11.5156859"><ele>168.0</ele><time>2026-04-26T08:03:51.175Z</time></trkpt><trkpt lat="43.2160494" lon="11.5155516"><ele>168.0</ele><time>2026-04-26T08:03:52.173Z</time></trkpt><trkpt lat="43.2159934" lon="11.5154115"><ele>168.0</ele><time>2026-04-26T08:03:53.175Z</time></trkpt><trkpt lat="43.2159411" lon="11.5152678"><ele>169.2</ele><time>2026-04-26T08:03:54.188Z</time></trkpt><trkpt lat="43.2158918" lon="11.5151231"><ele>170.4</ele><time>2026-04-26T08:03:55.175Z</time></trkpt><trkpt lat="43.2158468" lon="11.5149819"><ele>171.6</ele><time>2026-04-26T08:03:56.183Z</time></trkpt><trkpt lat="43.215805" lon="11.514847"><ele>172.79999999999998</ele><time>2026-04-26T08:03:57.181Z</time></trkpt><trkpt lat="43.2157641" lon="11.5147195"><ele>174.0</ele><time>2026-04-26T08:03:58.188Z</time></trkpt><trkpt lat="43.2157225" lon="11.5145988"><ele>175.33333333333334</ele><time>2026-04-26T08:03:59.187Z</time></trkpt><trkpt lat="43.215683" lon="11.5144856"><ele>176.66666666666666</ele><time>2026-04-26T08:04:00.175Z</time></trkpt><trkpt lat="43.2156464" lon="11.5143805"><ele>178.0</ele><time>2026-04-26T08:04:01.177Z</time></trkpt><trkpt lat="43.2156117" lon="11.514277"><ele>179.33333333333331</ele><time>2026-04-26T08:04:02.17Z</time></trkpt><trkpt lat="43.2155788" lon="11.5141724"><ele>180.66666666666666</ele><time>2026-04-26T08:04:03.187Z</time></trkpt><trkpt lat="43.2155502" lon="11.5140679"><ele>182.0</ele><time>2026-04-26T08:04:04.178Z</time></trkpt><trkpt lat="43.2155307" lon="11.513973"><ele>182.0</ele><time>2026-04-26T08:04:05.173Z</time></trkpt><trkpt lat="43.2155079" lon="11.5137999"><ele>182.0</ele><time>2026-04-26T08:04:07.177Z</time></trkpt><trkpt lat="43.2154965" lon="11.5137107"><ele>182.0</ele><time>2026-04-26T08:04:08.184Z</time></trkpt><trkpt lat="43.2154759" lon="11.5136164"><ele>182.0</ele><time>2026-04-26T08:04:09.195Z</time></trkpt><trkpt lat="43.2154495" lon="11.5135232"><ele>182.0</ele><time>2026-04-26T08:04:10.187Z</time></trkpt><trkpt lat="43.2154176" lon="11.5134348"><ele>182.0</ele><time>2026-04-26T08:04:11.189Z</time></trkpt><trkpt lat="43.2153763" lon="11.5133491"><ele>181.6</ele><time>2026-04-26T08:04:12.191Z</time></trkpt><trkpt lat="43.2153248" lon="11.5132619"><ele>181.2</ele><time>2026-04-26T08:04:13.173Z</time></trkpt><trkpt lat="43.2152629" lon="11.5131742"><ele>180.8</ele><time>2026-04-26T08:04:14.195Z</time></trkpt><trkpt lat="43.2151939" lon="11.513089"><ele>180.4</ele><time>2026-04-26T08:04:15.189Z</time></trkpt><trkpt lat="43.215122" lon="11.5130087"><ele>180.0</ele><time>2026-04-26T08:04:16.184Z</time></trkpt><trkpt lat="43.2150459" lon="11.512929"><ele>179.6</ele><time>2026-04-26T08:04:17.173Z</time></trkpt><trkpt lat="43.2149659" lon="11.5128486"><ele>179.2</ele><time>2026-04-26T08:04:18.19Z</time></trkpt><trkpt lat="43.2148843" lon="11.5127695"><ele>178.8</ele><time>2026-04-26T08:04:19.174Z</time></trkpt><trkpt lat="43.2148028" lon="11.5126882"><ele>178.4</ele><time>2026-04-26T08:04:20.174Z</time></trkpt><trkpt lat="43.2147242" lon="11.512607"><ele>178.0</ele><time>2026-04-26T08:04:21.18Z</time></trkpt><trkpt lat="43.2146479" lon="11.5125286"><ele>176.33333333333334</ele><time>2026-04-26T08:04:22.182Z</time></trkpt><trkpt lat="43.2145742" lon="11.5124559"><ele>174.66666666666669</ele><time>2026-04-26T08:04:23.186Z</time></trkpt><trkpt lat="43.214504" lon="11.5123864"><ele>173.0</ele><time>2026-04-26T08:04:24.182Z</time></trkpt><trkpt lat="43.214437" lon="11.5123171"><ele>171.33333333333334</ele><time>2026-04-26T08:04:25.177Z</time></trkpt><trkpt lat="43.2143744" lon="11.5122393"><ele>169.66666666666666</ele><time>2026-04-26T08:04:26.187Z</time></trkpt><trkpt lat="43.2143193" lon="11.5121498"><ele>168.0</ele><time>2026-04-26T08:04:27.191Z</time></trkpt><trkpt lat="43.2142736" lon="11.5120467"><ele>167.66666666666666</ele><time>2026-04-26T08:04:28.187Z</time></trkpt><trkpt lat="43.2142397" lon="11.511935"><ele>167.33333333333334</ele><time>2026-04-26T08:04:29.188Z</time></trkpt><trkpt lat="43.2142192" lon="11.5118204"><ele>167.0</ele><time>2026-04-26T08:04:30.174Z</time></trkpt><trkpt lat="43.2142131" lon="11.5117037"><ele>166.66666666666669</ele><time>2026-04-26T08:04:31.179Z</time></trkpt><trkpt lat="43.2142241" lon="11.5115843"><ele>166.33333333333334</ele><time>2026-04-26T08:04:32.193Z</time></trkpt><trkpt lat="43.2142421" lon="11.5114638"><ele>166.0</ele><time>2026-04-26T08:04:33.189Z</time></trkpt><trkpt lat="43.2142559" lon="11.5113422"><ele>165.60000000000002</ele><time>2026-04-26T08:04:34.177Z</time></trkpt><trkpt lat="43.2142584" lon="11.5112202"><ele>165.2</ele><time>2026-04-26T08:04:35.178Z</time></trkpt><trkpt lat="43.2142444" lon="11.5110927"><ele>164.8</ele><time>2026-04-26T08:04:36.194Z</time></trkpt><trkpt lat="43.2142119" lon="11.5109646"><ele>164.39999999999998</ele><time>2026-04-26T08:04:37.19Z</time></trkpt><trkpt lat="43.214159" lon="11.510833"><ele>164.0</ele><time>2026-04-26T08:04:38.189Z</time></trkpt><trkpt lat="43.2140942" lon="11.510699"><ele>164.0</ele><time>2026-04-26T08:04:39.188Z</time></trkpt><trkpt lat="43.2140265" lon="11.5105695"><ele>164.0</ele><time>2026-04-26T08:04:40.172Z</time></trkpt><trkpt lat="43.2139619" lon="11.5104498"><ele>164.0</ele><time>2026-04-26T08:04:41.19Z</time></trkpt><trkpt lat="43.2138968" lon="11.5103358"><ele>164.0</ele><time>2026-04-26T08:04:42.185Z</time></trkpt><trkpt lat="43.2138266" lon="11.5102248"><ele>164.0</ele><time>2026-04-26T08:04:43.19Z</time></trkpt><trkpt lat="43.2137528" lon="11.5101164"><ele>163.79999999999998</ele><time>2026-04-26T08:04:44.188Z</time></trkpt><trkpt lat="43.2136761" lon="11.5100109"><ele>163.6</ele><time>2026-04-26T08:04:45.188Z</time></trkpt><trkpt lat="43.2135991" lon="11.50991"><ele>163.4</ele><time>2026-04-26T08:04:46.189Z</time></trkpt><trkpt lat="43.2135215" lon="11.5098177"><ele>163.2</ele><time>2026-04-26T08:04:47.192Z</time></trkpt><trkpt lat="43.2134485" lon="11.5097327"><ele>163.0</ele><time>2026-04-26T08:04:48.177Z</time></trkpt><trkpt lat="43.2133822" lon="11.5096517"><ele>163.2</ele><time>2026-04-26T08:04:49.179Z</time></trkpt><trkpt lat="43.2133188" lon="11.5095653"><ele>163.4</ele><time>2026-04-26T08:04:50.176Z</time></trkpt><trkpt lat="43.2132581" lon="11.5094714"><ele>163.6</ele><time>2026-04-26T08:04:51.184Z</time></trkpt><trkpt lat="43.213198" lon="11.5093675"><ele>163.79999999999998</ele><time>2026-04-26T08:04:52.175Z</time></trkpt><trkpt lat="43.2131405" lon="11.5092539"><ele>164.0</ele><time>2026-04-26T08:04:53.191Z</time></trkpt><trkpt lat="43.2130836" lon="11.5091358"><ele>163.6</ele><time>2026-04-26T08:04:54.183Z</time></trkpt><trkpt lat="43.2130304" lon="11.5090236"><ele>163.2</ele><time>2026-04-26T08:04:55.183Z</time></trkpt><trkpt lat="43.2129765" lon="11.5089157"><ele>162.79999999999998</ele><time>2026-04-26T08:04:56.171Z</time></trkpt><trkpt lat="43.2129236" lon="11.5088098"><ele>162.39999999999998</ele><time>2026-04-26T08:04:57.181Z</time></trkpt><trkpt lat="43.2128709" lon="11.5087029"><ele>162.0</ele><time>2026-04-26T08:04:58.178Z</time></trkpt><trkpt lat="43.2128192" lon="11.5085933"><ele>162.0</ele><time>2026-04-26T08:04:59.171Z</time></trkpt><trkpt lat="43.2127683" lon="11.5084809"><ele>162.0</ele><time>2026-04-26T08:05:00.187Z</time></trkpt><trkpt lat="43.2127175" lon="11.50837"><ele>162.0</ele><time>2026-04-26T08:05:01.176Z</time></trkpt><trkpt lat="43.212669" lon="11.5082582"><ele>162.0</ele><time>2026-04-26T08:05:02.177Z</time></trkpt><trkpt lat="43.2126157" lon="11.5081508"><ele>162.0</ele><time>2026-04-26T08:05:03.182Z</time></trkpt><trkpt lat="43.2125557" lon="11.5080497"><ele>162.0</ele><time>2026-04-26T08:05:04.187Z</time></trkpt><trkpt lat="43.2124917" lon="11.5079617"><ele>162.0</ele><time>2026-04-26T08:05:05.19Z</time></trkpt><trkpt lat="43.2124306" lon="11.5078789"><ele>162.0</ele><time>2026-04-26T08:05:06.186Z</time></trkpt><trkpt lat="43.2123647" lon="11.5078179"><ele>162.0</ele><time>2026-04-26T08:05:07.19Z</time></trkpt><trkpt lat="43.2122829" lon="11.507779"><ele>162.0</ele><time>2026-04-26T08:05:08.171Z</time></trkpt><trkpt lat="43.2122016" lon="11.5077429"><ele>162.0</ele><time>2026-04-26T08:05:09.177Z</time></trkpt><trkpt lat="43.2121263" lon="11.5076929"><ele>162.33333333333334</ele><time>2026-04-26T08:05:10.188Z</time></trkpt><trkpt lat="43.2120602" lon="11.5076255"><ele>162.66666666666666</ele><time>2026-04-26T08:05:11.184Z</time></trkpt><trkpt lat="43.2120032" lon="11.5075443"><ele>163.0</ele><time>2026-04-26T08:05:12.189Z</time></trkpt><trkpt lat="43.211947" lon="11.5074608"><ele>163.33333333333331</ele><time>2026-04-26T08:05:13.182Z</time></trkpt><trkpt lat="43.2119093" lon="11.5073576"><ele>163.66666666666666</ele><time>2026-04-26T08:05:14.177Z</time></trkpt><trkpt lat="43.2118785" lon="11.5072528"><ele>164.0</ele><time>2026-04-26T08:05:15.184Z</time></trkpt><trkpt lat="43.2118461" lon="11.5071486"><ele>164.16666666666666</ele><time>2026-04-26T08:05:16.188Z</time></trkpt><trkpt lat="43.2118131" lon="11.5070399"><ele>164.33333333333331</ele><time>2026-04-26T08:05:17.188Z</time></trkpt><trkpt lat="43.2117827" lon="11.5069325"><ele>164.5</ele><time>2026-04-26T08:05:18.192Z</time></trkpt><trkpt lat="43.2117549" lon="11.5068264"><ele>164.66666666666666</ele><time>2026-04-26T08:05:19.173Z</time></trkpt><trkpt lat="43.2117275" lon="11.5067226"><ele>164.83333333333334</ele><time>2026-04-26T08:05:20.188Z</time></trkpt><trkpt lat="43.2116993" lon="11.5066227"><ele>165.0</ele><time>2026-04-26T08:05:21.184Z</time></trkpt><trkpt lat="43.2116726" lon="11.5065261"><ele>165.00000000000003</ele><time>2026-04-26T08:05:22.175Z</time></trkpt><trkpt lat="43.2116454" lon="11.5064304"><ele>165.0</ele><time>2026-04-26T08:05:23.18Z</time></trkpt><trkpt lat="43.2116176" lon="11.5063375"><ele>165.0</ele><time>2026-04-26T08:05:24.187Z</time></trkpt><trkpt lat="43.2115902" lon="11.5062481"><ele>165.0</ele><time>2026-04-26T08:05:25.173Z</time></trkpt><trkpt lat="43.2115652" lon="11.5061597"><ele>165.0</ele><time>2026-04-26T08:05:26.183Z</time></trkpt><trkpt lat="43.2115398" lon="11.5060696"><ele>165.00000000000003</ele><time>2026-04-26T08:05:27.177Z</time></trkpt><trkpt lat="43.2115136" lon="11.5059782"><ele>165.0</ele><time>2026-04-26T08:05:28.172Z</time></trkpt><trkpt lat="43.2114869" lon="11.5058854"><ele>164.83333333333334</ele><time>2026-04-26T08:05:29.18Z</time></trkpt><trkpt lat="43.2114592" lon="11.5057884"><ele>164.66666666666666</ele><time>2026-04-26T08:05:30.186Z</time></trkpt><trkpt lat="43.2114309" lon="11.505692"><ele>164.5</ele><time>2026-04-26T08:05:31.186Z</time></trkpt><trkpt lat="43.2114007" lon="11.5055986"><ele>164.33333333333331</ele><time>2026-04-26T08:05:32.186Z</time></trkpt><trkpt lat="43.2113616" lon="11.5055107"><ele>164.16666666666666</ele><time>2026-04-26T08:05:33.187Z</time></trkpt><trkpt lat="43.2113116" lon="11.505433"><ele>164.0</ele><time>2026-04-26T08:05:34.187Z</time></trkpt><trkpt lat="43.2112497" lon="11.5053701"><ele>164.0</ele><time>2026-04-26T08:05:35.175Z</time></trkpt><trkpt lat="43.2111738" lon="11.5053306"><ele>164.0</ele><time>2026-04-26T08:05:36.179Z</time></trkpt><trkpt lat="43.2110841" lon="11.5053251"><ele>164.0</ele><time>2026-04-26T08:05:37.178Z</time></trkpt><trkpt lat="43.2109793" lon="11.5053497"><ele>164.0</ele><time>2026-04-26T08:05:38.179Z</time></trkpt><trkpt lat="43.2108632" lon="11.5053906"><ele>164.0</ele><time>2026-04-26T08:05:39.174Z</time></trkpt><trkpt lat="43.210757" lon="11.5054194"><ele>164.39999999999998</ele><time>2026-04-26T08:05:40.184Z</time></trkpt><trkpt lat="43.2106574" lon="11.505434"><ele>164.8</ele><time>2026-04-26T08:05:41.174Z</time></trkpt><trkpt lat="43.2105593" lon="11.5054342"><ele>165.2</ele><time>2026-04-26T08:05:42.171Z</time></trkpt><trkpt lat="43.2104651" lon="11.5054197"><ele>165.60000000000002</ele><time>2026-04-26T08:05:43.185Z</time></trkpt><trkpt lat="43.2103767" lon="11.5053992"><ele>166.0</ele><time>2026-04-26T08:05:44.175Z</time></trkpt><trkpt lat="43.2102933" lon="11.5053759"><ele>168.20000000000002</ele><time>2026-04-26T08:05:45.189Z</time></trkpt><trkpt lat="43.2102134" lon="11.5053432"><ele>170.4</ele><time>2026-04-26T08:05:46.175Z</time></trkpt><trkpt lat="43.2101344" lon="11.5052935"><ele>172.6</ele><time>2026-04-26T08:05:47.18Z</time></trkpt><trkpt lat="43.2100562" lon="11.5052279"><ele>174.8</ele><time>2026-04-26T08:05:48.183Z</time></trkpt><trkpt lat="43.2099794" lon="11.505149"><ele>177.0</ele><time>2026-04-26T08:05:49.179Z</time></trkpt><trkpt lat="43.2098999" lon="11.5050676"><ele>178.6</ele><time>2026-04-26T08:05:50.19Z</time></trkpt><trkpt lat="43.2098203" lon="11.5049948"><ele>180.2</ele><time>2026-04-26T08:05:51.191Z</time></trkpt><trkpt lat="43.2097343" lon="11.5049321"><ele>181.8</ele><time>2026-04-26T08:05:52.176Z</time></trkpt><trkpt lat="43.2096428" lon="11.5048915"><ele>183.4</ele><time>2026-04-26T08:05:53.172Z</time></trkpt><trkpt lat="43.2095502" lon="11.5048779"><ele>185.0</ele><time>2026-04-26T08:05:54.186Z</time></trkpt><trkpt lat="43.2094599" lon="11.5048912"><ele>185.0</ele><time>2026-04-26T08:05:55.186Z</time></trkpt><trkpt lat="43.2093725" lon="11.5049267"><ele>185.0</ele><time>2026-04-26T08:05:56.18Z</time></trkpt><trkpt lat="43.2092911" lon="11.5049792"><ele>185.0</ele><time>2026-04-26T08:05:57.191Z</time></trkpt><trkpt lat="43.209211" lon="11.505031"><ele>185.0</ele><time>2026-04-26T08:05:58.173Z</time></trkpt><trkpt lat="43.2091321" lon="11.5050829"><ele>185.0</ele><time>2026-04-26T08:05:59.188Z</time></trkpt><trkpt lat="43.209048" lon="11.5051163"><ele>185.0</ele><time>2026-04-26T08:06:00.185Z</time></trkpt><trkpt lat="43.2089661" lon="11.5051261"><ele>186.16666666666666</ele><time>2026-04-26T08:06:01.171Z</time></trkpt><trkpt lat="43.2088876" lon="11.5051212"><ele>187.33333333333331</ele><time>2026-04-26T08:06:02.178Z</time></trkpt><trkpt lat="43.2088107" lon="11.5051161"><ele>188.5</ele><time>2026-04-26T08:06:03.177Z</time></trkpt><trkpt lat="43.2087355" lon="11.505099"><ele>189.66666666666666</ele><time>2026-04-26T08:06:04.175Z</time></trkpt><trkpt lat="43.2086592" lon="11.5050858"><ele>190.83333333333334</ele><time>2026-04-26T08:06:05.188Z</time></trkpt><trkpt lat="43.2085801" lon="11.5050754"><ele>192.0</ele><time>2026-04-26T08:06:06.181Z</time></trkpt><trkpt lat="43.2084966" lon="11.5050626"><ele>192.0</ele><time>2026-04-26T08:06:07.177Z</time></trkpt><trkpt lat="43.2084105" lon="11.5050338"><ele>192.0</ele><time>2026-04-26T08:06:08.178Z</time></trkpt><trkpt lat="43.20832" lon="11.5049882"><ele>192.0</ele><time>2026-04-26T08:06:09.187Z</time></trkpt><trkpt lat="43.2082256" lon="11.5049353"><ele>192.0</ele><time>2026-04-26T08:06:10.189Z</time></trkpt><trkpt lat="43.2081291" lon="11.5048826"><ele>192.0</ele><time>2026-04-26T08:06:11.178Z</time></trkpt><trkpt lat="43.2080363" lon="11.5048372"><ele>192.0</ele><time>2026-04-26T08:06:12.187Z</time></trkpt><trkpt lat="43.207959" lon="11.5048019"><ele>192.0</ele><time>2026-04-26T08:06:13.171Z</time></trkpt><trkpt lat="43.2078938" lon="11.5047697"><ele>192.0</ele><time>2026-04-26T08:06:14.186Z</time></trkpt><trkpt lat="43.2078027" lon="11.5046986"><ele>192.0</ele><time>2026-04-26T08:06:16.185Z</time></trkpt><trkpt lat="43.2077849" lon="11.5046084"><ele>192.0</ele><time>2026-04-26T08:06:18.186Z</time></trkpt><trkpt lat="43.2078498" lon="11.5045588"><ele>192.0</ele><time>2026-04-26T08:06:20.176Z</time></trkpt><trkpt lat="43.2079711" lon="11.5045675"><ele>192.0</ele><time>2026-04-26T08:06:22.185Z</time></trkpt><trkpt lat="43.2080461" lon="11.5045827"><ele>192.0</ele><time>2026-04-26T08:06:23.189Z</time></trkpt><trkpt lat="43.2081238" lon="11.5045977"><ele>192.0</ele><time>2026-04-26T08:06:24.178Z</time></trkpt><trkpt lat="43.2082227" lon="11.5045945"><ele>192.0</ele><time>2026-04-26T08:06:25.19Z</time></trkpt><trkpt lat="43.2083225" lon="11.5045872"><ele>192.0</ele><time>2026-04-26T08:06:26.171Z</time></trkpt><trkpt lat="43.2084193" lon="11.5045731"><ele>194.66666666666666</ele><time>2026-04-26T08:06:27.169Z</time></trkpt><trkpt lat="43.2085093" lon="11.5045458"><ele>197.33333333333331</ele><time>2026-04-26T08:06:28.177Z</time></trkpt><trkpt lat="43.2085906" lon="11.5045067"><ele>200.0</ele><time>2026-04-26T08:06:29.175Z</time></trkpt><trkpt lat="43.2086644" lon="11.5044539"><ele>202.66666666666666</ele><time>2026-04-26T08:06:30.188Z</time></trkpt><trkpt lat="43.2087388" lon="11.5043988"><ele>205.33333333333331</ele><time>2026-04-26T08:06:31.189Z</time></trkpt><trkpt lat="43.2088022" lon="11.5043132"><ele>208.0</ele><time>2026-04-26T08:06:32.184Z</time></trkpt><trkpt lat="43.2088642" lon="11.5042131"><ele>208.0</ele><time>2026-04-26T08:06:33.18Z</time></trkpt><trkpt lat="43.208928" lon="11.5040996"><ele>208.0</ele><time>2026-04-26T08:06:34.186Z</time></trkpt><trkpt lat="43.2089916" lon="11.503984"><ele>208.0</ele><time>2026-04-26T08:06:35.17Z</time></trkpt><trkpt lat="43.2090554" lon="11.5038646"><ele>208.0</ele><time>2026-04-26T08:06:36.174Z</time></trkpt><trkpt lat="43.209117" lon="11.5037476"><ele>208.0</ele><time>2026-04-26T08:06:37.174Z</time></trkpt><trkpt lat="43.2091785" lon="11.5036342"><ele>210.2</ele><time>2026-04-26T08:06:38.188Z</time></trkpt><trkpt lat="43.2092383" lon="11.5035244"><ele>212.4</ele><time>2026-04-26T08:06:39.174Z</time></trkpt><trkpt lat="43.2092995" lon="11.5034246"><ele>214.59999999999997</ele><time>2026-04-26T08:06:40.191Z</time></trkpt><trkpt lat="43.2093623" lon="11.5033327"><ele>216.79999999999998</ele><time>2026-04-26T08:06:41.188Z</time></trkpt><trkpt lat="43.2094275" lon="11.5032493"><ele>219.0</ele><time>2026-04-26T08:06:42.183Z</time></trkpt><trkpt lat="43.2094951" lon="11.5031717"><ele>219.0</ele><time>2026-04-26T08:06:43.174Z</time></trkpt><trkpt lat="43.2095683" lon="11.5030935"><ele>218.99999999999997</ele><time>2026-04-26T08:06:44.168Z</time></trkpt><trkpt lat="43.2096418" lon="11.5030141"><ele>218.99999999999997</ele><time>2026-04-26T08:06:45.187Z</time></trkpt><trkpt lat="43.2097156" lon="11.5029355"><ele>219.0</ele><time>2026-04-26T08:06:46.186Z</time></trkpt><trkpt lat="43.2097876" lon="11.5028582"><ele>219.0</ele><time>2026-04-26T08:06:47.185Z</time></trkpt><trkpt lat="43.2098602" lon="11.5027844"><ele>220.83333333333334</ele><time>2026-04-26T08:06:48.178Z</time></trkpt><trkpt lat="43.2099326" lon="11.5027111"><ele>222.66666666666669</ele><time>2026-04-26T08:06:49.16Z</time></trkpt><trkpt lat="43.2100039" lon="11.5026395"><ele>224.5</ele><time>2026-04-26T08:06:50.162Z</time></trkpt><trkpt lat="43.2100738" lon="11.5025685"><ele>226.33333333333334</ele><time>2026-04-26T08:06:51.168Z</time></trkpt><trkpt lat="43.2101441" lon="11.5024984"><ele>228.16666666666669</ele><time>2026-04-26T08:06:52.18Z</time></trkpt><trkpt lat="43.2102131" lon="11.5024367"><ele>230.0</ele><time>2026-04-26T08:06:53.17Z</time></trkpt><trkpt lat="43.210277" lon="11.50238"><ele>230.00000000000003</ele><time>2026-04-26T08:06:54.167Z</time></trkpt><trkpt lat="43.2103339" lon="11.5023289"><ele>230.0</ele><time>2026-04-26T08:06:55.185Z</time></trkpt><trkpt lat="43.210374" lon="11.5022571"><ele>230.0</ele><time>2026-04-26T08:06:56.173Z</time></trkpt><trkpt lat="43.2104109" lon="11.5021664"><ele>230.0</ele><time>2026-04-26T08:06:57.173Z</time></trkpt><trkpt lat="43.2104495" lon="11.502065"><ele>230.00000000000003</ele><time>2026-04-26T08:06:58.18Z</time></trkpt><trkpt lat="43.2104873" lon="11.5019504"><ele>230.0</ele><time>2026-04-26T08:06:59.182Z</time></trkpt><trkpt lat="43.2105214" lon="11.5018325"><ele>230.0</ele><time>2026-04-26T08:07:00.186Z</time></trkpt><trkpt lat="43.2105589" lon="11.5017162"><ele>230.0</ele><time>2026-04-26T08:07:01.165Z</time></trkpt><trkpt lat="43.2106037" lon="11.501606"><ele>230.0</ele><time>2026-04-26T08:07:02.173Z</time></trkpt><trkpt lat="43.2106599" lon="11.5015038"><ele>230.0</ele><time>2026-04-26T08:07:03.164Z</time></trkpt><trkpt lat="43.2107276" lon="11.5014121"><ele>230.0</ele><time>2026-04-26T08:07:04.164Z</time></trkpt><trkpt lat="43.2108022" lon="11.5013261"><ele>230.0</ele><time>2026-04-26T08:07:05.177Z</time></trkpt><trkpt lat="43.2108795" lon="11.5012514"><ele>230.0</ele><time>2026-04-26T08:07:06.185Z</time></trkpt><trkpt lat="43.2109625" lon="11.501188"><ele>230.0</ele><time>2026-04-26T08:07:07.171Z</time></trkpt><trkpt lat="43.2110467" lon="11.5011382"><ele>230.0</ele><time>2026-04-26T08:07:08.188Z</time></trkpt><trkpt lat="43.2111296" lon="11.5010959"><ele>230.0</ele><time>2026-04-26T08:07:09.186Z</time></trkpt><trkpt lat="43.2112069" lon="11.5010486"><ele>228.16666666666669</ele><time>2026-04-26T08:07:10.172Z</time></trkpt><trkpt lat="43.2112786" lon="11.500987"><ele>226.33333333333334</ele><time>2026-04-26T08:07:11.183Z</time></trkpt><trkpt lat="43.2113395" lon="11.5009097"><ele>224.5</ele><time>2026-04-26T08:07:12.182Z</time></trkpt><trkpt lat="43.2113872" lon="11.5008151"><ele>222.66666666666669</ele><time>2026-04-26T08:07:13.182Z</time></trkpt><trkpt lat="43.2114214" lon="11.5006994"><ele>220.83333333333334</ele><time>2026-04-26T08:07:14.181Z</time></trkpt><trkpt lat="43.2114497" lon="11.5005717"><ele>219.0</ele><time>2026-04-26T08:07:15.18Z</time></trkpt><trkpt lat="43.2114748" lon="11.5004436"><ele>221.0</ele><time>2026-04-26T08:07:16.169Z</time></trkpt><trkpt lat="43.2114982" lon="11.5003192"><ele>223.0</ele><time>2026-04-26T08:07:17.181Z</time></trkpt><trkpt lat="43.2115251" lon="11.5002002"><ele>225.0</ele><time>2026-04-26T08:07:18.157Z</time></trkpt><trkpt lat="43.2115534" lon="11.5000869"><ele>227.0</ele><time>2026-04-26T08:07:19.17Z</time></trkpt><trkpt lat="43.2115849" lon="11.4999757"><ele>229.0</ele><time>2026-04-26T08:07:20.174Z</time></trkpt><trkpt lat="43.2116164" lon="11.4998667"><ele>231.0</ele><time>2026-04-26T08:07:21.174Z</time></trkpt><trkpt lat="43.2116692" lon="11.4997788"><ele>231.0</ele><time>2026-04-26T08:07:22.177Z</time></trkpt><trkpt lat="43.2117175" lon="11.4996874"><ele>231.0</ele><time>2026-04-26T08:07:23.168Z</time></trkpt><trkpt lat="43.2118055" lon="11.4996393"><ele>231.0</ele><time>2026-04-26T08:07:24.168Z</time></trkpt><trkpt lat="43.2119039" lon="11.4996078"><ele>231.0</ele><time>2026-04-26T08:07:25.174Z</time></trkpt><trkpt lat="43.2119875" lon="11.4995763"><ele>231.0</ele><time>2026-04-26T08:07:26.176Z</time></trkpt><trkpt lat="43.2120559" lon="11.4995335"><ele>231.0</ele><time>2026-04-26T08:07:27.187Z</time></trkpt><trkpt lat="43.2121124" lon="11.4994717"><ele>233.16666666666666</ele><time>2026-04-26T08:07:28.189Z</time></trkpt><trkpt lat="43.212154" lon="11.4993882"><ele>235.33333333333331</ele><time>2026-04-26T08:07:29.183Z</time></trkpt><trkpt lat="43.2121944" lon="11.4993041"><ele>237.5</ele><time>2026-04-26T08:07:30.187Z</time></trkpt><trkpt lat="43.2122079" lon="11.4991999"><ele>239.66666666666666</ele><time>2026-04-26T08:07:31.185Z</time></trkpt><trkpt lat="43.2122042" lon="11.4990812"><ele>241.83333333333331</ele><time>2026-04-26T08:07:32.181Z</time></trkpt><trkpt lat="43.2121836" lon="11.4989646"><ele>244.0</ele><time>2026-04-26T08:07:33.185Z</time></trkpt><trkpt lat="43.2121463" lon="11.4988529"><ele>243.99999999999997</ele><time>2026-04-26T08:07:34.181Z</time></trkpt><trkpt lat="43.2120953" lon="11.4987523"><ele>244.0</ele><time>2026-04-26T08:07:35.183Z</time></trkpt><trkpt lat="43.2120425" lon="11.4986729"><ele>244.0</ele><time>2026-04-26T08:07:36.191Z</time></trkpt><trkpt lat="43.2119893" lon="11.4986133"><ele>244.0</ele><time>2026-04-26T08:07:37.168Z</time></trkpt><trkpt lat="43.2118831" lon="11.4985385"><ele>243.99999999999997</ele><time>2026-04-26T08:07:39.169Z</time></trkpt><trkpt lat="43.2118127" lon="11.4985461"><ele>244.0</ele><time>2026-04-26T08:07:40.165Z</time></trkpt><trkpt lat="43.2117369" lon="11.4985695"><ele>244.99999999999997</ele><time>2026-04-26T08:07:41.178Z</time></trkpt><trkpt lat="43.2116628" lon="11.4985962"><ele>246.0</ele><time>2026-04-26T08:07:42.183Z</time></trkpt><trkpt lat="43.2115932" lon="11.498618"><ele>247.0</ele><time>2026-04-26T08:07:43.177Z</time></trkpt><trkpt lat="43.2114803" lon="11.4986424"><ele>248.0</ele><time>2026-04-26T08:07:45.182Z</time></trkpt><trkpt lat="43.2113879" lon="11.4986633"><ele>248.99999999999997</ele><time>2026-04-26T08:07:47.169Z</time></trkpt><trkpt lat="43.2113087" lon="11.498668"><ele>250.0</ele><time>2026-04-26T08:07:49.168Z</time></trkpt><trkpt lat="43.2112411" lon="11.4986571"><ele>251.49999999999997</ele><time>2026-04-26T08:07:52.172Z</time></trkpt><trkpt lat="43.2111616" lon="11.4986265"><ele>253.0</ele><time>2026-04-26T08:14:39.166Z</time></trkpt><trkpt lat="43.2110828" lon="11.4985563"><ele>254.5</ele><time>2026-04-26T08:14:43.18Z</time></trkpt><trkpt lat="43.2110261" lon="11.4984984"><ele>256.0</ele><time>2026-04-26T08:14:45.196Z</time></trkpt><trkpt lat="43.2109746" lon="11.4984065"><ele>257.5</ele><time>2026-04-26T08:14:47.189Z</time></trkpt><trkpt lat="43.2109302" lon="11.4982806"><ele>259.0</ele><time>2026-04-26T08:14:49.186Z</time></trkpt><trkpt lat="43.210906" lon="11.4981299"><ele>259.0</ele><time>2026-04-26T08:14:51.192Z</time></trkpt><trkpt lat="43.2108822" lon="11.4979761"><ele>259.0</ele><time>2026-04-26T08:14:53.19Z</time></trkpt><trkpt lat="43.2108581" lon="11.4978148"><ele>259.0</ele><time>2026-04-26T08:14:55.161Z</time></trkpt><trkpt lat="43.2108161" lon="11.4976513"><ele>259.0</ele><time>2026-04-26T08:14:57.188Z</time></trkpt><trkpt lat="43.2107861" lon="11.4975741"><ele>259.0</ele><time>2026-04-26T08:14:58.172Z</time></trkpt><trkpt lat="43.2107484" lon="11.4975027"><ele>259.57142857142856</ele><time>2026-04-26T08:14:59.173Z</time></trkpt><trkpt lat="43.2107034" lon="11.4974405"><ele>260.1428571428571</ele><time>2026-04-26T08:15:00.188Z</time></trkpt><trkpt lat="43.2106522" lon="11.4973849"><ele>260.7142857142857</ele><time>2026-04-26T08:15:01.182Z</time></trkpt><trkpt lat="43.2105955" lon="11.4973313"><ele>261.2857142857143</ele><time>2026-04-26T08:15:02.172Z</time></trkpt><trkpt lat="43.2105315" lon="11.4972768"><ele>261.85714285714283</ele><time>2026-04-26T08:15:03.178Z</time></trkpt><trkpt lat="43.2104641" lon="11.497222"><ele>262.42857142857144</ele><time>2026-04-26T08:15:04.181Z</time></trkpt><trkpt lat="43.2103973" lon="11.4971688"><ele>263.0</ele><time>2026-04-26T08:15:05.171Z</time></trkpt><trkpt lat="43.2103311" lon="11.4971171"><ele>263.33333333333337</ele><time>2026-04-26T08:15:06.178Z</time></trkpt><trkpt lat="43.2102657" lon="11.4970653"><ele>263.6666666666667</ele><time>2026-04-26T08:15:07.166Z</time></trkpt><trkpt lat="43.210199" lon="11.4970143"><ele>264.0</ele><time>2026-04-26T08:15:08.187Z</time></trkpt><trkpt lat="43.2101307" lon="11.4969654"><ele>264.3333333333333</ele><time>2026-04-26T08:15:09.19Z</time></trkpt><trkpt lat="43.2100598" lon="11.4969125"><ele>264.66666666666663</ele><time>2026-04-26T08:15:10.177Z</time></trkpt><trkpt lat="43.2099854" lon="11.4968542"><ele>265.0</ele><time>2026-04-26T08:15:11.186Z</time></trkpt><trkpt lat="43.2099082" lon="11.4967897"><ele>265.0</ele><time>2026-04-26T08:15:12.19Z</time></trkpt><trkpt lat="43.209829" lon="11.4967157"><ele>265.0</ele><time>2026-04-26T08:15:13.178Z</time></trkpt><trkpt lat="43.2097532" lon="11.4966254"><ele>265.0</ele><time>2026-04-26T08:15:14.193Z</time></trkpt><trkpt lat="43.2096848" lon="11.4965206"><ele>265.0</ele><time>2026-04-26T08:15:15.189Z</time></trkpt><trkpt lat="43.2096261" lon="11.4964089"><ele>265.0</ele><time>2026-04-26T08:15:16.179Z</time></trkpt><trkpt lat="43.2095785" lon="11.496301"><ele>264.71428571428567</ele><time>2026-04-26T08:15:17.167Z</time></trkpt><trkpt lat="43.2095431" lon="11.4962033"><ele>264.42857142857144</ele><time>2026-04-26T08:15:18.173Z</time></trkpt><trkpt lat="43.2095145" lon="11.4961151"><ele>264.1428571428571</ele><time>2026-04-26T08:15:19.183Z</time></trkpt><trkpt lat="43.2094894" lon="11.4960336"><ele>263.85714285714283</ele><time>2026-04-26T08:15:20.182Z</time></trkpt><trkpt lat="43.2094639" lon="11.4959522"><ele>263.57142857142856</ele><time>2026-04-26T08:15:21.173Z</time></trkpt><trkpt lat="43.2094368" lon="11.4958698"><ele>263.2857142857143</ele><time>2026-04-26T08:15:22.179Z</time></trkpt><trkpt lat="43.2094074" lon="11.4957851"><ele>263.0</ele><time>2026-04-26T08:15:23.172Z</time></trkpt><trkpt lat="43.2093766" lon="11.4956992"><ele>263.0</ele><time>2026-04-26T08:15:24.184Z</time></trkpt><trkpt lat="43.2093459" lon="11.4956142"><ele>263.0</ele><time>2026-04-26T08:15:25.185Z</time></trkpt><trkpt lat="43.2093148" lon="11.4955317"><ele>263.0</ele><time>2026-04-26T08:15:26.18Z</time></trkpt><trkpt lat="43.2092871" lon="11.4954532"><ele>263.0</ele><time>2026-04-26T08:15:27.183Z</time></trkpt><trkpt lat="43.2092635" lon="11.4953717"><ele>263.0</ele><time>2026-04-26T08:15:28.176Z</time></trkpt><trkpt lat="43.2092443" lon="11.4952836"><ele>263.0</ele><time>2026-04-26T08:15:29.182Z</time></trkpt><trkpt lat="43.2092323" lon="11.4951867"><ele>263.0</ele><time>2026-04-26T08:15:30.165Z</time></trkpt><trkpt lat="43.2092225" lon="11.4950782"><ele>262.6666666666667</ele><time>2026-04-26T08:15:31.182Z</time></trkpt><trkpt lat="43.2092085" lon="11.4949636"><ele>262.33333333333337</ele><time>2026-04-26T08:15:32.179Z</time></trkpt><trkpt lat="43.2091904" lon="11.4948442"><ele>262.0</ele><time>2026-04-26T08:15:33.191Z</time></trkpt><trkpt lat="43.2091677" lon="11.4947248"><ele>261.6666666666667</ele><time>2026-04-26T08:15:34.182Z</time></trkpt><trkpt lat="43.2091416" lon="11.4946046"><ele>261.3333333333333</ele><time>2026-04-26T08:15:35.176Z</time></trkpt><trkpt lat="43.2091113" lon="11.4944817"><ele>261.0</ele><time>2026-04-26T08:15:36.192Z</time></trkpt><trkpt lat="43.2090775" lon="11.49436"><ele>260.6666666666667</ele><time>2026-04-26T08:15:37.188Z</time></trkpt><trkpt lat="43.2090411" lon="11.494244"><ele>260.3333333333333</ele><time>2026-04-26T08:15:38.179Z</time></trkpt><trkpt lat="43.2090029" lon="11.4941336"><ele>260.0</ele><time>2026-04-26T08:15:39.176Z</time></trkpt><trkpt lat="43.2089635" lon="11.4940277"><ele>259.66666666666663</ele><time>2026-04-26T08:15:40.169Z</time></trkpt><trkpt lat="43.2089198" lon="11.4939248"><ele>259.3333333333333</ele><time>2026-04-26T08:15:41.19Z</time></trkpt><trkpt lat="43.2088699" lon="11.4938236"><ele>259.0</ele><time>2026-04-26T08:15:42.176Z</time></trkpt><trkpt lat="43.2088146" lon="11.4937268"><ele>257.2</ele><time>2026-04-26T08:15:43.186Z</time></trkpt><trkpt lat="43.2087535" lon="11.4936382"><ele>255.39999999999998</ele><time>2026-04-26T08:15:44.188Z</time></trkpt><trkpt lat="43.2086835" lon="11.4935596"><ele>253.6</ele><time>2026-04-26T08:15:45.187Z</time></trkpt><trkpt lat="43.2086167" lon="11.4934763"><ele>251.8</ele><time>2026-04-26T08:15:46.187Z</time></trkpt><trkpt lat="43.2085259" lon="11.4934079"><ele>250.0</ele><time>2026-04-26T08:15:47.188Z</time></trkpt><trkpt lat="43.2084316" lon="11.4933333"><ele>250.0</ele><time>2026-04-26T08:15:48.186Z</time></trkpt><trkpt lat="43.2083351" lon="11.4932537"><ele>250.0</ele><time>2026-04-26T08:15:49.174Z</time></trkpt><trkpt lat="43.2082393" lon="11.4931701"><ele>250.0</ele><time>2026-04-26T08:15:50.189Z</time></trkpt><trkpt lat="43.2081448" lon="11.4930835"><ele>250.0</ele><time>2026-04-26T08:15:51.166Z</time></trkpt><trkpt lat="43.2080547" lon="11.4929944"><ele>249.6</ele><time>2026-04-26T08:15:52.184Z</time></trkpt><trkpt lat="43.207964" lon="11.4929053"><ele>249.2</ele><time>2026-04-26T08:15:53.171Z</time></trkpt><trkpt lat="43.2078729" lon="11.4928119"><ele>248.8</ele><time>2026-04-26T08:15:54.171Z</time></trkpt><trkpt lat="43.2077817" lon="11.4927218"><ele>248.4</ele><time>2026-04-26T08:15:55.184Z</time></trkpt><trkpt lat="43.2076999" lon="11.492634"><ele>248.0</ele><time>2026-04-26T08:15:56.183Z</time></trkpt><trkpt lat="43.2076257" lon="11.4925506"><ele>248.00000000000003</ele><time>2026-04-26T08:15:57.181Z</time></trkpt><trkpt lat="43.207555" lon="11.4924733"><ele>248.0</ele><time>2026-04-26T08:15:58.178Z</time></trkpt><trkpt lat="43.2074866" lon="11.4924003"><ele>248.0</ele><time>2026-04-26T08:15:59.177Z</time></trkpt><trkpt lat="43.2074187" lon="11.4923306"><ele>248.0</ele><time>2026-04-26T08:16:00.195Z</time></trkpt><trkpt lat="43.2073527" lon="11.4922637"><ele>248.00000000000003</ele><time>2026-04-26T08:16:01.173Z</time></trkpt><trkpt lat="43.2072834" lon="11.4921988"><ele>248.0</ele><time>2026-04-26T08:16:02.172Z</time></trkpt><trkpt lat="43.2072107" lon="11.4921321"><ele>249.0</ele><time>2026-04-26T08:16:03.182Z</time></trkpt><trkpt lat="43.2071391" lon="11.492059"><ele>250.0</ele><time>2026-04-26T08:16:04.174Z</time></trkpt><trkpt lat="43.2070697" lon="11.4919722"><ele>251.0</ele><time>2026-04-26T08:16:05.172Z</time></trkpt><trkpt lat="43.2070051" lon="11.4918791"><ele>252.0</ele><time>2026-04-26T08:16:06.167Z</time></trkpt><trkpt lat="43.2069465" lon="11.4917767"><ele>253.0</ele><time>2026-04-26T08:16:07.179Z</time></trkpt><trkpt lat="43.2068918" lon="11.4916682"><ele>253.0</ele><time>2026-04-26T08:16:08.189Z</time></trkpt><trkpt lat="43.2068406" lon="11.4915543"><ele>253.0</ele><time>2026-04-26T08:16:09.167Z</time></trkpt><trkpt lat="43.2067915" lon="11.4914405"><ele>253.0</ele><time>2026-04-26T08:16:10.188Z</time></trkpt><trkpt lat="43.2067425" lon="11.4913308"><ele>253.0</ele><time>2026-04-26T08:16:11.187Z</time></trkpt><trkpt lat="43.2066936" lon="11.4912286"><ele>253.0</ele><time>2026-04-26T08:16:12.178Z</time></trkpt><trkpt lat="43.2066392" lon="11.4911343"><ele>253.66666666666666</ele><time>2026-04-26T08:16:13.182Z</time></trkpt><trkpt lat="43.2065772" lon="11.491052"><ele>254.33333333333331</ele><time>2026-04-26T08:16:14.191Z</time></trkpt><trkpt lat="43.206506" lon="11.4909851"><ele>255.0</ele><time>2026-04-26T08:16:15.188Z</time></trkpt><trkpt lat="43.2064301" lon="11.4909358"><ele>255.66666666666669</ele><time>2026-04-26T08:16:16.18Z</time></trkpt><trkpt lat="43.2063532" lon="11.4909015"><ele>256.33333333333337</ele><time>2026-04-26T08:16:17.192Z</time></trkpt><trkpt lat="43.2062725" lon="11.4908788"><ele>257.0</ele><time>2026-04-26T08:16:18.189Z</time></trkpt><trkpt lat="43.2061866" lon="11.4908644"><ele>257.1666666666667</ele><time>2026-04-26T08:16:19.18Z</time></trkpt><trkpt lat="43.2060975" lon="11.4908562"><ele>257.33333333333337</ele><time>2026-04-26T08:16:20.18Z</time></trkpt><trkpt lat="43.2060086" lon="11.4908529"><ele>257.5</ele><time>2026-04-26T08:16:21.174Z</time></trkpt><trkpt lat="43.2059212" lon="11.4908606"><ele>257.6666666666667</ele><time>2026-04-26T08:16:22.171Z</time></trkpt><trkpt lat="43.2058353" lon="11.490873"><ele>257.8333333333333</ele><time>2026-04-26T08:16:23.191Z</time></trkpt><trkpt lat="43.2057494" lon="11.4908824"><ele>258.0</ele><time>2026-04-26T08:16:24.174Z</time></trkpt><trkpt lat="43.2056629" lon="11.4908829"><ele>255.83333333333334</ele><time>2026-04-26T08:16:25.181Z</time></trkpt><trkpt lat="43.2055762" lon="11.4908755"><ele>253.66666666666669</ele><time>2026-04-26T08:16:26.171Z</time></trkpt><trkpt lat="43.2054901" lon="11.4908627"><ele>251.5</ele><time>2026-04-26T08:16:27.172Z</time></trkpt><trkpt lat="43.2054055" lon="11.4908388"><ele>249.33333333333334</ele><time>2026-04-26T08:16:28.175Z</time></trkpt><trkpt lat="43.2053249" lon="11.4907995"><ele>247.16666666666669</ele><time>2026-04-26T08:16:29.185Z</time></trkpt><trkpt lat="43.2052428" lon="11.490759"><ele>245.0</ele><time>2026-04-26T08:16:30.177Z</time></trkpt><trkpt lat="43.2051674" lon="11.4906841"><ele>245.0</ele><time>2026-04-26T08:16:31.184Z</time></trkpt><trkpt lat="43.2050956" lon="11.4905967"><ele>245.0</ele><time>2026-04-26T08:16:32.17Z</time></trkpt><trkpt lat="43.2050226" lon="11.4905018"><ele>245.0</ele><time>2026-04-26T08:16:33.194Z</time></trkpt><trkpt lat="43.2049489" lon="11.4904017"><ele>245.0</ele><time>2026-04-26T08:16:34.166Z</time></trkpt><trkpt lat="43.2048835" lon="11.4902922"><ele>245.0</ele><time>2026-04-26T08:16:35.173Z</time></trkpt><trkpt lat="43.2048258" lon="11.4901734"><ele>245.6</ele><time>2026-04-26T08:16:36.167Z</time></trkpt><trkpt lat="43.2047764" lon="11.4900472"><ele>246.2</ele><time>2026-04-26T08:16:37.172Z</time></trkpt><trkpt lat="43.2047347" lon="11.4899171"><ele>246.8</ele><time>2026-04-26T08:16:38.18Z</time></trkpt><trkpt lat="43.204695" lon="11.4897842"><ele>247.4</ele><time>2026-04-26T08:16:39.179Z</time></trkpt><trkpt lat="43.2046536" lon="11.4896513"><ele>248.0</ele><time>2026-04-26T08:16:40.184Z</time></trkpt><trkpt lat="43.2046117" lon="11.4895192"><ele>248.0</ele><time>2026-04-26T08:16:41.183Z</time></trkpt><trkpt lat="43.2045693" lon="11.4893879"><ele>248.0</ele><time>2026-04-26T08:16:42.167Z</time></trkpt><trkpt lat="43.2045221" lon="11.4892576"><ele>248.0</ele><time>2026-04-26T08:16:43.187Z</time></trkpt><trkpt lat="43.2044677" lon="11.4891318"><ele>248.0</ele><time>2026-04-26T08:16:44.189Z</time></trkpt><trkpt lat="43.2044043" lon="11.4890127"><ele>248.0</ele><time>2026-04-26T08:16:45.177Z</time></trkpt><trkpt lat="43.2043336" lon="11.4888998"><ele>248.0</ele><time>2026-04-26T08:16:46.194Z</time></trkpt><trkpt lat="43.2042578" lon="11.4887923"><ele>248.0</ele><time>2026-04-26T08:16:47.173Z</time></trkpt><trkpt lat="43.2041817" lon="11.4886843"><ele>248.0</ele><time>2026-04-26T08:16:48.181Z</time></trkpt><trkpt lat="43.2041066" lon="11.4885743"><ele>248.0</ele><time>2026-04-26T08:16:49.167Z</time></trkpt><trkpt lat="43.204034" lon="11.4884574"><ele>248.0</ele><time>2026-04-26T08:16:50.181Z</time></trkpt><trkpt lat="43.2039648" lon="11.488335"><ele>248.2</ele><time>2026-04-26T08:16:51.176Z</time></trkpt><trkpt lat="43.2038981" lon="11.4882123"><ele>248.4</ele><time>2026-04-26T08:16:52.186Z</time></trkpt><trkpt lat="43.2038352" lon="11.4880943"><ele>248.59999999999997</ele><time>2026-04-26T08:16:53.183Z</time></trkpt><trkpt lat="43.2037767" lon="11.4879837"><ele>248.79999999999998</ele><time>2026-04-26T08:16:54.179Z</time></trkpt><trkpt lat="43.2037209" lon="11.48788"><ele>249.0</ele><time>2026-04-26T08:16:55.185Z</time></trkpt><trkpt lat="43.2036666" lon="11.4877832"><ele>249.0</ele><time>2026-04-26T08:16:56.179Z</time></trkpt><trkpt lat="43.2036081" lon="11.4876903"><ele>248.99999999999997</ele><time>2026-04-26T08:16:57.179Z</time></trkpt><trkpt lat="43.2035412" lon="11.4876006"><ele>248.99999999999997</ele><time>2026-04-26T08:16:58.179Z</time></trkpt><trkpt lat="43.2034736" lon="11.4875086"><ele>249.0</ele><time>2026-04-26T08:16:59.173Z</time></trkpt><trkpt lat="43.2034026" lon="11.4874165"><ele>249.0</ele><time>2026-04-26T08:17:00.179Z</time></trkpt><trkpt lat="43.2033298" lon="11.4873286"><ele>249.0</ele><time>2026-04-26T08:17:01.187Z</time></trkpt><trkpt lat="43.2032557" lon="11.4872415"><ele>248.99999999999997</ele><time>2026-04-26T08:17:02.186Z</time></trkpt><trkpt lat="43.203184" lon="11.4871468"><ele>248.99999999999997</ele><time>2026-04-26T08:17:03.185Z</time></trkpt><trkpt lat="43.2031117" lon="11.4870542"><ele>249.0</ele><time>2026-04-26T08:17:04.183Z</time></trkpt><trkpt lat="43.2030374" lon="11.4869611"><ele>249.0</ele><time>2026-04-26T08:17:05.166Z</time></trkpt><trkpt lat="43.2029616" lon="11.4868696"><ele>248.79999999999998</ele><time>2026-04-26T08:17:06.179Z</time></trkpt><trkpt lat="43.2028861" lon="11.4867771"><ele>248.59999999999997</ele><time>2026-04-26T08:17:07.177Z</time></trkpt><trkpt lat="43.2028177" lon="11.4866914"><ele>248.4</ele><time>2026-04-26T08:17:08.189Z</time></trkpt><trkpt lat="43.2027494" lon="11.4866091"><ele>248.2</ele><time>2026-04-26T08:17:09.177Z</time></trkpt><trkpt lat="43.202688" lon="11.4865237"><ele>248.0</ele><time>2026-04-26T08:17:10.178Z</time></trkpt><trkpt lat="43.2026259" lon="11.4864433"><ele>248.00000000000003</ele><time>2026-04-26T08:17:11.169Z</time></trkpt><trkpt lat="43.2025648" lon="11.4863648"><ele>248.0</ele><time>2026-04-26T08:17:12.177Z</time></trkpt><trkpt lat="43.2025067" lon="11.4862885"><ele>248.0</ele><time>2026-04-26T08:17:13.167Z</time></trkpt><trkpt lat="43.2024487" lon="11.4862049"><ele>248.0</ele><time>2026-04-26T08:17:14.176Z</time></trkpt><trkpt lat="43.2023967" lon="11.4861058"><ele>248.00000000000003</ele><time>2026-04-26T08:17:15.178Z</time></trkpt><trkpt lat="43.202349" lon="11.4860054"><ele>248.0</ele><time>2026-04-26T08:17:16.185Z</time></trkpt><trkpt lat="43.2023081" lon="11.4858961"><ele>249.00000000000003</ele><time>2026-04-26T08:17:17.161Z</time></trkpt><trkpt lat="43.2022678" lon="11.4857832"><ele>250.0</ele><time>2026-04-26T08:17:18.186Z</time></trkpt><trkpt lat="43.2022389" lon="11.4856682"><ele>251.0</ele><time>2026-04-26T08:17:19.171Z</time></trkpt><trkpt lat="43.202211" lon="11.4855623"><ele>252.0</ele><time>2026-04-26T08:17:20.178Z</time></trkpt><trkpt lat="43.2021841" lon="11.4854573"><ele>253.00000000000003</ele><time>2026-04-26T08:17:21.177Z</time></trkpt><trkpt lat="43.2021587" lon="11.4853575"><ele>254.0</ele><time>2026-04-26T08:17:22.161Z</time></trkpt><trkpt lat="43.2021394" lon="11.485253"><ele>255.33333333333334</ele><time>2026-04-26T08:17:23.181Z</time></trkpt><trkpt lat="43.2021167" lon="11.4851442"><ele>256.6666666666667</ele><time>2026-04-26T08:17:24.181Z</time></trkpt><trkpt lat="43.2020902" lon="11.4850278"><ele>258.0</ele><time>2026-04-26T08:17:25.165Z</time></trkpt><trkpt lat="43.2020685" lon="11.4849134"><ele>259.3333333333333</ele><time>2026-04-26T08:17:26.182Z</time></trkpt><trkpt lat="43.2020443" lon="11.484806"><ele>260.66666666666663</ele><time>2026-04-26T08:17:27.174Z</time></trkpt><trkpt lat="43.2020203" lon="11.4847027"><ele>262.0</ele><time>2026-04-26T08:17:28.184Z</time></trkpt><trkpt lat="43.2019965" lon="11.4846058"><ele>260.7142857142857</ele><time>2026-04-26T08:17:29.173Z</time></trkpt><trkpt lat="43.2019632" lon="11.4845159"><ele>259.42857142857144</ele><time>2026-04-26T08:17:30.182Z</time></trkpt><trkpt lat="43.2019284" lon="11.484436"><ele>258.14285714285717</ele><time>2026-04-26T08:17:31.172Z</time></trkpt><trkpt lat="43.2018921" lon="11.4843604"><ele>256.8571428571429</ele><time>2026-04-26T08:17:32.167Z</time></trkpt><trkpt lat="43.201849" lon="11.4842813"><ele>255.57142857142858</ele><time>2026-04-26T08:17:33.18Z</time></trkpt><trkpt lat="43.2018146" lon="11.4841941"><ele>254.28571428571433</ele><time>2026-04-26T08:17:34.176Z</time></trkpt><trkpt lat="43.2017938" lon="11.4841001"><ele>253.00000000000003</ele><time>2026-04-26T08:17:35.178Z</time></trkpt><trkpt lat="43.201797" lon="11.4840032"><ele>252.99999999999997</ele><time>2026-04-26T08:17:36.171Z</time></trkpt><trkpt lat="43.2018049" lon="11.4839028"><ele>253.0</ele><time>2026-04-26T08:17:37.183Z</time></trkpt><trkpt lat="43.2018498" lon="11.4838023"><ele>253.0</ele><time>2026-04-26T08:17:38.173Z</time></trkpt><trkpt lat="43.2018967" lon="11.4837018"><ele>253.0</ele><time>2026-04-26T08:17:39.184Z</time></trkpt><trkpt lat="43.2019559" lon="11.4836076"><ele>252.99999999999997</ele><time>2026-04-26T08:17:40.184Z</time></trkpt><trkpt lat="43.2020134" lon="11.4835157"><ele>253.0</ele><time>2026-04-26T08:17:41.179Z</time></trkpt><trkpt lat="43.2020691" lon="11.4834257"><ele>250.33333333333331</ele><time>2026-04-26T08:17:42.177Z</time></trkpt><trkpt lat="43.2021211" lon="11.4833342"><ele>247.66666666666666</ele><time>2026-04-26T08:17:43.168Z</time></trkpt><trkpt lat="43.2021613" lon="11.4832406"><ele>245.0</ele><time>2026-04-26T08:17:44.168Z</time></trkpt><trkpt lat="43.2021875" lon="11.4831405"><ele>242.33333333333331</ele><time>2026-04-26T08:17:45.181Z</time></trkpt><trkpt lat="43.2022005" lon="11.4830313"><ele>239.66666666666666</ele><time>2026-04-26T08:17:46.179Z</time></trkpt><trkpt lat="43.2022053" lon="11.4829128"><ele>237.0</ele><time>2026-04-26T08:17:47.166Z</time></trkpt><trkpt lat="43.2022058" lon="11.4827903"><ele>234.2</ele><time>2026-04-26T08:17:48.159Z</time></trkpt><trkpt lat="43.202206" lon="11.4826649"><ele>231.39999999999998</ele><time>2026-04-26T08:17:49.171Z</time></trkpt><trkpt lat="43.2022123" lon="11.4825363"><ele>228.60000000000002</ele><time>2026-04-26T08:17:50.169Z</time></trkpt><trkpt lat="43.2022283" lon="11.4824061"><ele>225.8</ele><time>2026-04-26T08:17:51.183Z</time></trkpt><trkpt lat="43.2022453" lon="11.4822783"><ele>223.0</ele><time>2026-04-26T08:17:52.172Z</time></trkpt><trkpt lat="43.2022702" lon="11.4821566"><ele>221.49999999999997</ele><time>2026-04-26T08:17:53.173Z</time></trkpt><trkpt lat="43.2022926" lon="11.4820432"><ele>220.0</ele><time>2026-04-26T08:17:54.178Z</time></trkpt><trkpt lat="43.2023086" lon="11.4819274"><ele>218.5</ele><time>2026-04-26T08:17:55.185Z</time></trkpt><trkpt lat="43.2023164" lon="11.4818083"><ele>217.0</ele><time>2026-04-26T08:17:56.181Z</time></trkpt><trkpt lat="43.2023158" lon="11.4816848"><ele>215.49999999999997</ele><time>2026-04-26T08:17:57.179Z</time></trkpt><trkpt lat="43.2023075" lon="11.4815613"><ele>214.0</ele><time>2026-04-26T08:17:58.175Z</time></trkpt><trkpt lat="43.2022943" lon="11.4814374"><ele>214.0</ele><time>2026-04-26T08:17:59.167Z</time></trkpt><trkpt lat="43.2022763" lon="11.4813114"><ele>213.99999999999997</ele><time>2026-04-26T08:18:00.182Z</time></trkpt><trkpt lat="43.2022578" lon="11.4811815"><ele>213.99999999999997</ele><time>2026-04-26T08:18:01.16Z</time></trkpt><trkpt lat="43.202241" lon="11.4810469"><ele>214.0</ele><time>2026-04-26T08:18:02.189Z</time></trkpt><trkpt lat="43.2022201" lon="11.480908"><ele>214.0</ele><time>2026-04-26T08:18:03.181Z</time></trkpt><trkpt lat="43.2021914" lon="11.4807663"><ele>213.6</ele><time>2026-04-26T08:18:04.186Z</time></trkpt><trkpt lat="43.2021554" lon="11.4806296"><ele>213.2</ele><time>2026-04-26T08:18:05.169Z</time></trkpt><trkpt lat="43.2021143" lon="11.4805017"><ele>212.79999999999998</ele><time>2026-04-26T08:18:06.181Z</time></trkpt><trkpt lat="43.2020682" lon="11.4803806"><ele>212.39999999999998</ele><time>2026-04-26T08:18:07.182Z</time></trkpt><trkpt lat="43.2020207" lon="11.4802618"><ele>212.0</ele><time>2026-04-26T08:18:08.181Z</time></trkpt><trkpt lat="43.2019751" lon="11.4801447"><ele>212.0</ele><time>2026-04-26T08:18:09.181Z</time></trkpt><trkpt lat="43.2019323" lon="11.4800234"><ele>212.0</ele><time>2026-04-26T08:18:10.179Z</time></trkpt><trkpt lat="43.2018919" lon="11.4798953"><ele>212.0</ele><time>2026-04-26T08:18:11.179Z</time></trkpt><trkpt lat="43.201852" lon="11.4797608"><ele>212.0</ele><time>2026-04-26T08:18:12.173Z</time></trkpt><trkpt lat="43.201814" lon="11.4796213"><ele>212.0</ele><time>2026-04-26T08:18:13.182Z</time></trkpt><trkpt lat="43.2017785" lon="11.4794804"><ele>212.2</ele><time>2026-04-26T08:18:14.181Z</time></trkpt><trkpt lat="43.2017417" lon="11.4793414"><ele>212.39999999999998</ele><time>2026-04-26T08:18:15.165Z</time></trkpt><trkpt lat="43.201706" lon="11.4792063"><ele>212.60000000000002</ele><time>2026-04-26T08:18:16.164Z</time></trkpt><trkpt lat="43.2016654" lon="11.4790748"><ele>212.8</ele><time>2026-04-26T08:18:17.171Z</time></trkpt><trkpt lat="43.2016243" lon="11.4789449"><ele>213.0</ele><time>2026-04-26T08:18:18.173Z</time></trkpt><trkpt lat="43.201582" lon="11.4788162"><ele>212.2</ele><time>2026-04-26T08:18:19.167Z</time></trkpt><trkpt lat="43.2015363" lon="11.4786869"><ele>211.4</ele><time>2026-04-26T08:18:20.17Z</time></trkpt><trkpt lat="43.2014874" lon="11.478559"><ele>210.6</ele><time>2026-04-26T08:18:21.168Z</time></trkpt><trkpt lat="43.201435" lon="11.4784303"><ele>209.79999999999998</ele><time>2026-04-26T08:18:22.174Z</time></trkpt><trkpt lat="43.2013823" lon="11.4783018"><ele>209.0</ele><time>2026-04-26T08:18:23.171Z</time></trkpt><trkpt lat="43.2013267" lon="11.478169"><ele>208.25</ele><time>2026-04-26T08:18:24.166Z</time></trkpt><trkpt lat="43.2012727" lon="11.4780329"><ele>207.5</ele><time>2026-04-26T08:18:25.168Z</time></trkpt><trkpt lat="43.2012188" lon="11.4778957"><ele>206.75</ele><time>2026-04-26T08:18:26.173Z</time></trkpt><trkpt lat="43.2011656" lon="11.4777577"><ele>206.0</ele><time>2026-04-26T08:18:27.164Z</time></trkpt><trkpt lat="43.2011137" lon="11.4776188"><ele>206.0</ele><time>2026-04-26T08:18:28.174Z</time></trkpt><trkpt lat="43.201062" lon="11.4774833"><ele>206.0</ele><time>2026-04-26T08:18:29.179Z</time></trkpt><trkpt lat="43.2010111" lon="11.4773517"><ele>206.0</ele><time>2026-04-26T08:18:30.17Z</time></trkpt><trkpt lat="43.2009592" lon="11.4772247"><ele>206.0</ele><time>2026-04-26T08:18:31.182Z</time></trkpt><trkpt lat="43.2009068" lon="11.4771022"><ele>206.0</ele><time>2026-04-26T08:18:32.176Z</time></trkpt><trkpt lat="43.200853" lon="11.4769833"><ele>206.8</ele><time>2026-04-26T08:18:33.17Z</time></trkpt><trkpt lat="43.200798" lon="11.476868"><ele>207.60000000000002</ele><time>2026-04-26T08:18:34.185Z</time></trkpt><trkpt lat="43.2007414" lon="11.4767566"><ele>208.4</ele><time>2026-04-26T08:18:35.185Z</time></trkpt><trkpt lat="43.2006853" lon="11.4766512"><ele>209.2</ele><time>2026-04-26T08:18:36.179Z</time></trkpt><trkpt lat="43.2006217" lon="11.4765534"><ele>210.0</ele><time>2026-04-26T08:18:37.171Z</time></trkpt><trkpt lat="43.2005484" lon="11.4764672"><ele>209.2</ele><time>2026-04-26T08:18:38.177Z</time></trkpt><trkpt lat="43.2004722" lon="11.476384"><ele>208.4</ele><time>2026-04-26T08:18:39.167Z</time></trkpt><trkpt lat="43.2003951" lon="11.4763083"><ele>207.60000000000002</ele><time>2026-04-26T08:18:40.181Z</time></trkpt><trkpt lat="43.2003157" lon="11.4762374"><ele>206.8</ele><time>2026-04-26T08:18:41.171Z</time></trkpt><trkpt lat="43.2002396" lon="11.4761616"><ele>206.0</ele><time>2026-04-26T08:18:42.173Z</time></trkpt><trkpt lat="43.2001724" lon="11.4760844"><ele>206.00000000000003</ele><time>2026-04-26T08:18:43.175Z</time></trkpt><trkpt lat="43.2001129" lon="11.4760073"><ele>206.0</ele><time>2026-04-26T08:18:44.17Z</time></trkpt><trkpt lat="43.200051" lon="11.4759334"><ele>206.0</ele><time>2026-04-26T08:18:45.187Z</time></trkpt><trkpt lat="43.1999832" lon="11.4758646"><ele>206.0</ele><time>2026-04-26T08:18:46.186Z</time></trkpt><trkpt lat="43.199909" lon="11.4758034"><ele>206.00000000000003</ele><time>2026-04-26T08:18:47.172Z</time></trkpt><trkpt lat="43.19983" lon="11.4757467"><ele>206.0</ele><time>2026-04-26T08:18:48.186Z</time></trkpt><trkpt lat="43.1997515" lon="11.47569"><ele>204.60000000000002</ele><time>2026-04-26T08:18:49.168Z</time></trkpt><trkpt lat="43.1996692" lon="11.4756243"><ele>203.2</ele><time>2026-04-26T08:18:50.177Z</time></trkpt><trkpt lat="43.1995902" lon="11.4755464"><ele>201.8</ele><time>2026-04-26T08:18:51.169Z</time></trkpt><trkpt lat="43.1995137" lon="11.4754589"><ele>200.39999999999998</ele><time>2026-04-26T08:18:52.18Z</time></trkpt><trkpt lat="43.1994391" lon="11.4753594"><ele>199.0</ele><time>2026-04-26T08:18:53.165Z</time></trkpt><trkpt lat="43.1993692" lon="11.4752526"><ele>199.0</ele><time>2026-04-26T08:18:54.173Z</time></trkpt><trkpt lat="43.1993035" lon="11.4751384"><ele>199.0</ele><time>2026-04-26T08:18:55.161Z</time></trkpt><trkpt lat="43.19924" lon="11.4750234"><ele>199.0</ele><time>2026-04-26T08:18:56.17Z</time></trkpt><trkpt lat="43.1991804" lon="11.4749147"><ele>199.0</ele><time>2026-04-26T08:18:57.18Z</time></trkpt><trkpt lat="43.1991231" lon="11.4748092"><ele>199.0</ele><time>2026-04-26T08:18:58.18Z</time></trkpt><trkpt lat="43.199068" lon="11.474706"><ele>198.99999999999997</ele><time>2026-04-26T08:18:59.186Z</time></trkpt><trkpt lat="43.1990167" lon="11.4746071"><ele>199.0</ele><time>2026-04-26T08:19:00.176Z</time></trkpt><trkpt lat="43.1989683" lon="11.4745062"><ele>199.0</ele><time>2026-04-26T08:19:01.173Z</time></trkpt><trkpt lat="43.1989275" lon="11.4743974"><ele>199.0</ele><time>2026-04-26T08:19:02.167Z</time></trkpt><trkpt lat="43.1988992" lon="11.4742797"><ele>198.99999999999997</ele><time>2026-04-26T08:19:03.192Z</time></trkpt><trkpt lat="43.1988832" lon="11.4741544"><ele>199.0</ele><time>2026-04-26T08:19:04.161Z</time></trkpt><trkpt lat="43.1988771" lon="11.4740228"><ele>200.2</ele><time>2026-04-26T08:19:05.18Z</time></trkpt><trkpt lat="43.1988753" lon="11.473888"><ele>201.39999999999998</ele><time>2026-04-26T08:19:06.172Z</time></trkpt><trkpt lat="43.1988668" lon="11.4737531"><ele>202.6</ele><time>2026-04-26T08:19:07.182Z</time></trkpt><trkpt lat="43.1988449" lon="11.4736217"><ele>203.8</ele><time>2026-04-26T08:19:08.162Z</time></trkpt><trkpt lat="43.1988062" lon="11.4734965"><ele>205.0</ele><time>2026-04-26T08:19:09.184Z</time></trkpt><trkpt lat="43.1987561" lon="11.4733756"><ele>206.6</ele><time>2026-04-26T08:19:10.165Z</time></trkpt><trkpt lat="43.1986992" lon="11.4732556"><ele>208.2</ele><time>2026-04-26T08:19:11.169Z</time></trkpt><trkpt lat="43.1986401" lon="11.4731352"><ele>209.8</ele><time>2026-04-26T08:19:12.166Z</time></trkpt><trkpt lat="43.1985849" lon="11.4730135"><ele>211.4</ele><time>2026-04-26T08:19:13.18Z</time></trkpt><trkpt lat="43.1985329" lon="11.4729008"><ele>213.0</ele><time>2026-04-26T08:19:14.162Z</time></trkpt><trkpt lat="43.1985" lon="11.4727978"><ele>213.0</ele><time>2026-04-26T08:19:15.168Z</time></trkpt><trkpt lat="43.1984819" lon="11.4726942"><ele>213.0</ele><time>2026-04-26T08:19:16.163Z</time></trkpt><trkpt lat="43.1984723" lon="11.4725842"><ele>213.0</ele><time>2026-04-26T08:19:17.172Z</time></trkpt><trkpt lat="43.19847" lon="11.472463"><ele>213.0</ele><time>2026-04-26T08:19:18.18Z</time></trkpt><trkpt lat="43.1984784" lon="11.47234"><ele>213.0</ele><time>2026-04-26T08:19:19.18Z</time></trkpt><trkpt lat="43.198498" lon="11.4722156"><ele>213.0</ele><time>2026-04-26T08:19:20.164Z</time></trkpt><trkpt lat="43.198513" lon="11.4720975"><ele>212.5</ele><time>2026-04-26T08:19:21.169Z</time></trkpt><trkpt lat="43.1985256" lon="11.4719813"><ele>212.0</ele><time>2026-04-26T08:19:22.169Z</time></trkpt><trkpt lat="43.1985294" lon="11.4718598"><ele>211.5</ele><time>2026-04-26T08:19:23.172Z</time></trkpt><trkpt lat="43.1985293" lon="11.4717357"><ele>211.0</ele><time>2026-04-26T08:19:24.168Z</time></trkpt><trkpt lat="43.1985117" lon="11.4716163"><ele>210.5</ele><time>2026-04-26T08:19:25.174Z</time></trkpt><trkpt lat="43.1984957" lon="11.4715089"><ele>210.0</ele><time>2026-04-26T08:19:26.167Z</time></trkpt><trkpt lat="43.1984685" lon="11.471405"><ele>210.0</ele><time>2026-04-26T08:19:27.177Z</time></trkpt><trkpt lat="43.1984387" lon="11.4713123"><ele>210.0</ele><time>2026-04-26T08:19:28.169Z</time></trkpt><trkpt lat="43.1984094" lon="11.4712282"><ele>210.0</ele><time>2026-04-26T08:19:29.174Z</time></trkpt><trkpt lat="43.1983823" lon="11.4711472"><ele>210.0</ele><time>2026-04-26T08:19:30.176Z</time></trkpt><trkpt lat="43.1983135" lon="11.470998"><ele>210.0</ele><time>2026-04-26T08:19:32.172Z</time></trkpt><trkpt lat="43.1982744" lon="11.4709233"><ele>210.0</ele><time>2026-04-26T08:19:33.164Z</time></trkpt><trkpt lat="43.1982213" lon="11.4708487"><ele>208.33333333333334</ele><time>2026-04-26T08:19:34.188Z</time></trkpt><trkpt lat="43.1981572" lon="11.4707786"><ele>206.66666666666669</ele><time>2026-04-26T08:19:35.166Z</time></trkpt><trkpt lat="43.1980831" lon="11.4707161"><ele>205.0</ele><time>2026-04-26T08:19:36.168Z</time></trkpt><trkpt lat="43.1980132" lon="11.470664"><ele>203.33333333333334</ele><time>2026-04-26T08:19:37.186Z</time></trkpt><trkpt lat="43.1979455" lon="11.4706148"><ele>201.66666666666669</ele><time>2026-04-26T08:19:38.175Z</time></trkpt><trkpt lat="43.1978622" lon="11.4705879"><ele>200.0</ele><time>2026-04-26T08:19:39.181Z</time></trkpt><trkpt lat="43.1977815" lon="11.4705787"><ele>200.00000000000003</ele><time>2026-04-26T08:19:40.16Z</time></trkpt><trkpt lat="43.1976985" lon="11.4705728"><ele>200.0</ele><time>2026-04-26T08:19:41.169Z</time></trkpt><trkpt lat="43.1976157" lon="11.4705637"><ele>200.0</ele><time>2026-04-26T08:19:42.178Z</time></trkpt><trkpt lat="43.1975357" lon="11.4705364"><ele>200.0</ele><time>2026-04-26T08:19:43.165Z</time></trkpt><trkpt lat="43.1974601" lon="11.4704943"><ele>200.00000000000003</ele><time>2026-04-26T08:19:44.165Z</time></trkpt><trkpt lat="43.1973928" lon="11.4704361"><ele>200.0</ele><time>2026-04-26T08:19:45.164Z</time></trkpt><trkpt lat="43.1973337" lon="11.4703571"><ele>197.00000000000003</ele><time>2026-04-26T08:19:46.168Z</time></trkpt><trkpt lat="43.1972755" lon="11.4702793"><ele>194.0</ele><time>2026-04-26T08:19:47.179Z</time></trkpt><trkpt lat="43.1972298" lon="11.4701747"><ele>191.0</ele><time>2026-04-26T08:19:48.163Z</time></trkpt><trkpt lat="43.1971942" lon="11.4700673"><ele>188.0</ele><time>2026-04-26T08:19:49.161Z</time></trkpt><trkpt lat="43.1971585" lon="11.4699584"><ele>185.0</ele><time>2026-04-26T08:19:50.17Z</time></trkpt><trkpt lat="43.1971208" lon="11.4698487"><ele>182.0</ele><time>2026-04-26T08:19:51.174Z</time></trkpt><trkpt lat="43.1970786" lon="11.4697348"><ele>182.0</ele><time>2026-04-26T08:19:52.169Z</time></trkpt><trkpt lat="43.1970335" lon="11.4696245"><ele>182.0</ele><time>2026-04-26T08:19:53.171Z</time></trkpt><trkpt lat="43.1969844" lon="11.4695136"><ele>182.0</ele><time>2026-04-26T08:19:54.173Z</time></trkpt><trkpt lat="43.1969332" lon="11.4694109"><ele>182.0</ele><time>2026-04-26T08:19:55.173Z</time></trkpt><trkpt lat="43.196882" lon="11.4693176"><ele>182.0</ele><time>2026-04-26T08:19:56.164Z</time></trkpt><trkpt lat="43.1968289" lon="11.4692286"><ele>182.0</ele><time>2026-04-26T08:19:57.184Z</time></trkpt><trkpt lat="43.1967742" lon="11.469141"><ele>181.83333333333331</ele><time>2026-04-26T08:19:58.181Z</time></trkpt><trkpt lat="43.1967229" lon="11.4690547"><ele>181.66666666666666</ele><time>2026-04-26T08:19:59.175Z</time></trkpt><trkpt lat="43.1966768" lon="11.4689665"><ele>181.5</ele><time>2026-04-26T08:20:00.163Z</time></trkpt><trkpt lat="43.1966419" lon="11.468876"><ele>181.33333333333334</ele><time>2026-04-26T08:20:01.162Z</time></trkpt><trkpt lat="43.196624" lon="11.4687768"><ele>181.16666666666669</ele><time>2026-04-26T08:20:02.182Z</time></trkpt><trkpt lat="43.1966104" lon="11.4686696"><ele>181.0</ele><time>2026-04-26T08:20:03.181Z</time></trkpt><trkpt lat="43.19659" lon="11.4685635"><ele>180.0</ele><time>2026-04-26T08:20:04.172Z</time></trkpt><trkpt lat="43.196558" lon="11.4684604"><ele>179.0</ele><time>2026-04-26T08:20:05.184Z</time></trkpt><trkpt lat="43.1965156" lon="11.468364"><ele>178.0</ele><time>2026-04-26T08:20:06.165Z</time></trkpt><trkpt lat="43.1964639" lon="11.4682699"><ele>177.0</ele><time>2026-04-26T08:20:07.174Z</time></trkpt><trkpt lat="43.1964107" lon="11.4681772"><ele>176.0</ele><time>2026-04-26T08:20:08.172Z</time></trkpt><trkpt lat="43.1963574" lon="11.468089"><ele>175.0</ele><time>2026-04-26T08:20:09.158Z</time></trkpt><trkpt lat="43.1963013" lon="11.4680042"><ele>173.33333333333334</ele><time>2026-04-26T08:20:10.182Z</time></trkpt><trkpt lat="43.1962413" lon="11.4679241"><ele>171.66666666666669</ele><time>2026-04-26T08:20:11.168Z</time></trkpt><trkpt lat="43.1961757" lon="11.4678532"><ele>170.0</ele><time>2026-04-26T08:20:12.173Z</time></trkpt><trkpt lat="43.1961045" lon="11.4677946"><ele>168.33333333333334</ele><time>2026-04-26T08:20:13.177Z</time></trkpt><trkpt lat="43.1960298" lon="11.4677469"><ele>166.66666666666666</ele><time>2026-04-26T08:20:14.166Z</time></trkpt><trkpt lat="43.1959539" lon="11.4677083"><ele>165.0</ele><time>2026-04-26T08:20:15.169Z</time></trkpt><trkpt lat="43.1958763" lon="11.4676754"><ele>165.0</ele><time>2026-04-26T08:20:16.18Z</time></trkpt><trkpt lat="43.1957992" lon="11.4676429"><ele>165.0</ele><time>2026-04-26T08:20:17.187Z</time></trkpt><trkpt lat="43.1957276" lon="11.4676098"><ele>165.0</ele><time>2026-04-26T08:20:18.173Z</time></trkpt><trkpt lat="43.1956602" lon="11.4675677"><ele>165.0</ele><time>2026-04-26T08:20:19.174Z</time></trkpt><trkpt lat="43.1956018" lon="11.4675072"><ele>165.0</ele><time>2026-04-26T08:20:20.167Z</time></trkpt><trkpt lat="43.1955553" lon="11.4674214"><ele>165.0</ele><time>2026-04-26T08:20:21.168Z</time></trkpt><trkpt lat="43.1955201" lon="11.4673117"><ele>164.0</ele><time>2026-04-26T08:20:22.168Z</time></trkpt><trkpt lat="43.1954968" lon="11.4671842"><ele>163.0</ele><time>2026-04-26T08:20:23.169Z</time></trkpt><trkpt lat="43.1954787" lon="11.4670473"><ele>162.0</ele><time>2026-04-26T08:20:24.182Z</time></trkpt><trkpt lat="43.1954613" lon="11.4669104"><ele>161.0</ele><time>2026-04-26T08:20:25.179Z</time></trkpt><trkpt lat="43.1954445" lon="11.4667752"><ele>160.0</ele><time>2026-04-26T08:20:26.176Z</time></trkpt><trkpt lat="43.1954232" lon="11.4666497"><ele>159.66666666666669</ele><time>2026-04-26T08:20:27.174Z</time></trkpt><trkpt lat="43.1953966" lon="11.4665339"><ele>159.33333333333334</ele><time>2026-04-26T08:20:28.165Z</time></trkpt><trkpt lat="43.1953623" lon="11.4664228"><ele>159.0</ele><time>2026-04-26T08:20:29.178Z</time></trkpt><trkpt lat="43.1953274" lon="11.466313"><ele>158.66666666666666</ele><time>2026-04-26T08:20:30.171Z</time></trkpt><trkpt lat="43.19527" lon="11.4662238"><ele>158.33333333333331</ele><time>2026-04-26T08:20:31.171Z</time></trkpt><trkpt lat="43.1952138" lon="11.4661463"><ele>158.0</ele><time>2026-04-26T08:20:32.163Z</time></trkpt><trkpt lat="43.1951604" lon="11.4660721"><ele>157.5</ele><time>2026-04-26T08:20:33.183Z</time></trkpt><trkpt lat="43.1951082" lon="11.4660005"><ele>157.0</ele><time>2026-04-26T08:20:34.161Z</time></trkpt><trkpt lat="43.195062" lon="11.4659354"><ele>156.5</ele><time>2026-04-26T08:20:35.182Z</time></trkpt><trkpt lat="43.1949793" lon="11.4658228"><ele>156.0</ele><time>2026-04-26T08:20:37.184Z</time></trkpt><trkpt lat="43.1949107" lon="11.4657338"><ele>155.5</ele><time>2026-04-26T08:20:39.169Z</time></trkpt><trkpt lat="43.194829" lon="11.4657009"><ele>155.0</ele><time>2026-04-26T08:20:41.17Z</time></trkpt><trkpt lat="43.1947197" lon="11.4657552"><ele>155.0</ele><time>2026-04-26T08:20:43.185Z</time></trkpt><trkpt lat="43.1946596" lon="11.4658096"><ele>155.0</ele><time>2026-04-26T08:20:44.177Z</time></trkpt><trkpt lat="43.1945979" lon="11.4658786"><ele>155.0</ele><time>2026-04-26T08:20:45.165Z</time></trkpt><trkpt lat="43.1945307" lon="11.4659556"><ele>155.0</ele><time>2026-04-26T08:20:46.178Z</time></trkpt><trkpt lat="43.1944568" lon="11.4660352"><ele>155.0</ele><time>2026-04-26T08:20:47.183Z</time></trkpt><trkpt lat="43.1943829" lon="11.46611"><ele>155.0</ele><time>2026-04-26T08:20:48.175Z</time></trkpt><trkpt lat="43.1943139" lon="11.4661778"><ele>155.0</ele><time>2026-04-26T08:20:49.179Z</time></trkpt><trkpt lat="43.1942435" lon="11.466252"><ele>155.0</ele><time>2026-04-26T08:20:50.182Z</time></trkpt><trkpt lat="43.1941659" lon="11.4663222"><ele>155.0</ele><time>2026-04-26T08:20:51.184Z</time></trkpt><trkpt lat="43.1940833" lon="11.466394"><ele>155.0</ele><time>2026-04-26T08:20:52.178Z</time></trkpt><trkpt lat="43.1940006" lon="11.4664662"><ele>155.0</ele><time>2026-04-26T08:20:53.165Z</time></trkpt><trkpt lat="43.1939146" lon="11.4665414"><ele>155.2</ele><time>2026-04-26T08:20:54.182Z</time></trkpt><trkpt lat="43.1938338" lon="11.4666195"><ele>155.4</ele><time>2026-04-26T08:20:55.179Z</time></trkpt><trkpt lat="43.1937498" lon="11.4666972"><ele>155.6</ele><time>2026-04-26T08:20:56.176Z</time></trkpt><trkpt lat="43.193666" lon="11.4667765"><ele>155.8</ele><time>2026-04-26T08:20:57.18Z</time></trkpt><trkpt lat="43.1935771" lon="11.4668579"><ele>156.0</ele><time>2026-04-26T08:20:58.175Z</time></trkpt><trkpt lat="43.1934902" lon="11.4669355"><ele>156.0</ele><time>2026-04-26T08:20:59.181Z</time></trkpt><trkpt lat="43.1934045" lon="11.4670124"><ele>156.0</ele><time>2026-04-26T08:21:00.164Z</time></trkpt><trkpt lat="43.193317" lon="11.4670881"><ele>156.0</ele><time>2026-04-26T08:21:01.164Z</time></trkpt><trkpt lat="43.1932319" lon="11.4671629"><ele>156.0</ele><time>2026-04-26T08:21:02.166Z</time></trkpt><trkpt lat="43.1931469" lon="11.4672378"><ele>156.0</ele><time>2026-04-26T08:21:03.178Z</time></trkpt><trkpt lat="43.1930629" lon="11.4673165"><ele>156.0</ele><time>2026-04-26T08:21:04.187Z</time></trkpt><trkpt lat="43.1929784" lon="11.4673993"><ele>156.0</ele><time>2026-04-26T08:21:05.171Z</time></trkpt><trkpt lat="43.1928927" lon="11.4674845"><ele>156.0</ele><time>2026-04-26T08:21:06.178Z</time></trkpt><trkpt lat="43.1928059" lon="11.4675688"><ele>156.0</ele><time>2026-04-26T08:21:07.17Z</time></trkpt><trkpt lat="43.1927154" lon="11.4676576"><ele>156.0</ele><time>2026-04-26T08:21:08.173Z</time></trkpt><trkpt lat="43.1926206" lon="11.4677529"><ele>156.0</ele><time>2026-04-26T08:21:09.175Z</time></trkpt><trkpt lat="43.1925267" lon="11.4678478"><ele>156.0</ele><time>2026-04-26T08:21:10.169Z</time></trkpt><trkpt lat="43.1924343" lon="11.4679415"><ele>156.0</ele><time>2026-04-26T08:21:11.184Z</time></trkpt><trkpt lat="43.192344" lon="11.4680328"><ele>156.0</ele><time>2026-04-26T08:21:12.178Z</time></trkpt><trkpt lat="43.1922571" lon="11.4681208"><ele>156.6</ele><time>2026-04-26T08:21:13.179Z</time></trkpt><trkpt lat="43.1921732" lon="11.4682058"><ele>157.2</ele><time>2026-04-26T08:21:14.166Z</time></trkpt><trkpt lat="43.1920869" lon="11.4682907"><ele>157.8</ele><time>2026-04-26T08:21:15.177Z</time></trkpt><trkpt lat="43.1919981" lon="11.468374"><ele>158.4</ele><time>2026-04-26T08:21:16.157Z</time></trkpt><trkpt lat="43.1919084" lon="11.4684572"><ele>159.0</ele><time>2026-04-26T08:21:17.169Z</time></trkpt><trkpt lat="43.1918192" lon="11.46854"><ele>159.0</ele><time>2026-04-26T08:21:18.17Z</time></trkpt><trkpt lat="43.1917304" lon="11.4686215"><ele>159.0</ele><time>2026-04-26T08:21:19.169Z</time></trkpt><trkpt lat="43.1916414" lon="11.4687027"><ele>159.0</ele><time>2026-04-26T08:21:20.176Z</time></trkpt><trkpt lat="43.1915558" lon="11.4687841"><ele>159.0</ele><time>2026-04-26T08:21:21.173Z</time></trkpt><trkpt lat="43.1914727" lon="11.4688663"><ele>159.0</ele><time>2026-04-26T08:21:22.167Z</time></trkpt><trkpt lat="43.1913935" lon="11.468952"><ele>158.6</ele><time>2026-04-26T08:21:23.172Z</time></trkpt><trkpt lat="43.1913194" lon="11.4690421"><ele>158.2</ele><time>2026-04-26T08:21:24.175Z</time></trkpt><trkpt lat="43.1912505" lon="11.4691404"><ele>157.79999999999998</ele><time>2026-04-26T08:21:25.179Z</time></trkpt><trkpt lat="43.1911897" lon="11.4692442"><ele>157.4</ele><time>2026-04-26T08:21:26.169Z</time></trkpt><trkpt lat="43.1911386" lon="11.4693522"><ele>157.0</ele><time>2026-04-26T08:21:27.171Z</time></trkpt><trkpt lat="43.1910928" lon="11.4694654"><ele>157.0</ele><time>2026-04-26T08:21:28.176Z</time></trkpt><trkpt lat="43.1910481" lon="11.4695813"><ele>157.0</ele><time>2026-04-26T08:21:29.162Z</time></trkpt><trkpt lat="43.1910015" lon="11.4696978"><ele>157.0</ele><time>2026-04-26T08:21:30.19Z</time></trkpt><trkpt lat="43.1909486" lon="11.4698189"><ele>157.0</ele><time>2026-04-26T08:21:31.166Z</time></trkpt><trkpt lat="43.1908908" lon="11.4699459"><ele>157.0</ele><time>2026-04-26T08:21:32.169Z</time></trkpt><trkpt lat="43.190829" lon="11.4700714"><ele>157.6</ele><time>2026-04-26T08:21:33.164Z</time></trkpt><trkpt lat="43.1907616" lon="11.4701944"><ele>158.2</ele><time>2026-04-26T08:21:34.171Z</time></trkpt><trkpt lat="43.1906892" lon="11.4703096"><ele>158.8</ele><time>2026-04-26T08:21:35.172Z</time></trkpt><trkpt lat="43.1906105" lon="11.4704117"><ele>159.4</ele><time>2026-04-26T08:21:36.163Z</time></trkpt><trkpt lat="43.1905338" lon="11.4705115"><ele>160.0</ele><time>2026-04-26T08:21:37.161Z</time></trkpt><trkpt lat="43.1904573" lon="11.4706042"><ele>161.0</ele><time>2026-04-26T08:21:38.167Z</time></trkpt><trkpt lat="43.1903865" lon="11.4706909"><ele>162.0</ele><time>2026-04-26T08:21:39.164Z</time></trkpt><trkpt lat="43.1903171" lon="11.4707729"><ele>163.0</ele><time>2026-04-26T08:21:40.179Z</time></trkpt><trkpt lat="43.1902441" lon="11.4708525"><ele>164.0</ele><time>2026-04-26T08:21:41.177Z</time></trkpt><trkpt lat="43.1901643" lon="11.4709292"><ele>165.0</ele><time>2026-04-26T08:21:42.183Z</time></trkpt><trkpt lat="43.1900857" lon="11.4710016"><ele>165.0</ele><time>2026-04-26T08:21:43.179Z</time></trkpt><trkpt lat="43.1899978" lon="11.4710619"><ele>165.0</ele><time>2026-04-26T08:21:44.171Z</time></trkpt><trkpt lat="43.1899107" lon="11.4711222"><ele>165.0</ele><time>2026-04-26T08:21:45.177Z</time></trkpt><trkpt lat="43.1898186" lon="11.4711701"><ele>165.0</ele><time>2026-04-26T08:21:46.175Z</time></trkpt><trkpt lat="43.1897249" lon="11.4712225"><ele>165.0</ele><time>2026-04-26T08:21:47.176Z</time></trkpt><trkpt lat="43.1896316" lon="11.4712809"><ele>165.4</ele><time>2026-04-26T08:21:48.166Z</time></trkpt><trkpt lat="43.1895429" lon="11.4713482"><ele>165.8</ele><time>2026-04-26T08:21:49.184Z</time></trkpt><trkpt lat="43.1894603" lon="11.4714209"><ele>166.2</ele><time>2026-04-26T08:21:50.166Z</time></trkpt><trkpt lat="43.1893846" lon="11.4715051"><ele>166.6</ele><time>2026-04-26T08:21:51.161Z</time></trkpt><trkpt lat="43.1893181" lon="11.4715978"><ele>167.0</ele><time>2026-04-26T08:21:52.18Z</time></trkpt><trkpt lat="43.1892556" lon="11.4716971"><ele>167.0</ele><time>2026-04-26T08:21:53.176Z</time></trkpt><trkpt lat="43.1892022" lon="11.4718058"><ele>167.0</ele><time>2026-04-26T08:21:54.182Z</time></trkpt><trkpt lat="43.1891575" lon="11.471926"><ele>167.0</ele><time>2026-04-26T08:21:55.17Z</time></trkpt><trkpt lat="43.1891183" lon="11.4720576"><ele>167.0</ele><time>2026-04-26T08:21:56.177Z</time></trkpt><trkpt lat="43.1890805" lon="11.4721982"><ele>167.0</ele><time>2026-04-26T08:21:57.174Z</time></trkpt><trkpt lat="43.1890418" lon="11.472341"><ele>166.6</ele><time>2026-04-26T08:21:58.171Z</time></trkpt><trkpt lat="43.1890031" lon="11.472485"><ele>166.2</ele><time>2026-04-26T08:21:59.17Z</time></trkpt><trkpt lat="43.1889611" lon="11.4726184"><ele>165.8</ele><time>2026-04-26T08:22:00.167Z</time></trkpt><trkpt lat="43.1889171" lon="11.4727392"><ele>165.4</ele><time>2026-04-26T08:22:01.177Z</time></trkpt><trkpt lat="43.1888708" lon="11.4728512"><ele>165.0</ele><time>2026-04-26T08:22:02.182Z</time></trkpt><trkpt lat="43.1888256" lon="11.4729527"><ele>165.0</ele><time>2026-04-26T08:22:03.167Z</time></trkpt><trkpt lat="43.1887821" lon="11.4730498"><ele>165.0</ele><time>2026-04-26T08:22:04.185Z</time></trkpt><trkpt lat="43.1887423" lon="11.4731486"><ele>165.0</ele><time>2026-04-26T08:22:05.186Z</time></trkpt><trkpt lat="43.1887035" lon="11.4732544"><ele>165.0</ele><time>2026-04-26T08:22:06.167Z</time></trkpt><trkpt lat="43.1886639" lon="11.4733648"><ele>165.0</ele><time>2026-04-26T08:22:07.17Z</time></trkpt><trkpt lat="43.1886283" lon="11.4734748"><ele>165.0</ele><time>2026-04-26T08:22:08.162Z</time></trkpt><trkpt lat="43.1885926" lon="11.4735823"><ele>165.0</ele><time>2026-04-26T08:22:09.179Z</time></trkpt><trkpt lat="43.1885571" lon="11.4736871"><ele>165.0</ele><time>2026-04-26T08:22:10.178Z</time></trkpt><trkpt lat="43.1885206" lon="11.4737888"><ele>165.0</ele><time>2026-04-26T08:22:11.181Z</time></trkpt><trkpt lat="43.1884793" lon="11.4738832"><ele>165.0</ele><time>2026-04-26T08:22:12.171Z</time></trkpt><trkpt lat="43.1884299" lon="11.4739713"><ele>165.0</ele><time>2026-04-26T08:22:13.173Z</time></trkpt><trkpt lat="43.1883688" lon="11.4740524"><ele>165.0</ele><time>2026-04-26T08:22:14.155Z</time></trkpt><trkpt lat="43.1882965" lon="11.4741241"><ele>165.0</ele><time>2026-04-26T08:22:15.184Z</time></trkpt><trkpt lat="43.1882184" lon="11.4741883"><ele>165.0</ele><time>2026-04-26T08:22:16.169Z</time></trkpt><trkpt lat="43.188141" lon="11.474247"><ele>165.0</ele><time>2026-04-26T08:22:17.187Z</time></trkpt><trkpt lat="43.1880711" lon="11.4743171"><ele>165.0</ele><time>2026-04-26T08:22:18.17Z</time></trkpt><trkpt lat="43.1880042" lon="11.4743866"><ele>165.0</ele><time>2026-04-26T08:22:19.168Z</time></trkpt><trkpt lat="43.1879625" lon="11.4744843"><ele>165.0</ele><time>2026-04-26T08:22:20.168Z</time></trkpt><trkpt lat="43.1879332" lon="11.4745865"><ele>164.0</ele><time>2026-04-26T08:22:21.173Z</time></trkpt><trkpt lat="43.1879067" lon="11.4746844"><ele>163.0</ele><time>2026-04-26T08:22:22.163Z</time></trkpt><trkpt lat="43.1878745" lon="11.4747776"><ele>162.0</ele><time>2026-04-26T08:22:23.187Z</time></trkpt><trkpt lat="43.1878356" lon="11.4748501"><ele>161.0</ele><time>2026-04-26T08:22:24.182Z</time></trkpt><trkpt lat="43.1877447" lon="11.4749482"><ele>160.0</ele><time>2026-04-26T08:22:26.179Z</time></trkpt><trkpt lat="43.1876295" lon="11.4749579"><ele>159.0</ele><time>2026-04-26T08:22:28.179Z</time></trkpt><trkpt lat="43.187566" lon="11.4749248"><ele>159.0</ele><time>2026-04-26T08:22:29.173Z</time></trkpt><trkpt lat="43.1875033" lon="11.4748832"><ele>159.0</ele><time>2026-04-26T08:22:30.183Z</time></trkpt><trkpt lat="43.1874454" lon="11.4748372"><ele>159.0</ele><time>2026-04-26T08:22:31.184Z</time></trkpt><trkpt lat="43.1873827" lon="11.4747971"><ele>159.0</ele><time>2026-04-26T08:22:32.177Z</time></trkpt><trkpt lat="43.1873166" lon="11.4747688"><ele>159.0</ele><time>2026-04-26T08:22:33.17Z</time></trkpt><trkpt lat="43.187245" lon="11.474754"><ele>159.0</ele><time>2026-04-26T08:22:34.172Z</time></trkpt><trkpt lat="43.1871643" lon="11.4747486"><ele>159.0</ele><time>2026-04-26T08:22:35.165Z</time></trkpt><trkpt lat="43.1870745" lon="11.4747517"><ele>158.2</ele><time>2026-04-26T08:22:36.166Z</time></trkpt><trkpt lat="43.186982" lon="11.4747618"><ele>157.4</ele><time>2026-04-26T08:22:37.184Z</time></trkpt><trkpt lat="43.1868878" lon="11.4747766"><ele>156.6</ele><time>2026-04-26T08:22:38.173Z</time></trkpt><trkpt lat="43.1867992" lon="11.4748047"><ele>155.8</ele><time>2026-04-26T08:22:39.174Z</time></trkpt><trkpt lat="43.1867012" lon="11.4748176"><ele>155.0</ele><time>2026-04-26T08:22:40.155Z</time></trkpt><trkpt lat="43.1866047" lon="11.4748225"><ele>154.8</ele><time>2026-04-26T08:22:41.174Z</time></trkpt><trkpt lat="43.1865093" lon="11.4748182"><ele>154.6</ele><time>2026-04-26T08:22:42.164Z</time></trkpt><trkpt lat="43.1864166" lon="11.4748115"><ele>154.4</ele><time>2026-04-26T08:22:43.181Z</time></trkpt><trkpt lat="43.1863261" lon="11.4748113"><ele>154.2</ele><time>2026-04-26T08:22:44.161Z</time></trkpt><trkpt lat="43.1862351" lon="11.4748113"><ele>154.0</ele><time>2026-04-26T08:22:45.175Z</time></trkpt><trkpt lat="43.1861428" lon="11.4748338"><ele>154.0</ele><time>2026-04-26T08:22:46.187Z</time></trkpt><trkpt lat="43.1860484" lon="11.4748694"><ele>154.0</ele><time>2026-04-26T08:22:47.165Z</time></trkpt><trkpt lat="43.1859522" lon="11.4749206"><ele>154.0</ele><time>2026-04-26T08:22:48.158Z</time></trkpt><trkpt lat="43.1858566" lon="11.4749848"><ele>154.0</ele><time>2026-04-26T08:22:49.169Z</time></trkpt><trkpt lat="43.1857613" lon="11.4750578"><ele>154.0</ele><time>2026-04-26T08:22:50.174Z</time></trkpt><trkpt lat="43.1856648" lon="11.4751376"><ele>154.0</ele><time>2026-04-26T08:22:51.167Z</time></trkpt><trkpt lat="43.1855689" lon="11.4752186"><ele>154.0</ele><time>2026-04-26T08:22:52.18Z</time></trkpt><trkpt lat="43.1854734" lon="11.4752996"><ele>154.0</ele><time>2026-04-26T08:22:53.179Z</time></trkpt><trkpt lat="43.1853775" lon="11.4753785"><ele>154.0</ele><time>2026-04-26T08:22:54.176Z</time></trkpt><trkpt lat="43.1852825" lon="11.475457"><ele>154.0</ele><time>2026-04-26T08:22:55.19Z</time></trkpt><trkpt lat="43.1851874" lon="11.475535"><ele>154.0</ele><time>2026-04-26T08:22:56.166Z</time></trkpt><trkpt lat="43.1850913" lon="11.475615"><ele>154.0</ele><time>2026-04-26T08:22:57.173Z</time></trkpt><trkpt lat="43.1849955" lon="11.4756958"><ele>154.0</ele><time>2026-04-26T08:22:58.185Z</time></trkpt><trkpt lat="43.1849013" lon="11.4757751"><ele>154.0</ele><time>2026-04-26T08:22:59.163Z</time></trkpt><trkpt lat="43.1848104" lon="11.4758512"><ele>154.0</ele><time>2026-04-26T08:23:00.179Z</time></trkpt><trkpt lat="43.1847209" lon="11.4759258"><ele>154.0</ele><time>2026-04-26T08:23:01.18Z</time></trkpt><trkpt lat="43.1846307" lon="11.4760016"><ele>154.0</ele><time>2026-04-26T08:23:02.174Z</time></trkpt><trkpt lat="43.184537" lon="11.4760769"><ele>154.0</ele><time>2026-04-26T08:23:03.174Z</time></trkpt><trkpt lat="43.1844404" lon="11.4761551"><ele>154.0</ele><time>2026-04-26T08:23:04.168Z</time></trkpt><trkpt lat="43.1843409" lon="11.4762346"><ele>154.0</ele><time>2026-04-26T08:23:05.183Z</time></trkpt><trkpt lat="43.1842392" lon="11.4763134"><ele>154.0</ele><time>2026-04-26T08:23:06.164Z</time></trkpt><trkpt lat="43.1841369" lon="11.4763933"><ele>154.0</ele><time>2026-04-26T08:23:07.177Z</time></trkpt><trkpt lat="43.1840352" lon="11.4764743"><ele>154.0</ele><time>2026-04-26T08:23:08.168Z</time></trkpt><trkpt lat="43.1839361" lon="11.4765546"><ele>154.0</ele><time>2026-04-26T08:23:09.171Z</time></trkpt><trkpt lat="43.1838396" lon="11.4766328"><ele>153.8</ele><time>2026-04-26T08:23:10.178Z</time></trkpt><trkpt lat="43.1837435" lon="11.4767093"><ele>153.60000000000002</ele><time>2026-04-26T08:23:11.174Z</time></trkpt><trkpt lat="43.1836467" lon="11.4767853"><ele>153.4</ele><time>2026-04-26T08:23:12.17Z</time></trkpt><trkpt lat="43.1835515" lon="11.4768616"><ele>153.20000000000002</ele><time>2026-04-26T08:23:13.168Z</time></trkpt><trkpt lat="43.183458" lon="11.4769376"><ele>153.0</ele><time>2026-04-26T08:23:14.172Z</time></trkpt><trkpt lat="43.1833663" lon="11.4770143"><ele>153.0</ele><time>2026-04-26T08:23:15.18Z</time></trkpt><trkpt lat="43.1832748" lon="11.4770934"><ele>153.0</ele><time>2026-04-26T08:23:16.183Z</time></trkpt><trkpt lat="43.1831837" lon="11.4771707"><ele>153.0</ele><time>2026-04-26T08:23:17.182Z</time></trkpt><trkpt lat="43.1830919" lon="11.4772449"><ele>153.0</ele><time>2026-04-26T08:23:18.182Z</time></trkpt><trkpt lat="43.1830002" lon="11.4773194"><ele>153.0</ele><time>2026-04-26T08:23:19.18Z</time></trkpt><trkpt lat="43.182909" lon="11.4773939"><ele>153.4</ele><time>2026-04-26T08:23:20.174Z</time></trkpt><trkpt lat="43.1828198" lon="11.4774702"><ele>153.8</ele><time>2026-04-26T08:23:21.185Z</time></trkpt><trkpt lat="43.182733" lon="11.4775456"><ele>154.2</ele><time>2026-04-26T08:23:22.18Z</time></trkpt><trkpt lat="43.1826477" lon="11.4776186"><ele>154.6</ele><time>2026-04-26T08:23:23.173Z</time></trkpt><trkpt lat="43.1825646" lon="11.4776887"><ele>155.0</ele><time>2026-04-26T08:23:24.185Z</time></trkpt><trkpt lat="43.1824838" lon="11.4777512"><ele>155.0</ele><time>2026-04-26T08:23:25.176Z</time></trkpt><trkpt lat="43.1824072" lon="11.4777945"><ele>155.0</ele><time>2026-04-26T08:23:26.179Z</time></trkpt><trkpt lat="43.1823264" lon="11.4778111"><ele>155.0</ele><time>2026-04-26T08:23:27.173Z</time></trkpt><trkpt lat="43.1822327" lon="11.4777943"><ele>155.0</ele><time>2026-04-26T08:23:28.166Z</time></trkpt><trkpt lat="43.1821267" lon="11.4777597"><ele>155.0</ele><time>2026-04-26T08:23:29.176Z</time></trkpt><trkpt lat="43.1820189" lon="11.477724"><ele>155.25</ele><time>2026-04-26T08:23:30.178Z</time></trkpt><trkpt lat="43.1819057" lon="11.4776882"><ele>155.5</ele><time>2026-04-26T08:23:31.182Z</time></trkpt><trkpt lat="43.1817938" lon="11.4776549"><ele>155.75</ele><time>2026-04-26T08:23:32.168Z</time></trkpt><trkpt lat="43.1816855" lon="11.4776236"><ele>156.0</ele><time>2026-04-26T08:23:33.178Z</time></trkpt><trkpt lat="43.1815793" lon="11.4775928"><ele>156.0</ele><time>2026-04-26T08:23:34.17Z</time></trkpt><trkpt lat="43.1814766" lon="11.4775643"><ele>156.0</ele><time>2026-04-26T08:23:35.186Z</time></trkpt><trkpt lat="43.1813767" lon="11.4775366"><ele>156.0</ele><time>2026-04-26T08:23:36.176Z</time></trkpt><trkpt lat="43.1812769" lon="11.477508"><ele>156.0</ele><time>2026-04-26T08:23:37.178Z</time></trkpt><trkpt lat="43.1811789" lon="11.4774828"><ele>156.0</ele><time>2026-04-26T08:23:38.163Z</time></trkpt><trkpt lat="43.1810827" lon="11.4774597"><ele>156.0</ele><time>2026-04-26T08:23:39.169Z</time></trkpt><trkpt lat="43.180986" lon="11.4774368"><ele>156.0</ele><time>2026-04-26T08:23:40.166Z</time></trkpt><trkpt lat="43.180888" lon="11.4774125"><ele>156.0</ele><time>2026-04-26T08:23:41.176Z</time></trkpt><trkpt lat="43.1807887" lon="11.4773903"><ele>156.0</ele><time>2026-04-26T08:23:42.178Z</time></trkpt><trkpt lat="43.1806887" lon="11.4773718"><ele>156.0</ele><time>2026-04-26T08:23:43.168Z</time></trkpt><trkpt lat="43.1805889" lon="11.477355"><ele>155.8</ele><time>2026-04-26T08:23:44.161Z</time></trkpt><trkpt lat="43.1804896" lon="11.477338"><ele>155.6</ele><time>2026-04-26T08:23:45.167Z</time></trkpt><trkpt lat="43.1803915" lon="11.4773163"><ele>155.4</ele><time>2026-04-26T08:23:46.163Z</time></trkpt><trkpt lat="43.1802935" lon="11.4772907"><ele>155.2</ele><time>2026-04-26T08:23:47.176Z</time></trkpt><trkpt lat="43.1801938" lon="11.4772647"><ele>155.0</ele><time>2026-04-26T08:23:48.168Z</time></trkpt><trkpt lat="43.1800948" lon="11.4772343"><ele>155.0</ele><time>2026-04-26T08:23:49.168Z</time></trkpt><trkpt lat="43.1799914" lon="11.4772059"><ele>155.0</ele><time>2026-04-26T08:23:50.18Z</time></trkpt><trkpt lat="43.179887" lon="11.4771759"><ele>155.0</ele><time>2026-04-26T08:23:51.175Z</time></trkpt><trkpt lat="43.1797835" lon="11.4771478"><ele>155.0</ele><time>2026-04-26T08:23:52.163Z</time></trkpt><trkpt lat="43.1796797" lon="11.4771211"><ele>155.0</ele><time>2026-04-26T08:23:53.18Z</time></trkpt><trkpt lat="43.1795769" lon="11.4770965"><ele>154.8</ele><time>2026-04-26T08:23:54.167Z</time></trkpt><trkpt lat="43.1794744" lon="11.4770755"><ele>154.6</ele><time>2026-04-26T08:23:55.181Z</time></trkpt><trkpt lat="43.1793727" lon="11.4770616"><ele>154.4</ele><time>2026-04-26T08:23:56.173Z</time></trkpt><trkpt lat="43.1792701" lon="11.4770596"><ele>154.2</ele><time>2026-04-26T08:23:57.169Z</time></trkpt><trkpt lat="43.1791666" lon="11.4770597"><ele>154.0</ele><time>2026-04-26T08:23:58.168Z</time></trkpt><trkpt lat="43.1790573" lon="11.4770835"><ele>154.6</ele><time>2026-04-26T08:23:59.168Z</time></trkpt><trkpt lat="43.1789478" lon="11.4771085"><ele>155.2</ele><time>2026-04-26T08:24:00.185Z</time></trkpt><trkpt lat="43.1788437" lon="11.4771426"><ele>155.79999999999998</ele><time>2026-04-26T08:24:01.176Z</time></trkpt><trkpt lat="43.1787423" lon="11.4771737"><ele>156.4</ele><time>2026-04-26T08:24:02.171Z</time></trkpt><trkpt lat="43.1786411" lon="11.4772013"><ele>157.0</ele><time>2026-04-26T08:24:03.167Z</time></trkpt><trkpt lat="43.1785435" lon="11.477227"><ele>157.0</ele><time>2026-04-26T08:24:04.188Z</time></trkpt><trkpt lat="43.1784517" lon="11.4772516"><ele>157.0</ele><time>2026-04-26T08:24:05.176Z</time></trkpt><trkpt lat="43.17836" lon="11.4772748"><ele>157.0</ele><time>2026-04-26T08:24:06.187Z</time></trkpt><trkpt lat="43.1782669" lon="11.477295"><ele>157.0</ele><time>2026-04-26T08:24:07.167Z</time></trkpt><trkpt lat="43.1781749" lon="11.4773111"><ele>157.0</ele><time>2026-04-26T08:24:08.175Z</time></trkpt><trkpt lat="43.1780823" lon="11.4773252"><ele>157.8</ele><time>2026-04-26T08:24:09.182Z</time></trkpt><trkpt lat="43.1779873" lon="11.47734"><ele>158.6</ele><time>2026-04-26T08:24:10.185Z</time></trkpt><trkpt lat="43.1778909" lon="11.4773538"><ele>159.4</ele><time>2026-04-26T08:24:11.171Z</time></trkpt><trkpt lat="43.1777942" lon="11.4773673"><ele>160.20000000000002</ele><time>2026-04-26T08:24:12.163Z</time></trkpt><trkpt lat="43.1776962" lon="11.4773815"><ele>161.0</ele><time>2026-04-26T08:24:13.162Z</time></trkpt><trkpt lat="43.1775985" lon="11.4773964"><ele>161.0</ele><time>2026-04-26T08:24:14.185Z</time></trkpt><trkpt lat="43.1775025" lon="11.4774117"><ele>161.0</ele><time>2026-04-26T08:24:15.166Z</time></trkpt><trkpt lat="43.1774081" lon="11.477426"><ele>161.0</ele><time>2026-04-26T08:24:16.182Z</time></trkpt><trkpt lat="43.1773148" lon="11.4774402"><ele>161.0</ele><time>2026-04-26T08:24:17.175Z</time></trkpt><trkpt lat="43.1772218" lon="11.4774573"><ele>161.0</ele><time>2026-04-26T08:24:18.186Z</time></trkpt><trkpt lat="43.1771324" lon="11.4774765"><ele>162.33333333333331</ele><time>2026-04-26T08:24:19.175Z</time></trkpt><trkpt lat="43.1770471" lon="11.4774983"><ele>163.66666666666666</ele><time>2026-04-26T08:24:20.172Z</time></trkpt><trkpt lat="43.1769684" lon="11.4775264"><ele>165.0</ele><time>2026-04-26T08:24:21.182Z</time></trkpt><trkpt lat="43.1768917" lon="11.4775553"><ele>166.33333333333334</ele><time>2026-04-26T08:24:22.17Z</time></trkpt><trkpt lat="43.1768274" lon="11.4776158"><ele>167.66666666666669</ele><time>2026-04-26T08:24:23.159Z</time></trkpt><trkpt lat="43.1767752" lon="11.4777031"><ele>169.0</ele><time>2026-04-26T08:24:24.183Z</time></trkpt><trkpt lat="43.1767382" lon="11.4778068"><ele>169.0</ele><time>2026-04-26T08:24:25.165Z</time></trkpt><trkpt lat="43.1767133" lon="11.4779312"><ele>169.0</ele><time>2026-04-26T08:24:26.166Z</time></trkpt><trkpt lat="43.1766944" lon="11.4780584"><ele>169.0</ele><time>2026-04-26T08:24:27.18Z</time></trkpt><trkpt lat="43.1766781" lon="11.4781877"><ele>169.0</ele><time>2026-04-26T08:24:28.17Z</time></trkpt><trkpt lat="43.1766674" lon="11.4783192"><ele>169.0</ele><time>2026-04-26T08:24:29.173Z</time></trkpt><trkpt lat="43.1766606" lon="11.4784471"><ele>171.0</ele><time>2026-04-26T08:24:30.166Z</time></trkpt><trkpt lat="43.176659" lon="11.4785748"><ele>173.0</ele><time>2026-04-26T08:24:31.183Z</time></trkpt><trkpt lat="43.1766639" lon="11.4786996"><ele>175.0</ele><time>2026-04-26T08:24:32.186Z</time></trkpt><trkpt lat="43.1766746" lon="11.4788224"><ele>177.0</ele><time>2026-04-26T08:24:33.169Z</time></trkpt><trkpt lat="43.1766884" lon="11.4789453"><ele>179.0</ele><time>2026-04-26T08:24:34.183Z</time></trkpt><trkpt lat="43.1767011" lon="11.4790648"><ele>180.6</ele><time>2026-04-26T08:24:35.186Z</time></trkpt><trkpt lat="43.1767072" lon="11.4791851"><ele>182.2</ele><time>2026-04-26T08:24:36.184Z</time></trkpt><trkpt lat="43.1767019" lon="11.4793087"><ele>183.79999999999998</ele><time>2026-04-26T08:24:37.164Z</time></trkpt><trkpt lat="43.1766817" lon="11.4794343"><ele>185.39999999999998</ele><time>2026-04-26T08:24:38.18Z</time></trkpt><trkpt lat="43.1766454" lon="11.4795573"><ele>187.0</ele><time>2026-04-26T08:24:39.165Z</time></trkpt><trkpt lat="43.1765934" lon="11.4796714"><ele>188.0</ele><time>2026-04-26T08:24:40.176Z</time></trkpt><trkpt lat="43.1765317" lon="11.4797748"><ele>189.0</ele><time>2026-04-26T08:24:41.168Z</time></trkpt><trkpt lat="43.1764679" lon="11.4798653"><ele>190.0</ele><time>2026-04-26T08:24:42.18Z</time></trkpt><trkpt lat="43.1764053" lon="11.4799456"><ele>191.0</ele><time>2026-04-26T08:24:43.177Z</time></trkpt><trkpt lat="43.1763466" lon="11.4800189"><ele>191.99999999999997</ele><time>2026-04-26T08:24:44.177Z</time></trkpt><trkpt lat="43.176295" lon="11.4800905"><ele>193.0</ele><time>2026-04-26T08:24:45.184Z</time></trkpt><trkpt lat="43.1762533" lon="11.4801636"><ele>192.99999999999997</ele><time>2026-04-26T08:24:46.18Z</time></trkpt><trkpt lat="43.1762211" lon="11.4802465"><ele>193.0</ele><time>2026-04-26T08:24:47.176Z</time></trkpt><trkpt lat="43.176199" lon="11.4803403"><ele>193.0</ele><time>2026-04-26T08:24:48.163Z</time></trkpt><trkpt lat="43.1761838" lon="11.4804415"><ele>193.0</ele><time>2026-04-26T08:24:49.18Z</time></trkpt><trkpt lat="43.1761713" lon="11.4805508"><ele>192.99999999999997</ele><time>2026-04-26T08:24:50.184Z</time></trkpt><trkpt lat="43.1761593" lon="11.4806673"><ele>193.0</ele><time>2026-04-26T08:24:51.166Z</time></trkpt><trkpt lat="43.1761468" lon="11.4807879"><ele>193.83333333333331</ele><time>2026-04-26T08:24:52.17Z</time></trkpt><trkpt lat="43.1761315" lon="11.4809058"><ele>194.66666666666666</ele><time>2026-04-26T08:24:53.171Z</time></trkpt><trkpt lat="43.1761141" lon="11.4810219"><ele>195.5</ele><time>2026-04-26T08:24:54.171Z</time></trkpt><trkpt lat="43.176095" lon="11.4811318"><ele>196.33333333333331</ele><time>2026-04-26T08:24:55.179Z</time></trkpt><trkpt lat="43.1760724" lon="11.4812356"><ele>197.16666666666666</ele><time>2026-04-26T08:24:56.18Z</time></trkpt><trkpt lat="43.1760437" lon="11.4813351"><ele>198.0</ele><time>2026-04-26T08:24:57.171Z</time></trkpt><trkpt lat="43.1760081" lon="11.4814275"><ele>197.57142857142858</ele><time>2026-04-26T08:24:58.174Z</time></trkpt><trkpt lat="43.1759599" lon="11.4815093"><ele>197.14285714285714</ele><time>2026-04-26T08:24:59.173Z</time></trkpt><trkpt lat="43.1759027" lon="11.4815745"><ele>196.71428571428572</ele><time>2026-04-26T08:25:00.169Z</time></trkpt><trkpt lat="43.1758453" lon="11.4816342"><ele>196.28571428571428</ele><time>2026-04-26T08:25:01.172Z</time></trkpt><trkpt lat="43.1757916" lon="11.4817004"><ele>195.85714285714283</ele><time>2026-04-26T08:25:02.177Z</time></trkpt><trkpt lat="43.1757367" lon="11.4817691"><ele>195.42857142857142</ele><time>2026-04-26T08:25:03.171Z</time></trkpt><trkpt lat="43.1757032" lon="11.4818603"><ele>195.0</ele><time>2026-04-26T08:25:04.187Z</time></trkpt><trkpt lat="43.1756821" lon="11.4819636"><ele>195.0</ele><time>2026-04-26T08:25:05.173Z</time></trkpt><trkpt lat="43.1756641" lon="11.4820732"><ele>195.0</ele><time>2026-04-26T08:25:06.172Z</time></trkpt><trkpt lat="43.1756475" lon="11.4821874"><ele>195.0</ele><time>2026-04-26T08:25:07.184Z</time></trkpt><trkpt lat="43.175633" lon="11.4822889"><ele>195.0</ele><time>2026-04-26T08:25:08.169Z</time></trkpt><trkpt lat="43.1756226" lon="11.4823783"><ele>195.0</ele><time>2026-04-26T08:25:09.182Z</time></trkpt><trkpt lat="43.1756178" lon="11.4824658"><ele>195.0</ele><time>2026-04-26T08:25:10.171Z</time></trkpt><trkpt lat="43.1756237" lon="11.4825518"><ele>195.0</ele><time>2026-04-26T08:25:11.167Z</time></trkpt><trkpt lat="43.1756768" lon="11.4827066"><ele>198.5</ele><time>2026-04-26T08:25:13.186Z</time></trkpt><trkpt lat="43.1757157" lon="11.4827824"><ele>202.0</ele><time>2026-04-26T08:25:14.18Z</time></trkpt><trkpt lat="43.1757527" lon="11.4828605"><ele>205.5</ele><time>2026-04-26T08:25:15.181Z</time></trkpt><trkpt lat="43.175761" lon="11.4829658"><ele>209.0</ele><time>2026-04-26T08:25:16.179Z</time></trkpt><trkpt lat="43.1757668" lon="11.4830714"><ele>212.5</ele><time>2026-04-26T08:25:17.163Z</time></trkpt><trkpt lat="43.1757734" lon="11.483179"><ele>216.0</ele><time>2026-04-26T08:25:18.171Z</time></trkpt><trkpt lat="43.1757814" lon="11.4833014"><ele>216.83333333333334</ele><time>2026-04-26T08:25:19.16Z</time></trkpt><trkpt lat="43.1757901" lon="11.4834249"><ele>217.66666666666669</ele><time>2026-04-26T08:25:20.177Z</time></trkpt><trkpt lat="43.1757957" lon="11.4835396"><ele>218.5</ele><time>2026-04-26T08:25:21.17Z</time></trkpt><trkpt lat="43.175803" lon="11.4836517"><ele>219.33333333333334</ele><time>2026-04-26T08:25:22.178Z</time></trkpt><trkpt lat="43.175812" lon="11.4837587"><ele>220.16666666666669</ele><time>2026-04-26T08:25:23.178Z</time></trkpt><trkpt lat="43.1758201" lon="11.4838624"><ele>221.0</ele><time>2026-04-26T08:25:24.174Z</time></trkpt><trkpt lat="43.175828" lon="11.4839658"><ele>222.14285714285717</ele><time>2026-04-26T08:25:25.168Z</time></trkpt><trkpt lat="43.1758286" lon="11.4840694"><ele>223.28571428571428</ele><time>2026-04-26T08:25:26.182Z</time></trkpt><trkpt lat="43.1758282" lon="11.4841708"><ele>224.42857142857144</ele><time>2026-04-26T08:25:27.16Z</time></trkpt><trkpt lat="43.1758141" lon="11.4842656"><ele>225.57142857142858</ele><time>2026-04-26T08:25:28.175Z</time></trkpt><trkpt lat="43.1757834" lon="11.4843577"><ele>226.71428571428572</ele><time>2026-04-26T08:25:29.166Z</time></trkpt><trkpt lat="43.1757457" lon="11.4844469"><ele>227.85714285714286</ele><time>2026-04-26T08:25:30.176Z</time></trkpt><trkpt lat="43.1757022" lon="11.4845268"><ele>229.0</ele><time>2026-04-26T08:25:31.174Z</time></trkpt><trkpt lat="43.1756599" lon="11.4846062"><ele>228.99999999999997</ele><time>2026-04-26T08:25:32.173Z</time></trkpt><trkpt lat="43.1756197" lon="11.4846795"><ele>229.0</ele><time>2026-04-26T08:25:33.175Z</time></trkpt><trkpt lat="43.1755492" lon="11.484807"><ele>229.0</ele><time>2026-04-26T08:25:35.184Z</time></trkpt><trkpt lat="43.1754922" lon="11.4849136"><ele>229.0</ele><time>2026-04-26T08:25:37.163Z</time></trkpt><trkpt lat="43.1754439" lon="11.4849827"><ele>228.99999999999997</ele><time>2026-04-26T08:25:39.178Z</time></trkpt><trkpt lat="43.1753634" lon="11.4850109"><ele>229.0</ele><time>2026-04-26T08:25:42.174Z</time></trkpt><trkpt lat="43.1752705" lon="11.484957"><ele>228.99999999999997</ele><time>2026-04-26T08:25:44.178Z</time></trkpt><trkpt lat="43.1752135" lon="11.4849167"><ele>229.0</ele><time>2026-04-26T08:25:45.175Z</time></trkpt><trkpt lat="43.1751488" lon="11.4848685"><ele>229.0</ele><time>2026-04-26T08:25:46.178Z</time></trkpt><trkpt lat="43.1750759" lon="11.4848224"><ele>229.0</ele><time>2026-04-26T08:25:47.173Z</time></trkpt><trkpt lat="43.1750034" lon="11.484777"><ele>228.99999999999997</ele><time>2026-04-26T08:25:48.175Z</time></trkpt><trkpt lat="43.1749323" lon="11.4847295"><ele>229.0</ele><time>2026-04-26T08:25:49.168Z</time></trkpt><trkpt lat="43.1748649" lon="11.4846849"><ele>229.0</ele><time>2026-04-26T08:25:50.178Z</time></trkpt><trkpt lat="43.1748006" lon="11.4846408"><ele>229.0</ele><time>2026-04-26T08:25:51.176Z</time></trkpt><trkpt lat="43.1747351" lon="11.4846045"><ele>229.0</ele><time>2026-04-26T08:25:52.175Z</time></trkpt><trkpt lat="43.1746735" lon="11.4845693"><ele>229.0</ele><time>2026-04-26T08:25:53.182Z</time></trkpt><trkpt lat="43.1746077" lon="11.4845318"><ele>229.0</ele><time>2026-04-26T08:25:54.168Z</time></trkpt><trkpt lat="43.1745407" lon="11.484492"><ele>229.0</ele><time>2026-04-26T08:25:55.163Z</time></trkpt><trkpt lat="43.1744744" lon="11.4844563"><ele>229.0</ele><time>2026-04-26T08:25:56.174Z</time></trkpt><trkpt lat="43.1744102" lon="11.4844203"><ele>228.99999999999997</ele><time>2026-04-26T08:25:57.163Z</time></trkpt><trkpt lat="43.1743396" lon="11.4843902"><ele>229.0</ele><time>2026-04-26T08:25:58.186Z</time></trkpt><trkpt lat="43.1742663" lon="11.4843628"><ele>229.0</ele><time>2026-04-26T08:25:59.164Z</time></trkpt><trkpt lat="43.174173" lon="11.4843493"><ele>229.0</ele><time>2026-04-26T08:26:00.177Z</time></trkpt><trkpt lat="43.1740702" lon="11.4843224"><ele>228.99999999999997</ele><time>2026-04-26T08:26:01.165Z</time></trkpt><trkpt lat="43.1739754" lon="11.4842999"><ele>229.0</ele><time>2026-04-26T08:26:02.18Z</time></trkpt><trkpt lat="43.173888" lon="11.4842777"><ele>229.0</ele><time>2026-04-26T08:26:03.171Z</time></trkpt><trkpt lat="43.1738091" lon="11.4842591"><ele>229.0</ele><time>2026-04-26T08:26:04.172Z</time></trkpt><trkpt lat="43.1737326" lon="11.4842415"><ele>229.0</ele><time>2026-04-26T08:26:05.17Z</time></trkpt><trkpt lat="43.1736616" lon="11.4842164"><ele>229.0</ele><time>2026-04-26T08:26:06.17Z</time></trkpt><trkpt lat="43.1735921" lon="11.4841925"><ele>229.0</ele><time>2026-04-26T08:26:07.164Z</time></trkpt><trkpt lat="43.1735253" lon="11.484169"><ele>229.0</ele><time>2026-04-26T08:26:08.181Z</time></trkpt><trkpt lat="43.1734593" lon="11.4841451"><ele>229.0</ele><time>2026-04-26T08:26:09.175Z</time></trkpt><trkpt lat="43.1733441" lon="11.4841031"><ele>229.0</ele><time>2026-04-26T08:26:11.16Z</time></trkpt><trkpt lat="43.1732279" lon="11.4840546"><ele>228.99999999999997</ele><time>2026-04-26T08:26:13.176Z</time></trkpt><trkpt lat="43.1731057" lon="11.4840072"><ele>228.99999999999997</ele><time>2026-04-26T08:26:15.179Z</time></trkpt><trkpt lat="43.1730405" lon="11.4839826"><ele>229.0</ele><time>2026-04-26T08:26:16.172Z</time></trkpt><trkpt lat="43.1729725" lon="11.4839576"><ele>229.0</ele><time>2026-04-26T08:26:17.17Z</time></trkpt><trkpt lat="43.1728929" lon="11.4839276"><ele>228.33333333333331</ele><time>2026-04-26T08:26:18.173Z</time></trkpt><trkpt lat="43.1728136" lon="11.4838934"><ele>227.66666666666666</ele><time>2026-04-26T08:26:19.169Z</time></trkpt><trkpt lat="43.1727278" lon="11.4838646"><ele>227.0</ele><time>2026-04-26T08:26:20.172Z</time></trkpt><trkpt lat="43.1726475" lon="11.4838359"><ele>226.33333333333331</ele><time>2026-04-26T08:26:21.163Z</time></trkpt><trkpt lat="43.1725729" lon="11.4838071"><ele>225.66666666666666</ele><time>2026-04-26T08:26:22.165Z</time></trkpt><trkpt lat="43.1725009" lon="11.4837699"><ele>225.0</ele><time>2026-04-26T08:26:23.165Z</time></trkpt><trkpt lat="43.1724233" lon="11.4837238"><ele>222.66666666666666</ele><time>2026-04-26T08:26:24.167Z</time></trkpt><trkpt lat="43.1723491" lon="11.4836738"><ele>220.33333333333331</ele><time>2026-04-26T08:26:25.164Z</time></trkpt><trkpt lat="43.1722736" lon="11.4836015"><ele>218.0</ele><time>2026-04-26T08:26:26.172Z</time></trkpt><trkpt lat="43.1722011" lon="11.4835284"><ele>215.66666666666666</ele><time>2026-04-26T08:26:27.164Z</time></trkpt><trkpt lat="43.1721292" lon="11.4834552"><ele>213.33333333333331</ele><time>2026-04-26T08:26:28.161Z</time></trkpt><trkpt lat="43.1720569" lon="11.4833806"><ele>211.0</ele><time>2026-04-26T08:26:29.167Z</time></trkpt><trkpt lat="43.1719858" lon="11.4833093"><ele>210.99999999999997</ele><time>2026-04-26T08:26:30.183Z</time></trkpt><trkpt lat="43.1719136" lon="11.4832347"><ele>211.0</ele><time>2026-04-26T08:26:31.158Z</time></trkpt><trkpt lat="43.1718427" lon="11.4831603"><ele>211.0</ele><time>2026-04-26T08:26:32.177Z</time></trkpt><trkpt lat="43.1717807" lon="11.4830868"><ele>211.0</ele><time>2026-04-26T08:26:33.171Z</time></trkpt><trkpt lat="43.1717209" lon="11.4829924"><ele>210.99999999999997</ele><time>2026-04-26T08:26:34.156Z</time></trkpt><trkpt lat="43.1716723" lon="11.4828828"><ele>211.0</ele><time>2026-04-26T08:26:35.161Z</time></trkpt><trkpt lat="43.1716262" lon="11.4827792"><ele>210.99999999999997</ele><time>2026-04-26T08:26:36.184Z</time></trkpt><trkpt lat="43.1715838" lon="11.4826853"><ele>211.0</ele><time>2026-04-26T08:26:37.181Z</time></trkpt><trkpt lat="43.1715474" lon="11.4825995"><ele>211.0</ele><time>2026-04-26T08:26:38.183Z</time></trkpt><trkpt lat="43.1715129" lon="11.482523"><ele>211.0</ele><time>2026-04-26T08:26:39.17Z</time></trkpt><trkpt lat="43.1714545" lon="11.4823899"><ele>210.99999999999997</ele><time>2026-04-26T08:26:41.183Z</time></trkpt><trkpt lat="43.1714003" lon="11.4822642"><ele>211.0</ele><time>2026-04-26T08:26:43.182Z</time></trkpt><trkpt lat="43.1713575" lon="11.4821468"><ele>209.66666666666666</ele><time>2026-04-26T08:26:45.175Z</time></trkpt><trkpt lat="43.171324" lon="11.4820203"><ele>208.33333333333331</ele><time>2026-04-26T08:26:47.172Z</time></trkpt><trkpt lat="43.1712936" lon="11.4818708"><ele>207.0</ele><time>2026-04-26T08:26:49.171Z</time></trkpt><trkpt lat="43.1712804" lon="11.4817805"><ele>205.66666666666669</ele><time>2026-04-26T08:26:50.173Z</time></trkpt><trkpt lat="43.1712687" lon="11.4816841"><ele>204.33333333333334</ele><time>2026-04-26T08:26:51.168Z</time></trkpt><trkpt lat="43.171253" lon="11.4815726"><ele>203.0</ele><time>2026-04-26T08:26:52.167Z</time></trkpt><trkpt lat="43.1712386" lon="11.4814638"><ele>203.0</ele><time>2026-04-26T08:26:53.186Z</time></trkpt><trkpt lat="43.1712216" lon="11.4813497"><ele>203.0</ele><time>2026-04-26T08:26:54.186Z</time></trkpt><trkpt lat="43.1712011" lon="11.4812279"><ele>203.0</ele><time>2026-04-26T08:26:55.16Z</time></trkpt><trkpt lat="43.1711822" lon="11.4811062"><ele>203.0</ele><time>2026-04-26T08:26:56.173Z</time></trkpt><trkpt lat="43.1711567" lon="11.4809714"><ele>203.0</ele><time>2026-04-26T08:26:57.184Z</time></trkpt><trkpt lat="43.1711341" lon="11.4808414"><ele>203.0</ele><time>2026-04-26T08:26:58.168Z</time></trkpt><trkpt lat="43.1711135" lon="11.4807193"><ele>203.0</ele><time>2026-04-26T08:26:59.183Z</time></trkpt><trkpt lat="43.1710911" lon="11.4805981"><ele>203.0</ele><time>2026-04-26T08:27:00.184Z</time></trkpt><trkpt lat="43.1710654" lon="11.4804705"><ele>203.0</ele><time>2026-04-26T08:27:01.182Z</time></trkpt><trkpt lat="43.1710343" lon="11.4803409"><ele>203.0</ele><time>2026-04-26T08:27:02.172Z</time></trkpt><trkpt lat="43.1710012" lon="11.4802212"><ele>203.16666666666669</ele><time>2026-04-26T08:27:03.188Z</time></trkpt><trkpt lat="43.1709694" lon="11.4801123"><ele>203.33333333333334</ele><time>2026-04-26T08:27:04.172Z</time></trkpt><trkpt lat="43.1709353" lon="11.4800101"><ele>203.5</ele><time>2026-04-26T08:27:05.185Z</time></trkpt><trkpt lat="43.1708966" lon="11.4799139"><ele>203.66666666666669</ele><time>2026-04-26T08:27:06.186Z</time></trkpt><trkpt lat="43.1708568" lon="11.4798162"><ele>203.83333333333334</ele><time>2026-04-26T08:27:07.166Z</time></trkpt><trkpt lat="43.1707933" lon="11.4797353"><ele>204.0</ele><time>2026-04-26T08:27:08.162Z</time></trkpt><trkpt lat="43.1707215" lon="11.4796673"><ele>203.39999999999998</ele><time>2026-04-26T08:27:09.178Z</time></trkpt><trkpt lat="43.1706458" lon="11.4796089"><ele>202.8</ele><time>2026-04-26T08:27:10.175Z</time></trkpt><trkpt lat="43.1705649" lon="11.4795589"><ele>202.2</ele><time>2026-04-26T08:27:11.163Z</time></trkpt><trkpt lat="43.1704831" lon="11.4795107"><ele>201.60000000000002</ele><time>2026-04-26T08:27:12.192Z</time></trkpt><trkpt lat="43.1703944" lon="11.4794719"><ele>201.0</ele><time>2026-04-26T08:27:13.175Z</time></trkpt><trkpt lat="43.1703034" lon="11.4794353"><ele>201.0</ele><time>2026-04-26T08:27:14.181Z</time></trkpt><trkpt lat="43.1702115" lon="11.4793997"><ele>201.0</ele><time>2026-04-26T08:27:15.171Z</time></trkpt><trkpt lat="43.1701203" lon="11.4793617"><ele>201.0</ele><time>2026-04-26T08:27:16.182Z</time></trkpt><trkpt lat="43.1700314" lon="11.4793072"><ele>201.0</ele><time>2026-04-26T08:27:17.164Z</time></trkpt><trkpt lat="43.1699427" lon="11.4792608"><ele>201.0</ele><time>2026-04-26T08:27:18.182Z</time></trkpt><trkpt lat="43.1698666" lon="11.4791731"><ele>200.0</ele><time>2026-04-26T08:27:19.167Z</time></trkpt><trkpt lat="43.1697964" lon="11.4790695"><ele>199.0</ele><time>2026-04-26T08:27:20.174Z</time></trkpt><trkpt lat="43.1697353" lon="11.4789544"><ele>198.0</ele><time>2026-04-26T08:27:21.164Z</time></trkpt><trkpt lat="43.169679" lon="11.4788379"><ele>197.0</ele><time>2026-04-26T08:27:22.182Z</time></trkpt><trkpt lat="43.1696239" lon="11.4787243"><ele>196.0</ele><time>2026-04-26T08:27:23.17Z</time></trkpt><trkpt lat="43.16957" lon="11.4786124"><ele>196.0</ele><time>2026-04-26T08:27:24.17Z</time></trkpt><trkpt lat="43.1695232" lon="11.4785012"><ele>196.0</ele><time>2026-04-26T08:27:25.174Z</time></trkpt><trkpt lat="43.1694687" lon="11.4783944"><ele>196.0</ele><time>2026-04-26T08:27:26.183Z</time></trkpt><trkpt lat="43.1694198" lon="11.4782834"><ele>196.0</ele><time>2026-04-26T08:27:27.164Z</time></trkpt><trkpt lat="43.1693512" lon="11.4781932"><ele>196.0</ele><time>2026-04-26T08:27:28.171Z</time></trkpt><trkpt lat="43.169279" lon="11.4781188"><ele>196.0</ele><time>2026-04-26T08:27:29.179Z</time></trkpt><trkpt lat="43.1692028" lon="11.4780587"><ele>196.0</ele><time>2026-04-26T08:27:30.185Z</time></trkpt><trkpt lat="43.1691225" lon="11.4780137"><ele>196.0</ele><time>2026-04-26T08:27:31.176Z</time></trkpt><trkpt lat="43.1690371" lon="11.4779788"><ele>196.0</ele><time>2026-04-26T08:27:32.185Z</time></trkpt><trkpt lat="43.1689478" lon="11.4779511"><ele>196.0</ele><time>2026-04-26T08:27:33.18Z</time></trkpt><trkpt lat="43.168854" lon="11.4779288"><ele>196.0</ele><time>2026-04-26T08:27:34.171Z</time></trkpt><trkpt lat="43.1687569" lon="11.4779089"><ele>196.0</ele><time>2026-04-26T08:27:35.161Z</time></trkpt><trkpt lat="43.168658" lon="11.4778912"><ele>196.0</ele><time>2026-04-26T08:27:36.165Z</time></trkpt><trkpt lat="43.168559" lon="11.4778717"><ele>196.0</ele><time>2026-04-26T08:27:37.185Z</time></trkpt><trkpt lat="43.1684612" lon="11.4778458"><ele>196.0</ele><time>2026-04-26T08:27:38.184Z</time></trkpt><trkpt lat="43.1683629" lon="11.4778214"><ele>196.0</ele><time>2026-04-26T08:27:39.189Z</time></trkpt><trkpt lat="43.1682643" lon="11.477797"><ele>196.0</ele><time>2026-04-26T08:27:40.18Z</time></trkpt><trkpt lat="43.1681662" lon="11.4777798"><ele>196.0</ele><time>2026-04-26T08:27:41.169Z</time></trkpt><trkpt lat="43.1680666" lon="11.477777"><ele>196.0</ele><time>2026-04-26T08:27:42.187Z</time></trkpt><trkpt lat="43.1679711" lon="11.4777755"><ele>196.0</ele><time>2026-04-26T08:27:43.172Z</time></trkpt><trkpt lat="43.1678745" lon="11.4777783"><ele>195.60000000000002</ele><time>2026-04-26T08:27:44.178Z</time></trkpt><trkpt lat="43.1677774" lon="11.4777809"><ele>195.2</ele><time>2026-04-26T08:27:45.164Z</time></trkpt><trkpt lat="43.1676782" lon="11.4777856"><ele>194.8</ele><time>2026-04-26T08:27:46.179Z</time></trkpt><trkpt lat="43.1675807" lon="11.477787"><ele>194.39999999999998</ele><time>2026-04-26T08:27:47.175Z</time></trkpt><trkpt lat="43.1674819" lon="11.477783"><ele>194.0</ele><time>2026-04-26T08:27:48.193Z</time></trkpt><trkpt lat="43.1673835" lon="11.4777686"><ele>193.79999999999998</ele><time>2026-04-26T08:27:49.176Z</time></trkpt><trkpt lat="43.167287" lon="11.4777528"><ele>193.6</ele><time>2026-04-26T08:27:50.173Z</time></trkpt><trkpt lat="43.1671972" lon="11.477716"><ele>193.4</ele><time>2026-04-26T08:27:51.174Z</time></trkpt><trkpt lat="43.1671159" lon="11.4776669"><ele>193.2</ele><time>2026-04-26T08:27:52.171Z</time></trkpt><trkpt lat="43.1670369" lon="11.4776049"><ele>193.0</ele><time>2026-04-26T08:27:53.172Z</time></trkpt><trkpt lat="43.1669654" lon="11.4775388"><ele>192.99999999999997</ele><time>2026-04-26T08:27:54.181Z</time></trkpt><trkpt lat="43.1668991" lon="11.4774728"><ele>193.0</ele><time>2026-04-26T08:27:55.184Z</time></trkpt><trkpt lat="43.1668351" lon="11.477406"><ele>193.0</ele><time>2026-04-26T08:27:56.172Z</time></trkpt><trkpt lat="43.1667735" lon="11.4773341"><ele>193.0</ele><time>2026-04-26T08:27:57.169Z</time></trkpt><trkpt lat="43.1667102" lon="11.4772615"><ele>192.99999999999997</ele><time>2026-04-26T08:27:58.177Z</time></trkpt><trkpt lat="43.1666418" lon="11.4771875"><ele>193.0</ele><time>2026-04-26T08:27:59.175Z</time></trkpt><trkpt lat="43.1665649" lon="11.4771164"><ele>192.60000000000002</ele><time>2026-04-26T08:28:00.18Z</time></trkpt><trkpt lat="43.1664793" lon="11.4770494"><ele>192.20000000000002</ele><time>2026-04-26T08:28:01.174Z</time></trkpt><trkpt lat="43.1663871" lon="11.4769822"><ele>191.8</ele><time>2026-04-26T08:28:02.173Z</time></trkpt><trkpt lat="43.1662913" lon="11.4769139"><ele>191.4</ele><time>2026-04-26T08:28:03.162Z</time></trkpt><trkpt lat="43.1661941" lon="11.4768474"><ele>191.0</ele><time>2026-04-26T08:28:04.167Z</time></trkpt><trkpt lat="43.1660987" lon="11.4767844"><ele>191.0</ele><time>2026-04-26T08:28:05.188Z</time></trkpt><trkpt lat="43.1660014" lon="11.4767217"><ele>191.0</ele><time>2026-04-26T08:28:06.185Z</time></trkpt><trkpt lat="43.165905" lon="11.4766587"><ele>191.0</ele><time>2026-04-26T08:28:07.185Z</time></trkpt><trkpt lat="43.1658046" lon="11.4765941"><ele>191.0</ele><time>2026-04-26T08:28:08.177Z</time></trkpt><trkpt lat="43.1657086" lon="11.4765269"><ele>191.0</ele><time>2026-04-26T08:28:09.18Z</time></trkpt><trkpt lat="43.1656179" lon="11.4764622"><ele>190.20000000000002</ele><time>2026-04-26T08:28:10.176Z</time></trkpt><trkpt lat="43.1655332" lon="11.4764048"><ele>189.4</ele><time>2026-04-26T08:28:11.173Z</time></trkpt><trkpt lat="43.1654509" lon="11.4763548"><ele>188.6</ele><time>2026-04-26T08:28:12.171Z</time></trkpt><trkpt lat="43.1653703" lon="11.4763059"><ele>187.8</ele><time>2026-04-26T08:28:13.164Z</time></trkpt><trkpt lat="43.1652826" lon="11.4762638"><ele>187.0</ele><time>2026-04-26T08:28:14.182Z</time></trkpt><trkpt lat="43.1651976" lon="11.4762245"><ele>187.0</ele><time>2026-04-26T08:28:15.17Z</time></trkpt><trkpt lat="43.1651035" lon="11.4761951"><ele>187.0</ele><time>2026-04-26T08:28:16.173Z</time></trkpt><trkpt lat="43.165004" lon="11.4761663"><ele>187.0</ele><time>2026-04-26T08:28:17.189Z</time></trkpt><trkpt lat="43.1649031" lon="11.476134"><ele>187.0</ele><time>2026-04-26T08:28:18.186Z</time></trkpt><trkpt lat="43.1648034" lon="11.4761037"><ele>187.0</ele><time>2026-04-26T08:28:19.187Z</time></trkpt><trkpt lat="43.1647109" lon="11.4760724"><ele>187.0</ele><time>2026-04-26T08:28:20.171Z</time></trkpt><trkpt lat="43.1646224" lon="11.4760434"><ele>187.0</ele><time>2026-04-26T08:28:21.176Z</time></trkpt><trkpt lat="43.1645319" lon="11.4760096"><ele>187.0</ele><time>2026-04-26T08:28:22.174Z</time></trkpt><trkpt lat="43.1644418" lon="11.475976"><ele>187.0</ele><time>2026-04-26T08:28:23.181Z</time></trkpt><trkpt lat="43.1643513" lon="11.4759253"><ele>187.0</ele><time>2026-04-26T08:28:24.174Z</time></trkpt><trkpt lat="43.1642603" lon="11.4758751"><ele>187.0</ele><time>2026-04-26T08:28:25.184Z</time></trkpt><trkpt lat="43.1641706" lon="11.4758246"><ele>187.0</ele><time>2026-04-26T08:28:26.171Z</time></trkpt><trkpt lat="43.1640879" lon="11.4757782"><ele>187.0</ele><time>2026-04-26T08:28:27.178Z</time></trkpt><trkpt lat="43.164013" lon="11.4757357"><ele>187.0</ele><time>2026-04-26T08:28:28.181Z</time></trkpt><trkpt lat="43.1639407" lon="11.4756896"><ele>187.0</ele><time>2026-04-26T08:28:29.177Z</time></trkpt><trkpt lat="43.1638675" lon="11.4756505"><ele>187.0</ele><time>2026-04-26T08:28:30.168Z</time></trkpt><trkpt lat="43.1637925" lon="11.4756149"><ele>187.0</ele><time>2026-04-26T08:28:31.18Z</time></trkpt><trkpt lat="43.1637165" lon="11.4755807"><ele>187.0</ele><time>2026-04-26T08:28:32.167Z</time></trkpt><trkpt lat="43.1636422" lon="11.4755506"><ele>187.0</ele><time>2026-04-26T08:28:33.188Z</time></trkpt><trkpt lat="43.1635717" lon="11.4755208"><ele>187.0</ele><time>2026-04-26T08:28:34.171Z</time></trkpt><trkpt lat="43.1635001" lon="11.4754918"><ele>187.0</ele><time>2026-04-26T08:28:35.166Z</time></trkpt><trkpt lat="43.1634245" lon="11.4754488"><ele>187.0</ele><time>2026-04-26T08:28:36.168Z</time></trkpt><trkpt lat="43.1633485" lon="11.4754112"><ele>187.5</ele><time>2026-04-26T08:28:37.18Z</time></trkpt><trkpt lat="43.1632735" lon="11.4753725"><ele>188.0</ele><time>2026-04-26T08:28:38.16Z</time></trkpt><trkpt lat="43.1631979" lon="11.4753318"><ele>188.5</ele><time>2026-04-26T08:28:39.184Z</time></trkpt><trkpt lat="43.1631179" lon="11.4752913"><ele>189.0</ele><time>2026-04-26T08:28:40.177Z</time></trkpt><trkpt lat="43.1630358" lon="11.4752509"><ele>189.5</ele><time>2026-04-26T08:28:41.183Z</time></trkpt><trkpt lat="43.1629563" lon="11.4752095"><ele>190.0</ele><time>2026-04-26T08:28:42.184Z</time></trkpt><trkpt lat="43.1628818" lon="11.4751656"><ele>190.0</ele><time>2026-04-26T08:28:43.174Z</time></trkpt><trkpt lat="43.1628051" lon="11.475118"><ele>190.0</ele><time>2026-04-26T08:28:44.179Z</time></trkpt><trkpt lat="43.1627307" lon="11.4750629"><ele>190.0</ele><time>2026-04-26T08:28:45.175Z</time></trkpt><trkpt lat="43.1626572" lon="11.4750153"><ele>190.0</ele><time>2026-04-26T08:28:46.186Z</time></trkpt><trkpt lat="43.1625799" lon="11.4749859"><ele>190.0</ele><time>2026-04-26T08:28:47.177Z</time></trkpt><trkpt lat="43.1625003" lon="11.4749661"><ele>190.0</ele><time>2026-04-26T08:28:48.166Z</time></trkpt><trkpt lat="43.1624157" lon="11.4749481"><ele>188.0</ele><time>2026-04-26T08:28:49.19Z</time></trkpt><trkpt lat="43.1623292" lon="11.4749339"><ele>186.0</ele><time>2026-04-26T08:28:50.175Z</time></trkpt><trkpt lat="43.1622401" lon="11.4749029"><ele>184.0</ele><time>2026-04-26T08:28:51.182Z</time></trkpt><trkpt lat="43.1621521" lon="11.4748416"><ele>182.0</ele><time>2026-04-26T08:28:52.178Z</time></trkpt><trkpt lat="43.1620777" lon="11.4747575"><ele>180.0</ele><time>2026-04-26T08:28:53.188Z</time></trkpt><trkpt lat="43.1620164" lon="11.4746546"><ele>180.5</ele><time>2026-04-26T08:28:54.173Z</time></trkpt><trkpt lat="43.1619739" lon="11.4745351"><ele>181.0</ele><time>2026-04-26T08:28:55.183Z</time></trkpt><trkpt lat="43.1619506" lon="11.4744087"><ele>181.5</ele><time>2026-04-26T08:28:56.173Z</time></trkpt><trkpt lat="43.1619413" lon="11.4742847"><ele>182.0</ele><time>2026-04-26T08:28:57.175Z</time></trkpt><trkpt lat="43.1619422" lon="11.4741701"><ele>182.5</ele><time>2026-04-26T08:28:58.172Z</time></trkpt><trkpt lat="43.161942" lon="11.4740657"><ele>183.0</ele><time>2026-04-26T08:28:59.175Z</time></trkpt><trkpt lat="43.161928" lon="11.4739589"><ele>183.0</ele><time>2026-04-26T08:29:00.177Z</time></trkpt><trkpt lat="43.1619057" lon="11.4738561"><ele>183.0</ele><time>2026-04-26T08:29:01.192Z</time></trkpt><trkpt lat="43.1618832" lon="11.4737602"><ele>183.0</ele><time>2026-04-26T08:29:02.194Z</time></trkpt><trkpt lat="43.1618609" lon="11.4736712"><ele>183.0</ele><time>2026-04-26T08:29:03.186Z</time></trkpt><trkpt lat="43.1618397" lon="11.47358"><ele>183.0</ele><time>2026-04-26T08:29:04.161Z</time></trkpt><trkpt lat="43.1618186" lon="11.4734892"><ele>183.0</ele><time>2026-04-26T08:29:05.168Z</time></trkpt><trkpt lat="43.1618168" lon="11.473387"><ele>183.0</ele><time>2026-04-26T08:29:06.167Z</time></trkpt><trkpt lat="43.1618266" lon="11.4732877"><ele>182.28571428571428</ele><time>2026-04-26T08:29:07.174Z</time></trkpt><trkpt lat="43.1618468" lon="11.4731944"><ele>181.57142857142858</ele><time>2026-04-26T08:29:08.184Z</time></trkpt><trkpt lat="43.161873" lon="11.4731053"><ele>180.85714285714283</ele><time>2026-04-26T08:29:09.17Z</time></trkpt><trkpt lat="43.161899" lon="11.4730176"><ele>180.14285714285714</ele><time>2026-04-26T08:29:10.183Z</time></trkpt><trkpt lat="43.1619355" lon="11.472938"><ele>179.42857142857142</ele><time>2026-04-26T08:29:11.167Z</time></trkpt><trkpt lat="43.1619759" lon="11.4728555"><ele>178.7142857142857</ele><time>2026-04-26T08:29:12.185Z</time></trkpt><trkpt lat="43.1620175" lon="11.472772"><ele>178.0</ele><time>2026-04-26T08:29:13.175Z</time></trkpt><trkpt lat="43.1620609" lon="11.472678"><ele>177.0</ele><time>2026-04-26T08:29:14.183Z</time></trkpt><trkpt lat="43.1621079" lon="11.4725811"><ele>176.0</ele><time>2026-04-26T08:29:15.18Z</time></trkpt><trkpt lat="43.162154" lon="11.4724846"><ele>175.0</ele><time>2026-04-26T08:29:16.18Z</time></trkpt><trkpt lat="43.1622024" lon="11.4723879"><ele>174.0</ele><time>2026-04-26T08:29:17.184Z</time></trkpt><trkpt lat="43.162253" lon="11.4722883"><ele>173.0</ele><time>2026-04-26T08:29:18.185Z</time></trkpt><trkpt lat="43.162304" lon="11.4721852"><ele>172.0</ele><time>2026-04-26T08:29:19.186Z</time></trkpt><trkpt lat="43.1623541" lon="11.4720816"><ele>171.16666666666669</ele><time>2026-04-26T08:29:20.178Z</time></trkpt><trkpt lat="43.1624044" lon="11.4719777"><ele>170.33333333333334</ele><time>2026-04-26T08:29:21.176Z</time></trkpt><trkpt lat="43.1624539" lon="11.4718772"><ele>169.5</ele><time>2026-04-26T08:29:22.179Z</time></trkpt><trkpt lat="43.1624994" lon="11.4717748"><ele>168.66666666666666</ele><time>2026-04-26T08:29:23.165Z</time></trkpt><trkpt lat="43.1625386" lon="11.4716691"><ele>167.83333333333331</ele><time>2026-04-26T08:29:24.186Z</time></trkpt><trkpt lat="43.1625774" lon="11.4715638"><ele>167.0</ele><time>2026-04-26T08:29:25.18Z</time></trkpt><trkpt lat="43.1625983" lon="11.4714461"><ele>167.0</ele><time>2026-04-26T08:29:26.185Z</time></trkpt><trkpt lat="43.162611" lon="11.471327"><ele>167.0</ele><time>2026-04-26T08:29:27.167Z</time></trkpt><trkpt lat="43.1626194" lon="11.4711995"><ele>167.0</ele><time>2026-04-26T08:29:28.19Z</time></trkpt><trkpt lat="43.1626243" lon="11.4710665"><ele>167.0</ele><time>2026-04-26T08:29:29.182Z</time></trkpt><trkpt lat="43.1626297" lon="11.4709347"><ele>167.0</ele><time>2026-04-26T08:29:30.171Z</time></trkpt><trkpt lat="43.1626364" lon="11.4708008"><ele>166.0</ele><time>2026-04-26T08:29:31.177Z</time></trkpt><trkpt lat="43.1626457" lon="11.4706671"><ele>165.0</ele><time>2026-04-26T08:29:32.175Z</time></trkpt><trkpt lat="43.1626557" lon="11.4705348"><ele>164.0</ele><time>2026-04-26T08:29:33.187Z</time></trkpt><trkpt lat="43.1626618" lon="11.4704046"><ele>163.0</ele><time>2026-04-26T08:29:34.169Z</time></trkpt><trkpt lat="43.1626688" lon="11.4702783"><ele>162.0</ele><time>2026-04-26T08:29:35.171Z</time></trkpt><trkpt lat="43.1626795" lon="11.4701546"><ele>161.0</ele><time>2026-04-26T08:29:36.186Z</time></trkpt><trkpt lat="43.1626976" lon="11.4700335"><ele>160.0</ele><time>2026-04-26T08:29:37.168Z</time></trkpt><trkpt lat="43.1627243" lon="11.4699144"><ele>159.0</ele><time>2026-04-26T08:29:38.179Z</time></trkpt><trkpt lat="43.1627628" lon="11.469798"><ele>158.0</ele><time>2026-04-26T08:29:39.164Z</time></trkpt><trkpt lat="43.1628149" lon="11.4696892"><ele>157.0</ele><time>2026-04-26T08:29:40.185Z</time></trkpt><trkpt lat="43.1628683" lon="11.4695799"><ele>156.2</ele><time>2026-04-26T08:29:41.186Z</time></trkpt><trkpt lat="43.1629402" lon="11.4694852"><ele>155.39999999999998</ele><time>2026-04-26T08:29:42.173Z</time></trkpt><trkpt lat="43.163018" lon="11.4694018"><ele>154.60000000000002</ele><time>2026-04-26T08:29:43.183Z</time></trkpt><trkpt lat="43.1630978" lon="11.469329"><ele>153.8</ele><time>2026-04-26T08:29:44.173Z</time></trkpt><trkpt lat="43.1631831" lon="11.4692652"><ele>153.0</ele><time>2026-04-26T08:29:45.186Z</time></trkpt><trkpt lat="43.1632728" lon="11.4692089"><ele>153.0</ele><time>2026-04-26T08:29:46.175Z</time></trkpt><trkpt lat="43.1633632" lon="11.4691645"><ele>153.0</ele><time>2026-04-26T08:29:47.166Z</time></trkpt><trkpt lat="43.1634556" lon="11.4691354"><ele>153.0</ele><time>2026-04-26T08:29:48.175Z</time></trkpt><trkpt lat="43.1635478" lon="11.4691114"><ele>153.0</ele><time>2026-04-26T08:29:49.189Z</time></trkpt><trkpt lat="43.1636334" lon="11.4690892"><ele>153.0</ele><time>2026-04-26T08:29:50.179Z</time></trkpt><trkpt lat="43.1637143" lon="11.4690675"><ele>153.0</ele><time>2026-04-26T08:29:51.16Z</time></trkpt><trkpt lat="43.1637899" lon="11.469048"><ele>153.0</ele><time>2026-04-26T08:29:52.176Z</time></trkpt><trkpt lat="43.1638621" lon="11.4690287"><ele>153.0</ele><time>2026-04-26T08:29:53.177Z</time></trkpt><trkpt lat="43.163932" lon="11.4690042"><ele>153.0</ele><time>2026-04-26T08:29:54.185Z</time></trkpt><trkpt lat="43.1640011" lon="11.4689782"><ele>153.0</ele><time>2026-04-26T08:29:55.182Z</time></trkpt><trkpt lat="43.1640576" lon="11.468913"><ele>153.0</ele><time>2026-04-26T08:29:56.182Z</time></trkpt><trkpt lat="43.1640996" lon="11.4688322"><ele>153.0</ele><time>2026-04-26T08:29:57.18Z</time></trkpt><trkpt lat="43.164122" lon="11.4687394"><ele>152.33333333333334</ele><time>2026-04-26T08:29:58.183Z</time></trkpt><trkpt lat="43.1641405" lon="11.4686441"><ele>151.66666666666666</ele><time>2026-04-26T08:29:59.19Z</time></trkpt><trkpt lat="43.1641325" lon="11.4685399"><ele>151.0</ele><time>2026-04-26T08:30:00.178Z</time></trkpt><trkpt lat="43.1641227" lon="11.4684426"><ele>150.33333333333331</ele><time>2026-04-26T08:30:01.182Z</time></trkpt><trkpt lat="43.1640953" lon="11.4683594"><ele>149.66666666666666</ele><time>2026-04-26T08:30:02.164Z</time></trkpt><trkpt lat="43.1640445" lon="11.4682123"><ele>149.0</ele><time>2026-04-26T08:30:04.184Z</time></trkpt><trkpt lat="43.1640023" lon="11.4680717"><ele>148.5</ele><time>2026-04-26T08:30:06.181Z</time></trkpt><trkpt lat="43.1639673" lon="11.4679503"><ele>148.0</ele><time>2026-04-26T08:30:08.191Z</time></trkpt><trkpt lat="43.1639418" lon="11.4678542"><ele>147.5</ele><time>2026-04-26T08:30:10.18Z</time></trkpt><trkpt lat="43.1639157" lon="11.4677561"><ele>147.0</ele><time>2026-04-26T08:30:13.193Z</time></trkpt><trkpt lat="43.1638656" lon="11.4676735"><ele>146.5</ele><time>2026-04-26T08:30:35.185Z</time></trkpt><trkpt lat="43.1637566" lon="11.467687"><ele>146.0</ele><time>2026-04-26T08:30:37.182Z</time></trkpt><trkpt lat="43.163686" lon="11.4677285"><ele>146.0</ele><time>2026-04-26T08:30:38.191Z</time></trkpt><trkpt lat="43.163605" lon="11.4677785"><ele>146.0</ele><time>2026-04-26T08:30:39.173Z</time></trkpt><trkpt lat="43.1635263" lon="11.4678283"><ele>146.0</ele><time>2026-04-26T08:30:40.184Z</time></trkpt><trkpt lat="43.1634449" lon="11.4678866"><ele>146.0</ele><time>2026-04-26T08:30:41.184Z</time></trkpt><trkpt lat="43.1633542" lon="11.4679555"><ele>146.0</ele><time>2026-04-26T08:30:42.183Z</time></trkpt><trkpt lat="43.1632535" lon="11.4680295"><ele>146.5</ele><time>2026-04-26T08:30:43.188Z</time></trkpt><trkpt lat="43.1631462" lon="11.4681035"><ele>147.0</ele><time>2026-04-26T08:30:44.181Z</time></trkpt><trkpt lat="43.1630333" lon="11.4681751"><ele>147.5</ele><time>2026-04-26T08:30:45.187Z</time></trkpt><trkpt lat="43.1629141" lon="11.4682412"><ele>148.0</ele><time>2026-04-26T08:30:46.194Z</time></trkpt><trkpt lat="43.1627865" lon="11.4682946"><ele>148.0</ele><time>2026-04-26T08:30:47.187Z</time></trkpt><trkpt lat="43.1626531" lon="11.4683313"><ele>148.0</ele><time>2026-04-26T08:30:48.176Z</time></trkpt><trkpt lat="43.1625178" lon="11.468356"><ele>148.0</ele><time>2026-04-26T08:30:49.175Z</time></trkpt><trkpt lat="43.1623835" lon="11.468381"><ele>148.0</ele><time>2026-04-26T08:30:50.182Z</time></trkpt><trkpt lat="43.162248" lon="11.468408"><ele>148.75</ele><time>2026-04-26T08:30:51.173Z</time></trkpt><trkpt lat="43.1621111" lon="11.4684351"><ele>149.5</ele><time>2026-04-26T08:30:52.177Z</time></trkpt><trkpt lat="43.1619733" lon="11.4684637"><ele>150.25</ele><time>2026-04-26T08:30:53.18Z</time></trkpt><trkpt lat="43.1618337" lon="11.4684929"><ele>151.0</ele><time>2026-04-26T08:30:54.188Z</time></trkpt><trkpt lat="43.1616926" lon="11.4685213"><ele>151.0</ele><time>2026-04-26T08:30:55.18Z</time></trkpt><trkpt lat="43.1615506" lon="11.4685461"><ele>151.0</ele><time>2026-04-26T08:30:56.197Z</time></trkpt><trkpt lat="43.1614099" lon="11.4685686"><ele>151.0</ele><time>2026-04-26T08:30:57.188Z</time></trkpt><trkpt lat="43.1612772" lon="11.4685937"><ele>151.0</ele><time>2026-04-26T08:30:58.185Z</time></trkpt><trkpt lat="43.1611507" lon="11.4686209"><ele>150.5</ele><time>2026-04-26T08:30:59.186Z</time></trkpt><trkpt lat="43.1610265" lon="11.468655"><ele>150.0</ele><time>2026-04-26T08:31:00.177Z</time></trkpt><trkpt lat="43.1609015" lon="11.4687002"><ele>149.5</ele><time>2026-04-26T08:31:01.194Z</time></trkpt><trkpt lat="43.1607742" lon="11.4687583"><ele>149.0</ele><time>2026-04-26T08:31:02.182Z</time></trkpt><trkpt lat="43.1606435" lon="11.4688302"><ele>148.0</ele><time>2026-04-26T08:31:03.187Z</time></trkpt><trkpt lat="43.1605119" lon="11.4689295"><ele>147.0</ele><time>2026-04-26T08:31:04.178Z</time></trkpt><trkpt lat="43.1603768" lon="11.4690612"><ele>146.0</ele><time>2026-04-26T08:31:05.174Z</time></trkpt><trkpt lat="43.1602292" lon="11.469197"><ele>146.0</ele><time>2026-04-26T08:31:06.179Z</time></trkpt><trkpt lat="43.1600724" lon="11.4693409"><ele>146.0</ele><time>2026-04-26T08:31:07.183Z</time></trkpt><trkpt lat="43.1599177" lon="11.4694881"><ele>146.0</ele><time>2026-04-26T08:31:08.172Z</time></trkpt><trkpt lat="43.1597699" lon="11.4696273"><ele>146.33333333333331</ele><time>2026-04-26T08:31:09.188Z</time></trkpt><trkpt lat="43.1596289" lon="11.4697614"><ele>146.66666666666666</ele><time>2026-04-26T08:31:10.186Z</time></trkpt><trkpt lat="43.1594953" lon="11.4698892"><ele>147.0</ele><time>2026-04-26T08:31:11.175Z</time></trkpt><trkpt lat="43.1593679" lon="11.47001"><ele>147.0</ele><time>2026-04-26T08:31:12.174Z</time></trkpt><trkpt lat="43.1592437" lon="11.4701271"><ele>147.0</ele><time>2026-04-26T08:31:13.171Z</time></trkpt><trkpt lat="43.1591204" lon="11.4702414"><ele>147.0</ele><time>2026-04-26T08:31:14.192Z</time></trkpt><trkpt lat="43.1589973" lon="11.4703499"><ele>147.0</ele><time>2026-04-26T08:31:15.186Z</time></trkpt><trkpt lat="43.1588705" lon="11.4704537"><ele>147.0</ele><time>2026-04-26T08:31:16.183Z</time></trkpt><trkpt lat="43.1587448" lon="11.4705546"><ele>147.0</ele><time>2026-04-26T08:31:17.179Z</time></trkpt><trkpt lat="43.1586181" lon="11.4706549"><ele>147.0</ele><time>2026-04-26T08:31:18.178Z</time></trkpt><trkpt lat="43.1584882" lon="11.4707534"><ele>147.0</ele><time>2026-04-26T08:31:19.186Z</time></trkpt><trkpt lat="43.1583581" lon="11.4708487"><ele>147.0</ele><time>2026-04-26T08:31:20.175Z</time></trkpt><trkpt lat="43.1582269" lon="11.4709446"><ele>147.0</ele><time>2026-04-26T08:31:21.183Z</time></trkpt><trkpt lat="43.1580935" lon="11.4710401"><ele>147.0</ele><time>2026-04-26T08:31:22.19Z</time></trkpt><trkpt lat="43.1579562" lon="11.4711296"><ele>146.66666666666666</ele><time>2026-04-26T08:31:23.18Z</time></trkpt><trkpt lat="43.157812" lon="11.4712084"><ele>146.33333333333331</ele><time>2026-04-26T08:31:24.188Z</time></trkpt><trkpt lat="43.1576599" lon="11.471272"><ele>146.0</ele><time>2026-04-26T08:31:25.189Z</time></trkpt><trkpt lat="43.1575012" lon="11.4713154"><ele>147.0</ele><time>2026-04-26T08:31:26.176Z</time></trkpt><trkpt lat="43.1573348" lon="11.4713472"><ele>148.0</ele><time>2026-04-26T08:31:27.197Z</time></trkpt><trkpt lat="43.1571644" lon="11.4713873"><ele>149.0</ele><time>2026-04-26T08:31:28.192Z</time></trkpt><trkpt lat="43.156989" lon="11.4714306"><ele>149.0</ele><time>2026-04-26T08:31:29.177Z</time></trkpt><trkpt lat="43.1568085" lon="11.4714695"><ele>149.0</ele><time>2026-04-26T08:31:30.187Z</time></trkpt><trkpt lat="43.1566167" lon="11.4715066"><ele>149.0</ele><time>2026-04-26T08:31:31.186Z</time></trkpt><trkpt lat="43.1564243" lon="11.4715516"><ele>148.66666666666666</ele><time>2026-04-26T08:31:32.184Z</time></trkpt><trkpt lat="43.1562308" lon="11.4715954"><ele>148.33333333333334</ele><time>2026-04-26T08:31:33.188Z</time></trkpt><trkpt lat="43.1560362" lon="11.4716393"><ele>148.0</ele><time>2026-04-26T08:31:34.186Z</time></trkpt><trkpt lat="43.1558368" lon="11.4716858"><ele>147.0</ele><time>2026-04-26T08:31:35.181Z</time></trkpt><trkpt lat="43.1556399" lon="11.4717349"><ele>146.0</ele><time>2026-04-26T08:31:36.178Z</time></trkpt><trkpt lat="43.1554328" lon="11.4717851"><ele>145.0</ele><time>2026-04-26T08:31:37.195Z</time></trkpt><trkpt lat="43.155221" lon="11.4718351"><ele>145.0</ele><time>2026-04-26T08:31:38.19Z</time></trkpt><trkpt lat="43.1549989" lon="11.4718862"><ele>145.0</ele><time>2026-04-26T08:31:39.191Z</time></trkpt><trkpt lat="43.1547624" lon="11.4719425"><ele>144.5</ele><time>2026-04-26T08:31:40.186Z</time></trkpt><trkpt lat="43.1545112" lon="11.4720019"><ele>144.0</ele><time>2026-04-26T08:31:41.188Z</time></trkpt><trkpt lat="43.1542488" lon="11.4720623"><ele>143.5</ele><time>2026-04-26T08:31:42.186Z</time></trkpt><trkpt lat="43.153985" lon="11.4721237"><ele>143.0</ele><time>2026-04-26T08:31:43.19Z</time></trkpt><trkpt lat="43.1537343" lon="11.4721782"><ele>143.0</ele><time>2026-04-26T08:31:44.187Z</time></trkpt><trkpt lat="43.1535015" lon="11.4722285"><ele>143.0</ele><time>2026-04-26T08:31:45.189Z</time></trkpt><trkpt lat="43.1532877" lon="11.4722771"><ele>143.0</ele><time>2026-04-26T08:31:46.19Z</time></trkpt><trkpt lat="43.1530882" lon="11.472324"><ele>143.0</ele><time>2026-04-26T08:31:47.181Z</time></trkpt><trkpt lat="43.152904" lon="11.4723665"><ele>143.0</ele><time>2026-04-26T08:31:48.187Z</time></trkpt><trkpt lat="43.1527352" lon="11.4724049"><ele>143.0</ele><time>2026-04-26T08:31:49.185Z</time></trkpt><trkpt lat="43.1525774" lon="11.4724463"><ele>143.0</ele><time>2026-04-26T08:31:50.184Z</time></trkpt><trkpt lat="43.152426" lon="11.4724921"><ele>143.0</ele><time>2026-04-26T08:31:51.184Z</time></trkpt><trkpt lat="43.1522761" lon="11.4725472"><ele>143.0</ele><time>2026-04-26T08:31:52.191Z</time></trkpt><trkpt lat="43.1521258" lon="11.4726119"><ele>143.0</ele><time>2026-04-26T08:31:53.192Z</time></trkpt><trkpt lat="43.1519746" lon="11.4726872"><ele>143.0</ele><time>2026-04-26T08:31:54.17Z</time></trkpt><trkpt lat="43.1518237" lon="11.4727739"><ele>143.0</ele><time>2026-04-26T08:31:55.187Z</time></trkpt><trkpt lat="43.1516752" lon="11.4728702"><ele>143.0</ele><time>2026-04-26T08:31:56.184Z</time></trkpt><trkpt lat="43.1515291" lon="11.4729783"><ele>143.0</ele><time>2026-04-26T08:31:57.194Z</time></trkpt><trkpt lat="43.1513866" lon="11.4730989"><ele>144.66666666666666</ele><time>2026-04-26T08:31:58.188Z</time></trkpt><trkpt lat="43.1512461" lon="11.4732291"><ele>146.33333333333334</ele><time>2026-04-26T08:31:59.193Z</time></trkpt><trkpt lat="43.1511071" lon="11.4733651"><ele>148.0</ele><time>2026-04-26T08:32:00.177Z</time></trkpt><trkpt lat="43.1509695" lon="11.473505"><ele>148.0</ele><time>2026-04-26T08:32:01.176Z</time></trkpt><trkpt lat="43.1508322" lon="11.4736426"><ele>148.0</ele><time>2026-04-26T08:32:02.174Z</time></trkpt><trkpt lat="43.1506944" lon="11.4737768"><ele>148.0</ele><time>2026-04-26T08:32:03.189Z</time></trkpt><trkpt lat="43.1505566" lon="11.473909"><ele>147.66666666666669</ele><time>2026-04-26T08:32:04.175Z</time></trkpt><trkpt lat="43.1504144" lon="11.474035"><ele>147.33333333333334</ele><time>2026-04-26T08:32:05.187Z</time></trkpt><trkpt lat="43.1502656" lon="11.4741426"><ele>147.0</ele><time>2026-04-26T08:32:06.185Z</time></trkpt><trkpt lat="43.1501144" lon="11.4742352"><ele>147.0</ele><time>2026-04-26T08:32:07.184Z</time></trkpt><trkpt lat="43.1499675" lon="11.474332"><ele>147.0</ele><time>2026-04-26T08:32:08.191Z</time></trkpt><trkpt lat="43.149822" lon="11.4744274"><ele>147.0</ele><time>2026-04-26T08:32:09.19Z</time></trkpt><trkpt lat="43.1496767" lon="11.4745154"><ele>147.33333333333334</ele><time>2026-04-26T08:32:10.187Z</time></trkpt><trkpt lat="43.1495351" lon="11.4746036"><ele>147.66666666666669</ele><time>2026-04-26T08:32:11.172Z</time></trkpt><trkpt lat="43.1493961" lon="11.4746889"><ele>148.0</ele><time>2026-04-26T08:32:12.184Z</time></trkpt><trkpt lat="43.149257" lon="11.4747688"><ele>148.0</ele><time>2026-04-26T08:32:13.189Z</time></trkpt><trkpt lat="43.14911" lon="11.4748413"><ele>148.0</ele><time>2026-04-26T08:32:14.188Z</time></trkpt><trkpt lat="43.1489612" lon="11.4749022"><ele>148.0</ele><time>2026-04-26T08:32:15.193Z</time></trkpt><trkpt lat="43.1488057" lon="11.4749593"><ele>147.33333333333334</ele><time>2026-04-26T08:32:16.189Z</time></trkpt><trkpt lat="43.1486463" lon="11.4750213"><ele>146.66666666666666</ele><time>2026-04-26T08:32:17.174Z</time></trkpt><trkpt lat="43.1484845" lon="11.4750793"><ele>146.0</ele><time>2026-04-26T08:32:18.172Z</time></trkpt><trkpt lat="43.1483233" lon="11.475137"><ele>145.33333333333331</ele><time>2026-04-26T08:32:19.187Z</time></trkpt><trkpt lat="43.1481645" lon="11.4751955"><ele>144.66666666666666</ele><time>2026-04-26T08:32:20.188Z</time></trkpt><trkpt lat="43.1480063" lon="11.4752546"><ele>144.0</ele><time>2026-04-26T08:32:21.177Z</time></trkpt><trkpt lat="43.1478487" lon="11.475312"><ele>144.0</ele><time>2026-04-26T08:32:22.19Z</time></trkpt><trkpt lat="43.1476908" lon="11.4753685"><ele>144.0</ele><time>2026-04-26T08:32:23.191Z</time></trkpt><trkpt lat="43.1475332" lon="11.4754269"><ele>144.0</ele><time>2026-04-26T08:32:24.173Z</time></trkpt><trkpt lat="43.1473751" lon="11.475485"><ele>145.33333333333334</ele><time>2026-04-26T08:32:25.194Z</time></trkpt><trkpt lat="43.1472158" lon="11.4755438"><ele>146.66666666666669</ele><time>2026-04-26T08:32:26.175Z</time></trkpt><trkpt lat="43.1470595" lon="11.4755992"><ele>148.0</ele><time>2026-04-26T08:32:27.174Z</time></trkpt><trkpt lat="43.1469053" lon="11.4756557"><ele>148.0</ele><time>2026-04-26T08:32:28.173Z</time></trkpt><trkpt lat="43.1467533" lon="11.4757111"><ele>148.0</ele><time>2026-04-26T08:32:29.186Z</time></trkpt><trkpt lat="43.1466008" lon="11.4757685"><ele>148.0</ele><time>2026-04-26T08:32:30.176Z</time></trkpt><trkpt lat="43.1464527" lon="11.4758244"><ele>147.0</ele><time>2026-04-26T08:32:31.178Z</time></trkpt><trkpt lat="43.1463073" lon="11.4758802"><ele>146.0</ele><time>2026-04-26T08:32:32.19Z</time></trkpt><trkpt lat="43.1461614" lon="11.4759356"><ele>145.0</ele><time>2026-04-26T08:32:33.18Z</time></trkpt><trkpt lat="43.1460149" lon="11.4759896"><ele>145.0</ele><time>2026-04-26T08:32:34.186Z</time></trkpt><trkpt lat="43.1458692" lon="11.4760428"><ele>145.0</ele><time>2026-04-26T08:32:35.189Z</time></trkpt><trkpt lat="43.1457218" lon="11.4760932"><ele>145.0</ele><time>2026-04-26T08:32:36.19Z</time></trkpt><trkpt lat="43.1455712" lon="11.4761396"><ele>144.0</ele><time>2026-04-26T08:32:37.196Z</time></trkpt><trkpt lat="43.1454192" lon="11.4761774"><ele>143.0</ele><time>2026-04-26T08:32:38.188Z</time></trkpt><trkpt lat="43.1452653" lon="11.4762046"><ele>142.0</ele><time>2026-04-26T08:32:39.185Z</time></trkpt><trkpt lat="43.1451103" lon="11.4762189"><ele>142.0</ele><time>2026-04-26T08:32:40.173Z</time></trkpt><trkpt lat="43.1449576" lon="11.4762198"><ele>142.0</ele><time>2026-04-26T08:32:41.186Z</time></trkpt><trkpt lat="43.1448132" lon="11.4762036"><ele>142.0</ele><time>2026-04-26T08:32:42.17Z</time></trkpt><trkpt lat="43.1446733" lon="11.4761733"><ele>142.0</ele><time>2026-04-26T08:32:43.183Z</time></trkpt><trkpt lat="43.1445354" lon="11.4761514"><ele>142.0</ele><time>2026-04-26T08:32:44.184Z</time></trkpt><trkpt lat="43.1443988" lon="11.4761587"><ele>142.0</ele><time>2026-04-26T08:32:45.17Z</time></trkpt><trkpt lat="43.1442694" lon="11.4762043"><ele>142.0</ele><time>2026-04-26T08:32:46.179Z</time></trkpt><trkpt lat="43.144151" lon="11.4762854"><ele>142.0</ele><time>2026-04-26T08:32:47.173Z</time></trkpt><trkpt lat="43.1440352" lon="11.4763781"><ele>142.25</ele><time>2026-04-26T08:32:48.176Z</time></trkpt><trkpt lat="43.1439307" lon="11.4764904"><ele>142.5</ele><time>2026-04-26T08:32:49.176Z</time></trkpt><trkpt lat="43.1438295" lon="11.4766011"><ele>142.75</ele><time>2026-04-26T08:32:50.177Z</time></trkpt><trkpt lat="43.1437302" lon="11.4767115"><ele>143.0</ele><time>2026-04-26T08:32:51.185Z</time></trkpt><trkpt lat="43.1436348" lon="11.476816"><ele>143.0</ele><time>2026-04-26T08:32:52.172Z</time></trkpt><trkpt lat="43.1435434" lon="11.4769183"><ele>143.0</ele><time>2026-04-26T08:32:53.186Z</time></trkpt><trkpt lat="43.1434583" lon="11.4770196"><ele>143.0</ele><time>2026-04-26T08:32:54.189Z</time></trkpt><trkpt lat="43.1433766" lon="11.4771266"><ele>143.0</ele><time>2026-04-26T08:32:55.191Z</time></trkpt><trkpt lat="43.1433016" lon="11.4772411"><ele>143.0</ele><time>2026-04-26T08:32:56.187Z</time></trkpt><trkpt lat="43.1432309" lon="11.4773676"><ele>143.0</ele><time>2026-04-26T08:32:57.193Z</time></trkpt><trkpt lat="43.1431666" lon="11.4775074"><ele>143.0</ele><time>2026-04-26T08:32:58.189Z</time></trkpt><trkpt lat="43.1431088" lon="11.4776606"><ele>143.0</ele><time>2026-04-26T08:32:59.176Z</time></trkpt><trkpt lat="43.1430574" lon="11.4778268"><ele>143.0</ele><time>2026-04-26T08:33:00.192Z</time></trkpt><trkpt lat="43.143014" lon="11.4780008"><ele>143.0</ele><time>2026-04-26T08:33:01.176Z</time></trkpt><trkpt lat="43.1429781" lon="11.4781775"><ele>143.0</ele><time>2026-04-26T08:33:02.194Z</time></trkpt><trkpt lat="43.1429468" lon="11.4783529"><ele>143.0</ele><time>2026-04-26T08:33:03.187Z</time></trkpt><trkpt lat="43.1429175" lon="11.4785276"><ele>143.0</ele><time>2026-04-26T08:33:04.173Z</time></trkpt><trkpt lat="43.1428878" lon="11.4786993"><ele>143.0</ele><time>2026-04-26T08:33:05.186Z</time></trkpt><trkpt lat="43.1428583" lon="11.478869"><ele>143.0</ele><time>2026-04-26T08:33:06.174Z</time></trkpt><trkpt lat="43.1428307" lon="11.4790375"><ele>143.0</ele><time>2026-04-26T08:33:07.187Z</time></trkpt><trkpt lat="43.142803" lon="11.4792044"><ele>143.0</ele><time>2026-04-26T08:33:08.184Z</time></trkpt><trkpt lat="43.1427734" lon="11.4793665"><ele>143.0</ele><time>2026-04-26T08:33:09.183Z</time></trkpt><trkpt lat="43.1427396" lon="11.4795216"><ele>143.0</ele><time>2026-04-26T08:33:10.184Z</time></trkpt><trkpt lat="43.1426983" lon="11.4796692"><ele>143.0</ele><time>2026-04-26T08:33:11.188Z</time></trkpt><trkpt lat="43.1426475" lon="11.4798061"><ele>143.25</ele><time>2026-04-26T08:33:12.176Z</time></trkpt><trkpt lat="43.1425857" lon="11.4799323"><ele>143.5</ele><time>2026-04-26T08:33:13.181Z</time></trkpt><trkpt lat="43.1425165" lon="11.4800535"><ele>143.75</ele><time>2026-04-26T08:33:14.192Z</time></trkpt><trkpt lat="43.1424414" lon="11.4801713"><ele>144.0</ele><time>2026-04-26T08:33:15.192Z</time></trkpt><trkpt lat="43.1423567" lon="11.4802824"><ele>143.5</ele><time>2026-04-26T08:33:16.188Z</time></trkpt><trkpt lat="43.1422652" lon="11.480389"><ele>143.0</ele><time>2026-04-26T08:33:17.195Z</time></trkpt><trkpt lat="43.1421737" lon="11.4805006"><ele>142.5</ele><time>2026-04-26T08:33:18.17Z</time></trkpt><trkpt lat="43.1420827" lon="11.4806153"><ele>142.0</ele><time>2026-04-26T08:33:19.187Z</time></trkpt><trkpt lat="43.1419929" lon="11.4807267"><ele>142.0</ele><time>2026-04-26T08:33:20.167Z</time></trkpt><trkpt lat="43.1419048" lon="11.4808383"><ele>142.0</ele><time>2026-04-26T08:33:21.193Z</time></trkpt><trkpt lat="43.1418168" lon="11.4809492"><ele>142.0</ele><time>2026-04-26T08:33:22.184Z</time></trkpt><trkpt lat="43.1417296" lon="11.4810591"><ele>142.0</ele><time>2026-04-26T08:33:23.179Z</time></trkpt><trkpt lat="43.1416403" lon="11.4811668"><ele>141.75</ele><time>2026-04-26T08:33:24.171Z</time></trkpt><trkpt lat="43.1415493" lon="11.481269"><ele>141.5</ele><time>2026-04-26T08:33:25.171Z</time></trkpt><trkpt lat="43.1414474" lon="11.4813578"><ele>141.25</ele><time>2026-04-26T08:33:26.193Z</time></trkpt><trkpt lat="43.141339" lon="11.4814425"><ele>141.0</ele><time>2026-04-26T08:33:27.178Z</time></trkpt><trkpt lat="43.1412333" lon="11.4815232"><ele>141.0</ele><time>2026-04-26T08:33:28.196Z</time></trkpt><trkpt lat="43.1411248" lon="11.4816018"><ele>141.0</ele><time>2026-04-26T08:33:29.182Z</time></trkpt><trkpt lat="43.1410155" lon="11.4816791"><ele>141.0</ele><time>2026-04-26T08:33:30.177Z</time></trkpt><trkpt lat="43.1409085" lon="11.4817565"><ele>141.0</ele><time>2026-04-26T08:33:31.187Z</time></trkpt><trkpt lat="43.1407996" lon="11.4818329"><ele>141.25</ele><time>2026-04-26T08:33:32.171Z</time></trkpt><trkpt lat="43.1406899" lon="11.4819041"><ele>141.5</ele><time>2026-04-26T08:33:33.19Z</time></trkpt><trkpt lat="43.1405841" lon="11.4819736"><ele>141.75</ele><time>2026-04-26T08:33:34.177Z</time></trkpt><trkpt lat="43.1404754" lon="11.4820486"><ele>142.0</ele><time>2026-04-26T08:33:35.186Z</time></trkpt><trkpt lat="43.1403695" lon="11.4821263"><ele>142.25</ele><time>2026-04-26T08:33:36.19Z</time></trkpt><trkpt lat="43.140264" lon="11.4822035"><ele>142.5</ele><time>2026-04-26T08:33:37.175Z</time></trkpt><trkpt lat="43.1401625" lon="11.4822771"><ele>142.75</ele><time>2026-04-26T08:33:38.177Z</time></trkpt><trkpt lat="43.140065" lon="11.4823459"><ele>143.0</ele><time>2026-04-26T08:33:39.18Z</time></trkpt><trkpt lat="43.139971" lon="11.4824135"><ele>143.8</ele><time>2026-04-26T08:33:40.173Z</time></trkpt><trkpt lat="43.1398759" lon="11.4824789"><ele>144.60000000000002</ele><time>2026-04-26T08:33:41.185Z</time></trkpt><trkpt lat="43.1397814" lon="11.4825461"><ele>145.39999999999998</ele><time>2026-04-26T08:33:42.174Z</time></trkpt><trkpt lat="43.1396853" lon="11.4826152"><ele>146.2</ele><time>2026-04-26T08:33:43.194Z</time></trkpt><trkpt lat="43.1395872" lon="11.4826842"><ele>147.0</ele><time>2026-04-26T08:33:44.18Z</time></trkpt><trkpt lat="43.1394887" lon="11.4827557"><ele>147.0</ele><time>2026-04-26T08:33:45.176Z</time></trkpt><trkpt lat="43.1393876" lon="11.4828267"><ele>147.0</ele><time>2026-04-26T08:33:46.191Z</time></trkpt><trkpt lat="43.1392836" lon="11.4828974"><ele>147.0</ele><time>2026-04-26T08:33:47.188Z</time></trkpt><trkpt lat="43.1391769" lon="11.4829672"><ele>147.0</ele><time>2026-04-26T08:33:48.189Z</time></trkpt><trkpt lat="43.1390702" lon="11.4830394"><ele>146.75</ele><time>2026-04-26T08:33:49.184Z</time></trkpt><trkpt lat="43.1389583" lon="11.483098"><ele>146.5</ele><time>2026-04-26T08:33:50.177Z</time></trkpt><trkpt lat="43.1388462" lon="11.4831471"><ele>146.25</ele><time>2026-04-26T08:33:51.171Z</time></trkpt><trkpt lat="43.1387367" lon="11.4831917"><ele>146.0</ele><time>2026-04-26T08:33:52.183Z</time></trkpt><trkpt lat="43.1386279" lon="11.483228"><ele>146.0</ele><time>2026-04-26T08:33:53.18Z</time></trkpt><trkpt lat="43.1385185" lon="11.4832537"><ele>146.0</ele><time>2026-04-26T08:33:54.192Z</time></trkpt><trkpt lat="43.1384097" lon="11.4832789"><ele>146.0</ele><time>2026-04-26T08:33:55.177Z</time></trkpt><trkpt lat="43.138301" lon="11.4833002"><ele>146.0</ele><time>2026-04-26T08:33:56.174Z</time></trkpt><trkpt lat="43.1381925" lon="11.4833146"><ele>146.0</ele><time>2026-04-26T08:33:57.187Z</time></trkpt><trkpt lat="43.1380838" lon="11.4833223"><ele>146.2</ele><time>2026-04-26T08:33:58.169Z</time></trkpt><trkpt lat="43.1379742" lon="11.4833285"><ele>146.39999999999998</ele><time>2026-04-26T08:33:59.18Z</time></trkpt><trkpt lat="43.1378654" lon="11.4833338"><ele>146.6</ele><time>2026-04-26T08:34:00.166Z</time></trkpt><trkpt lat="43.137757" lon="11.4833374"><ele>146.79999999999998</ele><time>2026-04-26T08:34:01.168Z</time></trkpt><trkpt lat="43.1376491" lon="11.4833404"><ele>147.0</ele><time>2026-04-26T08:34:02.174Z</time></trkpt><trkpt lat="43.137541" lon="11.4833423"><ele>147.0</ele><time>2026-04-26T08:34:03.176Z</time></trkpt><trkpt lat="43.1374286" lon="11.4833475"><ele>147.0</ele><time>2026-04-26T08:34:04.171Z</time></trkpt><trkpt lat="43.1373169" lon="11.483352"><ele>147.0</ele><time>2026-04-26T08:34:05.16Z</time></trkpt><trkpt lat="43.1372045" lon="11.4833586"><ele>147.0</ele><time>2026-04-26T08:34:06.192Z</time></trkpt><trkpt lat="43.1370916" lon="11.4833636"><ele>146.75</ele><time>2026-04-26T08:34:07.185Z</time></trkpt><trkpt lat="43.1369752" lon="11.483363"><ele>146.5</ele><time>2026-04-26T08:34:08.168Z</time></trkpt><trkpt lat="43.1368595" lon="11.4833673"><ele>146.25</ele><time>2026-04-26T08:34:09.187Z</time></trkpt><trkpt lat="43.1367423" lon="11.4833701"><ele>146.0</ele><time>2026-04-26T08:34:10.192Z</time></trkpt><trkpt lat="43.1366249" lon="11.4833705"><ele>146.0</ele><time>2026-04-26T08:34:11.168Z</time></trkpt><trkpt lat="43.136508" lon="11.4833692"><ele>146.0</ele><time>2026-04-26T08:34:12.187Z</time></trkpt><trkpt lat="43.1363906" lon="11.483366"><ele>146.0</ele><time>2026-04-26T08:34:13.184Z</time></trkpt><trkpt lat="43.1362732" lon="11.4833662"><ele>146.0</ele><time>2026-04-26T08:34:14.187Z</time></trkpt><trkpt lat="43.1361611" lon="11.4833664"><ele>146.0</ele><time>2026-04-26T08:34:15.187Z</time></trkpt><trkpt lat="43.1360507" lon="11.4833655"><ele>146.0</ele><time>2026-04-26T08:34:16.186Z</time></trkpt><trkpt lat="43.1359422" lon="11.4833623"><ele>146.0</ele><time>2026-04-26T08:34:17.168Z</time></trkpt><trkpt lat="43.1358349" lon="11.4833561"><ele>146.0</ele><time>2026-04-26T08:34:18.192Z</time></trkpt><trkpt lat="43.1357284" lon="11.4833469"><ele>146.0</ele><time>2026-04-26T08:34:19.168Z</time></trkpt><trkpt lat="43.1356212" lon="11.4833363"><ele>146.0</ele><time>2026-04-26T08:34:20.175Z</time></trkpt><trkpt lat="43.1355124" lon="11.4833217"><ele>146.0</ele><time>2026-04-26T08:34:21.176Z</time></trkpt><trkpt lat="43.1354032" lon="11.483303"><ele>146.0</ele><time>2026-04-26T08:34:22.174Z</time></trkpt><trkpt lat="43.1352932" lon="11.4832806"><ele>146.0</ele><time>2026-04-26T08:34:23.191Z</time></trkpt><trkpt lat="43.1351822" lon="11.483258"><ele>146.0</ele><time>2026-04-26T08:34:24.176Z</time></trkpt><trkpt lat="43.1350694" lon="11.4832347"><ele>146.0</ele><time>2026-04-26T08:34:25.17Z</time></trkpt><trkpt lat="43.1349544" lon="11.4832145"><ele>146.0</ele><time>2026-04-26T08:34:26.166Z</time></trkpt><trkpt lat="43.1348355" lon="11.4831911"><ele>146.0</ele><time>2026-04-26T08:34:27.183Z</time></trkpt><trkpt lat="43.1347155" lon="11.483167"><ele>146.0</ele><time>2026-04-26T08:34:28.186Z</time></trkpt><trkpt lat="43.1345926" lon="11.4831468"><ele>145.75</ele><time>2026-04-26T08:34:29.18Z</time></trkpt><trkpt lat="43.1344702" lon="11.4831237"><ele>145.5</ele><time>2026-04-26T08:34:30.179Z</time></trkpt><trkpt lat="43.134344" lon="11.4830985"><ele>145.25</ele><time>2026-04-26T08:34:31.169Z</time></trkpt><trkpt lat="43.13422" lon="11.4830756"><ele>145.0</ele><time>2026-04-26T08:34:32.184Z</time></trkpt><trkpt lat="43.134096" lon="11.4830525"><ele>145.0</ele><time>2026-04-26T08:34:33.167Z</time></trkpt><trkpt lat="43.1339734" lon="11.4830275"><ele>145.0</ele><time>2026-04-26T08:34:34.179Z</time></trkpt><trkpt lat="43.1338535" lon="11.4830037"><ele>145.0</ele><time>2026-04-26T08:34:35.169Z</time></trkpt><trkpt lat="43.1337346" lon="11.4829735"><ele>145.0</ele><time>2026-04-26T08:34:36.172Z</time></trkpt><trkpt lat="43.1336142" lon="11.4829357"><ele>145.0</ele><time>2026-04-26T08:34:37.18Z</time></trkpt><trkpt lat="43.1334932" lon="11.4828913"><ele>145.0</ele><time>2026-04-26T08:34:38.183Z</time></trkpt><trkpt lat="43.1333704" lon="11.4828458"><ele>145.0</ele><time>2026-04-26T08:34:39.175Z</time></trkpt><trkpt lat="43.1332459" lon="11.4828005"><ele>145.0</ele><time>2026-04-26T08:34:40.192Z</time></trkpt><trkpt lat="43.1331192" lon="11.4827553"><ele>144.5</ele><time>2026-04-26T08:34:41.185Z</time></trkpt><trkpt lat="43.132992" lon="11.4827079"><ele>144.0</ele><time>2026-04-26T08:34:42.189Z</time></trkpt><trkpt lat="43.1328637" lon="11.4826601"><ele>143.5</ele><time>2026-04-26T08:34:43.189Z</time></trkpt><trkpt lat="43.132736" lon="11.4826119"><ele>143.0</ele><time>2026-04-26T08:34:44.185Z</time></trkpt><trkpt lat="43.1326074" lon="11.4825646"><ele>143.0</ele><time>2026-04-26T08:34:45.176Z</time></trkpt><trkpt lat="43.1324808" lon="11.4825137"><ele>143.0</ele><time>2026-04-26T08:34:46.173Z</time></trkpt><trkpt lat="43.1323561" lon="11.4824609"><ele>143.0</ele><time>2026-04-26T08:34:47.185Z</time></trkpt><trkpt lat="43.1322307" lon="11.4824115"><ele>143.0</ele><time>2026-04-26T08:34:48.175Z</time></trkpt><trkpt lat="43.1321047" lon="11.4823689"><ele>143.25</ele><time>2026-04-26T08:34:49.189Z</time></trkpt><trkpt lat="43.1319768" lon="11.4823379"><ele>143.5</ele><time>2026-04-26T08:34:50.163Z</time></trkpt><trkpt lat="43.1318459" lon="11.4823227"><ele>143.75</ele><time>2026-04-26T08:34:51.181Z</time></trkpt><trkpt lat="43.1317136" lon="11.4823213"><ele>144.0</ele><time>2026-04-26T08:34:52.185Z</time></trkpt><trkpt lat="43.1315813" lon="11.4823284"><ele>143.25</ele><time>2026-04-26T08:34:53.189Z</time></trkpt><trkpt lat="43.1314494" lon="11.4823374"><ele>142.5</ele><time>2026-04-26T08:34:54.177Z</time></trkpt><trkpt lat="43.1313171" lon="11.4823465"><ele>141.75</ele><time>2026-04-26T08:34:55.171Z</time></trkpt><trkpt lat="43.1311874" lon="11.4823586"><ele>141.0</ele><time>2026-04-26T08:34:56.182Z</time></trkpt><trkpt lat="43.1310578" lon="11.4823714"><ele>141.0</ele><time>2026-04-26T08:34:57.185Z</time></trkpt><trkpt lat="43.1309302" lon="11.482383"><ele>141.0</ele><time>2026-04-26T08:34:58.187Z</time></trkpt><trkpt lat="43.130804" lon="11.4823955"><ele>141.0</ele><time>2026-04-26T08:34:59.173Z</time></trkpt><trkpt lat="43.1306783" lon="11.4824065"><ele>141.0</ele><time>2026-04-26T08:35:00.181Z</time></trkpt><trkpt lat="43.1305531" lon="11.4824173"><ele>141.25</ele><time>2026-04-26T08:35:01.186Z</time></trkpt><trkpt lat="43.1304272" lon="11.4824304"><ele>141.5</ele><time>2026-04-26T08:35:02.172Z</time></trkpt><trkpt lat="43.130301" lon="11.4824436"><ele>141.75</ele><time>2026-04-26T08:35:03.185Z</time></trkpt><trkpt lat="43.1301743" lon="11.4824554"><ele>142.0</ele><time>2026-04-26T08:35:04.175Z</time></trkpt><trkpt lat="43.1300469" lon="11.4824658"><ele>142.0</ele><time>2026-04-26T08:35:05.189Z</time></trkpt><trkpt lat="43.1299201" lon="11.4824747"><ele>142.0</ele><time>2026-04-26T08:35:06.184Z</time></trkpt><trkpt lat="43.1297947" lon="11.4824816"><ele>142.0</ele><time>2026-04-26T08:35:07.168Z</time></trkpt><trkpt lat="43.1296698" lon="11.4824909"><ele>142.0</ele><time>2026-04-26T08:35:08.164Z</time></trkpt><trkpt lat="43.1295474" lon="11.4825007"><ele>142.5</ele><time>2026-04-26T08:35:09.184Z</time></trkpt><trkpt lat="43.1294287" lon="11.4825102"><ele>143.0</ele><time>2026-04-26T08:35:10.186Z</time></trkpt><trkpt lat="43.1293125" lon="11.4825192"><ele>143.5</ele><time>2026-04-26T08:35:11.181Z</time></trkpt><trkpt lat="43.1291968" lon="11.4825286"><ele>144.0</ele><time>2026-04-26T08:35:12.171Z</time></trkpt><trkpt lat="43.12908" lon="11.4825388"><ele>144.25</ele><time>2026-04-26T08:35:13.188Z</time></trkpt><trkpt lat="43.1289621" lon="11.4825496"><ele>144.5</ele><time>2026-04-26T08:35:14.172Z</time></trkpt><trkpt lat="43.1288441" lon="11.4825592"><ele>144.75</ele><time>2026-04-26T08:35:15.182Z</time></trkpt><trkpt lat="43.1287243" lon="11.4825697"><ele>145.0</ele><time>2026-04-26T08:35:16.169Z</time></trkpt><trkpt lat="43.128601" lon="11.4825819"><ele>145.0</ele><time>2026-04-26T08:35:17.184Z</time></trkpt><trkpt lat="43.1284743" lon="11.4825959"><ele>145.0</ele><time>2026-04-26T08:35:18.177Z</time></trkpt><trkpt lat="43.128345" lon="11.4826097"><ele>145.0</ele><time>2026-04-26T08:35:19.177Z</time></trkpt><trkpt lat="43.128213" lon="11.4826232"><ele>145.0</ele><time>2026-04-26T08:35:20.184Z</time></trkpt><trkpt lat="43.1280813" lon="11.4826348"><ele>145.0</ele><time>2026-04-26T08:35:21.184Z</time></trkpt><trkpt lat="43.127952" lon="11.4826446"><ele>145.0</ele><time>2026-04-26T08:35:22.173Z</time></trkpt><trkpt lat="43.1278233" lon="11.4826538"><ele>145.0</ele><time>2026-04-26T08:35:23.183Z</time></trkpt><trkpt lat="43.1276933" lon="11.4826649"><ele>145.0</ele><time>2026-04-26T08:35:24.166Z</time></trkpt><trkpt lat="43.1275603" lon="11.4826758"><ele>145.0</ele><time>2026-04-26T08:35:25.175Z</time></trkpt><trkpt lat="43.1274245" lon="11.4826873"><ele>145.0</ele><time>2026-04-26T08:35:26.186Z</time></trkpt><trkpt lat="43.127287" lon="11.4826996"><ele>145.0</ele><time>2026-04-26T08:35:27.174Z</time></trkpt><trkpt lat="43.1271492" lon="11.482712"><ele>145.0</ele><time>2026-04-26T08:35:28.176Z</time></trkpt><trkpt lat="43.1270104" lon="11.4827254"><ele>144.75</ele><time>2026-04-26T08:35:29.169Z</time></trkpt><trkpt lat="43.1268705" lon="11.482739"><ele>144.5</ele><time>2026-04-26T08:35:30.186Z</time></trkpt><trkpt lat="43.1267306" lon="11.4827532"><ele>144.25</ele><time>2026-04-26T08:35:31.181Z</time></trkpt><trkpt lat="43.1265978" lon="11.4827657"><ele>144.0</ele><time>2026-04-26T08:35:32.172Z</time></trkpt><trkpt lat="43.1264676" lon="11.4827756"><ele>143.5</ele><time>2026-04-26T08:35:33.183Z</time></trkpt><trkpt lat="43.1263396" lon="11.482783"><ele>143.0</ele><time>2026-04-26T08:35:34.168Z</time></trkpt><trkpt lat="43.1262113" lon="11.4827946"><ele>142.5</ele><time>2026-04-26T08:35:35.169Z</time></trkpt><trkpt lat="43.1260851" lon="11.482805"><ele>142.0</ele><time>2026-04-26T08:35:36.175Z</time></trkpt><trkpt lat="43.125969" lon="11.4828105"><ele>142.0</ele><time>2026-04-26T08:35:37.177Z</time></trkpt><trkpt lat="43.1258641" lon="11.4828179"><ele>142.0</ele><time>2026-04-26T08:35:38.182Z</time></trkpt><trkpt lat="43.1257617" lon="11.482827"><ele>142.0</ele><time>2026-04-26T08:35:39.17Z</time></trkpt><trkpt lat="43.1256576" lon="11.4828372"><ele>142.0</ele><time>2026-04-26T08:35:40.17Z</time></trkpt><trkpt lat="43.1255499" lon="11.4828477"><ele>142.0</ele><time>2026-04-26T08:35:41.172Z</time></trkpt><trkpt lat="43.1254408" lon="11.4828587"><ele>141.75</ele><time>2026-04-26T08:35:42.18Z</time></trkpt><trkpt lat="43.1253295" lon="11.482869"><ele>141.5</ele><time>2026-04-26T08:35:43.181Z</time></trkpt><trkpt lat="43.1252166" lon="11.482879"><ele>141.25</ele><time>2026-04-26T08:35:44.187Z</time></trkpt><trkpt lat="43.1251025" lon="11.4828877"><ele>141.0</ele><time>2026-04-26T08:35:45.168Z</time></trkpt><trkpt lat="43.1249875" lon="11.4828974"><ele>141.25</ele><time>2026-04-26T08:35:46.189Z</time></trkpt><trkpt lat="43.1248724" lon="11.4829081"><ele>141.5</ele><time>2026-04-26T08:35:47.172Z</time></trkpt><trkpt lat="43.124756" lon="11.4829182"><ele>141.75</ele><time>2026-04-26T08:35:48.182Z</time></trkpt><trkpt lat="43.1246403" lon="11.4829292"><ele>142.0</ele><time>2026-04-26T08:35:49.173Z</time></trkpt><trkpt lat="43.1245252" lon="11.4829415"><ele>142.25</ele><time>2026-04-26T08:35:50.177Z</time></trkpt><trkpt lat="43.1244092" lon="11.4829531"><ele>142.5</ele><time>2026-04-26T08:35:51.172Z</time></trkpt><trkpt lat="43.1242922" lon="11.4829645"><ele>142.75</ele><time>2026-04-26T08:35:52.185Z</time></trkpt><trkpt lat="43.1241748" lon="11.4829765"><ele>143.0</ele><time>2026-04-26T08:35:53.188Z</time></trkpt><trkpt lat="43.1240586" lon="11.4829862"><ele>143.5</ele><time>2026-04-26T08:35:54.189Z</time></trkpt><trkpt lat="43.1239437" lon="11.4829939"><ele>144.0</ele><time>2026-04-26T08:35:55.175Z</time></trkpt><trkpt lat="43.1238276" lon="11.4830025"><ele>144.5</ele><time>2026-04-26T08:35:56.164Z</time></trkpt><trkpt lat="43.1237102" lon="11.4830128"><ele>145.0</ele><time>2026-04-26T08:35:57.173Z</time></trkpt><trkpt lat="43.1235915" lon="11.4830258"><ele>145.0</ele><time>2026-04-26T08:35:58.187Z</time></trkpt><trkpt lat="43.123472" lon="11.4830386"><ele>145.0</ele><time>2026-04-26T08:35:59.174Z</time></trkpt><trkpt lat="43.1233549" lon="11.483049"><ele>145.0</ele><time>2026-04-26T08:36:00.18Z</time></trkpt><trkpt lat="43.123239" lon="11.4830588"><ele>145.0</ele><time>2026-04-26T08:36:01.187Z</time></trkpt><trkpt lat="43.1231242" lon="11.4830694"><ele>145.5</ele><time>2026-04-26T08:36:02.175Z</time></trkpt><trkpt lat="43.1230091" lon="11.4830801"><ele>146.0</ele><time>2026-04-26T08:36:03.184Z</time></trkpt><trkpt lat="43.1228929" lon="11.4830918"><ele>146.5</ele><time>2026-04-26T08:36:04.178Z</time></trkpt><trkpt lat="43.1227775" lon="11.4831025"><ele>147.0</ele><time>2026-04-26T08:36:05.187Z</time></trkpt><trkpt lat="43.1226647" lon="11.4831137"><ele>147.0</ele><time>2026-04-26T08:36:06.17Z</time></trkpt><trkpt lat="43.1225546" lon="11.4831258"><ele>147.0</ele><time>2026-04-26T08:36:07.178Z</time></trkpt><trkpt lat="43.122446" lon="11.483137"><ele>147.0</ele><time>2026-04-26T08:36:08.172Z</time></trkpt><trkpt lat="43.1223377" lon="11.4831453"><ele>147.0</ele><time>2026-04-26T08:36:09.182Z</time></trkpt><trkpt lat="43.1222285" lon="11.483155"><ele>147.0</ele><time>2026-04-26T08:36:10.172Z</time></trkpt><trkpt lat="43.1221185" lon="11.483166"><ele>146.4</ele><time>2026-04-26T08:36:11.186Z</time></trkpt><trkpt lat="43.1220082" lon="11.4831759"><ele>145.79999999999998</ele><time>2026-04-26T08:36:12.169Z</time></trkpt><trkpt lat="43.1218979" lon="11.4831862"><ele>145.2</ele><time>2026-04-26T08:36:13.167Z</time></trkpt><trkpt lat="43.1217875" lon="11.4831953"><ele>144.6</ele><time>2026-04-26T08:36:14.187Z</time></trkpt><trkpt lat="43.1216771" lon="11.4832035"><ele>144.0</ele><time>2026-04-26T08:36:15.183Z</time></trkpt><trkpt lat="43.1215673" lon="11.483213"><ele>143.75</ele><time>2026-04-26T08:36:16.182Z</time></trkpt><trkpt lat="43.1214579" lon="11.4832224"><ele>143.5</ele><time>2026-04-26T08:36:17.171Z</time></trkpt><trkpt lat="43.1213469" lon="11.4832318"><ele>143.25</ele><time>2026-04-26T08:36:18.168Z</time></trkpt><trkpt lat="43.1212329" lon="11.4832417"><ele>143.0</ele><time>2026-04-26T08:36:19.186Z</time></trkpt><trkpt lat="43.1211165" lon="11.4832509"><ele>143.0</ele><time>2026-04-26T08:36:20.179Z</time></trkpt><trkpt lat="43.1209984" lon="11.4832604"><ele>143.0</ele><time>2026-04-26T08:36:21.158Z</time></trkpt><trkpt lat="43.1208784" lon="11.4832704"><ele>143.0</ele><time>2026-04-26T08:36:22.178Z</time></trkpt><trkpt lat="43.120757" lon="11.48328"><ele>143.0</ele><time>2026-04-26T08:36:23.188Z</time></trkpt><trkpt lat="43.1206341" lon="11.4832892"><ele>142.75</ele><time>2026-04-26T08:36:24.175Z</time></trkpt><trkpt lat="43.1205094" lon="11.4832999"><ele>142.5</ele><time>2026-04-26T08:36:25.17Z</time></trkpt><trkpt lat="43.1203832" lon="11.483313"><ele>142.25</ele><time>2026-04-26T08:36:26.167Z</time></trkpt><trkpt lat="43.1202561" lon="11.4833281"><ele>142.0</ele><time>2026-04-26T08:36:27.167Z</time></trkpt><trkpt lat="43.1201293" lon="11.4833432"><ele>142.0</ele><time>2026-04-26T08:36:28.185Z</time></trkpt><trkpt lat="43.1200054" lon="11.4833595"><ele>142.0</ele><time>2026-04-26T08:36:29.187Z</time></trkpt><trkpt lat="43.1198843" lon="11.4833748"><ele>142.0</ele><time>2026-04-26T08:36:30.17Z</time></trkpt><trkpt lat="43.1197705" lon="11.483398"><ele>142.0</ele><time>2026-04-26T08:36:31.159Z</time></trkpt><trkpt lat="43.1196621" lon="11.4834141"><ele>142.0</ele><time>2026-04-26T08:36:32.187Z</time></trkpt><trkpt lat="43.1195621" lon="11.4834362"><ele>142.0</ele><time>2026-04-26T08:36:33.174Z</time></trkpt><trkpt lat="43.1194709" lon="11.4834574"><ele>142.0</ele><time>2026-04-26T08:36:34.183Z</time></trkpt><trkpt lat="43.1193826" lon="11.4834734"><ele>142.0</ele><time>2026-04-26T08:36:35.183Z</time></trkpt><trkpt lat="43.1192933" lon="11.4834869"><ele>142.0</ele><time>2026-04-26T08:36:36.183Z</time></trkpt><trkpt lat="43.1191984" lon="11.4834508"><ele>142.0</ele><time>2026-04-26T08:36:37.189Z</time></trkpt><trkpt lat="43.1191082" lon="11.4833862"><ele>142.0</ele><time>2026-04-26T08:36:38.171Z</time></trkpt><trkpt lat="43.1190316" lon="11.4832794"><ele>142.0</ele><time>2026-04-26T08:36:39.192Z</time></trkpt><trkpt lat="43.1189801" lon="11.483142"><ele>142.0</ele><time>2026-04-26T08:36:40.185Z</time></trkpt><trkpt lat="43.1189517" lon="11.4829792"><ele>142.0</ele><time>2026-04-26T08:36:41.181Z</time></trkpt><trkpt lat="43.1189344" lon="11.4828205"><ele>141.79999999999998</ele><time>2026-04-26T08:36:42.182Z</time></trkpt><trkpt lat="43.1189152" lon="11.4826753"><ele>141.6</ele><time>2026-04-26T08:36:43.178Z</time></trkpt><trkpt lat="43.1188867" lon="11.4825395"><ele>141.39999999999998</ele><time>2026-04-26T08:36:44.171Z</time></trkpt><trkpt lat="43.1188503" lon="11.4824088"><ele>141.2</ele><time>2026-04-26T08:36:45.163Z</time></trkpt><trkpt lat="43.1188031" lon="11.4822866"><ele>141.0</ele><time>2026-04-26T08:36:46.163Z</time></trkpt><trkpt lat="43.1187421" lon="11.4821746"><ele>141.25</ele><time>2026-04-26T08:36:47.19Z</time></trkpt><trkpt lat="43.1186651" lon="11.4820726"><ele>141.5</ele><time>2026-04-26T08:36:48.177Z</time></trkpt><trkpt lat="43.1185741" lon="11.4819775"><ele>141.75</ele><time>2026-04-26T08:36:49.172Z</time></trkpt><trkpt lat="43.1184701" lon="11.4818947"><ele>142.0</ele><time>2026-04-26T08:36:50.177Z</time></trkpt><trkpt lat="43.1183479" lon="11.4818246"><ele>143.33333333333334</ele><time>2026-04-26T08:36:51.169Z</time></trkpt><trkpt lat="43.1182098" lon="11.48176"><ele>144.66666666666666</ele><time>2026-04-26T08:36:52.166Z</time></trkpt><trkpt lat="43.1180634" lon="11.481694"><ele>146.0</ele><time>2026-04-26T08:36:53.18Z</time></trkpt><trkpt lat="43.1179155" lon="11.4816314"><ele>146.0</ele><time>2026-04-26T08:36:54.165Z</time></trkpt><trkpt lat="43.1177643" lon="11.4815699"><ele>146.0</ele><time>2026-04-26T08:36:55.173Z</time></trkpt><trkpt lat="43.1176108" lon="11.4815015"><ele>146.0</ele><time>2026-04-26T08:36:56.177Z</time></trkpt><trkpt lat="43.1174598" lon="11.4814303"><ele>149.66666666666666</ele><time>2026-04-26T08:36:57.159Z</time></trkpt><trkpt lat="43.11731" lon="11.4813628"><ele>153.33333333333334</ele><time>2026-04-26T08:36:58.175Z</time></trkpt><trkpt lat="43.117159" lon="11.4812956"><ele>157.0</ele><time>2026-04-26T08:36:59.162Z</time></trkpt><trkpt lat="43.1170075" lon="11.4812271"><ele>158.0</ele><time>2026-04-26T08:37:00.165Z</time></trkpt><trkpt lat="43.1168579" lon="11.4811578"><ele>159.0</ele><time>2026-04-26T08:37:01.176Z</time></trkpt><trkpt lat="43.1167094" lon="11.4810901"><ele>160.0</ele><time>2026-04-26T08:37:02.176Z</time></trkpt><trkpt lat="43.1165614" lon="11.4810247"><ele>160.5</ele><time>2026-04-26T08:37:03.165Z</time></trkpt><trkpt lat="43.116417" lon="11.4809606"><ele>161.0</ele><time>2026-04-26T08:37:04.188Z</time></trkpt><trkpt lat="43.1162767" lon="11.480898"><ele>161.5</ele><time>2026-04-26T08:37:05.164Z</time></trkpt><trkpt lat="43.1161379" lon="11.4808354"><ele>162.0</ele><time>2026-04-26T08:37:06.191Z</time></trkpt><trkpt lat="43.1160007" lon="11.4807749"><ele>162.0</ele><time>2026-04-26T08:37:07.166Z</time></trkpt><trkpt lat="43.1158655" lon="11.4807152"><ele>162.0</ele><time>2026-04-26T08:37:08.16Z</time></trkpt><trkpt lat="43.11573" lon="11.4806575"><ele>162.0</ele><time>2026-04-26T08:37:09.172Z</time></trkpt><trkpt lat="43.115593" lon="11.4806025"><ele>162.0</ele><time>2026-04-26T08:37:10.166Z</time></trkpt><trkpt lat="43.115453" lon="11.4805498"><ele>162.33333333333334</ele><time>2026-04-26T08:37:11.185Z</time></trkpt><trkpt lat="43.1153087" lon="11.4804993"><ele>162.66666666666669</ele><time>2026-04-26T08:37:12.176Z</time></trkpt><trkpt lat="43.1151619" lon="11.4804562"><ele>163.0</ele><time>2026-04-26T08:37:13.176Z</time></trkpt><trkpt lat="43.1150119" lon="11.4804216"><ele>163.66666666666669</ele><time>2026-04-26T08:37:14.166Z</time></trkpt><trkpt lat="43.114859" lon="11.4803936"><ele>164.33333333333334</ele><time>2026-04-26T08:37:15.171Z</time></trkpt><trkpt lat="43.1147035" lon="11.4803666"><ele>165.0</ele><time>2026-04-26T08:37:16.182Z</time></trkpt><trkpt lat="43.1145458" lon="11.480339"><ele>165.0</ele><time>2026-04-26T08:37:17.168Z</time></trkpt><trkpt lat="43.1143859" lon="11.4803121"><ele>165.0</ele><time>2026-04-26T08:37:18.184Z</time></trkpt><trkpt lat="43.1142235" lon="11.4802856"><ele>165.0</ele><time>2026-04-26T08:37:19.19Z</time></trkpt><trkpt lat="43.1140587" lon="11.480257"><ele>163.33333333333334</ele><time>2026-04-26T08:37:20.182Z</time></trkpt><trkpt lat="43.113894" lon="11.4802296"><ele>161.66666666666669</ele><time>2026-04-26T08:37:21.17Z</time></trkpt><trkpt lat="43.1137262" lon="11.4802043"><ele>160.0</ele><time>2026-04-26T08:37:22.172Z</time></trkpt><trkpt lat="43.1135561" lon="11.4801788"><ele>160.0</ele><time>2026-04-26T08:37:23.173Z</time></trkpt><trkpt lat="43.1133846" lon="11.4801485"><ele>160.0</ele><time>2026-04-26T08:37:24.167Z</time></trkpt><trkpt lat="43.1132126" lon="11.4801153"><ele>160.0</ele><time>2026-04-26T08:37:25.172Z</time></trkpt><trkpt lat="43.113044" lon="11.4800686"><ele>158.33333333333334</ele><time>2026-04-26T08:37:26.163Z</time></trkpt><trkpt lat="43.1128772" lon="11.4800156"><ele>156.66666666666666</ele><time>2026-04-26T08:37:27.169Z</time></trkpt><trkpt lat="43.1127107" lon="11.4799552"><ele>155.0</ele><time>2026-04-26T08:37:28.169Z</time></trkpt><trkpt lat="43.1125461" lon="11.4798945"><ele>154.66666666666666</ele><time>2026-04-26T08:37:29.177Z</time></trkpt><trkpt lat="43.1123866" lon="11.4798291"><ele>154.33333333333334</ele><time>2026-04-26T08:37:30.187Z</time></trkpt><trkpt lat="43.1122268" lon="11.479765"><ele>154.0</ele><time>2026-04-26T08:37:31.184Z</time></trkpt><trkpt lat="43.1120703" lon="11.4797023"><ele>154.0</ele><time>2026-04-26T08:37:32.174Z</time></trkpt><trkpt lat="43.111922" lon="11.4796436"><ele>154.0</ele><time>2026-04-26T08:37:33.17Z</time></trkpt><trkpt lat="43.1117745" lon="11.4795864"><ele>154.0</ele><time>2026-04-26T08:37:34.178Z</time></trkpt><trkpt lat="43.1116259" lon="11.4795303"><ele>153.33333333333334</ele><time>2026-04-26T08:37:35.178Z</time></trkpt><trkpt lat="43.1114763" lon="11.4794772"><ele>152.66666666666666</ele><time>2026-04-26T08:37:36.172Z</time></trkpt><trkpt lat="43.1113263" lon="11.4794358"><ele>152.0</ele><time>2026-04-26T08:37:37.183Z</time></trkpt><trkpt lat="43.1111754" lon="11.4794082"><ele>152.0</ele><time>2026-04-26T08:37:38.19Z</time></trkpt><trkpt lat="43.1110247" lon="11.47939"><ele>152.0</ele><time>2026-04-26T08:37:39.179Z</time></trkpt><trkpt lat="43.1108745" lon="11.4793781"><ele>152.0</ele><time>2026-04-26T08:37:40.165Z</time></trkpt><trkpt lat="43.1107245" lon="11.4793663"><ele>151.25</ele><time>2026-04-26T08:37:41.178Z</time></trkpt><trkpt lat="43.1105758" lon="11.4793567"><ele>150.5</ele><time>2026-04-26T08:37:42.185Z</time></trkpt><trkpt lat="43.1104274" lon="11.4793491"><ele>149.75</ele><time>2026-04-26T08:37:43.174Z</time></trkpt><trkpt lat="43.1102779" lon="11.4793446"><ele>149.0</ele><time>2026-04-26T08:37:44.186Z</time></trkpt><trkpt lat="43.1101253" lon="11.4793326"><ele>149.0</ele><time>2026-04-26T08:37:45.186Z</time></trkpt><trkpt lat="43.1099766" lon="11.4793225"><ele>149.0</ele><time>2026-04-26T08:37:46.192Z</time></trkpt><trkpt lat="43.1098292" lon="11.4793125"><ele>149.0</ele><time>2026-04-26T08:37:47.166Z</time></trkpt><trkpt lat="43.1096829" lon="11.4793045"><ele>149.0</ele><time>2026-04-26T08:37:48.174Z</time></trkpt><trkpt lat="43.1095379" lon="11.4792954"><ele>148.25</ele><time>2026-04-26T08:37:49.172Z</time></trkpt><trkpt lat="43.1093929" lon="11.4792865"><ele>147.5</ele><time>2026-04-26T08:37:50.177Z</time></trkpt><trkpt lat="43.1092475" lon="11.479277"><ele>146.75</ele><time>2026-04-26T08:37:51.183Z</time></trkpt><trkpt lat="43.1091014" lon="11.4792658"><ele>146.0</ele><time>2026-04-26T08:37:52.172Z</time></trkpt><trkpt lat="43.1089546" lon="11.4792544"><ele>144.75</ele><time>2026-04-26T08:37:53.177Z</time></trkpt><trkpt lat="43.1088082" lon="11.4792419"><ele>143.5</ele><time>2026-04-26T08:37:54.181Z</time></trkpt><trkpt lat="43.1086604" lon="11.4792305"><ele>142.25</ele><time>2026-04-26T08:37:55.186Z</time></trkpt><trkpt lat="43.1085122" lon="11.4792198"><ele>141.0</ele><time>2026-04-26T08:37:56.167Z</time></trkpt><trkpt lat="43.1083618" lon="11.4792104"><ele>140.0</ele><time>2026-04-26T08:37:57.174Z</time></trkpt><trkpt lat="43.1082092" lon="11.4792042"><ele>139.0</ele><time>2026-04-26T08:37:58.17Z</time></trkpt><trkpt lat="43.1080537" lon="11.4792025"><ele>138.0</ele><time>2026-04-26T08:37:59.187Z</time></trkpt><trkpt lat="43.1078965" lon="11.4792055"><ele>138.0</ele><time>2026-04-26T08:38:00.168Z</time></trkpt><trkpt lat="43.1077389" lon="11.4792102"><ele>138.0</ele><time>2026-04-26T08:38:01.182Z</time></trkpt><trkpt lat="43.1075826" lon="11.4792153"><ele>138.0</ele><time>2026-04-26T08:38:02.181Z</time></trkpt><trkpt lat="43.1074272" lon="11.4792214"><ele>137.66666666666666</ele><time>2026-04-26T08:38:03.178Z</time></trkpt><trkpt lat="43.1072725" lon="11.4792283"><ele>137.33333333333331</ele><time>2026-04-26T08:38:04.18Z</time></trkpt><trkpt lat="43.1071183" lon="11.4792355"><ele>137.0</ele><time>2026-04-26T08:38:05.169Z</time></trkpt><trkpt lat="43.1069636" lon="11.4792421"><ele>137.0</ele><time>2026-04-26T08:38:06.171Z</time></trkpt><trkpt lat="43.106808" lon="11.4792466"><ele>137.0</ele><time>2026-04-26T08:38:07.184Z</time></trkpt><trkpt lat="43.1066518" lon="11.4792513"><ele>137.0</ele><time>2026-04-26T08:38:08.17Z</time></trkpt><trkpt lat="43.1064944" lon="11.4792579"><ele>138.33333333333331</ele><time>2026-04-26T08:38:09.18Z</time></trkpt><trkpt lat="43.1063358" lon="11.479272"><ele>139.66666666666666</ele><time>2026-04-26T08:38:10.169Z</time></trkpt><trkpt lat="43.1061767" lon="11.4792872"><ele>141.0</ele><time>2026-04-26T08:38:11.183Z</time></trkpt><trkpt lat="43.1060166" lon="11.4792974"><ele>141.0</ele><time>2026-04-26T08:38:12.164Z</time></trkpt><trkpt lat="43.1058562" lon="11.4793009"><ele>141.0</ele><time>2026-04-26T08:38:13.165Z</time></trkpt><trkpt lat="43.1056989" lon="11.4792987"><ele>141.0</ele><time>2026-04-26T08:38:14.167Z</time></trkpt><trkpt lat="43.1055441" lon="11.4792974"><ele>142.5</ele><time>2026-04-26T08:38:15.172Z</time></trkpt><trkpt lat="43.1053919" lon="11.4793009"><ele>144.0</ele><time>2026-04-26T08:38:16.173Z</time></trkpt><trkpt lat="43.1052435" lon="11.4793065"><ele>145.5</ele><time>2026-04-26T08:38:17.168Z</time></trkpt><trkpt lat="43.1051032" lon="11.4793123"><ele>147.0</ele><time>2026-04-26T08:38:18.169Z</time></trkpt><trkpt lat="43.1049756" lon="11.4793189"><ele>148.2</ele><time>2026-04-26T08:38:19.168Z</time></trkpt><trkpt lat="43.1048653" lon="11.4793233"><ele>149.39999999999998</ele><time>2026-04-26T08:38:20.164Z</time></trkpt><trkpt lat="43.1047717" lon="11.4793268"><ele>150.60000000000002</ele><time>2026-04-26T08:38:21.179Z</time></trkpt><trkpt lat="43.1046911" lon="11.4793282"><ele>151.8</ele><time>2026-04-26T08:38:22.175Z</time></trkpt><trkpt lat="43.1046202" lon="11.4793267"><ele>153.0</ele><time>2026-04-26T08:38:23.183Z</time></trkpt><trkpt lat="43.1045204" lon="11.4792874"><ele>153.0</ele><time>2026-04-26T08:38:25.173Z</time></trkpt><trkpt lat="43.1044567" lon="11.4791803"><ele>153.0</ele><time>2026-04-26T08:38:27.163Z</time></trkpt><trkpt lat="43.1044332" lon="11.4790986"><ele>153.0</ele><time>2026-04-26T08:38:28.175Z</time></trkpt><trkpt lat="43.1044124" lon="11.4789955"><ele>153.0</ele><time>2026-04-26T08:38:29.166Z</time></trkpt><trkpt lat="43.1043884" lon="11.4788814"><ele>153.0</ele><time>2026-04-26T08:38:30.182Z</time></trkpt><trkpt lat="43.1043658" lon="11.4787487"><ele>153.0</ele><time>2026-04-26T08:38:31.169Z</time></trkpt><trkpt lat="43.1043446" lon="11.4786138"><ele>153.0</ele><time>2026-04-26T08:38:32.167Z</time></trkpt><trkpt lat="43.1043253" lon="11.4784801"><ele>153.0</ele><time>2026-04-26T08:38:33.182Z</time></trkpt><trkpt lat="43.1043062" lon="11.4783435"><ele>153.0</ele><time>2026-04-26T08:38:34.167Z</time></trkpt><trkpt lat="43.1042856" lon="11.4782013"><ele>153.0</ele><time>2026-04-26T08:38:35.186Z</time></trkpt><trkpt lat="43.1042652" lon="11.4780605"><ele>153.0</ele><time>2026-04-26T08:38:36.164Z</time></trkpt><trkpt lat="43.1042458" lon="11.4779184"><ele>153.0</ele><time>2026-04-26T08:38:37.171Z</time></trkpt><trkpt lat="43.1042303" lon="11.4777761"><ele>153.0</ele><time>2026-04-26T08:38:38.192Z</time></trkpt><trkpt lat="43.1042161" lon="11.4776358"><ele>153.0</ele><time>2026-04-26T08:38:39.178Z</time></trkpt><trkpt lat="43.1042031" lon="11.4774995"><ele>153.0</ele><time>2026-04-26T08:38:40.167Z</time></trkpt><trkpt lat="43.1041902" lon="11.4773684"><ele>153.0</ele><time>2026-04-26T08:38:41.172Z</time></trkpt><trkpt lat="43.1041768" lon="11.477242"><ele>153.0</ele><time>2026-04-26T08:38:42.18Z</time></trkpt><trkpt lat="43.104163" lon="11.4771222"><ele>153.0</ele><time>2026-04-26T08:38:43.177Z</time></trkpt><trkpt lat="43.1041542" lon="11.4770023"><ele>153.0</ele><time>2026-04-26T08:38:44.178Z</time></trkpt><trkpt lat="43.104147" lon="11.4768806"><ele>153.0</ele><time>2026-04-26T08:38:45.175Z</time></trkpt><trkpt lat="43.1041413" lon="11.4767638"><ele>153.0</ele><time>2026-04-26T08:38:46.182Z</time></trkpt><trkpt lat="43.104137" lon="11.4766514"><ele>153.0</ele><time>2026-04-26T08:38:47.17Z</time></trkpt><trkpt lat="43.1041295" lon="11.4765489"><ele>153.16666666666666</ele><time>2026-04-26T08:38:48.177Z</time></trkpt><trkpt lat="43.1041195" lon="11.4764474"><ele>153.33333333333334</ele><time>2026-04-26T08:38:49.167Z</time></trkpt><trkpt lat="43.1041033" lon="11.4763442"><ele>153.5</ele><time>2026-04-26T08:38:50.164Z</time></trkpt><trkpt lat="43.1040785" lon="11.4762417"><ele>153.66666666666669</ele><time>2026-04-26T08:38:51.183Z</time></trkpt><trkpt lat="43.1040526" lon="11.4761409"><ele>153.83333333333334</ele><time>2026-04-26T08:38:52.173Z</time></trkpt><trkpt lat="43.1040081" lon="11.4760277"><ele>154.0</ele><time>2026-04-26T08:38:53.181Z</time></trkpt><trkpt lat="43.1039534" lon="11.4758955"><ele>151.5</ele><time>2026-04-26T08:38:54.184Z</time></trkpt><trkpt lat="43.1039015" lon="11.4757575"><ele>149.0</ele><time>2026-04-26T08:38:55.165Z</time></trkpt><trkpt lat="43.1038478" lon="11.4756139"><ele>146.5</ele><time>2026-04-26T08:38:56.165Z</time></trkpt><trkpt lat="43.1037957" lon="11.475474"><ele>144.0</ele><time>2026-04-26T08:38:57.183Z</time></trkpt><trkpt lat="43.1037467" lon="11.4753342"><ele>143.0</ele><time>2026-04-26T08:38:58.181Z</time></trkpt><trkpt lat="43.1036962" lon="11.475192"><ele>142.0</ele><time>2026-04-26T08:38:59.17Z</time></trkpt><trkpt lat="43.1036443" lon="11.4750554"><ele>141.0</ele><time>2026-04-26T08:39:00.172Z</time></trkpt><trkpt lat="43.1035948" lon="11.474929"><ele>140.0</ele><time>2026-04-26T08:39:01.184Z</time></trkpt><trkpt lat="43.1035519" lon="11.4748115"><ele>139.0</ele><time>2026-04-26T08:39:02.167Z</time></trkpt><trkpt lat="43.1035147" lon="11.4746946"><ele>139.66666666666669</ele><time>2026-04-26T08:39:03.184Z</time></trkpt><trkpt lat="43.103479" lon="11.4745845"><ele>140.33333333333334</ele><time>2026-04-26T08:39:04.167Z</time></trkpt><trkpt lat="43.1034405" lon="11.4744725"><ele>141.0</ele><time>2026-04-26T08:39:05.168Z</time></trkpt><trkpt lat="43.1034005" lon="11.474366"><ele>141.66666666666666</ele><time>2026-04-26T08:39:06.182Z</time></trkpt><trkpt lat="43.1033516" lon="11.4742637"><ele>142.33333333333331</ele><time>2026-04-26T08:39:07.18Z</time></trkpt><trkpt lat="43.1032903" lon="11.4741686"><ele>143.0</ele><time>2026-04-26T08:39:08.185Z</time></trkpt><trkpt lat="43.1032162" lon="11.4740799"><ele>143.4</ele><time>2026-04-26T08:39:09.181Z</time></trkpt><trkpt lat="43.1031395" lon="11.4740014"><ele>143.8</ele><time>2026-04-26T08:39:10.184Z</time></trkpt><trkpt lat="43.1030614" lon="11.4739314"><ele>144.2</ele><time>2026-04-26T08:39:11.166Z</time></trkpt><trkpt lat="43.1029837" lon="11.473857"><ele>144.6</ele><time>2026-04-26T08:39:12.171Z</time></trkpt><trkpt lat="43.1029128" lon="11.4737738"><ele>145.0</ele><time>2026-04-26T08:39:13.175Z</time></trkpt><trkpt lat="43.1028537" lon="11.4736711"><ele>146.8</ele><time>2026-04-26T08:39:14.166Z</time></trkpt><trkpt lat="43.1027957" lon="11.4735607"><ele>148.6</ele><time>2026-04-26T08:39:15.173Z</time></trkpt><trkpt lat="43.1027459" lon="11.4734213"><ele>150.4</ele><time>2026-04-26T08:39:16.174Z</time></trkpt><trkpt lat="43.1026951" lon="11.4732832"><ele>152.2</ele><time>2026-04-26T08:39:17.17Z</time></trkpt><trkpt lat="43.1026554" lon="11.4731486"><ele>154.0</ele><time>2026-04-26T08:39:18.17Z</time></trkpt><trkpt lat="43.1026189" lon="11.4730297"><ele>154.6</ele><time>2026-04-26T08:39:19.181Z</time></trkpt><trkpt lat="43.1025815" lon="11.4729092"><ele>155.2</ele><time>2026-04-26T08:39:20.164Z</time></trkpt><trkpt lat="43.1025464" lon="11.4727798"><ele>155.79999999999998</ele><time>2026-04-26T08:39:21.186Z</time></trkpt><trkpt lat="43.102503" lon="11.4726475"><ele>156.4</ele><time>2026-04-26T08:39:22.167Z</time></trkpt><trkpt lat="43.1024548" lon="11.4725116"><ele>157.0</ele><time>2026-04-26T08:39:23.192Z</time></trkpt><trkpt lat="43.1024036" lon="11.4723766"><ele>158.8</ele><time>2026-04-26T08:39:24.186Z</time></trkpt><trkpt lat="43.1023473" lon="11.4722485"><ele>160.6</ele><time>2026-04-26T08:39:25.179Z</time></trkpt><trkpt lat="43.102289" lon="11.4721265"><ele>162.4</ele><time>2026-04-26T08:39:26.186Z</time></trkpt><trkpt lat="43.102231" lon="11.4720142"><ele>164.20000000000002</ele><time>2026-04-26T08:39:27.173Z</time></trkpt><trkpt lat="43.1021757" lon="11.4719082"><ele>166.0</ele><time>2026-04-26T08:39:28.183Z</time></trkpt><trkpt lat="43.1021232" lon="11.4718072"><ele>166.14285714285714</ele><time>2026-04-26T08:39:29.186Z</time></trkpt><trkpt lat="43.1020756" lon="11.4717104"><ele>166.2857142857143</ele><time>2026-04-26T08:39:30.18Z</time></trkpt><trkpt lat="43.1020288" lon="11.4716204"><ele>166.42857142857144</ele><time>2026-04-26T08:39:31.175Z</time></trkpt><trkpt lat="43.1019836" lon="11.4715395"><ele>166.57142857142856</ele><time>2026-04-26T08:39:32.172Z</time></trkpt><trkpt lat="43.1019399" lon="11.471462"><ele>166.71428571428572</ele><time>2026-04-26T08:39:33.179Z</time></trkpt><trkpt lat="43.1018959" lon="11.4713957"><ele>166.85714285714286</ele><time>2026-04-26T08:39:34.182Z</time></trkpt><trkpt lat="43.1018505" lon="11.4713306"><ele>167.0</ele><time>2026-04-26T08:39:35.178Z</time></trkpt><trkpt lat="43.1017993" lon="11.4712658"><ele>165.6</ele><time>2026-04-26T08:39:36.184Z</time></trkpt><trkpt lat="43.101742" lon="11.4711975"><ele>164.2</ele><time>2026-04-26T08:39:37.182Z</time></trkpt><trkpt lat="43.1016769" lon="11.4711183"><ele>162.8</ele><time>2026-04-26T08:39:38.169Z</time></trkpt><trkpt lat="43.1016064" lon="11.4710296"><ele>161.4</ele><time>2026-04-26T08:39:39.169Z</time></trkpt><trkpt lat="43.1015417" lon="11.4709286"><ele>160.0</ele><time>2026-04-26T08:39:40.169Z</time></trkpt><trkpt lat="43.1014835" lon="11.4708207"><ele>158.6</ele><time>2026-04-26T08:39:41.167Z</time></trkpt><trkpt lat="43.1014293" lon="11.4707077"><ele>157.2</ele><time>2026-04-26T08:39:42.187Z</time></trkpt><trkpt lat="43.1013769" lon="11.4705927"><ele>155.8</ele><time>2026-04-26T08:39:43.178Z</time></trkpt><trkpt lat="43.1013268" lon="11.4704797"><ele>154.4</ele><time>2026-04-26T08:39:44.181Z</time></trkpt><trkpt lat="43.1012801" lon="11.4703699"><ele>153.0</ele><time>2026-04-26T08:39:45.185Z</time></trkpt><trkpt lat="43.101238" lon="11.470264"><ele>151.83333333333334</ele><time>2026-04-26T08:39:46.177Z</time></trkpt><trkpt lat="43.101199" lon="11.4701578"><ele>150.66666666666666</ele><time>2026-04-26T08:39:47.189Z</time></trkpt><trkpt lat="43.1011633" lon="11.4700528"><ele>149.5</ele><time>2026-04-26T08:39:48.184Z</time></trkpt><trkpt lat="43.1011285" lon="11.4699526"><ele>148.33333333333331</ele><time>2026-04-26T08:39:49.172Z</time></trkpt><trkpt lat="43.1011031" lon="11.4698543"><ele>147.16666666666666</ele><time>2026-04-26T08:39:50.171Z</time></trkpt><trkpt lat="43.1010851" lon="11.4697613"><ele>146.0</ele><time>2026-04-26T08:39:51.184Z</time></trkpt><trkpt lat="43.1010748" lon="11.4696707"><ele>145.5</ele><time>2026-04-26T08:39:52.164Z</time></trkpt><trkpt lat="43.1010748" lon="11.4695738"><ele>145.0</ele><time>2026-04-26T08:39:53.17Z</time></trkpt><trkpt lat="43.1010841" lon="11.4694703"><ele>144.5</ele><time>2026-04-26T08:39:54.176Z</time></trkpt><trkpt lat="43.101102" lon="11.4693656"><ele>144.0</ele><time>2026-04-26T08:39:55.169Z</time></trkpt><trkpt lat="43.101127" lon="11.4692627"><ele>143.5</ele><time>2026-04-26T08:39:56.189Z</time></trkpt><trkpt lat="43.1011567" lon="11.4691614"><ele>143.0</ele><time>2026-04-26T08:39:57.186Z</time></trkpt><trkpt lat="43.1011907" lon="11.4690599"><ele>143.0</ele><time>2026-04-26T08:39:58.182Z</time></trkpt><trkpt lat="43.1012275" lon="11.4689566"><ele>143.0</ele><time>2026-04-26T08:39:59.171Z</time></trkpt><trkpt lat="43.1012667" lon="11.4688523"><ele>143.0</ele><time>2026-04-26T08:40:00.173Z</time></trkpt><trkpt lat="43.1013096" lon="11.4687461"><ele>143.0</ele><time>2026-04-26T08:40:01.171Z</time></trkpt><trkpt lat="43.1013578" lon="11.4686365"><ele>143.0</ele><time>2026-04-26T08:40:02.167Z</time></trkpt><trkpt lat="43.1014121" lon="11.4685247"><ele>142.8</ele><time>2026-04-26T08:40:03.183Z</time></trkpt><trkpt lat="43.1014727" lon="11.4684098"><ele>142.60000000000002</ele><time>2026-04-26T08:40:04.186Z</time></trkpt><trkpt lat="43.1015383" lon="11.4682918"><ele>142.39999999999998</ele><time>2026-04-26T08:40:05.175Z</time></trkpt><trkpt lat="43.1016084" lon="11.4681731"><ele>142.2</ele><time>2026-04-26T08:40:06.185Z</time></trkpt><trkpt lat="43.1016798" lon="11.4680508"><ele>142.0</ele><time>2026-04-26T08:40:07.162Z</time></trkpt><trkpt lat="43.1017511" lon="11.4679209"><ele>141.75</ele><time>2026-04-26T08:40:08.186Z</time></trkpt><trkpt lat="43.1018206" lon="11.4677875"><ele>141.5</ele><time>2026-04-26T08:40:09.183Z</time></trkpt><trkpt lat="43.1018904" lon="11.4676493"><ele>141.25</ele><time>2026-04-26T08:40:10.174Z</time></trkpt><trkpt lat="43.1019604" lon="11.4675066"><ele>141.0</ele><time>2026-04-26T08:40:11.166Z</time></trkpt><trkpt lat="43.1020289" lon="11.4673611"><ele>141.0</ele><time>2026-04-26T08:40:12.165Z</time></trkpt><trkpt lat="43.1020949" lon="11.4672138"><ele>141.0</ele><time>2026-04-26T08:40:13.165Z</time></trkpt><trkpt lat="43.1021616" lon="11.4670669"><ele>141.0</ele><time>2026-04-26T08:40:14.161Z</time></trkpt><trkpt lat="43.1022304" lon="11.4669222"><ele>141.0</ele><time>2026-04-26T08:40:15.178Z</time></trkpt><trkpt lat="43.1023025" lon="11.4667797"><ele>141.25</ele><time>2026-04-26T08:40:16.185Z</time></trkpt><trkpt lat="43.1023738" lon="11.466638"><ele>141.5</ele><time>2026-04-26T08:40:17.168Z</time></trkpt><trkpt lat="43.1024444" lon="11.4664909"><ele>141.75</ele><time>2026-04-26T08:40:18.165Z</time></trkpt><trkpt lat="43.1025149" lon="11.4663434"><ele>142.0</ele><time>2026-04-26T08:40:19.184Z</time></trkpt><trkpt lat="43.1025844" lon="11.4661966"><ele>142.25</ele><time>2026-04-26T08:40:20.184Z</time></trkpt><trkpt lat="43.1026539" lon="11.4660505"><ele>142.5</ele><time>2026-04-26T08:40:21.174Z</time></trkpt><trkpt lat="43.1027244" lon="11.4659079"><ele>142.75</ele><time>2026-04-26T08:40:22.165Z</time></trkpt><trkpt lat="43.1027935" lon="11.4657683"><ele>143.0</ele><time>2026-04-26T08:40:23.167Z</time></trkpt><trkpt lat="43.1028614" lon="11.4656295"><ele>143.0</ele><time>2026-04-26T08:40:24.167Z</time></trkpt><trkpt lat="43.1029247" lon="11.4654944"><ele>143.0</ele><time>2026-04-26T08:40:25.164Z</time></trkpt><trkpt lat="43.1029788" lon="11.4653634"><ele>143.0</ele><time>2026-04-26T08:40:26.173Z</time></trkpt><trkpt lat="43.1030276" lon="11.4652352"><ele>143.0</ele><time>2026-04-26T08:40:27.164Z</time></trkpt><trkpt lat="43.1030758" lon="11.4651083"><ele>143.0</ele><time>2026-04-26T08:40:28.185Z</time></trkpt><trkpt lat="43.1031254" lon="11.4649828"><ele>143.20000000000002</ele><time>2026-04-26T08:40:29.173Z</time></trkpt><trkpt lat="43.1031783" lon="11.4648575"><ele>143.4</ele><time>2026-04-26T08:40:30.175Z</time></trkpt><trkpt lat="43.1032363" lon="11.4647325"><ele>143.60000000000002</ele><time>2026-04-26T08:40:31.163Z</time></trkpt><trkpt lat="43.1032907" lon="11.4646005"><ele>143.8</ele><time>2026-04-26T08:40:32.175Z</time></trkpt><trkpt lat="43.1033428" lon="11.4644634"><ele>144.0</ele><time>2026-04-26T08:40:33.178Z</time></trkpt><trkpt lat="43.1033897" lon="11.4643182"><ele>144.0</ele><time>2026-04-26T08:40:34.172Z</time></trkpt><trkpt lat="43.1034294" lon="11.464167"><ele>144.0</ele><time>2026-04-26T08:40:35.187Z</time></trkpt><trkpt lat="43.1034664" lon="11.464013"><ele>144.0</ele><time>2026-04-26T08:40:36.165Z</time></trkpt><trkpt lat="43.1035027" lon="11.4638607"><ele>144.0</ele><time>2026-04-26T08:40:37.18Z</time></trkpt><trkpt lat="43.1035338" lon="11.4637105"><ele>144.4</ele><time>2026-04-26T08:40:38.18Z</time></trkpt><trkpt lat="43.1035589" lon="11.4635612"><ele>144.8</ele><time>2026-04-26T08:40:39.178Z</time></trkpt><trkpt lat="43.1035774" lon="11.463419"><ele>145.2</ele><time>2026-04-26T08:40:40.172Z</time></trkpt><trkpt lat="43.1035939" lon="11.4632776"><ele>145.6</ele><time>2026-04-26T08:40:41.164Z</time></trkpt><trkpt lat="43.1036103" lon="11.4631389"><ele>146.0</ele><time>2026-04-26T08:40:42.167Z</time></trkpt><trkpt lat="43.103627" lon="11.4630004"><ele>146.0</ele><time>2026-04-26T08:40:43.164Z</time></trkpt><trkpt lat="43.1036448" lon="11.4628603"><ele>146.0</ele><time>2026-04-26T08:40:44.168Z</time></trkpt><trkpt lat="43.1036678" lon="11.4627093"><ele>146.0</ele><time>2026-04-26T08:40:45.174Z</time></trkpt><trkpt lat="43.1036922" lon="11.4625668"><ele>146.0</ele><time>2026-04-26T08:40:46.181Z</time></trkpt><trkpt lat="43.1037158" lon="11.4624257"><ele>146.0</ele><time>2026-04-26T08:40:47.179Z</time></trkpt><trkpt lat="43.1037394" lon="11.462286"><ele>146.0</ele><time>2026-04-26T08:40:48.179Z</time></trkpt><trkpt lat="43.1037625" lon="11.4621495"><ele>146.0</ele><time>2026-04-26T08:40:49.166Z</time></trkpt><trkpt lat="43.1037848" lon="11.4620215"><ele>146.0</ele><time>2026-04-26T08:40:50.179Z</time></trkpt><trkpt lat="43.1038116" lon="11.4618924"><ele>146.0</ele><time>2026-04-26T08:40:51.182Z</time></trkpt><trkpt lat="43.1038389" lon="11.461763"><ele>146.0</ele><time>2026-04-26T08:40:52.184Z</time></trkpt><trkpt lat="43.1038663" lon="11.4616374"><ele>145.83333333333331</ele><time>2026-04-26T08:40:53.177Z</time></trkpt><trkpt lat="43.1038908" lon="11.4615143"><ele>145.66666666666666</ele><time>2026-04-26T08:40:54.18Z</time></trkpt><trkpt lat="43.1039125" lon="11.4614001"><ele>145.5</ele><time>2026-04-26T08:40:55.171Z</time></trkpt><trkpt lat="43.1039187" lon="11.4612892"><ele>145.33333333333334</ele><time>2026-04-26T08:40:56.162Z</time></trkpt><trkpt lat="43.1039043" lon="11.4611756"><ele>145.16666666666669</ele><time>2026-04-26T08:40:57.177Z</time></trkpt><trkpt lat="43.1038732" lon="11.4610597"><ele>145.0</ele><time>2026-04-26T08:40:58.177Z</time></trkpt><trkpt lat="43.1038268" lon="11.4609553"><ele>144.6</ele><time>2026-04-26T08:40:59.171Z</time></trkpt><trkpt lat="43.103778" lon="11.4608484"><ele>144.2</ele><time>2026-04-26T08:41:00.17Z</time></trkpt><trkpt lat="43.103746" lon="11.4607383"><ele>143.8</ele><time>2026-04-26T08:41:01.182Z</time></trkpt><trkpt lat="43.103735" lon="11.4606184"><ele>143.4</ele><time>2026-04-26T08:41:02.172Z</time></trkpt><trkpt lat="43.1037253" lon="11.4605026"><ele>143.0</ele><time>2026-04-26T08:41:03.176Z</time></trkpt><trkpt lat="43.1037332" lon="11.4603675"><ele>142.75</ele><time>2026-04-26T08:41:04.178Z</time></trkpt><trkpt lat="43.1037389" lon="11.4602241"><ele>142.5</ele><time>2026-04-26T08:41:05.185Z</time></trkpt><trkpt lat="43.1037399" lon="11.4600683"><ele>142.25</ele><time>2026-04-26T08:41:06.178Z</time></trkpt><trkpt lat="43.1037395" lon="11.4599043"><ele>142.0</ele><time>2026-04-26T08:41:07.163Z</time></trkpt><trkpt lat="43.1037399" lon="11.4597374"><ele>142.0</ele><time>2026-04-26T08:41:08.169Z</time></trkpt><trkpt lat="43.1037375" lon="11.4595692"><ele>142.0</ele><time>2026-04-26T08:41:09.173Z</time></trkpt><trkpt lat="43.1037375" lon="11.4593978"><ele>142.0</ele><time>2026-04-26T08:41:10.179Z</time></trkpt><trkpt lat="43.1037426" lon="11.4592309"><ele>142.0</ele><time>2026-04-26T08:41:11.169Z</time></trkpt><trkpt lat="43.1037498" lon="11.459065"><ele>142.0</ele><time>2026-04-26T08:41:12.19Z</time></trkpt><trkpt lat="43.1037572" lon="11.4589013"><ele>142.0</ele><time>2026-04-26T08:41:13.19Z</time></trkpt><trkpt lat="43.1037651" lon="11.4587405"><ele>142.0</ele><time>2026-04-26T08:41:14.186Z</time></trkpt><trkpt lat="43.1037734" lon="11.4585802"><ele>142.0</ele><time>2026-04-26T08:41:15.17Z</time></trkpt><trkpt lat="43.1037814" lon="11.4584228"><ele>142.0</ele><time>2026-04-26T08:41:16.188Z</time></trkpt><trkpt lat="43.1037843" lon="11.4582665"><ele>142.0</ele><time>2026-04-26T08:41:17.172Z</time></trkpt><trkpt lat="43.1037886" lon="11.4581156"><ele>142.0</ele><time>2026-04-26T08:41:18.165Z</time></trkpt><trkpt lat="43.1037955" lon="11.4579695"><ele>142.0</ele><time>2026-04-26T08:41:19.184Z</time></trkpt><trkpt lat="43.103806" lon="11.4578271"><ele>142.0</ele><time>2026-04-26T08:41:20.174Z</time></trkpt><trkpt lat="43.1038232" lon="11.4576906"><ele>142.0</ele><time>2026-04-26T08:41:21.188Z</time></trkpt><trkpt lat="43.1038531" lon="11.4575606"><ele>142.0</ele><time>2026-04-26T08:41:22.191Z</time></trkpt><trkpt lat="43.1039016" lon="11.4574409"><ele>142.0</ele><time>2026-04-26T08:41:23.172Z</time></trkpt><trkpt lat="43.1039657" lon="11.457336"><ele>142.0</ele><time>2026-04-26T08:41:24.189Z</time></trkpt><trkpt lat="43.1040368" lon="11.4572377"><ele>142.0</ele><time>2026-04-26T08:41:25.179Z</time></trkpt><trkpt lat="43.1041115" lon="11.4571414"><ele>141.2</ele><time>2026-04-26T08:41:26.168Z</time></trkpt><trkpt lat="43.1041883" lon="11.4570492"><ele>140.39999999999998</ele><time>2026-04-26T08:41:27.18Z</time></trkpt><trkpt lat="43.1042672" lon="11.4569568"><ele>139.60000000000002</ele><time>2026-04-26T08:41:28.18Z</time></trkpt><trkpt lat="43.1043452" lon="11.4568655"><ele>138.8</ele><time>2026-04-26T08:41:29.186Z</time></trkpt><trkpt lat="43.1044235" lon="11.4567736"><ele>138.0</ele><time>2026-04-26T08:41:30.178Z</time></trkpt><trkpt lat="43.1045191" lon="11.4566682"><ele>138.0</ele><time>2026-04-26T08:41:31.164Z</time></trkpt><trkpt lat="43.1046063" lon="11.4565752"><ele>138.0</ele><time>2026-04-26T08:41:32.173Z</time></trkpt><trkpt lat="43.1046875" lon="11.4564899"><ele>138.0</ele><time>2026-04-26T08:41:33.176Z</time></trkpt><trkpt lat="43.1047646" lon="11.4564069"><ele>138.0</ele><time>2026-04-26T08:41:34.171Z</time></trkpt><trkpt lat="43.1048448" lon="11.4563199"><ele>138.0</ele><time>2026-04-26T08:41:35.177Z</time></trkpt><trkpt lat="43.1049221" lon="11.4562372"><ele>139.33333333333334</ele><time>2026-04-26T08:41:36.178Z</time></trkpt><trkpt lat="43.104995" lon="11.4561533"><ele>140.66666666666666</ele><time>2026-04-26T08:41:37.185Z</time></trkpt><trkpt lat="43.10506" lon="11.4560717"><ele>142.0</ele><time>2026-04-26T08:41:38.183Z</time></trkpt><trkpt lat="43.1051222" lon="11.4559854"><ele>143.33333333333331</ele><time>2026-04-26T08:41:39.181Z</time></trkpt><trkpt lat="43.1051811" lon="11.4558949"><ele>144.66666666666666</ele><time>2026-04-26T08:41:40.181Z</time></trkpt><trkpt lat="43.1052386" lon="11.4558081"><ele>146.0</ele><time>2026-04-26T08:41:41.167Z</time></trkpt><trkpt lat="43.1052912" lon="11.4557163"><ele>146.0</ele><time>2026-04-26T08:41:42.179Z</time></trkpt><trkpt lat="43.1053437" lon="11.4556181"><ele>146.0</ele><time>2026-04-26T08:41:43.175Z</time></trkpt><trkpt lat="43.1053906" lon="11.4555306"><ele>146.0</ele><time>2026-04-26T08:41:44.183Z</time></trkpt><trkpt lat="43.1054367" lon="11.4554469"><ele>146.0</ele><time>2026-04-26T08:41:45.178Z</time></trkpt><trkpt lat="43.105476" lon="11.4553738"><ele>146.0</ele><time>2026-04-26T08:41:46.189Z</time></trkpt><trkpt lat="43.1055438" lon="11.4552488"><ele>146.0</ele><time>2026-04-26T08:41:48.182Z</time></trkpt><trkpt lat="43.1055773" lon="11.4551296"><ele>146.6</ele><time>2026-04-26T08:41:50.175Z</time></trkpt><trkpt lat="43.105499" lon="11.4550267"><ele>147.2</ele><time>2026-04-26T08:41:52.178Z</time></trkpt><trkpt lat="43.1053794" lon="11.4549683"><ele>147.8</ele><time>2026-04-26T08:41:54.167Z</time></trkpt><trkpt lat="43.1053075" lon="11.4549526"><ele>148.4</ele><time>2026-04-26T08:41:55.16Z</time></trkpt><trkpt lat="43.1052323" lon="11.4549339"><ele>149.0</ele><time>2026-04-26T08:41:56.182Z</time></trkpt><trkpt lat="43.1051517" lon="11.4549176"><ele>149.0</ele><time>2026-04-26T08:41:57.175Z</time></trkpt><trkpt lat="43.1050581" lon="11.4548997"><ele>149.0</ele><time>2026-04-26T08:41:58.176Z</time></trkpt><trkpt lat="43.1049646" lon="11.4548762"><ele>149.0</ele><time>2026-04-26T08:41:59.171Z</time></trkpt><trkpt lat="43.1048691" lon="11.4548511"><ele>149.0</ele><time>2026-04-26T08:42:00.18Z</time></trkpt><trkpt lat="43.1047692" lon="11.4548276"><ele>149.0</ele><time>2026-04-26T08:42:01.173Z</time></trkpt><trkpt lat="43.104671" lon="11.454798"><ele>148.0</ele><time>2026-04-26T08:42:02.17Z</time></trkpt><trkpt lat="43.1045712" lon="11.4547651"><ele>147.0</ele><time>2026-04-26T08:42:03.168Z</time></trkpt><trkpt lat="43.1044711" lon="11.4547302"><ele>146.0</ele><time>2026-04-26T08:42:04.168Z</time></trkpt><trkpt lat="43.1043718" lon="11.454695"><ele>145.0</ele><time>2026-04-26T08:42:05.171Z</time></trkpt><trkpt lat="43.1042726" lon="11.454661"><ele>144.0</ele><time>2026-04-26T08:42:06.172Z</time></trkpt><trkpt lat="43.1041735" lon="11.4546303"><ele>144.2</ele><time>2026-04-26T08:42:07.178Z</time></trkpt><trkpt lat="43.1040734" lon="11.4545998"><ele>144.4</ele><time>2026-04-26T08:42:08.176Z</time></trkpt><trkpt lat="43.1039725" lon="11.4545668"><ele>144.6</ele><time>2026-04-26T08:42:09.182Z</time></trkpt><trkpt lat="43.1038697" lon="11.4545345"><ele>144.8</ele><time>2026-04-26T08:42:10.168Z</time></trkpt><trkpt lat="43.1037656" lon="11.4545027"><ele>145.0</ele><time>2026-04-26T08:42:11.181Z</time></trkpt><trkpt lat="43.1036612" lon="11.4544699"><ele>145.0</ele><time>2026-04-26T08:42:12.174Z</time></trkpt><trkpt lat="43.1035551" lon="11.4544386"><ele>145.0</ele><time>2026-04-26T08:42:13.168Z</time></trkpt><trkpt lat="43.103448" lon="11.4544064"><ele>145.0</ele><time>2026-04-26T08:42:14.18Z</time></trkpt><trkpt lat="43.1033404" lon="11.4543721"><ele>145.0</ele><time>2026-04-26T08:42:15.178Z</time></trkpt><trkpt lat="43.103232" lon="11.4543389"><ele>145.0</ele><time>2026-04-26T08:42:16.168Z</time></trkpt><trkpt lat="43.1031239" lon="11.4543074"><ele>145.0</ele><time>2026-04-26T08:42:17.182Z</time></trkpt><trkpt lat="43.1030165" lon="11.4542769"><ele>145.0</ele><time>2026-04-26T08:42:18.177Z</time></trkpt><trkpt lat="43.1029093" lon="11.4542453"><ele>145.0</ele><time>2026-04-26T08:42:19.181Z</time></trkpt><trkpt lat="43.1028029" lon="11.4542109"><ele>145.0</ele><time>2026-04-26T08:42:20.164Z</time></trkpt><trkpt lat="43.102697" lon="11.4541751"><ele>145.0</ele><time>2026-04-26T08:42:21.18Z</time></trkpt><trkpt lat="43.1025921" lon="11.4541398"><ele>145.0</ele><time>2026-04-26T08:42:22.167Z</time></trkpt><trkpt lat="43.102487" lon="11.4541071"><ele>145.0</ele><time>2026-04-26T08:42:23.18Z</time></trkpt><trkpt lat="43.1023815" lon="11.4540793"><ele>145.0</ele><time>2026-04-26T08:42:24.162Z</time></trkpt><trkpt lat="43.1022779" lon="11.4540525"><ele>145.0</ele><time>2026-04-26T08:42:25.184Z</time></trkpt><trkpt lat="43.1021791" lon="11.4540332"><ele>145.0</ele><time>2026-04-26T08:42:26.175Z</time></trkpt><trkpt lat="43.1020851" lon="11.4540123"><ele>145.16666666666669</ele><time>2026-04-26T08:42:27.164Z</time></trkpt><trkpt lat="43.1019984" lon="11.4539786"><ele>145.33333333333334</ele><time>2026-04-26T08:42:28.176Z</time></trkpt><trkpt lat="43.1019231" lon="11.4539239"><ele>145.5</ele><time>2026-04-26T08:42:29.172Z</time></trkpt><trkpt lat="43.10185" lon="11.4538691"><ele>145.66666666666666</ele><time>2026-04-26T08:42:30.17Z</time></trkpt><trkpt lat="43.1017956" lon="11.4537865"><ele>145.83333333333331</ele><time>2026-04-26T08:42:31.18Z</time></trkpt><trkpt lat="43.101772" lon="11.4536785"><ele>146.0</ele><time>2026-04-26T08:42:32.178Z</time></trkpt><trkpt lat="43.1017468" lon="11.4535617"><ele>146.6</ele><time>2026-04-26T08:42:33.176Z</time></trkpt><trkpt lat="43.1017478" lon="11.4534173"><ele>147.2</ele><time>2026-04-26T08:42:34.166Z</time></trkpt><trkpt lat="43.1017539" lon="11.4532819"><ele>147.8</ele><time>2026-04-26T08:42:35.171Z</time></trkpt><trkpt lat="43.1017579" lon="11.4531543"><ele>148.4</ele><time>2026-04-26T08:42:36.173Z</time></trkpt><trkpt lat="43.1017649" lon="11.4530322"><ele>149.0</ele><time>2026-04-26T08:42:37.169Z</time></trkpt><trkpt lat="43.1017703" lon="11.4529237"><ele>149.33333333333331</ele><time>2026-04-26T08:42:38.176Z</time></trkpt><trkpt lat="43.101766" lon="11.4528231"><ele>149.66666666666666</ele><time>2026-04-26T08:42:39.172Z</time></trkpt><trkpt lat="43.1017432" lon="11.4527326"><ele>150.0</ele><time>2026-04-26T08:42:40.175Z</time></trkpt><trkpt lat="43.1016946" lon="11.4526592"><ele>150.33333333333334</ele><time>2026-04-26T08:42:41.176Z</time></trkpt><trkpt lat="43.1016412" lon="11.4525806"><ele>150.66666666666669</ele><time>2026-04-26T08:42:42.182Z</time></trkpt><trkpt lat="43.1015479" lon="11.4525316"><ele>151.0</ele><time>2026-04-26T08:42:43.158Z</time></trkpt><trkpt lat="43.1014401" lon="11.4524772"><ele>151.2</ele><time>2026-04-26T08:42:44.157Z</time></trkpt><trkpt lat="43.1013365" lon="11.4524273"><ele>151.39999999999998</ele><time>2026-04-26T08:42:45.174Z</time></trkpt><trkpt lat="43.1012428" lon="11.452379"><ele>151.6</ele><time>2026-04-26T08:42:46.166Z</time></trkpt><trkpt lat="43.1011533" lon="11.4523298"><ele>151.79999999999998</ele><time>2026-04-26T08:42:47.169Z</time></trkpt><trkpt lat="43.1010677" lon="11.4522803"><ele>152.0</ele><time>2026-04-26T08:42:48.158Z</time></trkpt><trkpt lat="43.1009852" lon="11.4522322"><ele>152.0</ele><time>2026-04-26T08:42:49.18Z</time></trkpt><trkpt lat="43.1009033" lon="11.4521861"><ele>152.0</ele><time>2026-04-26T08:42:50.168Z</time></trkpt><trkpt lat="43.1008239" lon="11.4521442"><ele>152.0</ele><time>2026-04-26T08:42:51.171Z</time></trkpt><trkpt lat="43.100745" lon="11.4521037"><ele>152.0</ele><time>2026-04-26T08:42:52.182Z</time></trkpt><trkpt lat="43.1006679" lon="11.452062"><ele>152.0</ele><time>2026-04-26T08:42:53.169Z</time></trkpt><trkpt lat="43.1005916" lon="11.4520168"><ele>152.0</ele><time>2026-04-26T08:42:54.177Z</time></trkpt><trkpt lat="43.1005154" lon="11.4519693"><ele>154.0</ele><time>2026-04-26T08:42:55.165Z</time></trkpt><trkpt lat="43.1004396" lon="11.4519165"><ele>156.0</ele><time>2026-04-26T08:42:56.167Z</time></trkpt><trkpt lat="43.1003647" lon="11.4518599"><ele>158.0</ele><time>2026-04-26T08:42:57.185Z</time></trkpt><trkpt lat="43.1002877" lon="11.4518075"><ele>160.0</ele><time>2026-04-26T08:42:58.179Z</time></trkpt><trkpt lat="43.1002085" lon="11.4517617"><ele>162.0</ele><time>2026-04-26T08:42:59.187Z</time></trkpt><trkpt lat="43.1001272" lon="11.4517193"><ele>164.0</ele><time>2026-04-26T08:43:00.18Z</time></trkpt><trkpt lat="43.1000447" lon="11.4516773"><ele>164.0</ele><time>2026-04-26T08:43:01.162Z</time></trkpt><trkpt lat="43.0999612" lon="11.4516326"><ele>164.0</ele><time>2026-04-26T08:43:02.183Z</time></trkpt><trkpt lat="43.0998809" lon="11.4515829"><ele>164.0</ele><time>2026-04-26T08:43:03.184Z</time></trkpt><trkpt lat="43.0998075" lon="11.4515201"><ele>164.0</ele><time>2026-04-26T08:43:04.184Z</time></trkpt><trkpt lat="43.0997499" lon="11.4514361"><ele>164.0</ele><time>2026-04-26T08:43:05.171Z</time></trkpt><trkpt lat="43.0996993" lon="11.451343"><ele>164.0</ele><time>2026-04-26T08:43:06.18Z</time></trkpt><trkpt lat="43.0996769" lon="11.4512287"><ele>165.83333333333331</ele><time>2026-04-26T08:43:07.184Z</time></trkpt><trkpt lat="43.099672" lon="11.4511082"><ele>167.66666666666666</ele><time>2026-04-26T08:43:08.166Z</time></trkpt><trkpt lat="43.0996732" lon="11.4509857"><ele>169.5</ele><time>2026-04-26T08:43:09.171Z</time></trkpt><trkpt lat="43.0996763" lon="11.450865"><ele>171.33333333333334</ele><time>2026-04-26T08:43:10.186Z</time></trkpt><trkpt lat="43.0996796" lon="11.4507461"><ele>173.16666666666669</ele><time>2026-04-26T08:43:11.187Z</time></trkpt><trkpt lat="43.0996804" lon="11.4506308"><ele>175.0</ele><time>2026-04-26T08:43:12.175Z</time></trkpt><trkpt lat="43.0996786" lon="11.4505181"><ele>176.0</ele><time>2026-04-26T08:43:13.173Z</time></trkpt><trkpt lat="43.0996773" lon="11.4504063"><ele>177.0</ele><time>2026-04-26T08:43:14.171Z</time></trkpt><trkpt lat="43.0996785" lon="11.4502947"><ele>178.0</ele><time>2026-04-26T08:43:15.165Z</time></trkpt><trkpt lat="43.0996822" lon="11.4501812"><ele>179.0</ele><time>2026-04-26T08:43:16.169Z</time></trkpt><trkpt lat="43.0996879" lon="11.4500741"><ele>180.0</ele><time>2026-04-26T08:43:17.181Z</time></trkpt><trkpt lat="43.0996944" lon="11.4499801"><ele>181.0</ele><time>2026-04-26T08:43:18.181Z</time></trkpt><trkpt lat="43.0997048" lon="11.4498214"><ele>181.0</ele><time>2026-04-26T08:43:20.184Z</time></trkpt><trkpt lat="43.099699" lon="11.4497041"><ele>181.0</ele><time>2026-04-26T08:43:22.172Z</time></trkpt><trkpt lat="43.0996611" lon="11.4496201"><ele>181.0</ele><time>2026-04-26T08:43:24.182Z</time></trkpt><trkpt lat="43.0995874" lon="11.4495973"><ele>181.0</ele><time>2026-04-26T08:43:26.184Z</time></trkpt><trkpt lat="43.0995003" lon="11.4496105"><ele>181.0</ele><time>2026-04-26T08:43:28.178Z</time></trkpt><trkpt lat="43.0994054" lon="11.4496253"><ele>181.0</ele><time>2026-04-26T08:43:30.166Z</time></trkpt><trkpt lat="43.0993059" lon="11.449653"><ele>181.0</ele><time>2026-04-26T08:43:32.172Z</time></trkpt><trkpt lat="43.0992051" lon="11.4496752"><ele>181.0</ele><time>2026-04-26T08:43:34.179Z</time></trkpt><trkpt lat="43.0990965" lon="11.4496812"><ele>181.0</ele><time>2026-04-26T08:43:36.158Z</time></trkpt><trkpt lat="43.0989752" lon="11.4497022"><ele>181.0</ele><time>2026-04-26T08:43:38.179Z</time></trkpt><trkpt lat="43.0989094" lon="11.4497178"><ele>181.0</ele><time>2026-04-26T08:43:39.175Z</time></trkpt><trkpt lat="43.0988352" lon="11.4497338"><ele>181.0</ele><time>2026-04-26T08:43:40.171Z</time></trkpt><trkpt lat="43.0987507" lon="11.4497525"><ele>181.0</ele><time>2026-04-26T08:43:41.159Z</time></trkpt><trkpt lat="43.0986589" lon="11.4497721"><ele>181.0</ele><time>2026-04-26T08:43:42.18Z</time></trkpt><trkpt lat="43.0985663" lon="11.4497933"><ele>181.0</ele><time>2026-04-26T08:43:43.181Z</time></trkpt><trkpt lat="43.0984742" lon="11.4498155"><ele>181.0</ele><time>2026-04-26T08:43:44.161Z</time></trkpt><trkpt lat="43.0983768" lon="11.4498351"><ele>181.0</ele><time>2026-04-26T08:43:45.171Z</time></trkpt><trkpt lat="43.0982768" lon="11.4498516"><ele>181.0</ele><time>2026-04-26T08:43:46.175Z</time></trkpt><trkpt lat="43.098172" lon="11.4498687"><ele>181.0</ele><time>2026-04-26T08:43:47.179Z</time></trkpt><trkpt lat="43.0980609" lon="11.4498874"><ele>181.0</ele><time>2026-04-26T08:43:48.167Z</time></trkpt><trkpt lat="43.0979486" lon="11.4499089"><ele>181.0</ele><time>2026-04-26T08:43:49.17Z</time></trkpt><trkpt lat="43.0978379" lon="11.4499315"><ele>181.0</ele><time>2026-04-26T08:43:50.162Z</time></trkpt><trkpt lat="43.0977284" lon="11.4499538"><ele>181.0</ele><time>2026-04-26T08:43:51.179Z</time></trkpt><trkpt lat="43.0976205" lon="11.449976"><ele>181.0</ele><time>2026-04-26T08:43:52.168Z</time></trkpt><trkpt lat="43.0975114" lon="11.4499992"><ele>181.0</ele><time>2026-04-26T08:43:53.183Z</time></trkpt><trkpt lat="43.0974038" lon="11.4500231"><ele>181.0</ele><time>2026-04-26T08:43:54.181Z</time></trkpt><trkpt lat="43.0972971" lon="11.4500478"><ele>181.0</ele><time>2026-04-26T08:43:55.162Z</time></trkpt><trkpt lat="43.0971879" lon="11.4500718"><ele>181.0</ele><time>2026-04-26T08:43:56.171Z</time></trkpt><trkpt lat="43.0970792" lon="11.45009"><ele>181.0</ele><time>2026-04-26T08:43:57.187Z</time></trkpt><trkpt lat="43.0969715" lon="11.450105"><ele>181.0</ele><time>2026-04-26T08:43:58.186Z</time></trkpt><trkpt lat="43.0968633" lon="11.4501224"><ele>181.0</ele><time>2026-04-26T08:43:59.172Z</time></trkpt><trkpt lat="43.0967542" lon="11.4501415"><ele>181.0</ele><time>2026-04-26T08:44:00.182Z</time></trkpt><trkpt lat="43.096648" lon="11.4501625"><ele>181.0</ele><time>2026-04-26T08:44:01.183Z</time></trkpt><trkpt lat="43.0965441" lon="11.4501849"><ele>181.0</ele><time>2026-04-26T08:44:02.166Z</time></trkpt><trkpt lat="43.0964402" lon="11.4502072"><ele>181.0</ele><time>2026-04-26T08:44:03.18Z</time></trkpt><trkpt lat="43.0963406" lon="11.4502253"><ele>181.0</ele><time>2026-04-26T08:44:04.187Z</time></trkpt><trkpt lat="43.0962405" lon="11.4502432"><ele>180.0</ele><time>2026-04-26T08:44:05.183Z</time></trkpt><trkpt lat="43.0961404" lon="11.4502634"><ele>179.0</ele><time>2026-04-26T08:44:06.177Z</time></trkpt><trkpt lat="43.0960391" lon="11.4502858"><ele>178.0</ele><time>2026-04-26T08:44:07.176Z</time></trkpt><trkpt lat="43.095937" lon="11.4503049"><ele>177.0</ele><time>2026-04-26T08:44:08.172Z</time></trkpt><trkpt lat="43.0958331" lon="11.4503162"><ele>176.0</ele><time>2026-04-26T08:44:09.167Z</time></trkpt><trkpt lat="43.0957262" lon="11.4503152"><ele>175.8</ele><time>2026-04-26T08:44:10.167Z</time></trkpt><trkpt lat="43.0956183" lon="11.4503007"><ele>175.60000000000002</ele><time>2026-04-26T08:44:11.178Z</time></trkpt><trkpt lat="43.0955124" lon="11.450272"><ele>175.4</ele><time>2026-04-26T08:44:12.182Z</time></trkpt><trkpt lat="43.0954103" lon="11.4502301"><ele>175.2</ele><time>2026-04-26T08:44:13.172Z</time></trkpt><trkpt lat="43.0953086" lon="11.4501815"><ele>175.0</ele><time>2026-04-26T08:44:14.166Z</time></trkpt><trkpt lat="43.0952069" lon="11.4501352"><ele>175.0</ele><time>2026-04-26T08:44:15.169Z</time></trkpt><trkpt lat="43.0951085" lon="11.4500908"><ele>175.0</ele><time>2026-04-26T08:44:16.18Z</time></trkpt><trkpt lat="43.0950123" lon="11.4500484"><ele>175.0</ele><time>2026-04-26T08:44:17.168Z</time></trkpt><trkpt lat="43.0949137" lon="11.4500119"><ele>175.0</ele><time>2026-04-26T08:44:18.163Z</time></trkpt><trkpt lat="43.0948123" lon="11.4499883"><ele>175.0</ele><time>2026-04-26T08:44:19.161Z</time></trkpt><trkpt lat="43.0947069" lon="11.4499805"><ele>175.0</ele><time>2026-04-26T08:44:20.184Z</time></trkpt><trkpt lat="43.0946011" lon="11.4499833"><ele>175.0</ele><time>2026-04-26T08:44:21.178Z</time></trkpt><trkpt lat="43.0944945" lon="11.4499881"><ele>175.0</ele><time>2026-04-26T08:44:22.168Z</time></trkpt><trkpt lat="43.0943878" lon="11.4499891"><ele>175.0</ele><time>2026-04-26T08:44:23.177Z</time></trkpt><trkpt lat="43.094282" lon="11.4499897"><ele>175.0</ele><time>2026-04-26T08:44:24.185Z</time></trkpt><trkpt lat="43.094174" lon="11.4499901"><ele>176.5</ele><time>2026-04-26T08:44:25.179Z</time></trkpt><trkpt lat="43.09406" lon="11.4499892"><ele>178.0</ele><time>2026-04-26T08:44:26.185Z</time></trkpt><trkpt lat="43.0939414" lon="11.4499871"><ele>179.5</ele><time>2026-04-26T08:44:27.184Z</time></trkpt><trkpt lat="43.0938215" lon="11.4499842"><ele>181.0</ele><time>2026-04-26T08:44:28.182Z</time></trkpt><trkpt lat="43.0937083" lon="11.4499758"><ele>181.0</ele><time>2026-04-26T08:44:29.171Z</time></trkpt><trkpt lat="43.0936001" lon="11.4499641"><ele>181.0</ele><time>2026-04-26T08:44:30.161Z</time></trkpt><trkpt lat="43.0934954" lon="11.4499519"><ele>181.0</ele><time>2026-04-26T08:44:31.169Z</time></trkpt><trkpt lat="43.0933897" lon="11.4499416"><ele>181.0</ele><time>2026-04-26T08:44:32.18Z</time></trkpt><trkpt lat="43.0932846" lon="11.449933"><ele>181.0</ele><time>2026-04-26T08:44:33.175Z</time></trkpt><trkpt lat="43.0931805" lon="11.4499265"><ele>181.4</ele><time>2026-04-26T08:44:34.164Z</time></trkpt><trkpt lat="43.0930775" lon="11.4499246"><ele>181.8</ele><time>2026-04-26T08:44:35.18Z</time></trkpt><trkpt lat="43.0929778" lon="11.4499193"><ele>182.20000000000002</ele><time>2026-04-26T08:44:36.183Z</time></trkpt><trkpt lat="43.0928789" lon="11.4499041"><ele>182.60000000000002</ele><time>2026-04-26T08:44:37.186Z</time></trkpt><trkpt lat="43.0927837" lon="11.4498814"><ele>183.0</ele><time>2026-04-26T08:44:38.162Z</time></trkpt><trkpt lat="43.0926924" lon="11.4498568"><ele>183.0</ele><time>2026-04-26T08:44:39.177Z</time></trkpt><trkpt lat="43.0926043" lon="11.4498344"><ele>183.0</ele><time>2026-04-26T08:44:40.165Z</time></trkpt><trkpt lat="43.092514" lon="11.4498185"><ele>183.0</ele><time>2026-04-26T08:44:41.167Z</time></trkpt><trkpt lat="43.0924176" lon="11.4498092"><ele>183.0</ele><time>2026-04-26T08:44:42.17Z</time></trkpt><trkpt lat="43.092321" lon="11.4498073"><ele>183.0</ele><time>2026-04-26T08:44:43.167Z</time></trkpt><trkpt lat="43.0922317" lon="11.4498109"><ele>183.0</ele><time>2026-04-26T08:44:44.166Z</time></trkpt><trkpt lat="43.0921424" lon="11.4498189"><ele>183.0</ele><time>2026-04-26T08:44:45.173Z</time></trkpt><trkpt lat="43.0920533" lon="11.449829"><ele>183.0</ele><time>2026-04-26T08:44:46.167Z</time></trkpt><trkpt lat="43.091965" lon="11.4498456"><ele>183.0</ele><time>2026-04-26T08:44:47.187Z</time></trkpt><trkpt lat="43.0918769" lon="11.4498713"><ele>183.0</ele><time>2026-04-26T08:44:48.177Z</time></trkpt><trkpt lat="43.0917887" lon="11.4499034"><ele>183.0</ele><time>2026-04-26T08:44:49.188Z</time></trkpt><trkpt lat="43.0916982" lon="11.4499351"><ele>183.0</ele><time>2026-04-26T08:44:50.18Z</time></trkpt><trkpt lat="43.0916068" lon="11.4499632"><ele>183.0</ele><time>2026-04-26T08:44:51.178Z</time></trkpt><trkpt lat="43.0915159" lon="11.4499885"><ele>183.0</ele><time>2026-04-26T08:44:52.161Z</time></trkpt><trkpt lat="43.0914241" lon="11.4500113"><ele>183.0</ele><time>2026-04-26T08:44:53.168Z</time></trkpt><trkpt lat="43.0913337" lon="11.4500338"><ele>183.0</ele><time>2026-04-26T08:44:54.175Z</time></trkpt><trkpt lat="43.0912455" lon="11.4500547"><ele>183.0</ele><time>2026-04-26T08:44:55.184Z</time></trkpt><trkpt lat="43.0911547" lon="11.4500654"><ele>183.0</ele><time>2026-04-26T08:44:56.175Z</time></trkpt><trkpt lat="43.0910602" lon="11.4500677"><ele>183.0</ele><time>2026-04-26T08:44:57.17Z</time></trkpt><trkpt lat="43.0909614" lon="11.4500691"><ele>183.0</ele><time>2026-04-26T08:44:58.164Z</time></trkpt><trkpt lat="43.0908577" lon="11.4500675"><ele>183.0</ele><time>2026-04-26T08:44:59.183Z</time></trkpt><trkpt lat="43.0907443" lon="11.4500617"><ele>183.5</ele><time>2026-04-26T08:45:00.161Z</time></trkpt><trkpt lat="43.0906275" lon="11.4500536"><ele>184.0</ele><time>2026-04-26T08:45:01.178Z</time></trkpt><trkpt lat="43.0905081" lon="11.4500468"><ele>184.5</ele><time>2026-04-26T08:45:02.163Z</time></trkpt><trkpt lat="43.0903885" lon="11.4500406"><ele>185.0</ele><time>2026-04-26T08:45:03.186Z</time></trkpt><trkpt lat="43.0902703" lon="11.450033"><ele>185.0</ele><time>2026-04-26T08:45:04.183Z</time></trkpt><trkpt lat="43.0901538" lon="11.4500208"><ele>185.0</ele><time>2026-04-26T08:45:05.171Z</time></trkpt><trkpt lat="43.0900401" lon="11.4500005"><ele>185.0</ele><time>2026-04-26T08:45:06.173Z</time></trkpt><trkpt lat="43.0899287" lon="11.4499655"><ele>185.0</ele><time>2026-04-26T08:45:07.173Z</time></trkpt><trkpt lat="43.0898186" lon="11.4499086"><ele>185.25</ele><time>2026-04-26T08:45:08.177Z</time></trkpt><trkpt lat="43.08971" lon="11.449836"><ele>185.5</ele><time>2026-04-26T08:45:09.174Z</time></trkpt><trkpt lat="43.0896028" lon="11.4497635"><ele>185.75</ele><time>2026-04-26T08:45:10.175Z</time></trkpt><trkpt lat="43.0894972" lon="11.4496904"><ele>186.0</ele><time>2026-04-26T08:45:11.168Z</time></trkpt><trkpt lat="43.0893982" lon="11.4496193"><ele>185.60000000000002</ele><time>2026-04-26T08:45:12.185Z</time></trkpt><trkpt lat="43.0893029" lon="11.4495416"><ele>185.2</ele><time>2026-04-26T08:45:13.182Z</time></trkpt><trkpt lat="43.0892101" lon="11.4494565"><ele>184.8</ele><time>2026-04-26T08:45:14.157Z</time></trkpt><trkpt lat="43.0891237" lon="11.4493609"><ele>184.39999999999998</ele><time>2026-04-26T08:45:15.178Z</time></trkpt><trkpt lat="43.0890492" lon="11.4492559"><ele>184.0</ele><time>2026-04-26T08:45:16.183Z</time></trkpt><trkpt lat="43.0889839" lon="11.4491441"><ele>184.79999999999998</ele><time>2026-04-26T08:45:17.164Z</time></trkpt><trkpt lat="43.0889264" lon="11.4490275"><ele>185.6</ele><time>2026-04-26T08:45:18.176Z</time></trkpt><trkpt lat="43.0888772" lon="11.4489049"><ele>186.4</ele><time>2026-04-26T08:45:19.165Z</time></trkpt><trkpt lat="43.0888396" lon="11.4487731"><ele>187.2</ele><time>2026-04-26T08:45:20.166Z</time></trkpt><trkpt lat="43.0888158" lon="11.4486396"><ele>188.0</ele><time>2026-04-26T08:45:21.179Z</time></trkpt><trkpt lat="43.0888016" lon="11.4485057"><ele>188.8</ele><time>2026-04-26T08:45:22.178Z</time></trkpt><trkpt lat="43.0887908" lon="11.4483738"><ele>189.60000000000002</ele><time>2026-04-26T08:45:23.174Z</time></trkpt><trkpt lat="43.0887836" lon="11.4482419"><ele>190.39999999999998</ele><time>2026-04-26T08:45:24.184Z</time></trkpt><trkpt lat="43.0887857" lon="11.4481076"><ele>191.2</ele><time>2026-04-26T08:45:25.175Z</time></trkpt><trkpt lat="43.0887973" lon="11.4479735"><ele>192.0</ele><time>2026-04-26T08:45:26.178Z</time></trkpt><trkpt lat="43.0888147" lon="11.4478417"><ele>192.83333333333334</ele><time>2026-04-26T08:45:27.181Z</time></trkpt><trkpt lat="43.0888328" lon="11.4477214"><ele>193.66666666666669</ele><time>2026-04-26T08:45:28.178Z</time></trkpt><trkpt lat="43.0888523" lon="11.4476052"><ele>194.5</ele><time>2026-04-26T08:45:29.18Z</time></trkpt><trkpt lat="43.0888713" lon="11.4474914"><ele>195.33333333333334</ele><time>2026-04-26T08:45:30.175Z</time></trkpt><trkpt lat="43.0888873" lon="11.4473773"><ele>196.16666666666669</ele><time>2026-04-26T08:45:31.168Z</time></trkpt><trkpt lat="43.088901" lon="11.4472615"><ele>197.0</ele><time>2026-04-26T08:45:32.175Z</time></trkpt><trkpt lat="43.0889108" lon="11.4471427"><ele>196.66666666666669</ele><time>2026-04-26T08:45:33.175Z</time></trkpt><trkpt lat="43.0889175" lon="11.4470223"><ele>196.33333333333334</ele><time>2026-04-26T08:45:34.178Z</time></trkpt><trkpt lat="43.0889187" lon="11.4468974"><ele>196.0</ele><time>2026-04-26T08:45:35.179Z</time></trkpt><trkpt lat="43.0889109" lon="11.4467747"><ele>195.66666666666669</ele><time>2026-04-26T08:45:36.174Z</time></trkpt><trkpt lat="43.0888905" lon="11.4466622"><ele>195.33333333333334</ele><time>2026-04-26T08:45:37.164Z</time></trkpt><trkpt lat="43.0888588" lon="11.4465603"><ele>195.0</ele><time>2026-04-26T08:45:38.182Z</time></trkpt><trkpt lat="43.0888149" lon="11.4464725"><ele>195.0</ele><time>2026-04-26T08:45:39.182Z</time></trkpt><trkpt lat="43.0887615" lon="11.4464032"><ele>195.0</ele><time>2026-04-26T08:45:40.178Z</time></trkpt><trkpt lat="43.088703" lon="11.4463501"><ele>195.0</ele><time>2026-04-26T08:45:41.186Z</time></trkpt><trkpt lat="43.0886421" lon="11.4463132"><ele>195.0</ele><time>2026-04-26T08:45:42.158Z</time></trkpt><trkpt lat="43.0885777" lon="11.4462904"><ele>195.0</ele><time>2026-04-26T08:45:43.173Z</time></trkpt><trkpt lat="43.0885098" lon="11.4462854"><ele>195.0</ele><time>2026-04-26T08:45:44.182Z</time></trkpt><trkpt lat="43.0884371" lon="11.4462964"><ele>195.0</ele><time>2026-04-26T08:45:45.171Z</time></trkpt><trkpt lat="43.0883627" lon="11.4463196"><ele>195.0</ele><time>2026-04-26T08:45:46.178Z</time></trkpt><trkpt lat="43.088288" lon="11.4463478"><ele>195.0</ele><time>2026-04-26T08:45:47.173Z</time></trkpt><trkpt lat="43.088214" lon="11.4463764"><ele>195.0</ele><time>2026-04-26T08:45:48.167Z</time></trkpt><trkpt lat="43.0881421" lon="11.4464028"><ele>195.0</ele><time>2026-04-26T08:45:49.162Z</time></trkpt><trkpt lat="43.0880727" lon="11.4464265"><ele>195.0</ele><time>2026-04-26T08:45:50.158Z</time></trkpt><trkpt lat="43.0880029" lon="11.4464506"><ele>195.0</ele><time>2026-04-26T08:45:51.171Z</time></trkpt><trkpt lat="43.08793" lon="11.4464674"><ele>195.0</ele><time>2026-04-26T08:45:52.182Z</time></trkpt><trkpt lat="43.0878552" lon="11.4464716"><ele>194.66666666666666</ele><time>2026-04-26T08:45:53.158Z</time></trkpt><trkpt lat="43.0877787" lon="11.446467"><ele>194.33333333333331</ele><time>2026-04-26T08:45:54.169Z</time></trkpt><trkpt lat="43.0876997" lon="11.4464506"><ele>194.0</ele><time>2026-04-26T08:45:55.17Z</time></trkpt><trkpt lat="43.0876213" lon="11.4464209"><ele>193.66666666666666</ele><time>2026-04-26T08:45:56.168Z</time></trkpt><trkpt lat="43.0875464" lon="11.4463788"><ele>193.33333333333331</ele><time>2026-04-26T08:45:57.178Z</time></trkpt><trkpt lat="43.0874779" lon="11.4463333"><ele>193.0</ele><time>2026-04-26T08:45:58.182Z</time></trkpt><trkpt lat="43.0874182" lon="11.4462813"><ele>192.83333333333331</ele><time>2026-04-26T08:45:59.167Z</time></trkpt><trkpt lat="43.0873551" lon="11.4462343"><ele>192.66666666666666</ele><time>2026-04-26T08:46:00.181Z</time></trkpt><trkpt lat="43.0872834" lon="11.4461851"><ele>192.5</ele><time>2026-04-26T08:46:01.18Z</time></trkpt><trkpt lat="43.0872023" lon="11.446145"><ele>192.33333333333331</ele><time>2026-04-26T08:46:02.178Z</time></trkpt><trkpt lat="43.0871139" lon="11.446123"><ele>192.16666666666666</ele><time>2026-04-26T08:46:03.168Z</time></trkpt><trkpt lat="43.0870283" lon="11.4461112"><ele>192.0</ele><time>2026-04-26T08:46:04.183Z</time></trkpt><trkpt lat="43.0869492" lon="11.4461046"><ele>191.99999999999997</ele><time>2026-04-26T08:46:05.176Z</time></trkpt><trkpt lat="43.0868739" lon="11.4460984"><ele>192.0</ele><time>2026-04-26T08:46:06.177Z</time></trkpt><trkpt lat="43.0868014" lon="11.446087"><ele>192.0</ele><time>2026-04-26T08:46:07.182Z</time></trkpt><trkpt lat="43.0867332" lon="11.4460684"><ele>192.0</ele><time>2026-04-26T08:46:08.179Z</time></trkpt><trkpt lat="43.086672" lon="11.4460363"><ele>192.0</ele><time>2026-04-26T08:46:09.182Z</time></trkpt><trkpt lat="43.0866187" lon="11.4459858"><ele>191.99999999999997</ele><time>2026-04-26T08:46:10.175Z</time></trkpt><trkpt lat="43.0865753" lon="11.4459157"><ele>192.0</ele><time>2026-04-26T08:46:11.161Z</time></trkpt><trkpt lat="43.0865432" lon="11.445827"><ele>192.0</ele><time>2026-04-26T08:46:12.172Z</time></trkpt><trkpt lat="43.0865318" lon="11.4457204"><ele>192.0</ele><time>2026-04-26T08:46:13.178Z</time></trkpt><trkpt lat="43.0865336" lon="11.445615"><ele>192.0</ele><time>2026-04-26T08:46:14.159Z</time></trkpt><trkpt lat="43.0865319" lon="11.4455115"><ele>192.0</ele><time>2026-04-26T08:46:15.187Z</time></trkpt><trkpt lat="43.0865214" lon="11.4454074"><ele>192.0</ele><time>2026-04-26T08:46:16.17Z</time></trkpt><trkpt lat="43.0864989" lon="11.4453074"><ele>192.0</ele><time>2026-04-26T08:46:17.185Z</time></trkpt><trkpt lat="43.0864713" lon="11.4452123"><ele>191.99999999999997</ele><time>2026-04-26T08:46:18.179Z</time></trkpt><trkpt lat="43.0864409" lon="11.445122"><ele>192.0</ele><time>2026-04-26T08:46:19.175Z</time></trkpt><trkpt lat="43.0864106" lon="11.4450349"><ele>192.0</ele><time>2026-04-26T08:46:20.174Z</time></trkpt><trkpt lat="43.0863821" lon="11.4449487"><ele>192.0</ele><time>2026-04-26T08:46:21.166Z</time></trkpt><trkpt lat="43.0863518" lon="11.4448609"><ele>192.0</ele><time>2026-04-26T08:46:22.183Z</time></trkpt><trkpt lat="43.0863193" lon="11.4447714"><ele>191.99999999999997</ele><time>2026-04-26T08:46:23.169Z</time></trkpt><trkpt lat="43.086285" lon="11.4446793"><ele>192.0</ele><time>2026-04-26T08:46:24.185Z</time></trkpt><trkpt lat="43.0862521" lon="11.4445843"><ele>192.66666666666666</ele><time>2026-04-26T08:46:25.179Z</time></trkpt><trkpt lat="43.0862232" lon="11.4444849"><ele>193.33333333333331</ele><time>2026-04-26T08:46:26.173Z</time></trkpt><trkpt lat="43.0862045" lon="11.4443832"><ele>194.0</ele><time>2026-04-26T08:46:27.189Z</time></trkpt><trkpt lat="43.0861993" lon="11.4442775"><ele>194.66666666666666</ele><time>2026-04-26T08:46:28.187Z</time></trkpt><trkpt lat="43.0862136" lon="11.4441746"><ele>195.33333333333331</ele><time>2026-04-26T08:46:29.186Z</time></trkpt><trkpt lat="43.0862286" lon="11.4440695"><ele>196.0</ele><time>2026-04-26T08:46:30.161Z</time></trkpt><trkpt lat="43.0862833" lon="11.4439771"><ele>195.99999999999997</ele><time>2026-04-26T08:46:31.18Z</time></trkpt><trkpt lat="43.0863492" lon="11.4438931"><ele>196.0</ele><time>2026-04-26T08:46:32.167Z</time></trkpt><trkpt lat="43.0864148" lon="11.4438108"><ele>196.0</ele><time>2026-04-26T08:46:33.18Z</time></trkpt><trkpt lat="43.0864839" lon="11.4437361"><ele>196.0</ele><time>2026-04-26T08:46:34.186Z</time></trkpt><trkpt lat="43.0865515" lon="11.4436625"><ele>195.99999999999997</ele><time>2026-04-26T08:46:35.171Z</time></trkpt><trkpt lat="43.086613" lon="11.4435941"><ele>196.0</ele><time>2026-04-26T08:46:36.186Z</time></trkpt><trkpt lat="43.0866621" lon="11.4435376"><ele>195.20000000000002</ele><time>2026-04-26T08:46:37.168Z</time></trkpt><trkpt lat="43.0867329" lon="11.4434531"><ele>194.4</ele><time>2026-04-26T08:46:39.183Z</time></trkpt><trkpt lat="43.0867741" lon="11.4433829"><ele>193.6</ele><time>2026-04-26T08:46:41.182Z</time></trkpt><trkpt lat="43.0868248" lon="11.4432744"><ele>192.8</ele><time>2026-04-26T08:46:43.172Z</time></trkpt><trkpt lat="43.0868848" lon="11.4431529"><ele>192.0</ele><time>2026-04-26T08:46:45.181Z</time></trkpt><trkpt lat="43.0869589" lon="11.4430135"><ele>193.28571428571428</ele><time>2026-04-26T08:46:47.168Z</time></trkpt><trkpt lat="43.0869993" lon="11.4429414"><ele>194.57142857142856</ele><time>2026-04-26T08:46:48.165Z</time></trkpt><trkpt lat="43.087039" lon="11.4428682"><ele>195.85714285714283</ele><time>2026-04-26T08:46:49.17Z</time></trkpt><trkpt lat="43.0870805" lon="11.4427923"><ele>197.14285714285714</ele><time>2026-04-26T08:46:50.171Z</time></trkpt><trkpt lat="43.0871237" lon="11.4427138"><ele>198.42857142857144</ele><time>2026-04-26T08:46:51.169Z</time></trkpt><trkpt lat="43.0871722" lon="11.4426301"><ele>199.7142857142857</ele><time>2026-04-26T08:46:52.175Z</time></trkpt><trkpt lat="43.0872254" lon="11.4425392"><ele>201.0</ele><time>2026-04-26T08:46:53.169Z</time></trkpt><trkpt lat="43.0872825" lon="11.4424443"><ele>201.0</ele><time>2026-04-26T08:46:54.175Z</time></trkpt><trkpt lat="43.0873402" lon="11.4423466"><ele>201.0</ele><time>2026-04-26T08:46:55.181Z</time></trkpt><trkpt lat="43.0873997" lon="11.442242"><ele>201.0</ele><time>2026-04-26T08:46:56.172Z</time></trkpt><trkpt lat="43.0874584" lon="11.442137"><ele>201.0</ele><time>2026-04-26T08:46:57.165Z</time></trkpt><trkpt lat="43.0875103" lon="11.4420303"><ele>201.0</ele><time>2026-04-26T08:46:58.183Z</time></trkpt><trkpt lat="43.0875564" lon="11.441919"><ele>200.83333333333334</ele><time>2026-04-26T08:46:59.171Z</time></trkpt><trkpt lat="43.0875925" lon="11.4418042"><ele>200.66666666666669</ele><time>2026-04-26T08:47:00.17Z</time></trkpt><trkpt lat="43.0876132" lon="11.4416854"><ele>200.5</ele><time>2026-04-26T08:47:01.168Z</time></trkpt><trkpt lat="43.0876273" lon="11.4415671"><ele>200.33333333333334</ele><time>2026-04-26T08:47:02.164Z</time></trkpt><trkpt lat="43.0876414" lon="11.4414484"><ele>200.16666666666669</ele><time>2026-04-26T08:47:03.17Z</time></trkpt><trkpt lat="43.0876567" lon="11.4413277"><ele>200.0</ele><time>2026-04-26T08:47:04.173Z</time></trkpt><trkpt lat="43.0876709" lon="11.4412131"><ele>200.00000000000003</ele><time>2026-04-26T08:47:05.167Z</time></trkpt><trkpt lat="43.0877053" lon="11.4411169"><ele>200.0</ele><time>2026-04-26T08:47:06.18Z</time></trkpt><trkpt lat="43.0877412" lon="11.4410213"><ele>200.0</ele><time>2026-04-26T08:47:07.165Z</time></trkpt><trkpt lat="43.0878061" lon="11.4409455"><ele>200.0</ele><time>2026-04-26T08:47:08.18Z</time></trkpt><trkpt lat="43.0878809" lon="11.4408801"><ele>200.00000000000003</ele><time>2026-04-26T08:47:09.178Z</time></trkpt><trkpt lat="43.0879609" lon="11.4408202"><ele>200.0</ele><time>2026-04-26T08:47:10.173Z</time></trkpt><trkpt lat="43.0880483" lon="11.4407651"><ele>200.0</ele><time>2026-04-26T08:47:11.179Z</time></trkpt><trkpt lat="43.0881389" lon="11.4407109"><ele>200.0</ele><time>2026-04-26T08:47:12.172Z</time></trkpt><trkpt lat="43.0882295" lon="11.4406553"><ele>200.0</ele><time>2026-04-26T08:47:13.182Z</time></trkpt><trkpt lat="43.0883185" lon="11.4405977"><ele>200.0</ele><time>2026-04-26T08:47:14.177Z</time></trkpt><trkpt lat="43.0884052" lon="11.4405387"><ele>200.0</ele><time>2026-04-26T08:47:15.169Z</time></trkpt><trkpt lat="43.0884879" lon="11.4404827"><ele>199.83333333333334</ele><time>2026-04-26T08:47:16.181Z</time></trkpt><trkpt lat="43.0885645" lon="11.4404259"><ele>199.66666666666669</ele><time>2026-04-26T08:47:17.165Z</time></trkpt><trkpt lat="43.0886334" lon="11.4403642"><ele>199.5</ele><time>2026-04-26T08:47:18.18Z</time></trkpt><trkpt lat="43.0886946" lon="11.4402921"><ele>199.33333333333331</ele><time>2026-04-26T08:47:19.171Z</time></trkpt><trkpt lat="43.0887437" lon="11.4402067"><ele>199.16666666666666</ele><time>2026-04-26T08:47:20.185Z</time></trkpt><trkpt lat="43.0887913" lon="11.4401209"><ele>199.0</ele><time>2026-04-26T08:47:21.173Z</time></trkpt><trkpt lat="43.0888112" lon="11.4400096"><ele>199.0</ele><time>2026-04-26T08:47:22.178Z</time></trkpt><trkpt lat="43.0888198" lon="11.4398927"><ele>199.0</ele><time>2026-04-26T08:47:23.17Z</time></trkpt><trkpt lat="43.0888226" lon="11.4397666"><ele>199.0</ele><time>2026-04-26T08:47:24.167Z</time></trkpt><trkpt lat="43.0888196" lon="11.4396356"><ele>199.0</ele><time>2026-04-26T08:47:25.172Z</time></trkpt><trkpt lat="43.0888146" lon="11.4394984"><ele>199.0</ele><time>2026-04-26T08:47:26.172Z</time></trkpt><trkpt lat="43.0888106" lon="11.439355"><ele>200.25</ele><time>2026-04-26T08:47:27.164Z</time></trkpt><trkpt lat="43.0888094" lon="11.439205"><ele>201.5</ele><time>2026-04-26T08:47:28.189Z</time></trkpt><trkpt lat="43.088813" lon="11.4390483"><ele>202.75</ele><time>2026-04-26T08:47:29.172Z</time></trkpt><trkpt lat="43.0888163" lon="11.4388925"><ele>204.0</ele><time>2026-04-26T08:47:30.176Z</time></trkpt><trkpt lat="43.0888231" lon="11.438736"><ele>204.0</ele><time>2026-04-26T08:47:31.187Z</time></trkpt><trkpt lat="43.0888296" lon="11.4385843"><ele>204.0</ele><time>2026-04-26T08:47:32.163Z</time></trkpt><trkpt lat="43.0888372" lon="11.438443"><ele>204.0</ele><time>2026-04-26T08:47:33.177Z</time></trkpt><trkpt lat="43.088846" lon="11.4383071"><ele>204.0</ele><time>2026-04-26T08:47:34.167Z</time></trkpt><trkpt lat="43.0888526" lon="11.438183"><ele>204.0</ele><time>2026-04-26T08:47:35.187Z</time></trkpt><trkpt lat="43.0888551" lon="11.4380671"><ele>203.66666666666666</ele><time>2026-04-26T08:47:36.168Z</time></trkpt><trkpt lat="43.0888598" lon="11.4379619"><ele>203.33333333333331</ele><time>2026-04-26T08:47:37.18Z</time></trkpt><trkpt lat="43.088863" lon="11.4378615"><ele>203.0</ele><time>2026-04-26T08:47:38.172Z</time></trkpt><trkpt lat="43.0888668" lon="11.4377572"><ele>202.66666666666666</ele><time>2026-04-26T08:47:39.17Z</time></trkpt><trkpt lat="43.0888675" lon="11.4376481"><ele>202.33333333333331</ele><time>2026-04-26T08:47:40.181Z</time></trkpt><trkpt lat="43.0888592" lon="11.4375302"><ele>202.0</ele><time>2026-04-26T08:47:41.164Z</time></trkpt><trkpt lat="43.0888384" lon="11.4374084"><ele>202.0</ele><time>2026-04-26T08:47:42.174Z</time></trkpt><trkpt lat="43.0888083" lon="11.4372803"><ele>202.0</ele><time>2026-04-26T08:47:43.165Z</time></trkpt><trkpt lat="43.0887736" lon="11.4371463"><ele>202.0</ele><time>2026-04-26T08:47:44.178Z</time></trkpt><trkpt lat="43.0887375" lon="11.4370068"><ele>202.0</ele><time>2026-04-26T08:47:45.16Z</time></trkpt><trkpt lat="43.0886995" lon="11.4368669"><ele>202.0</ele><time>2026-04-26T08:47:46.177Z</time></trkpt><trkpt lat="43.0886615" lon="11.4367357"><ele>200.83333333333331</ele><time>2026-04-26T08:47:47.184Z</time></trkpt><trkpt lat="43.0886263" lon="11.4366107"><ele>199.66666666666666</ele><time>2026-04-26T08:47:48.167Z</time></trkpt><trkpt lat="43.0885939" lon="11.4364929"><ele>198.5</ele><time>2026-04-26T08:47:49.175Z</time></trkpt><trkpt lat="43.0885629" lon="11.4363809"><ele>197.33333333333331</ele><time>2026-04-26T08:47:50.17Z</time></trkpt><trkpt lat="43.0885349" lon="11.4362726"><ele>196.16666666666666</ele><time>2026-04-26T08:47:51.175Z</time></trkpt><trkpt lat="43.0885102" lon="11.4361676"><ele>195.0</ele><time>2026-04-26T08:47:52.167Z</time></trkpt><trkpt lat="43.0884917" lon="11.4360565"><ele>194.6</ele><time>2026-04-26T08:47:53.163Z</time></trkpt><trkpt lat="43.0884877" lon="11.4359398"><ele>194.2</ele><time>2026-04-26T08:47:54.159Z</time></trkpt><trkpt lat="43.0885049" lon="11.4358266"><ele>193.8</ele><time>2026-04-26T08:47:55.185Z</time></trkpt><trkpt lat="43.0885418" lon="11.4357183"><ele>193.4</ele><time>2026-04-26T08:47:56.161Z</time></trkpt><trkpt lat="43.0885963" lon="11.4356142"><ele>193.0</ele><time>2026-04-26T08:47:57.173Z</time></trkpt><trkpt lat="43.0886654" lon="11.4355165"><ele>193.60000000000002</ele><time>2026-04-26T08:47:58.174Z</time></trkpt><trkpt lat="43.0887446" lon="11.4354214"><ele>194.20000000000002</ele><time>2026-04-26T08:47:59.17Z</time></trkpt><trkpt lat="43.0888263" lon="11.4353253"><ele>194.8</ele><time>2026-04-26T08:48:00.171Z</time></trkpt><trkpt lat="43.0889066" lon="11.4352315"><ele>195.4</ele><time>2026-04-26T08:48:01.177Z</time></trkpt><trkpt lat="43.0889846" lon="11.435143"><ele>196.0</ele><time>2026-04-26T08:48:02.163Z</time></trkpt><trkpt lat="43.0890616" lon="11.4350564"><ele>194.0</ele><time>2026-04-26T08:48:03.175Z</time></trkpt><trkpt lat="43.0891377" lon="11.4349685"><ele>192.0</ele><time>2026-04-26T08:48:04.171Z</time></trkpt><trkpt lat="43.0892137" lon="11.4348821"><ele>190.0</ele><time>2026-04-26T08:48:05.178Z</time></trkpt><trkpt lat="43.0892903" lon="11.4347958"><ele>188.0</ele><time>2026-04-26T08:48:06.18Z</time></trkpt><trkpt lat="43.0893676" lon="11.4347088"><ele>186.0</ele><time>2026-04-26T08:48:07.16Z</time></trkpt><trkpt lat="43.0894452" lon="11.4346197"><ele>186.0</ele><time>2026-04-26T08:48:08.178Z</time></trkpt><trkpt lat="43.0895232" lon="11.4345328"><ele>186.0</ele><time>2026-04-26T08:48:09.168Z</time></trkpt><trkpt lat="43.0896044" lon="11.4344484"><ele>186.0</ele><time>2026-04-26T08:48:10.179Z</time></trkpt><trkpt lat="43.0896899" lon="11.4343634"><ele>186.0</ele><time>2026-04-26T08:48:11.179Z</time></trkpt><trkpt lat="43.0897822" lon="11.434281"><ele>186.0</ele><time>2026-04-26T08:48:12.155Z</time></trkpt><trkpt lat="43.0898833" lon="11.434213"><ele>185.0</ele><time>2026-04-26T08:48:13.175Z</time></trkpt><trkpt lat="43.0899959" lon="11.4341581"><ele>184.0</ele><time>2026-04-26T08:48:14.176Z</time></trkpt><trkpt lat="43.090122" lon="11.4341146"><ele>183.0</ele><time>2026-04-26T08:48:15.179Z</time></trkpt><trkpt lat="43.0902448" lon="11.4340863"><ele>182.0</ele><time>2026-04-26T08:48:16.172Z</time></trkpt><trkpt lat="43.0903599" lon="11.4340664"><ele>182.0</ele><time>2026-04-26T08:48:17.169Z</time></trkpt><trkpt lat="43.0904664" lon="11.4340521"><ele>182.0</ele><time>2026-04-26T08:48:18.169Z</time></trkpt><trkpt lat="43.0905673" lon="11.4340417"><ele>182.0</ele><time>2026-04-26T08:48:19.184Z</time></trkpt><trkpt lat="43.0906658" lon="11.4340416"><ele>182.0</ele><time>2026-04-26T08:48:20.173Z</time></trkpt><trkpt lat="43.0907629" lon="11.4340571"><ele>182.0</ele><time>2026-04-26T08:48:21.173Z</time></trkpt><trkpt lat="43.0908587" lon="11.4340925"><ele>182.0</ele><time>2026-04-26T08:48:22.175Z</time></trkpt><trkpt lat="43.0909545" lon="11.4341418"><ele>182.0</ele><time>2026-04-26T08:48:23.174Z</time></trkpt><trkpt lat="43.0910502" lon="11.4342002"><ele>182.0</ele><time>2026-04-26T08:48:24.166Z</time></trkpt><trkpt lat="43.0911442" lon="11.4342709"><ele>182.0</ele><time>2026-04-26T08:48:25.177Z</time></trkpt><trkpt lat="43.0912375" lon="11.4343458"><ele>182.0</ele><time>2026-04-26T08:48:26.169Z</time></trkpt><trkpt lat="43.0913316" lon="11.4344176"><ele>182.0</ele><time>2026-04-26T08:48:27.176Z</time></trkpt><trkpt lat="43.091426" lon="11.4344858"><ele>182.0</ele><time>2026-04-26T08:48:28.181Z</time></trkpt><trkpt lat="43.0915175" lon="11.4345522"><ele>182.0</ele><time>2026-04-26T08:48:29.173Z</time></trkpt><trkpt lat="43.0916076" lon="11.4346178"><ele>182.0</ele><time>2026-04-26T08:48:30.18Z</time></trkpt><trkpt lat="43.0916915" lon="11.4346805"><ele>182.0</ele><time>2026-04-26T08:48:31.179Z</time></trkpt><trkpt lat="43.0917747" lon="11.4347346"><ele>181.2</ele><time>2026-04-26T08:48:32.177Z</time></trkpt><trkpt lat="43.0918586" lon="11.4347764"><ele>180.39999999999998</ele><time>2026-04-26T08:48:33.18Z</time></trkpt><trkpt lat="43.0919457" lon="11.4348055"><ele>179.60000000000002</ele><time>2026-04-26T08:48:34.172Z</time></trkpt><trkpt lat="43.0920352" lon="11.4348228"><ele>178.8</ele><time>2026-04-26T08:48:35.178Z</time></trkpt><trkpt lat="43.0921279" lon="11.4348264"><ele>178.0</ele><time>2026-04-26T08:48:36.16Z</time></trkpt><trkpt lat="43.0922234" lon="11.4348174"><ele>178.0</ele><time>2026-04-26T08:48:37.165Z</time></trkpt><trkpt lat="43.0923206" lon="11.4347949"><ele>178.0</ele><time>2026-04-26T08:48:38.168Z</time></trkpt><trkpt lat="43.0924177" lon="11.4347578"><ele>178.0</ele><time>2026-04-26T08:48:39.165Z</time></trkpt><trkpt lat="43.0925103" lon="11.4347068"><ele>178.0</ele><time>2026-04-26T08:48:40.165Z</time></trkpt><trkpt lat="43.0925995" lon="11.4346478"><ele>178.0</ele><time>2026-04-26T08:48:41.177Z</time></trkpt><trkpt lat="43.0926877" lon="11.4345838"><ele>180.2</ele><time>2026-04-26T08:48:42.174Z</time></trkpt><trkpt lat="43.0927753" lon="11.4345157"><ele>182.4</ele><time>2026-04-26T08:48:43.17Z</time></trkpt><trkpt lat="43.0928608" lon="11.4344436"><ele>184.6</ele><time>2026-04-26T08:48:44.169Z</time></trkpt><trkpt lat="43.0929452" lon="11.434371"><ele>186.79999999999998</ele><time>2026-04-26T08:48:45.174Z</time></trkpt><trkpt lat="43.0930287" lon="11.4343008"><ele>189.0</ele><time>2026-04-26T08:48:46.17Z</time></trkpt><trkpt lat="43.0931168" lon="11.4342436"><ele>189.0</ele><time>2026-04-26T08:48:47.158Z</time></trkpt><trkpt lat="43.0932089" lon="11.4342029"><ele>189.0</ele><time>2026-04-26T08:48:48.17Z</time></trkpt><trkpt lat="43.093306" lon="11.4341841"><ele>189.0</ele><time>2026-04-26T08:48:49.18Z</time></trkpt><trkpt lat="43.0934099" lon="11.4341833"><ele>189.0</ele><time>2026-04-26T08:48:50.176Z</time></trkpt><trkpt lat="43.0935152" lon="11.4341946"><ele>189.0</ele><time>2026-04-26T08:48:51.175Z</time></trkpt><trkpt lat="43.09362" lon="11.4342036"><ele>187.79999999999998</ele><time>2026-04-26T08:48:52.176Z</time></trkpt><trkpt lat="43.0937199" lon="11.4342142"><ele>186.6</ele><time>2026-04-26T08:48:53.178Z</time></trkpt><trkpt lat="43.093812" lon="11.4342283"><ele>185.4</ele><time>2026-04-26T08:48:54.175Z</time></trkpt><trkpt lat="43.0938971" lon="11.4342396"><ele>184.2</ele><time>2026-04-26T08:48:55.168Z</time></trkpt><trkpt lat="43.0939682" lon="11.4342475"><ele>183.0</ele><time>2026-04-26T08:48:56.174Z</time></trkpt><trkpt lat="43.0940784" lon="11.434253"><ele>182.2</ele><time>2026-04-26T08:48:58.177Z</time></trkpt><trkpt lat="43.0941666" lon="11.434227"><ele>181.4</ele><time>2026-04-26T08:49:00.172Z</time></trkpt><trkpt lat="43.0942351" lon="11.4341553"><ele>180.6</ele><time>2026-04-26T08:49:02.169Z</time></trkpt><trkpt lat="43.0942739" lon="11.4340389"><ele>179.79999999999998</ele><time>2026-04-26T08:49:04.182Z</time></trkpt><trkpt lat="43.0942694" lon="11.4338947"><ele>179.0</ele><time>2026-04-26T08:49:06.169Z</time></trkpt><trkpt lat="43.0942193" lon="11.43374"><ele>178.71428571428572</ele><time>2026-04-26T08:49:08.178Z</time></trkpt><trkpt lat="43.094187" lon="11.4336589"><ele>178.42857142857144</ele><time>2026-04-26T08:49:09.171Z</time></trkpt><trkpt lat="43.0941506" lon="11.4335774"><ele>178.14285714285717</ele><time>2026-04-26T08:49:10.171Z</time></trkpt><trkpt lat="43.0941101" lon="11.433493"><ele>177.85714285714286</ele><time>2026-04-26T08:49:11.17Z</time></trkpt><trkpt lat="43.0940642" lon="11.4334088"><ele>177.57142857142856</ele><time>2026-04-26T08:49:12.167Z</time></trkpt><trkpt lat="43.094015" lon="11.4333263"><ele>177.2857142857143</ele><time>2026-04-26T08:49:13.171Z</time></trkpt><trkpt lat="43.0939618" lon="11.4332458"><ele>177.0</ele><time>2026-04-26T08:49:14.177Z</time></trkpt><trkpt lat="43.0939046" lon="11.4331677"><ele>176.83333333333334</ele><time>2026-04-26T08:49:15.179Z</time></trkpt><trkpt lat="43.0938457" lon="11.4330937"><ele>176.66666666666666</ele><time>2026-04-26T08:49:16.179Z</time></trkpt><trkpt lat="43.0937887" lon="11.4330227"><ele>176.5</ele><time>2026-04-26T08:49:17.171Z</time></trkpt><trkpt lat="43.093733" lon="11.4329508"><ele>176.33333333333331</ele><time>2026-04-26T08:49:18.177Z</time></trkpt><trkpt lat="43.0936738" lon="11.4328775"><ele>176.16666666666666</ele><time>2026-04-26T08:49:19.162Z</time></trkpt><trkpt lat="43.0936097" lon="11.4328054"><ele>176.0</ele><time>2026-04-26T08:49:20.175Z</time></trkpt><trkpt lat="43.0935449" lon="11.4327286"><ele>176.0</ele><time>2026-04-26T08:49:21.174Z</time></trkpt><trkpt lat="43.0934798" lon="11.4326467"><ele>176.0</ele><time>2026-04-26T08:49:22.163Z</time></trkpt><trkpt lat="43.0934097" lon="11.432568"><ele>176.0</ele><time>2026-04-26T08:49:23.172Z</time></trkpt><trkpt lat="43.0933411" lon="11.4324853"><ele>176.0</ele><time>2026-04-26T08:49:24.173Z</time></trkpt><trkpt lat="43.0932745" lon="11.4324028"><ele>176.0</ele><time>2026-04-26T08:49:25.178Z</time></trkpt><trkpt lat="43.0932064" lon="11.4323227"><ele>175.5</ele><time>2026-04-26T08:49:26.176Z</time></trkpt><trkpt lat="43.0931376" lon="11.4322443"><ele>175.0</ele><time>2026-04-26T08:49:27.16Z</time></trkpt><trkpt lat="43.0930677" lon="11.4321687"><ele>174.5</ele><time>2026-04-26T08:49:28.186Z</time></trkpt><trkpt lat="43.0929946" lon="11.432098"><ele>174.0</ele><time>2026-04-26T08:49:29.174Z</time></trkpt><trkpt lat="43.0929217" lon="11.4320283"><ele>173.5</ele><time>2026-04-26T08:49:30.166Z</time></trkpt><trkpt lat="43.0928417" lon="11.431973"><ele>173.0</ele><time>2026-04-26T08:49:31.167Z</time></trkpt><trkpt lat="43.0927573" lon="11.4319281"><ele>173.0</ele><time>2026-04-26T08:49:32.168Z</time></trkpt><trkpt lat="43.0926693" lon="11.4318947"><ele>173.0</ele><time>2026-04-26T08:49:33.175Z</time></trkpt><trkpt lat="43.0925769" lon="11.431866"><ele>173.0</ele><time>2026-04-26T08:49:34.161Z</time></trkpt><trkpt lat="43.0924852" lon="11.4318347"><ele>173.0</ele><time>2026-04-26T08:49:35.171Z</time></trkpt><trkpt lat="43.0924008" lon="11.4317855"><ele>173.0</ele><time>2026-04-26T08:49:36.173Z</time></trkpt><trkpt lat="43.0923288" lon="11.431709"><ele>173.4</ele><time>2026-04-26T08:49:37.166Z</time></trkpt><trkpt lat="43.092274" lon="11.4316085"><ele>173.8</ele><time>2026-04-26T08:49:38.171Z</time></trkpt><trkpt lat="43.0922402" lon="11.4314931"><ele>174.2</ele><time>2026-04-26T08:49:39.176Z</time></trkpt><trkpt lat="43.0922311" lon="11.4313703"><ele>174.6</ele><time>2026-04-26T08:49:40.179Z</time></trkpt><trkpt lat="43.0922476" lon="11.4312448"><ele>175.0</ele><time>2026-04-26T08:49:41.181Z</time></trkpt><trkpt lat="43.0922847" lon="11.4311063"><ele>175.0</ele><time>2026-04-26T08:49:42.183Z</time></trkpt><trkpt lat="43.0923416" lon="11.4309428"><ele>175.0</ele><time>2026-04-26T08:49:43.16Z</time></trkpt><trkpt lat="43.092409" lon="11.4307485"><ele>175.0</ele><time>2026-04-26T08:49:44.179Z</time></trkpt><trkpt lat="43.0924708" lon="11.4305568"><ele>175.0</ele><time>2026-04-26T08:49:45.157Z</time></trkpt><trkpt lat="43.0925279" lon="11.4303818"><ele>174.2</ele><time>2026-04-26T08:49:46.167Z</time></trkpt><trkpt lat="43.0925783" lon="11.4302282"><ele>173.4</ele><time>2026-04-26T08:49:47.173Z</time></trkpt><trkpt lat="43.0926217" lon="11.4300956"><ele>172.60000000000002</ele><time>2026-04-26T08:49:48.168Z</time></trkpt><trkpt lat="43.0926618" lon="11.4299738"><ele>171.8</ele><time>2026-04-26T08:49:49.172Z</time></trkpt><trkpt lat="43.0927017" lon="11.4298581"><ele>171.0</ele><time>2026-04-26T08:49:50.177Z</time></trkpt><trkpt lat="43.0927414" lon="11.4297449"><ele>172.0</ele><time>2026-04-26T08:49:51.184Z</time></trkpt><trkpt lat="43.0927792" lon="11.4296334"><ele>173.0</ele><time>2026-04-26T08:49:52.168Z</time></trkpt><trkpt lat="43.0928213" lon="11.4295247"><ele>174.0</ele><time>2026-04-26T08:49:53.186Z</time></trkpt><trkpt lat="43.0928718" lon="11.4294226"><ele>175.0</ele><time>2026-04-26T08:49:54.171Z</time></trkpt><trkpt lat="43.0929324" lon="11.42933"><ele>176.0</ele><time>2026-04-26T08:49:55.156Z</time></trkpt><trkpt lat="43.093006" lon="11.4292511"><ele>176.0</ele><time>2026-04-26T08:49:56.158Z</time></trkpt><trkpt lat="43.0930916" lon="11.4291965"><ele>176.0</ele><time>2026-04-26T08:49:57.16Z</time></trkpt><trkpt lat="43.0931761" lon="11.4291442"><ele>176.0</ele><time>2026-04-26T08:49:58.181Z</time></trkpt><trkpt lat="43.0932699" lon="11.4291562"><ele>176.0</ele><time>2026-04-26T08:49:59.173Z</time></trkpt><trkpt lat="43.0933646" lon="11.4291889"><ele>176.0</ele><time>2026-04-26T08:50:00.18Z</time></trkpt><trkpt lat="43.0934592" lon="11.4292299"><ele>176.20000000000002</ele><time>2026-04-26T08:50:01.165Z</time></trkpt><trkpt lat="43.0935552" lon="11.4292677"><ele>176.4</ele><time>2026-04-26T08:50:02.162Z</time></trkpt><trkpt lat="43.09365" lon="11.4293035"><ele>176.6</ele><time>2026-04-26T08:50:03.177Z</time></trkpt><trkpt lat="43.0937421" lon="11.4293401"><ele>176.8</ele><time>2026-04-26T08:50:04.162Z</time></trkpt><trkpt lat="43.0938315" lon="11.4293729"><ele>177.0</ele><time>2026-04-26T08:50:05.174Z</time></trkpt><trkpt lat="43.0939143" lon="11.4293983"><ele>177.0</ele><time>2026-04-26T08:50:06.178Z</time></trkpt><trkpt lat="43.0939923" lon="11.4294154"><ele>177.0</ele><time>2026-04-26T08:50:07.171Z</time></trkpt><trkpt lat="43.0940619" lon="11.4294172"><ele>177.0</ele><time>2026-04-26T08:50:08.165Z</time></trkpt><trkpt lat="43.0941273" lon="11.4294055"><ele>177.0</ele><time>2026-04-26T08:50:09.172Z</time></trkpt><trkpt lat="43.0942291" lon="11.4293487"><ele>177.0</ele><time>2026-04-26T08:50:11.16Z</time></trkpt><trkpt lat="43.094303" lon="11.4292687"><ele>177.0</ele><time>2026-04-26T08:50:13.182Z</time></trkpt><trkpt lat="43.0943648" lon="11.4291564"><ele>177.83333333333334</ele><time>2026-04-26T08:50:15.181Z</time></trkpt><trkpt lat="43.094418" lon="11.4290285"><ele>178.66666666666666</ele><time>2026-04-26T08:50:17.169Z</time></trkpt><trkpt lat="43.0944649" lon="11.4289125"><ele>179.5</ele><time>2026-04-26T08:50:19.186Z</time></trkpt><trkpt lat="43.0945041" lon="11.428826"><ele>180.33333333333331</ele><time>2026-04-26T08:50:21.168Z</time></trkpt><trkpt lat="43.0945381" lon="11.4287475"><ele>181.16666666666666</ele><time>2026-04-26T08:50:23.167Z</time></trkpt><trkpt lat="43.094554" lon="11.4286526"><ele>182.0</ele><time>2026-04-26T08:50:26.178Z</time></trkpt><trkpt lat="43.0944941" lon="11.4285292"><ele>182.66666666666666</ele><time>2026-04-26T08:50:29.173Z</time></trkpt><trkpt lat="43.0943949" lon="11.4284411"><ele>183.33333333333331</ele><time>2026-04-26T08:50:31.169Z</time></trkpt><trkpt lat="43.0943357" lon="11.4283996"><ele>184.0</ele><time>2026-04-26T08:50:32.181Z</time></trkpt><trkpt lat="43.0942705" lon="11.4283529"><ele>184.66666666666666</ele><time>2026-04-26T08:50:33.179Z</time></trkpt><trkpt lat="43.0942036" lon="11.4283045"><ele>185.33333333333334</ele><time>2026-04-26T08:50:34.17Z</time></trkpt><trkpt lat="43.0941384" lon="11.4282574"><ele>186.0</ele><time>2026-04-26T08:50:35.17Z</time></trkpt><trkpt lat="43.0940751" lon="11.4282124"><ele>186.33333333333334</ele><time>2026-04-26T08:50:36.171Z</time></trkpt><trkpt lat="43.0940082" lon="11.428165"><ele>186.66666666666666</ele><time>2026-04-26T08:50:37.181Z</time></trkpt><trkpt lat="43.0939376" lon="11.4281151"><ele>187.0</ele><time>2026-04-26T08:50:38.177Z</time></trkpt><trkpt lat="43.093861" lon="11.4280611"><ele>187.33333333333331</ele><time>2026-04-26T08:50:39.175Z</time></trkpt><trkpt lat="43.0937719" lon="11.4280032"><ele>187.66666666666666</ele><time>2026-04-26T08:50:40.167Z</time></trkpt><trkpt lat="43.0936876" lon="11.4279442"><ele>188.0</ele><time>2026-04-26T08:50:41.177Z</time></trkpt><trkpt lat="43.0935955" lon="11.4278773"><ele>188.60000000000002</ele><time>2026-04-26T08:50:42.17Z</time></trkpt><trkpt lat="43.0935036" lon="11.4278109"><ele>189.20000000000002</ele><time>2026-04-26T08:50:43.182Z</time></trkpt><trkpt lat="43.0934119" lon="11.4277409"><ele>189.8</ele><time>2026-04-26T08:50:44.173Z</time></trkpt><trkpt lat="43.093323" lon="11.4276771"><ele>190.4</ele><time>2026-04-26T08:50:45.174Z</time></trkpt><trkpt lat="43.0932357" lon="11.4276123"><ele>191.0</ele><time>2026-04-26T08:50:46.187Z</time></trkpt><trkpt lat="43.0931511" lon="11.4275453"><ele>191.60000000000002</ele><time>2026-04-26T08:50:47.186Z</time></trkpt><trkpt lat="43.0930683" lon="11.4274824"><ele>192.2</ele><time>2026-04-26T08:50:48.187Z</time></trkpt><trkpt lat="43.0929891" lon="11.4274239"><ele>192.8</ele><time>2026-04-26T08:50:49.181Z</time></trkpt><trkpt lat="43.0929116" lon="11.4273662"><ele>193.39999999999998</ele><time>2026-04-26T08:50:50.17Z</time></trkpt><trkpt lat="43.0928319" lon="11.4273113"><ele>194.0</ele><time>2026-04-26T08:50:51.184Z</time></trkpt><trkpt lat="43.0927513" lon="11.4272481"><ele>194.0</ele><time>2026-04-26T08:50:52.174Z</time></trkpt><trkpt lat="43.092676" lon="11.4271916"><ele>194.0</ele><time>2026-04-26T08:50:53.174Z</time></trkpt><trkpt lat="43.0926028" lon="11.4271356"><ele>194.0</ele><time>2026-04-26T08:50:54.186Z</time></trkpt><trkpt lat="43.0925233" lon="11.4270785"><ele>194.0</ele><time>2026-04-26T08:50:55.163Z</time></trkpt><trkpt lat="43.0924371" lon="11.4270195"><ele>194.0</ele><time>2026-04-26T08:50:56.185Z</time></trkpt><trkpt lat="43.0923453" lon="11.4269539"><ele>195.5</ele><time>2026-04-26T08:50:57.169Z</time></trkpt><trkpt lat="43.0922468" lon="11.426882"><ele>197.0</ele><time>2026-04-26T08:50:58.184Z</time></trkpt><trkpt lat="43.0921436" lon="11.4268085"><ele>198.5</ele><time>2026-04-26T08:50:59.182Z</time></trkpt><trkpt lat="43.0920331" lon="11.4267278"><ele>200.0</ele><time>2026-04-26T08:51:00.177Z</time></trkpt><trkpt lat="43.09191" lon="11.4266406"><ele>200.0</ele><time>2026-04-26T08:51:01.172Z</time></trkpt><trkpt lat="43.091786" lon="11.4265514"><ele>200.0</ele><time>2026-04-26T08:51:02.18Z</time></trkpt><trkpt lat="43.0916678" lon="11.4264664"><ele>200.0</ele><time>2026-04-26T08:51:03.164Z</time></trkpt><trkpt lat="43.0915579" lon="11.4263867"><ele>200.0</ele><time>2026-04-26T08:51:04.184Z</time></trkpt><trkpt lat="43.0914525" lon="11.4263085"><ele>200.6</ele><time>2026-04-26T08:51:05.177Z</time></trkpt><trkpt lat="43.0913496" lon="11.4262321"><ele>201.2</ele><time>2026-04-26T08:51:06.189Z</time></trkpt><trkpt lat="43.0912505" lon="11.426159"><ele>201.8</ele><time>2026-04-26T08:51:07.176Z</time></trkpt><trkpt lat="43.0911549" lon="11.4260908"><ele>202.4</ele><time>2026-04-26T08:51:08.173Z</time></trkpt><trkpt lat="43.0910586" lon="11.4260249"><ele>203.0</ele><time>2026-04-26T08:51:09.173Z</time></trkpt><trkpt lat="43.0909482" lon="11.4259748"><ele>203.0</ele><time>2026-04-26T08:51:10.177Z</time></trkpt><trkpt lat="43.0908426" lon="11.4259292"><ele>203.0</ele><time>2026-04-26T08:51:11.173Z</time></trkpt><trkpt lat="43.090735" lon="11.4258982"><ele>203.0</ele><time>2026-04-26T08:51:12.176Z</time></trkpt><trkpt lat="43.0906283" lon="11.4258677"><ele>203.0</ele><time>2026-04-26T08:51:13.174Z</time></trkpt><trkpt lat="43.0905203" lon="11.4258404"><ele>203.0</ele><time>2026-04-26T08:51:14.176Z</time></trkpt><trkpt lat="43.0904103" lon="11.4258139"><ele>204.2</ele><time>2026-04-26T08:51:15.175Z</time></trkpt><trkpt lat="43.0903017" lon="11.425785"><ele>205.4</ele><time>2026-04-26T08:51:16.167Z</time></trkpt><trkpt lat="43.0901991" lon="11.4257571"><ele>206.6</ele><time>2026-04-26T08:51:17.177Z</time></trkpt><trkpt lat="43.0900981" lon="11.4257328"><ele>207.79999999999998</ele><time>2026-04-26T08:51:18.179Z</time></trkpt><trkpt lat="43.0900013" lon="11.4257072"><ele>209.0</ele><time>2026-04-26T08:51:19.188Z</time></trkpt><trkpt lat="43.0898977" lon="11.4256762"><ele>210.0</ele><time>2026-04-26T08:51:20.179Z</time></trkpt><trkpt lat="43.0897959" lon="11.4256497"><ele>211.0</ele><time>2026-04-26T08:51:21.176Z</time></trkpt><trkpt lat="43.0896913" lon="11.4256213"><ele>211.99999999999997</ele><time>2026-04-26T08:51:22.189Z</time></trkpt><trkpt lat="43.0895801" lon="11.4255852"><ele>213.0</ele><time>2026-04-26T08:51:23.166Z</time></trkpt><trkpt lat="43.08947" lon="11.4255507"><ele>214.0</ele><time>2026-04-26T08:51:24.183Z</time></trkpt><trkpt lat="43.0893585" lon="11.4255228"><ele>214.0</ele><time>2026-04-26T08:51:25.173Z</time></trkpt><trkpt lat="43.089248" lon="11.4254942"><ele>213.99999999999997</ele><time>2026-04-26T08:51:26.187Z</time></trkpt><trkpt lat="43.0891456" lon="11.4254622"><ele>213.99999999999997</ele><time>2026-04-26T08:51:27.184Z</time></trkpt><trkpt lat="43.0890568" lon="11.4254186"><ele>214.0</ele><time>2026-04-26T08:51:28.175Z</time></trkpt><trkpt lat="43.0889792" lon="11.4253445"><ele>214.0</ele><time>2026-04-26T08:51:29.179Z</time></trkpt><trkpt lat="43.0889299" lon="11.4252233"><ele>219.2</ele><time>2026-04-26T08:51:30.181Z</time></trkpt><trkpt lat="43.0889058" lon="11.4250672"><ele>224.39999999999998</ele><time>2026-04-26T08:51:31.178Z</time></trkpt><trkpt lat="43.088901" lon="11.4249071"><ele>229.6</ele><time>2026-04-26T08:51:32.173Z</time></trkpt><trkpt lat="43.0889145" lon="11.424767"><ele>234.8</ele><time>2026-04-26T08:51:33.184Z</time></trkpt><trkpt lat="43.0889423" lon="11.4246314"><ele>240.0</ele><time>2026-04-26T08:51:34.189Z</time></trkpt><trkpt lat="43.088968" lon="11.424499"><ele>238.2</ele><time>2026-04-26T08:51:35.186Z</time></trkpt><trkpt lat="43.088994" lon="11.4243719"><ele>236.4</ele><time>2026-04-26T08:51:36.182Z</time></trkpt><trkpt lat="43.0890197" lon="11.4242473"><ele>234.60000000000002</ele><time>2026-04-26T08:51:37.184Z</time></trkpt><trkpt lat="43.0890456" lon="11.4241164"><ele>232.8</ele><time>2026-04-26T08:51:38.177Z</time></trkpt><trkpt lat="43.089076" lon="11.4239797"><ele>231.0</ele><time>2026-04-26T08:51:39.186Z</time></trkpt><trkpt lat="43.0891031" lon="11.4238391"><ele>232.4</ele><time>2026-04-26T08:51:40.177Z</time></trkpt><trkpt lat="43.0891235" lon="11.4237009"><ele>233.8</ele><time>2026-04-26T08:51:41.177Z</time></trkpt><trkpt lat="43.0891372" lon="11.4235712"><ele>235.20000000000002</ele><time>2026-04-26T08:51:42.181Z</time></trkpt><trkpt lat="43.089144" lon="11.4234439"><ele>236.60000000000002</ele><time>2026-04-26T08:51:43.184Z</time></trkpt><trkpt lat="43.0891374" lon="11.4233211"><ele>238.0</ele><time>2026-04-26T08:51:44.183Z</time></trkpt><trkpt lat="43.089118" lon="11.4231997"><ele>238.0</ele><time>2026-04-26T08:51:45.187Z</time></trkpt><trkpt lat="43.0890981" lon="11.4230759"><ele>238.0</ele><time>2026-04-26T08:51:46.188Z</time></trkpt><trkpt lat="43.089056" lon="11.4229548"><ele>238.0</ele><time>2026-04-26T08:51:47.177Z</time></trkpt><trkpt lat="43.0890056" lon="11.4228377"><ele>238.0</ele><time>2026-04-26T08:51:48.177Z</time></trkpt><trkpt lat="43.0889526" lon="11.4227163"><ele>238.0</ele><time>2026-04-26T08:51:49.176Z</time></trkpt><trkpt lat="43.0889055" lon="11.4225907"><ele>241.16666666666666</ele><time>2026-04-26T08:51:50.183Z</time></trkpt><trkpt lat="43.0888599" lon="11.4224663"><ele>244.33333333333331</ele><time>2026-04-26T08:51:51.174Z</time></trkpt><trkpt lat="43.0888109" lon="11.4223365"><ele>247.5</ele><time>2026-04-26T08:51:52.184Z</time></trkpt><trkpt lat="43.0887747" lon="11.4222283"><ele>250.66666666666669</ele><time>2026-04-26T08:51:53.19Z</time></trkpt><trkpt lat="43.088739" lon="11.4221297"><ele>253.83333333333334</ele><time>2026-04-26T08:51:54.178Z</time></trkpt><trkpt lat="43.0887044" lon="11.422043"><ele>257.0</ele><time>2026-04-26T08:51:55.182Z</time></trkpt><trkpt lat="43.0886685" lon="11.4219608"><ele>257.0</ele><time>2026-04-26T08:51:56.166Z</time></trkpt><trkpt lat="43.0886265" lon="11.4218859"><ele>257.0</ele><time>2026-04-26T08:51:57.186Z</time></trkpt><trkpt lat="43.0885794" lon="11.421818"><ele>257.0</ele><time>2026-04-26T08:51:58.181Z</time></trkpt><trkpt lat="43.0885244" lon="11.4217668"><ele>257.0</ele><time>2026-04-26T08:51:59.183Z</time></trkpt><trkpt lat="43.0884687" lon="11.4217165"><ele>257.0</ele><time>2026-04-26T08:52:00.163Z</time></trkpt><trkpt lat="43.0884029" lon="11.4216981"><ele>257.0</ele><time>2026-04-26T08:52:01.175Z</time></trkpt><trkpt lat="43.088339" lon="11.4217079"><ele>257.0</ele><time>2026-04-26T08:52:02.184Z</time></trkpt><trkpt lat="43.0882778" lon="11.421743"><ele>261.4</ele><time>2026-04-26T08:52:03.186Z</time></trkpt><trkpt lat="43.0881769" lon="11.4218467"><ele>265.79999999999995</ele><time>2026-04-26T08:52:05.172Z</time></trkpt><trkpt lat="43.0881504" lon="11.4219508"><ele>270.2</ele><time>2026-04-26T08:52:06.166Z</time></trkpt><trkpt lat="43.0881285" lon="11.4220705"><ele>274.59999999999997</ele><time>2026-04-26T08:52:07.176Z</time></trkpt><trkpt lat="43.0881037" lon="11.4221899"><ele>279.0</ele><time>2026-04-26T08:52:08.178Z</time></trkpt><trkpt lat="43.0880726" lon="11.4223111"><ele>279.5</ele><time>2026-04-26T08:52:09.167Z</time></trkpt><trkpt lat="43.0880432" lon="11.4224279"><ele>280.0</ele><time>2026-04-26T08:52:10.176Z</time></trkpt><trkpt lat="43.0880152" lon="11.4225431"><ele>280.5</ele><time>2026-04-26T08:52:11.181Z</time></trkpt><trkpt lat="43.0879878" lon="11.4226578"><ele>281.0</ele><time>2026-04-26T08:52:12.159Z</time></trkpt><trkpt lat="43.0879618" lon="11.4227649"><ele>281.5</ele><time>2026-04-26T08:52:13.18Z</time></trkpt><trkpt lat="43.0879349" lon="11.4228725"><ele>282.0</ele><time>2026-04-26T08:52:14.179Z</time></trkpt><trkpt lat="43.0879099" lon="11.4229729"><ele>282.1666666666667</ele><time>2026-04-26T08:52:15.172Z</time></trkpt><trkpt lat="43.0878844" lon="11.4230614"><ele>282.3333333333333</ele><time>2026-04-26T08:52:16.16Z</time></trkpt><trkpt lat="43.0878553" lon="11.4231521"><ele>282.5</ele><time>2026-04-26T08:52:17.179Z</time></trkpt><trkpt lat="43.0878124" lon="11.4232495"><ele>282.66666666666663</ele><time>2026-04-26T08:52:18.174Z</time></trkpt><trkpt lat="43.0877701" lon="11.423338"><ele>282.8333333333333</ele><time>2026-04-26T08:52:19.165Z</time></trkpt><trkpt lat="43.0877279" lon="11.4234149"><ele>283.0</ele><time>2026-04-26T08:52:20.182Z</time></trkpt><trkpt lat="43.0876394" lon="11.4234991"><ele>283.0</ele><time>2026-04-26T08:52:22.17Z</time></trkpt><trkpt lat="43.0875446" lon="11.4234724"><ele>283.0</ele><time>2026-04-26T08:52:24.174Z</time></trkpt><trkpt lat="43.0875115" lon="11.4233917"><ele>283.0</ele><time>2026-04-26T08:52:25.185Z</time></trkpt><trkpt lat="43.0874867" lon="11.4233039"><ele>283.0</ele><time>2026-04-26T08:52:26.168Z</time></trkpt><trkpt lat="43.0874635" lon="11.4232057"><ele>283.0</ele><time>2026-04-26T08:52:27.179Z</time></trkpt><trkpt lat="43.0874422" lon="11.4231033"><ele>283.0</ele><time>2026-04-26T08:52:28.176Z</time></trkpt><trkpt lat="43.0874234" lon="11.4229953"><ele>287.5</ele><time>2026-04-26T08:52:29.165Z</time></trkpt><trkpt lat="43.0874047" lon="11.4228918"><ele>292.0</ele><time>2026-04-26T08:52:30.17Z</time></trkpt><trkpt lat="43.0873856" lon="11.4228023"><ele>296.5</ele><time>2026-04-26T08:52:31.168Z</time></trkpt><trkpt lat="43.0873646" lon="11.4227206"><ele>301.0</ele><time>2026-04-26T08:52:32.179Z</time></trkpt><trkpt lat="43.087294" lon="11.4226114"><ele>305.5</ele><time>2026-04-26T08:52:34.182Z</time></trkpt><trkpt lat="43.087199" lon="11.422631"><ele>310.0</ele><time>2026-04-26T08:52:36.179Z</time></trkpt><trkpt lat="43.0871377" lon="11.4227306"><ele>310.0</ele><time>2026-04-26T08:52:38.193Z</time></trkpt><trkpt lat="43.0871252" lon="11.4228165"><ele>310.0</ele><time>2026-04-26T08:52:39.167Z</time></trkpt><trkpt lat="43.0871043" lon="11.4229378"><ele>310.0</ele><time>2026-04-26T08:52:40.17Z</time></trkpt><trkpt lat="43.0870798" lon="11.4230695"><ele>310.0</ele><time>2026-04-26T08:52:41.169Z</time></trkpt><trkpt lat="43.0870524" lon="11.4232051"><ele>310.0</ele><time>2026-04-26T08:52:42.186Z</time></trkpt><trkpt lat="43.0870243" lon="11.4233336"><ele>310.0</ele><time>2026-04-26T08:52:43.176Z</time></trkpt><trkpt lat="43.0869992" lon="11.4234548"><ele>310.0</ele><time>2026-04-26T08:52:44.17Z</time></trkpt><trkpt lat="43.0869759" lon="11.4235637"><ele>310.0</ele><time>2026-04-26T08:52:45.174Z</time></trkpt><trkpt lat="43.0869412" lon="11.4236531"><ele>310.0</ele><time>2026-04-26T08:52:46.161Z</time></trkpt><trkpt lat="43.0868983" lon="11.4237268"><ele>310.0</ele><time>2026-04-26T08:52:47.186Z</time></trkpt><trkpt lat="43.0868423" lon="11.4237881"><ele>310.0</ele><time>2026-04-26T08:52:48.167Z</time></trkpt><trkpt lat="43.086776" lon="11.4238238"><ele>307.8</ele><time>2026-04-26T08:52:49.186Z</time></trkpt><trkpt lat="43.0867127" lon="11.4238347"><ele>305.6</ele><time>2026-04-26T08:52:50.175Z</time></trkpt><trkpt lat="43.0865972" lon="11.4238213"><ele>303.4</ele><time>2026-04-26T08:52:52.174Z</time></trkpt><trkpt lat="43.0864825" lon="11.4237583"><ele>301.2</ele><time>2026-04-26T08:52:54.176Z</time></trkpt><trkpt lat="43.0863975" lon="11.423639"><ele>299.0</ele><time>2026-04-26T08:52:56.168Z</time></trkpt><trkpt lat="43.0863642" lon="11.4234967"><ele>303.1428571428571</ele><time>2026-04-26T08:52:58.178Z</time></trkpt><trkpt lat="43.0863794" lon="11.4234051"><ele>307.2857142857143</ele><time>2026-04-26T08:52:59.174Z</time></trkpt><trkpt lat="43.086409" lon="11.4233155"><ele>311.42857142857144</ele><time>2026-04-26T08:53:00.178Z</time></trkpt><trkpt lat="43.086439" lon="11.4232176"><ele>315.57142857142856</ele><time>2026-04-26T08:53:01.188Z</time></trkpt><trkpt lat="43.0864693" lon="11.4231154"><ele>319.7142857142857</ele><time>2026-04-26T08:53:02.171Z</time></trkpt><trkpt lat="43.0864945" lon="11.4230176"><ele>323.85714285714283</ele><time>2026-04-26T08:53:03.171Z</time></trkpt><trkpt lat="43.0865094" lon="11.4229235"><ele>328.0</ele><time>2026-04-26T08:53:04.175Z</time></trkpt><trkpt lat="43.0865169" lon="11.4227784"><ele>328.0</ele><time>2026-04-26T08:53:06.17Z</time></trkpt><trkpt lat="43.0864646" lon="11.4226512"><ele>328.0</ele><time>2026-04-26T08:53:08.176Z</time></trkpt><trkpt lat="43.0863575" lon="11.4225923"><ele>328.0</ele><time>2026-04-26T08:53:10.182Z</time></trkpt><trkpt lat="43.0862522" lon="11.4226573"><ele>328.0</ele><time>2026-04-26T08:53:12.166Z</time></trkpt><trkpt lat="43.0862045" lon="11.4227186"><ele>328.0</ele><time>2026-04-26T08:53:13.182Z</time></trkpt><trkpt lat="43.0861635" lon="11.4227878"><ele>328.0</ele><time>2026-04-26T08:53:14.175Z</time></trkpt><trkpt lat="43.0861219" lon="11.4228532"><ele>328.0</ele><time>2026-04-26T08:53:15.188Z</time></trkpt><trkpt lat="43.0860425" lon="11.4229989"><ele>328.0</ele><time>2026-04-26T08:53:17.176Z</time></trkpt><trkpt lat="43.0859982" lon="11.4230811"><ele>328.0</ele><time>2026-04-26T08:53:18.17Z</time></trkpt><trkpt lat="43.0859528" lon="11.4231638"><ele>328.0</ele><time>2026-04-26T08:53:19.182Z</time></trkpt><trkpt lat="43.0858941" lon="11.4232297"><ele>328.0</ele><time>2026-04-26T08:53:20.177Z</time></trkpt><trkpt lat="43.085833" lon="11.4232859"><ele>330.8333333333333</ele><time>2026-04-26T08:53:21.156Z</time></trkpt><trkpt lat="43.0857574" lon="11.4232701"><ele>333.66666666666663</ele><time>2026-04-26T08:53:22.183Z</time></trkpt><trkpt lat="43.0856875" lon="11.4232065"><ele>336.5</ele><time>2026-04-26T08:53:23.173Z</time></trkpt><trkpt lat="43.0856279" lon="11.4231133"><ele>339.3333333333333</ele><time>2026-04-26T08:53:24.181Z</time></trkpt><trkpt lat="43.0855843" lon="11.4230119"><ele>342.1666666666667</ele><time>2026-04-26T08:53:25.168Z</time></trkpt><trkpt lat="43.0855519" lon="11.4229112"><ele>345.0</ele><time>2026-04-26T08:53:26.184Z</time></trkpt><trkpt lat="43.0855243" lon="11.422802"><ele>345.6666666666667</ele><time>2026-04-26T08:53:27.169Z</time></trkpt><trkpt lat="43.0854961" lon="11.4226865"><ele>346.3333333333333</ele><time>2026-04-26T08:53:28.167Z</time></trkpt><trkpt lat="43.085466" lon="11.4225701"><ele>347.0</ele><time>2026-04-26T08:53:29.173Z</time></trkpt><trkpt lat="43.0854368" lon="11.422454"><ele>347.66666666666663</ele><time>2026-04-26T08:53:30.184Z</time></trkpt><trkpt lat="43.0854002" lon="11.422339"><ele>348.3333333333333</ele><time>2026-04-26T08:53:31.179Z</time></trkpt><trkpt lat="43.0853656" lon="11.4222275"><ele>349.0</ele><time>2026-04-26T08:53:32.174Z</time></trkpt><trkpt lat="43.0853263" lon="11.422117"><ele>346.8333333333333</ele><time>2026-04-26T08:53:33.167Z</time></trkpt><trkpt lat="43.085289" lon="11.4220133"><ele>344.66666666666663</ele><time>2026-04-26T08:53:34.176Z</time></trkpt><trkpt lat="43.0852455" lon="11.4219226"><ele>342.5</ele><time>2026-04-26T08:53:35.177Z</time></trkpt><trkpt lat="43.0851739" lon="11.42185"><ele>340.3333333333333</ele><time>2026-04-26T08:53:36.178Z</time></trkpt><trkpt lat="43.0851017" lon="11.4217779"><ele>338.1666666666667</ele><time>2026-04-26T08:53:37.179Z</time></trkpt><trkpt lat="43.0850332" lon="11.4217225"><ele>336.0</ele><time>2026-04-26T08:53:38.164Z</time></trkpt><trkpt lat="43.0849631" lon="11.4216778"><ele>337.2857142857143</ele><time>2026-04-26T08:53:39.166Z</time></trkpt><trkpt lat="43.0848928" lon="11.4216524"><ele>338.57142857142856</ele><time>2026-04-26T08:53:40.176Z</time></trkpt><trkpt lat="43.0848207" lon="11.4216343"><ele>339.8571428571429</ele><time>2026-04-26T08:53:41.164Z</time></trkpt><trkpt lat="43.084751" lon="11.4216156"><ele>341.1428571428571</ele><time>2026-04-26T08:53:42.182Z</time></trkpt><trkpt lat="43.0846806" lon="11.4215954"><ele>342.42857142857144</ele><time>2026-04-26T08:53:43.187Z</time></trkpt><trkpt lat="43.0846096" lon="11.4215722"><ele>343.7142857142857</ele><time>2026-04-26T08:53:44.179Z</time></trkpt><trkpt lat="43.0845364" lon="11.4215445"><ele>345.0</ele><time>2026-04-26T08:53:45.178Z</time></trkpt><trkpt lat="43.0844637" lon="11.4215114"><ele>345.0</ele><time>2026-04-26T08:53:46.164Z</time></trkpt><trkpt lat="43.0843868" lon="11.4214709"><ele>345.0</ele><time>2026-04-26T08:53:47.185Z</time></trkpt><trkpt lat="43.0843052" lon="11.4214136"><ele>345.0</ele><time>2026-04-26T08:53:48.172Z</time></trkpt><trkpt lat="43.084217" lon="11.4213435"><ele>345.0</ele><time>2026-04-26T08:53:49.187Z</time></trkpt><trkpt lat="43.0841253" lon="11.4212673"><ele>345.0</ele><time>2026-04-26T08:53:50.18Z</time></trkpt><trkpt lat="43.0840284" lon="11.4211882"><ele>345.5</ele><time>2026-04-26T08:53:51.176Z</time></trkpt><trkpt lat="43.0839226" lon="11.4211064"><ele>346.0</ele><time>2026-04-26T08:53:52.173Z</time></trkpt><trkpt lat="43.0838065" lon="11.4210251"><ele>346.5</ele><time>2026-04-26T08:53:53.169Z</time></trkpt><trkpt lat="43.0836883" lon="11.4209586"><ele>347.0</ele><time>2026-04-26T08:53:54.173Z</time></trkpt><trkpt lat="43.0835671" lon="11.4209101"><ele>347.0</ele><time>2026-04-26T08:53:55.164Z</time></trkpt><trkpt lat="43.0834491" lon="11.4208651"><ele>347.0</ele><time>2026-04-26T08:53:56.173Z</time></trkpt><trkpt lat="43.0833353" lon="11.4208314"><ele>347.0</ele><time>2026-04-26T08:53:57.169Z</time></trkpt><trkpt lat="43.0832246" lon="11.4207953"><ele>347.0</ele><time>2026-04-26T08:53:58.179Z</time></trkpt><trkpt lat="43.0831152" lon="11.420758"><ele>348.6</ele><time>2026-04-26T08:53:59.185Z</time></trkpt><trkpt lat="43.0830065" lon="11.4207236"><ele>350.20000000000005</ele><time>2026-04-26T08:54:00.176Z</time></trkpt><trkpt lat="43.0828998" lon="11.4206894"><ele>351.8</ele><time>2026-04-26T08:54:01.183Z</time></trkpt><trkpt lat="43.0827946" lon="11.4206549"><ele>353.4</ele><time>2026-04-26T08:54:02.184Z</time></trkpt><trkpt lat="43.082688" lon="11.4206193"><ele>355.0</ele><time>2026-04-26T08:54:03.176Z</time></trkpt><trkpt lat="43.0825802" lon="11.4205889"><ele>355.0</ele><time>2026-04-26T08:54:04.176Z</time></trkpt><trkpt lat="43.0824708" lon="11.4205657"><ele>355.0</ele><time>2026-04-26T08:54:05.17Z</time></trkpt><trkpt lat="43.0823572" lon="11.4205487"><ele>355.0</ele><time>2026-04-26T08:54:06.185Z</time></trkpt><trkpt lat="43.082241" lon="11.4205385"><ele>355.0</ele><time>2026-04-26T08:54:07.181Z</time></trkpt><trkpt lat="43.0821223" lon="11.420535"><ele>354.75</ele><time>2026-04-26T08:54:08.187Z</time></trkpt><trkpt lat="43.0820034" lon="11.4205328"><ele>354.5</ele><time>2026-04-26T08:54:09.173Z</time></trkpt><trkpt lat="43.0818853" lon="11.420512"><ele>354.25</ele><time>2026-04-26T08:54:10.167Z</time></trkpt><trkpt lat="43.0817725" lon="11.4204546"><ele>354.0</ele><time>2026-04-26T08:54:11.179Z</time></trkpt><trkpt lat="43.0816669" lon="11.4203681"><ele>358.0</ele><time>2026-04-26T08:54:12.181Z</time></trkpt><trkpt lat="43.0815625" lon="11.4202804"><ele>362.0</ele><time>2026-04-26T08:54:13.177Z</time></trkpt><trkpt lat="43.0814759" lon="11.4201673"><ele>366.0</ele><time>2026-04-26T08:54:14.163Z</time></trkpt><trkpt lat="43.0814051" lon="11.4200439"><ele>370.0</ele><time>2026-04-26T08:54:15.174Z</time></trkpt><trkpt lat="43.0813388" lon="11.419926"><ele>370.0</ele><time>2026-04-26T08:54:16.185Z</time></trkpt><trkpt lat="43.0812749" lon="11.4198141"><ele>370.0</ele><time>2026-04-26T08:54:17.17Z</time></trkpt><trkpt lat="43.0812127" lon="11.4197078"><ele>370.0</ele><time>2026-04-26T08:54:18.182Z</time></trkpt><trkpt lat="43.0811405" lon="11.4196176"><ele>370.0</ele><time>2026-04-26T08:54:19.16Z</time></trkpt><trkpt lat="43.081069" lon="11.4195306"><ele>370.0</ele><time>2026-04-26T08:54:20.179Z</time></trkpt><trkpt lat="43.0809813" lon="11.4194718"><ele>369.3333333333333</ele><time>2026-04-26T08:54:21.176Z</time></trkpt><trkpt lat="43.0808973" lon="11.4194314"><ele>368.66666666666663</ele><time>2026-04-26T08:54:22.167Z</time></trkpt><trkpt lat="43.0808148" lon="11.4193996"><ele>368.0</ele><time>2026-04-26T08:54:23.176Z</time></trkpt><trkpt lat="43.080732" lon="11.4193767"><ele>367.3333333333333</ele><time>2026-04-26T08:54:24.18Z</time></trkpt><trkpt lat="43.0806463" lon="11.4193552"><ele>366.6666666666667</ele><time>2026-04-26T08:54:25.184Z</time></trkpt><trkpt lat="43.0805534" lon="11.4193461"><ele>366.0</ele><time>2026-04-26T08:54:26.173Z</time></trkpt><trkpt lat="43.0804549" lon="11.4193272"><ele>369.1666666666667</ele><time>2026-04-26T08:54:27.179Z</time></trkpt><trkpt lat="43.0803649" lon="11.4192851"><ele>372.33333333333337</ele><time>2026-04-26T08:54:28.171Z</time></trkpt><trkpt lat="43.0802817" lon="11.4192422"><ele>375.5</ele><time>2026-04-26T08:54:29.165Z</time></trkpt><trkpt lat="43.0802182" lon="11.4191664"><ele>378.6666666666667</ele><time>2026-04-26T08:54:30.18Z</time></trkpt><trkpt lat="43.080174" lon="11.4190627"><ele>381.83333333333337</ele><time>2026-04-26T08:54:31.173Z</time></trkpt><trkpt lat="43.0801267" lon="11.4189554"><ele>385.0</ele><time>2026-04-26T08:54:32.183Z</time></trkpt><trkpt lat="43.0800775" lon="11.4188482"><ele>383.2</ele><time>2026-04-26T08:54:33.18Z</time></trkpt><trkpt lat="43.0800107" lon="11.4187679"><ele>381.4</ele><time>2026-04-26T08:54:34.183Z</time></trkpt><trkpt lat="43.0799286" lon="11.4186909"><ele>379.6</ele><time>2026-04-26T08:54:35.167Z</time></trkpt><trkpt lat="43.0798475" lon="11.4186216"><ele>377.8</ele><time>2026-04-26T08:54:36.177Z</time></trkpt><trkpt lat="43.0797451" lon="11.4185764"><ele>376.0</ele><time>2026-04-26T08:54:37.166Z</time></trkpt><trkpt lat="43.0796394" lon="11.4185322"><ele>380.20000000000005</ele><time>2026-04-26T08:54:38.168Z</time></trkpt><trkpt lat="43.0795384" lon="11.4184884"><ele>384.40000000000003</ele><time>2026-04-26T08:54:39.181Z</time></trkpt><trkpt lat="43.0794399" lon="11.4184471"><ele>388.6</ele><time>2026-04-26T08:54:40.189Z</time></trkpt><trkpt lat="43.0793503" lon="11.4184035"><ele>392.8</ele><time>2026-04-26T08:54:41.165Z</time></trkpt><trkpt lat="43.0792643" lon="11.418352"><ele>397.0</ele><time>2026-04-26T08:54:42.171Z</time></trkpt><trkpt lat="43.0791819" lon="11.4183031"><ele>397.00000000000006</ele><time>2026-04-26T08:54:43.182Z</time></trkpt><trkpt lat="43.0791194" lon="11.4182308"><ele>397.0</ele><time>2026-04-26T08:54:44.183Z</time></trkpt><trkpt lat="43.0790567" lon="11.4181572"><ele>397.0</ele><time>2026-04-26T08:54:45.182Z</time></trkpt><trkpt lat="43.0789849" lon="11.4180938"><ele>397.0</ele><time>2026-04-26T08:54:46.172Z</time></trkpt><trkpt lat="43.0789034" lon="11.4180441"><ele>397.00000000000006</ele><time>2026-04-26T08:54:47.166Z</time></trkpt><trkpt lat="43.0788127" lon="11.4180079"><ele>397.0</ele><time>2026-04-26T08:54:48.161Z</time></trkpt><trkpt lat="43.0787122" lon="11.4179816"><ele>396.6</ele><time>2026-04-26T08:54:49.179Z</time></trkpt><trkpt lat="43.0786078" lon="11.4179666"><ele>396.20000000000005</ele><time>2026-04-26T08:54:50.171Z</time></trkpt><trkpt lat="43.0785086" lon="11.4179526"><ele>395.8</ele><time>2026-04-26T08:54:51.177Z</time></trkpt><trkpt lat="43.0784168" lon="11.417946"><ele>395.4</ele><time>2026-04-26T08:54:52.173Z</time></trkpt><trkpt lat="43.0783259" lon="11.4179362"><ele>395.0</ele><time>2026-04-26T08:54:53.169Z</time></trkpt><trkpt lat="43.0782358" lon="11.4179254"><ele>397.3333333333333</ele><time>2026-04-26T08:54:54.166Z</time></trkpt><trkpt lat="43.0781483" lon="11.417915"><ele>399.66666666666663</ele><time>2026-04-26T08:54:55.176Z</time></trkpt><trkpt lat="43.0780627" lon="11.4179084"><ele>402.0</ele><time>2026-04-26T08:54:56.168Z</time></trkpt><trkpt lat="43.077976" lon="11.4179033"><ele>404.33333333333337</ele><time>2026-04-26T08:54:57.193Z</time></trkpt><trkpt lat="43.0778927" lon="11.4178969"><ele>406.6666666666667</ele><time>2026-04-26T08:54:58.178Z</time></trkpt><trkpt lat="43.0778083" lon="11.4179026"><ele>409.0</ele><time>2026-04-26T08:54:59.179Z</time></trkpt><trkpt lat="43.0777263" lon="11.4179078"><ele>409.00000000000006</ele><time>2026-04-26T08:55:00.179Z</time></trkpt><trkpt lat="43.0776456" lon="11.4179143"><ele>409.0</ele><time>2026-04-26T08:55:01.165Z</time></trkpt><trkpt lat="43.077561" lon="11.4179043"><ele>409.0</ele><time>2026-04-26T08:55:02.179Z</time></trkpt><trkpt lat="43.0774796" lon="11.4178916"><ele>409.0</ele><time>2026-04-26T08:55:03.18Z</time></trkpt><trkpt lat="43.0773995" lon="11.4178542"><ele>409.00000000000006</ele><time>2026-04-26T08:55:04.174Z</time></trkpt><trkpt lat="43.0773216" lon="11.4177976"><ele>409.0</ele><time>2026-04-26T08:55:05.181Z</time></trkpt><trkpt lat="43.0772486" lon="11.417741"><ele>412.00000000000006</ele><time>2026-04-26T08:55:06.167Z</time></trkpt><trkpt lat="43.0771752" lon="11.4176857"><ele>415.0</ele><time>2026-04-26T08:55:07.18Z</time></trkpt><trkpt lat="43.0771022" lon="11.4176329"><ele>418.0</ele><time>2026-04-26T08:55:08.185Z</time></trkpt><trkpt lat="43.0770362" lon="11.4175808"><ele>421.0</ele><time>2026-04-26T08:55:09.163Z</time></trkpt><trkpt lat="43.0769732" lon="11.4175339"><ele>424.00000000000006</ele><time>2026-04-26T08:55:10.177Z</time></trkpt><trkpt lat="43.0769242" lon="11.4174756"><ele>427.0</ele><time>2026-04-26T08:55:11.185Z</time></trkpt><trkpt lat="43.07685" lon="11.4173647"><ele>427.00000000000006</ele><time>2026-04-26T08:55:13.182Z</time></trkpt><trkpt lat="43.0768269" lon="11.4172816"><ele>427.0</ele><time>2026-04-26T08:55:14.181Z</time></trkpt><trkpt lat="43.0767832" lon="11.4171208"><ele>427.0</ele><time>2026-04-26T08:55:16.174Z</time></trkpt><trkpt lat="43.0767567" lon="11.4170416"><ele>427.0</ele><time>2026-04-26T08:55:17.163Z</time></trkpt><trkpt lat="43.0767104" lon="11.4169777"><ele>427.00000000000006</ele><time>2026-04-26T08:55:18.17Z</time></trkpt><trkpt lat="43.0766479" lon="11.4169312"><ele>427.0</ele><time>2026-04-26T08:55:19.174Z</time></trkpt><trkpt lat="43.0765783" lon="11.4168974"><ele>427.50000000000006</ele><time>2026-04-26T08:55:20.167Z</time></trkpt><trkpt lat="43.0765024" lon="11.416871"><ele>428.0</ele><time>2026-04-26T08:55:21.175Z</time></trkpt><trkpt lat="43.0764271" lon="11.4168464"><ele>428.5</ele><time>2026-04-26T08:55:22.173Z</time></trkpt><trkpt lat="43.0763507" lon="11.4168248"><ele>429.0</ele><time>2026-04-26T08:55:23.179Z</time></trkpt><trkpt lat="43.076279" lon="11.4168062"><ele>429.50000000000006</ele><time>2026-04-26T08:55:24.179Z</time></trkpt><trkpt lat="43.076213" lon="11.4167889"><ele>430.0</ele><time>2026-04-26T08:55:25.177Z</time></trkpt><trkpt lat="43.0760887" lon="11.4167316"><ele>430.00000000000006</ele><time>2026-04-26T08:55:27.182Z</time></trkpt><trkpt lat="43.076018" lon="11.4166889"><ele>430.0</ele><time>2026-04-26T08:55:28.174Z</time></trkpt><trkpt lat="43.0759427" lon="11.4166384"><ele>430.0</ele><time>2026-04-26T08:55:29.188Z</time></trkpt><trkpt lat="43.0758664" lon="11.4165867"><ele>430.0</ele><time>2026-04-26T08:55:30.167Z</time></trkpt><trkpt lat="43.0757874" lon="11.4165166"><ele>430.00000000000006</ele><time>2026-04-26T08:55:31.171Z</time></trkpt><trkpt lat="43.0757048" lon="11.4164432"><ele>430.0</ele><time>2026-04-26T08:55:32.17Z</time></trkpt><trkpt lat="43.0756218" lon="11.4163742"><ele>430.83333333333337</ele><time>2026-04-26T08:55:33.171Z</time></trkpt><trkpt lat="43.0755411" lon="11.4163099"><ele>431.6666666666667</ele><time>2026-04-26T08:55:34.167Z</time></trkpt><trkpt lat="43.0754631" lon="11.4162484"><ele>432.5</ele><time>2026-04-26T08:55:35.162Z</time></trkpt><trkpt lat="43.0753868" lon="11.416189"><ele>433.33333333333337</ele><time>2026-04-26T08:55:36.166Z</time></trkpt><trkpt lat="43.0753123" lon="11.4161313"><ele>434.1666666666667</ele><time>2026-04-26T08:55:37.18Z</time></trkpt><trkpt lat="43.0752408" lon="11.4160801"><ele>435.0</ele><time>2026-04-26T08:55:38.172Z</time></trkpt><trkpt lat="43.0751705" lon="11.4160329"><ele>435.0</ele><time>2026-04-26T08:55:39.165Z</time></trkpt><trkpt lat="43.0750982" lon="11.4159867"><ele>435.0</ele><time>2026-04-26T08:55:40.182Z</time></trkpt><trkpt lat="43.0750276" lon="11.4159453"><ele>435.0</ele><time>2026-04-26T08:55:41.181Z</time></trkpt><trkpt lat="43.074958" lon="11.4159067"><ele>435.0</ele><time>2026-04-26T08:55:42.176Z</time></trkpt><trkpt lat="43.0748882" lon="11.415868"><ele>435.0</ele><time>2026-04-26T08:55:43.189Z</time></trkpt><trkpt lat="43.0748141" lon="11.4158371"><ele>435.0</ele><time>2026-04-26T08:55:44.175Z</time></trkpt><trkpt lat="43.074739" lon="11.4158111"><ele>435.7142857142857</ele><time>2026-04-26T08:55:45.188Z</time></trkpt><trkpt lat="43.0746661" lon="11.4157902"><ele>436.42857142857144</ele><time>2026-04-26T08:55:46.174Z</time></trkpt><trkpt lat="43.0745934" lon="11.4157722"><ele>437.1428571428571</ele><time>2026-04-26T08:55:47.188Z</time></trkpt><trkpt lat="43.0745236" lon="11.4157472"><ele>437.8571428571429</ele><time>2026-04-26T08:55:48.177Z</time></trkpt><trkpt lat="43.0744596" lon="11.4157082"><ele>438.57142857142856</ele><time>2026-04-26T08:55:49.173Z</time></trkpt><trkpt lat="43.074408" lon="11.4156462"><ele>439.2857142857143</ele><time>2026-04-26T08:55:50.179Z</time></trkpt><trkpt lat="43.0743756" lon="11.4155668"><ele>440.0</ele><time>2026-04-26T08:55:51.187Z</time></trkpt><trkpt lat="43.0743615" lon="11.4154767"><ele>441.66666666666663</ele><time>2026-04-26T08:55:52.179Z</time></trkpt><trkpt lat="43.0743579" lon="11.4153771"><ele>443.3333333333333</ele><time>2026-04-26T08:55:53.179Z</time></trkpt><trkpt lat="43.0743553" lon="11.4152658"><ele>445.0</ele><time>2026-04-26T08:55:54.177Z</time></trkpt><trkpt lat="43.074347" lon="11.4151519"><ele>446.66666666666663</ele><time>2026-04-26T08:55:55.187Z</time></trkpt><trkpt lat="43.0743352" lon="11.4150402"><ele>448.3333333333333</ele><time>2026-04-26T08:55:56.185Z</time></trkpt><trkpt lat="43.074324" lon="11.4149305"><ele>450.0</ele><time>2026-04-26T08:55:57.176Z</time></trkpt><trkpt lat="43.0743022" lon="11.4148359"><ele>450.00000000000006</ele><time>2026-04-26T08:55:58.172Z</time></trkpt><trkpt lat="43.0742791" lon="11.414748"><ele>450.0</ele><time>2026-04-26T08:55:59.182Z</time></trkpt><trkpt lat="43.0742526" lon="11.4146653"><ele>450.00000000000006</ele><time>2026-04-26T08:56:00.173Z</time></trkpt><trkpt lat="43.074221" lon="11.4145883"><ele>450.00000000000006</ele><time>2026-04-26T08:56:01.174Z</time></trkpt><trkpt lat="43.0741798" lon="11.4145189"><ele>450.0</ele><time>2026-04-26T08:56:02.179Z</time></trkpt><trkpt lat="43.0741231" lon="11.4144626"><ele>450.00000000000006</ele><time>2026-04-26T08:56:03.167Z</time></trkpt><trkpt lat="43.0740559" lon="11.4144224"><ele>450.00000000000006</ele><time>2026-04-26T08:56:04.185Z</time></trkpt><trkpt lat="43.0739841" lon="11.4143988"><ele>452.57142857142867</ele><time>2026-04-26T08:56:05.165Z</time></trkpt><trkpt lat="43.0739117" lon="11.4143872"><ele>455.14285714285717</ele><time>2026-04-26T08:56:06.173Z</time></trkpt><trkpt lat="43.0738386" lon="11.4143808"><ele>457.7142857142858</ele><time>2026-04-26T08:56:07.185Z</time></trkpt><trkpt lat="43.073768" lon="11.4143781"><ele>460.28571428571433</ele><time>2026-04-26T08:56:08.17Z</time></trkpt><trkpt lat="43.0736967" lon="11.4143731"><ele>462.8571428571429</ele><time>2026-04-26T08:56:09.177Z</time></trkpt><trkpt lat="43.073626" lon="11.4143666"><ele>465.42857142857144</ele><time>2026-04-26T08:56:10.171Z</time></trkpt><trkpt lat="43.0735567" lon="11.4143518"><ele>468.0</ele><time>2026-04-26T08:56:11.178Z</time></trkpt><trkpt lat="43.0734892" lon="11.4143285"><ele>468.0</ele><time>2026-04-26T08:56:12.182Z</time></trkpt><trkpt lat="43.0734198" lon="11.4143058"><ele>468.0</ele><time>2026-04-26T08:56:13.167Z</time></trkpt><trkpt lat="43.0733449" lon="11.4142869"><ele>468.0</ele><time>2026-04-26T08:56:14.181Z</time></trkpt><trkpt lat="43.0732624" lon="11.4142723"><ele>468.0</ele><time>2026-04-26T08:56:15.184Z</time></trkpt><trkpt lat="43.0731744" lon="11.4142616"><ele>468.0</ele><time>2026-04-26T08:56:16.182Z</time></trkpt><trkpt lat="43.0730831" lon="11.4142564"><ele>468.0</ele><time>2026-04-26T08:56:17.181Z</time></trkpt><trkpt lat="43.072993" lon="11.4142595"><ele>469.5</ele><time>2026-04-26T08:56:18.161Z</time></trkpt><trkpt lat="43.0729059" lon="11.4142656"><ele>471.0</ele><time>2026-04-26T08:56:19.173Z</time></trkpt><trkpt lat="43.07282" lon="11.4142696"><ele>472.5</ele><time>2026-04-26T08:56:20.167Z</time></trkpt><trkpt lat="43.0727341" lon="11.4142645"><ele>474.0</ele><time>2026-04-26T08:56:21.169Z</time></trkpt><trkpt lat="43.0726504" lon="11.4142582"><ele>475.5</ele><time>2026-04-26T08:56:22.166Z</time></trkpt><trkpt lat="43.0725724" lon="11.4142231"><ele>477.0</ele><time>2026-04-26T08:56:23.179Z</time></trkpt><trkpt lat="43.072499" lon="11.4141855"><ele>476.6666666666667</ele><time>2026-04-26T08:56:24.161Z</time></trkpt><trkpt lat="43.072429" lon="11.4141513"><ele>476.33333333333337</ele><time>2026-04-26T08:56:25.188Z</time></trkpt><trkpt lat="43.0723596" lon="11.4141136"><ele>476.0</ele><time>2026-04-26T08:56:26.177Z</time></trkpt><trkpt lat="43.0722905" lon="11.4140685"><ele>475.6666666666667</ele><time>2026-04-26T08:56:27.161Z</time></trkpt><trkpt lat="43.0722167" lon="11.4140204"><ele>475.33333333333337</ele><time>2026-04-26T08:56:28.18Z</time></trkpt><trkpt lat="43.0721372" lon="11.4139737"><ele>475.0</ele><time>2026-04-26T08:56:29.178Z</time></trkpt><trkpt lat="43.0720528" lon="11.4139344"><ele>475.0</ele><time>2026-04-26T08:56:30.171Z</time></trkpt><trkpt lat="43.0719699" lon="11.4138968"><ele>475.0</ele><time>2026-04-26T08:56:31.174Z</time></trkpt><trkpt lat="43.0718853" lon="11.4138566"><ele>475.0</ele><time>2026-04-26T08:56:32.163Z</time></trkpt><trkpt lat="43.0718008" lon="11.4138144"><ele>475.0</ele><time>2026-04-26T08:56:33.185Z</time></trkpt><trkpt lat="43.071721" lon="11.4137488"><ele>475.0</ele><time>2026-04-26T08:56:34.184Z</time></trkpt><trkpt lat="43.0716452" lon="11.4136829"><ele>476.83333333333337</ele><time>2026-04-26T08:56:35.171Z</time></trkpt><trkpt lat="43.0715708" lon="11.4136256"><ele>478.6666666666667</ele><time>2026-04-26T08:56:36.18Z</time></trkpt><trkpt lat="43.0714919" lon="11.4135844"><ele>480.5</ele><time>2026-04-26T08:56:37.179Z</time></trkpt><trkpt lat="43.0714063" lon="11.4135621"><ele>482.33333333333337</ele><time>2026-04-26T08:56:38.187Z</time></trkpt><trkpt lat="43.0713193" lon="11.4135605"><ele>484.1666666666667</ele><time>2026-04-26T08:56:39.159Z</time></trkpt><trkpt lat="43.0712359" lon="11.4135774"><ele>486.0</ele><time>2026-04-26T08:56:40.178Z</time></trkpt><trkpt lat="43.0711545" lon="11.4135949"><ele>486.0</ele><time>2026-04-26T08:56:41.162Z</time></trkpt><trkpt lat="43.071073" lon="11.4135938"><ele>486.0</ele><time>2026-04-26T08:56:42.169Z</time></trkpt><trkpt lat="43.0709927" lon="11.4135667"><ele>486.0</ele><time>2026-04-26T08:56:43.18Z</time></trkpt><trkpt lat="43.0709173" lon="11.4135169"><ele>486.0</ele><time>2026-04-26T08:56:44.179Z</time></trkpt><trkpt lat="43.070847" lon="11.4134511"><ele>486.0</ele><time>2026-04-26T08:56:45.173Z</time></trkpt><trkpt lat="43.0707781" lon="11.4133727"><ele>486.0</ele><time>2026-04-26T08:56:46.175Z</time></trkpt><trkpt lat="43.0707134" lon="11.41329"><ele>487.2857142857143</ele><time>2026-04-26T08:56:47.174Z</time></trkpt><trkpt lat="43.0706545" lon="11.4132126"><ele>488.57142857142856</ele><time>2026-04-26T08:56:48.172Z</time></trkpt><trkpt lat="43.0705998" lon="11.4131427"><ele>489.85714285714283</ele><time>2026-04-26T08:56:49.175Z</time></trkpt><trkpt lat="43.0705477" lon="11.4130793"><ele>491.1428571428571</ele><time>2026-04-26T08:56:50.185Z</time></trkpt><trkpt lat="43.0704892" lon="11.4130178"><ele>492.42857142857144</ele><time>2026-04-26T08:56:51.177Z</time></trkpt><trkpt lat="43.0704346" lon="11.4129604"><ele>493.71428571428567</ele><time>2026-04-26T08:56:52.171Z</time></trkpt><trkpt lat="43.0703785" lon="11.4129169"><ele>494.99999999999994</ele><time>2026-04-26T08:56:53.177Z</time></trkpt><trkpt lat="43.0702581" lon="11.4129062"><ele>495.0</ele><time>2026-04-26T08:56:55.177Z</time></trkpt><trkpt lat="43.0702011" lon="11.4129503"><ele>495.0</ele><time>2026-04-26T08:56:56.18Z</time></trkpt><trkpt lat="43.070145" lon="11.4129957"><ele>495.0</ele><time>2026-04-26T08:56:57.169Z</time></trkpt><trkpt lat="43.0701085" lon="11.4130875"><ele>495.0</ele><time>2026-04-26T08:56:58.175Z</time></trkpt><trkpt lat="43.0700737" lon="11.4131955"><ele>495.0</ele><time>2026-04-26T08:56:59.165Z</time></trkpt><trkpt lat="43.070037" lon="11.4133008"><ele>495.0</ele><time>2026-04-26T08:57:00.169Z</time></trkpt><trkpt lat="43.0700058" lon="11.4134087"><ele>495.0</ele><time>2026-04-26T08:57:01.179Z</time></trkpt><trkpt lat="43.0699906" lon="11.413514"><ele>495.0</ele><time>2026-04-26T08:57:02.165Z</time></trkpt><trkpt lat="43.0699754" lon="11.4136254"><ele>495.0</ele><time>2026-04-26T08:57:03.17Z</time></trkpt><trkpt lat="43.0699786" lon="11.4137432"><ele>495.0</ele><time>2026-04-26T08:57:04.177Z</time></trkpt><trkpt lat="43.0699841" lon="11.4138609"><ele>495.0</ele><time>2026-04-26T08:57:05.166Z</time></trkpt><trkpt lat="43.0699905" lon="11.4139934"><ele>495.0</ele><time>2026-04-26T08:57:06.176Z</time></trkpt><trkpt lat="43.0699968" lon="11.4141244"><ele>494.8333333333333</ele><time>2026-04-26T08:57:07.175Z</time></trkpt><trkpt lat="43.0699962" lon="11.4142428"><ele>494.66666666666663</ele><time>2026-04-26T08:57:08.174Z</time></trkpt><trkpt lat="43.069987" lon="11.4143524"><ele>494.5</ele><time>2026-04-26T08:57:09.164Z</time></trkpt><trkpt lat="43.0699689" lon="11.4144534"><ele>494.3333333333333</ele><time>2026-04-26T08:57:10.169Z</time></trkpt><trkpt lat="43.0699424" lon="11.4145472"><ele>494.16666666666663</ele><time>2026-04-26T08:57:11.173Z</time></trkpt><trkpt lat="43.0699125" lon="11.4146363"><ele>494.0</ele><time>2026-04-26T08:57:12.159Z</time></trkpt><trkpt lat="43.0698754" lon="11.4147214"><ele>494.8333333333333</ele><time>2026-04-26T08:57:13.173Z</time></trkpt><trkpt lat="43.0698316" lon="11.4148022"><ele>495.66666666666663</ele><time>2026-04-26T08:57:14.166Z</time></trkpt><trkpt lat="43.0697801" lon="11.4148774"><ele>496.5</ele><time>2026-04-26T08:57:15.171Z</time></trkpt><trkpt lat="43.0697172" lon="11.414944"><ele>497.33333333333337</ele><time>2026-04-26T08:57:16.171Z</time></trkpt><trkpt lat="43.0696432" lon="11.4150014"><ele>498.1666666666667</ele><time>2026-04-26T08:57:17.182Z</time></trkpt><trkpt lat="43.069565" lon="11.4150576"><ele>499.0</ele><time>2026-04-26T08:57:18.172Z</time></trkpt><trkpt lat="43.0694897" lon="11.4151187"><ele>499.00000000000006</ele><time>2026-04-26T08:57:19.176Z</time></trkpt><trkpt lat="43.0694158" lon="11.415185"><ele>499.0</ele><time>2026-04-26T08:57:20.181Z</time></trkpt><trkpt lat="43.0693455" lon="11.4152521"><ele>499.0</ele><time>2026-04-26T08:57:21.158Z</time></trkpt><trkpt lat="43.0692776" lon="11.4153203"><ele>499.0</ele><time>2026-04-26T08:57:22.166Z</time></trkpt><trkpt lat="43.0692102" lon="11.4153833"><ele>499.00000000000006</ele><time>2026-04-26T08:57:23.168Z</time></trkpt><trkpt lat="43.0691384" lon="11.4154342"><ele>499.0</ele><time>2026-04-26T08:57:24.17Z</time></trkpt><trkpt lat="43.0690617" lon="11.4154713"><ele>497.1666666666667</ele><time>2026-04-26T08:57:25.18Z</time></trkpt><trkpt lat="43.0689796" lon="11.4154997"><ele>495.33333333333337</ele><time>2026-04-26T08:57:26.184Z</time></trkpt><trkpt lat="43.0688947" lon="11.4155228"><ele>493.5</ele><time>2026-04-26T08:57:27.182Z</time></trkpt><trkpt lat="43.0688079" lon="11.4155497"><ele>491.66666666666663</ele><time>2026-04-26T08:57:28.18Z</time></trkpt><trkpt lat="43.0687203" lon="11.4155866"><ele>489.8333333333333</ele><time>2026-04-26T08:57:29.182Z</time></trkpt><trkpt lat="43.0686342" lon="11.4156244"><ele>488.0</ele><time>2026-04-26T08:57:30.173Z</time></trkpt><trkpt lat="43.0685534" lon="11.415686"><ele>488.0</ele><time>2026-04-26T08:57:31.179Z</time></trkpt><trkpt lat="43.0684814" lon="11.4157591"><ele>487.99999999999994</ele><time>2026-04-26T08:57:32.174Z</time></trkpt><trkpt lat="43.0684099" lon="11.4158321"><ele>487.99999999999994</ele><time>2026-04-26T08:57:33.188Z</time></trkpt><trkpt lat="43.0683438" lon="11.4159185"><ele>488.0</ele><time>2026-04-26T08:57:34.161Z</time></trkpt><trkpt lat="43.0682781" lon="11.4160002"><ele>488.0</ele><time>2026-04-26T08:57:35.165Z</time></trkpt><trkpt lat="43.068205" lon="11.4160747"><ele>487.8333333333333</ele><time>2026-04-26T08:57:36.171Z</time></trkpt><trkpt lat="43.0681279" lon="11.4161449"><ele>487.66666666666663</ele><time>2026-04-26T08:57:37.177Z</time></trkpt><trkpt lat="43.0680519" lon="11.4162074"><ele>487.5</ele><time>2026-04-26T08:57:38.182Z</time></trkpt><trkpt lat="43.0679762" lon="11.4162634"><ele>487.33333333333337</ele><time>2026-04-26T08:57:39.162Z</time></trkpt><trkpt lat="43.0679047" lon="11.4163168"><ele>487.1666666666667</ele><time>2026-04-26T08:57:40.172Z</time></trkpt><trkpt lat="43.0678404" lon="11.416378"><ele>487.0</ele><time>2026-04-26T08:57:41.176Z</time></trkpt><trkpt lat="43.0677866" lon="11.4164551"><ele>488.6666666666667</ele><time>2026-04-26T08:57:42.179Z</time></trkpt><trkpt lat="43.0677466" lon="11.4165473"><ele>490.33333333333337</ele><time>2026-04-26T08:57:43.182Z</time></trkpt><trkpt lat="43.067715" lon="11.4166541"><ele>492.0</ele><time>2026-04-26T08:57:44.179Z</time></trkpt><trkpt lat="43.0676809" lon="11.4167723"><ele>493.66666666666663</ele><time>2026-04-26T08:57:45.17Z</time></trkpt><trkpt lat="43.0676466" lon="11.4168913"><ele>495.3333333333333</ele><time>2026-04-26T08:57:46.158Z</time></trkpt><trkpt lat="43.0676053" lon="11.4170015"><ele>497.0</ele><time>2026-04-26T08:57:47.172Z</time></trkpt><trkpt lat="43.0675592" lon="11.4170976"><ele>496.49999999999994</ele><time>2026-04-26T08:57:48.171Z</time></trkpt><trkpt lat="43.0674973" lon="11.4171983"><ele>496.0</ele><time>2026-04-26T08:57:49.166Z</time></trkpt><trkpt lat="43.0674394" lon="11.4172899"><ele>495.5</ele><time>2026-04-26T08:57:50.18Z</time></trkpt><trkpt lat="43.067379" lon="11.4173795"><ele>495.0</ele><time>2026-04-26T08:57:51.181Z</time></trkpt><trkpt lat="43.0673117" lon="11.4174551"><ele>494.49999999999994</ele><time>2026-04-26T08:57:52.169Z</time></trkpt><trkpt lat="43.0672409" lon="11.4175098"><ele>494.0</ele><time>2026-04-26T08:57:53.187Z</time></trkpt><trkpt lat="43.067168" lon="11.4175502"><ele>495.66666666666663</ele><time>2026-04-26T08:57:54.166Z</time></trkpt><trkpt lat="43.0670906" lon="11.4175854"><ele>497.3333333333333</ele><time>2026-04-26T08:57:55.168Z</time></trkpt><trkpt lat="43.0670095" lon="11.4176202"><ele>499.0</ele><time>2026-04-26T08:57:56.179Z</time></trkpt><trkpt lat="43.0669319" lon="11.417657"><ele>500.66666666666663</ele><time>2026-04-26T08:57:57.172Z</time></trkpt><trkpt lat="43.0668531" lon="11.4176948"><ele>502.3333333333333</ele><time>2026-04-26T08:57:58.174Z</time></trkpt><trkpt lat="43.0667926" lon="11.417773"><ele>504.0</ele><time>2026-04-26T08:57:59.17Z</time></trkpt><trkpt lat="43.0667455" lon="11.4178749"><ele>504.0</ele><time>2026-04-26T08:58:00.177Z</time></trkpt><trkpt lat="43.0667045" lon="11.417985"><ele>504.0</ele><time>2026-04-26T08:58:01.176Z</time></trkpt><trkpt lat="43.0666691" lon="11.4180986"><ele>504.0</ele><time>2026-04-26T08:58:02.167Z</time></trkpt><trkpt lat="43.0666363" lon="11.4182173"><ele>504.0</ele><time>2026-04-26T08:58:03.183Z</time></trkpt><trkpt lat="43.0666088" lon="11.4183377"><ele>504.0</ele><time>2026-04-26T08:58:04.183Z</time></trkpt><trkpt lat="43.0665868" lon="11.4184609"><ele>500.79999999999995</ele><time>2026-04-26T08:58:05.179Z</time></trkpt><trkpt lat="43.0665733" lon="11.4185931"><ele>497.59999999999997</ele><time>2026-04-26T08:58:06.164Z</time></trkpt><trkpt lat="43.0665656" lon="11.4187299"><ele>494.4</ele><time>2026-04-26T08:58:07.175Z</time></trkpt><trkpt lat="43.0665609" lon="11.418868"><ele>491.2</ele><time>2026-04-26T08:58:08.17Z</time></trkpt><trkpt lat="43.0665606" lon="11.4189968"><ele>488.0</ele><time>2026-04-26T08:58:09.19Z</time></trkpt><trkpt lat="43.066563" lon="11.4191159"><ele>487.49999999999994</ele><time>2026-04-26T08:58:10.16Z</time></trkpt><trkpt lat="43.0665675" lon="11.4192299"><ele>487.0</ele><time>2026-04-26T08:58:11.179Z</time></trkpt><trkpt lat="43.0665703" lon="11.4193407"><ele>486.5</ele><time>2026-04-26T08:58:12.176Z</time></trkpt><trkpt lat="43.0665726" lon="11.4194521"><ele>486.0</ele><time>2026-04-26T08:58:13.17Z</time></trkpt><trkpt lat="43.0665767" lon="11.4195651"><ele>485.49999999999994</ele><time>2026-04-26T08:58:14.184Z</time></trkpt><trkpt lat="43.066581" lon="11.4196806"><ele>485.0</ele><time>2026-04-26T08:58:15.181Z</time></trkpt><trkpt lat="43.0665743" lon="11.4197958"><ele>484.99999999999994</ele><time>2026-04-26T08:58:16.186Z</time></trkpt><trkpt lat="43.0665521" lon="11.4199079"><ele>485.0</ele><time>2026-04-26T08:58:17.175Z</time></trkpt><trkpt lat="43.0665299" lon="11.4200178"><ele>485.0</ele><time>2026-04-26T08:58:18.178Z</time></trkpt><trkpt lat="43.0664878" lon="11.4201241"><ele>485.0</ele><time>2026-04-26T08:58:19.181Z</time></trkpt><trkpt lat="43.0664361" lon="11.4202341"><ele>484.99999999999994</ele><time>2026-04-26T08:58:20.162Z</time></trkpt><trkpt lat="43.0663849" lon="11.4203454"><ele>485.0</ele><time>2026-04-26T08:58:21.168Z</time></trkpt><trkpt lat="43.0663335" lon="11.4204545"><ele>486.4</ele><time>2026-04-26T08:58:22.171Z</time></trkpt><trkpt lat="43.0662833" lon="11.4205673"><ele>487.8</ele><time>2026-04-26T08:58:23.188Z</time></trkpt><trkpt lat="43.0662318" lon="11.4206814"><ele>489.20000000000005</ele><time>2026-04-26T08:58:24.18Z</time></trkpt><trkpt lat="43.0661797" lon="11.420795"><ele>490.6</ele><time>2026-04-26T08:58:25.171Z</time></trkpt><trkpt lat="43.066127" lon="11.420899"><ele>492.0</ele><time>2026-04-26T08:58:26.175Z</time></trkpt><trkpt lat="43.0660698" lon="11.4209945"><ele>492.0</ele><time>2026-04-26T08:58:27.186Z</time></trkpt><trkpt lat="43.0660078" lon="11.4210873"><ele>492.00000000000006</ele><time>2026-04-26T08:58:28.174Z</time></trkpt><trkpt lat="43.0659491" lon="11.4211817"><ele>492.00000000000006</ele><time>2026-04-26T08:58:29.189Z</time></trkpt><trkpt lat="43.0658907" lon="11.4212773"><ele>492.0</ele><time>2026-04-26T08:58:30.173Z</time></trkpt><trkpt lat="43.0658376" lon="11.4213786"><ele>492.0</ele><time>2026-04-26T08:58:31.164Z</time></trkpt><trkpt lat="43.0657847" lon="11.4214813"><ele>491.0</ele><time>2026-04-26T08:58:32.181Z</time></trkpt><trkpt lat="43.0657354" lon="11.4215818"><ele>490.0</ele><time>2026-04-26T08:58:33.177Z</time></trkpt><trkpt lat="43.0656857" lon="11.421681"><ele>489.0</ele><time>2026-04-26T08:58:34.193Z</time></trkpt><trkpt lat="43.0656268" lon="11.4217631"><ele>488.0</ele><time>2026-04-26T08:58:35.181Z</time></trkpt><trkpt lat="43.0655573" lon="11.421831"><ele>487.0</ele><time>2026-04-26T08:58:36.171Z</time></trkpt><trkpt lat="43.0654851" lon="11.4218972"><ele>486.0</ele><time>2026-04-26T08:58:37.186Z</time></trkpt><trkpt lat="43.0654126" lon="11.4219686"><ele>486.0</ele><time>2026-04-26T08:58:38.168Z</time></trkpt><trkpt lat="43.0653385" lon="11.422038"><ele>486.0</ele><time>2026-04-26T08:58:39.181Z</time></trkpt><trkpt lat="43.0652669" lon="11.4221004"><ele>486.0</ele><time>2026-04-26T08:58:40.175Z</time></trkpt><trkpt lat="43.0651901" lon="11.4221515"><ele>486.0</ele><time>2026-04-26T08:58:41.176Z</time></trkpt><trkpt lat="43.0651077" lon="11.4221839"><ele>486.0</ele><time>2026-04-26T08:58:42.159Z</time></trkpt><trkpt lat="43.0650265" lon="11.4222147"><ele>486.0</ele><time>2026-04-26T08:58:43.179Z</time></trkpt><trkpt lat="43.064943" lon="11.4222254"><ele>486.0</ele><time>2026-04-26T08:58:44.175Z</time></trkpt><trkpt lat="43.0648571" lon="11.4222338"><ele>486.0</ele><time>2026-04-26T08:58:45.17Z</time></trkpt><trkpt lat="43.0647713" lon="11.422237"><ele>486.0</ele><time>2026-04-26T08:58:46.183Z</time></trkpt><trkpt lat="43.064687" lon="11.4222361"><ele>486.0</ele><time>2026-04-26T08:58:47.171Z</time></trkpt><trkpt lat="43.0646021" lon="11.422227"><ele>486.0</ele><time>2026-04-26T08:58:48.183Z</time></trkpt><trkpt lat="43.06452" lon="11.4222018"><ele>486.0</ele><time>2026-04-26T08:58:49.17Z</time></trkpt><trkpt lat="43.0644386" lon="11.42217"><ele>484.8333333333333</ele><time>2026-04-26T08:58:50.183Z</time></trkpt><trkpt lat="43.0643596" lon="11.4221362"><ele>483.66666666666663</ele><time>2026-04-26T08:58:51.178Z</time></trkpt><trkpt lat="43.064279" lon="11.4221"><ele>482.5</ele><time>2026-04-26T08:58:52.166Z</time></trkpt><trkpt lat="43.0642029" lon="11.4220569"><ele>481.3333333333333</ele><time>2026-04-26T08:58:53.171Z</time></trkpt><trkpt lat="43.0641323" lon="11.4220156"><ele>480.16666666666663</ele><time>2026-04-26T08:58:54.182Z</time></trkpt><trkpt lat="43.0640647" lon="11.4219829"><ele>479.0</ele><time>2026-04-26T08:58:55.185Z</time></trkpt><trkpt lat="43.0639973" lon="11.421963"><ele>477.8333333333333</ele><time>2026-04-26T08:58:56.171Z</time></trkpt><trkpt lat="43.0639247" lon="11.4219588"><ele>476.66666666666663</ele><time>2026-04-26T08:58:57.179Z</time></trkpt><trkpt lat="43.0638535" lon="11.4219651"><ele>475.5</ele><time>2026-04-26T08:58:58.168Z</time></trkpt><trkpt lat="43.0637836" lon="11.4219769"><ele>474.33333333333337</ele><time>2026-04-26T08:58:59.172Z</time></trkpt><trkpt lat="43.0637179" lon="11.4219881"><ele>473.1666666666667</ele><time>2026-04-26T08:59:00.175Z</time></trkpt><trkpt lat="43.0636085" lon="11.422022"><ele>472.0</ele><time>2026-04-26T08:59:02.192Z</time></trkpt><trkpt lat="43.0635268" lon="11.4221095"><ele>472.00000000000006</ele><time>2026-04-26T08:59:04.174Z</time></trkpt><trkpt lat="43.063491" lon="11.4222503"><ele>472.0</ele><time>2026-04-26T08:59:06.167Z</time></trkpt><trkpt lat="43.0635153" lon="11.4224226"><ele>472.0</ele><time>2026-04-26T08:59:08.184Z</time></trkpt><trkpt lat="43.0635333" lon="11.422509"><ele>472.0</ele><time>2026-04-26T08:59:09.168Z</time></trkpt><trkpt lat="43.0635505" lon="11.4225938"><ele>472.00000000000006</ele><time>2026-04-26T08:59:10.188Z</time></trkpt><trkpt lat="43.0635674" lon="11.4226784"><ele>472.0</ele><time>2026-04-26T08:59:11.179Z</time></trkpt><trkpt lat="43.0635818" lon="11.4227705"><ele>472.00000000000006</ele><time>2026-04-26T08:59:12.189Z</time></trkpt><trkpt lat="43.0635715" lon="11.4228746"><ele>472.0</ele><time>2026-04-26T08:59:13.184Z</time></trkpt><trkpt lat="43.0635392" lon="11.4229799"><ele>472.0</ele><time>2026-04-26T08:59:14.167Z</time></trkpt><trkpt lat="43.06349" lon="11.4230725"><ele>472.0</ele><time>2026-04-26T08:59:15.171Z</time></trkpt><trkpt lat="43.063448" lon="11.4231707"><ele>472.00000000000006</ele><time>2026-04-26T08:59:16.165Z</time></trkpt><trkpt lat="43.0634126" lon="11.4232707"><ele>472.0</ele><time>2026-04-26T08:59:17.181Z</time></trkpt><trkpt lat="43.063385" lon="11.4233669"><ele>471.57142857142856</ele><time>2026-04-26T08:59:18.178Z</time></trkpt><trkpt lat="43.06337" lon="11.4234658"><ele>471.14285714285717</ele><time>2026-04-26T08:59:19.177Z</time></trkpt><trkpt lat="43.0633706" lon="11.4235625"><ele>470.7142857142857</ele><time>2026-04-26T08:59:20.177Z</time></trkpt><trkpt lat="43.0633812" lon="11.4236574"><ele>470.2857142857143</ele><time>2026-04-26T08:59:21.18Z</time></trkpt><trkpt lat="43.0633957" lon="11.4237547"><ele>469.8571428571429</ele><time>2026-04-26T08:59:22.187Z</time></trkpt><trkpt lat="43.0634097" lon="11.4238517"><ele>469.42857142857144</ele><time>2026-04-26T08:59:23.171Z</time></trkpt><trkpt lat="43.0634189" lon="11.4239516"><ele>469.0</ele><time>2026-04-26T08:59:24.175Z</time></trkpt><trkpt lat="43.0634115" lon="11.4240584"><ele>468.2</ele><time>2026-04-26T08:59:25.181Z</time></trkpt><trkpt lat="43.0633845" lon="11.424172"><ele>467.4</ele><time>2026-04-26T08:59:26.178Z</time></trkpt><trkpt lat="43.063346" lon="11.4242875"><ele>466.6</ele><time>2026-04-26T08:59:27.166Z</time></trkpt><trkpt lat="43.0633092" lon="11.4244079"><ele>465.8</ele><time>2026-04-26T08:59:28.165Z</time></trkpt><trkpt lat="43.0632853" lon="11.4245374"><ele>465.0</ele><time>2026-04-26T08:59:29.176Z</time></trkpt><trkpt lat="43.0632678" lon="11.4246633"><ele>464.5</ele><time>2026-04-26T08:59:30.181Z</time></trkpt><trkpt lat="43.0632527" lon="11.4247813"><ele>464.0</ele><time>2026-04-26T08:59:31.174Z</time></trkpt><trkpt lat="43.0632325" lon="11.4248945"><ele>463.5</ele><time>2026-04-26T08:59:32.184Z</time></trkpt><trkpt lat="43.0631998" lon="11.425008"><ele>463.0</ele><time>2026-04-26T08:59:33.182Z</time></trkpt><trkpt lat="43.0631587" lon="11.4251146"><ele>462.5</ele><time>2026-04-26T08:59:34.18Z</time></trkpt><trkpt lat="43.0631178" lon="11.4252166"><ele>462.0</ele><time>2026-04-26T08:59:35.18Z</time></trkpt><trkpt lat="43.0630775" lon="11.4253061"><ele>462.0</ele><time>2026-04-26T08:59:36.176Z</time></trkpt><trkpt lat="43.0630332" lon="11.4253892"><ele>462.0</ele><time>2026-04-26T08:59:37.177Z</time></trkpt><trkpt lat="43.0629834" lon="11.4254681"><ele>462.0</ele><time>2026-04-26T08:59:38.184Z</time></trkpt><trkpt lat="43.0629401" lon="11.4255505"><ele>462.0</ele><time>2026-04-26T08:59:39.172Z</time></trkpt><trkpt lat="43.0628969" lon="11.4256325"><ele>462.0</ele><time>2026-04-26T08:59:40.178Z</time></trkpt><trkpt lat="43.0628707" lon="11.425736"><ele>462.0</ele><time>2026-04-26T08:59:41.178Z</time></trkpt><trkpt lat="43.0628538" lon="11.4258465"><ele>462.6666666666667</ele><time>2026-04-26T08:59:42.19Z</time></trkpt><trkpt lat="43.0628417" lon="11.4259621"><ele>463.33333333333337</ele><time>2026-04-26T08:59:43.174Z</time></trkpt><trkpt lat="43.06284" lon="11.4260809"><ele>464.0</ele><time>2026-04-26T08:59:44.184Z</time></trkpt><trkpt lat="43.0628414" lon="11.4261994"><ele>464.6666666666667</ele><time>2026-04-26T08:59:45.16Z</time></trkpt><trkpt lat="43.0628452" lon="11.4263237"><ele>465.33333333333337</ele><time>2026-04-26T08:59:46.17Z</time></trkpt><trkpt lat="43.0628569" lon="11.4264537"><ele>466.0</ele><time>2026-04-26T08:59:47.178Z</time></trkpt><trkpt lat="43.0628755" lon="11.4265807"><ele>466.00000000000006</ele><time>2026-04-26T08:59:48.182Z</time></trkpt><trkpt lat="43.062895" lon="11.4266996"><ele>466.0</ele><time>2026-04-26T08:59:49.167Z</time></trkpt><trkpt lat="43.0629073" lon="11.4268066"><ele>466.0</ele><time>2026-04-26T08:59:50.177Z</time></trkpt><trkpt lat="43.0629118" lon="11.4269116"><ele>466.0</ele><time>2026-04-26T08:59:51.17Z</time></trkpt><trkpt lat="43.0629012" lon="11.4270159"><ele>466.00000000000006</ele><time>2026-04-26T08:59:52.182Z</time></trkpt><trkpt lat="43.0628741" lon="11.4271191"><ele>466.0</ele><time>2026-04-26T08:59:53.176Z</time></trkpt><trkpt lat="43.0628246" lon="11.4272124"><ele>466.00000000000006</ele><time>2026-04-26T08:59:54.175Z</time></trkpt><trkpt lat="43.0627598" lon="11.4272914"><ele>466.0</ele><time>2026-04-26T08:59:55.173Z</time></trkpt><trkpt lat="43.0626871" lon="11.4273513"><ele>466.0</ele><time>2026-04-26T08:59:56.18Z</time></trkpt><trkpt lat="43.0626101" lon="11.4273942"><ele>466.0</ele><time>2026-04-26T08:59:57.175Z</time></trkpt><trkpt lat="43.0625351" lon="11.4274303"><ele>466.00000000000006</ele><time>2026-04-26T08:59:58.181Z</time></trkpt><trkpt lat="43.0624586" lon="11.4274692"><ele>466.0</ele><time>2026-04-26T08:59:59.166Z</time></trkpt><trkpt lat="43.0623795" lon="11.4275027"><ele>466.6666666666667</ele><time>2026-04-26T09:00:00.173Z</time></trkpt><trkpt lat="43.0622981" lon="11.4275365"><ele>467.33333333333337</ele><time>2026-04-26T09:00:01.182Z</time></trkpt><trkpt lat="43.0622108" lon="11.4275641"><ele>468.0</ele><time>2026-04-26T09:00:02.174Z</time></trkpt><trkpt lat="43.0621194" lon="11.4275854"><ele>468.66666666666663</ele><time>2026-04-26T09:00:03.169Z</time></trkpt><trkpt lat="43.06203" lon="11.4275988"><ele>469.3333333333333</ele><time>2026-04-26T09:00:04.186Z</time></trkpt><trkpt lat="43.0619427" lon="11.4275945"><ele>470.0</ele><time>2026-04-26T09:00:05.179Z</time></trkpt><trkpt lat="43.0618587" lon="11.4275666"><ele>470.0</ele><time>2026-04-26T09:00:06.179Z</time></trkpt><trkpt lat="43.0617759" lon="11.4275232"><ele>470.0</ele><time>2026-04-26T09:00:07.162Z</time></trkpt><trkpt lat="43.0616949" lon="11.4274714"><ele>470.0</ele><time>2026-04-26T09:00:08.174Z</time></trkpt><trkpt lat="43.061614" lon="11.4274197"><ele>470.0</ele><time>2026-04-26T09:00:09.167Z</time></trkpt><trkpt lat="43.0615271" lon="11.4273862"><ele>470.0</ele><time>2026-04-26T09:00:10.172Z</time></trkpt><trkpt lat="43.0614351" lon="11.4273736"><ele>470.2</ele><time>2026-04-26T09:00:11.162Z</time></trkpt><trkpt lat="43.0613393" lon="11.4273775"><ele>470.4</ele><time>2026-04-26T09:00:12.176Z</time></trkpt><trkpt lat="43.0612456" lon="11.4273981"><ele>470.6</ele><time>2026-04-26T09:00:13.178Z</time></trkpt><trkpt lat="43.0611565" lon="11.4274253"><ele>470.8</ele><time>2026-04-26T09:00:14.168Z</time></trkpt><trkpt lat="43.0610718" lon="11.4274543"><ele>471.0</ele><time>2026-04-26T09:00:15.172Z</time></trkpt><trkpt lat="43.0609905" lon="11.4274735"><ele>471.0</ele><time>2026-04-26T09:00:16.179Z</time></trkpt><trkpt lat="43.0609083" lon="11.4274778"><ele>471.0</ele><time>2026-04-26T09:00:17.172Z</time></trkpt><trkpt lat="43.060828" lon="11.4274584"><ele>471.0</ele><time>2026-04-26T09:00:18.177Z</time></trkpt><trkpt lat="43.0607515" lon="11.4274139"><ele>471.0</ele><time>2026-04-26T09:00:19.178Z</time></trkpt><trkpt lat="43.0606755" lon="11.4273569"><ele>471.0</ele><time>2026-04-26T09:00:20.178Z</time></trkpt><trkpt lat="43.0606035" lon="11.4273034"><ele>471.0</ele><time>2026-04-26T09:00:21.173Z</time></trkpt><trkpt lat="43.0605407" lon="11.4272625"><ele>472.6</ele><time>2026-04-26T09:00:22.177Z</time></trkpt><trkpt lat="43.0604369" lon="11.4272335"><ele>474.20000000000005</ele><time>2026-04-26T09:00:24.177Z</time></trkpt><trkpt lat="43.0603447" lon="11.4272957"><ele>475.79999999999995</ele><time>2026-04-26T09:00:26.169Z</time></trkpt><trkpt lat="43.060289" lon="11.4274276"><ele>477.4</ele><time>2026-04-26T09:00:28.167Z</time></trkpt><trkpt lat="43.0602809" lon="11.4275165"><ele>479.0</ele><time>2026-04-26T09:00:29.16Z</time></trkpt><trkpt lat="43.0602593" lon="11.42761"><ele>479.0</ele><time>2026-04-26T09:00:30.177Z</time></trkpt><trkpt lat="43.0602383" lon="11.4276949"><ele>479.0</ele><time>2026-04-26T09:00:31.18Z</time></trkpt><trkpt lat="43.0601859" lon="11.4277468"><ele>479.0</ele><time>2026-04-26T09:00:32.179Z</time></trkpt><trkpt lat="43.0601239" lon="11.4277861"><ele>479.0</ele><time>2026-04-26T09:00:33.168Z</time></trkpt><trkpt lat="43.0600622" lon="11.4278259"><ele>479.0</ele><time>2026-04-26T09:00:34.185Z</time></trkpt><trkpt lat="43.0599993" lon="11.4278686"><ele>479.0</ele><time>2026-04-26T09:00:35.157Z</time></trkpt><trkpt lat="43.0599307" lon="11.4278935"><ele>479.0</ele><time>2026-04-26T09:00:36.18Z</time></trkpt><trkpt lat="43.0598644" lon="11.4279132"><ele>479.71428571428567</ele><time>2026-04-26T09:00:37.168Z</time></trkpt><trkpt lat="43.0597987" lon="11.4279004"><ele>480.42857142857144</ele><time>2026-04-26T09:00:38.178Z</time></trkpt><trkpt lat="43.0597469" lon="11.4278458"><ele>481.1428571428571</ele><time>2026-04-26T09:00:39.181Z</time></trkpt><trkpt lat="43.0597003" lon="11.427772"><ele>481.85714285714283</ele><time>2026-04-26T09:00:40.168Z</time></trkpt><trkpt lat="43.0596538" lon="11.4276978"><ele>482.57142857142856</ele><time>2026-04-26T09:00:41.177Z</time></trkpt><trkpt lat="43.059605" lon="11.4276161"><ele>483.2857142857143</ele><time>2026-04-26T09:00:42.165Z</time></trkpt><trkpt lat="43.0595468" lon="11.4275293"><ele>484.0</ele><time>2026-04-26T09:00:43.177Z</time></trkpt><trkpt lat="43.059493" lon="11.4274489"><ele>484.00000000000006</ele><time>2026-04-26T09:00:44.176Z</time></trkpt><trkpt lat="43.0594423" lon="11.4273759"><ele>484.0</ele><time>2026-04-26T09:00:45.176Z</time></trkpt><trkpt lat="43.0593918" lon="11.427319"><ele>484.0</ele><time>2026-04-26T09:00:46.177Z</time></trkpt><trkpt lat="43.0592916" lon="11.4272228"><ele>484.0</ele><time>2026-04-26T09:00:48.164Z</time></trkpt><trkpt lat="43.059225" lon="11.4272316"><ele>484.00000000000006</ele><time>2026-04-26T09:00:49.176Z</time></trkpt><trkpt lat="43.0591617" lon="11.4272558"><ele>484.0</ele><time>2026-04-26T09:00:50.18Z</time></trkpt><trkpt lat="43.0591044" lon="11.4272962"><ele>487.0</ele><time>2026-04-26T09:00:51.179Z</time></trkpt><trkpt lat="43.0590149" lon="11.4273944"><ele>490.0</ele><time>2026-04-26T09:00:53.166Z</time></trkpt><trkpt lat="43.0590023" lon="11.4275692"><ele>493.0</ele><time>2026-04-26T09:00:55.181Z</time></trkpt><trkpt lat="43.0590248" lon="11.4276692"><ele>496.0</ele><time>2026-04-26T09:00:56.162Z</time></trkpt><trkpt lat="43.0590541" lon="11.427779"><ele>499.0</ele><time>2026-04-26T09:00:57.168Z</time></trkpt><trkpt lat="43.0590867" lon="11.4278944"><ele>497.6666666666667</ele><time>2026-04-26T09:00:58.172Z</time></trkpt><trkpt lat="43.059117" lon="11.4280037"><ele>496.33333333333337</ele><time>2026-04-26T09:00:59.162Z</time></trkpt><trkpt lat="43.0591327" lon="11.4281023"><ele>495.0</ele><time>2026-04-26T09:01:00.181Z</time></trkpt><trkpt lat="43.0591281" lon="11.4281956"><ele>493.66666666666663</ele><time>2026-04-26T09:01:01.18Z</time></trkpt><trkpt lat="43.0590783" lon="11.4283486"><ele>492.3333333333333</ele><time>2026-04-26T09:01:03.163Z</time></trkpt><trkpt lat="43.0590143" lon="11.4283847"><ele>491.0</ele><time>2026-04-26T09:01:04.181Z</time></trkpt><trkpt lat="43.0589373" lon="11.4284193"><ele>490.99999999999994</ele><time>2026-04-26T09:01:05.178Z</time></trkpt><trkpt lat="43.0588608" lon="11.4284538"><ele>491.0</ele><time>2026-04-26T09:01:06.175Z</time></trkpt><trkpt lat="43.0587879" lon="11.4284988"><ele>491.0</ele><time>2026-04-26T09:01:07.165Z</time></trkpt><trkpt lat="43.0587318" lon="11.4285793"><ele>491.0</ele><time>2026-04-26T09:01:08.177Z</time></trkpt><trkpt lat="43.0586763" lon="11.4286622"><ele>490.99999999999994</ele><time>2026-04-26T09:01:09.176Z</time></trkpt><trkpt lat="43.0586288" lon="11.4287515"><ele>491.0</ele><time>2026-04-26T09:01:10.182Z</time></trkpt><trkpt lat="43.0585884" lon="11.4288533"><ele>490.16666666666663</ele><time>2026-04-26T09:01:11.177Z</time></trkpt><trkpt lat="43.0585519" lon="11.4289608"><ele>489.3333333333333</ele><time>2026-04-26T09:01:12.162Z</time></trkpt><trkpt lat="43.0585148" lon="11.4290704"><ele>488.5</ele><time>2026-04-26T09:01:13.17Z</time></trkpt><trkpt lat="43.0584804" lon="11.4291781"><ele>487.66666666666663</ele><time>2026-04-26T09:01:14.177Z</time></trkpt><trkpt lat="43.0584463" lon="11.4292872"><ele>486.8333333333333</ele><time>2026-04-26T09:01:15.178Z</time></trkpt><trkpt lat="43.0584176" lon="11.4294002"><ele>486.0</ele><time>2026-04-26T09:01:16.171Z</time></trkpt><trkpt lat="43.0583919" lon="11.4295131"><ele>486.0</ele><time>2026-04-26T09:01:17.177Z</time></trkpt><trkpt lat="43.0583676" lon="11.4296255"><ele>486.0</ele><time>2026-04-26T09:01:18.176Z</time></trkpt><trkpt lat="43.0583405" lon="11.4297391"><ele>486.0</ele><time>2026-04-26T09:01:19.176Z</time></trkpt><trkpt lat="43.058317" lon="11.4298491"><ele>486.0</ele><time>2026-04-26T09:01:20.168Z</time></trkpt><trkpt lat="43.0582973" lon="11.429961"><ele>486.0</ele><time>2026-04-26T09:01:21.178Z</time></trkpt><trkpt lat="43.0582866" lon="11.4300766"><ele>486.0</ele><time>2026-04-26T09:01:22.177Z</time></trkpt><trkpt lat="43.0582814" lon="11.4301936"><ele>486.0</ele><time>2026-04-26T09:01:23.179Z</time></trkpt><trkpt lat="43.0582852" lon="11.4303116"><ele>486.0</ele><time>2026-04-26T09:01:24.167Z</time></trkpt><trkpt lat="43.0582919" lon="11.4304334"><ele>486.0</ele><time>2026-04-26T09:01:25.182Z</time></trkpt><trkpt lat="43.0582971" lon="11.4305576"><ele>486.0</ele><time>2026-04-26T09:01:26.168Z</time></trkpt><trkpt lat="43.0582861" lon="11.4306804"><ele>486.0</ele><time>2026-04-26T09:01:27.176Z</time></trkpt><trkpt lat="43.0582518" lon="11.4307937"><ele>486.0</ele><time>2026-04-26T09:01:28.17Z</time></trkpt><trkpt lat="43.058193" lon="11.4308924"><ele>484.8</ele><time>2026-04-26T09:01:29.172Z</time></trkpt><trkpt lat="43.0581328" lon="11.4309892"><ele>483.6</ele><time>2026-04-26T09:01:30.168Z</time></trkpt><trkpt lat="43.0580488" lon="11.4310509"><ele>482.4</ele><time>2026-04-26T09:01:31.183Z</time></trkpt><trkpt lat="43.0579646" lon="11.4311111"><ele>481.2</ele><time>2026-04-26T09:01:32.187Z</time></trkpt><trkpt lat="43.057882" lon="11.4311723"><ele>480.0</ele><time>2026-04-26T09:01:33.177Z</time></trkpt><trkpt lat="43.0578004" lon="11.4312274"><ele>480.0</ele><time>2026-04-26T09:01:34.183Z</time></trkpt><trkpt lat="43.0577203" lon="11.4312805"><ele>480.0</ele><time>2026-04-26T09:01:35.183Z</time></trkpt><trkpt lat="43.0576413" lon="11.4313333"><ele>480.0</ele><time>2026-04-26T09:01:36.172Z</time></trkpt><trkpt lat="43.057569" lon="11.4313993"><ele>480.0</ele><time>2026-04-26T09:01:37.187Z</time></trkpt><trkpt lat="43.0575025" lon="11.4314712"><ele>480.0</ele><time>2026-04-26T09:01:38.17Z</time></trkpt><trkpt lat="43.0574436" lon="11.4315447"><ele>480.0</ele><time>2026-04-26T09:01:39.172Z</time></trkpt><trkpt lat="43.0573887" lon="11.4316159"><ele>481.5</ele><time>2026-04-26T09:01:40.181Z</time></trkpt><trkpt lat="43.0573377" lon="11.4316754"><ele>483.0</ele><time>2026-04-26T09:01:41.176Z</time></trkpt><trkpt lat="43.0572543" lon="11.4317771"><ele>484.5</ele><time>2026-04-26T09:01:43.168Z</time></trkpt><trkpt lat="43.0571832" lon="11.4318747"><ele>486.0</ele><time>2026-04-26T09:01:45.176Z</time></trkpt><trkpt lat="43.0571278" lon="11.4319686"><ele>487.5</ele><time>2026-04-26T09:01:47.181Z</time></trkpt><trkpt lat="43.0570876" lon="11.4320393"><ele>489.0</ele><time>2026-04-26T09:01:49.177Z</time></trkpt><trkpt lat="43.0570507" lon="11.432122"><ele>489.2</ele><time>2026-04-26T09:01:52.177Z</time></trkpt><trkpt lat="43.0569783" lon="11.4321995"><ele>489.4</ele><time>2026-04-26T09:01:55.166Z</time></trkpt><trkpt lat="43.056905" lon="11.432249"><ele>489.6</ele><time>2026-04-26T09:01:57.187Z</time></trkpt><trkpt lat="43.0568038" lon="11.4322787"><ele>489.8</ele><time>2026-04-26T09:01:59.167Z</time></trkpt><trkpt lat="43.0566746" lon="11.4322464"><ele>490.0</ele><time>2026-04-26T09:02:01.185Z</time></trkpt><trkpt lat="43.0566056" lon="11.4322059"><ele>490.00000000000006</ele><time>2026-04-26T09:02:02.169Z</time></trkpt><trkpt lat="43.0565385" lon="11.432149"><ele>490.0</ele><time>2026-04-26T09:02:03.189Z</time></trkpt><trkpt lat="43.0564668" lon="11.4320962"><ele>490.0</ele><time>2026-04-26T09:02:04.175Z</time></trkpt><trkpt lat="43.0563931" lon="11.4320485"><ele>490.0</ele><time>2026-04-26T09:02:05.184Z</time></trkpt><trkpt lat="43.0563222" lon="11.4320015"><ele>490.00000000000006</ele><time>2026-04-26T09:02:06.177Z</time></trkpt><trkpt lat="43.0562459" lon="11.4319611"><ele>490.0</ele><time>2026-04-26T09:02:07.183Z</time></trkpt><trkpt lat="43.0561663" lon="11.4319226"><ele>488.83333333333337</ele><time>2026-04-26T09:02:08.174Z</time></trkpt><trkpt lat="43.0560874" lon="11.4318837"><ele>487.6666666666667</ele><time>2026-04-26T09:02:09.163Z</time></trkpt><trkpt lat="43.0560137" lon="11.4318499"><ele>486.5</ele><time>2026-04-26T09:02:10.173Z</time></trkpt><trkpt lat="43.0559407" lon="11.4318199"><ele>485.33333333333337</ele><time>2026-04-26T09:02:11.188Z</time></trkpt><trkpt lat="43.0558579" lon="11.4317862"><ele>484.1666666666667</ele><time>2026-04-26T09:02:12.165Z</time></trkpt><trkpt lat="43.0557753" lon="11.4317567"><ele>483.0</ele><time>2026-04-26T09:02:13.179Z</time></trkpt><trkpt lat="43.0556898" lon="11.4317357"><ele>482.1666666666667</ele><time>2026-04-26T09:02:14.174Z</time></trkpt><trkpt lat="43.0556022" lon="11.4317235"><ele>481.33333333333337</ele><time>2026-04-26T09:02:15.183Z</time></trkpt><trkpt lat="43.0555166" lon="11.4317201"><ele>480.5</ele><time>2026-04-26T09:02:16.182Z</time></trkpt><trkpt lat="43.0554397" lon="11.4317095"><ele>479.6666666666667</ele><time>2026-04-26T09:02:17.179Z</time></trkpt><trkpt lat="43.0553868" lon="11.4316576"><ele>478.83333333333337</ele><time>2026-04-26T09:02:18.178Z</time></trkpt><trkpt lat="43.0553298" lon="11.4315725"><ele>478.0</ele><time>2026-04-26T09:02:19.17Z</time></trkpt><trkpt lat="43.055269" lon="11.4314772"><ele>478.0</ele><time>2026-04-26T09:02:20.176Z</time></trkpt><trkpt lat="43.0551915" lon="11.4313888"><ele>477.99999999999994</ele><time>2026-04-26T09:02:21.174Z</time></trkpt><trkpt lat="43.0551101" lon="11.4313109"><ele>477.99999999999994</ele><time>2026-04-26T09:02:22.175Z</time></trkpt><trkpt lat="43.0550394" lon="11.4312401"><ele>478.0</ele><time>2026-04-26T09:02:23.181Z</time></trkpt><trkpt lat="43.0549731" lon="11.4311506"><ele>478.0</ele><time>2026-04-26T09:02:24.166Z</time></trkpt><trkpt lat="43.0549075" lon="11.4310748"><ele>475.59999999999997</ele><time>2026-04-26T09:02:25.175Z</time></trkpt><trkpt lat="43.0548433" lon="11.431007"><ele>473.19999999999993</ele><time>2026-04-26T09:02:26.167Z</time></trkpt><trkpt lat="43.054767" lon="11.4309589"><ele>470.8</ele><time>2026-04-26T09:02:27.179Z</time></trkpt><trkpt lat="43.0546788" lon="11.4309183"><ele>468.4</ele><time>2026-04-26T09:02:28.179Z</time></trkpt><trkpt lat="43.0545796" lon="11.4308904"><ele>466.0</ele><time>2026-04-26T09:02:29.186Z</time></trkpt><trkpt lat="43.0544811" lon="11.4308617"><ele>466.00000000000006</ele><time>2026-04-26T09:02:30.173Z</time></trkpt><trkpt lat="43.0543811" lon="11.4308344"><ele>466.0</ele><time>2026-04-26T09:02:31.191Z</time></trkpt><trkpt lat="43.0542876" lon="11.4308158"><ele>466.0</ele><time>2026-04-26T09:02:32.176Z</time></trkpt><trkpt lat="43.0542026" lon="11.4307976"><ele>466.0</ele><time>2026-04-26T09:02:33.179Z</time></trkpt><trkpt lat="43.0541226" lon="11.4307847"><ele>466.00000000000006</ele><time>2026-04-26T09:02:34.176Z</time></trkpt><trkpt lat="43.0540464" lon="11.4307775"><ele>466.0</ele><time>2026-04-26T09:02:35.171Z</time></trkpt><trkpt lat="43.0539712" lon="11.4307712"><ele>464.6666666666667</ele><time>2026-04-26T09:02:36.171Z</time></trkpt><trkpt lat="43.0538929" lon="11.4307658"><ele>463.33333333333337</ele><time>2026-04-26T09:02:37.18Z</time></trkpt><trkpt lat="43.053815" lon="11.430761"><ele>462.0</ele><time>2026-04-26T09:02:38.179Z</time></trkpt><trkpt lat="43.0537374" lon="11.430755"><ele>460.66666666666663</ele><time>2026-04-26T09:02:39.171Z</time></trkpt><trkpt lat="43.0536564" lon="11.4307442"><ele>459.3333333333333</ele><time>2026-04-26T09:02:40.189Z</time></trkpt><trkpt lat="43.0535748" lon="11.4307199"><ele>458.0</ele><time>2026-04-26T09:02:41.17Z</time></trkpt><trkpt lat="43.0534933" lon="11.4306824"><ele>458.0</ele><time>2026-04-26T09:02:42.186Z</time></trkpt><trkpt lat="43.0534094" lon="11.4306411"><ele>457.99999999999994</ele><time>2026-04-26T09:02:43.17Z</time></trkpt><trkpt lat="43.053326" lon="11.4305985"><ele>457.99999999999994</ele><time>2026-04-26T09:02:44.167Z</time></trkpt><trkpt lat="43.0532442" lon="11.4305574"><ele>458.0</ele><time>2026-04-26T09:02:45.185Z</time></trkpt><trkpt lat="43.0531579" lon="11.4305164"><ele>458.0</ele><time>2026-04-26T09:02:46.18Z</time></trkpt><trkpt lat="43.0530637" lon="11.4304708"><ele>455.0</ele><time>2026-04-26T09:02:47.167Z</time></trkpt><trkpt lat="43.0529664" lon="11.4304243"><ele>452.0</ele><time>2026-04-26T09:02:48.165Z</time></trkpt><trkpt lat="43.0528608" lon="11.4303554"><ele>449.0</ele><time>2026-04-26T09:02:49.184Z</time></trkpt><trkpt lat="43.0527489" lon="11.4302718"><ele>446.0</ele><time>2026-04-26T09:02:50.178Z</time></trkpt><trkpt lat="43.052638" lon="11.4301984"><ele>446.0</ele><time>2026-04-26T09:02:51.175Z</time></trkpt><trkpt lat="43.0525341" lon="11.4301324"><ele>446.0</ele><time>2026-04-26T09:02:52.171Z</time></trkpt><trkpt lat="43.0524331" lon="11.4300723"><ele>446.0</ele><time>2026-04-26T09:02:53.179Z</time></trkpt><trkpt lat="43.0523365" lon="11.4300186"><ele>446.0</ele><time>2026-04-26T09:02:54.171Z</time></trkpt><trkpt lat="43.0522446" lon="11.4299699"><ele>446.0</ele><time>2026-04-26T09:02:55.183Z</time></trkpt><trkpt lat="43.0521573" lon="11.4299273"><ele>443.20000000000005</ele><time>2026-04-26T09:02:56.163Z</time></trkpt><trkpt lat="43.0520686" lon="11.4298885"><ele>440.40000000000003</ele><time>2026-04-26T09:02:57.177Z</time></trkpt><trkpt lat="43.0519799" lon="11.4298501"><ele>437.6</ele><time>2026-04-26T09:02:58.179Z</time></trkpt><trkpt lat="43.0518916" lon="11.4298165"><ele>434.8</ele><time>2026-04-26T09:02:59.18Z</time></trkpt><trkpt lat="43.0518027" lon="11.4297851"><ele>432.0</ele><time>2026-04-26T09:03:00.181Z</time></trkpt><trkpt lat="43.0517125" lon="11.429754"><ele>432.0</ele><time>2026-04-26T09:03:01.171Z</time></trkpt><trkpt lat="43.0516231" lon="11.4297192"><ele>432.00000000000006</ele><time>2026-04-26T09:03:02.169Z</time></trkpt><trkpt lat="43.0515337" lon="11.4296851"><ele>432.00000000000006</ele><time>2026-04-26T09:03:03.175Z</time></trkpt><trkpt lat="43.0514452" lon="11.4296312"><ele>432.0</ele><time>2026-04-26T09:03:04.182Z</time></trkpt><trkpt lat="43.0513528" lon="11.4295651"><ele>432.0</ele><time>2026-04-26T09:03:05.176Z</time></trkpt><trkpt lat="43.0512618" lon="11.4294896"><ele>432.8</ele><time>2026-04-26T09:03:06.171Z</time></trkpt><trkpt lat="43.0511772" lon="11.4294106"><ele>433.6</ele><time>2026-04-26T09:03:07.182Z</time></trkpt><trkpt lat="43.0510955" lon="11.4293309"><ele>434.40000000000003</ele><time>2026-04-26T09:03:08.182Z</time></trkpt><trkpt lat="43.0510188" lon="11.4292502"><ele>435.20000000000005</ele><time>2026-04-26T09:03:09.184Z</time></trkpt><trkpt lat="43.0509463" lon="11.4291684"><ele>436.0</ele><time>2026-04-26T09:03:10.189Z</time></trkpt><trkpt lat="43.0508758" lon="11.4290878"><ele>436.00000000000006</ele><time>2026-04-26T09:03:11.186Z</time></trkpt><trkpt lat="43.0508081" lon="11.4290109"><ele>436.0</ele><time>2026-04-26T09:03:12.176Z</time></trkpt><trkpt lat="43.0507415" lon="11.4289407"><ele>436.0</ele><time>2026-04-26T09:03:13.175Z</time></trkpt><trkpt lat="43.0506708" lon="11.4288763"><ele>436.0</ele><time>2026-04-26T09:03:14.183Z</time></trkpt><trkpt lat="43.0505956" lon="11.4288089"><ele>436.00000000000006</ele><time>2026-04-26T09:03:15.18Z</time></trkpt><trkpt lat="43.0505195" lon="11.4287325"><ele>436.0</ele><time>2026-04-26T09:03:16.182Z</time></trkpt><trkpt lat="43.0504435" lon="11.4286531"><ele>436.20000000000005</ele><time>2026-04-26T09:03:17.174Z</time></trkpt><trkpt lat="43.0503663" lon="11.4285753"><ele>436.40000000000003</ele><time>2026-04-26T09:03:18.16Z</time></trkpt><trkpt lat="43.0502885" lon="11.4284992"><ele>436.6</ele><time>2026-04-26T09:03:19.18Z</time></trkpt><trkpt lat="43.0502133" lon="11.4284322"><ele>436.8</ele><time>2026-04-26T09:03:20.164Z</time></trkpt><trkpt lat="43.050135" lon="11.4283813"><ele>437.0</ele><time>2026-04-26T09:03:21.165Z</time></trkpt><trkpt lat="43.0500517" lon="11.428344"><ele>437.0</ele><time>2026-04-26T09:03:22.168Z</time></trkpt><trkpt lat="43.0499688" lon="11.428308"><ele>437.00000000000006</ele><time>2026-04-26T09:03:23.187Z</time></trkpt><trkpt lat="43.0498789" lon="11.4282864"><ele>437.00000000000006</ele><time>2026-04-26T09:03:24.177Z</time></trkpt><trkpt lat="43.0497873" lon="11.428239"><ele>437.0</ele><time>2026-04-26T09:03:25.187Z</time></trkpt><trkpt lat="43.0497055" lon="11.4281647"><ele>437.0</ele><time>2026-04-26T09:03:26.181Z</time></trkpt><trkpt lat="43.0496326" lon="11.4280798"><ele>437.8333333333333</ele><time>2026-04-26T09:03:27.182Z</time></trkpt><trkpt lat="43.049567" lon="11.4279913"><ele>438.66666666666663</ele><time>2026-04-26T09:03:28.179Z</time></trkpt><trkpt lat="43.0495031" lon="11.4279129"><ele>439.5</ele><time>2026-04-26T09:03:29.18Z</time></trkpt><trkpt lat="43.0494379" lon="11.427835"><ele>440.33333333333337</ele><time>2026-04-26T09:03:30.174Z</time></trkpt><trkpt lat="43.0493706" lon="11.4277701"><ele>441.1666666666667</ele><time>2026-04-26T09:03:31.168Z</time></trkpt><trkpt lat="43.0492979" lon="11.4277101"><ele>442.0</ele><time>2026-04-26T09:03:32.178Z</time></trkpt><trkpt lat="43.0492216" lon="11.4276538"><ele>439.6666666666667</ele><time>2026-04-26T09:03:33.165Z</time></trkpt><trkpt lat="43.0491435" lon="11.4275953"><ele>437.33333333333337</ele><time>2026-04-26T09:03:34.179Z</time></trkpt><trkpt lat="43.0490651" lon="11.4275346"><ele>435.0</ele><time>2026-04-26T09:03:35.186Z</time></trkpt><trkpt lat="43.0489898" lon="11.4274693"><ele>432.66666666666663</ele><time>2026-04-26T09:03:36.176Z</time></trkpt><trkpt lat="43.0489163" lon="11.4273983"><ele>430.3333333333333</ele><time>2026-04-26T09:03:37.178Z</time></trkpt><trkpt lat="43.0488431" lon="11.427335"><ele>428.0</ele><time>2026-04-26T09:03:38.174Z</time></trkpt><trkpt lat="43.0487818" lon="11.4272471"><ele>427.8333333333333</ele><time>2026-04-26T09:03:39.162Z</time></trkpt><trkpt lat="43.0487284" lon="11.4271526"><ele>427.66666666666663</ele><time>2026-04-26T09:03:40.167Z</time></trkpt><trkpt lat="43.0486748" lon="11.427058"><ele>427.5</ele><time>2026-04-26T09:03:41.18Z</time></trkpt><trkpt lat="43.0486192" lon="11.4269694"><ele>427.33333333333337</ele><time>2026-04-26T09:03:42.182Z</time></trkpt><trkpt lat="43.0485617" lon="11.4268786"><ele>427.1666666666667</ele><time>2026-04-26T09:03:43.186Z</time></trkpt><trkpt lat="43.0485001" lon="11.4267896"><ele>427.0</ele><time>2026-04-26T09:03:44.173Z</time></trkpt><trkpt lat="43.0484338" lon="11.4267005"><ele>425.50000000000006</ele><time>2026-04-26T09:03:45.171Z</time></trkpt><trkpt lat="43.0483724" lon="11.4266059"><ele>424.0</ele><time>2026-04-26T09:03:46.167Z</time></trkpt><trkpt lat="43.0483194" lon="11.4265031"><ele>422.5</ele><time>2026-04-26T09:03:47.188Z</time></trkpt><trkpt lat="43.0482749" lon="11.4263963"><ele>421.0</ele><time>2026-04-26T09:03:48.171Z</time></trkpt><trkpt lat="43.0482345" lon="11.4262919"><ele>419.50000000000006</ele><time>2026-04-26T09:03:49.185Z</time></trkpt><trkpt lat="43.0481954" lon="11.4261908"><ele>418.0</ele><time>2026-04-26T09:03:50.179Z</time></trkpt><trkpt lat="43.0481554" lon="11.4260949"><ele>416.1666666666667</ele><time>2026-04-26T09:03:51.178Z</time></trkpt><trkpt lat="43.048111" lon="11.4260012"><ele>414.33333333333337</ele><time>2026-04-26T09:03:52.172Z</time></trkpt><trkpt lat="43.0480632" lon="11.425907"><ele>412.5</ele><time>2026-04-26T09:03:53.185Z</time></trkpt><trkpt lat="43.0480135" lon="11.4258067"><ele>410.66666666666663</ele><time>2026-04-26T09:03:54.173Z</time></trkpt><trkpt lat="43.0479618" lon="11.4257022"><ele>408.8333333333333</ele><time>2026-04-26T09:03:55.163Z</time></trkpt><trkpt lat="43.0479053" lon="11.4255961"><ele>407.0</ele><time>2026-04-26T09:03:56.179Z</time></trkpt><trkpt lat="43.0478459" lon="11.4254923"><ele>405.0</ele><time>2026-04-26T09:03:57.173Z</time></trkpt><trkpt lat="43.0477811" lon="11.4253851"><ele>403.0</ele><time>2026-04-26T09:03:58.18Z</time></trkpt><trkpt lat="43.0477148" lon="11.4252771"><ele>401.0</ele><time>2026-04-26T09:03:59.168Z</time></trkpt><trkpt lat="43.0476476" lon="11.4251704"><ele>399.0</ele><time>2026-04-26T09:04:00.184Z</time></trkpt><trkpt lat="43.0475809" lon="11.4250663"><ele>397.0</ele><time>2026-04-26T09:04:01.179Z</time></trkpt><trkpt lat="43.0475178" lon="11.4249689"><ele>396.50000000000006</ele><time>2026-04-26T09:04:02.175Z</time></trkpt><trkpt lat="43.0474545" lon="11.4248808"><ele>396.0</ele><time>2026-04-26T09:04:03.176Z</time></trkpt><trkpt lat="43.0473889" lon="11.4248012"><ele>395.5</ele><time>2026-04-26T09:04:04.179Z</time></trkpt><trkpt lat="43.0473189" lon="11.4247334"><ele>395.0</ele><time>2026-04-26T09:04:05.184Z</time></trkpt><trkpt lat="43.0472448" lon="11.4246733"><ele>394.50000000000006</ele><time>2026-04-26T09:04:06.171Z</time></trkpt><trkpt lat="43.0471674" lon="11.4246127"><ele>394.0</ele><time>2026-04-26T09:04:07.174Z</time></trkpt><trkpt lat="43.0470838" lon="11.4245532"><ele>393.0</ele><time>2026-04-26T09:04:08.184Z</time></trkpt><trkpt lat="43.0470057" lon="11.4244773"><ele>392.0</ele><time>2026-04-26T09:04:09.166Z</time></trkpt><trkpt lat="43.0469433" lon="11.4243626"><ele>391.0</ele><time>2026-04-26T09:04:10.168Z</time></trkpt><trkpt lat="43.0468895" lon="11.4242214"><ele>390.0</ele><time>2026-04-26T09:04:11.172Z</time></trkpt><trkpt lat="43.0468439" lon="11.4240631"><ele>389.0</ele><time>2026-04-26T09:04:12.177Z</time></trkpt><trkpt lat="43.0467964" lon="11.4239046"><ele>388.79999999999995</ele><time>2026-04-26T09:04:13.191Z</time></trkpt><trkpt lat="43.0467459" lon="11.423764"><ele>388.59999999999997</ele><time>2026-04-26T09:04:14.175Z</time></trkpt><trkpt lat="43.0467029" lon="11.4236405"><ele>388.4</ele><time>2026-04-26T09:04:15.171Z</time></trkpt><trkpt lat="43.0466616" lon="11.4235311"><ele>388.2</ele><time>2026-04-26T09:04:16.173Z</time></trkpt><trkpt lat="43.0466222" lon="11.4234274"><ele>388.0</ele><time>2026-04-26T09:04:17.182Z</time></trkpt><trkpt lat="43.0465851" lon="11.4233277"><ele>387.83333333333337</ele><time>2026-04-26T09:04:18.18Z</time></trkpt><trkpt lat="43.0465482" lon="11.4232304"><ele>387.6666666666667</ele><time>2026-04-26T09:04:19.184Z</time></trkpt><trkpt lat="43.046509" lon="11.423134"><ele>387.5</ele><time>2026-04-26T09:04:20.172Z</time></trkpt><trkpt lat="43.0464706" lon="11.423037"><ele>387.33333333333337</ele><time>2026-04-26T09:04:21.172Z</time></trkpt><trkpt lat="43.0464334" lon="11.4229386"><ele>387.1666666666667</ele><time>2026-04-26T09:04:22.173Z</time></trkpt><trkpt lat="43.0463989" lon="11.4228432"><ele>387.0</ele><time>2026-04-26T09:04:23.182Z</time></trkpt><trkpt lat="43.0463608" lon="11.4227541"><ele>389.1666666666667</ele><time>2026-04-26T09:04:24.175Z</time></trkpt><trkpt lat="43.0463243" lon="11.4226672"><ele>391.33333333333337</ele><time>2026-04-26T09:04:25.169Z</time></trkpt><trkpt lat="43.0462873" lon="11.4225816"><ele>393.5</ele><time>2026-04-26T09:04:26.175Z</time></trkpt><trkpt lat="43.046253" lon="11.4224948"><ele>395.6666666666667</ele><time>2026-04-26T09:04:27.182Z</time></trkpt><trkpt lat="43.0462215" lon="11.422412"><ele>397.83333333333337</ele><time>2026-04-26T09:04:28.184Z</time></trkpt><trkpt lat="43.0461732" lon="11.4222844"><ele>400.0</ele><time>2026-04-26T09:04:30.181Z</time></trkpt><trkpt lat="43.0461301" lon="11.4221628"><ele>401.1666666666667</ele><time>2026-04-26T09:04:32.163Z</time></trkpt><trkpt lat="43.0461011" lon="11.4220636"><ele>402.33333333333337</ele><time>2026-04-26T09:04:34.179Z</time></trkpt><trkpt lat="43.0461196" lon="11.4219689"><ele>403.5</ele><time>2026-04-26T09:04:36.174Z</time></trkpt><trkpt lat="43.0461391" lon="11.4218449"><ele>404.66666666666663</ele><time>2026-04-26T09:04:38.186Z</time></trkpt><trkpt lat="43.0461668" lon="11.421679"><ele>405.8333333333333</ele><time>2026-04-26T09:04:40.178Z</time></trkpt><trkpt lat="43.0461918" lon="11.4215934"><ele>407.0</ele><time>2026-04-26T09:04:41.179Z</time></trkpt><trkpt lat="43.0462299" lon="11.421502"><ele>407.0</ele><time>2026-04-26T09:04:42.181Z</time></trkpt><trkpt lat="43.0462719" lon="11.4213984"><ele>407.0</ele><time>2026-04-26T09:04:43.165Z</time></trkpt><trkpt lat="43.0463114" lon="11.4212899"><ele>407.0</ele><time>2026-04-26T09:04:44.174Z</time></trkpt><trkpt lat="43.0463521" lon="11.4211638"><ele>407.0</ele><time>2026-04-26T09:04:45.183Z</time></trkpt><trkpt lat="43.046401" lon="11.421049"><ele>407.0</ele><time>2026-04-26T09:04:46.184Z</time></trkpt><trkpt lat="43.0464386" lon="11.4209394"><ele>406.00000000000006</ele><time>2026-04-26T09:04:47.174Z</time></trkpt><trkpt lat="43.0464667" lon="11.4208434"><ele>405.0</ele><time>2026-04-26T09:04:48.172Z</time></trkpt><trkpt lat="43.0464741" lon="11.4207542"><ele>404.0</ele><time>2026-04-26T09:04:49.179Z</time></trkpt><trkpt lat="43.0464678" lon="11.4206679"><ele>403.0</ele><time>2026-04-26T09:04:50.173Z</time></trkpt><trkpt lat="43.0464448" lon="11.4205754"><ele>402.0</ele><time>2026-04-26T09:04:51.179Z</time></trkpt><trkpt lat="43.0464279" lon="11.420476"><ele>401.00000000000006</ele><time>2026-04-26T09:04:52.162Z</time></trkpt><trkpt lat="43.0463856" lon="11.4203802"><ele>400.0</ele><time>2026-04-26T09:04:53.183Z</time></trkpt><trkpt lat="43.0463161" lon="11.4202654"><ele>398.2</ele><time>2026-04-26T09:04:54.172Z</time></trkpt><trkpt lat="43.0462466" lon="11.4201432"><ele>396.4</ele><time>2026-04-26T09:04:55.166Z</time></trkpt><trkpt lat="43.0461771" lon="11.4200202"><ele>394.6</ele><time>2026-04-26T09:04:56.182Z</time></trkpt><trkpt lat="43.0461127" lon="11.4198981"><ele>392.8</ele><time>2026-04-26T09:04:57.181Z</time></trkpt><trkpt lat="43.0460523" lon="11.4197805"><ele>391.0</ele><time>2026-04-26T09:04:58.184Z</time></trkpt><trkpt lat="43.0459969" lon="11.4196678"><ele>389.6</ele><time>2026-04-26T09:04:59.174Z</time></trkpt><trkpt lat="43.0459416" lon="11.4195587"><ele>388.20000000000005</ele><time>2026-04-26T09:05:00.177Z</time></trkpt><trkpt lat="43.0458905" lon="11.4194544"><ele>386.79999999999995</ele><time>2026-04-26T09:05:01.179Z</time></trkpt><trkpt lat="43.0458408" lon="11.4193524"><ele>385.4</ele><time>2026-04-26T09:05:02.171Z</time></trkpt><trkpt lat="43.0457867" lon="11.4192527"><ele>384.0</ele><time>2026-04-26T09:05:03.174Z</time></trkpt><trkpt lat="43.0457338" lon="11.419169"><ele>383.6</ele><time>2026-04-26T09:05:04.181Z</time></trkpt><trkpt lat="43.0456669" lon="11.4190953"><ele>383.2</ele><time>2026-04-26T09:05:05.171Z</time></trkpt><trkpt lat="43.0455936" lon="11.4190226"><ele>382.8</ele><time>2026-04-26T09:05:06.187Z</time></trkpt><trkpt lat="43.045513" lon="11.418953"><ele>382.40000000000003</ele><time>2026-04-26T09:05:07.17Z</time></trkpt><trkpt lat="43.0454279" lon="11.4188803"><ele>382.0</ele><time>2026-04-26T09:05:08.185Z</time></trkpt><trkpt lat="43.0453487" lon="11.4188078"><ele>381.6</ele><time>2026-04-26T09:05:09.177Z</time></trkpt><trkpt lat="43.045273" lon="11.4187298"><ele>381.20000000000005</ele><time>2026-04-26T09:05:10.182Z</time></trkpt><trkpt lat="43.0451997" lon="11.4186652"><ele>380.8</ele><time>2026-04-26T09:05:11.18Z</time></trkpt><trkpt lat="43.0451238" lon="11.4185985"><ele>380.4</ele><time>2026-04-26T09:05:12.182Z</time></trkpt><trkpt lat="43.0450523" lon="11.4185273"><ele>380.0</ele><time>2026-04-26T09:05:13.182Z</time></trkpt><trkpt lat="43.0449668" lon="11.4184322"><ele>378.6</ele><time>2026-04-26T09:05:14.175Z</time></trkpt><trkpt lat="43.044882" lon="11.4183332"><ele>377.2</ele><time>2026-04-26T09:05:15.172Z</time></trkpt><trkpt lat="43.0448033" lon="11.418241"><ele>375.79999999999995</ele><time>2026-04-26T09:05:16.175Z</time></trkpt><trkpt lat="43.0447267" lon="11.4181572"><ele>374.4</ele><time>2026-04-26T09:05:17.184Z</time></trkpt><trkpt lat="43.0446544" lon="11.418077"><ele>373.0</ele><time>2026-04-26T09:05:18.184Z</time></trkpt><trkpt lat="43.0445816" lon="11.4179981"><ele>373.0</ele><time>2026-04-26T09:05:19.192Z</time></trkpt><trkpt lat="43.0445068" lon="11.4179204"><ele>373.0</ele><time>2026-04-26T09:05:20.179Z</time></trkpt><trkpt lat="43.0444337" lon="11.4178412"><ele>373.0</ele><time>2026-04-26T09:05:21.173Z</time></trkpt><trkpt lat="43.0443607" lon="11.417762"><ele>373.0</ele><time>2026-04-26T09:05:22.18Z</time></trkpt><trkpt lat="43.0442864" lon="11.4176804"><ele>373.0</ele><time>2026-04-26T09:05:23.171Z</time></trkpt><trkpt lat="43.0442111" lon="11.4175966"><ele>373.0</ele><time>2026-04-26T09:05:24.183Z</time></trkpt><trkpt lat="43.0441406" lon="11.4175116"><ele>373.0</ele><time>2026-04-26T09:05:25.171Z</time></trkpt><trkpt lat="43.0440655" lon="11.4174249"><ele>373.0</ele><time>2026-04-26T09:05:26.189Z</time></trkpt><trkpt lat="43.043993" lon="11.4173354"><ele>373.0</ele><time>2026-04-26T09:05:27.182Z</time></trkpt><trkpt lat="43.0439233" lon="11.4172392"><ele>373.0</ele><time>2026-04-26T09:05:28.186Z</time></trkpt><trkpt lat="43.0438609" lon="11.4171397"><ele>372.0</ele><time>2026-04-26T09:05:29.172Z</time></trkpt><trkpt lat="43.0438022" lon="11.4170392"><ele>371.0</ele><time>2026-04-26T09:05:30.184Z</time></trkpt><trkpt lat="43.0437401" lon="11.4169412"><ele>370.0</ele><time>2026-04-26T09:05:31.178Z</time></trkpt><trkpt lat="43.0436764" lon="11.4168416"><ele>369.0</ele><time>2026-04-26T09:05:32.178Z</time></trkpt><trkpt lat="43.0436138" lon="11.4167432"><ele>368.0</ele><time>2026-04-26T09:05:33.171Z</time></trkpt><trkpt lat="43.0435583" lon="11.4166414"><ele>368.0</ele><time>2026-04-26T09:05:34.182Z</time></trkpt><trkpt lat="43.0435022" lon="11.4165397"><ele>368.0</ele><time>2026-04-26T09:05:35.181Z</time></trkpt><trkpt lat="43.0434445" lon="11.4164404"><ele>368.0</ele><time>2026-04-26T09:05:36.183Z</time></trkpt><trkpt lat="43.0433913" lon="11.416344"><ele>368.0</ele><time>2026-04-26T09:05:37.185Z</time></trkpt><trkpt lat="43.0433349" lon="11.41625"><ele>368.0</ele><time>2026-04-26T09:05:38.164Z</time></trkpt><trkpt lat="43.0432779" lon="11.4161576"><ele>366.59999999999997</ele><time>2026-04-26T09:05:39.185Z</time></trkpt><trkpt lat="43.0432203" lon="11.4160611"><ele>365.2</ele><time>2026-04-26T09:05:40.171Z</time></trkpt><trkpt lat="43.0431645" lon="11.4159612"><ele>363.8</ele><time>2026-04-26T09:05:41.183Z</time></trkpt><trkpt lat="43.0431069" lon="11.4158555"><ele>362.4</ele><time>2026-04-26T09:05:42.188Z</time></trkpt><trkpt lat="43.0430492" lon="11.4157437"><ele>361.0</ele><time>2026-04-26T09:05:43.167Z</time></trkpt><trkpt lat="43.0429936" lon="11.4156242"><ele>361.0</ele><time>2026-04-26T09:05:44.18Z</time></trkpt><trkpt lat="43.0429406" lon="11.4155016"><ele>361.0</ele><time>2026-04-26T09:05:45.187Z</time></trkpt><trkpt lat="43.0428889" lon="11.4153839"><ele>361.0</ele><time>2026-04-26T09:05:46.175Z</time></trkpt><trkpt lat="43.042836" lon="11.4152693"><ele>361.0</ele><time>2026-04-26T09:05:47.171Z</time></trkpt><trkpt lat="43.0427787" lon="11.4151556"><ele>361.0</ele><time>2026-04-26T09:05:48.181Z</time></trkpt><trkpt lat="43.0427165" lon="11.4150507"><ele>360.8</ele><time>2026-04-26T09:05:49.187Z</time></trkpt><trkpt lat="43.0426525" lon="11.414954"><ele>360.6</ele><time>2026-04-26T09:05:50.18Z</time></trkpt><trkpt lat="43.0425849" lon="11.414863"><ele>360.4</ele><time>2026-04-26T09:05:51.167Z</time></trkpt><trkpt lat="43.0425132" lon="11.4147772"><ele>360.2</ele><time>2026-04-26T09:05:52.187Z</time></trkpt><trkpt lat="43.0424402" lon="11.4146902"><ele>360.0</ele><time>2026-04-26T09:05:53.167Z</time></trkpt><trkpt lat="43.0423668" lon="11.4146006"><ele>358.2</ele><time>2026-04-26T09:05:54.192Z</time></trkpt><trkpt lat="43.0422941" lon="11.4145129"><ele>356.4</ele><time>2026-04-26T09:05:55.184Z</time></trkpt><trkpt lat="43.0422241" lon="11.4144274"><ele>354.6</ele><time>2026-04-26T09:05:56.174Z</time></trkpt><trkpt lat="43.0421583" lon="11.414339"><ele>352.8</ele><time>2026-04-26T09:05:57.167Z</time></trkpt><trkpt lat="43.0421012" lon="11.4142419"><ele>351.0</ele><time>2026-04-26T09:05:58.166Z</time></trkpt><trkpt lat="43.0420532" lon="11.4141354"><ele>351.0</ele><time>2026-04-26T09:05:59.164Z</time></trkpt><trkpt lat="43.0420109" lon="11.4140197"><ele>351.0</ele><time>2026-04-26T09:06:00.177Z</time></trkpt><trkpt lat="43.0419711" lon="11.4139006"><ele>351.0</ele><time>2026-04-26T09:06:01.179Z</time></trkpt><trkpt lat="43.0419315" lon="11.4137822"><ele>351.0</ele><time>2026-04-26T09:06:02.172Z</time></trkpt><trkpt lat="43.0418936" lon="11.4136643"><ele>351.0</ele><time>2026-04-26T09:06:03.17Z</time></trkpt><trkpt lat="43.0418571" lon="11.4135484"><ele>349.8</ele><time>2026-04-26T09:06:04.179Z</time></trkpt><trkpt lat="43.0418164" lon="11.4134297"><ele>348.6</ele><time>2026-04-26T09:06:05.178Z</time></trkpt><trkpt lat="43.0417737" lon="11.4133085"><ele>347.4</ele><time>2026-04-26T09:06:06.174Z</time></trkpt><trkpt lat="43.0417325" lon="11.4131841"><ele>346.2</ele><time>2026-04-26T09:06:07.187Z</time></trkpt><trkpt lat="43.0416932" lon="11.4130603"><ele>345.0</ele><time>2026-04-26T09:06:08.181Z</time></trkpt><trkpt lat="43.0416568" lon="11.4129392"><ele>342.2</ele><time>2026-04-26T09:06:09.177Z</time></trkpt><trkpt lat="43.0416233" lon="11.4128203"><ele>339.4</ele><time>2026-04-26T09:06:10.179Z</time></trkpt><trkpt lat="43.0415926" lon="11.4126988"><ele>336.6</ele><time>2026-04-26T09:06:11.175Z</time></trkpt><trkpt lat="43.0415616" lon="11.4125746"><ele>333.8</ele><time>2026-04-26T09:06:12.186Z</time></trkpt><trkpt lat="43.0415449" lon="11.4124388"><ele>331.0</ele><time>2026-04-26T09:06:13.179Z</time></trkpt><trkpt lat="43.0415338" lon="11.4122994"><ele>329.6</ele><time>2026-04-26T09:06:14.17Z</time></trkpt><trkpt lat="43.0415286" lon="11.4121553"><ele>328.20000000000005</ele><time>2026-04-26T09:06:15.167Z</time></trkpt><trkpt lat="43.0415259" lon="11.4120133"><ele>326.79999999999995</ele><time>2026-04-26T09:06:16.163Z</time></trkpt><trkpt lat="43.0415253" lon="11.4118747"><ele>325.4</ele><time>2026-04-26T09:06:17.188Z</time></trkpt><trkpt lat="43.0415289" lon="11.4117422"><ele>324.0</ele><time>2026-04-26T09:06:18.171Z</time></trkpt><trkpt lat="43.0415312" lon="11.4116108"><ele>324.0</ele><time>2026-04-26T09:06:19.188Z</time></trkpt><trkpt lat="43.041533" lon="11.4114785"><ele>324.0</ele><time>2026-04-26T09:06:20.185Z</time></trkpt><trkpt lat="43.041542" lon="11.4113484"><ele>324.0</ele><time>2026-04-26T09:06:21.164Z</time></trkpt><trkpt lat="43.0415479" lon="11.4112193"><ele>324.0</ele><time>2026-04-26T09:06:22.177Z</time></trkpt><trkpt lat="43.0415611" lon="11.4110909"><ele>324.0</ele><time>2026-04-26T09:06:23.178Z</time></trkpt><trkpt lat="43.0415741" lon="11.4109581"><ele>323.6</ele><time>2026-04-26T09:06:24.185Z</time></trkpt><trkpt lat="43.0415885" lon="11.4108244"><ele>323.2</ele><time>2026-04-26T09:06:25.18Z</time></trkpt><trkpt lat="43.0416063" lon="11.4106901"><ele>322.8</ele><time>2026-04-26T09:06:26.188Z</time></trkpt><trkpt lat="43.0416226" lon="11.4105524"><ele>322.40000000000003</ele><time>2026-04-26T09:06:27.174Z</time></trkpt><trkpt lat="43.041638" lon="11.4104099"><ele>322.0</ele><time>2026-04-26T09:06:28.177Z</time></trkpt><trkpt lat="43.0416536" lon="11.4102699"><ele>321.8</ele><time>2026-04-26T09:06:29.163Z</time></trkpt><trkpt lat="43.0416693" lon="11.4101323"><ele>321.6</ele><time>2026-04-26T09:06:30.173Z</time></trkpt><trkpt lat="43.0416852" lon="11.409995"><ele>321.40000000000003</ele><time>2026-04-26T09:06:31.181Z</time></trkpt><trkpt lat="43.0417011" lon="11.4098518"><ele>321.20000000000005</ele><time>2026-04-26T09:06:32.186Z</time></trkpt><trkpt lat="43.0417136" lon="11.4097041"><ele>321.0</ele><time>2026-04-26T09:06:33.17Z</time></trkpt><trkpt lat="43.0417237" lon="11.4095584"><ele>319.40000000000003</ele><time>2026-04-26T09:06:34.182Z</time></trkpt><trkpt lat="43.0417318" lon="11.4094123"><ele>317.8</ele><time>2026-04-26T09:06:35.167Z</time></trkpt><trkpt lat="43.0417359" lon="11.4092663"><ele>316.20000000000005</ele><time>2026-04-26T09:06:36.182Z</time></trkpt><trkpt lat="43.0417395" lon="11.4091198"><ele>314.6</ele><time>2026-04-26T09:06:37.173Z</time></trkpt><trkpt lat="43.0417425" lon="11.4089781"><ele>313.0</ele><time>2026-04-26T09:06:38.176Z</time></trkpt><trkpt lat="43.0417451" lon="11.4088377"><ele>311.4</ele><time>2026-04-26T09:06:39.179Z</time></trkpt><trkpt lat="43.0417486" lon="11.4087012"><ele>309.8</ele><time>2026-04-26T09:06:40.173Z</time></trkpt><trkpt lat="43.0417547" lon="11.4085712"><ele>308.2</ele><time>2026-04-26T09:06:41.191Z</time></trkpt><trkpt lat="43.0417611" lon="11.4084473"><ele>306.6</ele><time>2026-04-26T09:06:42.185Z</time></trkpt><trkpt lat="43.0417661" lon="11.4083271"><ele>305.0</ele><time>2026-04-26T09:06:43.185Z</time></trkpt><trkpt lat="43.0417721" lon="11.4082118"><ele>305.0</ele><time>2026-04-26T09:06:44.172Z</time></trkpt><trkpt lat="43.0417778" lon="11.4081015"><ele>305.0</ele><time>2026-04-26T09:06:45.184Z</time></trkpt><trkpt lat="43.0417761" lon="11.4079943"><ele>305.0</ele><time>2026-04-26T09:06:46.188Z</time></trkpt><trkpt lat="43.041758" lon="11.407895"><ele>305.0</ele><time>2026-04-26T09:06:47.178Z</time></trkpt><trkpt lat="43.0417192" lon="11.4078093"><ele>305.0</ele><time>2026-04-26T09:06:48.181Z</time></trkpt><trkpt lat="43.0416593" lon="11.4077407"><ele>305.0</ele><time>2026-04-26T09:06:49.175Z</time></trkpt><trkpt lat="43.0415819" lon="11.4076936"><ele>303.2</ele><time>2026-04-26T09:06:50.172Z</time></trkpt><trkpt lat="43.0414928" lon="11.4076722"><ele>301.4</ele><time>2026-04-26T09:06:51.187Z</time></trkpt><trkpt lat="43.0413898" lon="11.4076654"><ele>299.6</ele><time>2026-04-26T09:06:52.182Z</time></trkpt><trkpt lat="43.0412812" lon="11.4076516"><ele>297.8</ele><time>2026-04-26T09:06:53.189Z</time></trkpt><trkpt lat="43.0411738" lon="11.4076365"><ele>296.0</ele><time>2026-04-26T09:06:54.17Z</time></trkpt><trkpt lat="43.0410703" lon="11.4076093"><ele>296.0</ele><time>2026-04-26T09:06:55.18Z</time></trkpt><trkpt lat="43.0409672" lon="11.4075832"><ele>296.0</ele><time>2026-04-26T09:06:56.186Z</time></trkpt><trkpt lat="43.0408672" lon="11.407558"><ele>296.0</ele><time>2026-04-26T09:06:57.182Z</time></trkpt><trkpt lat="43.0407732" lon="11.4075445"><ele>296.0</ele><time>2026-04-26T09:06:58.184Z</time></trkpt><trkpt lat="43.0406892" lon="11.4075422"><ele>296.0</ele><time>2026-04-26T09:06:59.174Z</time></trkpt><trkpt lat="43.0406097" lon="11.4075483"><ele>295.1666666666667</ele><time>2026-04-26T09:07:00.173Z</time></trkpt><trkpt lat="43.0405364" lon="11.4075632"><ele>294.33333333333337</ele><time>2026-04-26T09:07:01.185Z</time></trkpt><trkpt lat="43.0404677" lon="11.4075903"><ele>293.5</ele><time>2026-04-26T09:07:02.173Z</time></trkpt><trkpt lat="43.0404023" lon="11.4076288"><ele>292.6666666666667</ele><time>2026-04-26T09:07:03.181Z</time></trkpt><trkpt lat="43.0403359" lon="11.4076762"><ele>291.8333333333333</ele><time>2026-04-26T09:07:04.179Z</time></trkpt><trkpt lat="43.0402674" lon="11.4077322"><ele>291.0</ele><time>2026-04-26T09:07:05.181Z</time></trkpt><trkpt lat="43.040194" lon="11.4077936"><ele>291.0</ele><time>2026-04-26T09:07:06.167Z</time></trkpt><trkpt lat="43.0401205" lon="11.4078535"><ele>291.0</ele><time>2026-04-26T09:07:07.187Z</time></trkpt><trkpt lat="43.0400459" lon="11.4079087"><ele>291.0</ele><time>2026-04-26T09:07:08.179Z</time></trkpt><trkpt lat="43.0399725" lon="11.4079586"><ele>291.0</ele><time>2026-04-26T09:07:09.186Z</time></trkpt><trkpt lat="43.0398927" lon="11.4080017"><ele>291.0</ele><time>2026-04-26T09:07:10.17Z</time></trkpt><trkpt lat="43.0398132" lon="11.408034"><ele>291.0</ele><time>2026-04-26T09:07:11.185Z</time></trkpt><trkpt lat="43.0397385" lon="11.4080625"><ele>290.6666666666667</ele><time>2026-04-26T09:07:12.183Z</time></trkpt><trkpt lat="43.039664" lon="11.4080871"><ele>290.3333333333333</ele><time>2026-04-26T09:07:13.187Z</time></trkpt><trkpt lat="43.0395865" lon="11.4081036"><ele>290.0</ele><time>2026-04-26T09:07:14.179Z</time></trkpt><trkpt lat="43.0395113" lon="11.4081185"><ele>289.66666666666663</ele><time>2026-04-26T09:07:15.167Z</time></trkpt><trkpt lat="43.0394364" lon="11.4081362"><ele>289.3333333333333</ele><time>2026-04-26T09:07:16.166Z</time></trkpt><trkpt lat="43.0393605" lon="11.4081482"><ele>289.0</ele><time>2026-04-26T09:07:17.18Z</time></trkpt><trkpt lat="43.0392862" lon="11.4081658"><ele>289.0</ele><time>2026-04-26T09:07:18.18Z</time></trkpt><trkpt lat="43.0392145" lon="11.4081839"><ele>289.0</ele><time>2026-04-26T09:07:19.177Z</time></trkpt><trkpt lat="43.0391401" lon="11.4082101"><ele>289.0</ele><time>2026-04-26T09:07:20.187Z</time></trkpt><trkpt lat="43.0390633" lon="11.4082369"><ele>289.0</ele><time>2026-04-26T09:07:21.175Z</time></trkpt><trkpt lat="43.0389858" lon="11.4082657"><ele>289.0</ele><time>2026-04-26T09:07:22.179Z</time></trkpt><trkpt lat="43.0389075" lon="11.4082981"><ele>289.0</ele><time>2026-04-26T09:07:23.168Z</time></trkpt><trkpt lat="43.0388317" lon="11.4083394"><ele>287.66666666666663</ele><time>2026-04-26T09:07:24.174Z</time></trkpt><trkpt lat="43.0387554" lon="11.4083833"><ele>286.3333333333333</ele><time>2026-04-26T09:07:25.168Z</time></trkpt><trkpt lat="43.038675" lon="11.4084279"><ele>285.0</ele><time>2026-04-26T09:07:26.169Z</time></trkpt><trkpt lat="43.0385933" lon="11.408476"><ele>283.6666666666667</ele><time>2026-04-26T09:07:27.184Z</time></trkpt><trkpt lat="43.0385117" lon="11.4085237"><ele>282.33333333333337</ele><time>2026-04-26T09:07:28.192Z</time></trkpt><trkpt lat="43.0384277" lon="11.4085772"><ele>281.0</ele><time>2026-04-26T09:07:29.173Z</time></trkpt><trkpt lat="43.0383453" lon="11.4086295"><ele>280.2</ele><time>2026-04-26T09:07:30.188Z</time></trkpt><trkpt lat="43.0382633" lon="11.408693"><ele>279.40000000000003</ele><time>2026-04-26T09:07:31.18Z</time></trkpt><trkpt lat="43.0381869" lon="11.4087726"><ele>278.6</ele><time>2026-04-26T09:07:32.165Z</time></trkpt><trkpt lat="43.0381168" lon="11.4088618"><ele>277.8</ele><time>2026-04-26T09:07:33.17Z</time></trkpt><trkpt lat="43.0380504" lon="11.4089564"><ele>277.0</ele><time>2026-04-26T09:07:34.193Z</time></trkpt><trkpt lat="43.0379839" lon="11.4090516"><ele>277.0</ele><time>2026-04-26T09:07:35.191Z</time></trkpt><trkpt lat="43.0379192" lon="11.4091455"><ele>277.0</ele><time>2026-04-26T09:07:36.179Z</time></trkpt><trkpt lat="43.0378592" lon="11.4092349"><ele>277.0</ele><time>2026-04-26T09:07:37.195Z</time></trkpt><trkpt lat="43.0378052" lon="11.4093141"><ele>277.0</ele><time>2026-04-26T09:07:38.184Z</time></trkpt><trkpt lat="43.0377516" lon="11.4093792"><ele>277.0</ele><time>2026-04-26T09:07:39.172Z</time></trkpt><trkpt lat="43.0376948" lon="11.4094303"><ele>277.0</ele><time>2026-04-26T09:07:40.182Z</time></trkpt><trkpt lat="43.037633" lon="11.4094643"><ele>277.0</ele><time>2026-04-26T09:07:41.188Z</time></trkpt><trkpt lat="43.0375666" lon="11.4094688"><ele>277.0</ele><time>2026-04-26T09:07:42.176Z</time></trkpt><trkpt lat="43.0374954" lon="11.4094368"><ele>277.0</ele><time>2026-04-26T09:07:43.181Z</time></trkpt><trkpt lat="43.0374264" lon="11.4093712"><ele>277.0</ele><time>2026-04-26T09:07:44.183Z</time></trkpt><trkpt lat="43.037358" lon="11.4092787"><ele>277.0</ele><time>2026-04-26T09:07:45.189Z</time></trkpt><trkpt lat="43.0372881" lon="11.4091694"><ele>277.0</ele><time>2026-04-26T09:07:46.174Z</time></trkpt><trkpt lat="43.0372165" lon="11.4090603"><ele>276.6</ele><time>2026-04-26T09:07:47.187Z</time></trkpt><trkpt lat="43.0371463" lon="11.4089578"><ele>276.2</ele><time>2026-04-26T09:07:48.172Z</time></trkpt><trkpt lat="43.0370827" lon="11.408857"><ele>275.8</ele><time>2026-04-26T09:07:49.166Z</time></trkpt><trkpt lat="43.0370228" lon="11.4087612"><ele>275.4</ele><time>2026-04-26T09:07:50.178Z</time></trkpt><trkpt lat="43.0369653" lon="11.4086668"><ele>275.0</ele><time>2026-04-26T09:07:51.184Z</time></trkpt><trkpt lat="43.036908" lon="11.4085627"><ele>274.0</ele><time>2026-04-26T09:07:52.18Z</time></trkpt><trkpt lat="43.036846" lon="11.4084605"><ele>273.0</ele><time>2026-04-26T09:07:53.183Z</time></trkpt><trkpt lat="43.036785" lon="11.4083666"><ele>272.0</ele><time>2026-04-26T09:07:54.173Z</time></trkpt><trkpt lat="43.0367315" lon="11.4082931"><ele>271.0</ele><time>2026-04-26T09:07:55.181Z</time></trkpt><trkpt lat="43.0366773" lon="11.4082487"><ele>270.0</ele><time>2026-04-26T09:07:56.175Z</time></trkpt><trkpt lat="43.0365545" lon="11.4082571"><ele>269.4</ele><time>2026-04-26T09:07:58.169Z</time></trkpt><trkpt lat="43.0364907" lon="11.4083063"><ele>268.8</ele><time>2026-04-26T09:07:59.17Z</time></trkpt><trkpt lat="43.0364234" lon="11.4083816"><ele>268.2</ele><time>2026-04-26T09:08:00.183Z</time></trkpt><trkpt lat="43.0363524" lon="11.4084833"><ele>267.6</ele><time>2026-04-26T09:08:01.172Z</time></trkpt><trkpt lat="43.0362767" lon="11.4086042"><ele>267.0</ele><time>2026-04-26T09:08:02.18Z</time></trkpt><trkpt lat="43.0362032" lon="11.4087218"><ele>268.0</ele><time>2026-04-26T09:08:03.182Z</time></trkpt><trkpt lat="43.0361323" lon="11.4088341"><ele>269.0</ele><time>2026-04-26T09:08:04.184Z</time></trkpt><trkpt lat="43.0360621" lon="11.4089462"><ele>270.0</ele><time>2026-04-26T09:08:05.164Z</time></trkpt><trkpt lat="43.0359888" lon="11.4090532"><ele>271.0</ele><time>2026-04-26T09:08:06.182Z</time></trkpt><trkpt lat="43.0359157" lon="11.4091534"><ele>272.0</ele><time>2026-04-26T09:08:07.172Z</time></trkpt><trkpt lat="43.0358444" lon="11.4092523"><ele>271.6</ele><time>2026-04-26T09:08:08.185Z</time></trkpt><trkpt lat="43.0357729" lon="11.4093498"><ele>271.2</ele><time>2026-04-26T09:08:09.18Z</time></trkpt><trkpt lat="43.0356976" lon="11.4094455"><ele>270.8</ele><time>2026-04-26T09:08:10.187Z</time></trkpt><trkpt lat="43.035619" lon="11.4095382"><ele>270.4</ele><time>2026-04-26T09:08:11.187Z</time></trkpt><trkpt lat="43.0355379" lon="11.409625"><ele>270.0</ele><time>2026-04-26T09:08:12.186Z</time></trkpt><trkpt lat="43.035452" lon="11.4097044"><ele>271.4</ele><time>2026-04-26T09:08:13.182Z</time></trkpt><trkpt lat="43.0353617" lon="11.4097759"><ele>272.8</ele><time>2026-04-26T09:08:14.18Z</time></trkpt><trkpt lat="43.0352709" lon="11.4098459"><ele>274.2</ele><time>2026-04-26T09:08:15.177Z</time></trkpt><trkpt lat="43.0351792" lon="11.4099158"><ele>275.6</ele><time>2026-04-26T09:08:16.186Z</time></trkpt><trkpt lat="43.0350852" lon="11.4099816"><ele>277.0</ele><time>2026-04-26T09:08:17.17Z</time></trkpt><trkpt lat="43.0349945" lon="11.4100464"><ele>276.4</ele><time>2026-04-26T09:08:18.179Z</time></trkpt><trkpt lat="43.0349054" lon="11.4101068"><ele>275.79999999999995</ele><time>2026-04-26T09:08:19.173Z</time></trkpt><trkpt lat="43.0348197" lon="11.410163"><ele>275.2</ele><time>2026-04-26T09:08:20.185Z</time></trkpt><trkpt lat="43.0347355" lon="11.410217"><ele>274.59999999999997</ele><time>2026-04-26T09:08:21.186Z</time></trkpt><trkpt lat="43.0346516" lon="11.410261"><ele>274.0</ele><time>2026-04-26T09:08:22.191Z</time></trkpt><trkpt lat="43.0345668" lon="11.4102984"><ele>274.0</ele><time>2026-04-26T09:08:23.191Z</time></trkpt><trkpt lat="43.0344785" lon="11.4103339"><ele>274.0</ele><time>2026-04-26T09:08:24.185Z</time></trkpt><trkpt lat="43.0343873" lon="11.4103688"><ele>274.0</ele><time>2026-04-26T09:08:25.179Z</time></trkpt><trkpt lat="43.0342938" lon="11.4103973"><ele>274.0</ele><time>2026-04-26T09:08:26.18Z</time></trkpt><trkpt lat="43.0341966" lon="11.410417"><ele>274.0</ele><time>2026-04-26T09:08:27.188Z</time></trkpt><trkpt lat="43.0341028" lon="11.4104445"><ele>273.8</ele><time>2026-04-26T09:08:28.182Z</time></trkpt><trkpt lat="43.0340021" lon="11.4104547"><ele>273.59999999999997</ele><time>2026-04-26T09:08:29.181Z</time></trkpt><trkpt lat="43.0338974" lon="11.41046"><ele>273.4</ele><time>2026-04-26T09:08:30.188Z</time></trkpt><trkpt lat="43.0337936" lon="11.4104749"><ele>273.2</ele><time>2026-04-26T09:08:31.182Z</time></trkpt><trkpt lat="43.0336913" lon="11.4104832"><ele>273.0</ele><time>2026-04-26T09:08:32.178Z</time></trkpt><trkpt lat="43.0335896" lon="11.4105078"><ele>273.0</ele><time>2026-04-26T09:08:33.191Z</time></trkpt><trkpt lat="43.0334865" lon="11.4105332"><ele>273.0</ele><time>2026-04-26T09:08:34.184Z</time></trkpt><trkpt lat="43.0333838" lon="11.4105562"><ele>273.0</ele><time>2026-04-26T09:08:35.183Z</time></trkpt><trkpt lat="43.0332786" lon="11.4105753"><ele>273.0</ele><time>2026-04-26T09:08:36.182Z</time></trkpt><trkpt lat="43.0331701" lon="11.4105898"><ele>273.0</ele><time>2026-04-26T09:08:37.169Z</time></trkpt><trkpt lat="43.0330587" lon="11.4106054"><ele>271.0</ele><time>2026-04-26T09:08:38.185Z</time></trkpt><trkpt lat="43.0329454" lon="11.4106231"><ele>269.0</ele><time>2026-04-26T09:08:39.171Z</time></trkpt><trkpt lat="43.0328362" lon="11.4106436"><ele>267.0</ele><time>2026-04-26T09:08:40.182Z</time></trkpt><trkpt lat="43.0327266" lon="11.410663"><ele>265.0</ele><time>2026-04-26T09:08:41.167Z</time></trkpt><trkpt lat="43.0326232" lon="11.4106858"><ele>263.0</ele><time>2026-04-26T09:08:42.18Z</time></trkpt><trkpt lat="43.0325272" lon="11.4107048"><ele>261.1666666666667</ele><time>2026-04-26T09:08:43.172Z</time></trkpt><trkpt lat="43.032439" lon="11.4107267"><ele>259.33333333333337</ele><time>2026-04-26T09:08:44.178Z</time></trkpt><trkpt lat="43.0323507" lon="11.4107522"><ele>257.5</ele><time>2026-04-26T09:08:45.186Z</time></trkpt><trkpt lat="43.0322678" lon="11.4107843"><ele>255.66666666666669</ele><time>2026-04-26T09:08:46.182Z</time></trkpt><trkpt lat="43.0321854" lon="11.4108244"><ele>253.83333333333334</ele><time>2026-04-26T09:08:47.166Z</time></trkpt><trkpt lat="43.0321001" lon="11.4108642"><ele>252.0</ele><time>2026-04-26T09:08:48.172Z</time></trkpt><trkpt lat="43.0320127" lon="11.4109056"><ele>252.0</ele><time>2026-04-26T09:08:49.187Z</time></trkpt><trkpt lat="43.0319256" lon="11.4109447"><ele>252.0</ele><time>2026-04-26T09:08:50.18Z</time></trkpt><trkpt lat="43.0318382" lon="11.4109796"><ele>252.0</ele><time>2026-04-26T09:08:51.195Z</time></trkpt><trkpt lat="43.0317482" lon="11.4110182"><ele>252.0</ele><time>2026-04-26T09:08:52.168Z</time></trkpt><trkpt lat="43.0316584" lon="11.4110576"><ele>252.0</ele><time>2026-04-26T09:08:53.187Z</time></trkpt><trkpt lat="43.0315638" lon="11.4110961"><ele>250.2</ele><time>2026-04-26T09:08:54.185Z</time></trkpt><trkpt lat="43.0314672" lon="11.4111364"><ele>248.39999999999998</ele><time>2026-04-26T09:08:55.177Z</time></trkpt><trkpt lat="43.0313672" lon="11.4111775"><ele>246.60000000000002</ele><time>2026-04-26T09:08:56.188Z</time></trkpt><trkpt lat="43.0312637" lon="11.411217"><ele>244.8</ele><time>2026-04-26T09:08:57.183Z</time></trkpt><trkpt lat="43.0311611" lon="11.4112564"><ele>243.0</ele><time>2026-04-26T09:08:58.175Z</time></trkpt><trkpt lat="43.0310623" lon="11.4112951"><ele>242.2</ele><time>2026-04-26T09:08:59.181Z</time></trkpt><trkpt lat="43.0309655" lon="11.411333"><ele>241.4</ele><time>2026-04-26T09:09:00.189Z</time></trkpt><trkpt lat="43.0308708" lon="11.4113707"><ele>240.59999999999997</ele><time>2026-04-26T09:09:01.168Z</time></trkpt><trkpt lat="43.03078" lon="11.4114139"><ele>239.79999999999998</ele><time>2026-04-26T09:09:02.169Z</time></trkpt><trkpt lat="43.0306916" lon="11.4114687"><ele>239.0</ele><time>2026-04-26T09:09:03.162Z</time></trkpt><trkpt lat="43.0306055" lon="11.4115365"><ele>239.0</ele><time>2026-04-26T09:09:04.18Z</time></trkpt><trkpt lat="43.0305217" lon="11.4116146"><ele>238.99999999999997</ele><time>2026-04-26T09:09:05.173Z</time></trkpt><trkpt lat="43.0304428" lon="11.4117005"><ele>238.99999999999997</ele><time>2026-04-26T09:09:06.167Z</time></trkpt><trkpt lat="43.0303665" lon="11.4117892"><ele>239.0</ele><time>2026-04-26T09:09:07.181Z</time></trkpt><trkpt lat="43.0302905" lon="11.4118766"><ele>239.0</ele><time>2026-04-26T09:09:08.178Z</time></trkpt><trkpt lat="43.0302168" lon="11.4119674"><ele>239.0</ele><time>2026-04-26T09:09:09.193Z</time></trkpt><trkpt lat="43.0301454" lon="11.4120626"><ele>238.99999999999997</ele><time>2026-04-26T09:09:10.183Z</time></trkpt><trkpt lat="43.0300765" lon="11.4121694"><ele>238.99999999999997</ele><time>2026-04-26T09:09:11.173Z</time></trkpt><trkpt lat="43.0300109" lon="11.412286"><ele>239.0</ele><time>2026-04-26T09:09:12.178Z</time></trkpt><trkpt lat="43.0299458" lon="11.4124085"><ele>239.0</ele><time>2026-04-26T09:09:13.164Z</time></trkpt><trkpt lat="43.0298797" lon="11.4125278"><ele>239.2</ele><time>2026-04-26T09:09:14.178Z</time></trkpt><trkpt lat="43.0298201" lon="11.4126476"><ele>239.39999999999998</ele><time>2026-04-26T09:09:15.167Z</time></trkpt><trkpt lat="43.0297625" lon="11.4127631"><ele>239.6</ele><time>2026-04-26T09:09:16.181Z</time></trkpt><trkpt lat="43.0297024" lon="11.4128704"><ele>239.8</ele><time>2026-04-26T09:09:17.171Z</time></trkpt><trkpt lat="43.0296439" lon="11.4129761"><ele>240.0</ele><time>2026-04-26T09:09:18.182Z</time></trkpt><trkpt lat="43.0295874" lon="11.4130815"><ele>240.0</ele><time>2026-04-26T09:09:19.181Z</time></trkpt><trkpt lat="43.0295275" lon="11.4131869"><ele>240.0</ele><time>2026-04-26T09:09:20.181Z</time></trkpt><trkpt lat="43.0294653" lon="11.4132915"><ele>240.0</ele><time>2026-04-26T09:09:21.167Z</time></trkpt><trkpt lat="43.0294021" lon="11.4134022"><ele>240.0</ele><time>2026-04-26T09:09:22.182Z</time></trkpt><trkpt lat="43.0293355" lon="11.4135129"><ele>240.0</ele><time>2026-04-26T09:09:23.176Z</time></trkpt><trkpt lat="43.0292661" lon="11.4136218"><ele>240.0</ele><time>2026-04-26T09:09:24.183Z</time></trkpt><trkpt lat="43.0291975" lon="11.4137329"><ele>240.0</ele><time>2026-04-26T09:09:25.164Z</time></trkpt><trkpt lat="43.0291294" lon="11.4138462"><ele>240.0</ele><time>2026-04-26T09:09:26.183Z</time></trkpt><trkpt lat="43.0290616" lon="11.4139602"><ele>240.0</ele><time>2026-04-26T09:09:27.189Z</time></trkpt><trkpt lat="43.0289884" lon="11.4140783"><ele>240.0</ele><time>2026-04-26T09:09:28.168Z</time></trkpt><trkpt lat="43.0289163" lon="11.4141989"><ele>239.25</ele><time>2026-04-26T09:09:29.181Z</time></trkpt><trkpt lat="43.0288416" lon="11.4143218"><ele>238.5</ele><time>2026-04-26T09:09:30.181Z</time></trkpt><trkpt lat="43.0287589" lon="11.4144486"><ele>237.75</ele><time>2026-04-26T09:09:31.177Z</time></trkpt><trkpt lat="43.0286802" lon="11.414579"><ele>237.0</ele><time>2026-04-26T09:09:32.172Z</time></trkpt><trkpt lat="43.0286018" lon="11.4147098"><ele>237.5</ele><time>2026-04-26T09:09:33.181Z</time></trkpt><trkpt lat="43.0285219" lon="11.4148381"><ele>238.0</ele><time>2026-04-26T09:09:34.168Z</time></trkpt><trkpt lat="43.0284436" lon="11.4149599"><ele>238.5</ele><time>2026-04-26T09:09:35.162Z</time></trkpt><trkpt lat="43.0283692" lon="11.4150765"><ele>239.0</ele><time>2026-04-26T09:09:36.183Z</time></trkpt><trkpt lat="43.0283006" lon="11.4151894"><ele>239.0</ele><time>2026-04-26T09:09:37.177Z</time></trkpt><trkpt lat="43.0282312" lon="11.4152975"><ele>238.99999999999997</ele><time>2026-04-26T09:09:38.191Z</time></trkpt><trkpt lat="43.0281643" lon="11.415404"><ele>238.99999999999997</ele><time>2026-04-26T09:09:39.181Z</time></trkpt><trkpt lat="43.0280983" lon="11.4155112"><ele>239.0</ele><time>2026-04-26T09:09:40.182Z</time></trkpt><trkpt lat="43.0280319" lon="11.4156173"><ele>239.0</ele><time>2026-04-26T09:09:41.188Z</time></trkpt><trkpt lat="43.0279671" lon="11.4157257"><ele>240.2</ele><time>2026-04-26T09:09:42.168Z</time></trkpt><trkpt lat="43.0279039" lon="11.4158371"><ele>241.39999999999998</ele><time>2026-04-26T09:09:43.18Z</time></trkpt><trkpt lat="43.0278369" lon="11.4159528"><ele>242.6</ele><time>2026-04-26T09:09:44.173Z</time></trkpt><trkpt lat="43.027771" lon="11.4160699"><ele>243.8</ele><time>2026-04-26T09:09:45.184Z</time></trkpt><trkpt lat="43.0277039" lon="11.4161892"><ele>245.0</ele><time>2026-04-26T09:09:46.177Z</time></trkpt><trkpt lat="43.0276345" lon="11.416312"><ele>246.25</ele><time>2026-04-26T09:09:47.187Z</time></trkpt><trkpt lat="43.0275627" lon="11.4164378"><ele>247.5</ele><time>2026-04-26T09:09:48.182Z</time></trkpt><trkpt lat="43.0274904" lon="11.416566"><ele>248.75</ele><time>2026-04-26T09:09:49.166Z</time></trkpt><trkpt lat="43.0274171" lon="11.4166952"><ele>250.0</ele><time>2026-04-26T09:09:50.179Z</time></trkpt><trkpt lat="43.0273452" lon="11.4168255"><ele>248.75</ele><time>2026-04-26T09:09:51.181Z</time></trkpt><trkpt lat="43.0272722" lon="11.416954"><ele>247.5</ele><time>2026-04-26T09:09:52.186Z</time></trkpt><trkpt lat="43.0271968" lon="11.4170799"><ele>246.25</ele><time>2026-04-26T09:09:53.183Z</time></trkpt><trkpt lat="43.0271221" lon="11.4172035"><ele>245.0</ele><time>2026-04-26T09:09:54.17Z</time></trkpt><trkpt lat="43.0270464" lon="11.4173246"><ele>245.0</ele><time>2026-04-26T09:09:55.177Z</time></trkpt><trkpt lat="43.0269694" lon="11.4174413"><ele>245.0</ele><time>2026-04-26T09:09:56.175Z</time></trkpt><trkpt lat="43.0268925" lon="11.4175535"><ele>245.0</ele><time>2026-04-26T09:09:57.169Z</time></trkpt><trkpt lat="43.0268154" lon="11.4176625"><ele>245.0</ele><time>2026-04-26T09:09:58.188Z</time></trkpt><trkpt lat="43.0267391" lon="11.4177682"><ele>245.0</ele><time>2026-04-26T09:09:59.184Z</time></trkpt><trkpt lat="43.0266628" lon="11.4178688"><ele>245.2</ele><time>2026-04-26T09:10:00.186Z</time></trkpt><trkpt lat="43.0265866" lon="11.4179671"><ele>245.4</ele><time>2026-04-26T09:10:01.18Z</time></trkpt><trkpt lat="43.0265112" lon="11.4180624"><ele>245.60000000000002</ele><time>2026-04-26T09:10:02.186Z</time></trkpt><trkpt lat="43.0264369" lon="11.4181527"><ele>245.8</ele><time>2026-04-26T09:10:03.173Z</time></trkpt><trkpt lat="43.0263653" lon="11.4182404"><ele>246.0</ele><time>2026-04-26T09:10:04.177Z</time></trkpt><trkpt lat="43.0262953" lon="11.4183294"><ele>246.0</ele><time>2026-04-26T09:10:05.18Z</time></trkpt><trkpt lat="43.0262219" lon="11.4184205"><ele>246.00000000000003</ele><time>2026-04-26T09:10:06.174Z</time></trkpt><trkpt lat="43.0261459" lon="11.4185164"><ele>246.00000000000003</ele><time>2026-04-26T09:10:07.184Z</time></trkpt><trkpt lat="43.0260678" lon="11.418618"><ele>246.0</ele><time>2026-04-26T09:10:08.185Z</time></trkpt><trkpt lat="43.0259872" lon="11.4187255"><ele>246.0</ele><time>2026-04-26T09:10:09.18Z</time></trkpt><trkpt lat="43.0259035" lon="11.4188374"><ele>246.25</ele><time>2026-04-26T09:10:10.182Z</time></trkpt><trkpt lat="43.0258157" lon="11.4189529"><ele>246.5</ele><time>2026-04-26T09:10:11.177Z</time></trkpt><trkpt lat="43.0257288" lon="11.4190652"><ele>246.75</ele><time>2026-04-26T09:10:12.179Z</time></trkpt><trkpt lat="43.0256422" lon="11.4191694"><ele>247.0</ele><time>2026-04-26T09:10:13.169Z</time></trkpt><trkpt lat="43.0255554" lon="11.4192707"><ele>246.0</ele><time>2026-04-26T09:10:14.169Z</time></trkpt><trkpt lat="43.0254706" lon="11.4193752"><ele>245.0</ele><time>2026-04-26T09:10:15.172Z</time></trkpt><trkpt lat="43.0253875" lon="11.41948"><ele>244.0</ele><time>2026-04-26T09:10:16.187Z</time></trkpt><trkpt lat="43.0253074" lon="11.4195782"><ele>243.0</ele><time>2026-04-26T09:10:17.173Z</time></trkpt><trkpt lat="43.0252317" lon="11.4196699"><ele>242.0</ele><time>2026-04-26T09:10:18.168Z</time></trkpt><trkpt lat="43.0251581" lon="11.4197584"><ele>242.0</ele><time>2026-04-26T09:10:19.188Z</time></trkpt><trkpt lat="43.0250848" lon="11.4198434"><ele>242.0</ele><time>2026-04-26T09:10:20.179Z</time></trkpt><trkpt lat="43.0250066" lon="11.4199182"><ele>242.0</ele><time>2026-04-26T09:10:21.182Z</time></trkpt><trkpt lat="43.0249213" lon="11.4199822"><ele>242.0</ele><time>2026-04-26T09:10:22.176Z</time></trkpt><trkpt lat="43.0248292" lon="11.4200291"><ele>242.0</ele><time>2026-04-26T09:10:23.17Z</time></trkpt><trkpt lat="43.0247305" lon="11.4200608"><ele>239.8</ele><time>2026-04-26T09:10:24.182Z</time></trkpt><trkpt lat="43.0246247" lon="11.42008"><ele>237.6</ele><time>2026-04-26T09:10:25.18Z</time></trkpt><trkpt lat="43.0245129" lon="11.42009"><ele>235.40000000000003</ele><time>2026-04-26T09:10:26.181Z</time></trkpt><trkpt lat="43.0243997" lon="11.4200942"><ele>233.20000000000002</ele><time>2026-04-26T09:10:27.191Z</time></trkpt><trkpt lat="43.0242917" lon="11.4200971"><ele>231.0</ele><time>2026-04-26T09:10:28.174Z</time></trkpt><trkpt lat="43.0241842" lon="11.4201072"><ele>230.0</ele><time>2026-04-26T09:10:29.191Z</time></trkpt><trkpt lat="43.0240785" lon="11.4201157"><ele>229.00000000000003</ele><time>2026-04-26T09:10:30.183Z</time></trkpt><trkpt lat="43.0239751" lon="11.4201192"><ele>228.00000000000003</ele><time>2026-04-26T09:10:31.18Z</time></trkpt><trkpt lat="43.0238716" lon="11.4201224"><ele>227.0</ele><time>2026-04-26T09:10:32.18Z</time></trkpt><trkpt lat="43.0237703" lon="11.4201215"><ele>226.0</ele><time>2026-04-26T09:10:33.192Z</time></trkpt><trkpt lat="43.0236712" lon="11.4201193"><ele>226.0</ele><time>2026-04-26T09:10:34.18Z</time></trkpt><trkpt lat="43.0235769" lon="11.4201016"><ele>226.00000000000003</ele><time>2026-04-26T09:10:35.176Z</time></trkpt><trkpt lat="43.0234835" lon="11.4200739"><ele>226.00000000000003</ele><time>2026-04-26T09:10:36.186Z</time></trkpt><trkpt lat="43.0233916" lon="11.4200346"><ele>226.0</ele><time>2026-04-26T09:10:37.174Z</time></trkpt><trkpt lat="43.0233003" lon="11.419985"><ele>226.0</ele><time>2026-04-26T09:10:38.17Z</time></trkpt><trkpt lat="43.0232103" lon="11.419926"><ele>226.20000000000002</ele><time>2026-04-26T09:10:39.195Z</time></trkpt><trkpt lat="43.0231195" lon="11.4198626"><ele>226.40000000000003</ele><time>2026-04-26T09:10:40.176Z</time></trkpt><trkpt lat="43.023027" lon="11.4197949"><ele>226.6</ele><time>2026-04-26T09:10:41.186Z</time></trkpt><trkpt lat="43.0229349" lon="11.4197252"><ele>226.8</ele><time>2026-04-26T09:10:42.168Z</time></trkpt><trkpt lat="43.0228434" lon="11.4196541"><ele>227.0</ele><time>2026-04-26T09:10:43.186Z</time></trkpt><trkpt lat="43.0227542" lon="11.4195826"><ele>226.39999999999998</ele><time>2026-04-26T09:10:44.182Z</time></trkpt><trkpt lat="43.0226683" lon="11.4195125"><ele>225.79999999999998</ele><time>2026-04-26T09:10:45.174Z</time></trkpt><trkpt lat="43.0225859" lon="11.4194452"><ele>225.2</ele><time>2026-04-26T09:10:46.174Z</time></trkpt><trkpt lat="43.022505" lon="11.4193816"><ele>224.6</ele><time>2026-04-26T09:10:47.168Z</time></trkpt><trkpt lat="43.0224248" lon="11.4193196"><ele>224.0</ele><time>2026-04-26T09:10:48.19Z</time></trkpt><trkpt lat="43.0223452" lon="11.4192571"><ele>224.0</ele><time>2026-04-26T09:10:49.173Z</time></trkpt><trkpt lat="43.0222655" lon="11.4191944"><ele>223.99999999999997</ele><time>2026-04-26T09:10:50.185Z</time></trkpt><trkpt lat="43.0221856" lon="11.4191285"><ele>223.99999999999997</ele><time>2026-04-26T09:10:51.181Z</time></trkpt><trkpt lat="43.0221062" lon="11.4190614"><ele>224.0</ele><time>2026-04-26T09:10:52.168Z</time></trkpt><trkpt lat="43.0220238" lon="11.4189986"><ele>224.0</ele><time>2026-04-26T09:10:53.164Z</time></trkpt><trkpt lat="43.0219383" lon="11.4189424"><ele>224.00000000000003</ele><time>2026-04-26T09:10:54.191Z</time></trkpt><trkpt lat="43.0218576" lon="11.4188947"><ele>224.0</ele><time>2026-04-26T09:10:55.166Z</time></trkpt><trkpt lat="43.0217869" lon="11.4188546"><ele>224.0</ele><time>2026-04-26T09:10:56.179Z</time></trkpt><trkpt lat="43.0217203" lon="11.4188192"><ele>224.0</ele><time>2026-04-26T09:10:57.185Z</time></trkpt><trkpt lat="43.0216582" lon="11.4187891"><ele>224.00000000000003</ele><time>2026-04-26T09:10:58.176Z</time></trkpt><trkpt lat="43.0215537" lon="11.4187486"><ele>224.0</ele><time>2026-04-26T09:11:00.173Z</time></trkpt><trkpt lat="43.0214431" lon="11.4187026"><ele>223.16666666666669</ele><time>2026-04-26T09:11:02.181Z</time></trkpt><trkpt lat="43.0213366" lon="11.4186662"><ele>222.33333333333334</ele><time>2026-04-26T09:11:04.183Z</time></trkpt><trkpt lat="43.0212523" lon="11.4186378"><ele>221.5</ele><time>2026-04-26T09:11:06.178Z</time></trkpt><trkpt lat="43.0211732" lon="11.4186243"><ele>220.66666666666669</ele><time>2026-04-26T09:11:09.173Z</time></trkpt><trkpt lat="43.0211101" lon="11.4186466"><ele>219.83333333333334</ele><time>2026-04-26T09:12:40.198Z</time></trkpt><trkpt lat="43.0210413" lon="11.4186055"><ele>219.0</ele><time>2026-04-26T09:12:44.195Z</time></trkpt><trkpt lat="43.0209761" lon="11.4186338"><ele>219.0</ele><time>2026-04-26T09:12:46.188Z</time></trkpt><trkpt lat="43.0210519" lon="11.4186628"><ele>219.0</ele><time>2026-04-26T09:25:22.185Z</time></trkpt><trkpt lat="43.0210847" lon="11.4187482"><ele>219.0</ele><time>2026-04-26T09:25:26.17Z</time></trkpt><trkpt lat="43.0211351" lon="11.4188249"><ele>219.0</ele><time>2026-04-26T09:25:31.184Z</time></trkpt><trkpt lat="43.0211761" lon="11.4188911"><ele>219.0</ele><time>2026-04-26T09:25:52.166Z</time></trkpt><trkpt lat="43.0212257" lon="11.4189746"><ele>219.0</ele><time>2026-04-26T09:25:56.164Z</time></trkpt><trkpt lat="43.0212658" lon="11.4190417"><ele>219.0</ele><time>2026-04-26T09:25:58.179Z</time></trkpt><trkpt lat="43.0213096" lon="11.4191153"><ele>220.6</ele><time>2026-04-26T09:26:00.171Z</time></trkpt><trkpt lat="43.0213557" lon="11.4191991"><ele>222.2</ele><time>2026-04-26T09:26:02.171Z</time></trkpt><trkpt lat="43.0214075" lon="11.4192855"><ele>223.79999999999998</ele><time>2026-04-26T09:26:04.176Z</time></trkpt><trkpt lat="43.021463" lon="11.4193843"><ele>225.39999999999998</ele><time>2026-04-26T09:26:06.175Z</time></trkpt><trkpt lat="43.0215254" lon="11.4194932"><ele>227.0</ele><time>2026-04-26T09:26:08.183Z</time></trkpt><trkpt lat="43.0215934" lon="11.4196045"><ele>228.25</ele><time>2026-04-26T09:26:10.175Z</time></trkpt><trkpt lat="43.0216623" lon="11.4197222"><ele>229.5</ele><time>2026-04-26T09:26:12.179Z</time></trkpt><trkpt lat="43.0217346" lon="11.4198415"><ele>230.75</ele><time>2026-04-26T09:26:14.172Z</time></trkpt><trkpt lat="43.0218031" lon="11.4199754"><ele>232.0</ele><time>2026-04-26T09:26:16.166Z</time></trkpt><trkpt lat="43.0218841" lon="11.4201129"><ele>232.00000000000003</ele><time>2026-04-26T09:26:18.179Z</time></trkpt><trkpt lat="43.0219271" lon="11.4201876"><ele>232.0</ele><time>2026-04-26T09:26:19.191Z</time></trkpt><trkpt lat="43.021973" lon="11.4202652"><ele>232.00000000000003</ele><time>2026-04-26T09:26:20.181Z</time></trkpt><trkpt lat="43.0220184" lon="11.4203468"><ele>232.00000000000003</ele><time>2026-04-26T09:26:21.174Z</time></trkpt><trkpt lat="43.0220665" lon="11.4204294"><ele>232.0</ele><time>2026-04-26T09:26:22.167Z</time></trkpt><trkpt lat="43.0221122" lon="11.4205145"><ele>232.00000000000003</ele><time>2026-04-26T09:26:23.18Z</time></trkpt><trkpt lat="43.0221573" lon="11.420593"><ele>232.00000000000003</ele><time>2026-04-26T09:26:24.165Z</time></trkpt><trkpt lat="43.0221993" lon="11.4206703"><ele>232.00000000000003</ele><time>2026-04-26T09:26:25.185Z</time></trkpt><trkpt lat="43.0222374" lon="11.4207521"><ele>232.0</ele><time>2026-04-26T09:26:26.186Z</time></trkpt><trkpt lat="43.0222729" lon="11.4208395"><ele>232.00000000000003</ele><time>2026-04-26T09:26:27.175Z</time></trkpt><trkpt lat="43.022301" lon="11.4209297"><ele>232.00000000000003</ele><time>2026-04-26T09:26:28.178Z</time></trkpt><trkpt lat="43.0223187" lon="11.421025"><ele>232.0</ele><time>2026-04-26T09:26:29.187Z</time></trkpt><trkpt lat="43.0223357" lon="11.4211205"><ele>232.00000000000003</ele><time>2026-04-26T09:26:30.167Z</time></trkpt><trkpt lat="43.02233" lon="11.4212195"><ele>232.00000000000003</ele><time>2026-04-26T09:26:31.183Z</time></trkpt><trkpt lat="43.0223143" lon="11.4213215"><ele>230.33333333333331</ele><time>2026-04-26T09:26:32.175Z</time></trkpt><trkpt lat="43.0222901" lon="11.4214264"><ele>228.66666666666666</ele><time>2026-04-26T09:26:33.166Z</time></trkpt><trkpt lat="43.0222562" lon="11.4215304"><ele>227.0</ele><time>2026-04-26T09:26:34.185Z</time></trkpt><trkpt lat="43.0222133" lon="11.4216315"><ele>225.33333333333331</ele><time>2026-04-26T09:26:35.168Z</time></trkpt><trkpt lat="43.0221658" lon="11.4217376"><ele>223.66666666666666</ele><time>2026-04-26T09:26:36.177Z</time></trkpt><trkpt lat="43.0221182" lon="11.4218493"><ele>222.0</ele><time>2026-04-26T09:26:37.181Z</time></trkpt><trkpt lat="43.0220692" lon="11.4219644"><ele>222.0</ele><time>2026-04-26T09:26:38.169Z</time></trkpt><trkpt lat="43.0220182" lon="11.4220894"><ele>222.0</ele><time>2026-04-26T09:26:39.175Z</time></trkpt><trkpt lat="43.0219642" lon="11.4222134"><ele>222.0</ele><time>2026-04-26T09:26:40.176Z</time></trkpt><trkpt lat="43.0219093" lon="11.422341"><ele>222.0</ele><time>2026-04-26T09:26:41.178Z</time></trkpt><trkpt lat="43.0218544" lon="11.4224696"><ele>222.0</ele><time>2026-04-26T09:26:42.169Z</time></trkpt><trkpt lat="43.0217998" lon="11.4225993"><ele>220.8</ele><time>2026-04-26T09:26:43.186Z</time></trkpt><trkpt lat="43.0217446" lon="11.4227295"><ele>219.6</ele><time>2026-04-26T09:26:44.176Z</time></trkpt><trkpt lat="43.02169" lon="11.4228579"><ele>218.40000000000003</ele><time>2026-04-26T09:26:45.182Z</time></trkpt><trkpt lat="43.0216379" lon="11.4229829"><ele>217.20000000000002</ele><time>2026-04-26T09:26:46.181Z</time></trkpt><trkpt lat="43.0215863" lon="11.423104"><ele>216.0</ele><time>2026-04-26T09:26:47.181Z</time></trkpt><trkpt lat="43.0215326" lon="11.4232212"><ele>215.4</ele><time>2026-04-26T09:26:48.176Z</time></trkpt><trkpt lat="43.0214804" lon="11.4233356"><ele>214.8</ele><time>2026-04-26T09:26:49.189Z</time></trkpt><trkpt lat="43.0214323" lon="11.4234505"><ele>214.20000000000002</ele><time>2026-04-26T09:26:50.188Z</time></trkpt><trkpt lat="43.0213808" lon="11.4235625"><ele>213.60000000000002</ele><time>2026-04-26T09:26:51.179Z</time></trkpt><trkpt lat="43.0213183" lon="11.4236656"><ele>213.0</ele><time>2026-04-26T09:26:52.174Z</time></trkpt><trkpt lat="43.0212476" lon="11.4237675"><ele>214.25</ele><time>2026-04-26T09:26:53.164Z</time></trkpt><trkpt lat="43.0211724" lon="11.4238758"><ele>215.5</ele><time>2026-04-26T09:26:54.196Z</time></trkpt><trkpt lat="43.0210905" lon="11.4239867"><ele>216.75</ele><time>2026-04-26T09:26:55.171Z</time></trkpt><trkpt lat="43.0210033" lon="11.4240931"><ele>218.0</ele><time>2026-04-26T09:26:56.18Z</time></trkpt><trkpt lat="43.0209127" lon="11.4241926"><ele>218.0</ele><time>2026-04-26T09:26:57.194Z</time></trkpt><trkpt lat="43.0208231" lon="11.4242903"><ele>218.0</ele><time>2026-04-26T09:26:58.186Z</time></trkpt><trkpt lat="43.0207355" lon="11.4243911"><ele>218.0</ele><time>2026-04-26T09:26:59.188Z</time></trkpt><trkpt lat="43.0206461" lon="11.4244908"><ele>218.0</ele><time>2026-04-26T09:27:00.177Z</time></trkpt><trkpt lat="43.0205555" lon="11.4245896"><ele>220.25</ele><time>2026-04-26T09:27:01.189Z</time></trkpt><trkpt lat="43.020467" lon="11.4246963"><ele>222.5</ele><time>2026-04-26T09:27:02.189Z</time></trkpt><trkpt lat="43.0203839" lon="11.4248186"><ele>224.75</ele><time>2026-04-26T09:27:03.173Z</time></trkpt><trkpt lat="43.0203039" lon="11.4249507"><ele>227.0</ele><time>2026-04-26T09:27:04.186Z</time></trkpt><trkpt lat="43.0202249" lon="11.4250878"><ele>227.0</ele><time>2026-04-26T09:27:05.178Z</time></trkpt><trkpt lat="43.0201447" lon="11.4252375"><ele>227.0</ele><time>2026-04-26T09:27:06.169Z</time></trkpt><trkpt lat="43.0200654" lon="11.4254081"><ele>227.0</ele><time>2026-04-26T09:27:07.183Z</time></trkpt><trkpt lat="43.0199825" lon="11.4255995"><ele>227.0</ele><time>2026-04-26T09:27:08.168Z</time></trkpt><trkpt lat="43.0198896" lon="11.425799"><ele>231.33333333333334</ele><time>2026-04-26T09:27:09.188Z</time></trkpt><trkpt lat="43.0197924" lon="11.4260038"><ele>235.66666666666669</ele><time>2026-04-26T09:27:10.169Z</time></trkpt><trkpt lat="43.0197036" lon="11.4262055"><ele>240.0</ele><time>2026-04-26T09:27:11.175Z</time></trkpt><trkpt lat="43.0196153" lon="11.4264063"><ele>241.33333333333331</ele><time>2026-04-26T09:27:12.186Z</time></trkpt><trkpt lat="43.0195275" lon="11.4266022"><ele>242.66666666666666</ele><time>2026-04-26T09:27:13.189Z</time></trkpt><trkpt lat="43.0194414" lon="11.4267963"><ele>244.0</ele><time>2026-04-26T09:27:14.188Z</time></trkpt><trkpt lat="43.0193589" lon="11.4269804"><ele>246.0</ele><time>2026-04-26T09:27:15.187Z</time></trkpt><trkpt lat="43.0192786" lon="11.427162"><ele>248.0</ele><time>2026-04-26T09:27:16.177Z</time></trkpt><trkpt lat="43.0192015" lon="11.4273403"><ele>250.0</ele><time>2026-04-26T09:27:17.171Z</time></trkpt><trkpt lat="43.0191289" lon="11.4275157"><ele>250.5</ele><time>2026-04-26T09:27:18.166Z</time></trkpt><trkpt lat="43.0190611" lon="11.4276887"><ele>251.0</ele><time>2026-04-26T09:27:19.181Z</time></trkpt><trkpt lat="43.0189961" lon="11.4278569"><ele>251.5</ele><time>2026-04-26T09:27:20.17Z</time></trkpt><trkpt lat="43.0189366" lon="11.4280239"><ele>252.0</ele><time>2026-04-26T09:27:21.176Z</time></trkpt><trkpt lat="43.0188806" lon="11.4281906"><ele>252.0</ele><time>2026-04-26T09:27:22.188Z</time></trkpt><trkpt lat="43.0188281" lon="11.4283588"><ele>252.0</ele><time>2026-04-26T09:27:23.169Z</time></trkpt><trkpt lat="43.0187761" lon="11.4285294"><ele>252.0</ele><time>2026-04-26T09:27:24.189Z</time></trkpt><trkpt lat="43.0187221" lon="11.4287036"><ele>252.0</ele><time>2026-04-26T09:27:25.18Z</time></trkpt><trkpt lat="43.0186675" lon="11.4288805"><ele>251.5</ele><time>2026-04-26T09:27:26.184Z</time></trkpt><trkpt lat="43.0186141" lon="11.4290607"><ele>251.0</ele><time>2026-04-26T09:27:27.17Z</time></trkpt><trkpt lat="43.0185611" lon="11.4292446"><ele>250.5</ele><time>2026-04-26T09:27:28.187Z</time></trkpt><trkpt lat="43.0185088" lon="11.4294297"><ele>250.0</ele><time>2026-04-26T09:27:29.172Z</time></trkpt><trkpt lat="43.0184559" lon="11.4296063"><ele>249.5</ele><time>2026-04-26T09:27:30.185Z</time></trkpt><trkpt lat="43.018402" lon="11.4297898"><ele>249.0</ele><time>2026-04-26T09:27:31.191Z</time></trkpt><trkpt lat="43.0183504" lon="11.4299723"><ele>248.5</ele><time>2026-04-26T09:27:32.175Z</time></trkpt><trkpt lat="43.018297" lon="11.4301536"><ele>248.0</ele><time>2026-04-26T09:27:33.189Z</time></trkpt><trkpt lat="43.0182453" lon="11.4303323"><ele>246.5</ele><time>2026-04-26T09:27:34.189Z</time></trkpt><trkpt lat="43.0181931" lon="11.4305078"><ele>245.0</ele><time>2026-04-26T09:27:35.165Z</time></trkpt><trkpt lat="43.0181407" lon="11.4306828"><ele>243.5</ele><time>2026-04-26T09:27:36.187Z</time></trkpt><trkpt lat="43.0180892" lon="11.430858"><ele>242.0</ele><time>2026-04-26T09:27:37.173Z</time></trkpt><trkpt lat="43.0180352" lon="11.4310341"><ele>242.0</ele><time>2026-04-26T09:27:38.17Z</time></trkpt><trkpt lat="43.0179825" lon="11.4312115"><ele>242.0</ele><time>2026-04-26T09:27:39.179Z</time></trkpt><trkpt lat="43.0179301" lon="11.4313896"><ele>242.0</ele><time>2026-04-26T09:27:40.18Z</time></trkpt><trkpt lat="43.0178779" lon="11.431569"><ele>242.0</ele><time>2026-04-26T09:27:41.176Z</time></trkpt><trkpt lat="43.0178261" lon="11.4317475"><ele>241.25</ele><time>2026-04-26T09:27:42.173Z</time></trkpt><trkpt lat="43.0177744" lon="11.4319239"><ele>240.5</ele><time>2026-04-26T09:27:43.163Z</time></trkpt><trkpt lat="43.0177231" lon="11.4320987"><ele>239.75</ele><time>2026-04-26T09:27:44.173Z</time></trkpt><trkpt lat="43.0176711" lon="11.4322749"><ele>239.0</ele><time>2026-04-26T09:27:45.181Z</time></trkpt><trkpt lat="43.0176164" lon="11.4324533"><ele>239.0</ele><time>2026-04-26T09:27:46.182Z</time></trkpt><trkpt lat="43.0175589" lon="11.4326312"><ele>239.0</ele><time>2026-04-26T09:27:47.157Z</time></trkpt><trkpt lat="43.0175063" lon="11.4328087"><ele>239.0</ele><time>2026-04-26T09:27:48.167Z</time></trkpt><trkpt lat="43.0174537" lon="11.4329885"><ele>239.0</ele><time>2026-04-26T09:27:49.163Z</time></trkpt><trkpt lat="43.0174009" lon="11.4331694"><ele>240.0</ele><time>2026-04-26T09:27:50.187Z</time></trkpt><trkpt lat="43.0173487" lon="11.433353"><ele>241.0</ele><time>2026-04-26T09:27:51.165Z</time></trkpt><trkpt lat="43.0172957" lon="11.4335378"><ele>242.0</ele><time>2026-04-26T09:27:52.159Z</time></trkpt><trkpt lat="43.0172419" lon="11.433724"><ele>243.0</ele><time>2026-04-26T09:27:53.178Z</time></trkpt><trkpt lat="43.0171877" lon="11.4339104"><ele>244.5</ele><time>2026-04-26T09:27:54.177Z</time></trkpt><trkpt lat="43.0171315" lon="11.4340964"><ele>246.0</ele><time>2026-04-26T09:27:55.162Z</time></trkpt><trkpt lat="43.0170746" lon="11.4342858"><ele>247.5</ele><time>2026-04-26T09:27:56.17Z</time></trkpt><trkpt lat="43.0170183" lon="11.4344763"><ele>249.0</ele><time>2026-04-26T09:27:57.18Z</time></trkpt><trkpt lat="43.016961" lon="11.4346695"><ele>249.66666666666669</ele><time>2026-04-26T09:27:58.18Z</time></trkpt><trkpt lat="43.0169029" lon="11.4348656"><ele>250.33333333333334</ele><time>2026-04-26T09:27:59.174Z</time></trkpt><trkpt lat="43.0168448" lon="11.4350655"><ele>251.0</ele><time>2026-04-26T09:28:00.176Z</time></trkpt><trkpt lat="43.0167854" lon="11.4352655"><ele>251.0</ele><time>2026-04-26T09:28:01.16Z</time></trkpt><trkpt lat="43.016725" lon="11.4354651"><ele>251.0</ele><time>2026-04-26T09:28:02.164Z</time></trkpt><trkpt lat="43.0166649" lon="11.4356645"><ele>251.0</ele><time>2026-04-26T09:28:03.163Z</time></trkpt><trkpt lat="43.0166058" lon="11.4358659"><ele>252.66666666666669</ele><time>2026-04-26T09:28:04.161Z</time></trkpt><trkpt lat="43.0165475" lon="11.4360667"><ele>254.33333333333331</ele><time>2026-04-26T09:28:05.161Z</time></trkpt><trkpt lat="43.0164912" lon="11.4362642"><ele>256.0</ele><time>2026-04-26T09:28:06.181Z</time></trkpt><trkpt lat="43.016433" lon="11.4364602"><ele>257.0</ele><time>2026-04-26T09:28:07.162Z</time></trkpt><trkpt lat="43.0163738" lon="11.4366573"><ele>258.0</ele><time>2026-04-26T09:28:08.181Z</time></trkpt><trkpt lat="43.0163162" lon="11.436852"><ele>259.0</ele><time>2026-04-26T09:28:09.16Z</time></trkpt><trkpt lat="43.016262" lon="11.4370424"><ele>260.5</ele><time>2026-04-26T09:28:10.175Z</time></trkpt><trkpt lat="43.0162095" lon="11.4372282"><ele>262.0</ele><time>2026-04-26T09:28:11.181Z</time></trkpt><trkpt lat="43.0161572" lon="11.4374105"><ele>263.5</ele><time>2026-04-26T09:28:12.17Z</time></trkpt><trkpt lat="43.0161045" lon="11.4375902"><ele>265.0</ele><time>2026-04-26T09:28:13.173Z</time></trkpt><trkpt lat="43.016051" lon="11.4377675"><ele>265.0</ele><time>2026-04-26T09:28:14.162Z</time></trkpt><trkpt lat="43.0159999" lon="11.4379392"><ele>265.0</ele><time>2026-04-26T09:28:15.169Z</time></trkpt><trkpt lat="43.0159544" lon="11.4380993"><ele>265.0</ele><time>2026-04-26T09:28:16.179Z</time></trkpt><trkpt lat="43.0159138" lon="11.4382426"><ele>265.0</ele><time>2026-04-26T09:28:17.166Z</time></trkpt><trkpt lat="43.0158782" lon="11.438368"><ele>265.8333333333333</ele><time>2026-04-26T09:28:18.168Z</time></trkpt><trkpt lat="43.0158436" lon="11.4384803"><ele>266.66666666666663</ele><time>2026-04-26T09:28:19.18Z</time></trkpt><trkpt lat="43.0158088" lon="11.4385773"><ele>267.5</ele><time>2026-04-26T09:28:20.173Z</time></trkpt><trkpt lat="43.0157743" lon="11.4386558"><ele>268.3333333333333</ele><time>2026-04-26T09:28:21.168Z</time></trkpt><trkpt lat="43.0157066" lon="11.4387598"><ele>269.1666666666667</ele><time>2026-04-26T09:28:23.162Z</time></trkpt><trkpt lat="43.0156251" lon="11.4387914"><ele>270.0</ele><time>2026-04-26T09:28:26.177Z</time></trkpt><trkpt lat="43.0155722" lon="11.4387118"><ele>270.6666666666667</ele><time>2026-04-26T09:28:28.173Z</time></trkpt><trkpt lat="43.0155248" lon="11.4385705"><ele>271.3333333333333</ele><time>2026-04-26T09:28:30.184Z</time></trkpt><trkpt lat="43.0154928" lon="11.4384923"><ele>272.0</ele><time>2026-04-26T09:28:31.18Z</time></trkpt><trkpt lat="43.0154579" lon="11.4384147"><ele>272.66666666666663</ele><time>2026-04-26T09:28:32.165Z</time></trkpt><trkpt lat="43.0154212" lon="11.4383347"><ele>273.3333333333333</ele><time>2026-04-26T09:28:33.169Z</time></trkpt><trkpt lat="43.0153789" lon="11.4382536"><ele>274.0</ele><time>2026-04-26T09:28:34.167Z</time></trkpt><trkpt lat="43.0153328" lon="11.4381686"><ele>274.0</ele><time>2026-04-26T09:28:35.166Z</time></trkpt><trkpt lat="43.0152867" lon="11.4380771"><ele>274.0</ele><time>2026-04-26T09:28:36.174Z</time></trkpt><trkpt lat="43.0152391" lon="11.4379862"><ele>274.0</ele><time>2026-04-26T09:28:37.186Z</time></trkpt><trkpt lat="43.0151905" lon="11.4378911"><ele>274.0</ele><time>2026-04-26T09:28:38.182Z</time></trkpt><trkpt lat="43.0151451" lon="11.4377867"><ele>274.0</ele><time>2026-04-26T09:28:39.166Z</time></trkpt><trkpt lat="43.0151027" lon="11.4376752"><ele>274.0</ele><time>2026-04-26T09:28:40.172Z</time></trkpt><trkpt lat="43.0150634" lon="11.4375592"><ele>272.8</ele><time>2026-04-26T09:28:41.175Z</time></trkpt><trkpt lat="43.0150277" lon="11.4374381"><ele>271.59999999999997</ele><time>2026-04-26T09:28:42.167Z</time></trkpt><trkpt lat="43.0149966" lon="11.4373123"><ele>270.4</ele><time>2026-04-26T09:28:43.173Z</time></trkpt><trkpt lat="43.014971" lon="11.4371833"><ele>269.2</ele><time>2026-04-26T09:28:44.178Z</time></trkpt><trkpt lat="43.0149489" lon="11.4370516"><ele>268.0</ele><time>2026-04-26T09:28:45.182Z</time></trkpt><trkpt lat="43.0149326" lon="11.436917"><ele>266.2</ele><time>2026-04-26T09:28:46.168Z</time></trkpt><trkpt lat="43.0149215" lon="11.4367816"><ele>264.4</ele><time>2026-04-26T09:28:47.187Z</time></trkpt><trkpt lat="43.014913" lon="11.4366463"><ele>262.59999999999997</ele><time>2026-04-26T09:28:48.167Z</time></trkpt><trkpt lat="43.0149048" lon="11.436511"><ele>260.8</ele><time>2026-04-26T09:28:49.185Z</time></trkpt><trkpt lat="43.0148955" lon="11.4363754"><ele>259.0</ele><time>2026-04-26T09:28:50.182Z</time></trkpt><trkpt lat="43.0148875" lon="11.4362407"><ele>258.59999999999997</ele><time>2026-04-26T09:28:51.167Z</time></trkpt><trkpt lat="43.0148818" lon="11.4361047"><ele>258.2</ele><time>2026-04-26T09:28:52.183Z</time></trkpt><trkpt lat="43.0148772" lon="11.4359667"><ele>257.79999999999995</ele><time>2026-04-26T09:28:53.169Z</time></trkpt><trkpt lat="43.0148717" lon="11.4358257"><ele>257.4</ele><time>2026-04-26T09:28:54.184Z</time></trkpt><trkpt lat="43.0148653" lon="11.4356821"><ele>257.0</ele><time>2026-04-26T09:28:55.187Z</time></trkpt><trkpt lat="43.0148575" lon="11.4355378"><ele>256.8</ele><time>2026-04-26T09:28:56.178Z</time></trkpt><trkpt lat="43.014848" lon="11.4353937"><ele>256.6</ele><time>2026-04-26T09:28:57.184Z</time></trkpt><trkpt lat="43.0148352" lon="11.435249"><ele>256.40000000000003</ele><time>2026-04-26T09:28:58.163Z</time></trkpt><trkpt lat="43.0148208" lon="11.4351029"><ele>256.2</ele><time>2026-04-26T09:28:59.173Z</time></trkpt><trkpt lat="43.014805" lon="11.434957"><ele>256.0</ele><time>2026-04-26T09:29:00.169Z</time></trkpt><trkpt lat="43.0147889" lon="11.4348142"><ele>256.0</ele><time>2026-04-26T09:29:01.164Z</time></trkpt><trkpt lat="43.014772" lon="11.4346749"><ele>256.0</ele><time>2026-04-26T09:29:02.181Z</time></trkpt><trkpt lat="43.0147566" lon="11.4345467"><ele>256.0</ele><time>2026-04-26T09:29:03.167Z</time></trkpt><trkpt lat="43.0147398" lon="11.4344213"><ele>256.0</ele><time>2026-04-26T09:29:04.188Z</time></trkpt><trkpt lat="43.0147232" lon="11.4342949"><ele>256.0</ele><time>2026-04-26T09:29:05.184Z</time></trkpt><trkpt lat="43.014713" lon="11.4341761"><ele>255.8</ele><time>2026-04-26T09:29:06.181Z</time></trkpt><trkpt lat="43.0147045" lon="11.4340596"><ele>255.60000000000002</ele><time>2026-04-26T09:29:07.186Z</time></trkpt><trkpt lat="43.0147017" lon="11.433938"><ele>255.4</ele><time>2026-04-26T09:29:08.184Z</time></trkpt><trkpt lat="43.0147134" lon="11.4338135"><ele>255.2</ele><time>2026-04-26T09:29:09.188Z</time></trkpt><trkpt lat="43.014743" lon="11.4336899"><ele>255.0</ele><time>2026-04-26T09:29:10.18Z</time></trkpt><trkpt lat="43.0147878" lon="11.4335705"><ele>254.2</ele><time>2026-04-26T09:29:11.174Z</time></trkpt><trkpt lat="43.0148391" lon="11.4334536"><ele>253.4</ele><time>2026-04-26T09:29:12.182Z</time></trkpt><trkpt lat="43.0148888" lon="11.4333335"><ele>252.60000000000002</ele><time>2026-04-26T09:29:13.184Z</time></trkpt><trkpt lat="43.0149318" lon="11.4332091"><ele>251.8</ele><time>2026-04-26T09:29:14.179Z</time></trkpt><trkpt lat="43.0149653" lon="11.4330805"><ele>251.0</ele><time>2026-04-26T09:29:15.175Z</time></trkpt><trkpt lat="43.0149884" lon="11.4329431"><ele>250.4</ele><time>2026-04-26T09:29:16.163Z</time></trkpt><trkpt lat="43.0149994" lon="11.4328"><ele>249.8</ele><time>2026-04-26T09:29:17.169Z</time></trkpt><trkpt lat="43.0149949" lon="11.4326552"><ele>249.20000000000002</ele><time>2026-04-26T09:29:18.164Z</time></trkpt><trkpt lat="43.0149788" lon="11.4325094"><ele>248.60000000000002</ele><time>2026-04-26T09:29:19.177Z</time></trkpt><trkpt lat="43.0149563" lon="11.4323605"><ele>248.0</ele><time>2026-04-26T09:29:20.177Z</time></trkpt><trkpt lat="43.0149311" lon="11.432209"><ele>247.25</ele><time>2026-04-26T09:29:21.181Z</time></trkpt><trkpt lat="43.0149044" lon="11.4320572"><ele>246.5</ele><time>2026-04-26T09:29:22.165Z</time></trkpt><trkpt lat="43.014878" lon="11.4319043"><ele>245.75</ele><time>2026-04-26T09:29:23.172Z</time></trkpt><trkpt lat="43.014851" lon="11.4317505"><ele>245.0</ele><time>2026-04-26T09:29:24.188Z</time></trkpt><trkpt lat="43.0148246" lon="11.431593"><ele>245.0</ele><time>2026-04-26T09:29:25.168Z</time></trkpt><trkpt lat="43.0147969" lon="11.4314323"><ele>245.0</ele><time>2026-04-26T09:29:26.169Z</time></trkpt><trkpt lat="43.0147666" lon="11.43127"><ele>245.0</ele><time>2026-04-26T09:29:27.181Z</time></trkpt><trkpt lat="43.0147332" lon="11.4311088"><ele>245.0</ele><time>2026-04-26T09:29:28.172Z</time></trkpt><trkpt lat="43.0146902" lon="11.4309535"><ele>243.75</ele><time>2026-04-26T09:29:29.191Z</time></trkpt><trkpt lat="43.0146336" lon="11.4308112"><ele>242.5</ele><time>2026-04-26T09:29:30.166Z</time></trkpt><trkpt lat="43.0145609" lon="11.4306911"><ele>241.25</ele><time>2026-04-26T09:29:31.163Z</time></trkpt><trkpt lat="43.0144819" lon="11.4305841"><ele>240.0</ele><time>2026-04-26T09:29:32.165Z</time></trkpt><trkpt lat="43.0143828" lon="11.4305291"><ele>240.0</ele><time>2026-04-26T09:29:33.169Z</time></trkpt><trkpt lat="43.0142844" lon="11.4304783"><ele>240.0</ele><time>2026-04-26T09:29:34.17Z</time></trkpt><trkpt lat="43.0141984" lon="11.4304052"><ele>240.0</ele><time>2026-04-26T09:29:35.181Z</time></trkpt><trkpt lat="43.0141139" lon="11.4303199"><ele>240.0</ele><time>2026-04-26T09:29:36.174Z</time></trkpt><trkpt lat="43.0140453" lon="11.4302029"><ele>240.0</ele><time>2026-04-26T09:29:37.175Z</time></trkpt><trkpt lat="43.0139961" lon="11.4300751"><ele>239.2</ele><time>2026-04-26T09:29:38.186Z</time></trkpt><trkpt lat="43.0139499" lon="11.4299352"><ele>238.4</ele><time>2026-04-26T09:29:39.168Z</time></trkpt><trkpt lat="43.0139209" lon="11.4297888"><ele>237.60000000000002</ele><time>2026-04-26T09:29:40.176Z</time></trkpt><trkpt lat="43.0138914" lon="11.4296414"><ele>236.8</ele><time>2026-04-26T09:29:41.183Z</time></trkpt><trkpt lat="43.0138574" lon="11.429509"><ele>236.0</ele><time>2026-04-26T09:29:42.177Z</time></trkpt><trkpt lat="43.0138252" lon="11.4293864"><ele>234.8</ele><time>2026-04-26T09:29:43.186Z</time></trkpt><trkpt lat="43.0137705" lon="11.4292848"><ele>233.60000000000002</ele><time>2026-04-26T09:29:44.187Z</time></trkpt><trkpt lat="43.0137017" lon="11.4292008"><ele>232.4</ele><time>2026-04-26T09:29:45.184Z</time></trkpt><trkpt lat="43.013624" lon="11.4291263"><ele>231.2</ele><time>2026-04-26T09:29:46.185Z</time></trkpt><trkpt lat="43.0135456" lon="11.4290511"><ele>230.0</ele><time>2026-04-26T09:29:47.167Z</time></trkpt><trkpt lat="43.0134536" lon="11.4289861"><ele>230.0</ele><time>2026-04-26T09:29:48.181Z</time></trkpt><trkpt lat="43.0133529" lon="11.4289241"><ele>230.0</ele><time>2026-04-26T09:29:49.171Z</time></trkpt><trkpt lat="43.0132507" lon="11.4288633"><ele>230.0</ele><time>2026-04-26T09:29:50.175Z</time></trkpt><trkpt lat="43.0131464" lon="11.428809"><ele>230.0</ele><time>2026-04-26T09:29:51.171Z</time></trkpt><trkpt lat="43.0130365" lon="11.4287674"><ele>230.0</ele><time>2026-04-26T09:29:52.18Z</time></trkpt><trkpt lat="43.0129169" lon="11.4287304"><ele>229.6</ele><time>2026-04-26T09:29:53.178Z</time></trkpt><trkpt lat="43.012805" lon="11.4286929"><ele>229.2</ele><time>2026-04-26T09:29:54.18Z</time></trkpt><trkpt lat="43.0126946" lon="11.428652"><ele>228.8</ele><time>2026-04-26T09:29:55.173Z</time></trkpt><trkpt lat="43.0125895" lon="11.4286092"><ele>228.4</ele><time>2026-04-26T09:29:56.179Z</time></trkpt><trkpt lat="43.0124887" lon="11.4285647"><ele>228.0</ele><time>2026-04-26T09:29:57.163Z</time></trkpt><trkpt lat="43.012393" lon="11.4285141"><ele>228.0</ele><time>2026-04-26T09:29:58.18Z</time></trkpt><trkpt lat="43.0123016" lon="11.4284463"><ele>228.0</ele><time>2026-04-26T09:29:59.18Z</time></trkpt><trkpt lat="43.0122136" lon="11.4283625"><ele>228.0</ele><time>2026-04-26T09:30:00.164Z</time></trkpt><trkpt lat="43.0121245" lon="11.4282775"><ele>228.0</ele><time>2026-04-26T09:30:01.17Z</time></trkpt><trkpt lat="43.0120349" lon="11.4281917"><ele>228.0</ele><time>2026-04-26T09:30:02.172Z</time></trkpt><trkpt lat="43.0119455" lon="11.4281082"><ele>228.0</ele><time>2026-04-26T09:30:03.177Z</time></trkpt><trkpt lat="43.0118519" lon="11.4280211"><ele>228.0</ele><time>2026-04-26T09:30:04.169Z</time></trkpt><trkpt lat="43.0117607" lon="11.4279334"><ele>228.0</ele><time>2026-04-26T09:30:05.173Z</time></trkpt><trkpt lat="43.0116724" lon="11.4278442"><ele>228.0</ele><time>2026-04-26T09:30:06.17Z</time></trkpt><trkpt lat="43.0115837" lon="11.4277505"><ele>228.0</ele><time>2026-04-26T09:30:07.192Z</time></trkpt><trkpt lat="43.0114957" lon="11.4276473"><ele>227.5</ele><time>2026-04-26T09:30:08.18Z</time></trkpt><trkpt lat="43.011413" lon="11.4275347"><ele>227.0</ele><time>2026-04-26T09:30:09.176Z</time></trkpt><trkpt lat="43.0113347" lon="11.4274122"><ele>226.5</ele><time>2026-04-26T09:30:10.177Z</time></trkpt><trkpt lat="43.01126" lon="11.4272815"><ele>226.0</ele><time>2026-04-26T09:30:11.178Z</time></trkpt><trkpt lat="43.0111899" lon="11.4271438"><ele>227.0</ele><time>2026-04-26T09:30:12.176Z</time></trkpt><trkpt lat="43.0111233" lon="11.4270021"><ele>228.0</ele><time>2026-04-26T09:30:13.176Z</time></trkpt><trkpt lat="43.0110576" lon="11.426861"><ele>229.0</ele><time>2026-04-26T09:30:14.183Z</time></trkpt><trkpt lat="43.0109926" lon="11.4267217"><ele>230.0</ele><time>2026-04-26T09:30:15.179Z</time></trkpt><trkpt lat="43.0109271" lon="11.4265841"><ele>230.0</ele><time>2026-04-26T09:30:16.172Z</time></trkpt><trkpt lat="43.0108568" lon="11.42645"><ele>230.0</ele><time>2026-04-26T09:30:17.178Z</time></trkpt><trkpt lat="43.0107831" lon="11.4263161"><ele>230.0</ele><time>2026-04-26T09:30:18.182Z</time></trkpt><trkpt lat="43.0107066" lon="11.4261812"><ele>230.0</ele><time>2026-04-26T09:30:19.169Z</time></trkpt><trkpt lat="43.0106294" lon="11.4260502"><ele>229.25</ele><time>2026-04-26T09:30:20.182Z</time></trkpt><trkpt lat="43.0105555" lon="11.4259195"><ele>228.5</ele><time>2026-04-26T09:30:21.164Z</time></trkpt><trkpt lat="43.0104876" lon="11.4257848"><ele>227.75</ele><time>2026-04-26T09:30:22.172Z</time></trkpt><trkpt lat="43.0104295" lon="11.425644"><ele>227.0</ele><time>2026-04-26T09:30:23.175Z</time></trkpt><trkpt lat="43.0103804" lon="11.4254956"><ele>226.25</ele><time>2026-04-26T09:30:24.167Z</time></trkpt><trkpt lat="43.0103312" lon="11.4253468"><ele>225.5</ele><time>2026-04-26T09:30:25.162Z</time></trkpt><trkpt lat="43.0102988" lon="11.4251812"><ele>224.75</ele><time>2026-04-26T09:30:26.173Z</time></trkpt><trkpt lat="43.0102712" lon="11.42501"><ele>224.0</ele><time>2026-04-26T09:30:27.175Z</time></trkpt><trkpt lat="43.0102398" lon="11.424836"><ele>224.0</ele><time>2026-04-26T09:30:28.172Z</time></trkpt><trkpt lat="43.0102065" lon="11.4246643"><ele>224.0</ele><time>2026-04-26T09:30:29.163Z</time></trkpt><trkpt lat="43.0101735" lon="11.4244892"><ele>224.0</ele><time>2026-04-26T09:30:30.179Z</time></trkpt><trkpt lat="43.010142" lon="11.4243019"><ele>224.0</ele><time>2026-04-26T09:30:31.177Z</time></trkpt><trkpt lat="43.0101057" lon="11.4241226"><ele>223.25</ele><time>2026-04-26T09:30:32.182Z</time></trkpt><trkpt lat="43.010072" lon="11.4239441"><ele>222.5</ele><time>2026-04-26T09:30:33.181Z</time></trkpt><trkpt lat="43.0100343" lon="11.4237677"><ele>221.75</ele><time>2026-04-26T09:30:34.188Z</time></trkpt><trkpt lat="43.0099912" lon="11.4235902"><ele>221.0</ele><time>2026-04-26T09:30:35.178Z</time></trkpt><trkpt lat="43.0099464" lon="11.4234072"><ele>219.5</ele><time>2026-04-26T09:30:36.183Z</time></trkpt><trkpt lat="43.0099017" lon="11.4232267"><ele>218.0</ele><time>2026-04-26T09:30:37.168Z</time></trkpt><trkpt lat="43.0098463" lon="11.4230521"><ele>216.5</ele><time>2026-04-26T09:30:38.166Z</time></trkpt><trkpt lat="43.009786" lon="11.4228832"><ele>215.0</ele><time>2026-04-26T09:30:39.178Z</time></trkpt><trkpt lat="43.0097256" lon="11.4227186"><ele>215.0</ele><time>2026-04-26T09:30:40.175Z</time></trkpt><trkpt lat="43.0096654" lon="11.4225523"><ele>215.0</ele><time>2026-04-26T09:30:41.172Z</time></trkpt><trkpt lat="43.0096096" lon="11.4223796"><ele>215.0</ele><time>2026-04-26T09:30:42.166Z</time></trkpt><trkpt lat="43.0095547" lon="11.4222015"><ele>215.0</ele><time>2026-04-26T09:30:43.187Z</time></trkpt><trkpt lat="43.0094996" lon="11.4220259"><ele>216.0</ele><time>2026-04-26T09:30:44.165Z</time></trkpt><trkpt lat="43.0094387" lon="11.4218444"><ele>217.0</ele><time>2026-04-26T09:30:45.18Z</time></trkpt><trkpt lat="43.0093745" lon="11.4216683"><ele>218.0</ele><time>2026-04-26T09:30:46.171Z</time></trkpt><trkpt lat="43.009293" lon="11.4215055"><ele>219.0</ele><time>2026-04-26T09:30:47.183Z</time></trkpt><trkpt lat="43.0091825" lon="11.4213635"><ele>221.33333333333331</ele><time>2026-04-26T09:30:48.189Z</time></trkpt><trkpt lat="43.0090672" lon="11.4212245"><ele>223.66666666666666</ele><time>2026-04-26T09:30:49.191Z</time></trkpt><trkpt lat="43.0089235" lon="11.4211344"><ele>226.0</ele><time>2026-04-26T09:30:50.177Z</time></trkpt><trkpt lat="43.0087891" lon="11.4210468"><ele>226.0</ele><time>2026-04-26T09:30:51.18Z</time></trkpt><trkpt lat="43.0086696" lon="11.4209611"><ele>226.0</ele><time>2026-04-26T09:30:52.176Z</time></trkpt><trkpt lat="43.0085576" lon="11.4208773"><ele>226.0</ele><time>2026-04-26T09:30:53.177Z</time></trkpt><trkpt lat="43.0084535" lon="11.4207925"><ele>226.0</ele><time>2026-04-26T09:30:54.174Z</time></trkpt><trkpt lat="43.0083517" lon="11.4207064"><ele>227.5</ele><time>2026-04-26T09:30:55.174Z</time></trkpt><trkpt lat="43.0082491" lon="11.4206178"><ele>229.0</ele><time>2026-04-26T09:30:56.178Z</time></trkpt><trkpt lat="43.0081451" lon="11.4205298"><ele>230.5</ele><time>2026-04-26T09:30:57.191Z</time></trkpt><trkpt lat="43.0080436" lon="11.4204436"><ele>232.0</ele><time>2026-04-26T09:30:58.183Z</time></trkpt><trkpt lat="43.0079437" lon="11.4203568"><ele>232.2</ele><time>2026-04-26T09:30:59.191Z</time></trkpt><trkpt lat="43.0078482" lon="11.4202759"><ele>232.39999999999998</ele><time>2026-04-26T09:31:00.167Z</time></trkpt><trkpt lat="43.0077558" lon="11.4201965"><ele>232.60000000000002</ele><time>2026-04-26T09:31:01.173Z</time></trkpt><trkpt lat="43.007666" lon="11.4201191"><ele>232.8</ele><time>2026-04-26T09:31:02.169Z</time></trkpt><trkpt lat="43.0075784" lon="11.4200443"><ele>233.0</ele><time>2026-04-26T09:31:03.173Z</time></trkpt><trkpt lat="43.0074928" lon="11.4199733"><ele>233.0</ele><time>2026-04-26T09:31:04.167Z</time></trkpt><trkpt lat="43.0074091" lon="11.4199061"><ele>233.0</ele><time>2026-04-26T09:31:05.165Z</time></trkpt><trkpt lat="43.0073265" lon="11.4198392"><ele>233.0</ele><time>2026-04-26T09:31:06.175Z</time></trkpt><trkpt lat="43.0072421" lon="11.4197685"><ele>233.0</ele><time>2026-04-26T09:31:07.181Z</time></trkpt><trkpt lat="43.0071525" lon="11.4196927"><ele>233.0</ele><time>2026-04-26T09:31:08.187Z</time></trkpt><trkpt lat="43.0070568" lon="11.4196095"><ele>232.5</ele><time>2026-04-26T09:31:09.183Z</time></trkpt><trkpt lat="43.0069581" lon="11.419518"><ele>232.0</ele><time>2026-04-26T09:31:10.163Z</time></trkpt><trkpt lat="43.0068582" lon="11.419415"><ele>231.5</ele><time>2026-04-26T09:31:11.17Z</time></trkpt><trkpt lat="43.0067604" lon="11.4192983"><ele>231.0</ele><time>2026-04-26T09:31:12.17Z</time></trkpt><trkpt lat="43.006662" lon="11.4191729"><ele>231.5</ele><time>2026-04-26T09:31:13.179Z</time></trkpt><trkpt lat="43.0065661" lon="11.4190387"><ele>232.0</ele><time>2026-04-26T09:31:14.168Z</time></trkpt><trkpt lat="43.0064715" lon="11.4189034"><ele>232.5</ele><time>2026-04-26T09:31:15.179Z</time></trkpt><trkpt lat="43.0063889" lon="11.4187504"><ele>233.0</ele><time>2026-04-26T09:31:16.167Z</time></trkpt><trkpt lat="43.0063069" lon="11.4185932"><ele>232.0</ele><time>2026-04-26T09:31:17.174Z</time></trkpt><trkpt lat="43.0062252" lon="11.4184348"><ele>231.0</ele><time>2026-04-26T09:31:18.167Z</time></trkpt><trkpt lat="43.0061422" lon="11.4182729"><ele>230.0</ele><time>2026-04-26T09:31:19.185Z</time></trkpt><trkpt lat="43.0060609" lon="11.418111"><ele>229.0</ele><time>2026-04-26T09:31:20.18Z</time></trkpt><trkpt lat="43.0059833" lon="11.4179586"><ele>228.25</ele><time>2026-04-26T09:31:21.18Z</time></trkpt><trkpt lat="43.0059082" lon="11.4178154"><ele>227.5</ele><time>2026-04-26T09:31:22.167Z</time></trkpt><trkpt lat="43.005837" lon="11.4176809"><ele>226.75</ele><time>2026-04-26T09:31:23.172Z</time></trkpt><trkpt lat="43.0057666" lon="11.4175456"><ele>226.0</ele><time>2026-04-26T09:31:24.187Z</time></trkpt><trkpt lat="43.0056932" lon="11.4174023"><ele>226.0</ele><time>2026-04-26T09:31:25.163Z</time></trkpt><trkpt lat="43.0056194" lon="11.4172501"><ele>226.0</ele><time>2026-04-26T09:31:26.18Z</time></trkpt><trkpt lat="43.0055465" lon="11.4170953"><ele>226.0</ele><time>2026-04-26T09:31:27.172Z</time></trkpt><trkpt lat="43.0054723" lon="11.4169364"><ele>226.0</ele><time>2026-04-26T09:31:28.175Z</time></trkpt><trkpt lat="43.0053964" lon="11.4167766"><ele>225.75</ele><time>2026-04-26T09:31:29.186Z</time></trkpt><trkpt lat="43.0053211" lon="11.4166173"><ele>225.5</ele><time>2026-04-26T09:31:30.184Z</time></trkpt><trkpt lat="43.0052495" lon="11.4164592"><ele>225.25</ele><time>2026-04-26T09:31:31.187Z</time></trkpt><trkpt lat="43.0051811" lon="11.4163039"><ele>225.0</ele><time>2026-04-26T09:31:32.182Z</time></trkpt><trkpt lat="43.0051149" lon="11.4161539"><ele>225.0</ele><time>2026-04-26T09:31:33.174Z</time></trkpt><trkpt lat="43.0050493" lon="11.4160086"><ele>225.0</ele><time>2026-04-26T09:31:34.184Z</time></trkpt><trkpt lat="43.0049866" lon="11.4158682"><ele>225.0</ele><time>2026-04-26T09:31:35.167Z</time></trkpt><trkpt lat="43.004928" lon="11.41573"><ele>225.0</ele><time>2026-04-26T09:31:36.184Z</time></trkpt><trkpt lat="43.0048712" lon="11.4155947"><ele>226.25</ele><time>2026-04-26T09:31:37.176Z</time></trkpt><trkpt lat="43.0048126" lon="11.41546"><ele>227.5</ele><time>2026-04-26T09:31:38.183Z</time></trkpt><trkpt lat="43.004751" lon="11.4153227"><ele>228.75</ele><time>2026-04-26T09:31:39.168Z</time></trkpt><trkpt lat="43.004685" lon="11.4151814"><ele>230.0</ele><time>2026-04-26T09:31:40.168Z</time></trkpt><trkpt lat="43.0046164" lon="11.4150359"><ele>230.0</ele><time>2026-04-26T09:31:41.171Z</time></trkpt><trkpt lat="43.0045439" lon="11.4148914"><ele>230.0</ele><time>2026-04-26T09:31:42.185Z</time></trkpt><trkpt lat="43.0044668" lon="11.4147482"><ele>230.0</ele><time>2026-04-26T09:31:43.194Z</time></trkpt><trkpt lat="43.0043874" lon="11.4146038"><ele>230.0</ele><time>2026-04-26T09:31:44.163Z</time></trkpt><trkpt lat="43.0043079" lon="11.4144603"><ele>230.75</ele><time>2026-04-26T09:31:45.187Z</time></trkpt><trkpt lat="43.0042234" lon="11.4143119"><ele>231.5</ele><time>2026-04-26T09:31:46.183Z</time></trkpt><trkpt lat="43.0041386" lon="11.4141622"><ele>232.25</ele><time>2026-04-26T09:31:47.187Z</time></trkpt><trkpt lat="43.0040544" lon="11.4140163"><ele>233.0</ele><time>2026-04-26T09:31:48.182Z</time></trkpt><trkpt lat="43.0039715" lon="11.4138727"><ele>232.75</ele><time>2026-04-26T09:31:49.185Z</time></trkpt><trkpt lat="43.0038894" lon="11.4137291"><ele>232.5</ele><time>2026-04-26T09:31:50.169Z</time></trkpt><trkpt lat="43.0038055" lon="11.4135792"><ele>232.25</ele><time>2026-04-26T09:31:51.182Z</time></trkpt><trkpt lat="43.0037223" lon="11.4134308"><ele>232.0</ele><time>2026-04-26T09:31:52.188Z</time></trkpt><trkpt lat="43.0036374" lon="11.4132831"><ele>232.0</ele><time>2026-04-26T09:31:53.172Z</time></trkpt><trkpt lat="43.0035506" lon="11.413133"><ele>232.0</ele><time>2026-04-26T09:31:54.167Z</time></trkpt><trkpt lat="43.0034614" lon="11.412977"><ele>232.0</ele><time>2026-04-26T09:31:55.169Z</time></trkpt><trkpt lat="43.0033708" lon="11.4128184"><ele>232.0</ele><time>2026-04-26T09:31:56.179Z</time></trkpt><trkpt lat="43.0032778" lon="11.4126554"><ele>232.0</ele><time>2026-04-26T09:31:57.184Z</time></trkpt><trkpt lat="43.0031826" lon="11.4124858"><ele>232.0</ele><time>2026-04-26T09:31:58.176Z</time></trkpt><trkpt lat="43.0030871" lon="11.4123161"><ele>232.0</ele><time>2026-04-26T09:31:59.19Z</time></trkpt><trkpt lat="43.0029928" lon="11.412148"><ele>233.5</ele><time>2026-04-26T09:32:00.172Z</time></trkpt><trkpt lat="43.0029023" lon="11.4119881"><ele>235.0</ele><time>2026-04-26T09:32:01.171Z</time></trkpt><trkpt lat="43.0028129" lon="11.4118312"><ele>236.5</ele><time>2026-04-26T09:32:02.164Z</time></trkpt><trkpt lat="43.0027259" lon="11.411678"><ele>238.0</ele><time>2026-04-26T09:32:03.186Z</time></trkpt><trkpt lat="43.0026411" lon="11.4115265"><ele>238.0</ele><time>2026-04-26T09:32:04.165Z</time></trkpt><trkpt lat="43.002558" lon="11.4113782"><ele>238.0</ele><time>2026-04-26T09:32:05.186Z</time></trkpt><trkpt lat="43.0024753" lon="11.4112302"><ele>238.0</ele><time>2026-04-26T09:32:06.188Z</time></trkpt><trkpt lat="43.0023894" lon="11.4110835"><ele>238.0</ele><time>2026-04-26T09:32:07.182Z</time></trkpt><trkpt lat="43.0023029" lon="11.4109458"><ele>238.25</ele><time>2026-04-26T09:32:08.182Z</time></trkpt><trkpt lat="43.0022069" lon="11.4108293"><ele>238.5</ele><time>2026-04-26T09:32:09.174Z</time></trkpt><trkpt lat="43.0020941" lon="11.4107367"><ele>238.75</ele><time>2026-04-26T09:32:10.181Z</time></trkpt><trkpt lat="43.0019704" lon="11.4106744"><ele>239.0</ele><time>2026-04-26T09:32:11.17Z</time></trkpt><trkpt lat="43.0018382" lon="11.4106558"><ele>239.0</ele><time>2026-04-26T09:32:12.182Z</time></trkpt><trkpt lat="43.0017009" lon="11.4106708"><ele>239.0</ele><time>2026-04-26T09:32:13.174Z</time></trkpt><trkpt lat="43.0015606" lon="11.4106987"><ele>239.0</ele><time>2026-04-26T09:32:14.177Z</time></trkpt><trkpt lat="43.0014186" lon="11.4107272"><ele>239.0</ele><time>2026-04-26T09:32:15.177Z</time></trkpt><trkpt lat="43.0012756" lon="11.410753"><ele>238.75</ele><time>2026-04-26T09:32:16.18Z</time></trkpt><trkpt lat="43.0011337" lon="11.410784"><ele>238.5</ele><time>2026-04-26T09:32:17.186Z</time></trkpt><trkpt lat="43.0009925" lon="11.4108185"><ele>238.25</ele><time>2026-04-26T09:32:18.173Z</time></trkpt><trkpt lat="43.000852" lon="11.4108488"><ele>238.0</ele><time>2026-04-26T09:32:19.173Z</time></trkpt><trkpt lat="43.0007099" lon="11.4108764"><ele>239.0</ele><time>2026-04-26T09:32:20.178Z</time></trkpt><trkpt lat="43.0005674" lon="11.4109042"><ele>240.0</ele><time>2026-04-26T09:32:21.179Z</time></trkpt><trkpt lat="43.0004263" lon="11.4109332"><ele>241.0</ele><time>2026-04-26T09:32:22.179Z</time></trkpt><trkpt lat="43.000286" lon="11.4109615"><ele>242.0</ele><time>2026-04-26T09:32:23.167Z</time></trkpt><trkpt lat="43.000145" lon="11.4109876"><ele>242.0</ele><time>2026-04-26T09:32:24.185Z</time></trkpt><trkpt lat="43.0000034" lon="11.4110129"><ele>242.0</ele><time>2026-04-26T09:32:25.174Z</time></trkpt><trkpt lat="42.999863" lon="11.4110399"><ele>242.0</ele><time>2026-04-26T09:32:26.179Z</time></trkpt><trkpt lat="42.999723" lon="11.4110669"><ele>242.0</ele><time>2026-04-26T09:32:27.188Z</time></trkpt><trkpt lat="42.9995847" lon="11.4110948"><ele>242.0</ele><time>2026-04-26T09:32:28.165Z</time></trkpt><trkpt lat="42.9994474" lon="11.4111231"><ele>242.0</ele><time>2026-04-26T09:32:29.165Z</time></trkpt><trkpt lat="42.9993122" lon="11.4111503"><ele>242.0</ele><time>2026-04-26T09:32:30.184Z</time></trkpt><trkpt lat="42.9991791" lon="11.4111735"><ele>242.0</ele><time>2026-04-26T09:32:31.194Z</time></trkpt><trkpt lat="42.9990496" lon="11.4111984"><ele>242.5</ele><time>2026-04-26T09:32:32.184Z</time></trkpt><trkpt lat="42.9989219" lon="11.411226"><ele>243.0</ele><time>2026-04-26T09:32:33.185Z</time></trkpt><trkpt lat="42.9987929" lon="11.4112525"><ele>243.5</ele><time>2026-04-26T09:32:34.184Z</time></trkpt><trkpt lat="42.9986617" lon="11.4112771"><ele>244.0</ele><time>2026-04-26T09:32:35.174Z</time></trkpt><trkpt lat="42.9985285" lon="11.4113015"><ele>244.75</ele><time>2026-04-26T09:32:36.189Z</time></trkpt><trkpt lat="42.9983962" lon="11.4113277"><ele>245.5</ele><time>2026-04-26T09:32:37.167Z</time></trkpt><trkpt lat="42.998263" lon="11.4113562"><ele>246.25</ele><time>2026-04-26T09:32:38.18Z</time></trkpt><trkpt lat="42.9981301" lon="11.4113847"><ele>247.0</ele><time>2026-04-26T09:32:39.17Z</time></trkpt><trkpt lat="42.9979982" lon="11.4114136"><ele>248.25</ele><time>2026-04-26T09:32:40.168Z</time></trkpt><trkpt lat="42.9978667" lon="11.4114415"><ele>249.5</ele><time>2026-04-26T09:32:41.19Z</time></trkpt><trkpt lat="42.9977339" lon="11.4114664"><ele>250.75</ele><time>2026-04-26T09:32:42.179Z</time></trkpt><trkpt lat="42.9976001" lon="11.4114923"><ele>252.0</ele><time>2026-04-26T09:32:43.19Z</time></trkpt><trkpt lat="42.9974659" lon="11.4115203"><ele>252.0</ele><time>2026-04-26T09:32:44.175Z</time></trkpt><trkpt lat="42.9973306" lon="11.4115476"><ele>252.0</ele><time>2026-04-26T09:32:45.169Z</time></trkpt><trkpt lat="42.9971967" lon="11.4115719"><ele>252.0</ele><time>2026-04-26T09:32:46.176Z</time></trkpt><trkpt lat="42.9970627" lon="11.4115907"><ele>252.0</ele><time>2026-04-26T09:32:47.169Z</time></trkpt><trkpt lat="42.9969286" lon="11.4116044"><ele>252.0</ele><time>2026-04-26T09:32:48.189Z</time></trkpt><trkpt lat="42.996797" lon="11.4116191"><ele>252.0</ele><time>2026-04-26T09:32:49.183Z</time></trkpt><trkpt lat="42.996668" lon="11.4116403"><ele>252.0</ele><time>2026-04-26T09:32:50.177Z</time></trkpt><trkpt lat="42.9965389" lon="11.4116619"><ele>252.0</ele><time>2026-04-26T09:32:51.187Z</time></trkpt><trkpt lat="42.9964176" lon="11.4117119"><ele>252.75</ele><time>2026-04-26T09:32:52.175Z</time></trkpt><trkpt lat="42.9962917" lon="11.4117648"><ele>253.5</ele><time>2026-04-26T09:32:53.175Z</time></trkpt><trkpt lat="42.9961644" lon="11.4118164"><ele>254.25</ele><time>2026-04-26T09:32:54.193Z</time></trkpt><trkpt lat="42.9960352" lon="11.4118638"><ele>255.0</ele><time>2026-04-26T09:32:55.186Z</time></trkpt><trkpt lat="42.995904" lon="11.411909"><ele>254.5</ele><time>2026-04-26T09:32:56.177Z</time></trkpt><trkpt lat="42.995772" lon="11.4119515"><ele>254.0</ele><time>2026-04-26T09:32:57.184Z</time></trkpt><trkpt lat="42.9956386" lon="11.4119904"><ele>253.5</ele><time>2026-04-26T09:32:58.178Z</time></trkpt><trkpt lat="42.9955045" lon="11.4120276"><ele>253.0</ele><time>2026-04-26T09:32:59.19Z</time></trkpt><trkpt lat="42.9953688" lon="11.4120606"><ele>253.0</ele><time>2026-04-26T09:33:00.188Z</time></trkpt><trkpt lat="42.9952307" lon="11.412084"><ele>253.0</ele><time>2026-04-26T09:33:01.181Z</time></trkpt><trkpt lat="42.995091" lon="11.4120903"><ele>253.0</ele><time>2026-04-26T09:33:02.192Z</time></trkpt><trkpt lat="42.9949508" lon="11.4120762"><ele>253.0</ele><time>2026-04-26T09:33:03.188Z</time></trkpt><trkpt lat="42.9948119" lon="11.4120353"><ele>252.5</ele><time>2026-04-26T09:33:04.189Z</time></trkpt><trkpt lat="42.9946767" lon="11.411968"><ele>252.0</ele><time>2026-04-26T09:33:05.169Z</time></trkpt><trkpt lat="42.9945471" lon="11.4118808"><ele>251.5</ele><time>2026-04-26T09:33:06.188Z</time></trkpt><trkpt lat="42.9944204" lon="11.4117842"><ele>251.0</ele><time>2026-04-26T09:33:07.181Z</time></trkpt><trkpt lat="42.9942964" lon="11.4116841"><ele>251.0</ele><time>2026-04-26T09:33:08.176Z</time></trkpt><trkpt lat="42.9941722" lon="11.4115835"><ele>251.0</ele><time>2026-04-26T09:33:09.165Z</time></trkpt><trkpt lat="42.9940481" lon="11.4114838"><ele>251.0</ele><time>2026-04-26T09:33:10.189Z</time></trkpt><trkpt lat="42.9939253" lon="11.4113853"><ele>251.0</ele><time>2026-04-26T09:33:11.186Z</time></trkpt><trkpt lat="42.9938064" lon="11.41128"><ele>249.75</ele><time>2026-04-26T09:33:12.182Z</time></trkpt><trkpt lat="42.993692" lon="11.4111665"><ele>248.5</ele><time>2026-04-26T09:33:13.177Z</time></trkpt><trkpt lat="42.9935819" lon="11.411052"><ele>247.25</ele><time>2026-04-26T09:33:14.183Z</time></trkpt><trkpt lat="42.9934732" lon="11.4109335"><ele>246.0</ele><time>2026-04-26T09:33:15.175Z</time></trkpt><trkpt lat="42.9933668" lon="11.4108186"><ele>246.0</ele><time>2026-04-26T09:33:16.174Z</time></trkpt><trkpt lat="42.9932604" lon="11.4107106"><ele>246.0</ele><time>2026-04-26T09:33:17.183Z</time></trkpt><trkpt lat="42.9931492" lon="11.4106121"><ele>246.0</ele><time>2026-04-26T09:33:18.167Z</time></trkpt><trkpt lat="42.993031" lon="11.4105308"><ele>246.0</ele><time>2026-04-26T09:33:19.19Z</time></trkpt><trkpt lat="42.9929072" lon="11.4104711"><ele>245.5</ele><time>2026-04-26T09:33:20.188Z</time></trkpt><trkpt lat="42.9927796" lon="11.4104303"><ele>245.0</ele><time>2026-04-26T09:33:21.187Z</time></trkpt><trkpt lat="42.9926496" lon="11.4104024"><ele>244.5</ele><time>2026-04-26T09:33:22.184Z</time></trkpt><trkpt lat="42.9925188" lon="11.4103824"><ele>244.0</ele><time>2026-04-26T09:33:23.164Z</time></trkpt><trkpt lat="42.9923888" lon="11.410364"><ele>244.0</ele><time>2026-04-26T09:33:24.169Z</time></trkpt><trkpt lat="42.9922603" lon="11.4103442"><ele>244.0</ele><time>2026-04-26T09:33:25.163Z</time></trkpt><trkpt lat="42.9921319" lon="11.4103296"><ele>244.0</ele><time>2026-04-26T09:33:26.177Z</time></trkpt><trkpt lat="42.9920039" lon="11.4103261"><ele>244.0</ele><time>2026-04-26T09:33:27.18Z</time></trkpt><trkpt lat="42.9918767" lon="11.4103291"><ele>244.0</ele><time>2026-04-26T09:33:28.175Z</time></trkpt><trkpt lat="42.9917485" lon="11.4103356"><ele>244.0</ele><time>2026-04-26T09:33:29.2Z</time></trkpt><trkpt lat="42.9916206" lon="11.4103416"><ele>244.0</ele><time>2026-04-26T09:33:30.167Z</time></trkpt><trkpt lat="42.9914907" lon="11.410347"><ele>244.0</ele><time>2026-04-26T09:33:31.167Z</time></trkpt><trkpt lat="42.9913595" lon="11.4103408"><ele>244.0</ele><time>2026-04-26T09:33:32.189Z</time></trkpt><trkpt lat="42.9912253" lon="11.4103256"><ele>244.0</ele><time>2026-04-26T09:33:33.172Z</time></trkpt><trkpt lat="42.9910881" lon="11.4103053"><ele>244.0</ele><time>2026-04-26T09:33:34.168Z</time></trkpt><trkpt lat="42.990948" lon="11.4102847"><ele>244.0</ele><time>2026-04-26T09:33:35.185Z</time></trkpt><trkpt lat="42.9908074" lon="11.4102658"><ele>244.0</ele><time>2026-04-26T09:33:36.176Z</time></trkpt><trkpt lat="42.9906676" lon="11.410249"><ele>244.0</ele><time>2026-04-26T09:33:37.177Z</time></trkpt><trkpt lat="42.9905321" lon="11.4102349"><ele>244.0</ele><time>2026-04-26T09:33:38.168Z</time></trkpt><trkpt lat="42.9903985" lon="11.4102247"><ele>244.0</ele><time>2026-04-26T09:33:39.185Z</time></trkpt><trkpt lat="42.9902674" lon="11.4102275"><ele>244.0</ele><time>2026-04-26T09:33:40.191Z</time></trkpt><trkpt lat="42.9901403" lon="11.4102497"><ele>244.0</ele><time>2026-04-26T09:33:41.165Z</time></trkpt><trkpt lat="42.9900167" lon="11.4102742"><ele>244.0</ele><time>2026-04-26T09:33:42.187Z</time></trkpt><trkpt lat="42.9899003" lon="11.4103233"><ele>244.0</ele><time>2026-04-26T09:33:43.185Z</time></trkpt><trkpt lat="42.9897833" lon="11.4103717"><ele>244.0</ele><time>2026-04-26T09:33:44.168Z</time></trkpt><trkpt lat="42.9896633" lon="11.410409"><ele>244.0</ele><time>2026-04-26T09:33:45.196Z</time></trkpt><trkpt lat="42.9895394" lon="11.4104333"><ele>244.0</ele><time>2026-04-26T09:33:46.184Z</time></trkpt><trkpt lat="42.9894097" lon="11.4104471"><ele>244.0</ele><time>2026-04-26T09:33:47.184Z</time></trkpt><trkpt lat="42.9892746" lon="11.4104548"><ele>242.5</ele><time>2026-04-26T09:33:48.183Z</time></trkpt><trkpt lat="42.9891343" lon="11.410459"><ele>241.0</ele><time>2026-04-26T09:33:49.188Z</time></trkpt><trkpt lat="42.9889897" lon="11.4104556"><ele>239.5</ele><time>2026-04-26T09:33:50.185Z</time></trkpt><trkpt lat="42.9888424" lon="11.4104441"><ele>238.0</ele><time>2026-04-26T09:33:51.189Z</time></trkpt><trkpt lat="42.9886948" lon="11.4104259"><ele>238.0</ele><time>2026-04-26T09:33:52.189Z</time></trkpt><trkpt lat="42.9885474" lon="11.4104027"><ele>238.0</ele><time>2026-04-26T09:33:53.187Z</time></trkpt><trkpt lat="42.9884012" lon="11.4103778"><ele>238.0</ele><time>2026-04-26T09:33:54.173Z</time></trkpt><trkpt lat="42.9882568" lon="11.410353"><ele>238.0</ele><time>2026-04-26T09:33:55.173Z</time></trkpt><trkpt lat="42.988113" lon="11.4103282"><ele>237.0</ele><time>2026-04-26T09:33:56.19Z</time></trkpt><trkpt lat="42.9879696" lon="11.4103029"><ele>236.0</ele><time>2026-04-26T09:33:57.184Z</time></trkpt><trkpt lat="42.9878269" lon="11.410277"><ele>235.0</ele><time>2026-04-26T09:33:58.189Z</time></trkpt><trkpt lat="42.9876833" lon="11.4102492"><ele>234.0</ele><time>2026-04-26T09:33:59.172Z</time></trkpt><trkpt lat="42.9875395" lon="11.410219"><ele>234.5</ele><time>2026-04-26T09:34:00.169Z</time></trkpt><trkpt lat="42.9873947" lon="11.4101894"><ele>235.0</ele><time>2026-04-26T09:34:01.19Z</time></trkpt><trkpt lat="42.987249" lon="11.4101579"><ele>235.5</ele><time>2026-04-26T09:34:02.194Z</time></trkpt><trkpt lat="42.9871023" lon="11.4101246"><ele>236.0</ele><time>2026-04-26T09:34:03.164Z</time></trkpt><trkpt lat="42.9869549" lon="11.4100909"><ele>236.0</ele><time>2026-04-26T09:34:04.176Z</time></trkpt><trkpt lat="42.986807" lon="11.4100566"><ele>236.0</ele><time>2026-04-26T09:34:05.184Z</time></trkpt><trkpt lat="42.986659" lon="11.4100223"><ele>236.0</ele><time>2026-04-26T09:34:06.167Z</time></trkpt><trkpt lat="42.9865123" lon="11.4099843"><ele>236.0</ele><time>2026-04-26T09:34:07.183Z</time></trkpt><trkpt lat="42.9863677" lon="11.4099425"><ele>235.0</ele><time>2026-04-26T09:34:08.195Z</time></trkpt><trkpt lat="42.9862248" lon="11.4099018"><ele>234.0</ele><time>2026-04-26T09:34:09.189Z</time></trkpt><trkpt lat="42.9860845" lon="11.409853"><ele>233.0</ele><time>2026-04-26T09:34:10.182Z</time></trkpt><trkpt lat="42.9859518" lon="11.4097839"><ele>232.0</ele><time>2026-04-26T09:34:11.175Z</time></trkpt><trkpt lat="42.985824" lon="11.4097036"><ele>229.75</ele><time>2026-04-26T09:34:12.181Z</time></trkpt><trkpt lat="42.9856982" lon="11.409624"><ele>227.5</ele><time>2026-04-26T09:34:13.185Z</time></trkpt><trkpt lat="42.9855697" lon="11.409554"><ele>225.25</ele><time>2026-04-26T09:34:14.162Z</time></trkpt><trkpt lat="42.9854354" lon="11.4094923"><ele>223.0</ele><time>2026-04-26T09:34:15.167Z</time></trkpt><trkpt lat="42.9852934" lon="11.4094369"><ele>223.0</ele><time>2026-04-26T09:34:16.185Z</time></trkpt><trkpt lat="42.985144" lon="11.4093835"><ele>223.0</ele><time>2026-04-26T09:34:17.189Z</time></trkpt><trkpt lat="42.9849883" lon="11.4093322"><ele>223.0</ele><time>2026-04-26T09:34:18.179Z</time></trkpt><trkpt lat="42.9848292" lon="11.4092735"><ele>222.33333333333331</ele><time>2026-04-26T09:34:19.188Z</time></trkpt><trkpt lat="42.984677" lon="11.4091957"><ele>221.66666666666669</ele><time>2026-04-26T09:34:20.184Z</time></trkpt><trkpt lat="42.9845347" lon="11.409101"><ele>221.0</ele><time>2026-04-26T09:34:21.186Z</time></trkpt><trkpt lat="42.9844001" lon="11.408999"><ele>221.0</ele><time>2026-04-26T09:34:22.175Z</time></trkpt><trkpt lat="42.9842706" lon="11.4088973"><ele>221.0</ele><time>2026-04-26T09:34:23.185Z</time></trkpt><trkpt lat="42.9841438" lon="11.4087963"><ele>221.0</ele><time>2026-04-26T09:34:24.165Z</time></trkpt><trkpt lat="42.9840194" lon="11.4086962"><ele>221.0</ele><time>2026-04-26T09:34:25.181Z</time></trkpt><trkpt lat="42.9838982" lon="11.4085974"><ele>218.0</ele><time>2026-04-26T09:34:26.189Z</time></trkpt><trkpt lat="42.9837795" lon="11.4084988"><ele>215.0</ele><time>2026-04-26T09:34:27.179Z</time></trkpt><trkpt lat="42.9836639" lon="11.4084002"><ele>212.0</ele><time>2026-04-26T09:34:28.197Z</time></trkpt><trkpt lat="42.9835496" lon="11.4083015"><ele>209.0</ele><time>2026-04-26T09:34:29.184Z</time></trkpt><trkpt lat="42.9834369" lon="11.408205"><ele>209.5</ele><time>2026-04-26T09:34:30.172Z</time></trkpt><trkpt lat="42.9833239" lon="11.4081105"><ele>210.0</ele><time>2026-04-26T09:34:31.179Z</time></trkpt><trkpt lat="42.983212" lon="11.4080198"><ele>210.5</ele><time>2026-04-26T09:34:32.164Z</time></trkpt><trkpt lat="42.9831016" lon="11.4079319"><ele>211.0</ele><time>2026-04-26T09:34:33.182Z</time></trkpt><trkpt lat="42.9829945" lon="11.4078465"><ele>209.8</ele><time>2026-04-26T09:34:34.161Z</time></trkpt><trkpt lat="42.982893" lon="11.407765"><ele>208.60000000000002</ele><time>2026-04-26T09:34:35.177Z</time></trkpt><trkpt lat="42.982796" lon="11.4076887"><ele>207.4</ele><time>2026-04-26T09:34:36.187Z</time></trkpt><trkpt lat="42.9827048" lon="11.4076158"><ele>206.2</ele><time>2026-04-26T09:34:37.186Z</time></trkpt><trkpt lat="42.9826216" lon="11.4075528"><ele>205.0</ele><time>2026-04-26T09:34:38.184Z</time></trkpt><trkpt lat="42.9825464" lon="11.4075112"><ele>205.16666666666666</ele><time>2026-04-26T09:34:39.184Z</time></trkpt><trkpt lat="42.9824778" lon="11.4075083"><ele>205.33333333333331</ele><time>2026-04-26T09:34:40.171Z</time></trkpt><trkpt lat="42.9824172" lon="11.4075463"><ele>205.5</ele><time>2026-04-26T09:34:41.188Z</time></trkpt><trkpt lat="42.9823679" lon="11.407618"><ele>205.66666666666669</ele><time>2026-04-26T09:34:42.181Z</time></trkpt><trkpt lat="42.9823281" lon="11.4077132"><ele>205.83333333333334</ele><time>2026-04-26T09:34:43.188Z</time></trkpt><trkpt lat="42.9822914" lon="11.4078198"><ele>206.0</ele><time>2026-04-26T09:34:44.194Z</time></trkpt><trkpt lat="42.9822537" lon="11.407933"><ele>206.8</ele><time>2026-04-26T09:34:45.175Z</time></trkpt><trkpt lat="42.982216" lon="11.4080495"><ele>207.60000000000002</ele><time>2026-04-26T09:34:46.176Z</time></trkpt><trkpt lat="42.9821762" lon="11.4081693"><ele>208.4</ele><time>2026-04-26T09:34:47.178Z</time></trkpt><trkpt lat="42.9821326" lon="11.4082936"><ele>209.2</ele><time>2026-04-26T09:34:48.171Z</time></trkpt><trkpt lat="42.9820801" lon="11.4084217"><ele>210.0</ele><time>2026-04-26T09:34:49.191Z</time></trkpt><trkpt lat="42.9820143" lon="11.4085496"><ele>210.0</ele><time>2026-04-26T09:34:50.183Z</time></trkpt><trkpt lat="42.9819281" lon="11.4086778"><ele>210.0</ele><time>2026-04-26T09:34:51.194Z</time></trkpt><trkpt lat="42.9818153" lon="11.4088021"><ele>210.0</ele><time>2026-04-26T09:34:52.185Z</time></trkpt><trkpt lat="42.9816689" lon="11.4089056"><ele>210.0</ele><time>2026-04-26T09:34:53.172Z</time></trkpt><trkpt lat="42.9815072" lon="11.4089728"><ele>211.25</ele><time>2026-04-26T09:34:54.174Z</time></trkpt><trkpt lat="42.9813559" lon="11.4090065"><ele>212.5</ele><time>2026-04-26T09:34:55.175Z</time></trkpt><trkpt lat="42.981214" lon="11.4090286"><ele>213.75</ele><time>2026-04-26T09:34:56.181Z</time></trkpt><trkpt lat="42.98108" lon="11.4090523"><ele>215.0</ele><time>2026-04-26T09:34:57.167Z</time></trkpt><trkpt lat="42.9809527" lon="11.4090801"><ele>215.5</ele><time>2026-04-26T09:34:58.18Z</time></trkpt><trkpt lat="42.9808283" lon="11.4091112"><ele>216.0</ele><time>2026-04-26T09:34:59.184Z</time></trkpt><trkpt lat="42.9807058" lon="11.4091443"><ele>216.5</ele><time>2026-04-26T09:35:00.18Z</time></trkpt><trkpt lat="42.9805854" lon="11.4091739"><ele>217.0</ele><time>2026-04-26T09:35:01.174Z</time></trkpt><trkpt lat="42.9804721" lon="11.4092021"><ele>217.0</ele><time>2026-04-26T09:35:02.184Z</time></trkpt><trkpt lat="42.9803648" lon="11.4092447"><ele>217.0</ele><time>2026-04-26T09:35:03.18Z</time></trkpt><trkpt lat="42.9802605" lon="11.4092881"><ele>217.0</ele><time>2026-04-26T09:35:04.176Z</time></trkpt><trkpt lat="42.9801542" lon="11.4093203"><ele>217.0</ele><time>2026-04-26T09:35:05.176Z</time></trkpt><trkpt lat="42.9800373" lon="11.4093337"><ele>217.0</ele><time>2026-04-26T09:35:06.19Z</time></trkpt><trkpt lat="42.979915" lon="11.4093154"><ele>215.25</ele><time>2026-04-26T09:35:07.18Z</time></trkpt><trkpt lat="42.9797902" lon="11.409295"><ele>213.5</ele><time>2026-04-26T09:35:08.186Z</time></trkpt><trkpt lat="42.9796665" lon="11.4092827"><ele>211.75</ele><time>2026-04-26T09:35:09.187Z</time></trkpt><trkpt lat="42.979547" lon="11.4092669"><ele>210.0</ele><time>2026-04-26T09:35:10.181Z</time></trkpt><trkpt lat="42.9794277" lon="11.40925"><ele>210.0</ele><time>2026-04-26T09:35:11.181Z</time></trkpt><trkpt lat="42.9793063" lon="11.4092346"><ele>210.0</ele><time>2026-04-26T09:35:12.186Z</time></trkpt><trkpt lat="42.9791861" lon="11.4092432"><ele>210.0</ele><time>2026-04-26T09:35:13.168Z</time></trkpt><trkpt lat="42.9790714" lon="11.4092803"><ele>210.0</ele><time>2026-04-26T09:35:14.18Z</time></trkpt><trkpt lat="42.9789628" lon="11.4093395"><ele>208.0</ele><time>2026-04-26T09:35:15.18Z</time></trkpt><trkpt lat="42.9788585" lon="11.4093898"><ele>206.0</ele><time>2026-04-26T09:35:16.188Z</time></trkpt><trkpt lat="42.9787553" lon="11.4094288"><ele>204.0</ele><time>2026-04-26T09:35:17.18Z</time></trkpt><trkpt lat="42.9786499" lon="11.4094593"><ele>202.0</ele><time>2026-04-26T09:35:18.165Z</time></trkpt><trkpt lat="42.9785359" lon="11.409446"><ele>200.0</ele><time>2026-04-26T09:35:19.175Z</time></trkpt><trkpt lat="42.9784129" lon="11.4093992"><ele>197.75</ele><time>2026-04-26T09:35:20.165Z</time></trkpt><trkpt lat="42.9782897" lon="11.4093458"><ele>195.5</ele><time>2026-04-26T09:35:21.174Z</time></trkpt><trkpt lat="42.9781618" lon="11.4092845"><ele>193.25</ele><time>2026-04-26T09:35:22.184Z</time></trkpt><trkpt lat="42.978033" lon="11.4092269"><ele>191.0</ele><time>2026-04-26T09:35:23.19Z</time></trkpt><trkpt lat="42.977902" lon="11.4091725"><ele>191.0</ele><time>2026-04-26T09:35:24.173Z</time></trkpt><trkpt lat="42.9777654" lon="11.4091152"><ele>191.0</ele><time>2026-04-26T09:35:25.18Z</time></trkpt><trkpt lat="42.9776329" lon="11.4090582"><ele>191.0</ele><time>2026-04-26T09:35:26.164Z</time></trkpt><trkpt lat="42.9775008" lon="11.4089972"><ele>191.0</ele><time>2026-04-26T09:35:27.181Z</time></trkpt><trkpt lat="42.9773766" lon="11.4089203"><ele>189.25</ele><time>2026-04-26T09:35:28.184Z</time></trkpt><trkpt lat="42.9772522" lon="11.4088437"><ele>187.5</ele><time>2026-04-26T09:35:29.179Z</time></trkpt><trkpt lat="42.9771275" lon="11.4087639"><ele>185.75</ele><time>2026-04-26T09:35:30.173Z</time></trkpt><trkpt lat="42.9770053" lon="11.4086878"><ele>184.0</ele><time>2026-04-26T09:35:31.177Z</time></trkpt><trkpt lat="42.9768852" lon="11.4086166"><ele>182.6</ele><time>2026-04-26T09:35:32.179Z</time></trkpt><trkpt lat="42.9767699" lon="11.4085615"><ele>181.2</ele><time>2026-04-26T09:35:33.175Z</time></trkpt><trkpt lat="42.9766648" lon="11.4085341"><ele>179.79999999999998</ele><time>2026-04-26T09:35:34.179Z</time></trkpt><trkpt lat="42.9765703" lon="11.4085379"><ele>178.39999999999998</ele><time>2026-04-26T09:35:35.174Z</time></trkpt><trkpt lat="42.9764862" lon="11.4085836"><ele>177.0</ele><time>2026-04-26T09:35:36.19Z</time></trkpt><trkpt lat="42.9764195" lon="11.4086642"><ele>176.6</ele><time>2026-04-26T09:35:37.183Z</time></trkpt><trkpt lat="42.9763778" lon="11.4087731"><ele>176.2</ele><time>2026-04-26T09:35:38.183Z</time></trkpt><trkpt lat="42.9763616" lon="11.4089017"><ele>175.8</ele><time>2026-04-26T09:35:39.171Z</time></trkpt><trkpt lat="42.9763509" lon="11.4090403"><ele>175.4</ele><time>2026-04-26T09:35:40.182Z</time></trkpt><trkpt lat="42.9763341" lon="11.4091808"><ele>175.0</ele><time>2026-04-26T09:35:41.173Z</time></trkpt><trkpt lat="42.9762991" lon="11.4093174"><ele>175.0</ele><time>2026-04-26T09:35:42.187Z</time></trkpt><trkpt lat="42.9762557" lon="11.409447"><ele>175.0</ele><time>2026-04-26T09:35:43.186Z</time></trkpt><trkpt lat="42.9762024" lon="11.4095709"><ele>175.0</ele><time>2026-04-26T09:35:44.174Z</time></trkpt><trkpt lat="42.9761407" lon="11.4096887"><ele>175.0</ele><time>2026-04-26T09:35:45.181Z</time></trkpt><trkpt lat="42.9760651" lon="11.4098006"><ele>175.0</ele><time>2026-04-26T09:35:46.177Z</time></trkpt><trkpt lat="42.9759718" lon="11.4098883"><ele>176.0</ele><time>2026-04-26T09:35:47.172Z</time></trkpt><trkpt lat="42.9758621" lon="11.4099524"><ele>177.0</ele><time>2026-04-26T09:35:48.187Z</time></trkpt><trkpt lat="42.9757514" lon="11.4100094"><ele>178.0</ele><time>2026-04-26T09:35:49.186Z</time></trkpt><trkpt lat="42.9756426" lon="11.4100722"><ele>179.0</ele><time>2026-04-26T09:35:50.186Z</time></trkpt><trkpt lat="42.9755356" lon="11.4101315"><ele>176.6</ele><time>2026-04-26T09:35:51.188Z</time></trkpt><trkpt lat="42.9754377" lon="11.4101995"><ele>174.2</ele><time>2026-04-26T09:35:52.186Z</time></trkpt><trkpt lat="42.9753413" lon="11.4102692"><ele>171.79999999999998</ele><time>2026-04-26T09:35:53.193Z</time></trkpt><trkpt lat="42.9752706" lon="11.4103767"><ele>169.39999999999998</ele><time>2026-04-26T09:35:54.186Z</time></trkpt><trkpt lat="42.9752232" lon="11.4105097"><ele>167.0</ele><time>2026-04-26T09:35:55.176Z</time></trkpt><trkpt lat="42.9751877" lon="11.4106545"><ele>167.0</ele><time>2026-04-26T09:35:56.186Z</time></trkpt><trkpt lat="42.9751506" lon="11.4107994"><ele>167.0</ele><time>2026-04-26T09:35:57.173Z</time></trkpt><trkpt lat="42.9750958" lon="11.4109338"><ele>167.0</ele><time>2026-04-26T09:35:58.169Z</time></trkpt><trkpt lat="42.9750296" lon="11.4110518"><ele>167.0</ele><time>2026-04-26T09:35:59.174Z</time></trkpt><trkpt lat="42.9749552" lon="11.4111581"><ele>167.0</ele><time>2026-04-26T09:36:00.17Z</time></trkpt><trkpt lat="42.9748776" lon="11.4112563"><ele>164.79999999999998</ele><time>2026-04-26T09:36:01.169Z</time></trkpt><trkpt lat="42.9747969" lon="11.4113532"><ele>162.6</ele><time>2026-04-26T09:36:02.184Z</time></trkpt><trkpt lat="42.9747141" lon="11.4114536"><ele>160.39999999999998</ele><time>2026-04-26T09:36:03.18Z</time></trkpt><trkpt lat="42.9746309" lon="11.4115559"><ele>158.2</ele><time>2026-04-26T09:36:04.184Z</time></trkpt><trkpt lat="42.9745478" lon="11.4116602"><ele>156.0</ele><time>2026-04-26T09:36:05.197Z</time></trkpt><trkpt lat="42.9744626" lon="11.4117668"><ele>156.0</ele><time>2026-04-26T09:36:06.169Z</time></trkpt><trkpt lat="42.9743755" lon="11.4118775"><ele>156.0</ele><time>2026-04-26T09:36:07.167Z</time></trkpt><trkpt lat="42.9742851" lon="11.4119907"><ele>156.0</ele><time>2026-04-26T09:36:08.186Z</time></trkpt><trkpt lat="42.9741918" lon="11.4121062"><ele>156.0</ele><time>2026-04-26T09:36:09.186Z</time></trkpt><trkpt lat="42.9740964" lon="11.4122243"><ele>153.5</ele><time>2026-04-26T09:36:10.176Z</time></trkpt><trkpt lat="42.9739988" lon="11.4123451"><ele>151.0</ele><time>2026-04-26T09:36:11.167Z</time></trkpt><trkpt lat="42.9738986" lon="11.4124683"><ele>148.5</ele><time>2026-04-26T09:36:12.189Z</time></trkpt><trkpt lat="42.973796" lon="11.4125945"><ele>146.0</ele><time>2026-04-26T09:36:13.175Z</time></trkpt><trkpt lat="42.9736916" lon="11.4127246"><ele>146.0</ele><time>2026-04-26T09:36:14.19Z</time></trkpt><trkpt lat="42.9735852" lon="11.4128575"><ele>146.0</ele><time>2026-04-26T09:36:15.17Z</time></trkpt><trkpt lat="42.9734771" lon="11.4129932"><ele>146.0</ele><time>2026-04-26T09:36:16.19Z</time></trkpt><trkpt lat="42.9733677" lon="11.4131297"><ele>146.0</ele><time>2026-04-26T09:36:17.181Z</time></trkpt><trkpt lat="42.9732551" lon="11.4132708"><ele>143.0</ele><time>2026-04-26T09:36:18.19Z</time></trkpt><trkpt lat="42.9731403" lon="11.4134168"><ele>140.0</ele><time>2026-04-26T09:36:19.184Z</time></trkpt><trkpt lat="42.973023" lon="11.4135651"><ele>137.0</ele><time>2026-04-26T09:36:20.18Z</time></trkpt><trkpt lat="42.9729055" lon="11.4137144"><ele>134.33333333333331</ele><time>2026-04-26T09:36:21.177Z</time></trkpt><trkpt lat="42.9727912" lon="11.4138621"><ele>131.66666666666666</ele><time>2026-04-26T09:36:22.188Z</time></trkpt><trkpt lat="42.9726782" lon="11.4140106"><ele>129.0</ele><time>2026-04-26T09:36:23.186Z</time></trkpt><trkpt lat="42.9725659" lon="11.4141587"><ele>129.0</ele><time>2026-04-26T09:36:24.189Z</time></trkpt><trkpt lat="42.9724538" lon="11.4143066"><ele>129.0</ele><time>2026-04-26T09:36:25.172Z</time></trkpt><trkpt lat="42.9723406" lon="11.4144536"><ele>129.0</ele><time>2026-04-26T09:36:26.182Z</time></trkpt><trkpt lat="42.9722204" lon="11.414595"><ele>126.66666666666666</ele><time>2026-04-26T09:36:27.168Z</time></trkpt><trkpt lat="42.9720885" lon="11.4147264"><ele>124.33333333333333</ele><time>2026-04-26T09:36:28.19Z</time></trkpt><trkpt lat="42.9719473" lon="11.4148479"><ele>122.0</ele><time>2026-04-26T09:36:29.182Z</time></trkpt><trkpt lat="42.9718007" lon="11.4149532"><ele>121.66666666666666</ele><time>2026-04-26T09:36:30.182Z</time></trkpt><trkpt lat="42.9716491" lon="11.4150567"><ele>121.33333333333334</ele><time>2026-04-26T09:36:31.17Z</time></trkpt><trkpt lat="42.9714969" lon="11.4151536"><ele>121.0</ele><time>2026-04-26T09:36:32.192Z</time></trkpt><trkpt lat="42.9713439" lon="11.4152449"><ele>121.0</ele><time>2026-04-26T09:36:33.169Z</time></trkpt><trkpt lat="42.9711913" lon="11.4153314"><ele>121.0</ele><time>2026-04-26T09:36:34.186Z</time></trkpt><trkpt lat="42.9710407" lon="11.4154162"><ele>121.0</ele><time>2026-04-26T09:36:35.178Z</time></trkpt><trkpt lat="42.9708926" lon="11.4155018"><ele>119.0</ele><time>2026-04-26T09:36:36.187Z</time></trkpt><trkpt lat="42.9707473" lon="11.4155888"><ele>117.0</ele><time>2026-04-26T09:36:37.187Z</time></trkpt><trkpt lat="42.9706038" lon="11.4156747"><ele>115.0</ele><time>2026-04-26T09:36:38.189Z</time></trkpt><trkpt lat="42.9704616" lon="11.4157578"><ele>115.0</ele><time>2026-04-26T09:36:39.187Z</time></trkpt><trkpt lat="42.9703211" lon="11.415838"><ele>115.0</ele><time>2026-04-26T09:36:40.192Z</time></trkpt><trkpt lat="42.9701828" lon="11.4159163"><ele>115.0</ele><time>2026-04-26T09:36:41.185Z</time></trkpt><trkpt lat="42.9700449" lon="11.4159932"><ele>114.33333333333334</ele><time>2026-04-26T09:36:42.176Z</time></trkpt><trkpt lat="42.9699061" lon="11.4160707"><ele>113.66666666666666</ele><time>2026-04-26T09:36:43.192Z</time></trkpt><trkpt lat="42.9697661" lon="11.4161501"><ele>113.0</ele><time>2026-04-26T09:36:44.173Z</time></trkpt><trkpt lat="42.9696253" lon="11.4162307"><ele>113.0</ele><time>2026-04-26T09:36:45.169Z</time></trkpt><trkpt lat="42.9694841" lon="11.4163096"><ele>113.0</ele><time>2026-04-26T09:36:46.189Z</time></trkpt><trkpt lat="42.9693438" lon="11.4163884"><ele>113.0</ele><time>2026-04-26T09:36:47.186Z</time></trkpt><trkpt lat="42.9692104" lon="11.4164737"><ele>112.5</ele><time>2026-04-26T09:36:48.17Z</time></trkpt><trkpt lat="42.9690895" lon="11.4165663"><ele>112.0</ele><time>2026-04-26T09:36:49.193Z</time></trkpt><trkpt lat="42.9689822" lon="11.4166611"><ele>111.5</ele><time>2026-04-26T09:36:50.175Z</time></trkpt><trkpt lat="42.9688875" lon="11.4167611"><ele>111.0</ele><time>2026-04-26T09:36:51.176Z</time></trkpt><trkpt lat="42.9688143" lon="11.4168802"><ele>111.0</ele><time>2026-04-26T09:36:52.188Z</time></trkpt><trkpt lat="42.9687735" lon="11.4170365"><ele>111.0</ele><time>2026-04-26T09:36:53.173Z</time></trkpt><trkpt lat="42.9687756" lon="11.417223"><ele>111.0</ele><time>2026-04-26T09:36:54.181Z</time></trkpt><trkpt lat="42.9687912" lon="11.417411"><ele>111.0</ele><time>2026-04-26T09:36:55.181Z</time></trkpt><trkpt lat="42.9688506" lon="11.417591"><ele>111.4</ele><time>2026-04-26T09:36:56.179Z</time></trkpt><trkpt lat="42.9688981" lon="11.4177565"><ele>111.8</ele><time>2026-04-26T09:36:57.186Z</time></trkpt><trkpt lat="42.9689269" lon="11.417901"><ele>112.20000000000002</ele><time>2026-04-26T09:36:58.177Z</time></trkpt><trkpt lat="42.9689346" lon="11.4180373"><ele>112.60000000000001</ele><time>2026-04-26T09:36:59.181Z</time></trkpt><trkpt lat="42.9689111" lon="11.4181667"><ele>113.0</ele><time>2026-04-26T09:37:00.177Z</time></trkpt><trkpt lat="42.9688755" lon="11.4182955"><ele>115.80000000000001</ele><time>2026-04-26T09:37:01.175Z</time></trkpt><trkpt lat="42.9687938" lon="11.4183885"><ele>118.60000000000001</ele><time>2026-04-26T09:37:02.191Z</time></trkpt><trkpt lat="42.968705" lon="11.418478"><ele>121.39999999999999</ele><time>2026-04-26T09:37:03.179Z</time></trkpt><trkpt lat="42.9686166" lon="11.4185745"><ele>124.19999999999999</ele><time>2026-04-26T09:37:04.172Z</time></trkpt><trkpt lat="42.9685371" lon="11.4186864"><ele>127.0</ele><time>2026-04-26T09:37:05.173Z</time></trkpt><trkpt lat="42.9684672" lon="11.4188093"><ele>128.79999999999998</ele><time>2026-04-26T09:37:06.171Z</time></trkpt><trkpt lat="42.9684004" lon="11.4189326"><ele>130.6</ele><time>2026-04-26T09:37:07.188Z</time></trkpt><trkpt lat="42.9683726" lon="11.4190856"><ele>132.39999999999998</ele><time>2026-04-26T09:37:08.179Z</time></trkpt><trkpt lat="42.9683508" lon="11.4192299"><ele>134.2</ele><time>2026-04-26T09:37:09.174Z</time></trkpt><trkpt lat="42.96834" lon="11.4193842"><ele>136.0</ele><time>2026-04-26T09:37:10.165Z</time></trkpt><trkpt lat="42.9683285" lon="11.4195361"><ele>135.5</ele><time>2026-04-26T09:37:11.174Z</time></trkpt><trkpt lat="42.9683216" lon="11.419684"><ele>135.0</ele><time>2026-04-26T09:37:12.168Z</time></trkpt><trkpt lat="42.9683274" lon="11.4198334"><ele>134.5</ele><time>2026-04-26T09:37:13.17Z</time></trkpt><trkpt lat="42.9683375" lon="11.4199943"><ele>134.0</ele><time>2026-04-26T09:37:14.191Z</time></trkpt><trkpt lat="42.9683728" lon="11.4201707"><ele>135.33333333333331</ele><time>2026-04-26T09:37:15.174Z</time></trkpt><trkpt lat="42.9684173" lon="11.4203697"><ele>136.66666666666666</ele><time>2026-04-26T09:37:16.187Z</time></trkpt><trkpt lat="42.9684653" lon="11.4205912"><ele>138.0</ele><time>2026-04-26T09:37:17.181Z</time></trkpt><trkpt lat="42.9685196" lon="11.4208358"><ele>138.0</ele><time>2026-04-26T09:37:18.193Z</time></trkpt><trkpt lat="42.968575" lon="11.4210862"><ele>138.0</ele><time>2026-04-26T09:37:19.175Z</time></trkpt><trkpt lat="42.9686287" lon="11.4213321"><ele>138.0</ele><time>2026-04-26T09:37:20.176Z</time></trkpt><trkpt lat="42.9686797" lon="11.4215655"><ele>138.66666666666666</ele><time>2026-04-26T09:37:21.187Z</time></trkpt><trkpt lat="42.9687277" lon="11.4217885"><ele>139.33333333333331</ele><time>2026-04-26T09:37:22.19Z</time></trkpt><trkpt lat="42.968771" lon="11.4220007"><ele>140.0</ele><time>2026-04-26T09:37:23.19Z</time></trkpt><trkpt lat="42.9688091" lon="11.4222053"><ele>140.0</ele><time>2026-04-26T09:37:24.19Z</time></trkpt><trkpt lat="42.9688327" lon="11.4224092"><ele>140.0</ele><time>2026-04-26T09:37:25.184Z</time></trkpt><trkpt lat="42.9688361" lon="11.4226117"><ele>140.0</ele><time>2026-04-26T09:37:26.175Z</time></trkpt><trkpt lat="42.9688281" lon="11.4228116"><ele>140.0</ele><time>2026-04-26T09:37:27.19Z</time></trkpt><trkpt lat="42.9688144" lon="11.4230065"><ele>140.5</ele><time>2026-04-26T09:37:28.179Z</time></trkpt><trkpt lat="42.9687989" lon="11.4231963"><ele>141.0</ele><time>2026-04-26T09:37:29.194Z</time></trkpt><trkpt lat="42.9687834" lon="11.4233817"><ele>141.5</ele><time>2026-04-26T09:37:30.171Z</time></trkpt><trkpt lat="42.9687667" lon="11.4235648"><ele>142.0</ele><time>2026-04-26T09:37:31.186Z</time></trkpt><trkpt lat="42.9687391" lon="11.4237508"><ele>142.25</ele><time>2026-04-26T09:37:32.174Z</time></trkpt><trkpt lat="42.9687027" lon="11.4239361"><ele>142.5</ele><time>2026-04-26T09:37:33.175Z</time></trkpt><trkpt lat="42.9686596" lon="11.4241173"><ele>142.75</ele><time>2026-04-26T09:37:34.193Z</time></trkpt><trkpt lat="42.968607" lon="11.4242925"><ele>143.0</ele><time>2026-04-26T09:37:35.173Z</time></trkpt><trkpt lat="42.9685488" lon="11.4244614"><ele>143.0</ele><time>2026-04-26T09:37:36.171Z</time></trkpt><trkpt lat="42.9684915" lon="11.4246326"><ele>143.0</ele><time>2026-04-26T09:37:37.184Z</time></trkpt><trkpt lat="42.968431" lon="11.4248023"><ele>143.0</ele><time>2026-04-26T09:37:38.175Z</time></trkpt><trkpt lat="42.9683653" lon="11.4249688"><ele>143.0</ele><time>2026-04-26T09:37:39.187Z</time></trkpt><trkpt lat="42.9683041" lon="11.4251356"><ele>139.5</ele><time>2026-04-26T09:37:40.178Z</time></trkpt><trkpt lat="42.9682468" lon="11.4252981"><ele>136.0</ele><time>2026-04-26T09:37:41.181Z</time></trkpt><trkpt lat="42.9681917" lon="11.4254517"><ele>132.5</ele><time>2026-04-26T09:37:42.187Z</time></trkpt><trkpt lat="42.9681398" lon="11.4255978"><ele>129.0</ele><time>2026-04-26T09:37:43.179Z</time></trkpt><trkpt lat="42.9680906" lon="11.4257403"><ele>128.6</ele><time>2026-04-26T09:37:44.188Z</time></trkpt><trkpt lat="42.9680455" lon="11.4258783"><ele>128.2</ele><time>2026-04-26T09:37:45.191Z</time></trkpt><trkpt lat="42.9680082" lon="11.4260149"><ele>127.79999999999998</ele><time>2026-04-26T09:37:46.185Z</time></trkpt><trkpt lat="42.9679649" lon="11.4261454"><ele>127.39999999999999</ele><time>2026-04-26T09:37:47.188Z</time></trkpt><trkpt lat="42.9679164" lon="11.4262652"><ele>127.0</ele><time>2026-04-26T09:37:48.188Z</time></trkpt><trkpt lat="42.9678559" lon="11.4263727"><ele>128.33333333333334</ele><time>2026-04-26T09:37:49.185Z</time></trkpt><trkpt lat="42.9677918" lon="11.4264685"><ele>129.66666666666669</ele><time>2026-04-26T09:37:50.191Z</time></trkpt><trkpt lat="42.9677294" lon="11.4265614"><ele>131.0</ele><time>2026-04-26T09:37:51.175Z</time></trkpt><trkpt lat="42.9676687" lon="11.4266503"><ele>132.33333333333334</ele><time>2026-04-26T09:37:52.19Z</time></trkpt><trkpt lat="42.9676106" lon="11.426732"><ele>133.66666666666666</ele><time>2026-04-26T09:37:53.178Z</time></trkpt><trkpt lat="42.9675585" lon="11.426799"><ele>135.0</ele><time>2026-04-26T09:37:54.175Z</time></trkpt><trkpt lat="42.9674508" lon="11.4268342"><ele>132.33333333333334</ele><time>2026-04-26T09:37:56.169Z</time></trkpt><trkpt lat="42.9673935" lon="11.4267876"><ele>129.66666666666666</ele><time>2026-04-26T09:37:57.183Z</time></trkpt><trkpt lat="42.967336" lon="11.4267117"><ele>127.0</ele><time>2026-04-26T09:37:58.177Z</time></trkpt><trkpt lat="42.9672761" lon="11.4266313"><ele>124.33333333333333</ele><time>2026-04-26T09:37:59.172Z</time></trkpt><trkpt lat="42.9672091" lon="11.4265542"><ele>121.66666666666666</ele><time>2026-04-26T09:38:00.175Z</time></trkpt><trkpt lat="42.9671347" lon="11.4264827"><ele>119.0</ele><time>2026-04-26T09:38:01.175Z</time></trkpt><trkpt lat="42.9670537" lon="11.4264184"><ele>119.0</ele><time>2026-04-26T09:38:02.181Z</time></trkpt><trkpt lat="42.9669633" lon="11.4263695"><ele>119.0</ele><time>2026-04-26T09:38:03.182Z</time></trkpt><trkpt lat="42.9668662" lon="11.4263277"><ele>119.0</ele><time>2026-04-26T09:38:04.177Z</time></trkpt><trkpt lat="42.9667629" lon="11.4262898"><ele>119.0</ele><time>2026-04-26T09:38:05.175Z</time></trkpt><trkpt lat="42.966656" lon="11.426259"><ele>119.0</ele><time>2026-04-26T09:38:06.184Z</time></trkpt><trkpt lat="42.9665513" lon="11.4262319"><ele>117.80000000000001</ele><time>2026-04-26T09:38:07.175Z</time></trkpt><trkpt lat="42.9664507" lon="11.4262053"><ele>116.60000000000001</ele><time>2026-04-26T09:38:08.191Z</time></trkpt><trkpt lat="42.9663514" lon="11.4261805"><ele>115.4</ele><time>2026-04-26T09:38:09.173Z</time></trkpt><trkpt lat="42.9662514" lon="11.4261586"><ele>114.2</ele><time>2026-04-26T09:38:10.186Z</time></trkpt><trkpt lat="42.9661499" lon="11.4261375"><ele>113.0</ele><time>2026-04-26T09:38:11.185Z</time></trkpt><trkpt lat="42.9660475" lon="11.426117"><ele>113.0</ele><time>2026-04-26T09:38:12.175Z</time></trkpt><trkpt lat="42.9659424" lon="11.4260962"><ele>113.00000000000001</ele><time>2026-04-26T09:38:13.188Z</time></trkpt><trkpt lat="42.9658363" lon="11.4260693"><ele>113.00000000000001</ele><time>2026-04-26T09:38:14.171Z</time></trkpt><trkpt lat="42.9657311" lon="11.4260428"><ele>113.0</ele><time>2026-04-26T09:38:15.174Z</time></trkpt><trkpt lat="42.9656323" lon="11.4260195"><ele>113.0</ele><time>2026-04-26T09:38:16.184Z</time></trkpt><trkpt lat="42.9655369" lon="11.4259974"><ele>112.2</ele><time>2026-04-26T09:38:17.179Z</time></trkpt><trkpt lat="42.9654419" lon="11.4259769"><ele>111.4</ele><time>2026-04-26T09:38:18.187Z</time></trkpt><trkpt lat="42.9653467" lon="11.4259559"><ele>110.60000000000001</ele><time>2026-04-26T09:38:19.183Z</time></trkpt><trkpt lat="42.9652498" lon="11.4259365"><ele>109.80000000000001</ele><time>2026-04-26T09:38:20.183Z</time></trkpt><trkpt lat="42.9651567" lon="11.425917"><ele>109.0</ele><time>2026-04-26T09:38:21.184Z</time></trkpt><trkpt lat="42.9650654" lon="11.4258998"><ele>108.0</ele><time>2026-04-26T09:38:22.183Z</time></trkpt><trkpt lat="42.9649756" lon="11.4258786"><ele>107.0</ele><time>2026-04-26T09:38:23.182Z</time></trkpt><trkpt lat="42.9648851" lon="11.4258562"><ele>106.0</ele><time>2026-04-26T09:38:24.174Z</time></trkpt><trkpt lat="42.9647948" lon="11.4258319"><ele>105.0</ele><time>2026-04-26T09:38:25.185Z</time></trkpt><trkpt lat="42.9647036" lon="11.4258085"><ele>104.0</ele><time>2026-04-26T09:38:26.172Z</time></trkpt><trkpt lat="42.9646114" lon="11.425786"><ele>104.0</ele><time>2026-04-26T09:38:27.178Z</time></trkpt><trkpt lat="42.9645177" lon="11.4257663"><ele>104.0</ele><time>2026-04-26T09:38:28.186Z</time></trkpt><trkpt lat="42.9644222" lon="11.4257503"><ele>104.0</ele><time>2026-04-26T09:38:29.182Z</time></trkpt><trkpt lat="42.9643275" lon="11.4257332"><ele>104.0</ele><time>2026-04-26T09:38:30.185Z</time></trkpt><trkpt lat="42.9642293" lon="11.4257214"><ele>104.0</ele><time>2026-04-26T09:38:31.17Z</time></trkpt><trkpt lat="42.9641297" lon="11.4257127"><ele>103.80000000000001</ele><time>2026-04-26T09:38:32.187Z</time></trkpt><trkpt lat="42.9640292" lon="11.4257067"><ele>103.60000000000001</ele><time>2026-04-26T09:38:33.183Z</time></trkpt><trkpt lat="42.9639296" lon="11.4257013"><ele>103.4</ele><time>2026-04-26T09:38:34.19Z</time></trkpt><trkpt lat="42.9638331" lon="11.4256915"><ele>103.2</ele><time>2026-04-26T09:38:35.188Z</time></trkpt><trkpt lat="42.9637379" lon="11.4256841"><ele>103.0</ele><time>2026-04-26T09:38:36.19Z</time></trkpt><trkpt lat="42.9636409" lon="11.425682"><ele>103.0</ele><time>2026-04-26T09:38:37.18Z</time></trkpt><trkpt lat="42.9635416" lon="11.4256826"><ele>103.0</ele><time>2026-04-26T09:38:38.196Z</time></trkpt><trkpt lat="42.9634392" lon="11.4256795"><ele>103.0</ele><time>2026-04-26T09:38:39.166Z</time></trkpt><trkpt lat="42.9633343" lon="11.4256757"><ele>103.0</ele><time>2026-04-26T09:38:40.186Z</time></trkpt><trkpt lat="42.9632258" lon="11.4256733"><ele>103.0</ele><time>2026-04-26T09:38:41.187Z</time></trkpt><trkpt lat="42.9631134" lon="11.4256694"><ele>102.75</ele><time>2026-04-26T09:38:42.167Z</time></trkpt><trkpt lat="42.9629981" lon="11.4256612"><ele>102.5</ele><time>2026-04-26T09:38:43.179Z</time></trkpt><trkpt lat="42.9628787" lon="11.4256549"><ele>102.25</ele><time>2026-04-26T09:38:44.188Z</time></trkpt><trkpt lat="42.9627544" lon="11.4256584"><ele>102.0</ele><time>2026-04-26T09:38:45.175Z</time></trkpt><trkpt lat="42.9626227" lon="11.4256589"><ele>101.5</ele><time>2026-04-26T09:38:46.172Z</time></trkpt><trkpt lat="42.9624837" lon="11.4256527"><ele>101.0</ele><time>2026-04-26T09:38:47.181Z</time></trkpt><trkpt lat="42.9623402" lon="11.4256465"><ele>100.5</ele><time>2026-04-26T09:38:48.193Z</time></trkpt><trkpt lat="42.9621895" lon="11.425641"><ele>100.0</ele><time>2026-04-26T09:38:49.18Z</time></trkpt><trkpt lat="42.9620208" lon="11.4256334"><ele>100.0</ele><time>2026-04-26T09:38:50.18Z</time></trkpt><trkpt lat="42.9618352" lon="11.425626"><ele>100.0</ele><time>2026-04-26T09:38:51.19Z</time></trkpt><trkpt lat="42.9616364" lon="11.425622"><ele>100.0</ele><time>2026-04-26T09:38:52.173Z</time></trkpt><trkpt lat="42.961428" lon="11.4256172"><ele>100.33333333333334</ele><time>2026-04-26T09:38:53.187Z</time></trkpt><trkpt lat="42.9612207" lon="11.4256102"><ele>100.66666666666666</ele><time>2026-04-26T09:38:54.19Z</time></trkpt><trkpt lat="42.9610146" lon="11.4256037"><ele>101.0</ele><time>2026-04-26T09:38:55.175Z</time></trkpt><trkpt lat="42.9608102" lon="11.4255971"><ele>101.0</ele><time>2026-04-26T09:38:56.172Z</time></trkpt><trkpt lat="42.9606141" lon="11.4255893"><ele>101.0</ele><time>2026-04-26T09:38:57.186Z</time></trkpt><trkpt lat="42.9604283" lon="11.4255813"><ele>101.0</ele><time>2026-04-26T09:38:58.185Z</time></trkpt><trkpt lat="42.9602513" lon="11.4255749"><ele>101.0</ele><time>2026-04-26T09:38:59.175Z</time></trkpt><trkpt lat="42.9600808" lon="11.4255692"><ele>101.0</ele><time>2026-04-26T09:39:00.185Z</time></trkpt><trkpt lat="42.9599142" lon="11.4255637"><ele>101.0</ele><time>2026-04-26T09:39:01.176Z</time></trkpt><trkpt lat="42.9597512" lon="11.4255577"><ele>101.33333333333333</ele><time>2026-04-26T09:39:02.181Z</time></trkpt><trkpt lat="42.9595914" lon="11.4255503"><ele>101.66666666666666</ele><time>2026-04-26T09:39:03.189Z</time></trkpt><trkpt lat="42.9594353" lon="11.4255453"><ele>102.0</ele><time>2026-04-26T09:39:04.181Z</time></trkpt><trkpt lat="42.9592808" lon="11.4255409"><ele>102.0</ele><time>2026-04-26T09:39:05.19Z</time></trkpt><trkpt lat="42.9591268" lon="11.4255378"><ele>102.0</ele><time>2026-04-26T09:39:06.196Z</time></trkpt><trkpt lat="42.9589727" lon="11.4255349"><ele>102.0</ele><time>2026-04-26T09:39:07.189Z</time></trkpt><trkpt lat="42.9588182" lon="11.4255317"><ele>102.0</ele><time>2026-04-26T09:39:08.175Z</time></trkpt><trkpt lat="42.9586616" lon="11.425527"><ele>102.0</ele><time>2026-04-26T09:39:09.184Z</time></trkpt><trkpt lat="42.9584998" lon="11.4255207"><ele>102.0</ele><time>2026-04-26T09:39:10.172Z</time></trkpt><trkpt lat="42.9583349" lon="11.425515"><ele>103.66666666666666</ele><time>2026-04-26T09:39:11.188Z</time></trkpt><trkpt lat="42.9581693" lon="11.4255092"><ele>105.33333333333333</ele><time>2026-04-26T09:39:12.178Z</time></trkpt><trkpt lat="42.9580047" lon="11.4255012"><ele>107.0</ele><time>2026-04-26T09:39:13.183Z</time></trkpt><trkpt lat="42.9578416" lon="11.4254935"><ele>107.0</ele><time>2026-04-26T09:39:14.177Z</time></trkpt><trkpt lat="42.9576795" lon="11.4254893"><ele>107.0</ele><time>2026-04-26T09:39:15.198Z</time></trkpt><trkpt lat="42.95752" lon="11.4254896"><ele>107.0</ele><time>2026-04-26T09:39:16.17Z</time></trkpt><trkpt lat="42.9573616" lon="11.4254974"><ele>109.66666666666666</ele><time>2026-04-26T09:39:17.182Z</time></trkpt><trkpt lat="42.9572053" lon="11.425518"><ele>112.33333333333334</ele><time>2026-04-26T09:39:18.171Z</time></trkpt><trkpt lat="42.9570533" lon="11.4255519"><ele>115.0</ele><time>2026-04-26T09:39:19.183Z</time></trkpt><trkpt lat="42.9569031" lon="11.4255992"><ele>115.0</ele><time>2026-04-26T09:39:20.188Z</time></trkpt><trkpt lat="42.956754" lon="11.4256571"><ele>115.0</ele><time>2026-04-26T09:39:21.173Z</time></trkpt><trkpt lat="42.9566062" lon="11.4257215"><ele>115.0</ele><time>2026-04-26T09:39:22.189Z</time></trkpt><trkpt lat="42.9564585" lon="11.4257898"><ele>117.0</ele><time>2026-04-26T09:39:23.18Z</time></trkpt><trkpt lat="42.9563123" lon="11.4258567"><ele>119.0</ele><time>2026-04-26T09:39:24.183Z</time></trkpt><trkpt lat="42.9561647" lon="11.4259176"><ele>121.0</ele><time>2026-04-26T09:39:25.181Z</time></trkpt><trkpt lat="42.956016" lon="11.4259664"><ele>123.33333333333334</ele><time>2026-04-26T09:39:26.181Z</time></trkpt><trkpt lat="42.9558651" lon="11.4260017"><ele>125.66666666666666</ele><time>2026-04-26T09:39:27.173Z</time></trkpt><trkpt lat="42.9557119" lon="11.4260204"><ele>128.0</ele><time>2026-04-26T09:39:28.184Z</time></trkpt><trkpt lat="42.9555559" lon="11.4260249"><ele>128.0</ele><time>2026-04-26T09:39:29.187Z</time></trkpt><trkpt lat="42.9554027" lon="11.4260139"><ele>128.0</ele><time>2026-04-26T09:39:30.19Z</time></trkpt><trkpt lat="42.9552525" lon="11.4259796"><ele>128.0</ele><time>2026-04-26T09:39:31.17Z</time></trkpt><trkpt lat="42.9551117" lon="11.4259056"><ele>129.0</ele><time>2026-04-26T09:39:32.188Z</time></trkpt><trkpt lat="42.9549799" lon="11.4258058"><ele>130.0</ele><time>2026-04-26T09:39:33.173Z</time></trkpt><trkpt lat="42.9548545" lon="11.4256963"><ele>131.0</ele><time>2026-04-26T09:39:34.192Z</time></trkpt><trkpt lat="42.9547324" lon="11.4255874"><ele>132.0</ele><time>2026-04-26T09:39:35.185Z</time></trkpt><trkpt lat="42.9546113" lon="11.4254828"><ele>132.0</ele><time>2026-04-26T09:39:36.171Z</time></trkpt><trkpt lat="42.9544921" lon="11.4253849"><ele>132.0</ele><time>2026-04-26T09:39:37.17Z</time></trkpt><trkpt lat="42.9543745" lon="11.4252973"><ele>132.0</ele><time>2026-04-26T09:39:38.167Z</time></trkpt><trkpt lat="42.9542558" lon="11.4252277"><ele>132.0</ele><time>2026-04-26T09:39:39.172Z</time></trkpt><trkpt lat="42.9541334" lon="11.4251806"><ele>133.25</ele><time>2026-04-26T09:39:40.187Z</time></trkpt><trkpt lat="42.9540103" lon="11.4251542"><ele>134.5</ele><time>2026-04-26T09:39:41.175Z</time></trkpt><trkpt lat="42.95389" lon="11.4251403"><ele>135.75</ele><time>2026-04-26T09:39:42.167Z</time></trkpt><trkpt lat="42.9537771" lon="11.4251327"><ele>137.0</ele><time>2026-04-26T09:39:43.167Z</time></trkpt><trkpt lat="42.9536661" lon="11.4251255"><ele>137.0</ele><time>2026-04-26T09:39:44.188Z</time></trkpt><trkpt lat="42.9535565" lon="11.4251112"><ele>137.0</ele><time>2026-04-26T09:39:45.168Z</time></trkpt><trkpt lat="42.9534511" lon="11.4250806"><ele>137.0</ele><time>2026-04-26T09:39:46.171Z</time></trkpt><trkpt lat="42.9533539" lon="11.4250254"><ele>137.0</ele><time>2026-04-26T09:39:47.187Z</time></trkpt><trkpt lat="42.9532676" lon="11.4249525"><ele>137.0</ele><time>2026-04-26T09:39:48.174Z</time></trkpt><trkpt lat="42.9531896" lon="11.4248809"><ele>137.83333333333331</ele><time>2026-04-26T09:39:49.179Z</time></trkpt><trkpt lat="42.953121" lon="11.4248193"><ele>138.66666666666666</ele><time>2026-04-26T09:39:50.169Z</time></trkpt><trkpt lat="42.9530608" lon="11.4247706"><ele>139.5</ele><time>2026-04-26T09:39:51.188Z</time></trkpt><trkpt lat="42.9529558" lon="11.4247321"><ele>140.33333333333334</ele><time>2026-04-26T09:39:53.167Z</time></trkpt><trkpt lat="42.9528892" lon="11.4247192"><ele>141.16666666666669</ele><time>2026-04-26T09:39:55.187Z</time></trkpt><trkpt lat="42.9528123" lon="11.4247295"><ele>142.0</ele><time>2026-04-26T09:41:54.182Z</time></trkpt><trkpt lat="42.9527406" lon="11.4247255"><ele>142.0</ele><time>2026-04-26T09:42:06.171Z</time></trkpt><trkpt lat="42.9526386" lon="11.4248098"><ele>142.0</ele><time>2026-04-26T09:42:08.193Z</time></trkpt><trkpt lat="42.9525834" lon="11.424895"><ele>142.0</ele><time>2026-04-26T09:42:09.201Z</time></trkpt><trkpt lat="42.9525203" lon="11.4250097"><ele>142.0</ele><time>2026-04-26T09:42:10.17Z</time></trkpt><trkpt lat="42.9524511" lon="11.4251582"><ele>142.0</ele><time>2026-04-26T09:42:11.174Z</time></trkpt><trkpt lat="42.9523839" lon="11.4253385"><ele>143.66666666666669</ele><time>2026-04-26T09:42:12.187Z</time></trkpt><trkpt lat="42.9523221" lon="11.4255431"><ele>145.33333333333334</ele><time>2026-04-26T09:42:13.189Z</time></trkpt><trkpt lat="42.9522623" lon="11.425766"><ele>147.0</ele><time>2026-04-26T09:42:14.178Z</time></trkpt><trkpt lat="42.9522048" lon="11.425989"><ele>147.0</ele><time>2026-04-26T09:42:15.178Z</time></trkpt><trkpt lat="42.9521496" lon="11.4262211"><ele>147.0</ele><time>2026-04-26T09:42:16.18Z</time></trkpt><trkpt lat="42.9520967" lon="11.4264656"><ele>147.0</ele><time>2026-04-26T09:42:17.185Z</time></trkpt><trkpt lat="42.9520473" lon="11.426714"><ele>147.33333333333334</ele><time>2026-04-26T09:42:18.19Z</time></trkpt><trkpt lat="42.9520043" lon="11.4269599"><ele>147.66666666666669</ele><time>2026-04-26T09:42:19.189Z</time></trkpt><trkpt lat="42.9519684" lon="11.4272014"><ele>148.0</ele><time>2026-04-26T09:42:20.19Z</time></trkpt><trkpt lat="42.9519414" lon="11.4274416"><ele>149.0</ele><time>2026-04-26T09:42:21.169Z</time></trkpt><trkpt lat="42.9519287" lon="11.4276786"><ele>150.0</ele><time>2026-04-26T09:42:22.194Z</time></trkpt><trkpt lat="42.9519338" lon="11.4279103"><ele>151.0</ele><time>2026-04-26T09:42:23.188Z</time></trkpt><trkpt lat="42.9519544" lon="11.4281418"><ele>151.33333333333334</ele><time>2026-04-26T09:42:24.188Z</time></trkpt><trkpt lat="42.9519903" lon="11.428375"><ele>151.66666666666666</ele><time>2026-04-26T09:42:25.179Z</time></trkpt><trkpt lat="42.952042" lon="11.4286089"><ele>152.0</ele><time>2026-04-26T09:42:26.186Z</time></trkpt><trkpt lat="42.9521092" lon="11.4288419"><ele>153.33333333333331</ele><time>2026-04-26T09:42:27.175Z</time></trkpt><trkpt lat="42.9521881" lon="11.4290738"><ele>154.66666666666666</ele><time>2026-04-26T09:42:28.193Z</time></trkpt><trkpt lat="42.9522697" lon="11.4293061"><ele>156.0</ele><time>2026-04-26T09:42:29.175Z</time></trkpt><trkpt lat="42.9523561" lon="11.4295301"><ele>155.33333333333334</ele><time>2026-04-26T09:42:30.186Z</time></trkpt><trkpt lat="42.9524374" lon="11.4297561"><ele>154.66666666666669</ele><time>2026-04-26T09:42:31.18Z</time></trkpt><trkpt lat="42.9525221" lon="11.4299805"><ele>154.0</ele><time>2026-04-26T09:42:32.169Z</time></trkpt><trkpt lat="42.9526081" lon="11.4302055"><ele>154.0</ele><time>2026-04-26T09:42:33.18Z</time></trkpt><trkpt lat="42.9526903" lon="11.4304374"><ele>154.0</ele><time>2026-04-26T09:42:34.171Z</time></trkpt><trkpt lat="42.9527655" lon="11.4306732"><ele>154.0</ele><time>2026-04-26T09:42:35.175Z</time></trkpt><trkpt lat="42.9528286" lon="11.4309151"><ele>155.66666666666669</ele><time>2026-04-26T09:42:36.17Z</time></trkpt><trkpt lat="42.9528763" lon="11.431163"><ele>157.33333333333334</ele><time>2026-04-26T09:42:37.18Z</time></trkpt><trkpt lat="42.952908" lon="11.431414"><ele>159.0</ele><time>2026-04-26T09:42:38.188Z</time></trkpt><trkpt lat="42.9529241" lon="11.4316688"><ele>160.33333333333334</ele><time>2026-04-26T09:42:39.196Z</time></trkpt><trkpt lat="42.9529261" lon="11.4319279"><ele>161.66666666666669</ele><time>2026-04-26T09:42:40.185Z</time></trkpt><trkpt lat="42.952913" lon="11.4321908"><ele>163.0</ele><time>2026-04-26T09:42:41.166Z</time></trkpt><trkpt lat="42.9528822" lon="11.4324576"><ele>164.33333333333334</ele><time>2026-04-26T09:42:42.186Z</time></trkpt><trkpt lat="42.9528329" lon="11.4327251"><ele>165.66666666666666</ele><time>2026-04-26T09:42:43.188Z</time></trkpt><trkpt lat="42.9527653" lon="11.432991"><ele>167.0</ele><time>2026-04-26T09:42:44.183Z</time></trkpt><trkpt lat="42.9526767" lon="11.4332515"><ele>167.0</ele><time>2026-04-26T09:42:45.175Z</time></trkpt><trkpt lat="42.9525689" lon="11.4335061"><ele>167.0</ele><time>2026-04-26T09:42:46.186Z</time></trkpt><trkpt lat="42.9524537" lon="11.4337571"><ele>167.0</ele><time>2026-04-26T09:42:47.178Z</time></trkpt><trkpt lat="42.9523414" lon="11.4340052"><ele>170.66666666666666</ele><time>2026-04-26T09:42:48.194Z</time></trkpt><trkpt lat="42.9522314" lon="11.4342492"><ele>174.33333333333334</ele><time>2026-04-26T09:42:49.186Z</time></trkpt><trkpt lat="42.9521227" lon="11.4344876"><ele>178.0</ele><time>2026-04-26T09:42:50.187Z</time></trkpt><trkpt lat="42.9520163" lon="11.4347202"><ele>179.33333333333334</ele><time>2026-04-26T09:42:51.196Z</time></trkpt><trkpt lat="42.9519116" lon="11.434949"><ele>180.66666666666666</ele><time>2026-04-26T09:42:52.188Z</time></trkpt><trkpt lat="42.9518085" lon="11.4351759"><ele>182.0</ele><time>2026-04-26T09:42:53.175Z</time></trkpt><trkpt lat="42.9517061" lon="11.4354008"><ele>186.0</ele><time>2026-04-26T09:42:54.183Z</time></trkpt><trkpt lat="42.951604" lon="11.4356236"><ele>190.0</ele><time>2026-04-26T09:42:55.191Z</time></trkpt><trkpt lat="42.9515013" lon="11.4358438"><ele>194.0</ele><time>2026-04-26T09:42:56.191Z</time></trkpt><trkpt lat="42.9513998" lon="11.4360628"><ele>194.0</ele><time>2026-04-26T09:42:57.189Z</time></trkpt><trkpt lat="42.9513018" lon="11.4362802"><ele>194.0</ele><time>2026-04-26T09:42:58.174Z</time></trkpt><trkpt lat="42.9512097" lon="11.4364979"><ele>194.0</ele><time>2026-04-26T09:42:59.165Z</time></trkpt><trkpt lat="42.9511271" lon="11.4367199"><ele>195.33333333333334</ele><time>2026-04-26T09:43:00.18Z</time></trkpt><trkpt lat="42.9510603" lon="11.4369478"><ele>196.66666666666669</ele><time>2026-04-26T09:43:01.18Z</time></trkpt><trkpt lat="42.9510075" lon="11.4371812"><ele>198.0</ele><time>2026-04-26T09:43:02.171Z</time></trkpt><trkpt lat="42.9509588" lon="11.437411"><ele>198.0</ele><time>2026-04-26T09:43:03.182Z</time></trkpt><trkpt lat="42.9509161" lon="11.437652"><ele>198.0</ele><time>2026-04-26T09:43:04.18Z</time></trkpt><trkpt lat="42.9508739" lon="11.4378964"><ele>198.0</ele><time>2026-04-26T09:43:05.19Z</time></trkpt><trkpt lat="42.9508329" lon="11.4381441"><ele>196.0</ele><time>2026-04-26T09:43:06.181Z</time></trkpt><trkpt lat="42.9507847" lon="11.4383875"><ele>194.0</ele><time>2026-04-26T09:43:07.167Z</time></trkpt><trkpt lat="42.9507228" lon="11.438627"><ele>192.0</ele><time>2026-04-26T09:43:08.189Z</time></trkpt><trkpt lat="42.9506442" lon="11.4388573"><ele>192.0</ele><time>2026-04-26T09:43:09.19Z</time></trkpt><trkpt lat="42.9505493" lon="11.439073"><ele>192.0</ele><time>2026-04-26T09:43:10.179Z</time></trkpt><trkpt lat="42.9504379" lon="11.4392696"><ele>192.0</ele><time>2026-04-26T09:43:11.188Z</time></trkpt><trkpt lat="42.9503148" lon="11.439447"><ele>192.0</ele><time>2026-04-26T09:43:12.18Z</time></trkpt><trkpt lat="42.9501913" lon="11.4396195"><ele>192.0</ele><time>2026-04-26T09:43:13.187Z</time></trkpt><trkpt lat="42.95007" lon="11.4397927"><ele>192.0</ele><time>2026-04-26T09:43:14.189Z</time></trkpt><trkpt lat="42.9499486" lon="11.4399629"><ele>192.0</ele><time>2026-04-26T09:43:15.191Z</time></trkpt><trkpt lat="42.9498278" lon="11.4401347"><ele>192.0</ele><time>2026-04-26T09:43:16.187Z</time></trkpt><trkpt lat="42.9497063" lon="11.4403091"><ele>192.0</ele><time>2026-04-26T09:43:17.176Z</time></trkpt><trkpt lat="42.9495821" lon="11.4404867"><ele>192.66666666666669</ele><time>2026-04-26T09:43:18.168Z</time></trkpt><trkpt lat="42.9494538" lon="11.440666"><ele>193.33333333333334</ele><time>2026-04-26T09:43:19.182Z</time></trkpt><trkpt lat="42.9493247" lon="11.4408474"><ele>194.0</ele><time>2026-04-26T09:43:20.176Z</time></trkpt><trkpt lat="42.9491974" lon="11.441032"><ele>194.66666666666669</ele><time>2026-04-26T09:43:21.194Z</time></trkpt><trkpt lat="42.9490698" lon="11.4412169"><ele>195.33333333333331</ele><time>2026-04-26T09:43:22.18Z</time></trkpt><trkpt lat="42.9489419" lon="11.4414013"><ele>196.0</ele><time>2026-04-26T09:43:23.183Z</time></trkpt><trkpt lat="42.9488135" lon="11.4415859"><ele>196.33333333333331</ele><time>2026-04-26T09:43:24.178Z</time></trkpt><trkpt lat="42.9486839" lon="11.4417711"><ele>196.66666666666669</ele><time>2026-04-26T09:43:25.181Z</time></trkpt><trkpt lat="42.9485532" lon="11.4419572"><ele>197.0</ele><time>2026-04-26T09:43:26.17Z</time></trkpt><trkpt lat="42.948424" lon="11.4421433"><ele>198.66666666666669</ele><time>2026-04-26T09:43:27.183Z</time></trkpt><trkpt lat="42.948298" lon="11.442328"><ele>200.33333333333331</ele><time>2026-04-26T09:43:28.173Z</time></trkpt><trkpt lat="42.9481736" lon="11.4425098"><ele>202.0</ele><time>2026-04-26T09:43:29.169Z</time></trkpt><trkpt lat="42.9480519" lon="11.442685"><ele>202.0</ele><time>2026-04-26T09:43:30.174Z</time></trkpt><trkpt lat="42.9479289" lon="11.4428612"><ele>202.0</ele><time>2026-04-26T09:43:31.177Z</time></trkpt><trkpt lat="42.9478043" lon="11.4430373"><ele>202.0</ele><time>2026-04-26T09:43:32.177Z</time></trkpt><trkpt lat="42.9476791" lon="11.4432124"><ele>200.66666666666666</ele><time>2026-04-26T09:43:33.188Z</time></trkpt><trkpt lat="42.9475542" lon="11.4433875"><ele>199.33333333333331</ele><time>2026-04-26T09:43:34.188Z</time></trkpt><trkpt lat="42.947429" lon="11.4435636"><ele>198.0</ele><time>2026-04-26T09:43:35.181Z</time></trkpt><trkpt lat="42.9473045" lon="11.4437402"><ele>200.33333333333331</ele><time>2026-04-26T09:43:36.186Z</time></trkpt><trkpt lat="42.94718" lon="11.4439157"><ele>202.66666666666666</ele><time>2026-04-26T09:43:37.177Z</time></trkpt><trkpt lat="42.9470563" lon="11.4440906"><ele>205.0</ele><time>2026-04-26T09:43:38.188Z</time></trkpt><trkpt lat="42.9469345" lon="11.4442668"><ele>205.0</ele><time>2026-04-26T09:43:39.165Z</time></trkpt><trkpt lat="42.9468154" lon="11.4444465"><ele>205.0</ele><time>2026-04-26T09:43:40.191Z</time></trkpt><trkpt lat="42.9467025" lon="11.4446321"><ele>205.0</ele><time>2026-04-26T09:43:41.18Z</time></trkpt><trkpt lat="42.9466022" lon="11.4448288"><ele>205.33333333333331</ele><time>2026-04-26T09:43:42.173Z</time></trkpt><trkpt lat="42.9465159" lon="11.4450353"><ele>205.66666666666669</ele><time>2026-04-26T09:43:43.178Z</time></trkpt><trkpt lat="42.946442" lon="11.4452496"><ele>206.0</ele><time>2026-04-26T09:43:44.171Z</time></trkpt><trkpt lat="42.9463799" lon="11.4454697"><ele>204.66666666666669</ele><time>2026-04-26T09:43:45.174Z</time></trkpt><trkpt lat="42.9463283" lon="11.445695"><ele>203.33333333333331</ele><time>2026-04-26T09:43:46.19Z</time></trkpt><trkpt lat="42.9462827" lon="11.4459234"><ele>202.0</ele><time>2026-04-26T09:43:47.174Z</time></trkpt><trkpt lat="42.9462391" lon="11.4461541"><ele>198.66666666666666</ele><time>2026-04-26T09:43:48.178Z</time></trkpt><trkpt lat="42.9461972" lon="11.4463878"><ele>195.33333333333331</ele><time>2026-04-26T09:43:49.182Z</time></trkpt><trkpt lat="42.946154" lon="11.4466217"><ele>192.0</ele><time>2026-04-26T09:43:50.183Z</time></trkpt><trkpt lat="42.9461102" lon="11.4468549"><ele>192.0</ele><time>2026-04-26T09:43:51.179Z</time></trkpt><trkpt lat="42.946067" lon="11.4470887"><ele>192.0</ele><time>2026-04-26T09:43:52.196Z</time></trkpt><trkpt lat="42.9460243" lon="11.4473211"><ele>192.0</ele><time>2026-04-26T09:43:53.188Z</time></trkpt><trkpt lat="42.9459829" lon="11.4475519"><ele>192.66666666666669</ele><time>2026-04-26T09:43:54.189Z</time></trkpt><trkpt lat="42.9459417" lon="11.4477779"><ele>193.33333333333334</ele><time>2026-04-26T09:43:55.194Z</time></trkpt><trkpt lat="42.945902" lon="11.4479925"><ele>194.0</ele><time>2026-04-26T09:43:56.187Z</time></trkpt><trkpt lat="42.9458658" lon="11.4481905"><ele>194.0</ele><time>2026-04-26T09:43:57.196Z</time></trkpt><trkpt lat="42.9458336" lon="11.4483716"><ele>194.0</ele><time>2026-04-26T09:43:58.164Z</time></trkpt><trkpt lat="42.9458071" lon="11.4485374"><ele>194.0</ele><time>2026-04-26T09:43:59.177Z</time></trkpt><trkpt lat="42.945787" lon="11.4486899"><ele>194.0</ele><time>2026-04-26T09:44:00.195Z</time></trkpt><trkpt lat="42.9457719" lon="11.4488186"><ele>194.00000000000003</ele><time>2026-04-26T09:44:01.168Z</time></trkpt><trkpt lat="42.9457611" lon="11.4489245"><ele>194.0</ele><time>2026-04-26T09:44:02.18Z</time></trkpt><trkpt lat="42.9457525" lon="11.4490176"><ele>194.0</ele><time>2026-04-26T09:44:03.188Z</time></trkpt><trkpt lat="42.9457432" lon="11.4491089"><ele>194.0</ele><time>2026-04-26T09:44:04.192Z</time></trkpt><trkpt lat="42.945732" lon="11.4492716"><ele>194.00000000000003</ele><time>2026-04-26T09:44:06.172Z</time></trkpt><trkpt lat="42.9457188" lon="11.4494124"><ele>194.0</ele><time>2026-04-26T09:44:08.179Z</time></trkpt><trkpt lat="42.9456823" lon="11.4495269"><ele>194.0</ele><time>2026-04-26T09:44:10.187Z</time></trkpt><trkpt lat="42.9455806" lon="11.449542"><ele>194.0</ele><time>2026-04-26T09:44:12.194Z</time></trkpt><trkpt lat="42.9454511" lon="11.4494908"><ele>194.0</ele><time>2026-04-26T09:44:14.192Z</time></trkpt><trkpt lat="42.9453741" lon="11.4494544"><ele>194.0</ele><time>2026-04-26T09:44:15.174Z</time></trkpt><trkpt lat="42.9452891" lon="11.4494131"><ele>194.0</ele><time>2026-04-26T09:44:16.18Z</time></trkpt><trkpt lat="42.945193" lon="11.4493695"><ele>194.0</ele><time>2026-04-26T09:44:17.193Z</time></trkpt><trkpt lat="42.94509" lon="11.4493254"><ele>194.0</ele><time>2026-04-26T09:44:18.181Z</time></trkpt><trkpt lat="42.9449826" lon="11.4492794"><ele>194.0</ele><time>2026-04-26T09:44:19.189Z</time></trkpt><trkpt lat="42.9448714" lon="11.4492277"><ele>194.0</ele><time>2026-04-26T09:44:20.172Z</time></trkpt><trkpt lat="42.9447577" lon="11.449173"><ele>193.75</ele><time>2026-04-26T09:44:21.173Z</time></trkpt><trkpt lat="42.9446385" lon="11.4491191"><ele>193.5</ele><time>2026-04-26T09:44:22.195Z</time></trkpt><trkpt lat="42.9445158" lon="11.4490632"><ele>193.25</ele><time>2026-04-26T09:44:23.179Z</time></trkpt><trkpt lat="42.9443923" lon="11.4490051"><ele>193.0</ele><time>2026-04-26T09:44:24.19Z</time></trkpt><trkpt lat="42.9442677" lon="11.4489414"><ele>192.25</ele><time>2026-04-26T09:44:25.194Z</time></trkpt><trkpt lat="42.9441419" lon="11.4488719"><ele>191.5</ele><time>2026-04-26T09:44:26.184Z</time></trkpt><trkpt lat="42.9440151" lon="11.4487922"><ele>190.75</ele><time>2026-04-26T09:44:27.189Z</time></trkpt><trkpt lat="42.9438931" lon="11.4486937"><ele>190.0</ele><time>2026-04-26T09:44:28.18Z</time></trkpt><trkpt lat="42.9437791" lon="11.4485771"><ele>189.75</ele><time>2026-04-26T09:44:29.183Z</time></trkpt><trkpt lat="42.9436687" lon="11.4484543"><ele>189.5</ele><time>2026-04-26T09:44:30.175Z</time></trkpt><trkpt lat="42.9435668" lon="11.4483184"><ele>189.25</ele><time>2026-04-26T09:44:31.197Z</time></trkpt><trkpt lat="42.9434667" lon="11.4481762"><ele>189.0</ele><time>2026-04-26T09:44:32.181Z</time></trkpt><trkpt lat="42.9433672" lon="11.4480365"><ele>188.75</ele><time>2026-04-26T09:44:33.19Z</time></trkpt><trkpt lat="42.9432671" lon="11.4478989"><ele>188.5</ele><time>2026-04-26T09:44:34.176Z</time></trkpt><trkpt lat="42.9431669" lon="11.4477588"><ele>188.25</ele><time>2026-04-26T09:44:35.192Z</time></trkpt><trkpt lat="42.9430677" lon="11.4476164"><ele>188.0</ele><time>2026-04-26T09:44:36.177Z</time></trkpt><trkpt lat="42.9429673" lon="11.4474736"><ele>188.0</ele><time>2026-04-26T09:44:37.187Z</time></trkpt><trkpt lat="42.9428706" lon="11.4473341"><ele>188.0</ele><time>2026-04-26T09:44:38.176Z</time></trkpt><trkpt lat="42.9427816" lon="11.4472025"><ele>188.0</ele><time>2026-04-26T09:44:39.19Z</time></trkpt><trkpt lat="42.9426985" lon="11.447081"><ele>188.0</ele><time>2026-04-26T09:44:40.192Z</time></trkpt><trkpt lat="42.942615" lon="11.4469847"><ele>187.2</ele><time>2026-04-26T09:44:41.178Z</time></trkpt><trkpt lat="42.9425219" lon="11.4469206"><ele>186.4</ele><time>2026-04-26T09:44:42.185Z</time></trkpt><trkpt lat="42.9424176" lon="11.4468786"><ele>185.6</ele><time>2026-04-26T09:44:43.17Z</time></trkpt><trkpt lat="42.9423097" lon="11.4468432"><ele>184.79999999999998</ele><time>2026-04-26T09:44:44.19Z</time></trkpt><trkpt lat="42.9422008" lon="11.446808"><ele>184.0</ele><time>2026-04-26T09:44:45.181Z</time></trkpt><trkpt lat="42.9420906" lon="11.4467694"><ele>184.0</ele><time>2026-04-26T09:44:46.184Z</time></trkpt><trkpt lat="42.94198" lon="11.4467293"><ele>184.0</ele><time>2026-04-26T09:44:47.18Z</time></trkpt><trkpt lat="42.9418685" lon="11.4466916"><ele>184.0</ele><time>2026-04-26T09:44:48.184Z</time></trkpt><trkpt lat="42.9417577" lon="11.4466549"><ele>184.0</ele><time>2026-04-26T09:44:49.193Z</time></trkpt><trkpt lat="42.9416504" lon="11.4466217"><ele>183.39999999999998</ele><time>2026-04-26T09:44:50.188Z</time></trkpt><trkpt lat="42.941546" lon="11.4466028"><ele>182.8</ele><time>2026-04-26T09:44:51.177Z</time></trkpt><trkpt lat="42.9414415" lon="11.4466101"><ele>182.2</ele><time>2026-04-26T09:44:52.181Z</time></trkpt><trkpt lat="42.9413349" lon="11.4466416"><ele>181.60000000000002</ele><time>2026-04-26T09:44:53.187Z</time></trkpt><trkpt lat="42.9412278" lon="11.4466887"><ele>181.0</ele><time>2026-04-26T09:44:54.172Z</time></trkpt><trkpt lat="42.9411232" lon="11.4467408"><ele>181.0</ele><time>2026-04-26T09:44:55.173Z</time></trkpt><trkpt lat="42.9410221" lon="11.4467932"><ele>181.0</ele><time>2026-04-26T09:44:56.176Z</time></trkpt><trkpt lat="42.9409229" lon="11.4468404"><ele>181.0</ele><time>2026-04-26T09:44:57.171Z</time></trkpt><trkpt lat="42.9408248" lon="11.446884"><ele>181.0</ele><time>2026-04-26T09:44:58.174Z</time></trkpt><trkpt lat="42.9407274" lon="11.4469276"><ele>181.0</ele><time>2026-04-26T09:44:59.171Z</time></trkpt><trkpt lat="42.9406328" lon="11.4469723"><ele>180.0</ele><time>2026-04-26T09:45:00.182Z</time></trkpt><trkpt lat="42.9405411" lon="11.4470131"><ele>179.0</ele><time>2026-04-26T09:45:01.172Z</time></trkpt><trkpt lat="42.9404538" lon="11.4470485"><ele>178.0</ele><time>2026-04-26T09:45:02.176Z</time></trkpt><trkpt lat="42.9403756" lon="11.4470881"><ele>177.0</ele><time>2026-04-26T09:45:03.195Z</time></trkpt><trkpt lat="42.9403083" lon="11.4471485"><ele>176.0</ele><time>2026-04-26T09:45:04.178Z</time></trkpt><trkpt lat="42.9402581" lon="11.4472364"><ele>175.0</ele><time>2026-04-26T09:45:05.177Z</time></trkpt><trkpt lat="42.9402337" lon="11.4473485"><ele>175.0</ele><time>2026-04-26T09:45:06.189Z</time></trkpt><trkpt lat="42.9402338" lon="11.4474716"><ele>175.0</ele><time>2026-04-26T09:45:07.188Z</time></trkpt><trkpt lat="42.9402377" lon="11.4475936"><ele>175.0</ele><time>2026-04-26T09:45:08.187Z</time></trkpt><trkpt lat="42.9402265" lon="11.4477087"><ele>175.0</ele><time>2026-04-26T09:45:09.167Z</time></trkpt><trkpt lat="42.9401947" lon="11.4478089"><ele>175.0</ele><time>2026-04-26T09:45:10.179Z</time></trkpt><trkpt lat="42.9401416" lon="11.447884"><ele>175.0</ele><time>2026-04-26T09:45:11.191Z</time></trkpt><trkpt lat="42.940071" lon="11.4479282"><ele>175.0</ele><time>2026-04-26T09:45:12.179Z</time></trkpt><trkpt lat="42.9399918" lon="11.4479526"><ele>175.0</ele><time>2026-04-26T09:45:13.19Z</time></trkpt><trkpt lat="42.9399003" lon="11.4479021"><ele>175.0</ele><time>2026-04-26T09:45:14.193Z</time></trkpt><trkpt lat="42.9398101" lon="11.4478218"><ele>175.0</ele><time>2026-04-26T09:45:15.178Z</time></trkpt><trkpt lat="42.9397208" lon="11.4477428"><ele>175.0</ele><time>2026-04-26T09:45:16.187Z</time></trkpt><trkpt lat="42.9396292" lon="11.4476718"><ele>175.0</ele><time>2026-04-26T09:45:17.186Z</time></trkpt><trkpt lat="42.9395276" lon="11.4476119"><ele>175.0</ele><time>2026-04-26T09:45:18.184Z</time></trkpt><trkpt lat="42.9394139" lon="11.4475681"><ele>175.0</ele><time>2026-04-26T09:45:19.171Z</time></trkpt><trkpt lat="42.9392875" lon="11.4475243"><ele>175.0</ele><time>2026-04-26T09:45:20.191Z</time></trkpt><trkpt lat="42.9391601" lon="11.4474747"><ele>178.25</ele><time>2026-04-26T09:45:21.183Z</time></trkpt><trkpt lat="42.9390367" lon="11.4474257"><ele>181.5</ele><time>2026-04-26T09:45:22.172Z</time></trkpt><trkpt lat="42.9389154" lon="11.4473913"><ele>184.75</ele><time>2026-04-26T09:45:23.177Z</time></trkpt><trkpt lat="42.938788" lon="11.4473776"><ele>188.0</ele><time>2026-04-26T09:45:24.191Z</time></trkpt><trkpt lat="42.9386565" lon="11.4473915"><ele>188.0</ele><time>2026-04-26T09:45:25.182Z</time></trkpt><trkpt lat="42.9385268" lon="11.4474326"><ele>188.0</ele><time>2026-04-26T09:45:26.169Z</time></trkpt><trkpt lat="42.938403" lon="11.4474931"><ele>188.0</ele><time>2026-04-26T09:45:27.183Z</time></trkpt><trkpt lat="42.9383007" lon="11.447563"><ele>188.0</ele><time>2026-04-26T09:45:28.176Z</time></trkpt><trkpt lat="42.9382383" lon="11.4476184"><ele>189.16666666666666</ele><time>2026-04-26T09:45:29.178Z</time></trkpt><trkpt lat="42.938159" lon="11.4477"><ele>190.33333333333331</ele><time>2026-04-26T09:45:31.188Z</time></trkpt><trkpt lat="42.9381151" lon="11.4477705"><ele>191.5</ele><time>2026-04-26T09:45:34.188Z</time></trkpt><trkpt lat="42.9380756" lon="11.4478553"><ele>192.66666666666666</ele><time>2026-04-26T09:45:53.188Z</time></trkpt><trkpt lat="42.9380534" lon="11.4479392"><ele>193.83333333333334</ele><time>2026-04-26T09:45:56.186Z</time></trkpt><trkpt lat="42.9380478" lon="11.4480313"><ele>195.0</ele><time>2026-04-26T09:46:02.192Z</time></trkpt><trkpt lat="42.9380783" lon="11.448139"><ele>196.16666666666666</ele><time>2026-04-26T09:46:04.194Z</time></trkpt><trkpt lat="42.9381127" lon="11.4482179"><ele>197.33333333333331</ele><time>2026-04-26T09:46:05.191Z</time></trkpt><trkpt lat="42.9381488" lon="11.4483009"><ele>198.5</ele><time>2026-04-26T09:46:06.185Z</time></trkpt><trkpt lat="42.9381853" lon="11.4483945"><ele>199.66666666666666</ele><time>2026-04-26T09:46:07.18Z</time></trkpt><trkpt lat="42.938214" lon="11.4484872"><ele>200.83333333333331</ele><time>2026-04-26T09:46:08.19Z</time></trkpt><trkpt lat="42.9382316" lon="11.448577"><ele>202.0</ele><time>2026-04-26T09:46:09.193Z</time></trkpt><trkpt lat="42.938248" lon="11.4487077"><ele>202.99999999999997</ele><time>2026-04-26T09:46:11.183Z</time></trkpt><trkpt lat="42.9382555" lon="11.4488047"><ele>204.0</ele><time>2026-04-26T09:46:14.191Z</time></trkpt><trkpt lat="42.9382629" lon="11.4489107"><ele>205.0</ele><time>2026-04-26T09:46:16.189Z</time></trkpt><trkpt lat="42.9382823" lon="11.4490722"><ele>206.0</ele><time>2026-04-26T09:46:18.17Z</time></trkpt><trkpt lat="42.9382923" lon="11.4491696"><ele>206.99999999999997</ele><time>2026-04-26T09:46:19.185Z</time></trkpt><trkpt lat="42.9383045" lon="11.4492867"><ele>208.0</ele><time>2026-04-26T09:46:20.189Z</time></trkpt><trkpt lat="42.9383166" lon="11.4494214"><ele>208.0</ele><time>2026-04-26T09:46:21.181Z</time></trkpt><trkpt lat="42.93833" lon="11.4495678"><ele>208.0</ele><time>2026-04-26T09:46:22.191Z</time></trkpt><trkpt lat="42.9383434" lon="11.449708"><ele>208.0</ele><time>2026-04-26T09:46:23.172Z</time></trkpt><trkpt lat="42.9383557" lon="11.4498466"><ele>208.0</ele><time>2026-04-26T09:46:24.186Z</time></trkpt><trkpt lat="42.9383673" lon="11.4499837"><ele>208.0</ele><time>2026-04-26T09:46:25.194Z</time></trkpt><trkpt lat="42.9383772" lon="11.4501183"><ele>206.60000000000002</ele><time>2026-04-26T09:46:26.181Z</time></trkpt><trkpt lat="42.9383865" lon="11.4502501"><ele>205.20000000000002</ele><time>2026-04-26T09:46:27.19Z</time></trkpt><trkpt lat="42.9383923" lon="11.4503793"><ele>203.8</ele><time>2026-04-26T09:46:28.178Z</time></trkpt><trkpt lat="42.9383921" lon="11.4505049"><ele>202.4</ele><time>2026-04-26T09:46:29.186Z</time></trkpt><trkpt lat="42.9383918" lon="11.4506271"><ele>201.0</ele><time>2026-04-26T09:46:30.181Z</time></trkpt><trkpt lat="42.9383835" lon="11.4507465"><ele>204.0</ele><time>2026-04-26T09:46:31.191Z</time></trkpt><trkpt lat="42.9383708" lon="11.4508662"><ele>207.0</ele><time>2026-04-26T09:46:32.164Z</time></trkpt><trkpt lat="42.9383578" lon="11.4509872"><ele>210.00000000000003</ele><time>2026-04-26T09:46:33.188Z</time></trkpt><trkpt lat="42.9383419" lon="11.4511092"><ele>213.0</ele><time>2026-04-26T09:46:34.191Z</time></trkpt><trkpt lat="42.9383259" lon="11.4512323"><ele>216.0</ele><time>2026-04-26T09:46:35.191Z</time></trkpt><trkpt lat="42.9383122" lon="11.4513595"><ele>217.20000000000002</ele><time>2026-04-26T09:46:36.185Z</time></trkpt><trkpt lat="42.9382912" lon="11.4514866"><ele>218.40000000000003</ele><time>2026-04-26T09:46:37.184Z</time></trkpt><trkpt lat="42.9382659" lon="11.4516142"><ele>219.6</ele><time>2026-04-26T09:46:38.175Z</time></trkpt><trkpt lat="42.9382409" lon="11.4517411"><ele>220.8</ele><time>2026-04-26T09:46:39.171Z</time></trkpt><trkpt lat="42.9382162" lon="11.451864"><ele>222.0</ele><time>2026-04-26T09:46:40.173Z</time></trkpt><trkpt lat="42.9381747" lon="11.4519759"><ele>222.0</ele><time>2026-04-26T09:46:41.191Z</time></trkpt><trkpt lat="42.938119" lon="11.4520672"><ele>222.0</ele><time>2026-04-26T09:46:42.187Z</time></trkpt><trkpt lat="42.9380622" lon="11.4521514"><ele>222.0</ele><time>2026-04-26T09:46:43.172Z</time></trkpt><trkpt lat="42.9379847" lon="11.4521795"><ele>222.0</ele><time>2026-04-26T09:46:44.178Z</time></trkpt><trkpt lat="42.9379065" lon="11.4521525"><ele>222.0</ele><time>2026-04-26T09:46:45.187Z</time></trkpt><trkpt lat="42.9378313" lon="11.4521137"><ele>222.0</ele><time>2026-04-26T09:46:46.178Z</time></trkpt><trkpt lat="42.9377526" lon="11.4520804"><ele>222.0</ele><time>2026-04-26T09:46:47.168Z</time></trkpt><trkpt lat="42.9376703" lon="11.4520705"><ele>222.0</ele><time>2026-04-26T09:46:48.17Z</time></trkpt><trkpt lat="42.9375857" lon="11.4520946"><ele>222.0</ele><time>2026-04-26T09:46:49.171Z</time></trkpt><trkpt lat="42.9375008" lon="11.4521402"><ele>222.0</ele><time>2026-04-26T09:46:50.186Z</time></trkpt><trkpt lat="42.9374173" lon="11.4522007"><ele>222.0</ele><time>2026-04-26T09:46:51.177Z</time></trkpt><trkpt lat="42.9373368" lon="11.4522729"><ele>223.39999999999998</ele><time>2026-04-26T09:46:52.191Z</time></trkpt><trkpt lat="42.9372586" lon="11.4523453"><ele>224.79999999999998</ele><time>2026-04-26T09:46:53.195Z</time></trkpt><trkpt lat="42.9371814" lon="11.4524182"><ele>226.2</ele><time>2026-04-26T09:46:54.19Z</time></trkpt><trkpt lat="42.9371051" lon="11.4524912"><ele>227.6</ele><time>2026-04-26T09:46:55.185Z</time></trkpt><trkpt lat="42.9370294" lon="11.4525652"><ele>229.0</ele><time>2026-04-26T09:46:56.187Z</time></trkpt><trkpt lat="42.9369521" lon="11.4526389"><ele>229.0</ele><time>2026-04-26T09:46:57.192Z</time></trkpt><trkpt lat="42.9368731" lon="11.4527093"><ele>228.99999999999997</ele><time>2026-04-26T09:46:58.179Z</time></trkpt><trkpt lat="42.9367911" lon="11.4527787"><ele>228.99999999999997</ele><time>2026-04-26T09:46:59.187Z</time></trkpt><trkpt lat="42.9367068" lon="11.4528478"><ele>229.0</ele><time>2026-04-26T09:47:00.189Z</time></trkpt><trkpt lat="42.9366222" lon="11.4529174"><ele>229.0</ele><time>2026-04-26T09:47:01.191Z</time></trkpt><trkpt lat="42.9365372" lon="11.4529814"><ele>231.39999999999998</ele><time>2026-04-26T09:47:02.194Z</time></trkpt><trkpt lat="42.9364483" lon="11.4530372"><ele>233.79999999999998</ele><time>2026-04-26T09:47:03.189Z</time></trkpt><trkpt lat="42.9363597" lon="11.4530874"><ele>236.20000000000002</ele><time>2026-04-26T09:47:04.175Z</time></trkpt><trkpt lat="42.9362722" lon="11.4531348"><ele>238.60000000000002</ele><time>2026-04-26T09:47:05.189Z</time></trkpt><trkpt lat="42.9361871" lon="11.4531866"><ele>241.0</ele><time>2026-04-26T09:47:06.183Z</time></trkpt><trkpt lat="42.9361063" lon="11.4532571"><ele>241.0</ele><time>2026-04-26T09:47:07.186Z</time></trkpt><trkpt lat="42.9360328" lon="11.4533521"><ele>241.00000000000003</ele><time>2026-04-26T09:47:08.172Z</time></trkpt><trkpt lat="42.9359594" lon="11.453453"><ele>241.00000000000003</ele><time>2026-04-26T09:47:09.176Z</time></trkpt><trkpt lat="42.9358893" lon="11.4535563"><ele>241.0</ele><time>2026-04-26T09:47:10.191Z</time></trkpt><trkpt lat="42.9358214" lon="11.4536596"><ele>241.0</ele><time>2026-04-26T09:47:11.19Z</time></trkpt><trkpt lat="42.9357556" lon="11.4537613"><ele>242.0</ele><time>2026-04-26T09:47:12.176Z</time></trkpt><trkpt lat="42.9356901" lon="11.4538578"><ele>243.00000000000003</ele><time>2026-04-26T09:47:13.179Z</time></trkpt><trkpt lat="42.9356267" lon="11.4539475"><ele>244.00000000000003</ele><time>2026-04-26T09:47:14.178Z</time></trkpt><trkpt lat="42.9355616" lon="11.4540388"><ele>245.0</ele><time>2026-04-26T09:47:15.186Z</time></trkpt><trkpt lat="42.9354958" lon="11.45414"><ele>246.0</ele><time>2026-04-26T09:47:16.173Z</time></trkpt><trkpt lat="42.9354342" lon="11.4542595"><ele>246.0</ele><time>2026-04-26T09:47:17.172Z</time></trkpt><trkpt lat="42.9353774" lon="11.4544001"><ele>246.0</ele><time>2026-04-26T09:47:18.178Z</time></trkpt><trkpt lat="42.935323" lon="11.4545571"><ele>246.0</ele><time>2026-04-26T09:47:19.19Z</time></trkpt><trkpt lat="42.9352684" lon="11.4547247"><ele>246.0</ele><time>2026-04-26T09:47:20.186Z</time></trkpt><trkpt lat="42.9352093" lon="11.4548944"><ele>244.5</ele><time>2026-04-26T09:47:21.183Z</time></trkpt><trkpt lat="42.9351462" lon="11.4550608"><ele>243.0</ele><time>2026-04-26T09:47:22.182Z</time></trkpt><trkpt lat="42.9350856" lon="11.4552251"><ele>241.5</ele><time>2026-04-26T09:47:23.19Z</time></trkpt><trkpt lat="42.9350272" lon="11.4553931"><ele>240.0</ele><time>2026-04-26T09:47:24.184Z</time></trkpt><trkpt lat="42.9349686" lon="11.4555569"><ele>240.0</ele><time>2026-04-26T09:47:25.174Z</time></trkpt><trkpt lat="42.9349097" lon="11.4557159"><ele>240.0</ele><time>2026-04-26T09:47:26.176Z</time></trkpt><trkpt lat="42.9348483" lon="11.4558705"><ele>240.0</ele><time>2026-04-26T09:47:27.196Z</time></trkpt><trkpt lat="42.9347785" lon="11.4560179"><ele>240.0</ele><time>2026-04-26T09:47:28.174Z</time></trkpt><trkpt lat="42.9346968" lon="11.456152"><ele>240.0</ele><time>2026-04-26T09:47:29.179Z</time></trkpt><trkpt lat="42.9346139" lon="11.4562846"><ele>240.0</ele><time>2026-04-26T09:47:30.195Z</time></trkpt><trkpt lat="42.9345069" lon="11.4563964"><ele>240.0</ele><time>2026-04-26T09:47:31.194Z</time></trkpt><trkpt lat="42.9344012" lon="11.4565106"><ele>240.0</ele><time>2026-04-26T09:47:32.182Z</time></trkpt><trkpt lat="42.9342986" lon="11.4566172"><ele>241.0</ele><time>2026-04-26T09:47:33.176Z</time></trkpt><trkpt lat="42.9341954" lon="11.4567152"><ele>242.0</ele><time>2026-04-26T09:47:34.18Z</time></trkpt><trkpt lat="42.9340959" lon="11.456812"><ele>243.0</ele><time>2026-04-26T09:47:35.181Z</time></trkpt><trkpt lat="42.9340016" lon="11.4569119"><ele>244.0</ele><time>2026-04-26T09:47:36.173Z</time></trkpt><trkpt lat="42.9339112" lon="11.4570144"><ele>245.0</ele><time>2026-04-26T09:47:37.178Z</time></trkpt><trkpt lat="42.933828" lon="11.4571244"><ele>246.0</ele><time>2026-04-26T09:47:38.195Z</time></trkpt><trkpt lat="42.9337521" lon="11.4572451"><ele>247.0</ele><time>2026-04-26T09:47:39.183Z</time></trkpt><trkpt lat="42.9336787" lon="11.4573765"><ele>248.0</ele><time>2026-04-26T09:47:40.171Z</time></trkpt><trkpt lat="42.933604" lon="11.4575103"><ele>248.0</ele><time>2026-04-26T09:47:41.176Z</time></trkpt><trkpt lat="42.9335241" lon="11.4576431"><ele>248.0</ele><time>2026-04-26T09:47:42.173Z</time></trkpt><trkpt lat="42.9334389" lon="11.4577764"><ele>248.0</ele><time>2026-04-26T09:47:43.19Z</time></trkpt><trkpt lat="42.9333516" lon="11.4579066"><ele>248.0</ele><time>2026-04-26T09:47:44.171Z</time></trkpt><trkpt lat="42.933262" lon="11.458034"><ele>249.0</ele><time>2026-04-26T09:47:45.19Z</time></trkpt><trkpt lat="42.9331762" lon="11.4581624"><ele>250.0</ele><time>2026-04-26T09:47:46.174Z</time></trkpt><trkpt lat="42.9331014" lon="11.458296"><ele>251.0</ele><time>2026-04-26T09:47:47.174Z</time></trkpt><trkpt lat="42.9330274" lon="11.4584272"><ele>252.0</ele><time>2026-04-26T09:47:48.192Z</time></trkpt><trkpt lat="42.9329527" lon="11.4585616"><ele>252.0</ele><time>2026-04-26T09:47:49.183Z</time></trkpt><trkpt lat="42.9328713" lon="11.4586874"><ele>252.0</ele><time>2026-04-26T09:47:50.184Z</time></trkpt><trkpt lat="42.9327854" lon="11.4587994"><ele>252.0</ele><time>2026-04-26T09:47:51.176Z</time></trkpt><trkpt lat="42.9326988" lon="11.4588992"><ele>252.0</ele><time>2026-04-26T09:47:52.175Z</time></trkpt><trkpt lat="42.9326104" lon="11.4589994"><ele>253.0</ele><time>2026-04-26T09:47:53.183Z</time></trkpt><trkpt lat="42.932521" lon="11.4591064"><ele>254.0</ele><time>2026-04-26T09:47:54.192Z</time></trkpt><trkpt lat="42.9324343" lon="11.4592176"><ele>255.0</ele><time>2026-04-26T09:47:55.183Z</time></trkpt><trkpt lat="42.9323457" lon="11.4593294"><ele>256.0</ele><time>2026-04-26T09:47:56.172Z</time></trkpt><trkpt lat="42.9322485" lon="11.4594464"><ele>256.0</ele><time>2026-04-26T09:47:57.175Z</time></trkpt><trkpt lat="42.9321462" lon="11.459569"><ele>256.0</ele><time>2026-04-26T09:47:58.177Z</time></trkpt><trkpt lat="42.932029" lon="11.4596944"><ele>256.0</ele><time>2026-04-26T09:47:59.191Z</time></trkpt><trkpt lat="42.9319085" lon="11.4598166"><ele>256.0</ele><time>2026-04-26T09:48:00.172Z</time></trkpt><trkpt lat="42.9317953" lon="11.4599346"><ele>257.25</ele><time>2026-04-26T09:48:01.175Z</time></trkpt><trkpt lat="42.9316917" lon="11.4600484"><ele>258.5</ele><time>2026-04-26T09:48:02.173Z</time></trkpt><trkpt lat="42.9315932" lon="11.4601555"><ele>259.75</ele><time>2026-04-26T09:48:03.189Z</time></trkpt><trkpt lat="42.9315" lon="11.4602557"><ele>261.0</ele><time>2026-04-26T09:48:04.193Z</time></trkpt><trkpt lat="42.9314115" lon="11.4603491"><ele>261.0</ele><time>2026-04-26T09:48:05.189Z</time></trkpt><trkpt lat="42.9313272" lon="11.4604357"><ele>261.0</ele><time>2026-04-26T09:48:06.168Z</time></trkpt><trkpt lat="42.9312433" lon="11.4605216"><ele>261.0</ele><time>2026-04-26T09:48:07.18Z</time></trkpt><trkpt lat="42.9311404" lon="11.46059"><ele>261.0</ele><time>2026-04-26T09:48:08.169Z</time></trkpt><trkpt lat="42.9310318" lon="11.4606584"><ele>261.0</ele><time>2026-04-26T09:48:09.19Z</time></trkpt><trkpt lat="42.9309064" lon="11.4607034"><ele>265.25</ele><time>2026-04-26T09:48:10.186Z</time></trkpt><trkpt lat="42.9307843" lon="11.4607451"><ele>269.5</ele><time>2026-04-26T09:48:11.172Z</time></trkpt><trkpt lat="42.9306712" lon="11.4607763"><ele>273.75</ele><time>2026-04-26T09:48:12.188Z</time></trkpt><trkpt lat="42.9305616" lon="11.4608097"><ele>278.0</ele><time>2026-04-26T09:48:13.186Z</time></trkpt><trkpt lat="42.9304568" lon="11.4608451"><ele>278.0</ele><time>2026-04-26T09:48:14.171Z</time></trkpt><trkpt lat="42.9303614" lon="11.4608799"><ele>278.0</ele><time>2026-04-26T09:48:15.187Z</time></trkpt><trkpt lat="42.9302825" lon="11.4609124"><ele>278.0</ele><time>2026-04-26T09:48:16.186Z</time></trkpt><trkpt lat="42.9302163" lon="11.4609415"><ele>278.0</ele><time>2026-04-26T09:48:17.186Z</time></trkpt><trkpt lat="42.930115" lon="11.4609959"><ele>278.0</ele><time>2026-04-26T09:48:19.191Z</time></trkpt><trkpt lat="42.9300297" lon="11.4610704"><ele>279.4</ele><time>2026-04-26T09:48:21.173Z</time></trkpt><trkpt lat="42.9299764" lon="11.461119"><ele>280.8</ele><time>2026-04-26T09:48:22.171Z</time></trkpt><trkpt lat="42.9298753" lon="11.461202"><ele>282.2</ele><time>2026-04-26T09:48:24.187Z</time></trkpt><trkpt lat="42.9297584" lon="11.4612955"><ele>283.6</ele><time>2026-04-26T09:48:26.192Z</time></trkpt><trkpt lat="42.9296963" lon="11.4613483"><ele>285.0</ele><time>2026-04-26T09:48:27.183Z</time></trkpt><trkpt lat="42.9296293" lon="11.4614083"><ele>286.8</ele><time>2026-04-26T09:48:28.182Z</time></trkpt><trkpt lat="42.929556" lon="11.4614764"><ele>288.6</ele><time>2026-04-26T09:48:29.183Z</time></trkpt><trkpt lat="42.9294769" lon="11.461553"><ele>290.4</ele><time>2026-04-26T09:48:30.172Z</time></trkpt><trkpt lat="42.92939" lon="11.461635"><ele>292.2</ele><time>2026-04-26T09:48:31.176Z</time></trkpt><trkpt lat="42.9293016" lon="11.4617094"><ele>294.0</ele><time>2026-04-26T09:48:32.176Z</time></trkpt><trkpt lat="42.9292217" lon="11.4617786"><ele>294.8333333333333</ele><time>2026-04-26T09:48:33.192Z</time></trkpt><trkpt lat="42.9291458" lon="11.4618486"><ele>295.6666666666667</ele><time>2026-04-26T09:48:34.178Z</time></trkpt><trkpt lat="42.9290724" lon="11.4619149"><ele>296.5</ele><time>2026-04-26T09:48:35.188Z</time></trkpt><trkpt lat="42.9290071" lon="11.4619859"><ele>297.33333333333337</ele><time>2026-04-26T09:48:36.182Z</time></trkpt><trkpt lat="42.9289611" lon="11.4620597"><ele>298.1666666666667</ele><time>2026-04-26T09:48:37.172Z</time></trkpt><trkpt lat="42.9289007" lon="11.4621511"><ele>299.0</ele><time>2026-04-26T09:48:39.19Z</time></trkpt><trkpt lat="42.9288352" lon="11.4622039"><ele>301.0</ele><time>2026-04-26T09:48:42.174Z</time></trkpt><trkpt lat="42.9287314" lon="11.4621854"><ele>303.0</ele><time>2026-04-26T09:48:44.171Z</time></trkpt><trkpt lat="42.9286647" lon="11.4621861"><ele>305.0</ele><time>2026-04-26T09:48:45.181Z</time></trkpt><trkpt lat="42.9285983" lon="11.4621961"><ele>307.0</ele><time>2026-04-26T09:48:46.187Z</time></trkpt><trkpt lat="42.9285336" lon="11.4622125"><ele>309.0</ele><time>2026-04-26T09:48:47.184Z</time></trkpt><trkpt lat="42.9284722" lon="11.4622542"><ele>311.0</ele><time>2026-04-26T09:48:48.184Z</time></trkpt><trkpt lat="42.928414" lon="11.4623053"><ele>313.0</ele><time>2026-04-26T09:48:49.184Z</time></trkpt><trkpt lat="42.9283655" lon="11.4623743"><ele>313.2857142857143</ele><time>2026-04-26T09:48:50.189Z</time></trkpt><trkpt lat="42.9283217" lon="11.4624479"><ele>313.57142857142856</ele><time>2026-04-26T09:48:51.181Z</time></trkpt><trkpt lat="42.9282858" lon="11.4625221"><ele>313.8571428571429</ele><time>2026-04-26T09:48:52.185Z</time></trkpt><trkpt lat="42.9282594" lon="11.4626117"><ele>314.1428571428571</ele><time>2026-04-26T09:48:53.17Z</time></trkpt><trkpt lat="42.9282328" lon="11.4627027"><ele>314.42857142857144</ele><time>2026-04-26T09:48:54.192Z</time></trkpt><trkpt lat="42.9282016" lon="11.4627913"><ele>314.7142857142857</ele><time>2026-04-26T09:48:55.19Z</time></trkpt><trkpt lat="42.9281721" lon="11.4628799"><ele>315.0</ele><time>2026-04-26T09:48:56.188Z</time></trkpt><trkpt lat="42.9281369" lon="11.4629739"><ele>316.3333333333333</ele><time>2026-04-26T09:48:57.165Z</time></trkpt><trkpt lat="42.9280942" lon="11.463061"><ele>317.6666666666667</ele><time>2026-04-26T09:48:58.171Z</time></trkpt><trkpt lat="42.9280441" lon="11.4631437"><ele>319.0</ele><time>2026-04-26T09:48:59.186Z</time></trkpt><trkpt lat="42.9280047" lon="11.4632155"><ele>320.33333333333337</ele><time>2026-04-26T09:49:00.169Z</time></trkpt><trkpt lat="42.9279746" lon="11.4632949"><ele>321.6666666666667</ele><time>2026-04-26T09:49:01.169Z</time></trkpt><trkpt lat="42.9279094" lon="11.4634365"><ele>323.0</ele><time>2026-04-26T09:49:03.186Z</time></trkpt><trkpt lat="42.9278654" lon="11.4635059"><ele>323.00000000000006</ele><time>2026-04-26T09:49:04.185Z</time></trkpt><trkpt lat="42.9278192" lon="11.4635717"><ele>323.0</ele><time>2026-04-26T09:49:05.183Z</time></trkpt><trkpt lat="42.9277742" lon="11.4636374"><ele>323.0</ele><time>2026-04-26T09:49:06.175Z</time></trkpt><trkpt lat="42.9277213" lon="11.4637033"><ele>323.0</ele><time>2026-04-26T09:49:07.172Z</time></trkpt><trkpt lat="42.9276624" lon="11.463773"><ele>323.0</ele><time>2026-04-26T09:49:08.182Z</time></trkpt><trkpt lat="42.9275995" lon="11.4638421"><ele>323.00000000000006</ele><time>2026-04-26T09:49:09.181Z</time></trkpt><trkpt lat="42.927531" lon="11.4639087"><ele>323.0</ele><time>2026-04-26T09:49:10.196Z</time></trkpt><trkpt lat="42.9274568" lon="11.4639536"><ele>324.8571428571429</ele><time>2026-04-26T09:49:11.17Z</time></trkpt><trkpt lat="42.9273849" lon="11.4639961"><ele>326.7142857142857</ele><time>2026-04-26T09:49:12.18Z</time></trkpt><trkpt lat="42.9273178" lon="11.4640319"><ele>328.57142857142856</ele><time>2026-04-26T09:49:13.195Z</time></trkpt><trkpt lat="42.9272489" lon="11.4640582"><ele>330.42857142857144</ele><time>2026-04-26T09:49:14.188Z</time></trkpt><trkpt lat="42.927178" lon="11.4640681"><ele>332.2857142857143</ele><time>2026-04-26T09:49:15.194Z</time></trkpt><trkpt lat="42.9271107" lon="11.4640797"><ele>334.14285714285717</ele><time>2026-04-26T09:49:16.188Z</time></trkpt><trkpt lat="42.9270479" lon="11.4640969"><ele>336.0</ele><time>2026-04-26T09:49:17.191Z</time></trkpt><trkpt lat="42.9269892" lon="11.4641342"><ele>336.0</ele><time>2026-04-26T09:49:18.172Z</time></trkpt><trkpt lat="42.9269315" lon="11.4641861"><ele>336.0</ele><time>2026-04-26T09:49:19.17Z</time></trkpt><trkpt lat="42.9268701" lon="11.4642434"><ele>336.0</ele><time>2026-04-26T09:49:20.184Z</time></trkpt><trkpt lat="42.9268052" lon="11.4643065"><ele>336.0</ele><time>2026-04-26T09:49:21.173Z</time></trkpt><trkpt lat="42.9267339" lon="11.4643708"><ele>336.0</ele><time>2026-04-26T09:49:22.182Z</time></trkpt><trkpt lat="42.9266673" lon="11.4644331"><ele>336.0</ele><time>2026-04-26T09:49:23.187Z</time></trkpt><trkpt lat="42.9266007" lon="11.4644968"><ele>337.20000000000005</ele><time>2026-04-26T09:49:24.168Z</time></trkpt><trkpt lat="42.9265265" lon="11.4645672"><ele>338.40000000000003</ele><time>2026-04-26T09:49:25.193Z</time></trkpt><trkpt lat="42.9264517" lon="11.4646394"><ele>339.6</ele><time>2026-04-26T09:49:26.182Z</time></trkpt><trkpt lat="42.9263727" lon="11.4647102"><ele>340.8</ele><time>2026-04-26T09:49:27.18Z</time></trkpt><trkpt lat="42.9262985" lon="11.4647826"><ele>342.0</ele><time>2026-04-26T09:49:28.189Z</time></trkpt><trkpt lat="42.9262279" lon="11.4648503"><ele>342.0</ele><time>2026-04-26T09:49:29.174Z</time></trkpt><trkpt lat="42.9261645" lon="11.4649094"><ele>342.0</ele><time>2026-04-26T09:49:30.197Z</time></trkpt><trkpt lat="42.9260791" lon="11.4650054"><ele>342.0</ele><time>2026-04-26T09:49:32.182Z</time></trkpt><trkpt lat="42.9260461" lon="11.4651065"><ele>342.0</ele><time>2026-04-26T09:49:34.184Z</time></trkpt><trkpt lat="42.9260477" lon="11.465213"><ele>342.0</ele><time>2026-04-26T09:49:36.185Z</time></trkpt><trkpt lat="42.9260646" lon="11.4653102"><ele>342.0</ele><time>2026-04-26T09:49:38.187Z</time></trkpt><trkpt lat="42.9261403" lon="11.4654058"><ele>342.5</ele><time>2026-04-26T09:49:40.193Z</time></trkpt><trkpt lat="42.926233" lon="11.4655151"><ele>343.0</ele><time>2026-04-26T09:49:42.185Z</time></trkpt><trkpt lat="42.926311" lon="11.4656186"><ele>343.5</ele><time>2026-04-26T09:49:44.181Z</time></trkpt><trkpt lat="42.9263902" lon="11.4657344"><ele>344.0</ele><time>2026-04-26T09:49:46.179Z</time></trkpt><trkpt lat="42.9264863" lon="11.4658244"><ele>344.0</ele><time>2026-04-26T09:49:48.176Z</time></trkpt><trkpt lat="42.9265888" lon="11.465876"><ele>344.0</ele><time>2026-04-26T09:49:50.19Z</time></trkpt><trkpt lat="42.9267134" lon="11.4659217"><ele>344.0</ele><time>2026-04-26T09:49:52.182Z</time></trkpt><trkpt lat="42.9267981" lon="11.4660284"><ele>344.0</ele><time>2026-04-26T09:49:54.182Z</time></trkpt><trkpt lat="42.9268764" lon="11.4661753"><ele>342.83333333333337</ele><time>2026-04-26T09:49:56.167Z</time></trkpt><trkpt lat="42.9269182" lon="11.4662612"><ele>341.6666666666667</ele><time>2026-04-26T09:49:57.18Z</time></trkpt><trkpt lat="42.9269581" lon="11.4663329"><ele>340.5</ele><time>2026-04-26T09:49:58.174Z</time></trkpt><trkpt lat="42.9270031" lon="11.4663932"><ele>339.3333333333333</ele><time>2026-04-26T09:49:59.175Z</time></trkpt><trkpt lat="42.9270859" lon="11.4664921"><ele>338.16666666666663</ele><time>2026-04-26T09:50:01.179Z</time></trkpt><trkpt lat="42.92711" lon="11.4665855"><ele>337.0</ele><time>2026-04-26T09:50:03.183Z</time></trkpt><trkpt lat="42.9270768" lon="11.4666602"><ele>337.0</ele><time>2026-04-26T09:50:06.193Z</time></trkpt><trkpt lat="42.9270064" lon="11.4667238"><ele>337.0</ele><time>2026-04-26T09:50:10.177Z</time></trkpt><trkpt lat="42.9269153" lon="11.4667735"><ele>337.0</ele><time>2026-04-26T09:50:12.187Z</time></trkpt><trkpt lat="42.9268047" lon="11.4668133"><ele>337.0</ele><time>2026-04-26T09:50:14.187Z</time></trkpt><trkpt lat="42.9267417" lon="11.4668311"><ele>337.0</ele><time>2026-04-26T09:50:15.2Z</time></trkpt><trkpt lat="42.9266692" lon="11.4668835"><ele>337.0</ele><time>2026-04-26T09:50:16.173Z</time></trkpt><trkpt lat="42.9265955" lon="11.4669379"><ele>338.5</ele><time>2026-04-26T09:50:17.176Z</time></trkpt><trkpt lat="42.926514" lon="11.4669895"><ele>340.0</ele><time>2026-04-26T09:50:18.198Z</time></trkpt><trkpt lat="42.9264351" lon="11.4670295"><ele>341.5</ele><time>2026-04-26T09:50:19.189Z</time></trkpt><trkpt lat="42.9263579" lon="11.4670667"><ele>343.0</ele><time>2026-04-26T09:50:20.187Z</time></trkpt><trkpt lat="42.9262725" lon="11.4670876"><ele>344.5</ele><time>2026-04-26T09:50:21.184Z</time></trkpt><trkpt lat="42.92618" lon="11.4671131"><ele>346.0</ele><time>2026-04-26T09:50:22.174Z</time></trkpt><trkpt lat="42.9260892" lon="11.4671448"><ele>346.0</ele><time>2026-04-26T09:50:23.187Z</time></trkpt><trkpt lat="42.9260008" lon="11.4671807"><ele>346.0</ele><time>2026-04-26T09:50:24.175Z</time></trkpt><trkpt lat="42.9259147" lon="11.4672155"><ele>346.0</ele><time>2026-04-26T09:50:25.182Z</time></trkpt><trkpt lat="42.9258339" lon="11.4672437"><ele>346.0</ele><time>2026-04-26T09:50:26.172Z</time></trkpt><trkpt lat="42.9257519" lon="11.4672627"><ele>346.0</ele><time>2026-04-26T09:50:27.171Z</time></trkpt><trkpt lat="42.9256784" lon="11.4672643"><ele>346.0</ele><time>2026-04-26T09:50:28.18Z</time></trkpt><trkpt lat="42.9256067" lon="11.4672632"><ele>347.66666666666663</ele><time>2026-04-26T09:50:29.178Z</time></trkpt><trkpt lat="42.9255413" lon="11.4672094"><ele>349.3333333333333</ele><time>2026-04-26T09:50:30.194Z</time></trkpt><trkpt lat="42.9254705" lon="11.4671337"><ele>351.0</ele><time>2026-04-26T09:50:31.186Z</time></trkpt><trkpt lat="42.9253951" lon="11.4670516"><ele>352.6666666666667</ele><time>2026-04-26T09:50:32.18Z</time></trkpt><trkpt lat="42.9253248" lon="11.4669748"><ele>354.33333333333337</ele><time>2026-04-26T09:50:33.193Z</time></trkpt><trkpt lat="42.9252669" lon="11.4669166"><ele>356.0</ele><time>2026-04-26T09:50:34.186Z</time></trkpt><trkpt lat="42.9251781" lon="11.466884"><ele>356.0</ele><time>2026-04-26T09:50:36.174Z</time></trkpt><trkpt lat="42.9251047" lon="11.4669446"><ele>356.0</ele><time>2026-04-26T09:50:38.188Z</time></trkpt><trkpt lat="42.9250431" lon="11.4671044"><ele>356.0</ele><time>2026-04-26T09:50:40.187Z</time></trkpt><trkpt lat="42.9249865" lon="11.4671744"><ele>356.0</ele><time>2026-04-26T09:50:41.181Z</time></trkpt><trkpt lat="42.9249186" lon="11.4672244"><ele>356.0</ele><time>2026-04-26T09:50:42.19Z</time></trkpt><trkpt lat="42.9248527" lon="11.4672734"><ele>356.0</ele><time>2026-04-26T09:50:43.17Z</time></trkpt><trkpt lat="42.9247825" lon="11.4672982"><ele>357.1666666666667</ele><time>2026-04-26T09:50:44.167Z</time></trkpt><trkpt lat="42.9247037" lon="11.4672809"><ele>358.33333333333337</ele><time>2026-04-26T09:50:45.18Z</time></trkpt><trkpt lat="42.9246201" lon="11.4672339"><ele>359.5</ele><time>2026-04-26T09:50:46.189Z</time></trkpt><trkpt lat="42.9245373" lon="11.467191"><ele>360.6666666666667</ele><time>2026-04-26T09:50:47.183Z</time></trkpt><trkpt lat="42.9244549" lon="11.4671723"><ele>361.8333333333333</ele><time>2026-04-26T09:50:48.183Z</time></trkpt><trkpt lat="42.9243753" lon="11.4671553"><ele>363.0</ele><time>2026-04-26T09:50:49.181Z</time></trkpt><trkpt lat="42.9243015" lon="11.4671146"><ele>365.0</ele><time>2026-04-26T09:50:50.185Z</time></trkpt><trkpt lat="42.9242246" lon="11.4670913"><ele>367.0</ele><time>2026-04-26T09:50:51.182Z</time></trkpt><trkpt lat="42.924143" lon="11.4670745"><ele>369.0</ele><time>2026-04-26T09:50:52.186Z</time></trkpt><trkpt lat="42.9240578" lon="11.467087"><ele>371.0</ele><time>2026-04-26T09:50:53.181Z</time></trkpt><trkpt lat="42.9239634" lon="11.4671158"><ele>373.0</ele><time>2026-04-26T09:50:54.173Z</time></trkpt><trkpt lat="42.9238739" lon="11.4671511"><ele>375.0</ele><time>2026-04-26T09:50:55.185Z</time></trkpt><trkpt lat="42.9237805" lon="11.4671772"><ele>375.0</ele><time>2026-04-26T09:50:56.183Z</time></trkpt><trkpt lat="42.9236912" lon="11.4672063"><ele>375.0</ele><time>2026-04-26T09:50:57.178Z</time></trkpt><trkpt lat="42.9236096" lon="11.4672504"><ele>375.0</ele><time>2026-04-26T09:50:58.188Z</time></trkpt><trkpt lat="42.9235344" lon="11.4672932"><ele>375.0</ele><time>2026-04-26T09:50:59.181Z</time></trkpt><trkpt lat="42.923466" lon="11.4673322"><ele>375.0</ele><time>2026-04-26T09:51:00.18Z</time></trkpt><trkpt lat="42.9233852" lon="11.4673662"><ele>375.0</ele><time>2026-04-26T09:51:01.181Z</time></trkpt><trkpt lat="42.9232865" lon="11.4673808"><ele>377.3333333333333</ele><time>2026-04-26T09:51:02.173Z</time></trkpt><trkpt lat="42.923189" lon="11.4673915"><ele>379.66666666666663</ele><time>2026-04-26T09:51:03.191Z</time></trkpt><trkpt lat="42.9231014" lon="11.4674044"><ele>382.0</ele><time>2026-04-26T09:51:04.173Z</time></trkpt><trkpt lat="42.923019" lon="11.4674244"><ele>384.3333333333333</ele><time>2026-04-26T09:51:05.189Z</time></trkpt><trkpt lat="42.9229441" lon="11.4674757"><ele>386.66666666666663</ele><time>2026-04-26T09:51:06.17Z</time></trkpt><trkpt lat="42.9228684" lon="11.4675215"><ele>389.0</ele><time>2026-04-26T09:51:07.192Z</time></trkpt><trkpt lat="42.9227985" lon="11.4675823"><ele>389.0</ele><time>2026-04-26T09:51:08.192Z</time></trkpt><trkpt lat="42.9227225" lon="11.467646"><ele>389.0</ele><time>2026-04-26T09:51:09.176Z</time></trkpt><trkpt lat="42.9226373" lon="11.4677128"><ele>389.0</ele><time>2026-04-26T09:51:10.183Z</time></trkpt><trkpt lat="42.9225297" lon="11.4677866"><ele>389.0</ele><time>2026-04-26T09:51:11.182Z</time></trkpt><trkpt lat="42.9224286" lon="11.4678564"><ele>389.0</ele><time>2026-04-26T09:51:12.175Z</time></trkpt><trkpt lat="42.9223211" lon="11.4679269"><ele>391.25</ele><time>2026-04-26T09:51:13.185Z</time></trkpt><trkpt lat="42.9222025" lon="11.4679964"><ele>393.5</ele><time>2026-04-26T09:51:14.192Z</time></trkpt><trkpt lat="42.9220856" lon="11.4680559"><ele>395.75</ele><time>2026-04-26T09:51:15.192Z</time></trkpt><trkpt lat="42.9219785" lon="11.4681061"><ele>398.0</ele><time>2026-04-26T09:51:16.188Z</time></trkpt><trkpt lat="42.9218888" lon="11.4681545"><ele>397.99999999999994</ele><time>2026-04-26T09:51:17.181Z</time></trkpt><trkpt lat="42.9218075" lon="11.4682006"><ele>398.0</ele><time>2026-04-26T09:51:18.182Z</time></trkpt><trkpt lat="42.9217345" lon="11.4682345"><ele>398.0</ele><time>2026-04-26T09:51:19.192Z</time></trkpt><trkpt lat="42.9216514" lon="11.468242"><ele>398.0</ele><time>2026-04-26T09:51:20.176Z</time></trkpt><trkpt lat="42.9215632" lon="11.4682214"><ele>397.99999999999994</ele><time>2026-04-26T09:51:21.191Z</time></trkpt><trkpt lat="42.9214791" lon="11.4682006"><ele>398.0</ele><time>2026-04-26T09:51:22.183Z</time></trkpt><trkpt lat="42.9213891" lon="11.4682018"><ele>398.79999999999995</ele><time>2026-04-26T09:51:23.175Z</time></trkpt><trkpt lat="42.9212995" lon="11.4682361"><ele>399.6</ele><time>2026-04-26T09:51:24.191Z</time></trkpt><trkpt lat="42.921208" lon="11.4682725"><ele>400.4</ele><time>2026-04-26T09:51:25.175Z</time></trkpt><trkpt lat="42.9211127" lon="11.4683056"><ele>401.20000000000005</ele><time>2026-04-26T09:51:26.192Z</time></trkpt><trkpt lat="42.9210311" lon="11.4683414"><ele>402.0</ele><time>2026-04-26T09:51:27.172Z</time></trkpt><trkpt lat="42.9209607" lon="11.4683885"><ele>402.0</ele><time>2026-04-26T09:51:28.187Z</time></trkpt><trkpt lat="42.9208998" lon="11.4684528"><ele>402.0</ele><time>2026-04-26T09:51:29.183Z</time></trkpt><trkpt lat="42.9208354" lon="11.4685267"><ele>402.0</ele><time>2026-04-26T09:51:30.179Z</time></trkpt><trkpt lat="42.9207725" lon="11.4686371"><ele>402.0</ele><time>2026-04-26T09:51:31.196Z</time></trkpt><trkpt lat="42.9207112" lon="11.4687441"><ele>402.0</ele><time>2026-04-26T09:51:32.18Z</time></trkpt><trkpt lat="42.920646" lon="11.468835"><ele>402.1666666666667</ele><time>2026-04-26T09:51:33.187Z</time></trkpt><trkpt lat="42.9205887" lon="11.4689106"><ele>402.33333333333337</ele><time>2026-04-26T09:51:34.182Z</time></trkpt><trkpt lat="42.9205206" lon="11.4689408"><ele>402.5</ele><time>2026-04-26T09:51:35.174Z</time></trkpt><trkpt lat="42.9204503" lon="11.4689721"><ele>402.6666666666667</ele><time>2026-04-26T09:51:36.177Z</time></trkpt><trkpt lat="42.9203646" lon="11.4689672"><ele>402.83333333333337</ele><time>2026-04-26T09:51:37.184Z</time></trkpt><trkpt lat="42.9202639" lon="11.4689737"><ele>403.0</ele><time>2026-04-26T09:51:38.175Z</time></trkpt><trkpt lat="42.9201632" lon="11.4689794"><ele>404.59999999999997</ele><time>2026-04-26T09:51:39.18Z</time></trkpt><trkpt lat="42.9200647" lon="11.4689775"><ele>406.2</ele><time>2026-04-26T09:51:40.176Z</time></trkpt><trkpt lat="42.9199675" lon="11.468974"><ele>407.8</ele><time>2026-04-26T09:51:41.181Z</time></trkpt><trkpt lat="42.9198707" lon="11.4689925"><ele>409.4</ele><time>2026-04-26T09:51:42.184Z</time></trkpt><trkpt lat="42.9197822" lon="11.4690205"><ele>411.0</ele><time>2026-04-26T09:51:43.191Z</time></trkpt><trkpt lat="42.9197021" lon="11.4690479"><ele>411.0</ele><time>2026-04-26T09:51:44.17Z</time></trkpt><trkpt lat="42.9196382" lon="11.4690944"><ele>411.0</ele><time>2026-04-26T09:51:45.172Z</time></trkpt><trkpt lat="42.9195786" lon="11.4691607"><ele>411.0</ele><time>2026-04-26T09:51:46.198Z</time></trkpt><trkpt lat="42.9195151" lon="11.4692637"><ele>411.0</ele><time>2026-04-26T09:51:47.176Z</time></trkpt><trkpt lat="42.9194441" lon="11.4693804"><ele>411.0</ele><time>2026-04-26T09:51:48.175Z</time></trkpt><trkpt lat="42.9193723" lon="11.4694972"><ele>411.0</ele><time>2026-04-26T09:51:49.188Z</time></trkpt><trkpt lat="42.9192942" lon="11.4696006"><ele>411.0</ele><time>2026-04-26T09:51:50.183Z</time></trkpt><trkpt lat="42.919195" lon="11.4696779"><ele>411.0</ele><time>2026-04-26T09:51:51.179Z</time></trkpt><trkpt lat="42.9191008" lon="11.4697501"><ele>411.0</ele><time>2026-04-26T09:51:52.174Z</time></trkpt><trkpt lat="42.9189984" lon="11.4698088"><ele>411.0</ele><time>2026-04-26T09:51:53.183Z</time></trkpt><trkpt lat="42.9188879" lon="11.4698396"><ele>412.20000000000005</ele><time>2026-04-26T09:51:54.192Z</time></trkpt><trkpt lat="42.9187825" lon="11.4698693"><ele>413.40000000000003</ele><time>2026-04-26T09:51:55.195Z</time></trkpt><trkpt lat="42.9186842" lon="11.4698973"><ele>414.6</ele><time>2026-04-26T09:51:56.172Z</time></trkpt><trkpt lat="42.9185959" lon="11.4699405"><ele>415.8</ele><time>2026-04-26T09:51:57.174Z</time></trkpt><trkpt lat="42.9185068" lon="11.4699792"><ele>417.0</ele><time>2026-04-26T09:51:58.186Z</time></trkpt><trkpt lat="42.9184219" lon="11.4700178"><ele>419.5</ele><time>2026-04-26T09:51:59.192Z</time></trkpt><trkpt lat="42.9183446" lon="11.4700495"><ele>422.0</ele><time>2026-04-26T09:52:00.19Z</time></trkpt><trkpt lat="42.9182805" lon="11.4700609"><ele>424.5</ele><time>2026-04-26T09:52:01.18Z</time></trkpt><trkpt lat="42.9181679" lon="11.4700315"><ele>427.0</ele><time>2026-04-26T09:52:03.186Z</time></trkpt><trkpt lat="42.9181263" lon="11.4699627"><ele>429.5</ele><time>2026-04-26T09:52:04.178Z</time></trkpt><trkpt lat="42.9180872" lon="11.4698903"><ele>432.0</ele><time>2026-04-26T09:52:05.192Z</time></trkpt><trkpt lat="42.9180652" lon="11.4698044"><ele>432.0</ele><time>2026-04-26T09:52:06.182Z</time></trkpt><trkpt lat="42.9180616" lon="11.469698"><ele>432.0</ele><time>2026-04-26T09:52:07.193Z</time></trkpt><trkpt lat="42.9180686" lon="11.4695771"><ele>432.0</ele><time>2026-04-26T09:52:08.179Z</time></trkpt><trkpt lat="42.9180736" lon="11.4694483"><ele>432.0</ele><time>2026-04-26T09:52:09.172Z</time></trkpt><trkpt lat="42.918064" lon="11.4693241"><ele>432.0</ele><time>2026-04-26T09:52:10.185Z</time></trkpt><trkpt lat="42.9180647" lon="11.4692053"><ele>432.0</ele><time>2026-04-26T09:52:11.176Z</time></trkpt><trkpt lat="42.91807" lon="11.4690943"><ele>432.5</ele><time>2026-04-26T09:52:12.18Z</time></trkpt><trkpt lat="42.9180613" lon="11.4689987"><ele>433.0</ele><time>2026-04-26T09:52:13.178Z</time></trkpt><trkpt lat="42.9180297" lon="11.4689113"><ele>433.5</ele><time>2026-04-26T09:52:14.183Z</time></trkpt><trkpt lat="42.9179848" lon="11.4688407"><ele>434.0</ele><time>2026-04-26T09:52:15.174Z</time></trkpt><trkpt lat="42.9179305" lon="11.4687888"><ele>434.5</ele><time>2026-04-26T09:52:16.186Z</time></trkpt><trkpt lat="42.9178082" lon="11.4687616"><ele>435.0</ele><time>2026-04-26T09:52:18.185Z</time></trkpt><trkpt lat="42.917739" lon="11.468799"><ele>435.6</ele><time>2026-04-26T09:52:19.183Z</time></trkpt><trkpt lat="42.9176548" lon="11.4688715"><ele>436.2</ele><time>2026-04-26T09:52:20.172Z</time></trkpt><trkpt lat="42.9175484" lon="11.4689187"><ele>436.79999999999995</ele><time>2026-04-26T09:52:21.192Z</time></trkpt><trkpt lat="42.9174406" lon="11.4689507"><ele>437.4</ele><time>2026-04-26T09:52:22.19Z</time></trkpt><trkpt lat="42.9173316" lon="11.4689792"><ele>438.0</ele><time>2026-04-26T09:52:23.18Z</time></trkpt><trkpt lat="42.9172249" lon="11.4690113"><ele>438.5</ele><time>2026-04-26T09:52:24.186Z</time></trkpt><trkpt lat="42.9171135" lon="11.4690498"><ele>439.0</ele><time>2026-04-26T09:52:25.181Z</time></trkpt><trkpt lat="42.9169944" lon="11.4690789"><ele>439.5</ele><time>2026-04-26T09:52:26.188Z</time></trkpt><trkpt lat="42.9168776" lon="11.4691021"><ele>440.0</ele><time>2026-04-26T09:52:27.171Z</time></trkpt><trkpt lat="42.9167682" lon="11.4691277"><ele>439.8</ele><time>2026-04-26T09:52:28.18Z</time></trkpt><trkpt lat="42.9166578" lon="11.4691594"><ele>439.6</ele><time>2026-04-26T09:52:29.18Z</time></trkpt><trkpt lat="42.9165506" lon="11.4691901"><ele>439.4</ele><time>2026-04-26T09:52:30.178Z</time></trkpt><trkpt lat="42.9164523" lon="11.4692255"><ele>439.2</ele><time>2026-04-26T09:52:31.177Z</time></trkpt><trkpt lat="42.9163506" lon="11.4692523"><ele>439.0</ele><time>2026-04-26T09:52:32.181Z</time></trkpt><trkpt lat="42.9162515" lon="11.4692643"><ele>439.0</ele><time>2026-04-26T09:52:33.179Z</time></trkpt><trkpt lat="42.9161484" lon="11.4692646"><ele>439.0</ele><time>2026-04-26T09:52:34.183Z</time></trkpt><trkpt lat="42.9160396" lon="11.4692615"><ele>439.0</ele><time>2026-04-26T09:52:35.182Z</time></trkpt><trkpt lat="42.9159249" lon="11.4692614"><ele>439.0</ele><time>2026-04-26T09:52:36.184Z</time></trkpt><trkpt lat="42.9158071" lon="11.4692559"><ele>439.0</ele><time>2026-04-26T09:52:37.178Z</time></trkpt><trkpt lat="42.915693" lon="11.4692456"><ele>438.6</ele><time>2026-04-26T09:52:38.189Z</time></trkpt><trkpt lat="42.915586" lon="11.4692294"><ele>438.2</ele><time>2026-04-26T09:52:39.175Z</time></trkpt><trkpt lat="42.915484" lon="11.4692142"><ele>437.80000000000007</ele><time>2026-04-26T09:52:40.194Z</time></trkpt><trkpt lat="42.9153856" lon="11.4691976"><ele>437.40000000000003</ele><time>2026-04-26T09:52:41.18Z</time></trkpt><trkpt lat="42.9152841" lon="11.4691762"><ele>437.0</ele><time>2026-04-26T09:52:42.192Z</time></trkpt><trkpt lat="42.9151843" lon="11.4691587"><ele>437.0</ele><time>2026-04-26T09:52:43.18Z</time></trkpt><trkpt lat="42.9150849" lon="11.4691544"><ele>437.00000000000006</ele><time>2026-04-26T09:52:44.18Z</time></trkpt><trkpt lat="42.9149772" lon="11.4691518"><ele>437.00000000000006</ele><time>2026-04-26T09:52:45.18Z</time></trkpt><trkpt lat="42.914865" lon="11.4691698"><ele>437.0</ele><time>2026-04-26T09:52:46.182Z</time></trkpt><trkpt lat="42.9147528" lon="11.4691959"><ele>437.0</ele><time>2026-04-26T09:52:47.183Z</time></trkpt><trkpt lat="42.9146482" lon="11.4692237"><ele>436.8</ele><time>2026-04-26T09:52:48.183Z</time></trkpt><trkpt lat="42.9145418" lon="11.4692501"><ele>436.6</ele><time>2026-04-26T09:52:49.176Z</time></trkpt><trkpt lat="42.9144428" lon="11.4692776"><ele>436.40000000000003</ele><time>2026-04-26T09:52:50.191Z</time></trkpt><trkpt lat="42.9143395" lon="11.4693067"><ele>436.20000000000005</ele><time>2026-04-26T09:52:51.191Z</time></trkpt><trkpt lat="42.9142368" lon="11.4693376"><ele>436.0</ele><time>2026-04-26T09:52:52.17Z</time></trkpt><trkpt lat="42.9141372" lon="11.4693815"><ele>436.00000000000006</ele><time>2026-04-26T09:52:53.172Z</time></trkpt><trkpt lat="42.9140405" lon="11.4693966"><ele>436.0</ele><time>2026-04-26T09:52:54.177Z</time></trkpt><trkpt lat="42.9139457" lon="11.4694038"><ele>436.0</ele><time>2026-04-26T09:52:55.186Z</time></trkpt><trkpt lat="42.9138595" lon="11.4693709"><ele>436.0</ele><time>2026-04-26T09:52:56.186Z</time></trkpt><trkpt lat="42.91378" lon="11.4693406"><ele>436.00000000000006</ele><time>2026-04-26T09:52:57.179Z</time></trkpt><trkpt lat="42.9137" lon="11.4693107"><ele>436.0</ele><time>2026-04-26T09:52:58.191Z</time></trkpt><trkpt lat="42.9136274" lon="11.4692931"><ele>436.0</ele><time>2026-04-26T09:52:59.184Z</time></trkpt><trkpt lat="42.9135596" lon="11.469296"><ele>436.0</ele><time>2026-04-26T09:53:00.184Z</time></trkpt><trkpt lat="42.9135007" lon="11.4693304"><ele>436.0</ele><time>2026-04-26T09:53:01.185Z</time></trkpt><trkpt lat="42.9133934" lon="11.4694052"><ele>436.0</ele><time>2026-04-26T09:53:03.177Z</time></trkpt><trkpt lat="42.9132967" lon="11.4694943"><ele>436.0</ele><time>2026-04-26T09:53:05.171Z</time></trkpt><trkpt lat="42.9131872" lon="11.469582"><ele>437.6</ele><time>2026-04-26T09:53:07.175Z</time></trkpt><trkpt lat="42.913116" lon="11.4696171"><ele>439.20000000000005</ele><time>2026-04-26T09:53:08.189Z</time></trkpt><trkpt lat="42.9130257" lon="11.4696288"><ele>440.79999999999995</ele><time>2026-04-26T09:53:09.168Z</time></trkpt><trkpt lat="42.9129148" lon="11.4696454"><ele>442.4</ele><time>2026-04-26T09:53:10.172Z</time></trkpt><trkpt lat="42.9127968" lon="11.4696656"><ele>444.0</ele><time>2026-04-26T09:53:11.177Z</time></trkpt><trkpt lat="42.9126743" lon="11.4696832"><ele>446.0</ele><time>2026-04-26T09:53:12.177Z</time></trkpt><trkpt lat="42.9125547" lon="11.4697171"><ele>448.0</ele><time>2026-04-26T09:53:13.177Z</time></trkpt><trkpt lat="42.9124349" lon="11.4697679"><ele>450.0</ele><time>2026-04-26T09:53:14.196Z</time></trkpt><trkpt lat="42.9123176" lon="11.4698248"><ele>452.0</ele><time>2026-04-26T09:53:15.174Z</time></trkpt><trkpt lat="42.9122006" lon="11.4698791"><ele>452.0</ele><time>2026-04-26T09:53:16.193Z</time></trkpt><trkpt lat="42.9120804" lon="11.4699262"><ele>452.0</ele><time>2026-04-26T09:53:17.18Z</time></trkpt><trkpt lat="42.9119541" lon="11.4699629"><ele>452.0</ele><time>2026-04-26T09:53:18.18Z</time></trkpt><trkpt lat="42.9118259" lon="11.4699861"><ele>452.0</ele><time>2026-04-26T09:53:19.173Z</time></trkpt><trkpt lat="42.9117042" lon="11.4700024"><ele>454.5</ele><time>2026-04-26T09:53:20.195Z</time></trkpt><trkpt lat="42.9115868" lon="11.470017"><ele>457.0</ele><time>2026-04-26T09:53:21.174Z</time></trkpt><trkpt lat="42.9114696" lon="11.4700323"><ele>459.5</ele><time>2026-04-26T09:53:22.171Z</time></trkpt><trkpt lat="42.9113514" lon="11.4700437"><ele>462.0</ele><time>2026-04-26T09:53:23.196Z</time></trkpt><trkpt lat="42.9112389" lon="11.4700347"><ele>462.0</ele><time>2026-04-26T09:53:24.171Z</time></trkpt><trkpt lat="42.9111274" lon="11.4700149"><ele>462.00000000000006</ele><time>2026-04-26T09:53:25.19Z</time></trkpt><trkpt lat="42.9110254" lon="11.4699892"><ele>462.00000000000006</ele><time>2026-04-26T09:53:26.174Z</time></trkpt><trkpt lat="42.9109274" lon="11.4699789"><ele>462.0</ele><time>2026-04-26T09:53:27.168Z</time></trkpt><trkpt lat="42.9108319" lon="11.4699846"><ele>462.0</ele><time>2026-04-26T09:53:28.184Z</time></trkpt><trkpt lat="42.9107347" lon="11.4700047"><ele>464.40000000000003</ele><time>2026-04-26T09:53:29.191Z</time></trkpt><trkpt lat="42.910634" lon="11.4700265"><ele>466.80000000000007</ele><time>2026-04-26T09:53:30.189Z</time></trkpt><trkpt lat="42.910528" lon="11.470054"><ele>469.2</ele><time>2026-04-26T09:53:31.179Z</time></trkpt><trkpt lat="42.9104193" lon="11.4700728"><ele>471.6</ele><time>2026-04-26T09:53:32.199Z</time></trkpt><trkpt lat="42.910299" lon="11.4700944"><ele>474.0</ele><time>2026-04-26T09:53:33.179Z</time></trkpt><trkpt lat="42.9101801" lon="11.4701245"><ele>476.5</ele><time>2026-04-26T09:53:34.19Z</time></trkpt><trkpt lat="42.9100705" lon="11.4701633"><ele>479.0</ele><time>2026-04-26T09:53:35.179Z</time></trkpt><trkpt lat="42.9099653" lon="11.4702113"><ele>481.5</ele><time>2026-04-26T09:53:36.189Z</time></trkpt><trkpt lat="42.909864" lon="11.4702771"><ele>484.0</ele><time>2026-04-26T09:53:37.165Z</time></trkpt><trkpt lat="42.9097645" lon="11.4703621"><ele>483.25</ele><time>2026-04-26T09:53:38.182Z</time></trkpt><trkpt lat="42.9096645" lon="11.4704596"><ele>482.5</ele><time>2026-04-26T09:53:39.188Z</time></trkpt><trkpt lat="42.9095677" lon="11.4705598"><ele>481.75</ele><time>2026-04-26T09:53:40.182Z</time></trkpt><trkpt lat="42.9094747" lon="11.4706623"><ele>481.0</ele><time>2026-04-26T09:53:41.182Z</time></trkpt><trkpt lat="42.9093803" lon="11.4707616"><ele>481.0</ele><time>2026-04-26T09:53:42.187Z</time></trkpt><trkpt lat="42.9092887" lon="11.4708592"><ele>481.0</ele><time>2026-04-26T09:53:43.179Z</time></trkpt><trkpt lat="42.9092002" lon="11.4709527"><ele>481.0</ele><time>2026-04-26T09:53:44.181Z</time></trkpt><trkpt lat="42.9091141" lon="11.4710465"><ele>481.0</ele><time>2026-04-26T09:53:45.186Z</time></trkpt><trkpt lat="42.9090364" lon="11.4711382"><ele>481.0</ele><time>2026-04-26T09:53:46.187Z</time></trkpt><trkpt lat="42.9089478" lon="11.4712254"><ele>484.75</ele><time>2026-04-26T09:53:47.184Z</time></trkpt><trkpt lat="42.9088591" lon="11.4713087"><ele>488.5</ele><time>2026-04-26T09:53:48.183Z</time></trkpt><trkpt lat="42.9087555" lon="11.4713715"><ele>492.25</ele><time>2026-04-26T09:53:49.176Z</time></trkpt><trkpt lat="42.90865" lon="11.4714327"><ele>496.0</ele><time>2026-04-26T09:53:50.187Z</time></trkpt><trkpt lat="42.9085396" lon="11.4714909"><ele>496.0</ele><time>2026-04-26T09:53:51.183Z</time></trkpt><trkpt lat="42.9084285" lon="11.4715484"><ele>496.0</ele><time>2026-04-26T09:53:52.191Z</time></trkpt><trkpt lat="42.9083225" lon="11.471593"><ele>496.0</ele><time>2026-04-26T09:53:53.185Z</time></trkpt><trkpt lat="42.9082223" lon="11.4716297"><ele>496.0</ele><time>2026-04-26T09:53:54.171Z</time></trkpt><trkpt lat="42.9081259" lon="11.4716703"><ele>496.0</ele><time>2026-04-26T09:53:55.185Z</time></trkpt><trkpt lat="42.9080322" lon="11.471721"><ele>497.20000000000005</ele><time>2026-04-26T09:53:56.183Z</time></trkpt><trkpt lat="42.907943" lon="11.471784"><ele>498.40000000000003</ele><time>2026-04-26T09:53:57.176Z</time></trkpt><trkpt lat="42.9078587" lon="11.4718547"><ele>499.6</ele><time>2026-04-26T09:53:58.19Z</time></trkpt><trkpt lat="42.9077782" lon="11.4719276"><ele>500.8</ele><time>2026-04-26T09:53:59.184Z</time></trkpt><trkpt lat="42.9076979" lon="11.4719966"><ele>502.0</ele><time>2026-04-26T09:54:00.192Z</time></trkpt><trkpt lat="42.9076152" lon="11.4720553"><ele>502.20000000000005</ele><time>2026-04-26T09:54:01.187Z</time></trkpt><trkpt lat="42.9075303" lon="11.4720991"><ele>502.40000000000003</ele><time>2026-04-26T09:54:02.177Z</time></trkpt><trkpt lat="42.9074428" lon="11.4721369"><ele>502.59999999999997</ele><time>2026-04-26T09:54:03.175Z</time></trkpt><trkpt lat="42.9073541" lon="11.4721736"><ele>502.79999999999995</ele><time>2026-04-26T09:54:04.192Z</time></trkpt><trkpt lat="42.9072619" lon="11.4722009"><ele>503.0</ele><time>2026-04-26T09:54:05.189Z</time></trkpt><trkpt lat="42.9071668" lon="11.4722135"><ele>503.0</ele><time>2026-04-26T09:54:06.184Z</time></trkpt><trkpt lat="42.9070727" lon="11.472209"><ele>502.99999999999994</ele><time>2026-04-26T09:54:07.18Z</time></trkpt><trkpt lat="42.906981" lon="11.4721881"><ele>502.99999999999994</ele><time>2026-04-26T09:54:08.184Z</time></trkpt><trkpt lat="42.9068882" lon="11.4721662"><ele>503.0</ele><time>2026-04-26T09:54:09.192Z</time></trkpt><trkpt lat="42.9067932" lon="11.4721612"><ele>503.0</ele><time>2026-04-26T09:54:10.195Z</time></trkpt><trkpt lat="42.906697" lon="11.4721762"><ele>504.79999999999995</ele><time>2026-04-26T09:54:11.183Z</time></trkpt><trkpt lat="42.906603" lon="11.472211"><ele>506.59999999999997</ele><time>2026-04-26T09:54:12.185Z</time></trkpt><trkpt lat="42.9065103" lon="11.4722644"><ele>508.40000000000003</ele><time>2026-04-26T09:54:13.184Z</time></trkpt><trkpt lat="42.9064132" lon="11.4723214"><ele>510.20000000000005</ele><time>2026-04-26T09:54:14.187Z</time></trkpt><trkpt lat="42.9063112" lon="11.4724118"><ele>512.0</ele><time>2026-04-26T09:54:15.18Z</time></trkpt><trkpt lat="42.9061987" lon="11.4724992"><ele>512.0</ele><time>2026-04-26T09:54:16.175Z</time></trkpt><trkpt lat="42.9060789" lon="11.4725698"><ele>512.0</ele><time>2026-04-26T09:54:17.188Z</time></trkpt><trkpt lat="42.905959" lon="11.47263"><ele>512.0</ele><time>2026-04-26T09:54:18.192Z</time></trkpt><trkpt lat="42.9058445" lon="11.4726901"><ele>512.0</ele><time>2026-04-26T09:54:19.193Z</time></trkpt><trkpt lat="42.9057435" lon="11.4727548"><ele>511.6</ele><time>2026-04-26T09:54:20.192Z</time></trkpt><trkpt lat="42.9056517" lon="11.4728245"><ele>511.20000000000005</ele><time>2026-04-26T09:54:21.174Z</time></trkpt><trkpt lat="42.9055732" lon="11.4728978"><ele>510.8</ele><time>2026-04-26T09:54:22.173Z</time></trkpt><trkpt lat="42.905509" lon="11.4729988"><ele>510.4</ele><time>2026-04-26T09:54:23.182Z</time></trkpt><trkpt lat="42.9054497" lon="11.4731263"><ele>510.0</ele><time>2026-04-26T09:54:24.192Z</time></trkpt><trkpt lat="42.9053825" lon="11.4732602"><ele>511.5</ele><time>2026-04-26T09:54:25.172Z</time></trkpt><trkpt lat="42.9052995" lon="11.4733757"><ele>513.0</ele><time>2026-04-26T09:54:26.193Z</time></trkpt><trkpt lat="42.9052007" lon="11.4734704"><ele>514.5</ele><time>2026-04-26T09:54:27.183Z</time></trkpt><trkpt lat="42.9050889" lon="11.4735508"><ele>516.0</ele><time>2026-04-26T09:54:28.173Z</time></trkpt><trkpt lat="42.9049755" lon="11.4736295"><ele>516.25</ele><time>2026-04-26T09:54:29.193Z</time></trkpt><trkpt lat="42.9048625" lon="11.47371"><ele>516.5</ele><time>2026-04-26T09:54:30.174Z</time></trkpt><trkpt lat="42.9047506" lon="11.4738038"><ele>516.75</ele><time>2026-04-26T09:54:31.182Z</time></trkpt><trkpt lat="42.90464" lon="11.4738998"><ele>517.0</ele><time>2026-04-26T09:54:32.189Z</time></trkpt><trkpt lat="42.9045288" lon="11.4739965"><ele>518.0</ele><time>2026-04-26T09:54:33.19Z</time></trkpt><trkpt lat="42.9044201" lon="11.4740965"><ele>519.0</ele><time>2026-04-26T09:54:34.172Z</time></trkpt><trkpt lat="42.9043126" lon="11.4741931"><ele>520.0</ele><time>2026-04-26T09:54:35.196Z</time></trkpt><trkpt lat="42.9041987" lon="11.474285"><ele>521.0</ele><time>2026-04-26T09:54:36.189Z</time></trkpt><trkpt lat="42.9040819" lon="11.4743627"><ele>522.5</ele><time>2026-04-26T09:54:37.175Z</time></trkpt><trkpt lat="42.9039711" lon="11.4744299"><ele>524.0</ele><time>2026-04-26T09:54:38.177Z</time></trkpt><trkpt lat="42.9038678" lon="11.4745072"><ele>525.5</ele><time>2026-04-26T09:54:39.184Z</time></trkpt><trkpt lat="42.9037694" lon="11.4746023"><ele>527.0</ele><time>2026-04-26T09:54:40.197Z</time></trkpt><trkpt lat="42.9036791" lon="11.4747052"><ele>528.0</ele><time>2026-04-26T09:54:41.186Z</time></trkpt><trkpt lat="42.9035966" lon="11.474801"><ele>529.0</ele><time>2026-04-26T09:54:42.176Z</time></trkpt><trkpt lat="42.903516" lon="11.4748936"><ele>530.0</ele><time>2026-04-26T09:54:43.193Z</time></trkpt><trkpt lat="42.9034343" lon="11.4749693"><ele>531.0</ele><time>2026-04-26T09:54:44.192Z</time></trkpt><trkpt lat="42.9033542" lon="11.4750423"><ele>532.0</ele><time>2026-04-26T09:54:45.181Z</time></trkpt><trkpt lat="42.9032825" lon="11.4751022"><ele>532.0</ele><time>2026-04-26T09:54:46.181Z</time></trkpt><trkpt lat="42.9032168" lon="11.4751422"><ele>532.0</ele><time>2026-04-26T09:54:47.182Z</time></trkpt><trkpt lat="42.9031501" lon="11.4751439"><ele>532.0</ele><time>2026-04-26T09:54:48.183Z</time></trkpt><trkpt lat="42.9030758" lon="11.4750967"><ele>532.0</ele><time>2026-04-26T09:54:49.171Z</time></trkpt><trkpt lat="42.9029931" lon="11.4750431"><ele>532.0</ele><time>2026-04-26T09:54:50.181Z</time></trkpt><trkpt lat="42.9029028" lon="11.4749975"><ele>532.0</ele><time>2026-04-26T09:54:51.183Z</time></trkpt><trkpt lat="42.9028087" lon="11.4749603"><ele>532.0</ele><time>2026-04-26T09:54:52.193Z</time></trkpt><trkpt lat="42.9027164" lon="11.4749422"><ele>532.0</ele><time>2026-04-26T09:54:53.186Z</time></trkpt><trkpt lat="42.9026331" lon="11.4749501"><ele>532.0</ele><time>2026-04-26T09:54:54.198Z</time></trkpt><trkpt lat="42.9025432" lon="11.4749579"><ele>532.0</ele><time>2026-04-26T09:54:55.181Z</time></trkpt><trkpt lat="42.9024448" lon="11.4750206"><ele>532.0</ele><time>2026-04-26T09:54:56.177Z</time></trkpt><trkpt lat="42.9023332" lon="11.4751013"><ele>533.0</ele><time>2026-04-26T09:54:57.181Z</time></trkpt><trkpt lat="42.902221" lon="11.4751717"><ele>534.0</ele><time>2026-04-26T09:54:58.178Z</time></trkpt><trkpt lat="42.9021125" lon="11.4752351"><ele>535.0</ele><time>2026-04-26T09:54:59.193Z</time></trkpt><trkpt lat="42.9020054" lon="11.4752957"><ele>536.0</ele><time>2026-04-26T09:55:00.193Z</time></trkpt><trkpt lat="42.9019051" lon="11.4753442"><ele>536.0</ele><time>2026-04-26T09:55:01.191Z</time></trkpt><trkpt lat="42.9018138" lon="11.4753712"><ele>536.0</ele><time>2026-04-26T09:55:02.174Z</time></trkpt><trkpt lat="42.9017292" lon="11.4753831"><ele>536.0</ele><time>2026-04-26T09:55:03.174Z</time></trkpt><trkpt lat="42.9016528" lon="11.475374"><ele>536.0</ele><time>2026-04-26T09:55:04.168Z</time></trkpt><trkpt lat="42.9015918" lon="11.4753431"><ele>536.0</ele><time>2026-04-26T09:55:05.18Z</time></trkpt><trkpt lat="42.9015311" lon="11.4752946"><ele>536.0</ele><time>2026-04-26T09:55:06.196Z</time></trkpt><trkpt lat="42.9014682" lon="11.4752384"><ele>536.0</ele><time>2026-04-26T09:55:07.178Z</time></trkpt><trkpt lat="42.9013961" lon="11.4751746"><ele>536.0</ele><time>2026-04-26T09:55:08.17Z</time></trkpt><trkpt lat="42.9013226" lon="11.4751102"><ele>536.0</ele><time>2026-04-26T09:55:09.186Z</time></trkpt><trkpt lat="42.9012452" lon="11.4750558"><ele>536.0</ele><time>2026-04-26T09:55:10.176Z</time></trkpt><trkpt lat="42.9011611" lon="11.475016"><ele>536.0</ele><time>2026-04-26T09:55:11.174Z</time></trkpt><trkpt lat="42.9010669" lon="11.4749975"><ele>536.0</ele><time>2026-04-26T09:55:12.169Z</time></trkpt><trkpt lat="42.9009553" lon="11.4749963"><ele>538.0</ele><time>2026-04-26T09:55:13.174Z</time></trkpt><trkpt lat="42.9008343" lon="11.4750081"><ele>540.0</ele><time>2026-04-26T09:55:14.189Z</time></trkpt><trkpt lat="42.900695" lon="11.4750237"><ele>542.0</ele><time>2026-04-26T09:55:15.168Z</time></trkpt><trkpt lat="42.9005401" lon="11.4750445"><ele>544.0</ele><time>2026-04-26T09:55:16.188Z</time></trkpt><trkpt lat="42.9003883" lon="11.4750675"><ele>544.0</ele><time>2026-04-26T09:55:17.183Z</time></trkpt><trkpt lat="42.9002453" lon="11.4750861"><ele>544.0</ele><time>2026-04-26T09:55:18.171Z</time></trkpt><trkpt lat="42.9001103" lon="11.4751024"><ele>544.0</ele><time>2026-04-26T09:55:19.185Z</time></trkpt><trkpt lat="42.8999776" lon="11.4751198"><ele>544.0</ele><time>2026-04-26T09:55:20.177Z</time></trkpt><trkpt lat="42.8998484" lon="11.4751369"><ele>545.5</ele><time>2026-04-26T09:55:21.173Z</time></trkpt><trkpt lat="42.899722" lon="11.4751519"><ele>547.0</ele><time>2026-04-26T09:55:22.184Z</time></trkpt><trkpt lat="42.899602" lon="11.4751614"><ele>548.5</ele><time>2026-04-26T09:55:23.174Z</time></trkpt><trkpt lat="42.8994872" lon="11.4751362"><ele>550.0</ele><time>2026-04-26T09:55:24.191Z</time></trkpt><trkpt lat="42.8993683" lon="11.4751097"><ele>551.75</ele><time>2026-04-26T09:55:25.185Z</time></trkpt><trkpt lat="42.8992428" lon="11.4750833"><ele>553.5</ele><time>2026-04-26T09:55:26.188Z</time></trkpt><trkpt lat="42.8991267" lon="11.4750734"><ele>555.25</ele><time>2026-04-26T09:55:27.179Z</time></trkpt><trkpt lat="42.8990192" lon="11.4750744"><ele>557.0</ele><time>2026-04-26T09:55:28.171Z</time></trkpt><trkpt lat="42.8989106" lon="11.4750809"><ele>557.0</ele><time>2026-04-26T09:55:29.191Z</time></trkpt><trkpt lat="42.8987967" lon="11.4751149"><ele>557.0</ele><time>2026-04-26T09:55:30.191Z</time></trkpt><trkpt lat="42.8986824" lon="11.4751665"><ele>557.0</ele><time>2026-04-26T09:55:31.193Z</time></trkpt><trkpt lat="42.8985731" lon="11.4752365"><ele>557.0</ele><time>2026-04-26T09:55:32.19Z</time></trkpt><trkpt lat="42.898469" lon="11.4753094"><ele>556.0</ele><time>2026-04-26T09:55:33.195Z</time></trkpt><trkpt lat="42.8983792" lon="11.4754073"><ele>555.0</ele><time>2026-04-26T09:55:34.177Z</time></trkpt><trkpt lat="42.8982845" lon="11.4754976"><ele>554.0</ele><time>2026-04-26T09:55:35.184Z</time></trkpt><trkpt lat="42.8981829" lon="11.4755574"><ele>553.0</ele><time>2026-04-26T09:55:36.195Z</time></trkpt><trkpt lat="42.8980718" lon="11.4755988"><ele>557.75</ele><time>2026-04-26T09:55:37.179Z</time></trkpt><trkpt lat="42.8979535" lon="11.4756205"><ele>562.5</ele><time>2026-04-26T09:55:38.177Z</time></trkpt><trkpt lat="42.8978322" lon="11.4756409"><ele>567.25</ele><time>2026-04-26T09:55:39.185Z</time></trkpt><trkpt lat="42.8976998" lon="11.4756292"><ele>572.0</ele><time>2026-04-26T09:55:40.195Z</time></trkpt><trkpt lat="42.8975674" lon="11.4756034"><ele>572.5</ele><time>2026-04-26T09:55:41.187Z</time></trkpt><trkpt lat="42.8974289" lon="11.4755692"><ele>573.0</ele><time>2026-04-26T09:55:42.186Z</time></trkpt><trkpt lat="42.8972892" lon="11.4755363"><ele>573.5</ele><time>2026-04-26T09:55:43.175Z</time></trkpt><trkpt lat="42.8971527" lon="11.4755028"><ele>574.0</ele><time>2026-04-26T09:55:44.185Z</time></trkpt><trkpt lat="42.8970221" lon="11.4754732"><ele>574.0</ele><time>2026-04-26T09:55:45.187Z</time></trkpt><trkpt lat="42.8968978" lon="11.4754535"><ele>574.0</ele><time>2026-04-26T09:55:46.188Z</time></trkpt><trkpt lat="42.8967782" lon="11.4754319"><ele>574.0</ele><time>2026-04-26T09:55:47.175Z</time></trkpt><trkpt lat="42.8966589" lon="11.4754061"><ele>574.0</ele><time>2026-04-26T09:55:48.172Z</time></trkpt><trkpt lat="42.8965444" lon="11.4753777"><ele>573.0</ele><time>2026-04-26T09:55:49.174Z</time></trkpt><trkpt lat="42.8964409" lon="11.4753547"><ele>572.0</ele><time>2026-04-26T09:55:50.181Z</time></trkpt><trkpt lat="42.8963385" lon="11.47535"><ele>571.0</ele><time>2026-04-26T09:55:51.188Z</time></trkpt><trkpt lat="42.8962326" lon="11.4753638"><ele>570.0</ele><time>2026-04-26T09:55:52.185Z</time></trkpt><trkpt lat="42.8961244" lon="11.4754122"><ele>569.0</ele><time>2026-04-26T09:55:53.18Z</time></trkpt><trkpt lat="42.8960047" lon="11.4754813"><ele>573.0</ele><time>2026-04-26T09:55:54.166Z</time></trkpt><trkpt lat="42.8958738" lon="11.4755432"><ele>577.0</ele><time>2026-04-26T09:55:55.189Z</time></trkpt><trkpt lat="42.8957492" lon="11.4756052"><ele>581.0</ele><time>2026-04-26T09:55:56.173Z</time></trkpt><trkpt lat="42.8956281" lon="11.4756628"><ele>585.0</ele><time>2026-04-26T09:55:57.176Z</time></trkpt><trkpt lat="42.8955083" lon="11.4757305"><ele>585.0</ele><time>2026-04-26T09:55:58.184Z</time></trkpt><trkpt lat="42.8953873" lon="11.4757978"><ele>585.0</ele><time>2026-04-26T09:55:59.189Z</time></trkpt><trkpt lat="42.8952676" lon="11.4758631"><ele>585.0</ele><time>2026-04-26T09:56:00.181Z</time></trkpt><trkpt lat="42.8951461" lon="11.4759207"><ele>585.0</ele><time>2026-04-26T09:56:01.189Z</time></trkpt><trkpt lat="42.8950242" lon="11.475977"><ele>584.75</ele><time>2026-04-26T09:56:02.185Z</time></trkpt><trkpt lat="42.8949005" lon="11.4760378"><ele>584.5</ele><time>2026-04-26T09:56:03.185Z</time></trkpt><trkpt lat="42.8947811" lon="11.4760903"><ele>584.25</ele><time>2026-04-26T09:56:04.188Z</time></trkpt><trkpt lat="42.8946586" lon="11.4761143"><ele>584.0</ele><time>2026-04-26T09:56:05.186Z</time></trkpt><trkpt lat="42.8945333" lon="11.4761258"><ele>584.0</ele><time>2026-04-26T09:56:06.173Z</time></trkpt><trkpt lat="42.8944127" lon="11.4761478"><ele>584.0</ele><time>2026-04-26T09:56:07.177Z</time></trkpt><trkpt lat="42.8942914" lon="11.4761827"><ele>584.0</ele><time>2026-04-26T09:56:08.194Z</time></trkpt><trkpt lat="42.8941694" lon="11.4762388"><ele>584.0</ele><time>2026-04-26T09:56:09.18Z</time></trkpt><trkpt lat="42.8940433" lon="11.476305"><ele>584.75</ele><time>2026-04-26T09:56:10.186Z</time></trkpt><trkpt lat="42.8939165" lon="11.476371"><ele>585.5</ele><time>2026-04-26T09:56:11.192Z</time></trkpt><trkpt lat="42.8937891" lon="11.4764373"><ele>586.25</ele><time>2026-04-26T09:56:12.187Z</time></trkpt><trkpt lat="42.8936587" lon="11.4765056"><ele>587.0</ele><time>2026-04-26T09:56:13.193Z</time></trkpt><trkpt lat="42.8935356" lon="11.4765828"><ele>587.5</ele><time>2026-04-26T09:56:14.193Z</time></trkpt><trkpt lat="42.8934204" lon="11.4766537"><ele>588.0</ele><time>2026-04-26T09:56:15.191Z</time></trkpt><trkpt lat="42.8933126" lon="11.4767425"><ele>588.5</ele><time>2026-04-26T09:56:16.185Z</time></trkpt><trkpt lat="42.8932018" lon="11.4768289"><ele>589.0</ele><time>2026-04-26T09:56:17.193Z</time></trkpt><trkpt lat="42.8930942" lon="11.4769009"><ele>589.0</ele><time>2026-04-26T09:56:18.189Z</time></trkpt><trkpt lat="42.8930015" lon="11.4769629"><ele>589.0</ele><time>2026-04-26T09:56:19.181Z</time></trkpt><trkpt lat="42.8929265" lon="11.4770087"><ele>589.0</ele><time>2026-04-26T09:56:20.188Z</time></trkpt><trkpt lat="42.89285" lon="11.4770501"><ele>589.0</ele><time>2026-04-26T09:56:21.183Z</time></trkpt><trkpt lat="42.8927616" lon="11.4770658"><ele>589.0</ele><time>2026-04-26T09:56:22.186Z</time></trkpt><trkpt lat="42.8926865" lon="11.4770376"><ele>589.0</ele><time>2026-04-26T09:56:23.191Z</time></trkpt><trkpt lat="42.8926247" lon="11.4769913"><ele>592.0</ele><time>2026-04-26T09:56:24.188Z</time></trkpt><trkpt lat="42.8925796" lon="11.4769149"><ele>595.0</ele><time>2026-04-26T09:56:25.175Z</time></trkpt><trkpt lat="42.8925292" lon="11.4768226"><ele>598.0</ele><time>2026-04-26T09:56:26.171Z</time></trkpt><trkpt lat="42.892506" lon="11.4766828"><ele>601.0</ele><time>2026-04-26T09:56:27.186Z</time></trkpt><trkpt lat="42.8924792" lon="11.4765279"><ele>604.0</ele><time>2026-04-26T09:56:28.186Z</time></trkpt><trkpt lat="42.8924365" lon="11.4763738"><ele>604.4</ele><time>2026-04-26T09:56:29.175Z</time></trkpt><trkpt lat="42.8923944" lon="11.476229"><ele>604.8</ele><time>2026-04-26T09:56:30.189Z</time></trkpt><trkpt lat="42.892365" lon="11.476092"><ele>605.2</ele><time>2026-04-26T09:56:31.18Z</time></trkpt><trkpt lat="42.8923491" lon="11.4759574"><ele>605.6</ele><time>2026-04-26T09:56:32.17Z</time></trkpt><trkpt lat="42.8923394" lon="11.475829"><ele>606.0</ele><time>2026-04-26T09:56:33.194Z</time></trkpt><trkpt lat="42.8923679" lon="11.4756984"><ele>606.0</ele><time>2026-04-26T09:56:34.175Z</time></trkpt><trkpt lat="42.8923961" lon="11.4755634"><ele>606.0</ele><time>2026-04-26T09:56:35.186Z</time></trkpt><trkpt lat="42.892437" lon="11.4754201"><ele>606.0</ele><time>2026-04-26T09:56:36.176Z</time></trkpt><trkpt lat="42.8924715" lon="11.4752926"><ele>606.0</ele><time>2026-04-26T09:56:37.183Z</time></trkpt><trkpt lat="42.8924894" lon="11.4751974"><ele>606.0</ele><time>2026-04-26T09:56:38.184Z</time></trkpt><trkpt lat="42.8924598" lon="11.4751122"><ele>606.6666666666666</ele><time>2026-04-26T09:56:39.185Z</time></trkpt><trkpt lat="42.892411" lon="11.475051"><ele>607.3333333333334</ele><time>2026-04-26T09:56:40.186Z</time></trkpt><trkpt lat="42.8923516" lon="11.4749933"><ele>608.0</ele><time>2026-04-26T09:56:41.184Z</time></trkpt><trkpt lat="42.8922532" lon="11.4749776"><ele>608.6666666666667</ele><time>2026-04-26T09:56:42.183Z</time></trkpt><trkpt lat="42.8921538" lon="11.4749578"><ele>609.3333333333334</ele><time>2026-04-26T09:56:43.18Z</time></trkpt><trkpt lat="42.8920769" lon="11.474936"><ele>610.0</ele><time>2026-04-26T09:56:44.181Z</time></trkpt><trkpt lat="42.8919762" lon="11.4749322"><ele>610.0</ele><time>2026-04-26T09:56:46.184Z</time></trkpt><trkpt lat="42.8919162" lon="11.4749856"><ele>610.0</ele><time>2026-04-26T09:57:44.169Z</time></trkpt><trkpt lat="42.8918808" lon="11.475067"><ele>610.0</ele><time>2026-04-26T09:57:46.185Z</time></trkpt><trkpt lat="42.8918203" lon="11.4752046"><ele>610.0</ele><time>2026-04-26T09:57:48.19Z</time></trkpt><trkpt lat="42.8917806" lon="11.4752871"><ele>610.0</ele><time>2026-04-26T09:57:49.193Z</time></trkpt><trkpt lat="42.8917357" lon="11.4753792"><ele>610.0</ele><time>2026-04-26T09:57:50.18Z</time></trkpt><trkpt lat="42.8916869" lon="11.4754854"><ele>612.2</ele><time>2026-04-26T09:57:51.192Z</time></trkpt><trkpt lat="42.8916317" lon="11.475603"><ele>614.4</ele><time>2026-04-26T09:57:52.187Z</time></trkpt><trkpt lat="42.8915709" lon="11.4757315"><ele>616.6</ele><time>2026-04-26T09:57:53.175Z</time></trkpt><trkpt lat="42.8915082" lon="11.4758633"><ele>618.8</ele><time>2026-04-26T09:57:54.198Z</time></trkpt><trkpt lat="42.891443" lon="11.4760005"><ele>621.0</ele><time>2026-04-26T09:57:55.199Z</time></trkpt><trkpt lat="42.8913737" lon="11.4761438"><ele>622.25</ele><time>2026-04-26T09:57:56.171Z</time></trkpt><trkpt lat="42.8913017" lon="11.4762957"><ele>623.5</ele><time>2026-04-26T09:57:57.192Z</time></trkpt><trkpt lat="42.8912279" lon="11.4764622"><ele>624.75</ele><time>2026-04-26T09:57:58.183Z</time></trkpt><trkpt lat="42.8911654" lon="11.4766287"><ele>626.0</ele><time>2026-04-26T09:57:59.191Z</time></trkpt><trkpt lat="42.8911045" lon="11.4767917"><ele>626.0</ele><time>2026-04-26T09:58:00.171Z</time></trkpt><trkpt lat="42.8910656" lon="11.4769559"><ele>626.0</ele><time>2026-04-26T09:58:01.196Z</time></trkpt><trkpt lat="42.8910418" lon="11.4771271"><ele>626.0</ele><time>2026-04-26T09:58:02.191Z</time></trkpt><trkpt lat="42.8910312" lon="11.4773057"><ele>626.0</ele><time>2026-04-26T09:58:03.192Z</time></trkpt><trkpt lat="42.8909926" lon="11.4774804"><ele>629.75</ele><time>2026-04-26T09:58:04.199Z</time></trkpt><trkpt lat="42.890918" lon="11.477646"><ele>633.5</ele><time>2026-04-26T09:58:05.175Z</time></trkpt><trkpt lat="42.8908386" lon="11.4778158"><ele>637.25</ele><time>2026-04-26T09:58:06.198Z</time></trkpt><trkpt lat="42.8907614" lon="11.4779823"><ele>641.0</ele><time>2026-04-26T09:58:07.191Z</time></trkpt><trkpt lat="42.8906943" lon="11.4781386"><ele>641.0</ele><time>2026-04-26T09:58:08.192Z</time></trkpt><trkpt lat="42.8906166" lon="11.4782814"><ele>641.0</ele><time>2026-04-26T09:58:09.193Z</time></trkpt><trkpt lat="42.8905251" lon="11.4784043"><ele>641.0</ele><time>2026-04-26T09:58:10.186Z</time></trkpt><trkpt lat="42.8904374" lon="11.4785215"><ele>641.0</ele><time>2026-04-26T09:58:11.184Z</time></trkpt><trkpt lat="42.8903356" lon="11.4786202"><ele>641.0</ele><time>2026-04-26T09:58:12.184Z</time></trkpt><trkpt lat="42.8902311" lon="11.478716"><ele>641.0</ele><time>2026-04-26T09:58:13.193Z</time></trkpt><trkpt lat="42.8901287" lon="11.4788092"><ele>641.0</ele><time>2026-04-26T09:58:14.195Z</time></trkpt><trkpt lat="42.8900285" lon="11.478913"><ele>641.0</ele><time>2026-04-26T09:58:15.192Z</time></trkpt><trkpt lat="42.8899325" lon="11.4790356"><ele>644.5</ele><time>2026-04-26T09:58:16.194Z</time></trkpt><trkpt lat="42.8898434" lon="11.4791613"><ele>648.0</ele><time>2026-04-26T09:58:17.187Z</time></trkpt><trkpt lat="42.8897604" lon="11.4792823"><ele>651.5</ele><time>2026-04-26T09:58:18.181Z</time></trkpt><trkpt lat="42.8896752" lon="11.4793914"><ele>655.0</ele><time>2026-04-26T09:58:19.193Z</time></trkpt><trkpt lat="42.8895861" lon="11.4794896"><ele>655.0</ele><time>2026-04-26T09:58:20.19Z</time></trkpt><trkpt lat="42.8894865" lon="11.4795724"><ele>655.0</ele><time>2026-04-26T09:58:21.182Z</time></trkpt><trkpt lat="42.8893871" lon="11.4796495"><ele>655.0</ele><time>2026-04-26T09:58:22.182Z</time></trkpt><trkpt lat="42.8892894" lon="11.4797287"><ele>655.0</ele><time>2026-04-26T09:58:23.191Z</time></trkpt><trkpt lat="42.8891897" lon="11.4798054"><ele>658.8</ele><time>2026-04-26T09:58:24.188Z</time></trkpt><trkpt lat="42.8890922" lon="11.4798808"><ele>662.6</ele><time>2026-04-26T09:58:25.199Z</time></trkpt><trkpt lat="42.8889971" lon="11.4799514"><ele>666.4000000000001</ele><time>2026-04-26T09:58:26.18Z</time></trkpt><trkpt lat="42.8889026" lon="11.4800147"><ele>670.2</ele><time>2026-04-26T09:58:27.19Z</time></trkpt><trkpt lat="42.8888107" lon="11.4800725"><ele>674.0</ele><time>2026-04-26T09:58:28.188Z</time></trkpt><trkpt lat="42.8887197" lon="11.4801265"><ele>674.0</ele><time>2026-04-26T09:58:29.196Z</time></trkpt><trkpt lat="42.8886323" lon="11.4801775"><ele>674.0</ele><time>2026-04-26T09:58:30.172Z</time></trkpt><trkpt lat="42.8885507" lon="11.4802342"><ele>674.0</ele><time>2026-04-26T09:58:31.187Z</time></trkpt><trkpt lat="42.8884814" lon="11.4802926"><ele>674.0</ele><time>2026-04-26T09:58:32.196Z</time></trkpt><trkpt lat="42.8884273" lon="11.4803504"><ele>674.0</ele><time>2026-04-26T09:58:33.188Z</time></trkpt><trkpt lat="42.8883516" lon="11.480456"><ele>674.0</ele><time>2026-04-26T09:58:35.181Z</time></trkpt><trkpt lat="42.8883134" lon="11.4805655"><ele>676.0</ele><time>2026-04-26T09:58:37.167Z</time></trkpt><trkpt lat="42.888315" lon="11.480663"><ele>678.0</ele><time>2026-04-26T09:58:39.187Z</time></trkpt><trkpt lat="42.8883415" lon="11.4807898"><ele>680.0</ele><time>2026-04-26T09:58:41.182Z</time></trkpt><trkpt lat="42.8884224" lon="11.4809218"><ele>682.0</ele><time>2026-04-26T09:58:43.169Z</time></trkpt><trkpt lat="42.8884997" lon="11.4809643"><ele>684.0</ele><time>2026-04-26T09:58:44.193Z</time></trkpt><trkpt lat="42.8885807" lon="11.4810076"><ele>684.0</ele><time>2026-04-26T09:58:45.173Z</time></trkpt><trkpt lat="42.8886633" lon="11.4810501"><ele>684.0</ele><time>2026-04-26T09:58:46.175Z</time></trkpt><trkpt lat="42.8887414" lon="11.4810908"><ele>684.0</ele><time>2026-04-26T09:58:47.175Z</time></trkpt><trkpt lat="42.8888246" lon="11.4811385"><ele>684.0</ele><time>2026-04-26T09:58:49.192Z</time></trkpt><trkpt lat="42.8888981" lon="11.4812035"><ele>684.0</ele><time>2026-04-26T09:58:52.183Z</time></trkpt><trkpt lat="42.8888649" lon="11.4812899"><ele>684.0</ele><time>2026-04-26T09:58:55.184Z</time></trkpt><trkpt lat="42.8887474" lon="11.4812909"><ele>685.1666666666666</ele><time>2026-04-26T09:58:57.173Z</time></trkpt><trkpt lat="42.8886796" lon="11.4812875"><ele>686.3333333333334</ele><time>2026-04-26T09:58:58.184Z</time></trkpt><trkpt lat="42.8886011" lon="11.4812864"><ele>687.5</ele><time>2026-04-26T09:58:59.182Z</time></trkpt><trkpt lat="42.8885105" lon="11.4812824"><ele>688.6666666666667</ele><time>2026-04-26T09:59:00.172Z</time></trkpt><trkpt lat="42.888418" lon="11.4812773"><ele>689.8333333333334</ele><time>2026-04-26T09:59:01.187Z</time></trkpt><trkpt lat="42.8883264" lon="11.4812706"><ele>691.0</ele><time>2026-04-26T09:59:02.189Z</time></trkpt><trkpt lat="42.8882352" lon="11.4812629"><ele>691.0</ele><time>2026-04-26T09:59:03.186Z</time></trkpt><trkpt lat="42.8881442" lon="11.4812532"><ele>691.0</ele><time>2026-04-26T09:59:04.177Z</time></trkpt><trkpt lat="42.8880548" lon="11.4812378"><ele>691.0</ele><time>2026-04-26T09:59:05.185Z</time></trkpt><trkpt lat="42.8879684" lon="11.4812106"><ele>691.0</ele><time>2026-04-26T09:59:06.194Z</time></trkpt><trkpt lat="42.887882" lon="11.4811942"><ele>691.0</ele><time>2026-04-26T09:59:07.182Z</time></trkpt><trkpt lat="42.8878078" lon="11.4811395"><ele>691.0</ele><time>2026-04-26T09:59:08.185Z</time></trkpt><trkpt lat="42.8877373" lon="11.4810801"><ele>691.0</ele><time>2026-04-26T09:59:09.182Z</time></trkpt><trkpt lat="42.8876663" lon="11.4810232"><ele>691.0</ele><time>2026-04-26T09:59:10.169Z</time></trkpt><trkpt lat="42.8876004" lon="11.480972"><ele>691.0</ele><time>2026-04-26T09:59:11.185Z</time></trkpt><trkpt lat="42.8875411" lon="11.4809276"><ele>691.0</ele><time>2026-04-26T09:59:12.184Z</time></trkpt><trkpt lat="42.8874343" lon="11.4808634"><ele>691.0</ele><time>2026-04-26T09:59:14.186Z</time></trkpt><trkpt lat="42.8873419" lon="11.4808166"><ele>691.0</ele><time>2026-04-26T09:59:16.181Z</time></trkpt><trkpt lat="42.8872515" lon="11.4807566"><ele>692.4</ele><time>2026-04-26T09:59:18.197Z</time></trkpt><trkpt lat="42.8871593" lon="11.4806778"><ele>693.8</ele><time>2026-04-26T09:59:20.173Z</time></trkpt><trkpt lat="42.8870715" lon="11.4805983"><ele>695.1999999999999</ele><time>2026-04-26T09:59:22.171Z</time></trkpt><trkpt lat="42.8869854" lon="11.4805337"><ele>696.5999999999999</ele><time>2026-04-26T09:59:24.196Z</time></trkpt><trkpt lat="42.8869007" lon="11.4804544"><ele>698.0</ele><time>2026-04-26T09:59:26.176Z</time></trkpt><trkpt lat="42.8868098" lon="11.4803531"><ele>698.1428571428571</ele><time>2026-04-26T09:59:28.178Z</time></trkpt><trkpt lat="42.8867605" lon="11.4802971"><ele>698.2857142857142</ele><time>2026-04-26T09:59:29.188Z</time></trkpt><trkpt lat="42.8867098" lon="11.4802379"><ele>698.4285714285713</ele><time>2026-04-26T09:59:30.176Z</time></trkpt><trkpt lat="42.886654" lon="11.4801728"><ele>698.5714285714286</ele><time>2026-04-26T09:59:31.182Z</time></trkpt><trkpt lat="42.8865998" lon="11.480109"><ele>698.7142857142858</ele><time>2026-04-26T09:59:32.186Z</time></trkpt><trkpt lat="42.8865459" lon="11.4800434"><ele>698.8571428571428</ele><time>2026-04-26T09:59:33.176Z</time></trkpt><trkpt lat="42.8864975" lon="11.4799836"><ele>699.0</ele><time>2026-04-26T09:59:34.175Z</time></trkpt><trkpt lat="42.8864183" lon="11.4798667"><ele>699.0</ele><time>2026-04-26T09:59:36.174Z</time></trkpt><trkpt lat="42.8863625" lon="11.4797585"><ele>699.0</ele><time>2026-04-26T09:59:38.173Z</time></trkpt><trkpt lat="42.8863318" lon="11.4796634"><ele>699.0</ele><time>2026-04-26T09:59:40.193Z</time></trkpt><trkpt lat="42.8862765" lon="11.4796076"><ele>699.0</ele><time>2026-04-26T09:59:43.174Z</time></trkpt><trkpt lat="42.886217" lon="11.4796464"><ele>699.0</ele><time>2026-04-26T09:59:45.175Z</time></trkpt><trkpt lat="42.8861551" lon="11.4797368"><ele>699.0</ele><time>2026-04-26T09:59:47.183Z</time></trkpt><trkpt lat="42.8860945" lon="11.4798211"><ele>699.0</ele><time>2026-04-26T09:59:49.187Z</time></trkpt><trkpt lat="42.8860315" lon="11.4798892"><ele>699.0</ele><time>2026-04-26T09:59:51.192Z</time></trkpt><trkpt lat="42.8859713" lon="11.4799594"><ele>699.0</ele><time>2026-04-26T09:59:53.192Z</time></trkpt><trkpt lat="42.8859083" lon="11.4800354"><ele>699.0</ele><time>2026-04-26T09:59:55.192Z</time></trkpt><trkpt lat="42.8858425" lon="11.4800943"><ele>699.0</ele><time>2026-04-26T09:59:57.187Z</time></trkpt><trkpt lat="42.8857691" lon="11.4801405"><ele>699.0</ele><time>2026-04-26T09:59:59.186Z</time></trkpt><trkpt lat="42.8856783" lon="11.4801736"><ele>697.6</ele><time>2026-04-26T10:00:01.178Z</time></trkpt><trkpt lat="42.8855618" lon="11.4801785"><ele>696.2</ele><time>2026-04-26T10:00:03.192Z</time></trkpt><trkpt lat="42.8854991" lon="11.4801626"><ele>694.8000000000001</ele><time>2026-04-26T10:00:04.168Z</time></trkpt><trkpt lat="42.8853905" lon="11.4801096"><ele>693.4000000000001</ele><time>2026-04-26T10:00:06.186Z</time></trkpt><trkpt lat="42.8853052" lon="11.4800673"><ele>692.0</ele><time>2026-04-26T10:00:08.178Z</time></trkpt><trkpt lat="42.8852272" lon="11.4800332"><ele>692.0</ele><time>2026-04-26T10:00:10.18Z</time></trkpt><trkpt lat="42.8851597" lon="11.4799996"><ele>692.0</ele><time>2026-04-26T10:00:12.208Z</time></trkpt><trkpt lat="42.8850953" lon="11.4799702"><ele>692.0</ele><time>2026-04-26T10:00:14.197Z</time></trkpt><trkpt lat="42.8850189" lon="11.4799343"><ele>692.0</ele><time>2026-04-26T10:00:16.178Z</time></trkpt><trkpt lat="42.8849341" lon="11.4798923"><ele>692.0</ele><time>2026-04-26T10:00:18.182Z</time></trkpt><trkpt lat="42.8848484" lon="11.4798432"><ele>692.0</ele><time>2026-04-26T10:00:20.184Z</time></trkpt><trkpt lat="42.8847515" lon="11.4797917"><ele>693.0</ele><time>2026-04-26T10:00:22.187Z</time></trkpt><trkpt lat="42.8846476" lon="11.4797371"><ele>694.0</ele><time>2026-04-26T10:00:24.183Z</time></trkpt><trkpt lat="42.8845445" lon="11.4796794"><ele>695.0</ele><time>2026-04-26T10:00:26.175Z</time></trkpt><trkpt lat="42.8844503" lon="11.4796214"><ele>696.0</ele><time>2026-04-26T10:00:28.169Z</time></trkpt><trkpt lat="42.8843605" lon="11.4795701"><ele>697.0</ele><time>2026-04-26T10:00:30.182Z</time></trkpt><trkpt lat="42.8843028" lon="11.4795216"><ele>697.1666666666667</ele><time>2026-04-26T10:00:32.189Z</time></trkpt><trkpt lat="42.8842499" lon="11.4794688"><ele>697.3333333333334</ele><time>2026-04-26T10:00:34.204Z</time></trkpt><trkpt lat="42.8841958" lon="11.479424"><ele>697.5</ele><time>2026-04-26T10:00:36.175Z</time></trkpt><trkpt lat="42.8841337" lon="11.4793771"><ele>697.6666666666666</ele><time>2026-04-26T10:00:38.184Z</time></trkpt><trkpt lat="42.8840559" lon="11.4793962"><ele>697.8333333333333</ele><time>2026-04-26T10:12:16.186Z</time></trkpt><trkpt lat="42.8839497" lon="11.4793442"><ele>698.0</ele><time>2026-04-26T10:12:20.179Z</time></trkpt><trkpt lat="42.8838807" lon="11.4793127"><ele>698.0</ele><time>2026-04-26T10:12:22.187Z</time></trkpt><trkpt lat="42.883793" lon="11.479276"><ele>698.0</ele><time>2026-04-26T10:12:24.172Z</time></trkpt><trkpt lat="42.8836979" lon="11.479229"><ele>698.0</ele><time>2026-04-26T10:12:26.191Z</time></trkpt><trkpt lat="42.8835868" lon="11.479176"><ele>698.0</ele><time>2026-04-26T10:12:28.168Z</time></trkpt><trkpt lat="42.8834709" lon="11.4791123"><ele>698.0</ele><time>2026-04-26T10:12:30.174Z</time></trkpt><trkpt lat="42.8834096" lon="11.4790756"><ele>697.8333333333333</ele><time>2026-04-26T10:12:31.189Z</time></trkpt><trkpt lat="42.883344" lon="11.4790378"><ele>697.6666666666666</ele><time>2026-04-26T10:12:32.171Z</time></trkpt><trkpt lat="42.883273" lon="11.4790023"><ele>697.5</ele><time>2026-04-26T10:12:33.179Z</time></trkpt><trkpt lat="42.8831984" lon="11.4789662"><ele>697.3333333333334</ele><time>2026-04-26T10:12:34.168Z</time></trkpt><trkpt lat="42.8831231" lon="11.4789291"><ele>697.1666666666667</ele><time>2026-04-26T10:12:35.192Z</time></trkpt><trkpt lat="42.88305" lon="11.4788943"><ele>697.0</ele><time>2026-04-26T10:12:36.194Z</time></trkpt><trkpt lat="42.8829832" lon="11.4788702"><ele>697.0</ele><time>2026-04-26T10:12:37.178Z</time></trkpt><trkpt lat="42.8829212" lon="11.4788524"><ele>697.0</ele><time>2026-04-26T10:12:38.196Z</time></trkpt><trkpt lat="42.8828041" lon="11.4788826"><ele>697.0</ele><time>2026-04-26T10:12:40.193Z</time></trkpt><trkpt lat="42.8827043" lon="11.4788363"><ele>697.0</ele><time>2026-04-26T10:12:42.177Z</time></trkpt><trkpt lat="42.8826552" lon="11.4786916"><ele>697.0</ele><time>2026-04-26T10:12:44.183Z</time></trkpt><trkpt lat="42.882609" lon="11.4785413"><ele>697.6666666666667</ele><time>2026-04-26T10:12:46.186Z</time></trkpt><trkpt lat="42.8825378" lon="11.4784662"><ele>698.3333333333334</ele><time>2026-04-26T10:12:48.17Z</time></trkpt><trkpt lat="42.8824666" lon="11.4784885"><ele>699.0</ele><time>2026-04-26T10:12:50.186Z</time></trkpt><trkpt lat="42.8823915" lon="11.4785147"><ele>699.6666666666666</ele><time>2026-04-26T10:12:52.178Z</time></trkpt><trkpt lat="42.8822855" lon="11.4785298"><ele>700.3333333333333</ele><time>2026-04-26T10:12:54.187Z</time></trkpt><trkpt lat="42.8822067" lon="11.4785374"><ele>701.0</ele><time>2026-04-26T10:12:55.189Z</time></trkpt><trkpt lat="42.8821208" lon="11.4785409"><ele>701.0</ele><time>2026-04-26T10:12:56.184Z</time></trkpt><trkpt lat="42.8820202" lon="11.4785395"><ele>701.0</ele><time>2026-04-26T10:12:57.18Z</time></trkpt><trkpt lat="42.8819104" lon="11.4785349"><ele>701.0</ele><time>2026-04-26T10:12:58.173Z</time></trkpt><trkpt lat="42.8817953" lon="11.4785286"><ele>701.0</ele><time>2026-04-26T10:12:59.187Z</time></trkpt><trkpt lat="42.8816879" lon="11.47852"><ele>701.0</ele><time>2026-04-26T10:13:00.192Z</time></trkpt><trkpt lat="42.8815881" lon="11.478511"><ele>701.8333333333333</ele><time>2026-04-26T10:13:01.184Z</time></trkpt><trkpt lat="42.8814952" lon="11.478496"><ele>702.6666666666666</ele><time>2026-04-26T10:13:02.181Z</time></trkpt><trkpt lat="42.8814139" lon="11.4784672"><ele>703.5</ele><time>2026-04-26T10:13:03.194Z</time></trkpt><trkpt lat="42.8813457" lon="11.4784172"><ele>704.3333333333334</ele><time>2026-04-26T10:13:04.197Z</time></trkpt><trkpt lat="42.8812875" lon="11.478358"><ele>705.1666666666667</ele><time>2026-04-26T10:13:05.195Z</time></trkpt><trkpt lat="42.8812287" lon="11.4783037"><ele>706.0</ele><time>2026-04-26T10:13:06.194Z</time></trkpt><trkpt lat="42.8811688" lon="11.4782488"><ele>706.0</ele><time>2026-04-26T10:13:07.188Z</time></trkpt><trkpt lat="42.8811037" lon="11.4781893"><ele>706.0</ele><time>2026-04-26T10:13:08.198Z</time></trkpt><trkpt lat="42.8810333" lon="11.4781231"><ele>706.0</ele><time>2026-04-26T10:13:09.173Z</time></trkpt><trkpt lat="42.8809579" lon="11.4780522"><ele>706.0</ele><time>2026-04-26T10:13:10.185Z</time></trkpt><trkpt lat="42.8808762" lon="11.4779787"><ele>706.0</ele><time>2026-04-26T10:13:11.175Z</time></trkpt><trkpt lat="42.8807872" lon="11.4779093"><ele>707.4</ele><time>2026-04-26T10:13:12.176Z</time></trkpt><trkpt lat="42.8806906" lon="11.47785"><ele>708.8</ele><time>2026-04-26T10:13:13.186Z</time></trkpt><trkpt lat="42.8805872" lon="11.4777981"><ele>710.1999999999999</ele><time>2026-04-26T10:13:14.188Z</time></trkpt><trkpt lat="42.8804807" lon="11.4777526"><ele>711.5999999999999</ele><time>2026-04-26T10:13:15.182Z</time></trkpt><trkpt lat="42.8803752" lon="11.4777172"><ele>713.0</ele><time>2026-04-26T10:13:16.184Z</time></trkpt><trkpt lat="42.8802702" lon="11.4776955"><ele>713.0</ele><time>2026-04-26T10:13:17.177Z</time></trkpt><trkpt lat="42.8801644" lon="11.4776846"><ele>713.0</ele><time>2026-04-26T10:13:18.196Z</time></trkpt><trkpt lat="42.8800572" lon="11.4776744"><ele>713.0</ele><time>2026-04-26T10:13:19.177Z</time></trkpt><trkpt lat="42.8799386" lon="11.4776871"><ele>713.0</ele><time>2026-04-26T10:13:20.183Z</time></trkpt><trkpt lat="42.8798216" lon="11.4776984"><ele>715.0</ele><time>2026-04-26T10:13:21.178Z</time></trkpt><trkpt lat="42.8797006" lon="11.4776963"><ele>717.0</ele><time>2026-04-26T10:13:22.179Z</time></trkpt><trkpt lat="42.8795815" lon="11.4776788"><ele>719.0</ele><time>2026-04-26T10:13:23.181Z</time></trkpt><trkpt lat="42.879475" lon="11.4776514"><ele>721.0</ele><time>2026-04-26T10:13:24.176Z</time></trkpt><trkpt lat="42.879381" lon="11.4776115"><ele>723.0</ele><time>2026-04-26T10:13:25.173Z</time></trkpt><trkpt lat="42.8792988" lon="11.4775505"><ele>724.0</ele><time>2026-04-26T10:13:26.174Z</time></trkpt><trkpt lat="42.87922" lon="11.4774897"><ele>725.0</ele><time>2026-04-26T10:13:27.17Z</time></trkpt><trkpt lat="42.8791475" lon="11.4773994"><ele>726.0</ele><time>2026-04-26T10:13:28.171Z</time></trkpt><trkpt lat="42.8790799" lon="11.4773006"><ele>727.0</ele><time>2026-04-26T10:13:29.171Z</time></trkpt><trkpt lat="42.8790123" lon="11.4771913"><ele>728.0</ele><time>2026-04-26T10:13:30.173Z</time></trkpt><trkpt lat="42.8789397" lon="11.4770713"><ele>728.0</ele><time>2026-04-26T10:13:31.18Z</time></trkpt><trkpt lat="42.8788638" lon="11.4769504"><ele>728.0</ele><time>2026-04-26T10:13:32.172Z</time></trkpt><trkpt lat="42.8787835" lon="11.4768275"><ele>728.0</ele><time>2026-04-26T10:13:33.189Z</time></trkpt><trkpt lat="42.8786987" lon="11.4767109"><ele>728.0</ele><time>2026-04-26T10:13:34.193Z</time></trkpt><trkpt lat="42.8786133" lon="11.4765935"><ele>728.0</ele><time>2026-04-26T10:13:35.173Z</time></trkpt><trkpt lat="42.8785282" lon="11.4764801"><ele>728.0</ele><time>2026-04-26T10:13:36.186Z</time></trkpt><trkpt lat="42.8784449" lon="11.4763635"><ele>728.0</ele><time>2026-04-26T10:13:37.179Z</time></trkpt><trkpt lat="42.8783642" lon="11.4762344"><ele>728.0</ele><time>2026-04-26T10:13:38.183Z</time></trkpt><trkpt lat="42.8782927" lon="11.4761055"><ele>730.25</ele><time>2026-04-26T10:13:39.188Z</time></trkpt><trkpt lat="42.8782303" lon="11.4759701"><ele>732.5</ele><time>2026-04-26T10:13:40.18Z</time></trkpt><trkpt lat="42.8781682" lon="11.4758322"><ele>734.75</ele><time>2026-04-26T10:13:41.188Z</time></trkpt><trkpt lat="42.8781264" lon="11.4756876"><ele>737.0</ele><time>2026-04-26T10:13:42.184Z</time></trkpt><trkpt lat="42.8780935" lon="11.4755313"><ele>737.2</ele><time>2026-04-26T10:13:43.183Z</time></trkpt><trkpt lat="42.8780594" lon="11.475384"><ele>737.4000000000001</ele><time>2026-04-26T10:13:44.178Z</time></trkpt><trkpt lat="42.8780171" lon="11.4752541"><ele>737.5999999999999</ele><time>2026-04-26T10:13:45.19Z</time></trkpt><trkpt lat="42.8779531" lon="11.475142"><ele>737.8</ele><time>2026-04-26T10:13:46.195Z</time></trkpt><trkpt lat="42.8778842" lon="11.4750281"><ele>738.0</ele><time>2026-04-26T10:13:47.185Z</time></trkpt><trkpt lat="42.8777998" lon="11.4749136"><ele>738.0</ele><time>2026-04-26T10:13:48.171Z</time></trkpt><trkpt lat="42.877722" lon="11.4748134"><ele>738.0</ele><time>2026-04-26T10:13:49.187Z</time></trkpt><trkpt lat="42.8776568" lon="11.4747237"><ele>738.0</ele><time>2026-04-26T10:13:50.17Z</time></trkpt><trkpt lat="42.8775954" lon="11.4746369"><ele>738.0</ele><time>2026-04-26T10:13:51.173Z</time></trkpt><trkpt lat="42.8775501" lon="11.4745419"><ele>738.0</ele><time>2026-04-26T10:13:52.192Z</time></trkpt><trkpt lat="42.8775193" lon="11.4744358"><ele>740.5999999999999</ele><time>2026-04-26T10:13:53.181Z</time></trkpt><trkpt lat="42.8775032" lon="11.4743151"><ele>743.1999999999999</ele><time>2026-04-26T10:13:54.187Z</time></trkpt><trkpt lat="42.8774884" lon="11.4741876"><ele>745.8</ele><time>2026-04-26T10:13:55.191Z</time></trkpt><trkpt lat="42.8774809" lon="11.4740625"><ele>748.4</ele><time>2026-04-26T10:13:56.177Z</time></trkpt><trkpt lat="42.8774667" lon="11.4739318"><ele>751.0</ele><time>2026-04-26T10:13:57.182Z</time></trkpt><trkpt lat="42.8774416" lon="11.4737966"><ele>751.0</ele><time>2026-04-26T10:13:58.189Z</time></trkpt><trkpt lat="42.8773937" lon="11.4736809"><ele>751.0</ele><time>2026-04-26T10:13:59.186Z</time></trkpt><trkpt lat="42.8773367" lon="11.4735801"><ele>751.0</ele><time>2026-04-26T10:14:00.183Z</time></trkpt><trkpt lat="42.8772679" lon="11.4734852"><ele>751.0</ele><time>2026-04-26T10:14:01.179Z</time></trkpt><trkpt lat="42.8771768" lon="11.4733949"><ele>751.0</ele><time>2026-04-26T10:14:02.189Z</time></trkpt><trkpt lat="42.8770684" lon="11.4732948"><ele>751.0</ele><time>2026-04-26T10:14:03.183Z</time></trkpt><trkpt lat="42.8769602" lon="11.4731911"><ele>751.0</ele><time>2026-04-26T10:14:04.196Z</time></trkpt><trkpt lat="42.8768554" lon="11.4730874"><ele>751.0</ele><time>2026-04-26T10:14:05.178Z</time></trkpt><trkpt lat="42.8767561" lon="11.4729873"><ele>751.0</ele><time>2026-04-26T10:14:06.183Z</time></trkpt><trkpt lat="42.8766555" lon="11.4728842"><ele>751.0</ele><time>2026-04-26T10:14:07.174Z</time></trkpt><trkpt lat="42.8765671" lon="11.472783"><ele>751.0</ele><time>2026-04-26T10:14:08.189Z</time></trkpt><trkpt lat="42.8764786" lon="11.4726868"><ele>751.0</ele><time>2026-04-26T10:14:09.18Z</time></trkpt><trkpt lat="42.8763994" lon="11.472594"><ele>751.0</ele><time>2026-04-26T10:14:10.183Z</time></trkpt><trkpt lat="42.8763218" lon="11.4725211"><ele>751.0</ele><time>2026-04-26T10:14:11.166Z</time></trkpt><trkpt lat="42.8762452" lon="11.4724457"><ele>751.0</ele><time>2026-04-26T10:14:12.175Z</time></trkpt><trkpt lat="42.8761612" lon="11.4723859"><ele>751.0</ele><time>2026-04-26T10:14:13.187Z</time></trkpt><trkpt lat="42.8760744" lon="11.4723171"><ele>751.0</ele><time>2026-04-26T10:14:14.192Z</time></trkpt><trkpt lat="42.8759989" lon="11.4722236"><ele>751.0</ele><time>2026-04-26T10:14:15.19Z</time></trkpt><trkpt lat="42.8759262" lon="11.4721269"><ele>751.0</ele><time>2026-04-26T10:14:16.187Z</time></trkpt><trkpt lat="42.8758611" lon="11.4720414"><ele>751.8</ele><time>2026-04-26T10:14:17.177Z</time></trkpt><trkpt lat="42.8757941" lon="11.4719566"><ele>752.5999999999999</ele><time>2026-04-26T10:14:18.189Z</time></trkpt><trkpt lat="42.8757222" lon="11.471882"><ele>753.4</ele><time>2026-04-26T10:14:19.174Z</time></trkpt><trkpt lat="42.875639" lon="11.4718254"><ele>754.2</ele><time>2026-04-26T10:14:20.177Z</time></trkpt><trkpt lat="42.8755496" lon="11.4717868"><ele>755.0</ele><time>2026-04-26T10:14:21.167Z</time></trkpt><trkpt lat="42.8754533" lon="11.4717501"><ele>755.0</ele><time>2026-04-26T10:14:22.186Z</time></trkpt><trkpt lat="42.8753672" lon="11.4717222"><ele>755.0</ele><time>2026-04-26T10:14:23.188Z</time></trkpt><trkpt lat="42.8752977" lon="11.4716807"><ele>755.0</ele><time>2026-04-26T10:14:24.171Z</time></trkpt><trkpt lat="42.8752335" lon="11.4716104"><ele>755.0</ele><time>2026-04-26T10:14:25.176Z</time></trkpt><trkpt lat="42.8751912" lon="11.4714909"><ele>755.0</ele><time>2026-04-26T10:14:26.181Z</time></trkpt><trkpt lat="42.8751884" lon="11.4713539"><ele>755.0</ele><time>2026-04-26T10:14:27.17Z</time></trkpt><trkpt lat="42.8751894" lon="11.4712014"><ele>753.4</ele><time>2026-04-26T10:14:28.186Z</time></trkpt><trkpt lat="42.8751779" lon="11.471057"><ele>751.8</ele><time>2026-04-26T10:14:29.176Z</time></trkpt><trkpt lat="42.875152" lon="11.4709189"><ele>750.2</ele><time>2026-04-26T10:14:30.184Z</time></trkpt><trkpt lat="42.8751001" lon="11.4708055"><ele>748.6</ele><time>2026-04-26T10:14:31.177Z</time></trkpt><trkpt lat="42.8750214" lon="11.4707111"><ele>747.0</ele><time>2026-04-26T10:14:32.189Z</time></trkpt><trkpt lat="42.8749177" lon="11.4706188"><ele>750.75</ele><time>2026-04-26T10:14:33.166Z</time></trkpt><trkpt lat="42.8748004" lon="11.4705058"><ele>754.5</ele><time>2026-04-26T10:14:34.182Z</time></trkpt><trkpt lat="42.8746911" lon="11.4703762"><ele>758.25</ele><time>2026-04-26T10:14:35.188Z</time></trkpt><trkpt lat="42.8745852" lon="11.4702571"><ele>762.0</ele><time>2026-04-26T10:14:36.189Z</time></trkpt><trkpt lat="42.8745006" lon="11.4701649"><ele>762.0</ele><time>2026-04-26T10:14:37.187Z</time></trkpt><trkpt lat="42.8744387" lon="11.4700892"><ele>762.0</ele><time>2026-04-26T10:14:38.18Z</time></trkpt><trkpt lat="42.8743862" lon="11.4700349"><ele>762.0</ele><time>2026-04-26T10:14:39.179Z</time></trkpt><trkpt lat="42.8742669" lon="11.4700293"><ele>762.0</ele><time>2026-04-26T10:14:41.172Z</time></trkpt><trkpt lat="42.8741884" lon="11.470069"><ele>762.0</ele><time>2026-04-26T10:14:42.192Z</time></trkpt><trkpt lat="42.8741049" lon="11.4701222"><ele>762.0</ele><time>2026-04-26T10:14:43.176Z</time></trkpt><trkpt lat="42.8740227" lon="11.47019"><ele>765.25</ele><time>2026-04-26T10:14:44.187Z</time></trkpt><trkpt lat="42.8739453" lon="11.4702834"><ele>768.5</ele><time>2026-04-26T10:14:45.186Z</time></trkpt><trkpt lat="42.8738694" lon="11.4703938"><ele>771.75</ele><time>2026-04-26T10:14:46.193Z</time></trkpt><trkpt lat="42.873815" lon="11.4705406"><ele>775.0</ele><time>2026-04-26T10:14:47.184Z</time></trkpt><trkpt lat="42.8737659" lon="11.4706939"><ele>777.0</ele><time>2026-04-26T10:14:48.174Z</time></trkpt><trkpt lat="42.8737129" lon="11.4708464"><ele>779.0</ele><time>2026-04-26T10:14:49.183Z</time></trkpt><trkpt lat="42.873661" lon="11.4709967"><ele>781.0</ele><time>2026-04-26T10:14:50.175Z</time></trkpt><trkpt lat="42.8736154" lon="11.4711391"><ele>783.0</ele><time>2026-04-26T10:14:51.185Z</time></trkpt><trkpt lat="42.8735659" lon="11.4712715"><ele>785.6666666666666</ele><time>2026-04-26T10:14:52.176Z</time></trkpt><trkpt lat="42.8735038" lon="11.4713619"><ele>788.3333333333333</ele><time>2026-04-26T10:14:53.169Z</time></trkpt><trkpt lat="42.8734366" lon="11.4714279"><ele>791.0</ele><time>2026-04-26T10:14:54.184Z</time></trkpt><trkpt lat="42.8733582" lon="11.4714809"><ele>793.6666666666666</ele><time>2026-04-26T10:14:55.187Z</time></trkpt><trkpt lat="42.8732691" lon="11.4715088"><ele>796.3333333333333</ele><time>2026-04-26T10:14:56.182Z</time></trkpt><trkpt lat="42.8731799" lon="11.4715486"><ele>799.0</ele><time>2026-04-26T10:14:57.185Z</time></trkpt><trkpt lat="42.8730843" lon="11.4715915"><ele>799.0</ele><time>2026-04-26T10:14:58.182Z</time></trkpt><trkpt lat="42.8729795" lon="11.4716195"><ele>799.0</ele><time>2026-04-26T10:14:59.19Z</time></trkpt><trkpt lat="42.8728538" lon="11.4716391"><ele>799.0</ele><time>2026-04-26T10:15:00.168Z</time></trkpt><trkpt lat="42.8727204" lon="11.471668"><ele>799.0</ele><time>2026-04-26T10:15:01.186Z</time></trkpt><trkpt lat="42.8725845" lon="11.4716967"><ele>800.5</ele><time>2026-04-26T10:15:02.168Z</time></trkpt><trkpt lat="42.872448" lon="11.4717244"><ele>802.0</ele><time>2026-04-26T10:15:03.183Z</time></trkpt><trkpt lat="42.8723074" lon="11.4717642"><ele>803.5</ele><time>2026-04-26T10:15:04.182Z</time></trkpt><trkpt lat="42.8721701" lon="11.4717978"><ele>805.0</ele><time>2026-04-26T10:15:05.193Z</time></trkpt><trkpt lat="42.8720418" lon="11.4718363"><ele>805.0</ele><time>2026-04-26T10:15:06.176Z</time></trkpt><trkpt lat="42.8719218" lon="11.4718812"><ele>805.0</ele><time>2026-04-26T10:15:07.187Z</time></trkpt><trkpt lat="42.8718031" lon="11.4719268"><ele>805.0</ele><time>2026-04-26T10:15:08.175Z</time></trkpt><trkpt lat="42.8716886" lon="11.4719902"><ele>805.0</ele><time>2026-04-26T10:15:09.177Z</time></trkpt><trkpt lat="42.8715895" lon="11.4720897"><ele>808.6</ele><time>2026-04-26T10:15:10.193Z</time></trkpt><trkpt lat="42.8714998" lon="11.4722023"><ele>812.2</ele><time>2026-04-26T10:15:11.187Z</time></trkpt><trkpt lat="42.8714179" lon="11.4723111"><ele>815.8</ele><time>2026-04-26T10:15:12.176Z</time></trkpt><trkpt lat="42.8713526" lon="11.4724246"><ele>819.4</ele><time>2026-04-26T10:15:13.195Z</time></trkpt><trkpt lat="42.8712792" lon="11.472528"><ele>823.0</ele><time>2026-04-26T10:15:14.179Z</time></trkpt><trkpt lat="42.8711812" lon="11.4725983"><ele>823.0</ele><time>2026-04-26T10:15:15.19Z</time></trkpt><trkpt lat="42.8710722" lon="11.4726624"><ele>823.0</ele><time>2026-04-26T10:15:16.184Z</time></trkpt><trkpt lat="42.8709656" lon="11.4727315"><ele>823.0</ele><time>2026-04-26T10:15:17.184Z</time></trkpt><trkpt lat="42.8708609" lon="11.4727949"><ele>823.0</ele><time>2026-04-26T10:15:18.179Z</time></trkpt><trkpt lat="42.8707667" lon="11.4728601"><ele>827.5</ele><time>2026-04-26T10:15:19.178Z</time></trkpt><trkpt lat="42.8706806" lon="11.4729394"><ele>832.0</ele><time>2026-04-26T10:15:20.193Z</time></trkpt><trkpt lat="42.8706081" lon="11.4730789"><ele>836.5</ele><time>2026-04-26T10:15:21.181Z</time></trkpt><trkpt lat="42.8705333" lon="11.4732244"><ele>841.0</ele><time>2026-04-26T10:15:22.199Z</time></trkpt><trkpt lat="42.8704501" lon="11.4733533"><ele>841.0</ele><time>2026-04-26T10:15:23.194Z</time></trkpt><trkpt lat="42.8703707" lon="11.473452"><ele>841.0</ele><time>2026-04-26T10:15:24.186Z</time></trkpt><trkpt lat="42.8702938" lon="11.4735304"><ele>841.0</ele><time>2026-04-26T10:15:25.176Z</time></trkpt><trkpt lat="42.8702055" lon="11.4735846"><ele>841.0</ele><time>2026-04-26T10:15:26.196Z</time></trkpt><trkpt lat="42.8700979" lon="11.4735994"><ele>841.0</ele><time>2026-04-26T10:15:27.188Z</time></trkpt><trkpt lat="42.8699641" lon="11.4736081"><ele>837.75</ele><time>2026-04-26T10:15:28.185Z</time></trkpt><trkpt lat="42.8698276" lon="11.4736238"><ele>834.5</ele><time>2026-04-26T10:15:29.173Z</time></trkpt><trkpt lat="42.8697026" lon="11.473657"><ele>831.25</ele><time>2026-04-26T10:15:30.183Z</time></trkpt><trkpt lat="42.8695833" lon="11.4737086"><ele>828.0</ele><time>2026-04-26T10:15:31.178Z</time></trkpt><trkpt lat="42.8694672" lon="11.473762"><ele>835.5</ele><time>2026-04-26T10:15:32.171Z</time></trkpt><trkpt lat="42.8693484" lon="11.4738153"><ele>843.0</ele><time>2026-04-26T10:15:33.191Z</time></trkpt><trkpt lat="42.8692388" lon="11.4738611"><ele>850.5</ele><time>2026-04-26T10:15:34.186Z</time></trkpt><trkpt lat="42.8691376" lon="11.4739333"><ele>858.0</ele><time>2026-04-26T10:15:35.195Z</time></trkpt><trkpt lat="42.8690344" lon="11.4740135"><ele>858.0</ele><time>2026-04-26T10:15:36.188Z</time></trkpt><trkpt lat="42.8689386" lon="11.474095"><ele>858.0</ele><time>2026-04-26T10:15:37.188Z</time></trkpt><trkpt lat="42.8688579" lon="11.4741954"><ele>858.0</ele><time>2026-04-26T10:15:38.171Z</time></trkpt><trkpt lat="42.8687771" lon="11.4743013"><ele>858.0</ele><time>2026-04-26T10:15:39.18Z</time></trkpt><trkpt lat="42.8687059" lon="11.4743953"><ele>858.0</ele><time>2026-04-26T10:15:40.181Z</time></trkpt><trkpt lat="42.8686306" lon="11.4744661"><ele>858.0</ele><time>2026-04-26T10:15:41.179Z</time></trkpt><trkpt lat="42.8685407" lon="11.4745229"><ele>858.0</ele><time>2026-04-26T10:15:42.183Z</time></trkpt><trkpt lat="42.8684468" lon="11.4745864"><ele>858.0</ele><time>2026-04-26T10:15:43.172Z</time></trkpt><trkpt lat="42.8683591" lon="11.4746482"><ele>858.0</ele><time>2026-04-26T10:15:44.173Z</time></trkpt><trkpt lat="42.8682843" lon="11.4747415"><ele>858.0</ele><time>2026-04-26T10:15:45.181Z</time></trkpt><trkpt lat="42.8682189" lon="11.4748659"><ele>862.25</ele><time>2026-04-26T10:15:46.19Z</time></trkpt><trkpt lat="42.8681469" lon="11.4750009"><ele>866.5</ele><time>2026-04-26T10:15:47.171Z</time></trkpt><trkpt lat="42.8680747" lon="11.4751403"><ele>870.75</ele><time>2026-04-26T10:15:48.199Z</time></trkpt><trkpt lat="42.8680079" lon="11.475277"><ele>875.0</ele><time>2026-04-26T10:15:49.17Z</time></trkpt><trkpt lat="42.867945" lon="11.4754161"><ele>879.75</ele><time>2026-04-26T10:15:50.185Z</time></trkpt><trkpt lat="42.8678785" lon="11.4755508"><ele>884.5</ele><time>2026-04-26T10:15:51.19Z</time></trkpt><trkpt lat="42.8678027" lon="11.4756723"><ele>889.25</ele><time>2026-04-26T10:15:52.179Z</time></trkpt><trkpt lat="42.8677122" lon="11.4757957"><ele>894.0</ele><time>2026-04-26T10:15:53.186Z</time></trkpt><trkpt lat="42.8676162" lon="11.4759183"><ele>896.25</ele><time>2026-04-26T10:15:54.178Z</time></trkpt><trkpt lat="42.8675279" lon="11.4760368"><ele>898.5</ele><time>2026-04-26T10:15:55.183Z</time></trkpt><trkpt lat="42.8674444" lon="11.4761413"><ele>900.75</ele><time>2026-04-26T10:15:56.187Z</time></trkpt><trkpt lat="42.867357" lon="11.4762284"><ele>903.0</ele><time>2026-04-26T10:15:57.189Z</time></trkpt><trkpt lat="42.8672676" lon="11.4763151"><ele>903.0</ele><time>2026-04-26T10:15:58.173Z</time></trkpt><trkpt lat="42.8671564" lon="11.4763775"><ele>903.0</ele><time>2026-04-26T10:15:59.192Z</time></trkpt><trkpt lat="42.8670393" lon="11.4764321"><ele>903.0</ele><time>2026-04-26T10:16:00.178Z</time></trkpt><trkpt lat="42.8669161" lon="11.4764991"><ele>903.0</ele><time>2026-04-26T10:16:01.177Z</time></trkpt><trkpt lat="42.8668126" lon="11.4765631"><ele>903.0</ele><time>2026-04-26T10:16:02.184Z</time></trkpt><trkpt lat="42.8667198" lon="11.4766172"><ele>903.0</ele><time>2026-04-26T10:16:03.183Z</time></trkpt><trkpt lat="42.8666258" lon="11.4766585"><ele>903.0</ele><time>2026-04-26T10:16:04.193Z</time></trkpt><trkpt lat="42.8665304" lon="11.4766926"><ele>903.0</ele><time>2026-04-26T10:16:05.185Z</time></trkpt><trkpt lat="42.8664483" lon="11.4766894"><ele>903.0</ele><time>2026-04-26T10:16:06.178Z</time></trkpt><trkpt lat="42.8663624" lon="11.47664"><ele>903.0</ele><time>2026-04-26T10:16:07.186Z</time></trkpt><trkpt lat="42.866266" lon="11.4765639"><ele>903.0</ele><time>2026-04-26T10:16:08.175Z</time></trkpt><trkpt lat="42.8661765" lon="11.4764953"><ele>903.0</ele><time>2026-04-26T10:16:09.192Z</time></trkpt><trkpt lat="42.866096" lon="11.4764315"><ele>903.0</ele><time>2026-04-26T10:16:10.18Z</time></trkpt><trkpt lat="42.866026" lon="11.4763967"><ele>903.0</ele><time>2026-04-26T10:16:11.192Z</time></trkpt><trkpt lat="42.8659586" lon="11.4764383"><ele>904.1428571428571</ele><time>2026-04-26T10:16:12.187Z</time></trkpt><trkpt lat="42.8659101" lon="11.4765068"><ele>905.2857142857142</ele><time>2026-04-26T10:16:13.182Z</time></trkpt><trkpt lat="42.865872" lon="11.4765922"><ele>906.4285714285714</ele><time>2026-04-26T10:16:14.187Z</time></trkpt><trkpt lat="42.865838" lon="11.4766803"><ele>907.5714285714286</ele><time>2026-04-26T10:16:15.175Z</time></trkpt><trkpt lat="42.8658052" lon="11.4767739"><ele>908.7142857142857</ele><time>2026-04-26T10:16:16.189Z</time></trkpt><trkpt lat="42.8657709" lon="11.4768679"><ele>909.8571428571429</ele><time>2026-04-26T10:16:17.173Z</time></trkpt><trkpt lat="42.8657377" lon="11.4769595"><ele>911.0</ele><time>2026-04-26T10:16:18.181Z</time></trkpt><trkpt lat="42.8657025" lon="11.477045"><ele>913.5999999999999</ele><time>2026-04-26T10:16:19.184Z</time></trkpt><trkpt lat="42.8656662" lon="11.4771209"><ele>916.1999999999999</ele><time>2026-04-26T10:16:20.191Z</time></trkpt><trkpt lat="42.8656035" lon="11.4772384"><ele>918.8000000000001</ele><time>2026-04-26T10:16:22.192Z</time></trkpt><trkpt lat="42.86555" lon="11.4772857"><ele>921.4000000000001</ele><time>2026-04-26T10:16:25.182Z</time></trkpt><trkpt lat="42.8654718" lon="11.4772127"><ele>924.0</ele><time>2026-04-26T10:16:46.17Z</time></trkpt><trkpt lat="42.8653691" lon="11.4771267"><ele>923.2</ele><time>2026-04-26T10:16:48.186Z</time></trkpt><trkpt lat="42.8653049" lon="11.4770763"><ele>922.4000000000001</ele><time>2026-04-26T10:16:49.168Z</time></trkpt><trkpt lat="42.8652357" lon="11.4770044"><ele>921.6</ele><time>2026-04-26T10:16:50.176Z</time></trkpt><trkpt lat="42.8651661" lon="11.4769168"><ele>920.8</ele><time>2026-04-26T10:16:51.171Z</time></trkpt><trkpt lat="42.8650899" lon="11.4768198"><ele>920.0</ele><time>2026-04-26T10:16:52.173Z</time></trkpt><trkpt lat="42.8650125" lon="11.4767178"><ele>920.0</ele><time>2026-04-26T10:16:53.199Z</time></trkpt><trkpt lat="42.86494" lon="11.4766125"><ele>920.0</ele><time>2026-04-26T10:16:54.174Z</time></trkpt><trkpt lat="42.8648694" lon="11.4765071"><ele>920.0</ele><time>2026-04-26T10:16:55.188Z</time></trkpt><trkpt lat="42.8647973" lon="11.4763985"><ele>920.0</ele><time>2026-04-26T10:16:56.18Z</time></trkpt><trkpt lat="42.8647251" lon="11.4762867"><ele>920.0</ele><time>2026-04-26T10:16:57.199Z</time></trkpt><trkpt lat="42.864653" lon="11.4761773"><ele>920.2</ele><time>2026-04-26T10:16:58.176Z</time></trkpt><trkpt lat="42.8645782" lon="11.4760771"><ele>920.4</ele><time>2026-04-26T10:16:59.192Z</time></trkpt><trkpt lat="42.8645041" lon="11.47598"><ele>920.5999999999999</ele><time>2026-04-26T10:17:00.175Z</time></trkpt><trkpt lat="42.8644358" lon="11.4758847"><ele>920.8</ele><time>2026-04-26T10:17:01.182Z</time></trkpt><trkpt lat="42.8643719" lon="11.4757946"><ele>921.0</ele><time>2026-04-26T10:17:02.174Z</time></trkpt><trkpt lat="42.8643153" lon="11.4757158"><ele>922.7142857142858</ele><time>2026-04-26T10:17:03.188Z</time></trkpt><trkpt lat="42.8642574" lon="11.4756567"><ele>924.4285714285714</ele><time>2026-04-26T10:17:04.177Z</time></trkpt><trkpt lat="42.8641954" lon="11.4756271"><ele>926.1428571428571</ele><time>2026-04-26T10:17:05.175Z</time></trkpt><trkpt lat="42.8641314" lon="11.4756248"><ele>927.8571428571429</ele><time>2026-04-26T10:17:06.173Z</time></trkpt><trkpt lat="42.8640648" lon="11.4756223"><ele>929.5714285714284</ele><time>2026-04-26T10:17:07.17Z</time></trkpt><trkpt lat="42.864" lon="11.4756545"><ele>931.2857142857142</ele><time>2026-04-26T10:17:08.19Z</time></trkpt><trkpt lat="42.8639281" lon="11.4756882"><ele>933.0</ele><time>2026-04-26T10:17:09.185Z</time></trkpt><trkpt lat="42.8638569" lon="11.4756879"><ele>933.0</ele><time>2026-04-26T10:17:10.185Z</time></trkpt><trkpt lat="42.8637859" lon="11.4756674"><ele>933.0</ele><time>2026-04-26T10:17:11.171Z</time></trkpt><trkpt lat="42.8637104" lon="11.4756298"><ele>933.0</ele><time>2026-04-26T10:17:12.179Z</time></trkpt><trkpt lat="42.8636304" lon="11.4755857"><ele>933.0</ele><time>2026-04-26T10:17:13.179Z</time></trkpt><trkpt lat="42.8635408" lon="11.475546"><ele>933.0</ele><time>2026-04-26T10:17:14.18Z</time></trkpt><trkpt lat="42.8634422" lon="11.4755182"><ele>933.0</ele><time>2026-04-26T10:17:15.188Z</time></trkpt><trkpt lat="42.8633396" lon="11.4754923"><ele>934.4</ele><time>2026-04-26T10:17:16.174Z</time></trkpt><trkpt lat="42.8632344" lon="11.4754677"><ele>935.8</ele><time>2026-04-26T10:17:17.183Z</time></trkpt><trkpt lat="42.8631269" lon="11.4754339"><ele>937.2</ele><time>2026-04-26T10:17:18.172Z</time></trkpt><trkpt lat="42.8630233" lon="11.4753896"><ele>938.6</ele><time>2026-04-26T10:17:19.196Z</time></trkpt><trkpt lat="42.8629262" lon="11.4753521"><ele>940.0</ele><time>2026-04-26T10:17:20.185Z</time></trkpt><trkpt lat="42.8628389" lon="11.4753045"><ele>942.2</ele><time>2026-04-26T10:17:21.179Z</time></trkpt><trkpt lat="42.8627525" lon="11.4752546"><ele>944.4</ele><time>2026-04-26T10:17:22.175Z</time></trkpt><trkpt lat="42.8626611" lon="11.4751944"><ele>946.5999999999999</ele><time>2026-04-26T10:17:23.174Z</time></trkpt><trkpt lat="42.8625602" lon="11.4751183"><ele>948.8</ele><time>2026-04-26T10:17:24.185Z</time></trkpt><trkpt lat="42.8624564" lon="11.475041"><ele>951.0</ele><time>2026-04-26T10:17:25.175Z</time></trkpt><trkpt lat="42.8623517" lon="11.4749621"><ele>951.5999999999999</ele><time>2026-04-26T10:17:26.18Z</time></trkpt><trkpt lat="42.8622501" lon="11.4748809"><ele>952.1999999999999</ele><time>2026-04-26T10:17:27.191Z</time></trkpt><trkpt lat="42.8621533" lon="11.4748093"><ele>952.8000000000001</ele><time>2026-04-26T10:17:28.186Z</time></trkpt><trkpt lat="42.8620637" lon="11.4747645"><ele>953.4000000000001</ele><time>2026-04-26T10:17:29.177Z</time></trkpt><trkpt lat="42.8619726" lon="11.4747155"><ele>954.0</ele><time>2026-04-26T10:17:30.182Z</time></trkpt><trkpt lat="42.8618828" lon="11.474651"><ele>954.6</ele><time>2026-04-26T10:17:31.174Z</time></trkpt><trkpt lat="42.8617974" lon="11.4745788"><ele>955.2</ele><time>2026-04-26T10:17:32.19Z</time></trkpt><trkpt lat="42.8617202" lon="11.4745125"><ele>955.8000000000001</ele><time>2026-04-26T10:17:33.189Z</time></trkpt><trkpt lat="42.8616395" lon="11.4744084"><ele>956.4000000000001</ele><time>2026-04-26T10:17:35.173Z</time></trkpt><trkpt lat="42.861612" lon="11.47429"><ele>957.0</ele><time>2026-04-26T10:17:37.18Z</time></trkpt><trkpt lat="42.8616323" lon="11.4742073"><ele>959.3333333333334</ele><time>2026-04-26T10:17:38.18Z</time></trkpt><trkpt lat="42.8616652" lon="11.4741143"><ele>961.6666666666667</ele><time>2026-04-26T10:17:39.185Z</time></trkpt><trkpt lat="42.8616938" lon="11.4740178"><ele>964.0</ele><time>2026-04-26T10:17:40.184Z</time></trkpt><trkpt lat="42.8616972" lon="11.4739205"><ele>966.3333333333334</ele><time>2026-04-26T10:17:41.189Z</time></trkpt><trkpt lat="42.8616764" lon="11.4738376"><ele>968.6666666666667</ele><time>2026-04-26T10:17:42.197Z</time></trkpt><trkpt lat="42.8616021" lon="11.473721"><ele>971.0</ele><time>2026-04-26T10:17:44.176Z</time></trkpt><trkpt lat="42.8615375" lon="11.4737043"><ele>972.0000000000001</ele><time>2026-04-26T10:17:45.166Z</time></trkpt><trkpt lat="42.8614623" lon="11.4736709"><ele>973.0</ele><time>2026-04-26T10:17:46.175Z</time></trkpt><trkpt lat="42.861397" lon="11.473634"><ele>974.0</ele><time>2026-04-26T10:17:47.183Z</time></trkpt><trkpt lat="42.8613309" lon="11.473596"><ele>975.0</ele><time>2026-04-26T10:17:48.186Z</time></trkpt><trkpt lat="42.8612559" lon="11.4735574"><ele>976.0000000000001</ele><time>2026-04-26T10:17:49.187Z</time></trkpt><trkpt lat="42.8611849" lon="11.4735112"><ele>977.0</ele><time>2026-04-26T10:17:50.184Z</time></trkpt><trkpt lat="42.8611217" lon="11.4734427"><ele>977.0000000000001</ele><time>2026-04-26T10:17:51.188Z</time></trkpt><trkpt lat="42.8610629" lon="11.4733673"><ele>977.0</ele><time>2026-04-26T10:17:52.182Z</time></trkpt><trkpt lat="42.8609979" lon="11.4733092"><ele>977.0</ele><time>2026-04-26T10:17:53.177Z</time></trkpt><trkpt lat="42.8609193" lon="11.4732621"><ele>977.0</ele><time>2026-04-26T10:17:54.182Z</time></trkpt><trkpt lat="42.8608367" lon="11.4732134"><ele>977.0000000000001</ele><time>2026-04-26T10:17:55.191Z</time></trkpt><trkpt lat="42.8607547" lon="11.4731649"><ele>977.0</ele><time>2026-04-26T10:17:56.192Z</time></trkpt><trkpt lat="42.860675" lon="11.4731229"><ele>978.2857142857144</ele><time>2026-04-26T10:17:57.19Z</time></trkpt><trkpt lat="42.8605974" lon="11.4730857"><ele>979.5714285714287</ele><time>2026-04-26T10:17:58.19Z</time></trkpt><trkpt lat="42.8605207" lon="11.4730613"><ele>980.8571428571429</ele><time>2026-04-26T10:17:59.179Z</time></trkpt><trkpt lat="42.8604481" lon="11.4730524"><ele>982.1428571428572</ele><time>2026-04-26T10:18:00.179Z</time></trkpt><trkpt lat="42.8603778" lon="11.4730456"><ele>983.4285714285716</ele><time>2026-04-26T10:18:01.191Z</time></trkpt><trkpt lat="42.8603099" lon="11.47307"><ele>984.7142857142857</ele><time>2026-04-26T10:18:02.171Z</time></trkpt><trkpt lat="42.8602437" lon="11.4731061"><ele>986.0</ele><time>2026-04-26T10:18:03.184Z</time></trkpt><trkpt lat="42.8601723" lon="11.4731442"><ele>986.3333333333334</ele><time>2026-04-26T10:18:04.185Z</time></trkpt><trkpt lat="42.8600965" lon="11.4731782"><ele>986.6666666666667</ele><time>2026-04-26T10:18:05.188Z</time></trkpt><trkpt lat="42.860016" lon="11.4731881"><ele>987.0</ele><time>2026-04-26T10:18:06.177Z</time></trkpt><trkpt lat="42.8599417" lon="11.4731785"><ele>987.3333333333333</ele><time>2026-04-26T10:18:07.196Z</time></trkpt><trkpt lat="42.8598787" lon="11.4731498"><ele>987.6666666666666</ele><time>2026-04-26T10:18:08.183Z</time></trkpt><trkpt lat="42.8597942" lon="11.4730886"><ele>988.0</ele><time>2026-04-26T10:18:10.179Z</time></trkpt><trkpt lat="42.859728" lon="11.4730699"><ele>987.9999999999999</ele><time>2026-04-26T10:18:13.174Z</time></trkpt><trkpt lat="42.8596764" lon="11.4731275"><ele>988.0</ele><time>2026-04-26T10:18:17.179Z</time></trkpt><trkpt lat="42.8596774" lon="11.4732291"><ele>988.0</ele><time>2026-04-26T10:18:21.19Z</time></trkpt><trkpt lat="42.8596676" lon="11.4733684"><ele>988.0</ele><time>2026-04-26T10:18:23.191Z</time></trkpt><trkpt lat="42.8596596" lon="11.4734551"><ele>987.9999999999999</ele><time>2026-04-26T10:18:24.18Z</time></trkpt><trkpt lat="42.8596473" lon="11.4735543"><ele>988.0</ele><time>2026-04-26T10:18:25.191Z</time></trkpt><trkpt lat="42.8596349" lon="11.4736625"><ele>987.0</ele><time>2026-04-26T10:18:26.178Z</time></trkpt><trkpt lat="42.8596239" lon="11.4737861"><ele>986.0</ele><time>2026-04-26T10:18:27.178Z</time></trkpt><trkpt lat="42.8596155" lon="11.4739266"><ele>985.0</ele><time>2026-04-26T10:18:28.173Z</time></trkpt><trkpt lat="42.8596047" lon="11.4740713"><ele>984.0</ele><time>2026-04-26T10:18:29.186Z</time></trkpt><trkpt lat="42.859598" lon="11.474215"><ele>983.0</ele><time>2026-04-26T10:18:30.178Z</time></trkpt><trkpt lat="42.8595918" lon="11.4743555"><ele>983.0</ele><time>2026-04-26T10:18:31.185Z</time></trkpt><trkpt lat="42.8595865" lon="11.4744988"><ele>983.0</ele><time>2026-04-26T10:18:32.182Z</time></trkpt><trkpt lat="42.8595776" lon="11.4746533"><ele>983.0</ele><time>2026-04-26T10:18:33.182Z</time></trkpt><trkpt lat="42.8595618" lon="11.4748035"><ele>983.0</ele><time>2026-04-26T10:18:34.184Z</time></trkpt><trkpt lat="42.8595509" lon="11.4749473"><ele>983.0</ele><time>2026-04-26T10:18:35.184Z</time></trkpt><trkpt lat="42.8595413" lon="11.4750955"><ele>982.0</ele><time>2026-04-26T10:18:36.194Z</time></trkpt><trkpt lat="42.8595334" lon="11.4752387"><ele>981.0</ele><time>2026-04-26T10:18:37.179Z</time></trkpt><trkpt lat="42.8595259" lon="11.4753816"><ele>980.0</ele><time>2026-04-26T10:18:38.183Z</time></trkpt><trkpt lat="42.859522" lon="11.4755058"><ele>979.0</ele><time>2026-04-26T10:18:39.177Z</time></trkpt><trkpt lat="42.8595146" lon="11.4756259"><ele>978.0</ele><time>2026-04-26T10:18:40.168Z</time></trkpt><trkpt lat="42.8595022" lon="11.4757402"><ele>977.1666666666666</ele><time>2026-04-26T10:18:41.176Z</time></trkpt><trkpt lat="42.8594756" lon="11.475854"><ele>976.3333333333333</ele><time>2026-04-26T10:18:42.178Z</time></trkpt><trkpt lat="42.8594376" lon="11.4759659"><ele>975.5</ele><time>2026-04-26T10:18:43.17Z</time></trkpt><trkpt lat="42.8593999" lon="11.4760708"><ele>974.6666666666666</ele><time>2026-04-26T10:18:44.187Z</time></trkpt><trkpt lat="42.8593629" lon="11.4761805"><ele>973.8333333333333</ele><time>2026-04-26T10:18:45.19Z</time></trkpt><trkpt lat="42.8593454" lon="11.4762965"><ele>973.0</ele><time>2026-04-26T10:18:46.184Z</time></trkpt><trkpt lat="42.8593574" lon="11.4764275"><ele>972.5</ele><time>2026-04-26T10:18:47.176Z</time></trkpt><trkpt lat="42.8594048" lon="11.476558"><ele>972.0</ele><time>2026-04-26T10:18:48.191Z</time></trkpt><trkpt lat="42.8594597" lon="11.4767081"><ele>971.5</ele><time>2026-04-26T10:18:49.184Z</time></trkpt><trkpt lat="42.8594908" lon="11.4768835"><ele>971.0</ele><time>2026-04-26T10:18:50.175Z</time></trkpt><trkpt lat="42.8595207" lon="11.4770699"><ele>973.0</ele><time>2026-04-26T10:18:51.18Z</time></trkpt><trkpt lat="42.8595569" lon="11.4772709"><ele>975.0</ele><time>2026-04-26T10:18:52.189Z</time></trkpt><trkpt lat="42.8596146" lon="11.4774943"><ele>977.0</ele><time>2026-04-26T10:18:53.185Z</time></trkpt><trkpt lat="42.8596905" lon="11.477717"><ele>977.0</ele><time>2026-04-26T10:18:54.176Z</time></trkpt><trkpt lat="42.8597561" lon="11.4779343"><ele>977.0</ele><time>2026-04-26T10:18:55.187Z</time></trkpt><trkpt lat="42.859819" lon="11.4781093"><ele>977.0</ele><time>2026-04-26T10:18:56.194Z</time></trkpt><trkpt lat="42.8598821" lon="11.4782709"><ele>977.0</ele><time>2026-04-26T10:18:57.176Z</time></trkpt><trkpt lat="42.8599334" lon="11.4784248"><ele>977.6</ele><time>2026-04-26T10:18:58.194Z</time></trkpt><trkpt lat="42.8599719" lon="11.4785648"><ele>978.2</ele><time>2026-04-26T10:18:59.182Z</time></trkpt><trkpt lat="42.8600122" lon="11.4787088"><ele>978.8</ele><time>2026-04-26T10:19:00.172Z</time></trkpt><trkpt lat="42.8600348" lon="11.4788385"><ele>979.4</ele><time>2026-04-26T10:19:01.188Z</time></trkpt><trkpt lat="42.8600467" lon="11.4789684"><ele>980.0</ele><time>2026-04-26T10:19:02.183Z</time></trkpt><trkpt lat="42.8600455" lon="11.4790939"><ele>980.4</ele><time>2026-04-26T10:19:03.188Z</time></trkpt><trkpt lat="42.8600221" lon="11.4792164"><ele>980.8</ele><time>2026-04-26T10:19:04.192Z</time></trkpt><trkpt lat="42.8599768" lon="11.4793445"><ele>981.2</ele><time>2026-04-26T10:19:05.165Z</time></trkpt><trkpt lat="42.8599405" lon="11.4794688"><ele>981.6</ele><time>2026-04-26T10:19:06.188Z</time></trkpt><trkpt lat="42.859925" lon="11.479584"><ele>982.0</ele><time>2026-04-26T10:19:07.189Z</time></trkpt><trkpt lat="42.8599263" lon="11.4796864"><ele>981.2</ele><time>2026-04-26T10:19:08.19Z</time></trkpt><trkpt lat="42.8599389" lon="11.4798152"><ele>980.4000000000001</ele><time>2026-04-26T10:19:09.181Z</time></trkpt><trkpt lat="42.8599382" lon="11.4799478"><ele>979.5999999999999</ele><time>2026-04-26T10:19:10.192Z</time></trkpt><trkpt lat="42.8599199" lon="11.4800732"><ele>978.8</ele><time>2026-04-26T10:19:11.185Z</time></trkpt><trkpt lat="42.8598788" lon="11.4801992"><ele>978.0</ele><time>2026-04-26T10:19:12.19Z</time></trkpt><trkpt lat="42.8597921" lon="11.480324"><ele>976.0</ele><time>2026-04-26T10:19:13.176Z</time></trkpt><trkpt lat="42.8597034" lon="11.4804393"><ele>974.0</ele><time>2026-04-26T10:19:14.188Z</time></trkpt><trkpt lat="42.859592" lon="11.4805126"><ele>972.0</ele><time>2026-04-26T10:19:15.191Z</time></trkpt><trkpt lat="42.8594792" lon="11.4805855"><ele>970.0</ele><time>2026-04-26T10:19:16.177Z</time></trkpt><trkpt lat="42.8593576" lon="11.4806306"><ele>972.0</ele><time>2026-04-26T10:19:17.186Z</time></trkpt><trkpt lat="42.8592336" lon="11.4806632"><ele>974.0</ele><time>2026-04-26T10:19:18.203Z</time></trkpt><trkpt lat="42.8591138" lon="11.4806929"><ele>976.0</ele><time>2026-04-26T10:19:19.185Z</time></trkpt><trkpt lat="42.8590026" lon="11.4807281"><ele>978.0</ele><time>2026-04-26T10:19:20.176Z</time></trkpt><trkpt lat="42.8588966" lon="11.4807599"><ele>978.0</ele><time>2026-04-26T10:19:21.181Z</time></trkpt><trkpt lat="42.8587844" lon="11.4807831"><ele>978.0</ele><time>2026-04-26T10:19:22.186Z</time></trkpt><trkpt lat="42.8586657" lon="11.4807801"><ele>978.0</ele><time>2026-04-26T10:19:23.19Z</time></trkpt><trkpt lat="42.8585461" lon="11.4807666"><ele>978.0</ele><time>2026-04-26T10:19:24.182Z</time></trkpt><trkpt lat="42.8584311" lon="11.4807531"><ele>981.25</ele><time>2026-04-26T10:19:25.192Z</time></trkpt><trkpt lat="42.8583265" lon="11.4807689"><ele>984.5</ele><time>2026-04-26T10:19:26.172Z</time></trkpt><trkpt lat="42.8582239" lon="11.4808288"><ele>987.75</ele><time>2026-04-26T10:19:27.181Z</time></trkpt><trkpt lat="42.8581232" lon="11.4809184"><ele>991.0</ele><time>2026-04-26T10:19:28.185Z</time></trkpt><trkpt lat="42.8580139" lon="11.4810138"><ele>991.0</ele><time>2026-04-26T10:19:29.173Z</time></trkpt><trkpt lat="42.8578848" lon="11.4810866"><ele>991.0</ele><time>2026-04-26T10:19:30.18Z</time></trkpt><trkpt lat="42.8577644" lon="11.4811293"><ele>991.0</ele><time>2026-04-26T10:19:31.177Z</time></trkpt><trkpt lat="42.8576649" lon="11.4811508"><ele>991.0</ele><time>2026-04-26T10:19:32.192Z</time></trkpt><trkpt lat="42.8575663" lon="11.4811441"><ele>991.1999999999999</ele><time>2026-04-26T10:19:33.197Z</time></trkpt><trkpt lat="42.8574686" lon="11.481121"><ele>991.3999999999999</ele><time>2026-04-26T10:19:34.189Z</time></trkpt><trkpt lat="42.8573707" lon="11.4811148"><ele>991.6</ele><time>2026-04-26T10:19:35.169Z</time></trkpt><trkpt lat="42.8572719" lon="11.4811392"><ele>991.8</ele><time>2026-04-26T10:19:36.194Z</time></trkpt><trkpt lat="42.8571692" lon="11.4811981"><ele>992.0</ele><time>2026-04-26T10:19:37.176Z</time></trkpt><trkpt lat="42.8570585" lon="11.4812733"><ele>992.0</ele><time>2026-04-26T10:19:38.188Z</time></trkpt><trkpt lat="42.8569446" lon="11.4813423"><ele>992.0</ele><time>2026-04-26T10:19:39.176Z</time></trkpt><trkpt lat="42.8568347" lon="11.4814084"><ele>992.0</ele><time>2026-04-26T10:19:40.188Z</time></trkpt><trkpt lat="42.856723" lon="11.4814543"><ele>992.0</ele><time>2026-04-26T10:19:41.191Z</time></trkpt><trkpt lat="42.8566019" lon="11.4814423"><ele>994.2</ele><time>2026-04-26T10:19:42.198Z</time></trkpt><trkpt lat="42.8564865" lon="11.481403"><ele>996.4000000000001</ele><time>2026-04-26T10:19:43.175Z</time></trkpt><trkpt lat="42.8563754" lon="11.4813643"><ele>998.5999999999999</ele><time>2026-04-26T10:19:44.185Z</time></trkpt><trkpt lat="42.8562745" lon="11.4813234"><ele>1000.8</ele><time>2026-04-26T10:19:45.185Z</time></trkpt><trkpt lat="42.8561834" lon="11.4812983"><ele>1003.0</ele><time>2026-04-26T10:19:46.189Z</time></trkpt><trkpt lat="42.8561102" lon="11.481295"><ele>1002.9999999999999</ele><time>2026-04-26T10:19:47.176Z</time></trkpt><trkpt lat="42.8560395" lon="11.4813012"><ele>1003.0</ele><time>2026-04-26T10:19:48.178Z</time></trkpt><trkpt lat="42.8559285" lon="11.4813102"><ele>1003.0</ele><time>2026-04-26T10:19:50.169Z</time></trkpt><trkpt lat="42.8558618" lon="11.4813011"><ele>1003.0</ele><time>2026-04-26T10:19:52.185Z</time></trkpt><trkpt lat="42.8557914" lon="11.4812827"><ele>1002.9999999999999</ele><time>2026-04-26T10:19:55.177Z</time></trkpt><trkpt lat="42.8558153" lon="11.4814338"><ele>1003.0</ele><time>2026-04-26T10:21:08.179Z</time></trkpt><trkpt lat="42.8557729" lon="11.4813285"><ele>1004.3333333333333</ele><time>2026-04-26T10:51:29.185Z</time></trkpt><trkpt lat="42.8557009" lon="11.4812966"><ele>1005.6666666666666</ele><time>2026-04-26T11:00:57.184Z</time></trkpt><trkpt lat="42.8556329" lon="11.4813392"><ele>1007.0</ele><time>2026-04-26T11:00:59.189Z</time></trkpt><trkpt lat="42.8555619" lon="11.4814052"><ele>1008.3333333333333</ele><time>2026-04-26T11:01:01.178Z</time></trkpt><trkpt lat="42.8554896" lon="11.4814856"><ele>1009.6666666666666</ele><time>2026-04-26T11:01:03.192Z</time></trkpt><trkpt lat="42.8554326" lon="11.4815929"><ele>1011.0</ele><time>2026-04-26T11:01:05.192Z</time></trkpt><trkpt lat="42.8554008" lon="11.4817249"><ele>1011.0</ele><time>2026-04-26T11:01:07.172Z</time></trkpt><trkpt lat="42.8553653" lon="11.4819037"><ele>1010.9999999999999</ele><time>2026-04-26T11:01:09.177Z</time></trkpt><trkpt lat="42.8553272" lon="11.4820234"><ele>1010.9999999999999</ele><time>2026-04-26T11:01:10.189Z</time></trkpt><trkpt lat="42.8552709" lon="11.4821518"><ele>1011.0</ele><time>2026-04-26T11:01:11.177Z</time></trkpt><trkpt lat="42.855211" lon="11.4822582"><ele>1011.0</ele><time>2026-04-26T11:01:12.175Z</time></trkpt><trkpt lat="42.855155" lon="11.4823392"><ele>1011.1999999999999</ele><time>2026-04-26T11:01:13.182Z</time></trkpt><trkpt lat="42.8551058" lon="11.4823991"><ele>1011.3999999999999</ele><time>2026-04-26T11:01:14.189Z</time></trkpt><trkpt lat="42.8550147" lon="11.4825"><ele>1011.6</ele><time>2026-04-26T11:01:16.193Z</time></trkpt><trkpt lat="42.8549069" lon="11.4825612"><ele>1011.8</ele><time>2026-04-26T11:01:18.192Z</time></trkpt><trkpt lat="42.8548002" lon="11.4825977"><ele>1012.0</ele><time>2026-04-26T11:01:20.194Z</time></trkpt><trkpt lat="42.8547136" lon="11.4825997"><ele>1011.9999999999999</ele><time>2026-04-26T11:01:22.19Z</time></trkpt><trkpt lat="42.854636" lon="11.482602"><ele>1012.0</ele><time>2026-04-26T11:01:24.182Z</time></trkpt><trkpt lat="42.8545666" lon="11.4826011"><ele>1012.0</ele><time>2026-04-26T11:01:26.174Z</time></trkpt><trkpt lat="42.8545036" lon="11.4826186"><ele>1012.0</ele><time>2026-04-26T11:01:28.181Z</time></trkpt><trkpt lat="42.854439" lon="11.4826479"><ele>1011.9999999999999</ele><time>2026-04-26T11:01:30.186Z</time></trkpt><trkpt lat="42.8543227" lon="11.4826989"><ele>1012.0</ele><time>2026-04-26T11:01:32.193Z</time></trkpt><trkpt lat="42.8542581" lon="11.4827369"><ele>1011.1666666666666</ele><time>2026-04-26T11:01:33.185Z</time></trkpt><trkpt lat="42.8541949" lon="11.4827901"><ele>1010.3333333333333</ele><time>2026-04-26T11:01:34.188Z</time></trkpt><trkpt lat="42.8541353" lon="11.4828489"><ele>1009.5</ele><time>2026-04-26T11:01:35.192Z</time></trkpt><trkpt lat="42.8540722" lon="11.4829136"><ele>1008.6666666666667</ele><time>2026-04-26T11:01:36.169Z</time></trkpt><trkpt lat="42.8540057" lon="11.482984"><ele>1007.8333333333334</ele><time>2026-04-26T11:01:37.194Z</time></trkpt><trkpt lat="42.8539428" lon="11.4830609"><ele>1007.0</ele><time>2026-04-26T11:01:38.187Z</time></trkpt><trkpt lat="42.8538866" lon="11.4831575"><ele>1007.0</ele><time>2026-04-26T11:01:39.176Z</time></trkpt><trkpt lat="42.8538407" lon="11.4832702"><ele>1007.0</ele><time>2026-04-26T11:01:40.186Z</time></trkpt><trkpt lat="42.8538164" lon="11.4833966"><ele>1007.0</ele><time>2026-04-26T11:01:41.176Z</time></trkpt><trkpt lat="42.8538155" lon="11.4835336"><ele>1007.0</ele><time>2026-04-26T11:01:42.188Z</time></trkpt><trkpt lat="42.8538251" lon="11.4836849"><ele>1007.0</ele><time>2026-04-26T11:01:43.177Z</time></trkpt><trkpt lat="42.8538377" lon="11.4838279"><ele>1005.8</ele><time>2026-04-26T11:01:44.178Z</time></trkpt><trkpt lat="42.8538489" lon="11.4839583"><ele>1004.6</ele><time>2026-04-26T11:01:45.176Z</time></trkpt><trkpt lat="42.8538555" lon="11.4840794"><ele>1003.3999999999999</ele><time>2026-04-26T11:01:46.188Z</time></trkpt><trkpt lat="42.8538531" lon="11.484184"><ele>1002.1999999999999</ele><time>2026-04-26T11:01:47.183Z</time></trkpt><trkpt lat="42.8538372" lon="11.484273"><ele>1001.0</ele><time>2026-04-26T11:01:48.184Z</time></trkpt><trkpt lat="42.8537498" lon="11.4843879"><ele>1001.0</ele><time>2026-04-26T11:01:50.179Z</time></trkpt><trkpt lat="42.8536809" lon="11.4844054"><ele>1000.9999999999999</ele><time>2026-04-26T11:01:51.173Z</time></trkpt><trkpt lat="42.8535981" lon="11.4844042"><ele>1000.9999999999999</ele><time>2026-04-26T11:01:52.188Z</time></trkpt><trkpt lat="42.8535002" lon="11.4843927"><ele>1001.0</ele><time>2026-04-26T11:01:53.184Z</time></trkpt><trkpt lat="42.8533943" lon="11.484378"><ele>1001.0</ele><time>2026-04-26T11:01:54.187Z</time></trkpt><trkpt lat="42.8532778" lon="11.4843605"><ele>1004.0</ele><time>2026-04-26T11:01:55.171Z</time></trkpt><trkpt lat="42.8531572" lon="11.4843379"><ele>1007.0</ele><time>2026-04-26T11:01:56.178Z</time></trkpt><trkpt lat="42.8530376" lon="11.4843121"><ele>1010.0</ele><time>2026-04-26T11:01:57.191Z</time></trkpt><trkpt lat="42.8529228" lon="11.4842878"><ele>1013.0</ele><time>2026-04-26T11:01:58.186Z</time></trkpt><trkpt lat="42.8528124" lon="11.4842765"><ele>1013.0</ele><time>2026-04-26T11:01:59.194Z</time></trkpt><trkpt lat="42.8527097" lon="11.4842803"><ele>1013.0</ele><time>2026-04-26T11:02:00.188Z</time></trkpt><trkpt lat="42.8526159" lon="11.4842826"><ele>1013.0</ele><time>2026-04-26T11:02:01.184Z</time></trkpt><trkpt lat="42.852528" lon="11.4842925"><ele>1013.0</ele><time>2026-04-26T11:02:02.18Z</time></trkpt><trkpt lat="42.8524453" lon="11.4843244"><ele>1013.0</ele><time>2026-04-26T11:02:03.176Z</time></trkpt><trkpt lat="42.8523686" lon="11.4843849"><ele>1013.4</ele><time>2026-04-26T11:02:04.185Z</time></trkpt><trkpt lat="42.8523035" lon="11.4844757"><ele>1013.8</ele><time>2026-04-26T11:02:05.179Z</time></trkpt><trkpt lat="42.8522444" lon="11.4845768"><ele>1014.2</ele><time>2026-04-26T11:02:06.183Z</time></trkpt><trkpt lat="42.8521719" lon="11.4846632"><ele>1014.6</ele><time>2026-04-26T11:02:07.183Z</time></trkpt><trkpt lat="42.8520829" lon="11.4847309"><ele>1015.0</ele><time>2026-04-26T11:02:08.181Z</time></trkpt><trkpt lat="42.8519942" lon="11.4847981"><ele>1011.0</ele><time>2026-04-26T11:02:09.178Z</time></trkpt><trkpt lat="42.8519113" lon="11.4848798"><ele>1007.0</ele><time>2026-04-26T11:02:10.199Z</time></trkpt><trkpt lat="42.8518531" lon="11.4849783"><ele>1003.0</ele><time>2026-04-26T11:02:11.182Z</time></trkpt><trkpt lat="42.8518169" lon="11.4850949"><ele>999.0</ele><time>2026-04-26T11:02:12.18Z</time></trkpt><trkpt lat="42.851801" lon="11.4852184"><ele>995.0</ele><time>2026-04-26T11:02:13.184Z</time></trkpt><trkpt lat="42.851803" lon="11.4853443"><ele>995.0000000000001</ele><time>2026-04-26T11:02:14.191Z</time></trkpt><trkpt lat="42.8518151" lon="11.4854627"><ele>995.0</ele><time>2026-04-26T11:02:15.188Z</time></trkpt><trkpt lat="42.8518388" lon="11.4855703"><ele>995.0</ele><time>2026-04-26T11:02:16.176Z</time></trkpt><trkpt lat="42.8518722" lon="11.4856634"><ele>995.0</ele><time>2026-04-26T11:02:17.19Z</time></trkpt><trkpt lat="42.8519128" lon="11.4857527"><ele>995.0000000000001</ele><time>2026-04-26T11:02:18.185Z</time></trkpt><trkpt lat="42.851956" lon="11.4858431"><ele>995.0</ele><time>2026-04-26T11:02:19.182Z</time></trkpt><trkpt lat="42.8519994" lon="11.4859299"><ele>995.0000000000001</ele><time>2026-04-26T11:02:20.189Z</time></trkpt><trkpt lat="42.8520421" lon="11.4860127"><ele>995.0</ele><time>2026-04-26T11:02:21.177Z</time></trkpt><trkpt lat="42.8520855" lon="11.4860884"><ele>995.0</ele><time>2026-04-26T11:02:22.18Z</time></trkpt><trkpt lat="42.8521314" lon="11.4861558"><ele>995.0</ele><time>2026-04-26T11:02:23.19Z</time></trkpt><trkpt lat="42.8521801" lon="11.4862257"><ele>995.0000000000001</ele><time>2026-04-26T11:02:24.191Z</time></trkpt><trkpt lat="42.8522376" lon="11.4863044"><ele>995.0</ele><time>2026-04-26T11:02:25.199Z</time></trkpt><trkpt lat="42.8523005" lon="11.4863871"><ele>994.0</ele><time>2026-04-26T11:02:26.176Z</time></trkpt><trkpt lat="42.8523651" lon="11.4864688"><ele>993.0</ele><time>2026-04-26T11:02:27.175Z</time></trkpt><trkpt lat="42.8524394" lon="11.4865442"><ele>992.0</ele><time>2026-04-26T11:02:28.184Z</time></trkpt><trkpt lat="42.8525229" lon="11.4866069"><ele>991.0</ele><time>2026-04-26T11:02:29.189Z</time></trkpt><trkpt lat="42.852607" lon="11.4866686"><ele>990.0</ele><time>2026-04-26T11:02:30.176Z</time></trkpt><trkpt lat="42.8526925" lon="11.4867265"><ele>988.6</ele><time>2026-04-26T11:02:31.179Z</time></trkpt><trkpt lat="42.8527752" lon="11.4867926"><ele>987.2</ele><time>2026-04-26T11:02:32.178Z</time></trkpt><trkpt lat="42.8528611" lon="11.486864"><ele>985.8</ele><time>2026-04-26T11:02:33.18Z</time></trkpt><trkpt lat="42.852947" lon="11.4869314"><ele>984.4</ele><time>2026-04-26T11:02:34.183Z</time></trkpt><trkpt lat="42.853034" lon="11.4869924"><ele>983.0</ele><time>2026-04-26T11:02:35.181Z</time></trkpt><trkpt lat="42.853125" lon="11.4870443"><ele>983.0000000000001</ele><time>2026-04-26T11:02:36.188Z</time></trkpt><trkpt lat="42.8532142" lon="11.4870708"><ele>983.0</ele><time>2026-04-26T11:02:37.173Z</time></trkpt><trkpt lat="42.8532995" lon="11.4870778"><ele>983.0</ele><time>2026-04-26T11:02:38.181Z</time></trkpt><trkpt lat="42.8533769" lon="11.4870757"><ele>983.0</ele><time>2026-04-26T11:02:39.19Z</time></trkpt><trkpt lat="42.853448" lon="11.4870775"><ele>983.0000000000001</ele><time>2026-04-26T11:02:40.175Z</time></trkpt><trkpt lat="42.8535132" lon="11.4871025"><ele>983.0</ele><time>2026-04-26T11:02:41.197Z</time></trkpt><trkpt lat="42.8535683" lon="11.4871556"><ele>982.2</ele><time>2026-04-26T11:02:42.19Z</time></trkpt><trkpt lat="42.8536227" lon="11.4872376"><ele>981.4</ele><time>2026-04-26T11:02:43.189Z</time></trkpt><trkpt lat="42.8536802" lon="11.4873462"><ele>980.6000000000001</ele><time>2026-04-26T11:02:44.179Z</time></trkpt><trkpt lat="42.8537421" lon="11.487476"><ele>979.8000000000001</ele><time>2026-04-26T11:02:45.181Z</time></trkpt><trkpt lat="42.853809" lon="11.4876132"><ele>979.0</ele><time>2026-04-26T11:02:46.177Z</time></trkpt><trkpt lat="42.853882" lon="11.4877543"><ele>979.0</ele><time>2026-04-26T11:02:47.185Z</time></trkpt><trkpt lat="42.853958" lon="11.487899"><ele>979.0</ele><time>2026-04-26T11:02:48.181Z</time></trkpt><trkpt lat="42.8540334" lon="11.488042"><ele>979.0</ele><time>2026-04-26T11:02:49.179Z</time></trkpt><trkpt lat="42.8541101" lon="11.4881847"><ele>979.0</ele><time>2026-04-26T11:02:50.192Z</time></trkpt><trkpt lat="42.8541884" lon="11.488324"><ele>980.5</ele><time>2026-04-26T11:02:51.19Z</time></trkpt><trkpt lat="42.8542653" lon="11.4884615"><ele>982.0</ele><time>2026-04-26T11:02:52.194Z</time></trkpt><trkpt lat="42.8543407" lon="11.4885971"><ele>983.5</ele><time>2026-04-26T11:02:53.192Z</time></trkpt><trkpt lat="42.8544146" lon="11.488729"><ele>985.0</ele><time>2026-04-26T11:02:54.199Z</time></trkpt><trkpt lat="42.8544836" lon="11.4888627"><ele>981.0</ele><time>2026-04-26T11:02:55.191Z</time></trkpt><trkpt lat="42.8545527" lon="11.4889914"><ele>977.0</ele><time>2026-04-26T11:02:56.191Z</time></trkpt><trkpt lat="42.8546233" lon="11.489116"><ele>973.0</ele><time>2026-04-26T11:02:57.182Z</time></trkpt><trkpt lat="42.8546939" lon="11.4892447"><ele>969.0</ele><time>2026-04-26T11:02:58.178Z</time></trkpt><trkpt lat="42.8547624" lon="11.4893684"><ele>969.0</ele><time>2026-04-26T11:02:59.183Z</time></trkpt><trkpt lat="42.8548287" lon="11.489485"><ele>969.0000000000001</ele><time>2026-04-26T11:03:00.186Z</time></trkpt><trkpt lat="42.8548911" lon="11.4895959"><ele>969.0000000000001</ele><time>2026-04-26T11:03:01.198Z</time></trkpt><trkpt lat="42.8549495" lon="11.4896977"><ele>969.0</ele><time>2026-04-26T11:03:02.179Z</time></trkpt><trkpt lat="42.8550047" lon="11.4897927"><ele>969.0</ele><time>2026-04-26T11:03:03.192Z</time></trkpt><trkpt lat="42.8550554" lon="11.4898836"><ele>968.8333333333334</ele><time>2026-04-26T11:03:04.173Z</time></trkpt><trkpt lat="42.8550956" lon="11.4899733"><ele>968.6666666666667</ele><time>2026-04-26T11:03:05.19Z</time></trkpt><trkpt lat="42.8551199" lon="11.4900707"><ele>968.5</ele><time>2026-04-26T11:03:06.174Z</time></trkpt><trkpt lat="42.8551228" lon="11.4901735"><ele>968.3333333333334</ele><time>2026-04-26T11:03:07.188Z</time></trkpt><trkpt lat="42.8551031" lon="11.4902699"><ele>968.1666666666667</ele><time>2026-04-26T11:03:08.187Z</time></trkpt><trkpt lat="42.8550602" lon="11.4903553"><ele>968.0</ele><time>2026-04-26T11:03:09.186Z</time></trkpt><trkpt lat="42.854992" lon="11.4904285"><ele>966.25</ele><time>2026-04-26T11:03:10.184Z</time></trkpt><trkpt lat="42.8549026" lon="11.4904991"><ele>964.5</ele><time>2026-04-26T11:03:11.177Z</time></trkpt><trkpt lat="42.8548111" lon="11.4905848"><ele>962.75</ele><time>2026-04-26T11:03:12.175Z</time></trkpt><trkpt lat="42.8547253" lon="11.4906978"><ele>961.0</ele><time>2026-04-26T11:03:13.193Z</time></trkpt><trkpt lat="42.8546441" lon="11.4908337"><ele>961.0</ele><time>2026-04-26T11:03:14.188Z</time></trkpt><trkpt lat="42.8545619" lon="11.4909736"><ele>961.0</ele><time>2026-04-26T11:03:15.187Z</time></trkpt><trkpt lat="42.8544799" lon="11.4911114"><ele>961.0</ele><time>2026-04-26T11:03:16.184Z</time></trkpt><trkpt lat="42.8544033" lon="11.4912381"><ele>961.0</ele><time>2026-04-26T11:03:17.184Z</time></trkpt><trkpt lat="42.8543327" lon="11.4913555"><ele>960.5999999999999</ele><time>2026-04-26T11:03:18.178Z</time></trkpt><trkpt lat="42.8542672" lon="11.4914651"><ele>960.1999999999999</ele><time>2026-04-26T11:03:19.199Z</time></trkpt><trkpt lat="42.8542216" lon="11.4915763"><ele>959.8000000000001</ele><time>2026-04-26T11:03:20.179Z</time></trkpt><trkpt lat="42.8541954" lon="11.4916928"><ele>959.4000000000001</ele><time>2026-04-26T11:03:21.188Z</time></trkpt><trkpt lat="42.8541796" lon="11.4918202"><ele>959.0</ele><time>2026-04-26T11:03:22.174Z</time></trkpt><trkpt lat="42.8541644" lon="11.4919529"><ele>958.4000000000001</ele><time>2026-04-26T11:03:23.196Z</time></trkpt><trkpt lat="42.8541452" lon="11.4920909"><ele>957.8000000000001</ele><time>2026-04-26T11:03:24.182Z</time></trkpt><trkpt lat="42.8541269" lon="11.4922289"><ele>957.1999999999999</ele><time>2026-04-26T11:03:25.174Z</time></trkpt><trkpt lat="42.8541129" lon="11.4923673"><ele>956.5999999999999</ele><time>2026-04-26T11:03:26.182Z</time></trkpt><trkpt lat="42.8541021" lon="11.4925074"><ele>956.0</ele><time>2026-04-26T11:03:27.17Z</time></trkpt><trkpt lat="42.8540948" lon="11.4926508"><ele>956.0</ele><time>2026-04-26T11:03:28.194Z</time></trkpt><trkpt lat="42.8540903" lon="11.4927948"><ele>955.9999999999999</ele><time>2026-04-26T11:03:29.176Z</time></trkpt><trkpt lat="42.8540859" lon="11.4929365"><ele>955.9999999999999</ele><time>2026-04-26T11:03:30.194Z</time></trkpt><trkpt lat="42.8540818" lon="11.4930775"><ele>956.0</ele><time>2026-04-26T11:03:31.191Z</time></trkpt><trkpt lat="42.8540776" lon="11.4932108"><ele>956.0</ele><time>2026-04-26T11:03:32.193Z</time></trkpt><trkpt lat="42.8540722" lon="11.4933387"><ele>955.1428571428573</ele><time>2026-04-26T11:03:33.187Z</time></trkpt><trkpt lat="42.854061" lon="11.4934523"><ele>954.2857142857143</ele><time>2026-04-26T11:03:34.196Z</time></trkpt><trkpt lat="42.854038" lon="11.4935546"><ele>953.4285714285716</ele><time>2026-04-26T11:03:35.175Z</time></trkpt><trkpt lat="42.8539993" lon="11.4936307"><ele>952.5714285714287</ele><time>2026-04-26T11:03:36.188Z</time></trkpt><trkpt lat="42.8539426" lon="11.4936807"><ele>951.7142857142858</ele><time>2026-04-26T11:03:37.176Z</time></trkpt><trkpt lat="42.8538748" lon="11.4936954"><ele>950.8571428571429</ele><time>2026-04-26T11:03:38.172Z</time></trkpt><trkpt lat="42.8538022" lon="11.4936727"><ele>950.0</ele><time>2026-04-26T11:03:39.178Z</time></trkpt><trkpt lat="42.8537249" lon="11.4936104"><ele>950.0</ele><time>2026-04-26T11:03:40.178Z</time></trkpt><trkpt lat="42.8536401" lon="11.4935172"><ele>950.0</ele><time>2026-04-26T11:03:41.192Z</time></trkpt><trkpt lat="42.8535494" lon="11.493417"><ele>950.0</ele><time>2026-04-26T11:03:42.178Z</time></trkpt><trkpt lat="42.8534596" lon="11.4933269"><ele>950.0</ele><time>2026-04-26T11:03:43.181Z</time></trkpt><trkpt lat="42.8533787" lon="11.4932503"><ele>950.0</ele><time>2026-04-26T11:03:44.177Z</time></trkpt><trkpt lat="42.8533099" lon="11.4931778"><ele>948.8333333333334</ele><time>2026-04-26T11:03:45.185Z</time></trkpt><trkpt lat="42.8532609" lon="11.4930988"><ele>947.6666666666667</ele><time>2026-04-26T11:03:46.192Z</time></trkpt><trkpt lat="42.8532363" lon="11.4930031"><ele>946.5</ele><time>2026-04-26T11:03:47.197Z</time></trkpt><trkpt lat="42.853232" lon="11.4928916"><ele>945.3333333333333</ele><time>2026-04-26T11:03:48.181Z</time></trkpt><trkpt lat="42.8532379" lon="11.4927668"><ele>944.1666666666666</ele><time>2026-04-26T11:03:49.196Z</time></trkpt><trkpt lat="42.853245" lon="11.4926322"><ele>943.0</ele><time>2026-04-26T11:03:50.179Z</time></trkpt><trkpt lat="42.8532506" lon="11.4924948"><ele>942.9999999999999</ele><time>2026-04-26T11:03:51.179Z</time></trkpt><trkpt lat="42.8532529" lon="11.4923605"><ele>943.0</ele><time>2026-04-26T11:03:52.188Z</time></trkpt><trkpt lat="42.8532497" lon="11.4922303"><ele>943.0</ele><time>2026-04-26T11:03:53.182Z</time></trkpt><trkpt lat="42.8532377" lon="11.4921082"><ele>943.0</ele><time>2026-04-26T11:03:54.182Z</time></trkpt><trkpt lat="42.8532165" lon="11.4920024"><ele>942.9999999999999</ele><time>2026-04-26T11:03:55.175Z</time></trkpt><trkpt lat="42.853187" lon="11.4919116"><ele>943.0</ele><time>2026-04-26T11:03:56.181Z</time></trkpt><trkpt lat="42.8531461" lon="11.4918341"><ele>942.8</ele><time>2026-04-26T11:03:57.178Z</time></trkpt><trkpt lat="42.8530878" lon="11.4917695"><ele>942.5999999999999</ele><time>2026-04-26T11:03:58.184Z</time></trkpt><trkpt lat="42.8530121" lon="11.4917214"><ele>942.4000000000001</ele><time>2026-04-26T11:03:59.176Z</time></trkpt><trkpt lat="42.8529174" lon="11.4916853"><ele>942.2</ele><time>2026-04-26T11:04:00.188Z</time></trkpt><trkpt lat="42.8528164" lon="11.4916485"><ele>942.0</ele><time>2026-04-26T11:04:01.192Z</time></trkpt><trkpt lat="42.8527014" lon="11.4916206"><ele>940.8</ele><time>2026-04-26T11:04:02.177Z</time></trkpt><trkpt lat="42.8525867" lon="11.4915913"><ele>939.6</ele><time>2026-04-26T11:04:03.175Z</time></trkpt><trkpt lat="42.8524801" lon="11.4915716"><ele>938.3999999999999</ele><time>2026-04-26T11:04:04.193Z</time></trkpt><trkpt lat="42.8523789" lon="11.4915655"><ele>937.1999999999999</ele><time>2026-04-26T11:04:05.189Z</time></trkpt><trkpt lat="42.8522825" lon="11.4915804"><ele>936.0</ele><time>2026-04-26T11:04:06.186Z</time></trkpt><trkpt lat="42.8521926" lon="11.4916211"><ele>936.0</ele><time>2026-04-26T11:04:07.187Z</time></trkpt><trkpt lat="42.8521104" lon="11.4916727"><ele>936.0</ele><time>2026-04-26T11:04:08.192Z</time></trkpt><trkpt lat="42.8520324" lon="11.491708"><ele>936.0</ele><time>2026-04-26T11:04:09.189Z</time></trkpt><trkpt lat="42.8519559" lon="11.4917239"><ele>936.0</ele><time>2026-04-26T11:04:10.186Z</time></trkpt><trkpt lat="42.8518854" lon="11.4917395"><ele>936.0</ele><time>2026-04-26T11:04:11.176Z</time></trkpt><trkpt lat="42.851826" lon="11.4917799"><ele>936.0</ele><time>2026-04-26T11:04:12.192Z</time></trkpt><trkpt lat="42.8517781" lon="11.4918516"><ele>937.0</ele><time>2026-04-26T11:04:13.187Z</time></trkpt><trkpt lat="42.851745" lon="11.4919557"><ele>937.9999999999999</ele><time>2026-04-26T11:04:14.185Z</time></trkpt><trkpt lat="42.8517209" lon="11.4920832"><ele>938.9999999999999</ele><time>2026-04-26T11:04:15.174Z</time></trkpt><trkpt lat="42.8516961" lon="11.492222"><ele>940.0</ele><time>2026-04-26T11:04:16.189Z</time></trkpt><trkpt lat="42.8516663" lon="11.4923701"><ele>941.0</ele><time>2026-04-26T11:04:17.181Z</time></trkpt><trkpt lat="42.8516323" lon="11.4925395"><ele>941.25</ele><time>2026-04-26T11:04:18.187Z</time></trkpt><trkpt lat="42.8515982" lon="11.4927234"><ele>941.5</ele><time>2026-04-26T11:04:19.179Z</time></trkpt><trkpt lat="42.8515754" lon="11.4929093"><ele>941.75</ele><time>2026-04-26T11:04:20.183Z</time></trkpt><trkpt lat="42.8515611" lon="11.493092"><ele>942.0</ele><time>2026-04-26T11:04:21.186Z</time></trkpt><trkpt lat="42.8515516" lon="11.4932732"><ele>942.0</ele><time>2026-04-26T11:04:22.193Z</time></trkpt><trkpt lat="42.8515442" lon="11.4934528"><ele>942.0</ele><time>2026-04-26T11:04:23.18Z</time></trkpt><trkpt lat="42.8515384" lon="11.4936294"><ele>942.0</ele><time>2026-04-26T11:04:24.178Z</time></trkpt><trkpt lat="42.8515385" lon="11.493796"><ele>942.0</ele><time>2026-04-26T11:04:25.182Z</time></trkpt><trkpt lat="42.8515378" lon="11.4939541"><ele>941.2</ele><time>2026-04-26T11:04:26.184Z</time></trkpt><trkpt lat="42.8515376" lon="11.49409"><ele>940.4000000000001</ele><time>2026-04-26T11:04:27.196Z</time></trkpt><trkpt lat="42.8515156" lon="11.4942299"><ele>939.5999999999999</ele><time>2026-04-26T11:04:28.175Z</time></trkpt><trkpt lat="42.8514928" lon="11.4943658"><ele>938.8</ele><time>2026-04-26T11:04:29.198Z</time></trkpt><trkpt lat="42.8514395" lon="11.4944934"><ele>938.0</ele><time>2026-04-26T11:04:30.192Z</time></trkpt><trkpt lat="42.8513715" lon="11.4946058"><ele>936.4</ele><time>2026-04-26T11:04:31.188Z</time></trkpt><trkpt lat="42.8513111" lon="11.4947253"><ele>934.8</ele><time>2026-04-26T11:04:32.18Z</time></trkpt><trkpt lat="42.8512683" lon="11.494856"><ele>933.2</ele><time>2026-04-26T11:04:33.176Z</time></trkpt><trkpt lat="42.8512456" lon="11.4950055"><ele>931.6</ele><time>2026-04-26T11:04:34.183Z</time></trkpt><trkpt lat="42.8512382" lon="11.4951716"><ele>930.0</ele><time>2026-04-26T11:04:35.193Z</time></trkpt><trkpt lat="42.8512375" lon="11.4953464"><ele>929.25</ele><time>2026-04-26T11:04:36.194Z</time></trkpt><trkpt lat="42.8512395" lon="11.4955262"><ele>928.5</ele><time>2026-04-26T11:04:37.195Z</time></trkpt><trkpt lat="42.8512406" lon="11.495708"><ele>927.75</ele><time>2026-04-26T11:04:38.175Z</time></trkpt><trkpt lat="42.8512421" lon="11.4958894"><ele>927.0</ele><time>2026-04-26T11:04:39.195Z</time></trkpt><trkpt lat="42.8512423" lon="11.4960615"><ele>927.0</ele><time>2026-04-26T11:04:40.19Z</time></trkpt><trkpt lat="42.8512419" lon="11.4962242"><ele>927.0</ele><time>2026-04-26T11:04:41.194Z</time></trkpt><trkpt lat="42.8512446" lon="11.4963729"><ele>927.0</ele><time>2026-04-26T11:04:42.18Z</time></trkpt><trkpt lat="42.8512553" lon="11.4965056"><ele>927.0</ele><time>2026-04-26T11:04:43.178Z</time></trkpt><trkpt lat="42.8512693" lon="11.4966181"><ele>927.0</ele><time>2026-04-26T11:04:44.187Z</time></trkpt><trkpt lat="42.8512834" lon="11.4967109"><ele>926.1666666666666</ele><time>2026-04-26T11:04:45.178Z</time></trkpt><trkpt lat="42.8513121" lon="11.4968516"><ele>925.3333333333333</ele><time>2026-04-26T11:04:47.2Z</time></trkpt><trkpt lat="42.8513404" lon="11.4969614"><ele>924.5</ele><time>2026-04-26T11:04:49.178Z</time></trkpt><trkpt lat="42.8513114" lon="11.4970495"><ele>923.6666666666666</ele><time>2026-04-26T11:04:52.173Z</time></trkpt><trkpt lat="42.8512603" lon="11.4969943"><ele>922.8333333333333</ele><time>2026-04-26T11:05:45.184Z</time></trkpt><trkpt lat="42.8512619" lon="11.4969078"><ele>922.0</ele><time>2026-04-26T11:05:48.186Z</time></trkpt><trkpt lat="42.8512199" lon="11.4968362"><ele>921.9999999999999</ele><time>2026-04-26T11:05:53.197Z</time></trkpt><trkpt lat="42.8512168" lon="11.4967424"><ele>922.0</ele><time>2026-04-26T11:05:56.174Z</time></trkpt><trkpt lat="42.8512921" lon="11.4966998"><ele>922.0</ele><time>2026-04-26T11:05:59.182Z</time></trkpt><trkpt lat="42.8513283" lon="11.4968293"><ele>922.0</ele><time>2026-04-26T11:06:01.191Z</time></trkpt><trkpt lat="42.8513376" lon="11.4969234"><ele>921.9999999999999</ele><time>2026-04-26T11:06:02.183Z</time></trkpt><trkpt lat="42.8513549" lon="11.4970305"><ele>922.0</ele><time>2026-04-26T11:06:03.193Z</time></trkpt><trkpt lat="42.8513746" lon="11.4971452"><ele>922.9999999999999</ele><time>2026-04-26T11:06:04.183Z</time></trkpt><trkpt lat="42.8513956" lon="11.4972601"><ele>924.0</ele><time>2026-04-26T11:06:05.185Z</time></trkpt><trkpt lat="42.8514177" lon="11.4973755"><ele>925.0</ele><time>2026-04-26T11:06:06.187Z</time></trkpt><trkpt lat="42.8514385" lon="11.4974948"><ele>926.0</ele><time>2026-04-26T11:06:07.183Z</time></trkpt><trkpt lat="42.85146" lon="11.4976151"><ele>926.9999999999999</ele><time>2026-04-26T11:06:08.196Z</time></trkpt><trkpt lat="42.8514864" lon="11.4977347"><ele>928.0</ele><time>2026-04-26T11:06:09.178Z</time></trkpt><trkpt lat="42.8515067" lon="11.4978565"><ele>929.8</ele><time>2026-04-26T11:06:10.192Z</time></trkpt><trkpt lat="42.8515248" lon="11.4979889"><ele>931.5999999999999</ele><time>2026-04-26T11:06:11.189Z</time></trkpt><trkpt lat="42.8515446" lon="11.4981222"><ele>933.4000000000001</ele><time>2026-04-26T11:06:12.187Z</time></trkpt><trkpt lat="42.8515662" lon="11.4982558"><ele>935.2</ele><time>2026-04-26T11:06:13.192Z</time></trkpt><trkpt lat="42.8515864" lon="11.498386"><ele>937.0</ele><time>2026-04-26T11:06:14.181Z</time></trkpt><trkpt lat="42.851605" lon="11.4985151"><ele>937.0</ele><time>2026-04-26T11:06:15.193Z</time></trkpt><trkpt lat="42.8516227" lon="11.4986477"><ele>937.0</ele><time>2026-04-26T11:06:16.187Z</time></trkpt><trkpt lat="42.8516498" lon="11.4987833"><ele>937.0</ele><time>2026-04-26T11:06:17.183Z</time></trkpt><trkpt lat="42.8516921" lon="11.4989185"><ele>937.0</ele><time>2026-04-26T11:06:18.173Z</time></trkpt><trkpt lat="42.8517362" lon="11.499055"><ele>937.0</ele><time>2026-04-26T11:06:19.196Z</time></trkpt><trkpt lat="42.8518001" lon="11.4991752"><ele>937.6</ele><time>2026-04-26T11:06:20.186Z</time></trkpt><trkpt lat="42.8518613" lon="11.4992886"><ele>938.2</ele><time>2026-04-26T11:06:21.181Z</time></trkpt><trkpt lat="42.8519195" lon="11.4993933"><ele>938.8</ele><time>2026-04-26T11:06:22.197Z</time></trkpt><trkpt lat="42.8519763" lon="11.4994874"><ele>939.4</ele><time>2026-04-26T11:06:23.183Z</time></trkpt><trkpt lat="42.8520392" lon="11.4995728"><ele>940.0</ele><time>2026-04-26T11:06:24.188Z</time></trkpt><trkpt lat="42.852113" lon="11.4996451"><ele>938.6</ele><time>2026-04-26T11:06:25.198Z</time></trkpt><trkpt lat="42.8521939" lon="11.4997045"><ele>937.2</ele><time>2026-04-26T11:06:26.174Z</time></trkpt><trkpt lat="42.8522788" lon="11.4997643"><ele>935.8</ele><time>2026-04-26T11:06:27.19Z</time></trkpt><trkpt lat="42.8523672" lon="11.499802"><ele>934.4</ele><time>2026-04-26T11:06:28.193Z</time></trkpt><trkpt lat="42.8524552" lon="11.4998262"><ele>933.0</ele><time>2026-04-26T11:06:29.18Z</time></trkpt><trkpt lat="42.8525456" lon="11.4998298"><ele>932.1666666666666</ele><time>2026-04-26T11:06:30.201Z</time></trkpt><trkpt lat="42.8526384" lon="11.4998292"><ele>931.3333333333333</ele><time>2026-04-26T11:06:31.184Z</time></trkpt><trkpt lat="42.8527327" lon="11.499832"><ele>930.5</ele><time>2026-04-26T11:06:32.191Z</time></trkpt><trkpt lat="42.8528174" lon="11.4998539"><ele>929.6666666666666</ele><time>2026-04-26T11:06:33.189Z</time></trkpt><trkpt lat="42.8529046" lon="11.4998805"><ele>928.8333333333333</ele><time>2026-04-26T11:06:34.179Z</time></trkpt><trkpt lat="42.8529736" lon="11.4999408"><ele>928.0</ele><time>2026-04-26T11:06:35.177Z</time></trkpt><trkpt lat="42.8530276" lon="11.5000318"><ele>928.0</ele><time>2026-04-26T11:06:36.178Z</time></trkpt><trkpt lat="42.8530737" lon="11.5001383"><ele>928.0</ele><time>2026-04-26T11:06:37.188Z</time></trkpt><trkpt lat="42.8531159" lon="11.5002577"><ele>928.0</ele><time>2026-04-26T11:06:38.193Z</time></trkpt><trkpt lat="42.8531624" lon="11.5003752"><ele>928.0</ele><time>2026-04-26T11:06:39.193Z</time></trkpt><trkpt lat="42.8532036" lon="11.5005054"><ele>928.0</ele><time>2026-04-26T11:06:40.181Z</time></trkpt><trkpt lat="42.8532393" lon="11.5006336"><ele>928.2</ele><time>2026-04-26T11:06:41.194Z</time></trkpt><trkpt lat="42.8532729" lon="11.5007606"><ele>928.4</ele><time>2026-04-26T11:06:42.19Z</time></trkpt><trkpt lat="42.8533073" lon="11.5008844"><ele>928.6000000000001</ele><time>2026-04-26T11:06:43.188Z</time></trkpt><trkpt lat="42.8533456" lon="11.5010035"><ele>928.8000000000001</ele><time>2026-04-26T11:06:44.183Z</time></trkpt><trkpt lat="42.8533916" lon="11.5011159"><ele>929.0</ele><time>2026-04-26T11:06:45.185Z</time></trkpt><trkpt lat="42.8534382" lon="11.5012257"><ele>928.6</ele><time>2026-04-26T11:06:46.187Z</time></trkpt><trkpt lat="42.8534871" lon="11.5013326"><ele>928.2</ele><time>2026-04-26T11:06:47.19Z</time></trkpt><trkpt lat="42.8535409" lon="11.5014327"><ele>927.8000000000001</ele><time>2026-04-26T11:06:48.182Z</time></trkpt><trkpt lat="42.8535961" lon="11.5015359"><ele>927.4000000000001</ele><time>2026-04-26T11:06:49.196Z</time></trkpt><trkpt lat="42.8536513" lon="11.5016321"><ele>927.0</ele><time>2026-04-26T11:06:50.177Z</time></trkpt><trkpt lat="42.8537071" lon="11.5017291"><ele>927.0</ele><time>2026-04-26T11:06:51.185Z</time></trkpt><trkpt lat="42.853763" lon="11.5018287"><ele>927.0</ele><time>2026-04-26T11:06:52.175Z</time></trkpt><trkpt lat="42.8538192" lon="11.5019207"><ele>927.0</ele><time>2026-04-26T11:06:53.181Z</time></trkpt><trkpt lat="42.8538764" lon="11.502007"><ele>927.0</ele><time>2026-04-26T11:06:54.173Z</time></trkpt><trkpt lat="42.8539376" lon="11.5020792"><ele>927.0</ele><time>2026-04-26T11:06:55.178Z</time></trkpt><trkpt lat="42.8540029" lon="11.5021443"><ele>927.0</ele><time>2026-04-26T11:06:56.179Z</time></trkpt><trkpt lat="42.8540694" lon="11.5021851"><ele>926.6666666666666</ele><time>2026-04-26T11:06:57.188Z</time></trkpt><trkpt lat="42.8541445" lon="11.5022273"><ele>926.3333333333333</ele><time>2026-04-26T11:06:58.193Z</time></trkpt><trkpt lat="42.8542228" lon="11.5022569"><ele>926.0</ele><time>2026-04-26T11:06:59.191Z</time></trkpt><trkpt lat="42.8542978" lon="11.5022823"><ele>925.6666666666666</ele><time>2026-04-26T11:07:00.185Z</time></trkpt><trkpt lat="42.8543811" lon="11.5023142"><ele>925.3333333333333</ele><time>2026-04-26T11:07:01.189Z</time></trkpt><trkpt lat="42.8544624" lon="11.5023481"><ele>925.0</ele><time>2026-04-26T11:07:02.183Z</time></trkpt><trkpt lat="42.8545313" lon="11.5023747"><ele>924.9999999999999</ele><time>2026-04-26T11:07:03.188Z</time></trkpt><trkpt lat="42.854599" lon="11.5024032"><ele>925.0</ele><time>2026-04-26T11:07:04.192Z</time></trkpt><trkpt lat="42.8546584" lon="11.5024549"><ele>925.0</ele><time>2026-04-26T11:07:05.177Z</time></trkpt><trkpt lat="42.8547047" lon="11.50253"><ele>925.0</ele><time>2026-04-26T11:07:06.188Z</time></trkpt><trkpt lat="42.8547448" lon="11.5026284"><ele>924.9999999999999</ele><time>2026-04-26T11:07:07.191Z</time></trkpt><trkpt lat="42.8547824" lon="11.5027275"><ele>925.0</ele><time>2026-04-26T11:07:08.166Z</time></trkpt><trkpt lat="42.8548122" lon="11.5028246"><ele>925.8571428571429</ele><time>2026-04-26T11:07:09.195Z</time></trkpt><trkpt lat="42.8548403" lon="11.5029199"><ele>926.7142857142857</ele><time>2026-04-26T11:07:10.192Z</time></trkpt><trkpt lat="42.8548636" lon="11.5030053"><ele>927.5714285714286</ele><time>2026-04-26T11:07:11.185Z</time></trkpt><trkpt lat="42.8548876" lon="11.5030944"><ele>928.4285714285714</ele><time>2026-04-26T11:07:12.176Z</time></trkpt><trkpt lat="42.8549052" lon="11.5031917"><ele>929.2857142857142</ele><time>2026-04-26T11:07:13.172Z</time></trkpt><trkpt lat="42.8549219" lon="11.503297"><ele>930.1428571428571</ele><time>2026-04-26T11:07:14.185Z</time></trkpt><trkpt lat="42.8549446" lon="11.5033907"><ele>931.0</ele><time>2026-04-26T11:07:15.191Z</time></trkpt><trkpt lat="42.8549686" lon="11.5034814"><ele>931.0</ele><time>2026-04-26T11:07:16.18Z</time></trkpt><trkpt lat="42.8549923" lon="11.5035675"><ele>930.9999999999999</ele><time>2026-04-26T11:07:17.191Z</time></trkpt><trkpt lat="42.8550244" lon="11.5037295"><ele>930.9999999999999</ele><time>2026-04-26T11:07:19.192Z</time></trkpt><trkpt lat="42.855062" lon="11.5038805"><ele>931.0</ele><time>2026-04-26T11:07:21.185Z</time></trkpt><trkpt lat="42.8550838" lon="11.5039678"><ele>931.0</ele><time>2026-04-26T11:07:22.184Z</time></trkpt><trkpt lat="42.8551249" lon="11.5040582"><ele>930.2857142857142</ele><time>2026-04-26T11:07:23.184Z</time></trkpt><trkpt lat="42.8551675" lon="11.5041406"><ele>929.5714285714286</ele><time>2026-04-26T11:07:24.192Z</time></trkpt><trkpt lat="42.8552118" lon="11.504221"><ele>928.8571428571429</ele><time>2026-04-26T11:07:25.192Z</time></trkpt><trkpt lat="42.8552575" lon="11.5042973"><ele>928.1428571428571</ele><time>2026-04-26T11:07:26.185Z</time></trkpt><trkpt lat="42.8553054" lon="11.5043754"><ele>927.4285714285713</ele><time>2026-04-26T11:07:27.191Z</time></trkpt><trkpt lat="42.8553512" lon="11.5044474"><ele>926.7142857142857</ele><time>2026-04-26T11:07:28.178Z</time></trkpt><trkpt lat="42.8553987" lon="11.5045117"><ele>926.0</ele><time>2026-04-26T11:07:29.189Z</time></trkpt><trkpt lat="42.855443" lon="11.5045835"><ele>923.2857142857142</ele><time>2026-04-26T11:07:30.173Z</time></trkpt><trkpt lat="42.8554991" lon="11.5046468"><ele>920.5714285714284</ele><time>2026-04-26T11:07:31.179Z</time></trkpt><trkpt lat="42.8555496" lon="11.504707"><ele>917.8571428571429</ele><time>2026-04-26T11:07:32.176Z</time></trkpt><trkpt lat="42.8555998" lon="11.5047633"><ele>915.1428571428571</ele><time>2026-04-26T11:07:33.189Z</time></trkpt><trkpt lat="42.8556571" lon="11.5048167"><ele>912.4285714285714</ele><time>2026-04-26T11:07:34.19Z</time></trkpt><trkpt lat="42.8557184" lon="11.5048666"><ele>909.7142857142858</ele><time>2026-04-26T11:07:35.171Z</time></trkpt><trkpt lat="42.8557811" lon="11.5049094"><ele>907.0000000000001</ele><time>2026-04-26T11:07:36.18Z</time></trkpt><trkpt lat="42.8558472" lon="11.5049402"><ele>906.9999999999999</ele><time>2026-04-26T11:07:37.178Z</time></trkpt><trkpt lat="42.855914" lon="11.5049691"><ele>907.0</ele><time>2026-04-26T11:07:38.18Z</time></trkpt><trkpt lat="42.8559832" lon="11.5049875"><ele>907.0</ele><time>2026-04-26T11:07:39.194Z</time></trkpt><trkpt lat="42.8560662" lon="11.5049899"><ele>907.0</ele><time>2026-04-26T11:07:40.193Z</time></trkpt><trkpt lat="42.8561588" lon="11.5049697"><ele>906.9999999999999</ele><time>2026-04-26T11:07:41.18Z</time></trkpt><trkpt lat="42.856252" lon="11.5049303"><ele>907.0</ele><time>2026-04-26T11:07:42.173Z</time></trkpt><trkpt lat="42.8563435" lon="11.5048942"><ele>906.2</ele><time>2026-04-26T11:07:43.192Z</time></trkpt><trkpt lat="42.8564417" lon="11.5048703"><ele>905.4000000000001</ele><time>2026-04-26T11:07:44.178Z</time></trkpt><trkpt lat="42.8565372" lon="11.5048734"><ele>904.5999999999999</ele><time>2026-04-26T11:07:45.19Z</time></trkpt><trkpt lat="42.8566283" lon="11.5048836"><ele>903.8</ele><time>2026-04-26T11:07:46.19Z</time></trkpt><trkpt lat="42.8567133" lon="11.5049068"><ele>903.0</ele><time>2026-04-26T11:07:47.189Z</time></trkpt><trkpt lat="42.856802" lon="11.5049516"><ele>903.0</ele><time>2026-04-26T11:07:48.179Z</time></trkpt><trkpt lat="42.8568912" lon="11.505002"><ele>903.0</ele><time>2026-04-26T11:07:49.183Z</time></trkpt><trkpt lat="42.8569805" lon="11.5050449"><ele>903.0</ele><time>2026-04-26T11:07:50.19Z</time></trkpt><trkpt lat="42.8570625" lon="11.5050791"><ele>903.0</ele><time>2026-04-26T11:07:51.184Z</time></trkpt><trkpt lat="42.8571479" lon="11.5051171"><ele>903.0</ele><time>2026-04-26T11:07:52.182Z</time></trkpt><trkpt lat="42.8572365" lon="11.5051507"><ele>903.0</ele><time>2026-04-26T11:07:53.188Z</time></trkpt><trkpt lat="42.8573268" lon="11.5051802"><ele>903.0</ele><time>2026-04-26T11:07:54.19Z</time></trkpt><trkpt lat="42.8574091" lon="11.5052099"><ele>903.0</ele><time>2026-04-26T11:07:55.185Z</time></trkpt><trkpt lat="42.8574914" lon="11.5052358"><ele>903.0</ele><time>2026-04-26T11:07:56.19Z</time></trkpt><trkpt lat="42.8575731" lon="11.5052621"><ele>903.0</ele><time>2026-04-26T11:07:57.194Z</time></trkpt><trkpt lat="42.8576512" lon="11.5052819"><ele>903.0</ele><time>2026-04-26T11:07:58.169Z</time></trkpt><trkpt lat="42.8577274" lon="11.5053041"><ele>903.5</ele><time>2026-04-26T11:07:59.19Z</time></trkpt><trkpt lat="42.857804" lon="11.505329"><ele>904.0</ele><time>2026-04-26T11:08:00.175Z</time></trkpt><trkpt lat="42.8578811" lon="11.5053536"><ele>904.5</ele><time>2026-04-26T11:08:01.191Z</time></trkpt><trkpt lat="42.8579595" lon="11.505381"><ele>905.0</ele><time>2026-04-26T11:08:02.177Z</time></trkpt><trkpt lat="42.8580419" lon="11.5054075"><ele>905.5</ele><time>2026-04-26T11:08:03.194Z</time></trkpt><trkpt lat="42.8581229" lon="11.5054297"><ele>906.0</ele><time>2026-04-26T11:08:04.193Z</time></trkpt><trkpt lat="42.8582051" lon="11.5054498"><ele>898.8</ele><time>2026-04-26T11:08:05.179Z</time></trkpt><trkpt lat="42.8582965" lon="11.5054675"><ele>891.5999999999999</ele><time>2026-04-26T11:08:06.189Z</time></trkpt><trkpt lat="42.8583882" lon="11.5054834"><ele>884.4</ele><time>2026-04-26T11:08:07.188Z</time></trkpt><trkpt lat="42.8584962" lon="11.5055025"><ele>877.2</ele><time>2026-04-26T11:08:08.184Z</time></trkpt><trkpt lat="42.8585979" lon="11.5055199"><ele>870.0</ele><time>2026-04-26T11:08:09.188Z</time></trkpt><trkpt lat="42.8586979" lon="11.5055323"><ele>869.8</ele><time>2026-04-26T11:08:10.186Z</time></trkpt><trkpt lat="42.8587931" lon="11.5055462"><ele>869.6</ele><time>2026-04-26T11:08:11.173Z</time></trkpt><trkpt lat="42.8588864" lon="11.5055584"><ele>869.4000000000001</ele><time>2026-04-26T11:08:12.181Z</time></trkpt><trkpt lat="42.858986" lon="11.5055789"><ele>869.2</ele><time>2026-04-26T11:08:13.191Z</time></trkpt><trkpt lat="42.8590902" lon="11.5056096"><ele>869.0</ele><time>2026-04-26T11:08:14.19Z</time></trkpt><trkpt lat="42.8592008" lon="11.5056478"><ele>868.75</ele><time>2026-04-26T11:08:15.201Z</time></trkpt><trkpt lat="42.8593152" lon="11.505681"><ele>868.5</ele><time>2026-04-26T11:08:16.192Z</time></trkpt><trkpt lat="42.859426" lon="11.5057211"><ele>868.25</ele><time>2026-04-26T11:08:17.187Z</time></trkpt><trkpt lat="42.8595312" lon="11.5057646"><ele>868.0</ele><time>2026-04-26T11:08:18.175Z</time></trkpt><trkpt lat="42.8596372" lon="11.5058072"><ele>868.0</ele><time>2026-04-26T11:08:19.189Z</time></trkpt><trkpt lat="42.8597341" lon="11.5058486"><ele>868.0</ele><time>2026-04-26T11:08:20.192Z</time></trkpt><trkpt lat="42.8598237" lon="11.505891"><ele>868.0</ele><time>2026-04-26T11:08:21.173Z</time></trkpt><trkpt lat="42.8599133" lon="11.505929"><ele>868.0</ele><time>2026-04-26T11:08:22.182Z</time></trkpt><trkpt lat="42.8600029" lon="11.5059443"><ele>868.0</ele><time>2026-04-26T11:08:23.178Z</time></trkpt><trkpt lat="42.8600931" lon="11.5059409"><ele>865.4</ele><time>2026-04-26T11:08:24.183Z</time></trkpt><trkpt lat="42.8601835" lon="11.5059199"><ele>862.8</ele><time>2026-04-26T11:08:25.188Z</time></trkpt><trkpt lat="42.8602713" lon="11.5058843"><ele>860.2</ele><time>2026-04-26T11:08:26.17Z</time></trkpt><trkpt lat="42.8603578" lon="11.5058403"><ele>857.6</ele><time>2026-04-26T11:08:27.188Z</time></trkpt><trkpt lat="42.8604433" lon="11.5057859"><ele>855.0</ele><time>2026-04-26T11:08:28.175Z</time></trkpt><trkpt lat="42.8605246" lon="11.5057397"><ele>855.0</ele><time>2026-04-26T11:08:29.184Z</time></trkpt><trkpt lat="42.8606076" lon="11.5056912"><ele>855.0</ele><time>2026-04-26T11:08:30.173Z</time></trkpt><trkpt lat="42.860683" lon="11.5056339"><ele>855.0</ele><time>2026-04-26T11:08:31.173Z</time></trkpt><trkpt lat="42.8607514" lon="11.5055868"><ele>855.0</ele><time>2026-04-26T11:08:32.194Z</time></trkpt><trkpt lat="42.8608112" lon="11.5055388"><ele>855.0</ele><time>2026-04-26T11:08:33.185Z</time></trkpt><trkpt lat="42.8609249" lon="11.5054605"><ele>854.0</ele><time>2026-04-26T11:08:35.172Z</time></trkpt><trkpt lat="42.8609918" lon="11.5054555"><ele>853.0</ele><time>2026-04-26T11:08:36.171Z</time></trkpt><trkpt lat="42.8610664" lon="11.5054703"><ele>852.0</ele><time>2026-04-26T11:08:37.188Z</time></trkpt><trkpt lat="42.8611409" lon="11.5055093"><ele>851.0</ele><time>2026-04-26T11:08:38.19Z</time></trkpt><trkpt lat="42.8612161" lon="11.5055489"><ele>850.0</ele><time>2026-04-26T11:08:39.175Z</time></trkpt><trkpt lat="42.8612859" lon="11.5056071"><ele>849.0</ele><time>2026-04-26T11:08:40.195Z</time></trkpt><trkpt lat="42.86135" lon="11.5056874"><ele>849.0</ele><time>2026-04-26T11:08:41.173Z</time></trkpt><trkpt lat="42.8614135" lon="11.5057859"><ele>849.0</ele><time>2026-04-26T11:08:42.19Z</time></trkpt><trkpt lat="42.8614529" lon="11.5059097"><ele>849.0</ele><time>2026-04-26T11:08:43.184Z</time></trkpt><trkpt lat="42.861497" lon="11.5060227"><ele>849.0</ele><time>2026-04-26T11:08:44.181Z</time></trkpt><trkpt lat="42.8615385" lon="11.506122"><ele>849.0</ele><time>2026-04-26T11:08:45.187Z</time></trkpt><trkpt lat="42.8615881" lon="11.5062244"><ele>847.4285714285714</ele><time>2026-04-26T11:08:46.191Z</time></trkpt><trkpt lat="42.8616474" lon="11.5063004"><ele>845.8571428571429</ele><time>2026-04-26T11:08:47.184Z</time></trkpt><trkpt lat="42.8617139" lon="11.5063564"><ele>844.2857142857142</ele><time>2026-04-26T11:08:48.184Z</time></trkpt><trkpt lat="42.8617796" lon="11.5064145"><ele>842.7142857142858</ele><time>2026-04-26T11:08:49.183Z</time></trkpt><trkpt lat="42.861845" lon="11.5064396"><ele>841.1428571428571</ele><time>2026-04-26T11:08:50.186Z</time></trkpt><trkpt lat="42.8619127" lon="11.5064259"><ele>839.5714285714286</ele><time>2026-04-26T11:08:51.182Z</time></trkpt><trkpt lat="42.8619812" lon="11.5063832"><ele>838.0</ele><time>2026-04-26T11:08:52.185Z</time></trkpt><trkpt lat="42.8620499" lon="11.5063268"><ele>837.6666666666666</ele><time>2026-04-26T11:08:53.187Z</time></trkpt><trkpt lat="42.8621208" lon="11.5062517"><ele>837.3333333333333</ele><time>2026-04-26T11:08:54.185Z</time></trkpt><trkpt lat="42.8621939" lon="11.5061709"><ele>837.0</ele><time>2026-04-26T11:08:55.177Z</time></trkpt><trkpt lat="42.8622601" lon="11.5060873"><ele>836.6666666666667</ele><time>2026-04-26T11:08:56.186Z</time></trkpt><trkpt lat="42.862319" lon="11.5059971"><ele>836.3333333333334</ele><time>2026-04-26T11:08:57.172Z</time></trkpt><trkpt lat="42.862378" lon="11.5059122"><ele>836.0</ele><time>2026-04-26T11:08:58.188Z</time></trkpt><trkpt lat="42.8624337" lon="11.5058336"><ele>836.0000000000001</ele><time>2026-04-26T11:08:59.179Z</time></trkpt><trkpt lat="42.8624899" lon="11.5057601"><ele>836.0</ele><time>2026-04-26T11:09:00.182Z</time></trkpt><trkpt lat="42.8625508" lon="11.5056928"><ele>836.0</ele><time>2026-04-26T11:09:01.187Z</time></trkpt><trkpt lat="42.8626207" lon="11.505651"><ele>836.0</ele><time>2026-04-26T11:09:02.177Z</time></trkpt><trkpt lat="42.8627038" lon="11.5056257"><ele>836.0000000000001</ele><time>2026-04-26T11:09:03.174Z</time></trkpt><trkpt lat="42.8627988" lon="11.5056072"><ele>836.0</ele><time>2026-04-26T11:09:04.183Z</time></trkpt><trkpt lat="42.8628954" lon="11.5055949"><ele>834.5000000000001</ele><time>2026-04-26T11:09:05.175Z</time></trkpt><trkpt lat="42.8629888" lon="11.5055925"><ele>833.0</ele><time>2026-04-26T11:09:06.179Z</time></trkpt><trkpt lat="42.8630792" lon="11.5055912"><ele>831.5</ele><time>2026-04-26T11:09:07.184Z</time></trkpt><trkpt lat="42.8631653" lon="11.5056084"><ele>830.0</ele><time>2026-04-26T11:09:08.186Z</time></trkpt><trkpt lat="42.863239" lon="11.5056668"><ele>828.5000000000001</ele><time>2026-04-26T11:09:09.191Z</time></trkpt><trkpt lat="42.8633187" lon="11.5057291"><ele>827.0</ele><time>2026-04-26T11:09:10.183Z</time></trkpt><trkpt lat="42.8633947" lon="11.5057916"><ele>827.4000000000001</ele><time>2026-04-26T11:09:11.187Z</time></trkpt><trkpt lat="42.8634708" lon="11.5058485"><ele>827.8000000000001</ele><time>2026-04-26T11:09:12.188Z</time></trkpt><trkpt lat="42.86355" lon="11.5059038"><ele>828.2</ele><time>2026-04-26T11:09:13.175Z</time></trkpt><trkpt lat="42.8636325" lon="11.5059538"><ele>828.6</ele><time>2026-04-26T11:09:14.177Z</time></trkpt><trkpt lat="42.8637173" lon="11.5060038"><ele>829.0</ele><time>2026-04-26T11:09:15.179Z</time></trkpt><trkpt lat="42.8638052" lon="11.5060418"><ele>828.9999999999999</ele><time>2026-04-26T11:09:16.186Z</time></trkpt><trkpt lat="42.8638934" lon="11.5060772"><ele>829.0</ele><time>2026-04-26T11:09:17.197Z</time></trkpt><trkpt lat="42.8639754" lon="11.5061073"><ele>829.0</ele><time>2026-04-26T11:09:18.183Z</time></trkpt><trkpt lat="42.8640483" lon="11.5061364"><ele>829.0</ele><time>2026-04-26T11:09:19.198Z</time></trkpt><trkpt lat="42.8641142" lon="11.5061692"><ele>828.9999999999999</ele><time>2026-04-26T11:09:20.174Z</time></trkpt><trkpt lat="42.8642102" lon="11.5062353"><ele>829.0</ele><time>2026-04-26T11:09:22.195Z</time></trkpt><trkpt lat="42.8642174" lon="11.5063278"><ele>825.2</ele><time>2026-04-26T11:09:24.193Z</time></trkpt><trkpt lat="42.8641344" lon="11.5064766"><ele>821.4000000000001</ele><time>2026-04-26T11:09:26.192Z</time></trkpt><trkpt lat="42.8640715" lon="11.5065751"><ele>817.6</ele><time>2026-04-26T11:09:27.183Z</time></trkpt><trkpt lat="42.8640102" lon="11.5066821"><ele>813.8</ele><time>2026-04-26T11:09:28.182Z</time></trkpt><trkpt lat="42.8639527" lon="11.5067979"><ele>810.0</ele><time>2026-04-26T11:09:29.189Z</time></trkpt><trkpt lat="42.8639046" lon="11.5069021"><ele>810.0</ele><time>2026-04-26T11:09:30.178Z</time></trkpt><trkpt lat="42.8638729" lon="11.5069926"><ele>810.0</ele><time>2026-04-26T11:09:31.188Z</time></trkpt><trkpt lat="42.8638352" lon="11.507121"><ele>810.0</ele><time>2026-04-26T11:09:33.188Z</time></trkpt><trkpt lat="42.8638367" lon="11.5072156"><ele>810.0</ele><time>2026-04-26T11:09:38.202Z</time></trkpt><trkpt lat="42.8638885" lon="11.507345"><ele>810.0</ele><time>2026-04-26T11:10:03.179Z</time></trkpt><trkpt lat="42.8639707" lon="11.5074744"><ele>808.6</ele><time>2026-04-26T11:10:05.2Z</time></trkpt><trkpt lat="42.8640374" lon="11.5075467"><ele>807.2</ele><time>2026-04-26T11:10:06.188Z</time></trkpt><trkpt lat="42.8641215" lon="11.5076195"><ele>805.8</ele><time>2026-04-26T11:10:07.173Z</time></trkpt><trkpt lat="42.8642178" lon="11.5076956"><ele>804.4</ele><time>2026-04-26T11:10:08.193Z</time></trkpt><trkpt lat="42.8643286" lon="11.5077935"><ele>803.0</ele><time>2026-04-26T11:10:09.187Z</time></trkpt><trkpt lat="42.8644398" lon="11.5078881"><ele>800.0</ele><time>2026-04-26T11:10:10.187Z</time></trkpt><trkpt lat="42.8645508" lon="11.5079847"><ele>797.0</ele><time>2026-04-26T11:10:11.199Z</time></trkpt><trkpt lat="42.8646542" lon="11.5080749"><ele>794.0</ele><time>2026-04-26T11:10:12.182Z</time></trkpt><trkpt lat="42.8647479" lon="11.5081573"><ele>791.0</ele><time>2026-04-26T11:10:13.194Z</time></trkpt><trkpt lat="42.8648375" lon="11.5082351"><ele>791.0</ele><time>2026-04-26T11:10:14.193Z</time></trkpt><trkpt lat="42.8649236" lon="11.5083092"><ele>791.0</ele><time>2026-04-26T11:10:15.184Z</time></trkpt><trkpt lat="42.8650075" lon="11.508383"><ele>791.0</ele><time>2026-04-26T11:10:16.196Z</time></trkpt><trkpt lat="42.8650869" lon="11.5084518"><ele>791.0</ele><time>2026-04-26T11:10:17.195Z</time></trkpt><trkpt lat="42.8651606" lon="11.5085213"><ele>791.0</ele><time>2026-04-26T11:10:18.193Z</time></trkpt><trkpt lat="42.8652364" lon="11.50859"><ele>791.1999999999999</ele><time>2026-04-26T11:10:19.193Z</time></trkpt><trkpt lat="42.8653163" lon="11.5086283"><ele>791.4</ele><time>2026-04-26T11:10:20.175Z</time></trkpt><trkpt lat="42.865397" lon="11.5086631"><ele>791.6</ele><time>2026-04-26T11:10:21.188Z</time></trkpt><trkpt lat="42.8654883" lon="11.508654"><ele>791.8</ele><time>2026-04-26T11:10:22.187Z</time></trkpt><trkpt lat="42.8655839" lon="11.5086457"><ele>792.0</ele><time>2026-04-26T11:10:23.194Z</time></trkpt><trkpt lat="42.8656842" lon="11.5086318"><ele>792.0</ele><time>2026-04-26T11:10:24.184Z</time></trkpt><trkpt lat="42.8657851" lon="11.5086195"><ele>792.0</ele><time>2026-04-26T11:10:25.193Z</time></trkpt><trkpt lat="42.8658827" lon="11.508634"><ele>792.0</ele><time>2026-04-26T11:10:26.177Z</time></trkpt><trkpt lat="42.8659713" lon="11.5086986"><ele>792.0</ele><time>2026-04-26T11:10:27.188Z</time></trkpt><trkpt lat="42.8660451" lon="11.5087746"><ele>792.0</ele><time>2026-04-26T11:10:28.192Z</time></trkpt><trkpt lat="42.8661213" lon="11.5088394"><ele>789.4000000000001</ele><time>2026-04-26T11:10:29.187Z</time></trkpt><trkpt lat="42.8661958" lon="11.5089017"><ele>786.8000000000001</ele><time>2026-04-26T11:10:30.188Z</time></trkpt><trkpt lat="42.8662798" lon="11.5089119"><ele>784.2</ele><time>2026-04-26T11:10:31.187Z</time></trkpt><trkpt lat="42.866368" lon="11.5089196"><ele>781.6</ele><time>2026-04-26T11:10:32.192Z</time></trkpt><trkpt lat="42.8664675" lon="11.5089008"><ele>779.0</ele><time>2026-04-26T11:10:33.198Z</time></trkpt><trkpt lat="42.8665743" lon="11.5088665"><ele>779.0</ele><time>2026-04-26T11:10:34.176Z</time></trkpt><trkpt lat="42.866681" lon="11.508833"><ele>779.0</ele><time>2026-04-26T11:10:35.194Z</time></trkpt><trkpt lat="42.8667825" lon="11.5087915"><ele>779.0</ele><time>2026-04-26T11:10:36.176Z</time></trkpt><trkpt lat="42.8668775" lon="11.5087564"><ele>779.0</ele><time>2026-04-26T11:10:37.179Z</time></trkpt><trkpt lat="42.8669745" lon="11.508753"><ele>779.0</ele><time>2026-04-26T11:10:38.18Z</time></trkpt><trkpt lat="42.8670715" lon="11.5087851"><ele>778.2</ele><time>2026-04-26T11:10:39.184Z</time></trkpt><trkpt lat="42.8671746" lon="11.5088237"><ele>777.4000000000001</ele><time>2026-04-26T11:10:40.17Z</time></trkpt><trkpt lat="42.8672756" lon="11.5088494"><ele>776.6</ele><time>2026-04-26T11:10:41.184Z</time></trkpt><trkpt lat="42.8673637" lon="11.5088801"><ele>775.8</ele><time>2026-04-26T11:10:42.179Z</time></trkpt><trkpt lat="42.8674495" lon="11.5088775"><ele>775.0</ele><time>2026-04-26T11:10:43.174Z</time></trkpt><trkpt lat="42.8675369" lon="11.5088767"><ele>775.4</ele><time>2026-04-26T11:10:44.174Z</time></trkpt><trkpt lat="42.8676195" lon="11.508853"><ele>775.8</ele><time>2026-04-26T11:10:45.189Z</time></trkpt><trkpt lat="42.8677056" lon="11.5088023"><ele>776.2</ele><time>2026-04-26T11:10:46.196Z</time></trkpt><trkpt lat="42.8677851" lon="11.5087362"><ele>776.6</ele><time>2026-04-26T11:10:47.179Z</time></trkpt><trkpt lat="42.8678651" lon="11.5086582"><ele>777.0</ele><time>2026-04-26T11:10:48.184Z</time></trkpt><trkpt lat="42.8679374" lon="11.5085657"><ele>777.0</ele><time>2026-04-26T11:10:49.179Z</time></trkpt><trkpt lat="42.868007" lon="11.5084825"><ele>777.0</ele><time>2026-04-26T11:10:50.178Z</time></trkpt><trkpt lat="42.8680889" lon="11.5084299"><ele>777.0</ele><time>2026-04-26T11:10:51.182Z</time></trkpt><trkpt lat="42.8681749" lon="11.5083804"><ele>777.0</ele><time>2026-04-26T11:10:52.174Z</time></trkpt><trkpt lat="42.8682778" lon="11.5083595"><ele>777.0</ele><time>2026-04-26T11:10:53.193Z</time></trkpt><trkpt lat="42.8683804" lon="11.5083409"><ele>775.2</ele><time>2026-04-26T11:10:54.194Z</time></trkpt><trkpt lat="42.8684775" lon="11.5083207"><ele>773.4000000000001</ele><time>2026-04-26T11:10:55.196Z</time></trkpt><trkpt lat="42.8685718" lon="11.5083008"><ele>771.5999999999999</ele><time>2026-04-26T11:10:56.179Z</time></trkpt><trkpt lat="42.8686608" lon="11.5082702"><ele>769.8</ele><time>2026-04-26T11:10:57.176Z</time></trkpt><trkpt lat="42.8687463" lon="11.5082357"><ele>768.0</ele><time>2026-04-26T11:10:58.194Z</time></trkpt><trkpt lat="42.8688339" lon="11.5081971"><ele>768.0</ele><time>2026-04-26T11:10:59.179Z</time></trkpt><trkpt lat="42.8689185" lon="11.5081581"><ele>768.0</ele><time>2026-04-26T11:11:00.186Z</time></trkpt><trkpt lat="42.8690035" lon="11.5081183"><ele>768.0</ele><time>2026-04-26T11:11:01.177Z</time></trkpt><trkpt lat="42.8690818" lon="11.5080758"><ele>768.0</ele><time>2026-04-26T11:11:02.177Z</time></trkpt><trkpt lat="42.8691496" lon="11.5080287"><ele>768.0</ele><time>2026-04-26T11:11:03.178Z</time></trkpt><trkpt lat="42.8691959" lon="11.5079417"><ele>768.0</ele><time>2026-04-26T11:11:04.185Z</time></trkpt><trkpt lat="42.8692263" lon="11.5078525"><ele>767.8571428571428</ele><time>2026-04-26T11:11:05.17Z</time></trkpt><trkpt lat="42.8692415" lon="11.5077641"><ele>767.7142857142857</ele><time>2026-04-26T11:11:06.193Z</time></trkpt><trkpt lat="42.8692398" lon="11.5076768"><ele>767.5714285714286</ele><time>2026-04-26T11:11:07.191Z</time></trkpt><trkpt lat="42.86922" lon="11.507595"><ele>767.4285714285713</ele><time>2026-04-26T11:11:08.185Z</time></trkpt><trkpt lat="42.869194" lon="11.5075078"><ele>767.2857142857143</ele><time>2026-04-26T11:11:09.185Z</time></trkpt><trkpt lat="42.8691296" lon="11.5074361"><ele>767.1428571428571</ele><time>2026-04-26T11:11:10.184Z</time></trkpt><trkpt lat="42.8690541" lon="11.5073746"><ele>767.0</ele><time>2026-04-26T11:11:11.189Z</time></trkpt><trkpt lat="42.8689769" lon="11.5073123"><ele>767.0</ele><time>2026-04-26T11:11:12.178Z</time></trkpt><trkpt lat="42.8688976" lon="11.5072496"><ele>767.0</ele><time>2026-04-26T11:11:13.184Z</time></trkpt><trkpt lat="42.868824" lon="11.5071585"><ele>767.0</ele><time>2026-04-26T11:11:14.191Z</time></trkpt><trkpt lat="42.8687554" lon="11.5070526"><ele>767.0</ele><time>2026-04-26T11:11:15.197Z</time></trkpt><trkpt lat="42.868686" lon="11.5069411"><ele>767.0</ele><time>2026-04-26T11:11:16.185Z</time></trkpt><trkpt lat="42.8686202" lon="11.5068296"><ele>765.6</ele><time>2026-04-26T11:11:17.185Z</time></trkpt><trkpt lat="42.8685598" lon="11.5067147"><ele>764.2</ele><time>2026-04-26T11:11:18.197Z</time></trkpt><trkpt lat="42.8684994" lon="11.5065978"><ele>762.8</ele><time>2026-04-26T11:11:19.188Z</time></trkpt><trkpt lat="42.8684607" lon="11.5064645"><ele>761.4</ele><time>2026-04-26T11:11:20.18Z</time></trkpt><trkpt lat="42.8684352" lon="11.5063485"><ele>760.0</ele><time>2026-04-26T11:11:21.182Z</time></trkpt><trkpt lat="42.8684177" lon="11.5062556"><ele>758.8</ele><time>2026-04-26T11:11:22.191Z</time></trkpt><trkpt lat="42.868406" lon="11.5061334"><ele>757.6</ele><time>2026-04-26T11:11:24.169Z</time></trkpt><trkpt lat="42.8683848" lon="11.5060374"><ele>756.4000000000001</ele><time>2026-04-26T11:12:01.188Z</time></trkpt><trkpt lat="42.8683475" lon="11.5059183"><ele>755.2</ele><time>2026-04-26T11:12:03.19Z</time></trkpt><trkpt lat="42.8682835" lon="11.5057726"><ele>754.0</ele><time>2026-04-26T11:12:05.19Z</time></trkpt><trkpt lat="42.8682368" lon="11.5056937"><ele>754.0</ele><time>2026-04-26T11:12:06.176Z</time></trkpt><trkpt lat="42.8681857" lon="11.5056163"><ele>754.0</ele><time>2026-04-26T11:12:07.194Z</time></trkpt><trkpt lat="42.8681278" lon="11.5055396"><ele>754.0</ele><time>2026-04-26T11:12:08.179Z</time></trkpt><trkpt lat="42.8680615" lon="11.5054641"><ele>754.0</ele><time>2026-04-26T11:12:09.179Z</time></trkpt><trkpt lat="42.8679884" lon="11.5053916"><ele>754.0</ele><time>2026-04-26T11:12:10.189Z</time></trkpt><trkpt lat="42.8679104" lon="11.5053202"><ele>754.0</ele><time>2026-04-26T11:12:11.188Z</time></trkpt><trkpt lat="42.8678298" lon="11.5052491"><ele>754.0</ele><time>2026-04-26T11:12:12.191Z</time></trkpt><trkpt lat="42.867748" lon="11.5051723"><ele>754.0</ele><time>2026-04-26T11:12:13.191Z</time></trkpt><trkpt lat="42.8676711" lon="11.505088"><ele>754.0</ele><time>2026-04-26T11:12:14.192Z</time></trkpt><trkpt lat="42.8675976" lon="11.5049941"><ele>754.0</ele><time>2026-04-26T11:12:15.188Z</time></trkpt><trkpt lat="42.8675287" lon="11.5048897"><ele>754.0</ele><time>2026-04-26T11:12:16.184Z</time></trkpt><trkpt lat="42.8674646" lon="11.5047809"><ele>753.8000000000001</ele><time>2026-04-26T11:12:17.188Z</time></trkpt><trkpt lat="42.867405" lon="11.5046713"><ele>753.6</ele><time>2026-04-26T11:12:18.197Z</time></trkpt><trkpt lat="42.867344" lon="11.5045583"><ele>753.4</ele><time>2026-04-26T11:12:19.182Z</time></trkpt><trkpt lat="42.867275" lon="11.5044366"><ele>753.2</ele><time>2026-04-26T11:12:20.191Z</time></trkpt><trkpt lat="42.8672025" lon="11.5043102"><ele>753.0</ele><time>2026-04-26T11:12:21.182Z</time></trkpt><trkpt lat="42.8671249" lon="11.5041845"><ele>753.0</ele><time>2026-04-26T11:12:22.195Z</time></trkpt><trkpt lat="42.8670386" lon="11.5040627"><ele>753.0</ele><time>2026-04-26T11:12:23.186Z</time></trkpt><trkpt lat="42.8669469" lon="11.5039507"><ele>753.0</ele><time>2026-04-26T11:12:24.177Z</time></trkpt><trkpt lat="42.8668509" lon="11.5038525"><ele>753.0</ele><time>2026-04-26T11:12:25.184Z</time></trkpt><trkpt lat="42.8667496" lon="11.5037746"><ele>754.25</ele><time>2026-04-26T11:12:26.194Z</time></trkpt><trkpt lat="42.8666416" lon="11.503714"><ele>755.5</ele><time>2026-04-26T11:12:27.184Z</time></trkpt><trkpt lat="42.8665316" lon="11.5036695"><ele>756.75</ele><time>2026-04-26T11:12:28.179Z</time></trkpt><trkpt lat="42.8664224" lon="11.5036326"><ele>758.0</ele><time>2026-04-26T11:12:29.193Z</time></trkpt><trkpt lat="42.8663156" lon="11.5035956"><ele>758.0</ele><time>2026-04-26T11:12:30.169Z</time></trkpt><trkpt lat="42.866217" lon="11.503546"><ele>758.0</ele><time>2026-04-26T11:12:31.196Z</time></trkpt><trkpt lat="42.8661321" lon="11.5034879"><ele>758.0</ele><time>2026-04-26T11:12:32.192Z</time></trkpt><trkpt lat="42.8660663" lon="11.5034235"><ele>758.0</ele><time>2026-04-26T11:12:33.183Z</time></trkpt><trkpt lat="42.8660151" lon="11.5033455"><ele>758.0</ele><time>2026-04-26T11:12:34.188Z</time></trkpt><trkpt lat="42.8659785" lon="11.5032452"><ele>758.0</ele><time>2026-04-26T11:12:35.18Z</time></trkpt><trkpt lat="42.8659599" lon="11.5031232"><ele>758.0</ele><time>2026-04-26T11:12:36.181Z</time></trkpt><trkpt lat="42.8659655" lon="11.502985"><ele>758.0</ele><time>2026-04-26T11:12:37.181Z</time></trkpt><trkpt lat="42.8659729" lon="11.5028404"><ele>758.0</ele><time>2026-04-26T11:12:38.192Z</time></trkpt><trkpt lat="42.8660276" lon="11.5026947"><ele>758.0</ele><time>2026-04-26T11:12:39.183Z</time></trkpt><trkpt lat="42.8660923" lon="11.5025431"><ele>758.0</ele><time>2026-04-26T11:12:40.191Z</time></trkpt><trkpt lat="42.8661629" lon="11.5023881"><ele>758.0</ele><time>2026-04-26T11:12:41.179Z</time></trkpt><trkpt lat="42.866239" lon="11.5022336"><ele>758.0</ele><time>2026-04-26T11:12:42.179Z</time></trkpt><trkpt lat="42.866321" lon="11.5020804"><ele>758.0</ele><time>2026-04-26T11:12:43.202Z</time></trkpt><trkpt lat="42.8664046" lon="11.5019325"><ele>758.0</ele><time>2026-04-26T11:12:44.196Z</time></trkpt><trkpt lat="42.8664826" lon="11.5017906"><ele>758.0</ele><time>2026-04-26T11:12:45.178Z</time></trkpt><trkpt lat="42.8665535" lon="11.5016571"><ele>758.0</ele><time>2026-04-26T11:12:46.189Z</time></trkpt><trkpt lat="42.8666142" lon="11.5015372"><ele>758.0</ele><time>2026-04-26T11:12:47.174Z</time></trkpt><trkpt lat="42.8666677" lon="11.5014252"><ele>758.0</ele><time>2026-04-26T11:12:48.191Z</time></trkpt><trkpt lat="42.8667199" lon="11.5013198"><ele>758.0</ele><time>2026-04-26T11:12:49.173Z</time></trkpt><trkpt lat="42.866773" lon="11.501229"><ele>758.0</ele><time>2026-04-26T11:12:50.184Z</time></trkpt><trkpt lat="42.8668298" lon="11.5011534"><ele>758.0</ele><time>2026-04-26T11:12:51.179Z</time></trkpt><trkpt lat="42.8668936" lon="11.5010906"><ele>758.0</ele><time>2026-04-26T11:12:52.193Z</time></trkpt><trkpt lat="42.8669577" lon="11.5010301"><ele>758.0</ele><time>2026-04-26T11:12:53.195Z</time></trkpt><trkpt lat="42.8670488" lon="11.5010277"><ele>756.4</ele><time>2026-04-26T11:12:54.178Z</time></trkpt><trkpt lat="42.8671474" lon="11.5010556"><ele>754.8</ele><time>2026-04-26T11:12:55.19Z</time></trkpt><trkpt lat="42.8672485" lon="11.5011032"><ele>753.2</ele><time>2026-04-26T11:12:56.181Z</time></trkpt><trkpt lat="42.8673508" lon="11.5011613"><ele>751.6</ele><time>2026-04-26T11:12:57.2Z</time></trkpt><trkpt lat="42.8674573" lon="11.5012233"><ele>750.0</ele><time>2026-04-26T11:12:58.19Z</time></trkpt><trkpt lat="42.8675684" lon="11.5012834"><ele>748.6</ele><time>2026-04-26T11:12:59.189Z</time></trkpt><trkpt lat="42.8676785" lon="11.5013428"><ele>747.2</ele><time>2026-04-26T11:13:00.184Z</time></trkpt><trkpt lat="42.8677843" lon="11.5014005"><ele>745.8</ele><time>2026-04-26T11:13:01.188Z</time></trkpt><trkpt lat="42.8678846" lon="11.5014554"><ele>744.4</ele><time>2026-04-26T11:13:02.193Z</time></trkpt><trkpt lat="42.8679804" lon="11.5015094"><ele>743.0</ele><time>2026-04-26T11:13:03.195Z</time></trkpt><trkpt lat="42.8680717" lon="11.5015632"><ele>743.0</ele><time>2026-04-26T11:13:04.2Z</time></trkpt><trkpt lat="42.8681629" lon="11.5016166"><ele>743.0</ele><time>2026-04-26T11:13:05.195Z</time></trkpt><trkpt lat="42.8682499" lon="11.501661"><ele>743.0</ele><time>2026-04-26T11:13:06.186Z</time></trkpt><trkpt lat="42.8683352" lon="11.501689"><ele>743.0</ele><time>2026-04-26T11:13:07.18Z</time></trkpt><trkpt lat="42.8684171" lon="11.5017137"><ele>743.0</ele><time>2026-04-26T11:13:08.183Z</time></trkpt><trkpt lat="42.8685009" lon="11.5016831"><ele>741.6666666666666</ele><time>2026-04-26T11:13:09.198Z</time></trkpt><trkpt lat="42.8685746" lon="11.5016232"><ele>740.3333333333333</ele><time>2026-04-26T11:13:10.197Z</time></trkpt><trkpt lat="42.8686285" lon="11.5015354"><ele>739.0</ele><time>2026-04-26T11:13:11.188Z</time></trkpt><trkpt lat="42.8686792" lon="11.5014433"><ele>737.6666666666666</ele><time>2026-04-26T11:13:12.178Z</time></trkpt><trkpt lat="42.8687008" lon="11.5013367"><ele>736.3333333333334</ele><time>2026-04-26T11:13:13.178Z</time></trkpt><trkpt lat="42.8687119" lon="11.5012345"><ele>735.0</ele><time>2026-04-26T11:13:14.179Z</time></trkpt><trkpt lat="42.8687225" lon="11.5011416"><ele>735.0</ele><time>2026-04-26T11:13:15.186Z</time></trkpt><trkpt lat="42.868734" lon="11.5010512"><ele>735.0</ele><time>2026-04-26T11:13:16.194Z</time></trkpt><trkpt lat="42.8687457" lon="11.5009603"><ele>735.0</ele><time>2026-04-26T11:13:17.18Z</time></trkpt><trkpt lat="42.8687674" lon="11.500806"><ele>735.0</ele><time>2026-04-26T11:13:19.179Z</time></trkpt><trkpt lat="42.8687894" lon="11.5006801"><ele>735.0</ele><time>2026-04-26T11:13:21.178Z</time></trkpt><trkpt lat="42.8688405" lon="11.5005568"><ele>735.0</ele><time>2026-04-26T11:13:23.186Z</time></trkpt><trkpt lat="42.8688994" lon="11.5004057"><ele>735.2857142857143</ele><time>2026-04-26T11:13:25.185Z</time></trkpt><trkpt lat="42.8689267" lon="11.5003225"><ele>735.5714285714286</ele><time>2026-04-26T11:13:26.184Z</time></trkpt><trkpt lat="42.8689587" lon="11.5002387"><ele>735.8571428571429</ele><time>2026-04-26T11:13:27.195Z</time></trkpt><trkpt lat="42.8689993" lon="11.5001566"><ele>736.1428571428571</ele><time>2026-04-26T11:13:28.177Z</time></trkpt><trkpt lat="42.8690456" lon="11.5000804"><ele>736.4285714285714</ele><time>2026-04-26T11:13:29.179Z</time></trkpt><trkpt lat="42.8690893" lon="11.500003"><ele>736.7142857142858</ele><time>2026-04-26T11:13:30.183Z</time></trkpt><trkpt lat="42.86913" lon="11.4999287"><ele>737.0</ele><time>2026-04-26T11:13:31.188Z</time></trkpt><trkpt lat="42.8691717" lon="11.4998471"><ele>737.0</ele><time>2026-04-26T11:13:32.193Z</time></trkpt><trkpt lat="42.8692111" lon="11.4997609"><ele>737.0</ele><time>2026-04-26T11:13:33.183Z</time></trkpt><trkpt lat="42.8692504" lon="11.4996712"><ele>737.0</ele><time>2026-04-26T11:13:34.178Z</time></trkpt><trkpt lat="42.8692904" lon="11.4995807"><ele>737.0</ele><time>2026-04-26T11:13:35.188Z</time></trkpt><trkpt lat="42.8693306" lon="11.4994911"><ele>737.0</ele><time>2026-04-26T11:13:36.184Z</time></trkpt><trkpt lat="42.8693733" lon="11.4994008"><ele>737.0</ele><time>2026-04-26T11:13:37.19Z</time></trkpt><trkpt lat="42.8694218" lon="11.4993133"><ele>735.5</ele><time>2026-04-26T11:13:38.19Z</time></trkpt><trkpt lat="42.8694854" lon="11.4992452"><ele>734.0</ele><time>2026-04-26T11:13:39.177Z</time></trkpt><trkpt lat="42.8695611" lon="11.4992117"><ele>732.5</ele><time>2026-04-26T11:13:40.193Z</time></trkpt><trkpt lat="42.8696387" lon="11.4991907"><ele>731.0</ele><time>2026-04-26T11:13:41.176Z</time></trkpt><trkpt lat="42.8697136" lon="11.4991641"><ele>729.5</ele><time>2026-04-26T11:13:42.186Z</time></trkpt><trkpt lat="42.8697861" lon="11.499123"><ele>728.0</ele><time>2026-04-26T11:13:43.18Z</time></trkpt><trkpt lat="42.8698574" lon="11.4990793"><ele>728.0</ele><time>2026-04-26T11:13:44.181Z</time></trkpt><trkpt lat="42.8699177" lon="11.4990137"><ele>728.0</ele><time>2026-04-26T11:13:45.195Z</time></trkpt><trkpt lat="42.8699767" lon="11.4989497"><ele>728.0</ele><time>2026-04-26T11:13:46.19Z</time></trkpt><trkpt lat="42.8700416" lon="11.4988921"><ele>728.0</ele><time>2026-04-26T11:13:47.189Z</time></trkpt><trkpt lat="42.8701129" lon="11.4988464"><ele>728.0</ele><time>2026-04-26T11:13:48.195Z</time></trkpt><trkpt lat="42.8701823" lon="11.4988047"><ele>728.0</ele><time>2026-04-26T11:13:49.189Z</time></trkpt><trkpt lat="42.8702593" lon="11.4987913"><ele>728.0</ele><time>2026-04-26T11:13:50.185Z</time></trkpt><trkpt lat="42.8703413" lon="11.4987931"><ele>728.0</ele><time>2026-04-26T11:13:51.177Z</time></trkpt><trkpt lat="42.8704266" lon="11.4987847"><ele>728.0</ele><time>2026-04-26T11:13:52.187Z</time></trkpt><trkpt lat="42.8705171" lon="11.4987704"><ele>728.0</ele><time>2026-04-26T11:13:53.191Z</time></trkpt><trkpt lat="42.8705884" lon="11.4986875"><ele>728.0</ele><time>2026-04-26T11:13:54.183Z</time></trkpt><trkpt lat="42.8706517" lon="11.4986006"><ele>728.0</ele><time>2026-04-26T11:13:55.185Z</time></trkpt><trkpt lat="42.8706832" lon="11.4984887"><ele>728.0</ele><time>2026-04-26T11:13:56.179Z</time></trkpt><trkpt lat="42.8707159" lon="11.4983818"><ele>728.0</ele><time>2026-04-26T11:13:57.186Z</time></trkpt><trkpt lat="42.8707688" lon="11.4983005"><ele>728.0</ele><time>2026-04-26T11:13:58.186Z</time></trkpt><trkpt lat="42.8708569" lon="11.4983026"><ele>728.0</ele><time>2026-04-26T11:13:59.175Z</time></trkpt><trkpt lat="42.8709477" lon="11.4983607"><ele>728.0</ele><time>2026-04-26T11:14:00.187Z</time></trkpt><trkpt lat="42.8710387" lon="11.4984238"><ele>727.5999999999999</ele><time>2026-04-26T11:14:01.197Z</time></trkpt><trkpt lat="42.87112" lon="11.4985291"><ele>727.1999999999999</ele><time>2026-04-26T11:14:02.181Z</time></trkpt><trkpt lat="42.8712009" lon="11.4986208"><ele>726.8</ele><time>2026-04-26T11:14:03.184Z</time></trkpt><trkpt lat="42.8712885" lon="11.4986549"><ele>726.4</ele><time>2026-04-26T11:14:04.194Z</time></trkpt><trkpt lat="42.871376" lon="11.4986859"><ele>726.0</ele><time>2026-04-26T11:14:05.186Z</time></trkpt><trkpt lat="42.8714558" lon="11.4986584"><ele>726.0</ele><time>2026-04-26T11:14:06.178Z</time></trkpt><trkpt lat="42.8715206" lon="11.4986096"><ele>726.0</ele><time>2026-04-26T11:14:07.19Z</time></trkpt><trkpt lat="42.8715783" lon="11.4985747"><ele>726.0</ele><time>2026-04-26T11:14:08.173Z</time></trkpt><trkpt lat="42.8716326" lon="11.4986182"><ele>726.0</ele><time>2026-04-26T11:14:09.177Z</time></trkpt><trkpt lat="42.8716562" lon="11.498778"><ele>726.0</ele><time>2026-04-26T11:14:11.19Z</time></trkpt><trkpt lat="42.8716129" lon="11.4988556"><ele>726.0</ele><time>2026-04-26T11:14:12.18Z</time></trkpt><trkpt lat="42.8715666" lon="11.4989246"><ele>722.8</ele><time>2026-04-26T11:14:13.179Z</time></trkpt><trkpt lat="42.8714775" lon="11.4989314"><ele>719.5999999999999</ele><time>2026-04-26T11:14:14.183Z</time></trkpt><trkpt lat="42.8713885" lon="11.498941"><ele>716.4</ele><time>2026-04-26T11:14:15.18Z</time></trkpt><trkpt lat="42.8712972" lon="11.4989698"><ele>713.2</ele><time>2026-04-26T11:14:16.184Z</time></trkpt><trkpt lat="42.8712121" lon="11.4990512"><ele>710.0</ele><time>2026-04-26T11:14:17.193Z</time></trkpt><trkpt lat="42.871133" lon="11.4991826"><ele>710.0</ele><time>2026-04-26T11:14:18.179Z</time></trkpt><trkpt lat="42.8710519" lon="11.4993156"><ele>710.0</ele><time>2026-04-26T11:14:19.179Z</time></trkpt><trkpt lat="42.8709761" lon="11.4994286"><ele>710.0</ele><time>2026-04-26T11:14:20.182Z</time></trkpt><trkpt lat="42.8708883" lon="11.4995096"><ele>710.0</ele><time>2026-04-26T11:14:21.17Z</time></trkpt><trkpt lat="42.8708059" lon="11.4995849"><ele>710.0</ele><time>2026-04-26T11:14:22.173Z</time></trkpt><trkpt lat="42.8707186" lon="11.4996184"><ele>708.1666666666666</ele><time>2026-04-26T11:14:23.181Z</time></trkpt><trkpt lat="42.8706283" lon="11.4996551"><ele>706.3333333333333</ele><time>2026-04-26T11:14:24.19Z</time></trkpt><trkpt lat="42.8705473" lon="11.4997005"><ele>704.5</ele><time>2026-04-26T11:14:25.192Z</time></trkpt><trkpt lat="42.8704836" lon="11.4997637"><ele>702.6666666666666</ele><time>2026-04-26T11:14:26.192Z</time></trkpt><trkpt lat="42.8704499" lon="11.4998511"><ele>700.8333333333334</ele><time>2026-04-26T11:14:27.189Z</time></trkpt><trkpt lat="42.8704039" lon="11.499914"><ele>699.0</ele><time>2026-04-26T11:14:28.186Z</time></trkpt><trkpt lat="42.8704589" lon="11.5000025"><ele>699.0</ele><time>2026-04-26T11:14:29.187Z</time></trkpt><trkpt lat="42.8705141" lon="11.5000812"><ele>699.0</ele><time>2026-04-26T11:14:30.177Z</time></trkpt><trkpt lat="42.8706133" lon="11.5000584"><ele>699.0</ele><time>2026-04-26T11:14:31.189Z</time></trkpt><trkpt lat="42.8707199" lon="11.5000267"><ele>699.0</ele><time>2026-04-26T11:14:32.177Z</time></trkpt><trkpt lat="42.8708262" lon="11.4999472"><ele>699.0</ele><time>2026-04-26T11:14:33.175Z</time></trkpt><trkpt lat="42.8709378" lon="11.4998682"><ele>697.25</ele><time>2026-04-26T11:14:34.191Z</time></trkpt><trkpt lat="42.8710655" lon="11.4998344"><ele>695.5</ele><time>2026-04-26T11:14:35.188Z</time></trkpt><trkpt lat="42.8711827" lon="11.4997979"><ele>693.75</ele><time>2026-04-26T11:14:36.177Z</time></trkpt><trkpt lat="42.8712867" lon="11.4997447"><ele>692.0</ele><time>2026-04-26T11:14:37.179Z</time></trkpt><trkpt lat="42.8713897" lon="11.499688"><ele>692.0</ele><time>2026-04-26T11:14:38.177Z</time></trkpt><trkpt lat="42.871477" lon="11.4996103"><ele>692.0</ele><time>2026-04-26T11:14:39.192Z</time></trkpt><trkpt lat="42.87156" lon="11.4995335"><ele>692.0</ele><time>2026-04-26T11:14:40.192Z</time></trkpt><trkpt lat="42.8716423" lon="11.4994586"><ele>692.0</ele><time>2026-04-26T11:14:41.19Z</time></trkpt><trkpt lat="42.8717188" lon="11.4994011"><ele>692.0</ele><time>2026-04-26T11:14:42.175Z</time></trkpt><trkpt lat="42.8717987" lon="11.4993762"><ele>690.4000000000001</ele><time>2026-04-26T11:14:43.173Z</time></trkpt><trkpt lat="42.8718812" lon="11.4993881"><ele>688.8000000000001</ele><time>2026-04-26T11:14:44.182Z</time></trkpt><trkpt lat="42.8719594" lon="11.4994148"><ele>687.2</ele><time>2026-04-26T11:14:45.173Z</time></trkpt><trkpt lat="42.8720108" lon="11.499477"><ele>685.6</ele><time>2026-04-26T11:14:46.191Z</time></trkpt><trkpt lat="42.8719827" lon="11.4996073"><ele>684.0</ele><time>2026-04-26T11:14:47.181Z</time></trkpt><trkpt lat="42.8718902" lon="11.4997203"><ele>684.0</ele><time>2026-04-26T11:14:48.19Z</time></trkpt><trkpt lat="42.8717822" lon="11.4998193"><ele>684.0</ele><time>2026-04-26T11:14:49.173Z</time></trkpt><trkpt lat="42.8716782" lon="11.4999116"><ele>684.0</ele><time>2026-04-26T11:14:50.19Z</time></trkpt><trkpt lat="42.8715774" lon="11.500008"><ele>684.0</ele><time>2026-04-26T11:14:51.182Z</time></trkpt><trkpt lat="42.8714718" lon="11.5001091"><ele>682.6</ele><time>2026-04-26T11:14:52.192Z</time></trkpt><trkpt lat="42.8713664" lon="11.5001733"><ele>681.2</ele><time>2026-04-26T11:14:53.189Z</time></trkpt><trkpt lat="42.8712621" lon="11.5002433"><ele>679.8000000000001</ele><time>2026-04-26T11:14:54.179Z</time></trkpt><trkpt lat="42.8711619" lon="11.5003109"><ele>678.4000000000001</ele><time>2026-04-26T11:14:55.184Z</time></trkpt><trkpt lat="42.871108" lon="11.500426"><ele>677.0</ele><time>2026-04-26T11:14:56.195Z</time></trkpt><trkpt lat="42.8710823" lon="11.5005492"><ele>677.0</ele><time>2026-04-26T11:14:57.186Z</time></trkpt><trkpt lat="42.8710726" lon="11.5006599"><ele>677.0</ele><time>2026-04-26T11:14:58.176Z</time></trkpt><trkpt lat="42.871068" lon="11.5007597"><ele>677.0</ele><time>2026-04-26T11:14:59.179Z</time></trkpt><trkpt lat="42.8710681" lon="11.5008495"><ele>677.0</ele><time>2026-04-26T11:15:00.191Z</time></trkpt><trkpt lat="42.8710822" lon="11.5009901"><ele>677.0</ele><time>2026-04-26T11:15:02.172Z</time></trkpt><trkpt lat="42.8711005" lon="11.5010727"><ele>677.0</ele><time>2026-04-26T11:15:04.191Z</time></trkpt><trkpt lat="42.8711274" lon="11.5011598"><ele>677.0</ele><time>2026-04-26T11:18:33.19Z</time></trkpt><trkpt lat="42.8711836" lon="11.5010996"><ele>677.0</ele><time>2026-04-26T11:18:37.185Z</time></trkpt><trkpt lat="42.8711258" lon="11.5010354"><ele>677.0</ele><time>2026-04-26T11:18:41.185Z</time></trkpt><trkpt lat="42.8710819" lon="11.5009171"><ele>677.0</ele><time>2026-04-26T11:18:44.189Z</time></trkpt><trkpt lat="42.8710604" lon="11.5008233"><ele>677.0</ele><time>2026-04-26T11:18:46.19Z</time></trkpt><trkpt lat="42.8710639" lon="11.5007172"><ele>677.0</ele><time>2026-04-26T11:18:48.194Z</time></trkpt><trkpt lat="42.8710657" lon="11.5006092"><ele>677.0</ele><time>2026-04-26T11:18:50.2Z</time></trkpt><trkpt lat="42.8710916" lon="11.500504"><ele>677.0</ele><time>2026-04-26T11:18:52.171Z</time></trkpt><trkpt lat="42.8711329" lon="11.5004094"><ele>677.0</ele><time>2026-04-26T11:18:54.188Z</time></trkpt><trkpt lat="42.8711946" lon="11.5003384"><ele>677.0</ele><time>2026-04-26T11:18:56.19Z</time></trkpt><trkpt lat="42.8712779" lon="11.500279"><ele>677.0</ele><time>2026-04-26T11:18:58.169Z</time></trkpt><trkpt lat="42.871379" lon="11.5002377"><ele>677.0</ele><time>2026-04-26T11:19:00.188Z</time></trkpt><trkpt lat="42.8714882" lon="11.5001845"><ele>678.4000000000001</ele><time>2026-04-26T11:19:02.184Z</time></trkpt><trkpt lat="42.8715931" lon="11.5001113"><ele>679.8000000000001</ele><time>2026-04-26T11:19:04.192Z</time></trkpt><trkpt lat="42.8716824" lon="11.5000459"><ele>681.2</ele><time>2026-04-26T11:19:06.181Z</time></trkpt><trkpt lat="42.8717705" lon="11.4999831"><ele>682.6</ele><time>2026-04-26T11:19:08.173Z</time></trkpt><trkpt lat="42.8718517" lon="11.4999232"><ele>684.0</ele><time>2026-04-26T11:19:10.195Z</time></trkpt><trkpt lat="42.871918" lon="11.4998348"><ele>684.0</ele><time>2026-04-26T11:19:12.178Z</time></trkpt><trkpt lat="42.8719502" lon="11.4997101"><ele>684.0</ele><time>2026-04-26T11:19:14.176Z</time></trkpt><trkpt lat="42.8719502" lon="11.4995786"><ele>684.0</ele><time>2026-04-26T11:19:16.194Z</time></trkpt><trkpt lat="42.871896" lon="11.4994752"><ele>684.0</ele><time>2026-04-26T11:19:18.183Z</time></trkpt><trkpt lat="42.8718125" lon="11.4994202"><ele>684.0</ele><time>2026-04-26T11:19:20.175Z</time></trkpt><trkpt lat="42.8717079" lon="11.4994139"><ele>685.6</ele><time>2026-04-26T11:19:22.172Z</time></trkpt><trkpt lat="42.8715881" lon="11.499491"><ele>687.2</ele><time>2026-04-26T11:19:24.184Z</time></trkpt><trkpt lat="42.8715293" lon="11.4995357"><ele>688.8000000000001</ele><time>2026-04-26T11:19:25.186Z</time></trkpt><trkpt lat="42.8714621" lon="11.499595"><ele>690.4000000000001</ele><time>2026-04-26T11:19:26.193Z</time></trkpt><trkpt lat="42.8713849" lon="11.499658"><ele>692.0</ele><time>2026-04-26T11:19:27.172Z</time></trkpt><trkpt lat="42.8713011" lon="11.4997256"><ele>692.0</ele><time>2026-04-26T11:19:28.194Z</time></trkpt><trkpt lat="42.8711989" lon="11.4997692"><ele>692.0</ele><time>2026-04-26T11:19:29.189Z</time></trkpt><trkpt lat="42.8711004" lon="11.4998116"><ele>692.0</ele><time>2026-04-26T11:19:30.187Z</time></trkpt><trkpt lat="42.8710005" lon="11.4998425"><ele>692.0</ele><time>2026-04-26T11:19:31.176Z</time></trkpt><trkpt lat="42.8709021" lon="11.4998882"><ele>692.0</ele><time>2026-04-26T11:19:32.188Z</time></trkpt><trkpt lat="42.8708029" lon="11.4999393"><ele>693.1666666666666</ele><time>2026-04-26T11:19:33.179Z</time></trkpt><trkpt lat="42.8707171" lon="11.4999992"><ele>694.3333333333333</ele><time>2026-04-26T11:19:34.184Z</time></trkpt><trkpt lat="42.8706437" lon="11.5000426"><ele>695.5</ele><time>2026-04-26T11:19:35.188Z</time></trkpt><trkpt lat="42.8705723" lon="11.5000547"><ele>696.6666666666666</ele><time>2026-04-26T11:19:36.193Z</time></trkpt><trkpt lat="42.8705042" lon="11.5000573"><ele>697.8333333333334</ele><time>2026-04-26T11:19:37.174Z</time></trkpt><trkpt lat="42.8704553" lon="11.4999774"><ele>699.0</ele><time>2026-04-26T11:19:38.183Z</time></trkpt><trkpt lat="42.8704494" lon="11.4998736"><ele>699.0</ele><time>2026-04-26T11:19:39.189Z</time></trkpt><trkpt lat="42.8704485" lon="11.4997703"><ele>699.0</ele><time>2026-04-26T11:19:40.191Z</time></trkpt><trkpt lat="42.870505" lon="11.4996879"><ele>699.0</ele><time>2026-04-26T11:19:41.194Z</time></trkpt><trkpt lat="42.8706171" lon="11.4996496"><ele>699.0</ele><time>2026-04-26T11:19:42.176Z</time></trkpt><trkpt lat="42.8707356" lon="11.4996113"><ele>699.0</ele><time>2026-04-26T11:19:43.19Z</time></trkpt><trkpt lat="42.8708579" lon="11.4995609"><ele>701.75</ele><time>2026-04-26T11:19:44.183Z</time></trkpt><trkpt lat="42.8709732" lon="11.4994891"><ele>704.5</ele><time>2026-04-26T11:19:45.185Z</time></trkpt><trkpt lat="42.8710659" lon="11.4993758"><ele>707.25</ele><time>2026-04-26T11:19:46.183Z</time></trkpt><trkpt lat="42.8711477" lon="11.4992314"><ele>710.0</ele><time>2026-04-26T11:19:47.174Z</time></trkpt><trkpt lat="42.8712297" lon="11.499096"><ele>710.0</ele><time>2026-04-26T11:19:48.171Z</time></trkpt><trkpt lat="42.87131" lon="11.498968"><ele>710.0</ele><time>2026-04-26T11:19:49.195Z</time></trkpt><trkpt lat="42.8714" lon="11.4988891"><ele>710.0</ele><time>2026-04-26T11:19:50.173Z</time></trkpt><trkpt lat="42.8715021" lon="11.4988688"><ele>710.0</ele><time>2026-04-26T11:19:51.202Z</time></trkpt><trkpt lat="42.8715941" lon="11.4988565"><ele>710.0</ele><time>2026-04-26T11:19:52.193Z</time></trkpt><trkpt lat="42.8716508" lon="11.4987853"><ele>712.6666666666666</ele><time>2026-04-26T11:19:53.183Z</time></trkpt><trkpt lat="42.8716689" lon="11.4986906"><ele>715.3333333333333</ele><time>2026-04-26T11:19:54.191Z</time></trkpt><trkpt lat="42.8716785" lon="11.4985996"><ele>718.0</ele><time>2026-04-26T11:19:55.173Z</time></trkpt><trkpt lat="42.8716095" lon="11.4985486"><ele>720.6666666666666</ele><time>2026-04-26T11:19:56.188Z</time></trkpt><trkpt lat="42.8715336" lon="11.4985084"><ele>723.3333333333334</ele><time>2026-04-26T11:19:57.177Z</time></trkpt><trkpt lat="42.8714303" lon="11.4985629"><ele>726.0</ele><time>2026-04-26T11:19:58.18Z</time></trkpt><trkpt lat="42.871331" lon="11.4986194"><ele>726.0</ele><time>2026-04-26T11:19:59.191Z</time></trkpt><trkpt lat="42.8712329" lon="11.4986409"><ele>726.0</ele><time>2026-04-26T11:20:00.173Z</time></trkpt><trkpt lat="42.8711388" lon="11.4986105"><ele>726.0</ele><time>2026-04-26T11:20:01.187Z</time></trkpt><trkpt lat="42.8710559" lon="11.4984997"><ele>726.0</ele><time>2026-04-26T11:20:02.174Z</time></trkpt><trkpt lat="42.8709745" lon="11.4984066"><ele>726.0</ele><time>2026-04-26T11:20:03.18Z</time></trkpt><trkpt lat="42.8708904" lon="11.4983515"><ele>726.4</ele><time>2026-04-26T11:20:04.187Z</time></trkpt><trkpt lat="42.8708046" lon="11.4983458"><ele>726.8</ele><time>2026-04-26T11:20:05.187Z</time></trkpt><trkpt lat="42.8707194" lon="11.498351"><ele>727.1999999999999</ele><time>2026-04-26T11:20:06.174Z</time></trkpt><trkpt lat="42.8706651" lon="11.4984477"><ele>727.5999999999999</ele><time>2026-04-26T11:20:07.176Z</time></trkpt><trkpt lat="42.8706252" lon="11.4985652"><ele>728.0</ele><time>2026-04-26T11:20:08.188Z</time></trkpt><trkpt lat="42.8705729" lon="11.4986723"><ele>728.0</ele><time>2026-04-26T11:20:09.186Z</time></trkpt><trkpt lat="42.8704958" lon="11.4987466"><ele>728.0</ele><time>2026-04-26T11:20:10.199Z</time></trkpt><trkpt lat="42.8704005" lon="11.4987801"><ele>728.0</ele><time>2026-04-26T11:20:11.181Z</time></trkpt><trkpt lat="42.8702975" lon="11.4987871"><ele>728.0</ele><time>2026-04-26T11:20:12.187Z</time></trkpt><trkpt lat="42.8701881" lon="11.498793"><ele>728.0</ele><time>2026-04-26T11:20:13.177Z</time></trkpt><trkpt lat="42.8700755" lon="11.4988368"><ele>728.0</ele><time>2026-04-26T11:20:14.186Z</time></trkpt><trkpt lat="42.8699657" lon="11.4989352"><ele>728.0</ele><time>2026-04-26T11:20:15.175Z</time></trkpt><trkpt lat="42.8698542" lon="11.4990319"><ele>728.0</ele><time>2026-04-26T11:20:16.178Z</time></trkpt><trkpt lat="42.8697465" lon="11.4991291"><ele>728.0</ele><time>2026-04-26T11:20:17.185Z</time></trkpt><trkpt lat="42.8696189" lon="11.4991741"><ele>728.0</ele><time>2026-04-26T11:20:18.178Z</time></trkpt><trkpt lat="42.8695112" lon="11.4992254"><ele>728.0</ele><time>2026-04-26T11:20:19.196Z</time></trkpt><trkpt lat="42.8694268" lon="11.4993166"><ele>728.0</ele><time>2026-04-26T11:20:20.187Z</time></trkpt><trkpt lat="42.869365" lon="11.4994372"><ele>728.0</ele><time>2026-04-26T11:20:21.18Z</time></trkpt><trkpt lat="42.8693062" lon="11.4995658"><ele>728.0</ele><time>2026-04-26T11:20:22.171Z</time></trkpt><trkpt lat="42.8692449" lon="11.4996952"><ele>729.8</ele><time>2026-04-26T11:20:23.189Z</time></trkpt><trkpt lat="42.8691855" lon="11.4998224"><ele>731.5999999999999</ele><time>2026-04-26T11:20:24.2Z</time></trkpt><trkpt lat="42.8691265" lon="11.499934"><ele>733.4000000000001</ele><time>2026-04-26T11:20:25.179Z</time></trkpt><trkpt lat="42.8690653" lon="11.5000294"><ele>735.2</ele><time>2026-04-26T11:20:26.198Z</time></trkpt><trkpt lat="42.8690109" lon="11.5001275"><ele>737.0</ele><time>2026-04-26T11:20:27.197Z</time></trkpt><trkpt lat="42.868963" lon="11.5002302"><ele>737.0</ele><time>2026-04-26T11:20:28.171Z</time></trkpt><trkpt lat="42.868921" lon="11.5003324"><ele>737.0</ele><time>2026-04-26T11:20:29.172Z</time></trkpt><trkpt lat="42.8688803" lon="11.5004326"><ele>737.0</ele><time>2026-04-26T11:20:30.194Z</time></trkpt><trkpt lat="42.8688407" lon="11.5005288"><ele>737.0</ele><time>2026-04-26T11:20:31.17Z</time></trkpt><trkpt lat="42.8688009" lon="11.5006283"><ele>737.0</ele><time>2026-04-26T11:20:32.195Z</time></trkpt><trkpt lat="42.8687655" lon="11.5007391"><ele>737.0</ele><time>2026-04-26T11:20:33.173Z</time></trkpt><trkpt lat="42.8687482" lon="11.5008747"><ele>736.6</ele><time>2026-04-26T11:20:34.188Z</time></trkpt><trkpt lat="42.8687304" lon="11.5010224"><ele>736.2</ele><time>2026-04-26T11:20:35.178Z</time></trkpt><trkpt lat="42.8687123" lon="11.501169"><ele>735.8</ele><time>2026-04-26T11:20:36.179Z</time></trkpt><trkpt lat="42.8686908" lon="11.5013052"><ele>735.4</ele><time>2026-04-26T11:20:37.197Z</time></trkpt><trkpt lat="42.8686683" lon="11.5014364"><ele>735.0</ele><time>2026-04-26T11:20:38.2Z</time></trkpt><trkpt lat="42.8686269" lon="11.5015477"><ele>734.0</ele><time>2026-04-26T11:20:39.178Z</time></trkpt><trkpt lat="42.8685602" lon="11.5016318"><ele>733.0</ele><time>2026-04-26T11:20:40.178Z</time></trkpt><trkpt lat="42.8684738" lon="11.5016811"><ele>732.0</ele><time>2026-04-26T11:20:41.179Z</time></trkpt><trkpt lat="42.8683871" lon="11.5017263"><ele>731.0</ele><time>2026-04-26T11:20:42.19Z</time></trkpt><trkpt lat="42.8682896" lon="11.5017035"><ele>730.0</ele><time>2026-04-26T11:20:43.188Z</time></trkpt><trkpt lat="42.8681962" lon="11.5016524"><ele>733.25</ele><time>2026-04-26T11:20:44.181Z</time></trkpt><trkpt lat="42.8680999" lon="11.5015955"><ele>736.5</ele><time>2026-04-26T11:20:45.198Z</time></trkpt><trkpt lat="42.8679963" lon="11.5015378"><ele>739.75</ele><time>2026-04-26T11:20:46.198Z</time></trkpt><trkpt lat="42.8678882" lon="11.5014794"><ele>743.0</ele><time>2026-04-26T11:20:47.189Z</time></trkpt><trkpt lat="42.867778" lon="11.5014175"><ele>743.0</ele><time>2026-04-26T11:20:48.183Z</time></trkpt><trkpt lat="42.8676649" lon="11.5013523"><ele>743.0</ele><time>2026-04-26T11:20:49.197Z</time></trkpt><trkpt lat="42.8675509" lon="11.5012862"><ele>743.0</ele><time>2026-04-26T11:20:50.18Z</time></trkpt><trkpt lat="42.8674345" lon="11.5012213"><ele>743.0</ele><time>2026-04-26T11:20:51.182Z</time></trkpt><trkpt lat="42.8673178" lon="11.5011569"><ele>744.75</ele><time>2026-04-26T11:20:52.182Z</time></trkpt><trkpt lat="42.8672023" lon="11.5010984"><ele>746.5</ele><time>2026-04-26T11:20:53.183Z</time></trkpt><trkpt lat="42.8670894" lon="11.5010559"><ele>748.25</ele><time>2026-04-26T11:20:54.185Z</time></trkpt><trkpt lat="42.8669837" lon="11.5010526"><ele>750.0</ele><time>2026-04-26T11:20:55.191Z</time></trkpt><trkpt lat="42.8668792" lon="11.5010534"><ele>750.0</ele><time>2026-04-26T11:20:56.184Z</time></trkpt><trkpt lat="42.8667859" lon="11.5011285"><ele>750.0</ele><time>2026-04-26T11:20:57.196Z</time></trkpt><trkpt lat="42.8667194" lon="11.5012543"><ele>750.0</ele><time>2026-04-26T11:20:58.177Z</time></trkpt><trkpt lat="42.8666597" lon="11.5013882"><ele>750.0</ele><time>2026-04-26T11:20:59.192Z</time></trkpt><trkpt lat="42.8665982" lon="11.5015283"><ele>750.75</ele><time>2026-04-26T11:21:00.176Z</time></trkpt><trkpt lat="42.8665308" lon="11.5016747"><ele>751.5</ele><time>2026-04-26T11:21:01.19Z</time></trkpt><trkpt lat="42.8664572" lon="11.5018209"><ele>752.25</ele><time>2026-04-26T11:21:02.19Z</time></trkpt><trkpt lat="42.8663799" lon="11.5019673"><ele>753.0</ele><time>2026-04-26T11:21:03.198Z</time></trkpt><trkpt lat="42.8663058" lon="11.5021156"><ele>753.0</ele><time>2026-04-26T11:21:04.192Z</time></trkpt><trkpt lat="42.8662345" lon="11.5022659"><ele>753.0</ele><time>2026-04-26T11:21:05.182Z</time></trkpt><trkpt lat="42.866165" lon="11.5024174"><ele>753.0</ele><time>2026-04-26T11:21:06.178Z</time></trkpt><trkpt lat="42.8660985" lon="11.5025665"><ele>753.0</ele><time>2026-04-26T11:21:07.199Z</time></trkpt><trkpt lat="42.8660364" lon="11.5027134"><ele>753.0</ele><time>2026-04-26T11:21:08.182Z</time></trkpt><trkpt lat="42.865987" lon="11.5028615"><ele>753.0</ele><time>2026-04-26T11:21:09.179Z</time></trkpt><trkpt lat="42.865963" lon="11.503017"><ele>753.0</ele><time>2026-04-26T11:21:10.187Z</time></trkpt><trkpt lat="42.8659667" lon="11.5031723"><ele>753.0</ele><time>2026-04-26T11:21:11.196Z</time></trkpt><trkpt lat="42.8659929" lon="11.5032956"><ele>753.0</ele><time>2026-04-26T11:21:12.188Z</time></trkpt><trkpt lat="42.8660388" lon="11.5033813"><ele>754.0</ele><time>2026-04-26T11:21:13.194Z</time></trkpt><trkpt lat="42.866103" lon="11.5034468"><ele>755.0</ele><time>2026-04-26T11:21:14.192Z</time></trkpt><trkpt lat="42.866182" lon="11.5035079"><ele>756.0</ele><time>2026-04-26T11:21:15.192Z</time></trkpt><trkpt lat="42.8662753" lon="11.5035618"><ele>757.0</ele><time>2026-04-26T11:21:16.181Z</time></trkpt><trkpt lat="42.8663786" lon="11.5036076"><ele>758.0</ele><time>2026-04-26T11:21:17.182Z</time></trkpt><trkpt lat="42.8664867" lon="11.5036503"><ele>758.0</ele><time>2026-04-26T11:21:18.195Z</time></trkpt><trkpt lat="42.8665938" lon="11.5036927"><ele>758.0</ele><time>2026-04-26T11:21:19.186Z</time></trkpt><trkpt lat="42.8666933" lon="11.5037407"><ele>758.0</ele><time>2026-04-26T11:21:20.185Z</time></trkpt><trkpt lat="42.8667837" lon="11.5037984"><ele>758.0</ele><time>2026-04-26T11:21:21.191Z</time></trkpt><trkpt lat="42.8668676" lon="11.5038627"><ele>758.0</ele><time>2026-04-26T11:21:22.2Z</time></trkpt><trkpt lat="42.8669445" lon="11.5039367"><ele>757.0</ele><time>2026-04-26T11:21:23.186Z</time></trkpt><trkpt lat="42.8670175" lon="11.5040238"><ele>756.0</ele><time>2026-04-26T11:21:24.195Z</time></trkpt><trkpt lat="42.8670873" lon="11.5041201"><ele>755.0</ele><time>2026-04-26T11:21:25.193Z</time></trkpt><trkpt lat="42.8671532" lon="11.5042153"><ele>754.0</ele><time>2026-04-26T11:21:26.192Z</time></trkpt><trkpt lat="42.8672159" lon="11.5043133"><ele>753.0</ele><time>2026-04-26T11:21:27.183Z</time></trkpt><trkpt lat="42.8672717" lon="11.5044175"><ele>753.0</ele><time>2026-04-26T11:21:28.177Z</time></trkpt><trkpt lat="42.8673298" lon="11.5045269"><ele>753.0</ele><time>2026-04-26T11:21:29.193Z</time></trkpt><trkpt lat="42.8673889" lon="11.5046379"><ele>753.0</ele><time>2026-04-26T11:21:30.189Z</time></trkpt><trkpt lat="42.8674511" lon="11.5047548"><ele>753.0</ele><time>2026-04-26T11:21:31.191Z</time></trkpt><trkpt lat="42.867515" lon="11.5048727"><ele>753.0</ele><time>2026-04-26T11:21:32.2Z</time></trkpt><trkpt lat="42.8675899" lon="11.504985"><ele>753.25</ele><time>2026-04-26T11:21:33.174Z</time></trkpt><trkpt lat="42.8676762" lon="11.5050869"><ele>753.5</ele><time>2026-04-26T11:21:34.19Z</time></trkpt><trkpt lat="42.8677738" lon="11.5051903"><ele>753.75</ele><time>2026-04-26T11:21:35.196Z</time></trkpt><trkpt lat="42.8678945" lon="11.5052982"><ele>754.0</ele><time>2026-04-26T11:21:36.18Z</time></trkpt><trkpt lat="42.8680159" lon="11.5054062"><ele>754.0</ele><time>2026-04-26T11:21:37.18Z</time></trkpt><trkpt lat="42.8681166" lon="11.5055272"><ele>754.0</ele><time>2026-04-26T11:21:38.19Z</time></trkpt><trkpt lat="42.8681973" lon="11.5056436"><ele>754.0</ele><time>2026-04-26T11:21:39.177Z</time></trkpt><trkpt lat="42.8682659" lon="11.5057579"><ele>754.0</ele><time>2026-04-26T11:21:40.194Z</time></trkpt><trkpt lat="42.8683214" lon="11.505879"><ele>754.0</ele><time>2026-04-26T11:21:41.179Z</time></trkpt><trkpt lat="42.8683655" lon="11.5060126"><ele>754.0</ele><time>2026-04-26T11:21:42.193Z</time></trkpt><trkpt lat="42.8683965" lon="11.5061563"><ele>754.0</ele><time>2026-04-26T11:21:43.192Z</time></trkpt><trkpt lat="42.868422" lon="11.5063046"><ele>754.0</ele><time>2026-04-26T11:21:44.19Z</time></trkpt><trkpt lat="42.8684509" lon="11.5064511"><ele>754.0</ele><time>2026-04-26T11:21:45.185Z</time></trkpt><trkpt lat="42.8684793" lon="11.5065928"><ele>753.25</ele><time>2026-04-26T11:21:46.18Z</time></trkpt><trkpt lat="42.8685335" lon="11.5067271"><ele>752.5</ele><time>2026-04-26T11:21:47.194Z</time></trkpt><trkpt lat="42.8685998" lon="11.50686"><ele>751.75</ele><time>2026-04-26T11:21:48.177Z</time></trkpt><trkpt lat="42.8686657" lon="11.5069891"><ele>751.0</ele><time>2026-04-26T11:21:49.172Z</time></trkpt><trkpt lat="42.8687391" lon="11.507112"><ele>754.1999999999999</ele><time>2026-04-26T11:21:50.179Z</time></trkpt><trkpt lat="42.8688188" lon="11.5072186"><ele>757.4</ele><time>2026-04-26T11:21:51.192Z</time></trkpt><trkpt lat="42.8689076" lon="11.5073096"><ele>760.6</ele><time>2026-04-26T11:21:52.19Z</time></trkpt><trkpt lat="42.869001" lon="11.5073794"><ele>763.8</ele><time>2026-04-26T11:21:53.187Z</time></trkpt><trkpt lat="42.8690881" lon="11.5074413"><ele>767.0</ele><time>2026-04-26T11:21:54.189Z</time></trkpt><trkpt lat="42.8691508" lon="11.507509"><ele>767.0</ele><time>2026-04-26T11:21:55.197Z</time></trkpt><trkpt lat="42.8691936" lon="11.5075894"><ele>767.0</ele><time>2026-04-26T11:21:56.182Z</time></trkpt><trkpt lat="42.8692166" lon="11.5076784"><ele>767.0</ele><time>2026-04-26T11:21:57.176Z</time></trkpt><trkpt lat="42.8692148" lon="11.5077757"><ele>767.0</ele><time>2026-04-26T11:21:58.187Z</time></trkpt><trkpt lat="42.8692109" lon="11.5078759"><ele>767.0</ele><time>2026-04-26T11:21:59.185Z</time></trkpt><trkpt lat="42.8691667" lon="11.5079765"><ele>767.0</ele><time>2026-04-26T11:22:00.18Z</time></trkpt><trkpt lat="42.8691011" lon="11.5080637"><ele>767.2</ele><time>2026-04-26T11:22:01.189Z</time></trkpt><trkpt lat="42.8690327" lon="11.5081476"><ele>767.4000000000001</ele><time>2026-04-26T11:22:02.185Z</time></trkpt><trkpt lat="42.8689453" lon="11.5082203"><ele>767.5999999999999</ele><time>2026-04-26T11:22:03.189Z</time></trkpt><trkpt lat="42.8688419" lon="11.5082752"><ele>767.8</ele><time>2026-04-26T11:22:04.186Z</time></trkpt><trkpt lat="42.8687202" lon="11.5083158"><ele>768.0</ele><time>2026-04-26T11:22:05.183Z</time></trkpt><trkpt lat="42.8685967" lon="11.5083505"><ele>768.0</ele><time>2026-04-26T11:22:06.18Z</time></trkpt><trkpt lat="42.8684704" lon="11.5083783"><ele>768.0</ele><time>2026-04-26T11:22:07.188Z</time></trkpt><trkpt lat="42.8683412" lon="11.508404"><ele>768.0</ele><time>2026-04-26T11:22:08.183Z</time></trkpt><trkpt lat="42.8682148" lon="11.5084293"><ele>768.0</ele><time>2026-04-26T11:22:09.189Z</time></trkpt><trkpt lat="42.8680997" lon="11.5084692"><ele>767.0</ele><time>2026-04-26T11:22:10.189Z</time></trkpt><trkpt lat="42.8679845" lon="11.5085101"><ele>766.0</ele><time>2026-04-26T11:22:11.192Z</time></trkpt><trkpt lat="42.8678862" lon="11.5085976"><ele>765.0</ele><time>2026-04-26T11:22:12.18Z</time></trkpt><trkpt lat="42.8677873" lon="11.5086933"><ele>764.0</ele><time>2026-04-26T11:22:13.192Z</time></trkpt><trkpt lat="42.8676866" lon="11.5087819"><ele>766.75</ele><time>2026-04-26T11:22:14.18Z</time></trkpt><trkpt lat="42.8675855" lon="11.5088544"><ele>769.5</ele><time>2026-04-26T11:22:15.19Z</time></trkpt><trkpt lat="42.8674803" lon="11.5089037"><ele>772.25</ele><time>2026-04-26T11:22:16.188Z</time></trkpt><trkpt lat="42.8673667" lon="11.508918"><ele>775.0</ele><time>2026-04-26T11:22:17.185Z</time></trkpt><trkpt lat="42.867247" lon="11.5089045"><ele>775.0</ele><time>2026-04-26T11:22:18.193Z</time></trkpt><trkpt lat="42.8671219" lon="11.5088672"><ele>775.0</ele><time>2026-04-26T11:22:19.174Z</time></trkpt><trkpt lat="42.8670043" lon="11.5088197"><ele>775.0</ele><time>2026-04-26T11:22:20.189Z</time></trkpt><trkpt lat="42.8668996" lon="11.5087862"><ele>775.0</ele><time>2026-04-26T11:22:21.185Z</time></trkpt><trkpt lat="42.8667994" lon="11.5087627"><ele>775.8</ele><time>2026-04-26T11:22:22.179Z</time></trkpt><trkpt lat="42.8666999" lon="11.508778"><ele>776.6</ele><time>2026-04-26T11:22:23.189Z</time></trkpt><trkpt lat="42.8665939" lon="11.5088193"><ele>777.4000000000001</ele><time>2026-04-26T11:22:24.183Z</time></trkpt><trkpt lat="42.8664968" lon="11.5088666"><ele>778.2</ele><time>2026-04-26T11:22:25.176Z</time></trkpt><trkpt lat="42.8664025" lon="11.5089015"><ele>779.0</ele><time>2026-04-26T11:22:26.177Z</time></trkpt><trkpt lat="42.8663139" lon="11.508926"><ele>779.0</ele><time>2026-04-26T11:22:27.175Z</time></trkpt><trkpt lat="42.8662296" lon="11.5089236"><ele>779.0</ele><time>2026-04-26T11:22:28.188Z</time></trkpt><trkpt lat="42.8661431" lon="11.5088692"><ele>779.0</ele><time>2026-04-26T11:22:29.191Z</time></trkpt><trkpt lat="42.8660567" lon="11.5087848"><ele>779.0</ele><time>2026-04-26T11:22:30.183Z</time></trkpt><trkpt lat="42.8659612" lon="11.508704"><ele>779.0</ele><time>2026-04-26T11:22:31.177Z</time></trkpt><trkpt lat="42.8658525" lon="11.5086446"><ele>782.25</ele><time>2026-04-26T11:22:32.176Z</time></trkpt><trkpt lat="42.8657381" lon="11.5086149"><ele>785.5</ele><time>2026-04-26T11:22:33.194Z</time></trkpt><trkpt lat="42.8656264" lon="11.5085872"><ele>788.75</ele><time>2026-04-26T11:22:34.189Z</time></trkpt><trkpt lat="42.8655074" lon="11.5085979"><ele>792.0</ele><time>2026-04-26T11:22:35.183Z</time></trkpt><trkpt lat="42.8653937" lon="11.5086089"><ele>792.0</ele><time>2026-04-26T11:22:36.184Z</time></trkpt><trkpt lat="42.8652994" lon="11.5086086"><ele>792.0</ele><time>2026-04-26T11:22:37.196Z</time></trkpt><trkpt lat="42.8652125" lon="11.5085755"><ele>792.0</ele><time>2026-04-26T11:22:38.183Z</time></trkpt><trkpt lat="42.8651397" lon="11.5085148"><ele>792.0</ele><time>2026-04-26T11:22:39.182Z</time></trkpt><trkpt lat="42.865061" lon="11.5084387"><ele>792.0</ele><time>2026-04-26T11:22:40.185Z</time></trkpt><trkpt lat="42.8649693" lon="11.5083479"><ele>791.75</ele><time>2026-04-26T11:22:41.176Z</time></trkpt><trkpt lat="42.864844" lon="11.5082395"><ele>791.5</ele><time>2026-04-26T11:22:42.179Z</time></trkpt><trkpt lat="42.8647237" lon="11.5081322"><ele>791.25</ele><time>2026-04-26T11:22:43.179Z</time></trkpt><trkpt lat="42.8646072" lon="11.5080331"><ele>791.0</ele><time>2026-04-26T11:22:44.195Z</time></trkpt><trkpt lat="42.8644956" lon="11.5079428"><ele>793.5</ele><time>2026-04-26T11:22:45.183Z</time></trkpt><trkpt lat="42.8643932" lon="11.5078482"><ele>796.0</ele><time>2026-04-26T11:22:46.194Z</time></trkpt><trkpt lat="42.8642908" lon="11.5077603"><ele>798.5</ele><time>2026-04-26T11:22:47.178Z</time></trkpt><trkpt lat="42.8641907" lon="11.507675"><ele>801.0</ele><time>2026-04-26T11:22:48.186Z</time></trkpt><trkpt lat="42.8640972" lon="11.5076014"><ele>801.0</ele><time>2026-04-26T11:22:49.188Z</time></trkpt><trkpt lat="42.8640151" lon="11.5075329"><ele>801.0</ele><time>2026-04-26T11:22:50.174Z</time></trkpt><trkpt lat="42.8639584" lon="11.5074726"><ele>801.0</ele><time>2026-04-26T11:22:51.184Z</time></trkpt><trkpt lat="42.8638819" lon="11.5073332"><ele>801.0</ele><time>2026-04-26T11:22:53.196Z</time></trkpt><trkpt lat="42.8638592" lon="11.5072438"><ele>801.0</ele><time>2026-04-26T11:22:54.178Z</time></trkpt><trkpt lat="42.8638485" lon="11.5071434"><ele>801.0</ele><time>2026-04-26T11:22:55.195Z</time></trkpt><trkpt lat="42.8638384" lon="11.507042"><ele>802.5</ele><time>2026-04-26T11:22:56.184Z</time></trkpt><trkpt lat="42.8638566" lon="11.5069426"><ele>804.0</ele><time>2026-04-26T11:22:57.169Z</time></trkpt><trkpt lat="42.8638709" lon="11.5068367"><ele>805.5</ele><time>2026-04-26T11:22:58.199Z</time></trkpt><trkpt lat="42.8639255" lon="11.5067388"><ele>807.0</ele><time>2026-04-26T11:22:59.187Z</time></trkpt><trkpt lat="42.8639901" lon="11.5066385"><ele>808.5</ele><time>2026-04-26T11:23:00.184Z</time></trkpt><trkpt lat="42.8640548" lon="11.506557"><ele>810.0</ele><time>2026-04-26T11:23:01.186Z</time></trkpt><trkpt lat="42.8641089" lon="11.50649"><ele>810.0</ele><time>2026-04-26T11:23:02.176Z</time></trkpt><trkpt lat="42.8641789" lon="11.5063624"><ele>810.0</ele><time>2026-04-26T11:23:04.187Z</time></trkpt><trkpt lat="42.8641764" lon="11.5062541"><ele>810.0</ele><time>2026-04-26T11:23:06.176Z</time></trkpt><trkpt lat="42.8640715" lon="11.5061808"><ele>810.0</ele><time>2026-04-26T11:23:08.186Z</time></trkpt><trkpt lat="42.8639872" lon="11.5061445"><ele>810.0</ele><time>2026-04-26T11:23:09.189Z</time></trkpt><trkpt lat="42.8638917" lon="11.5061107"><ele>814.75</ele><time>2026-04-26T11:23:10.185Z</time></trkpt><trkpt lat="42.8637819" lon="11.5060669"><ele>819.5</ele><time>2026-04-26T11:23:11.188Z</time></trkpt><trkpt lat="42.8636675" lon="11.5060165"><ele>824.25</ele><time>2026-04-26T11:23:12.181Z</time></trkpt><trkpt lat="42.8635542" lon="11.5059646"><ele>829.0</ele><time>2026-04-26T11:23:13.189Z</time></trkpt><trkpt lat="42.863449" lon="11.5058874"><ele>828.6</ele><time>2026-04-26T11:23:14.195Z</time></trkpt><trkpt lat="42.863346" lon="11.5058105"><ele>828.2</ele><time>2026-04-26T11:23:15.186Z</time></trkpt><trkpt lat="42.8632501" lon="11.5057381"><ele>827.8000000000001</ele><time>2026-04-26T11:23:16.186Z</time></trkpt><trkpt lat="42.8631536" lon="11.5056661"><ele>827.4000000000001</ele><time>2026-04-26T11:23:17.181Z</time></trkpt><trkpt lat="42.8630585" lon="11.5056375"><ele>827.0</ele><time>2026-04-26T11:23:18.183Z</time></trkpt><trkpt lat="42.8629612" lon="11.5056117"><ele>827.0</ele><time>2026-04-26T11:23:19.18Z</time></trkpt><trkpt lat="42.8628514" lon="11.5056209"><ele>827.0</ele><time>2026-04-26T11:23:20.175Z</time></trkpt><trkpt lat="42.8627467" lon="11.505637"><ele>827.0</ele><time>2026-04-26T11:23:21.18Z</time></trkpt><trkpt lat="42.8626443" lon="11.5056556"><ele>827.0</ele><time>2026-04-26T11:23:22.184Z</time></trkpt><trkpt lat="42.8625681" lon="11.5056825"><ele>827.0</ele><time>2026-04-26T11:23:23.187Z</time></trkpt><trkpt lat="42.8624923" lon="11.5057414"><ele>828.8</ele><time>2026-04-26T11:23:24.184Z</time></trkpt><trkpt lat="42.862418" lon="11.5058255"><ele>830.6</ele><time>2026-04-26T11:23:25.184Z</time></trkpt><trkpt lat="42.8623483" lon="11.5059341"><ele>832.4</ele><time>2026-04-26T11:23:26.182Z</time></trkpt><trkpt lat="42.8622741" lon="11.5060395"><ele>834.1999999999999</ele><time>2026-04-26T11:23:27.183Z</time></trkpt><trkpt lat="42.8621917" lon="11.5061386"><ele>836.0</ele><time>2026-04-26T11:23:28.179Z</time></trkpt><trkpt lat="42.8621113" lon="11.5062362"><ele>836.3333333333334</ele><time>2026-04-26T11:23:29.179Z</time></trkpt><trkpt lat="42.862025" lon="11.5063185"><ele>836.6666666666667</ele><time>2026-04-26T11:23:30.183Z</time></trkpt><trkpt lat="42.8619371" lon="11.5063895"><ele>837.0</ele><time>2026-04-26T11:23:31.191Z</time></trkpt><trkpt lat="42.8618619" lon="11.5064325"><ele>837.3333333333333</ele><time>2026-04-26T11:23:32.192Z</time></trkpt><trkpt lat="42.8617997" lon="11.5064481"><ele>837.6666666666666</ele><time>2026-04-26T11:23:33.184Z</time></trkpt><trkpt lat="42.861725" lon="11.5064242"><ele>838.0</ele><time>2026-04-26T11:23:34.19Z</time></trkpt><trkpt lat="42.861644" lon="11.5063691"><ele>838.0</ele><time>2026-04-26T11:23:35.174Z</time></trkpt><trkpt lat="42.8615692" lon="11.5062872"><ele>838.0</ele><time>2026-04-26T11:23:36.181Z</time></trkpt><trkpt lat="42.8615134" lon="11.5061617"><ele>838.0</ele><time>2026-04-26T11:23:37.179Z</time></trkpt><trkpt lat="42.8614695" lon="11.5060028"><ele>838.0</ele><time>2026-04-26T11:23:38.171Z</time></trkpt><trkpt lat="42.8614287" lon="11.5058673"><ele>838.0</ele><time>2026-04-26T11:23:39.192Z</time></trkpt><trkpt lat="42.8613775" lon="11.5057584"><ele>840.2</ele><time>2026-04-26T11:23:40.17Z</time></trkpt><trkpt lat="42.8613169" lon="11.5056722"><ele>842.4</ele><time>2026-04-26T11:23:41.174Z</time></trkpt><trkpt lat="42.8612269" lon="11.5056069"><ele>844.6</ele><time>2026-04-26T11:23:42.175Z</time></trkpt><trkpt lat="42.8611291" lon="11.5055682"><ele>846.8000000000001</ele><time>2026-04-26T11:23:43.171Z</time></trkpt><trkpt lat="42.8610273" lon="11.5055537"><ele>849.0</ele><time>2026-04-26T11:23:44.186Z</time></trkpt><trkpt lat="42.8609391" lon="11.5055441"><ele>850.2</ele><time>2026-04-26T11:23:45.178Z</time></trkpt><trkpt lat="42.8608542" lon="11.5055587"><ele>851.4000000000001</ele><time>2026-04-26T11:23:46.181Z</time></trkpt><trkpt lat="42.8607731" lon="11.5055935"><ele>852.6</ele><time>2026-04-26T11:23:47.181Z</time></trkpt><trkpt lat="42.860685" lon="11.5056423"><ele>853.8</ele><time>2026-04-26T11:23:48.183Z</time></trkpt><trkpt lat="42.8605809" lon="11.5057022"><ele>855.0</ele><time>2026-04-26T11:23:49.188Z</time></trkpt><trkpt lat="42.8604677" lon="11.5057538"><ele>855.0</ele><time>2026-04-26T11:23:50.181Z</time></trkpt><trkpt lat="42.8603558" lon="11.5057993"><ele>855.0</ele><time>2026-04-26T11:23:51.188Z</time></trkpt><trkpt lat="42.8602514" lon="11.5058376"><ele>855.0</ele><time>2026-04-26T11:23:52.182Z</time></trkpt><trkpt lat="42.860158" lon="11.5058778"><ele>855.0</ele><time>2026-04-26T11:23:53.19Z</time></trkpt><trkpt lat="42.8600584" lon="11.5059005"><ele>855.0</ele><time>2026-04-26T11:23:54.185Z</time></trkpt><trkpt lat="42.8599493" lon="11.5058889"><ele>858.25</ele><time>2026-04-26T11:23:55.177Z</time></trkpt><trkpt lat="42.8598415" lon="11.5058728"><ele>861.5</ele><time>2026-04-26T11:23:56.182Z</time></trkpt><trkpt lat="42.8597288" lon="11.5058302"><ele>864.75</ele><time>2026-04-26T11:23:57.193Z</time></trkpt><trkpt lat="42.8596006" lon="11.5057847"><ele>868.0</ele><time>2026-04-26T11:23:58.19Z</time></trkpt><trkpt lat="42.8594632" lon="11.5057467"><ele>868.0</ele><time>2026-04-26T11:23:59.194Z</time></trkpt><trkpt lat="42.8593177" lon="11.5057052"><ele>868.0</ele><time>2026-04-26T11:24:00.179Z</time></trkpt><trkpt lat="42.8591644" lon="11.5056497"><ele>868.0</ele><time>2026-04-26T11:24:01.195Z</time></trkpt><trkpt lat="42.8590253" lon="11.5056056"><ele>868.25</ele><time>2026-04-26T11:24:02.181Z</time></trkpt><trkpt lat="42.8588947" lon="11.5055644"><ele>868.5</ele><time>2026-04-26T11:24:03.187Z</time></trkpt><trkpt lat="42.8587628" lon="11.505536"><ele>868.75</ele><time>2026-04-26T11:24:04.183Z</time></trkpt><trkpt lat="42.8586247" lon="11.5055125"><ele>869.0</ele><time>2026-04-26T11:24:05.195Z</time></trkpt><trkpt lat="42.8584917" lon="11.5054926"><ele>869.25</ele><time>2026-04-26T11:24:06.182Z</time></trkpt><trkpt lat="42.858361" lon="11.5054699"><ele>869.5</ele><time>2026-04-26T11:24:07.189Z</time></trkpt><trkpt lat="42.8582303" lon="11.5054438"><ele>869.75</ele><time>2026-04-26T11:24:08.196Z</time></trkpt><trkpt lat="42.8581027" lon="11.5054129"><ele>870.0</ele><time>2026-04-26T11:24:09.195Z</time></trkpt><trkpt lat="42.8579851" lon="11.505387"><ele>878.25</ele><time>2026-04-26T11:24:10.194Z</time></trkpt><trkpt lat="42.8578725" lon="11.505357"><ele>886.5</ele><time>2026-04-26T11:24:11.197Z</time></trkpt><trkpt lat="42.8577545" lon="11.5053345"><ele>894.75</ele><time>2026-04-26T11:24:12.185Z</time></trkpt><trkpt lat="42.8576303" lon="11.5052924"><ele>903.0</ele><time>2026-04-26T11:24:13.2Z</time></trkpt><trkpt lat="42.8575071" lon="11.5052518"><ele>903.0</ele><time>2026-04-26T11:24:14.183Z</time></trkpt><trkpt lat="42.8573943" lon="11.5052119"><ele>903.0</ele><time>2026-04-26T11:24:15.198Z</time></trkpt><trkpt lat="42.8572673" lon="11.5051758"><ele>903.0</ele><time>2026-04-26T11:24:16.199Z</time></trkpt><trkpt lat="42.8571416" lon="11.5051356"><ele>903.0</ele><time>2026-04-26T11:24:17.189Z</time></trkpt><trkpt lat="42.8570107" lon="11.5050725"><ele>903.0</ele><time>2026-04-26T11:24:18.198Z</time></trkpt><trkpt lat="42.8568846" lon="11.5050166"><ele>903.0</ele><time>2026-04-26T11:24:19.179Z</time></trkpt><trkpt lat="42.8567651" lon="11.5049607"><ele>903.0</ele><time>2026-04-26T11:24:20.195Z</time></trkpt><trkpt lat="42.8566495" lon="11.5049086"><ele>903.0</ele><time>2026-04-26T11:24:21.194Z</time></trkpt><trkpt lat="42.8565258" lon="11.5048728"><ele>902.5</ele><time>2026-04-26T11:24:22.192Z</time></trkpt><trkpt lat="42.8563901" lon="11.504873"><ele>902.0</ele><time>2026-04-26T11:24:23.189Z</time></trkpt><trkpt lat="42.8562625" lon="11.504897"><ele>901.5</ele><time>2026-04-26T11:24:24.194Z</time></trkpt><trkpt lat="42.8561517" lon="11.5049412"><ele>901.0</ele><time>2026-04-26T11:24:25.182Z</time></trkpt><trkpt lat="42.8560479" lon="11.5049783"><ele>901.0</ele><time>2026-04-26T11:24:26.192Z</time></trkpt><trkpt lat="42.855958" lon="11.5050001"><ele>900.9999999999999</ele><time>2026-04-26T11:24:27.18Z</time></trkpt><trkpt lat="42.8558685" lon="11.5049751"><ele>900.9999999999999</ele><time>2026-04-26T11:24:28.184Z</time></trkpt><trkpt lat="42.8557799" lon="11.5049232"><ele>901.0</ele><time>2026-04-26T11:24:29.198Z</time></trkpt><trkpt lat="42.8556825" lon="11.504829"><ele>901.0</ele><time>2026-04-26T11:24:30.192Z</time></trkpt><trkpt lat="42.8555857" lon="11.5047212"><ele>902.1999999999999</ele><time>2026-04-26T11:24:31.197Z</time></trkpt><trkpt lat="42.8554996" lon="11.504621"><ele>903.3999999999999</ele><time>2026-04-26T11:24:32.188Z</time></trkpt><trkpt lat="42.8554166" lon="11.5045251"><ele>904.6</ele><time>2026-04-26T11:24:33.187Z</time></trkpt><trkpt lat="42.8553375" lon="11.5044185"><ele>905.8</ele><time>2026-04-26T11:24:34.194Z</time></trkpt><trkpt lat="42.8552677" lon="11.5043076"><ele>907.0</ele><time>2026-04-26T11:24:35.2Z</time></trkpt><trkpt lat="42.855204" lon="11.5041871"><ele>909.0</ele><time>2026-04-26T11:24:36.175Z</time></trkpt><trkpt lat="42.8551393" lon="11.5040628"><ele>911.0</ele><time>2026-04-26T11:24:37.199Z</time></trkpt><trkpt lat="42.8550793" lon="11.50393"><ele>913.0</ele><time>2026-04-26T11:24:38.184Z</time></trkpt><trkpt lat="42.8550355" lon="11.5038023"><ele>915.0</ele><time>2026-04-26T11:24:39.197Z</time></trkpt><trkpt lat="42.854998" lon="11.5036813"><ele>917.0</ele><time>2026-04-26T11:24:40.186Z</time></trkpt><trkpt lat="42.8549686" lon="11.5035648"><ele>919.8</ele><time>2026-04-26T11:24:41.197Z</time></trkpt><trkpt lat="42.8549521" lon="11.5034522"><ele>922.6</ele><time>2026-04-26T11:24:42.181Z</time></trkpt><trkpt lat="42.8549313" lon="11.503336"><ele>925.3999999999999</ele><time>2026-04-26T11:24:43.191Z</time></trkpt><trkpt lat="42.8549029" lon="11.5032108"><ele>928.1999999999999</ele><time>2026-04-26T11:24:44.179Z</time></trkpt><trkpt lat="42.8548745" lon="11.5030844"><ele>931.0</ele><time>2026-04-26T11:24:45.188Z</time></trkpt><trkpt lat="42.854848" lon="11.5029568"><ele>929.8</ele><time>2026-04-26T11:24:46.179Z</time></trkpt><trkpt lat="42.8548172" lon="11.5028292"><ele>928.5999999999999</ele><time>2026-04-26T11:24:47.185Z</time></trkpt><trkpt lat="42.8547799" lon="11.5027051"><ele>927.4</ele><time>2026-04-26T11:24:48.189Z</time></trkpt><trkpt lat="42.8547429" lon="11.5025988"><ele>926.2</ele><time>2026-04-26T11:24:49.196Z</time></trkpt><trkpt lat="42.8546948" lon="11.5025035"><ele>925.0</ele><time>2026-04-26T11:24:50.192Z</time></trkpt><trkpt lat="42.8546204" lon="11.502433"><ele>925.0</ele><time>2026-04-26T11:24:51.175Z</time></trkpt><trkpt lat="42.8545443" lon="11.5023705"><ele>925.0</ele><time>2026-04-26T11:24:52.182Z</time></trkpt><trkpt lat="42.8544419" lon="11.5023333"><ele>925.0</ele><time>2026-04-26T11:24:53.196Z</time></trkpt><trkpt lat="42.8543136" lon="11.5022904"><ele>925.0</ele><time>2026-04-26T11:24:54.188Z</time></trkpt><trkpt lat="42.8541876" lon="11.5022413"><ele>925.5</ele><time>2026-04-26T11:24:55.181Z</time></trkpt><trkpt lat="42.8540624" lon="11.5021908"><ele>926.0</ele><time>2026-04-26T11:24:56.186Z</time></trkpt><trkpt lat="42.8539563" lon="11.502131"><ele>926.5</ele><time>2026-04-26T11:24:57.173Z</time></trkpt><trkpt lat="42.8538594" lon="11.5020415"><ele>927.0</ele><time>2026-04-26T11:24:58.197Z</time></trkpt><trkpt lat="42.8537695" lon="11.5019053"><ele>927.0</ele><time>2026-04-26T11:24:59.183Z</time></trkpt><trkpt lat="42.8536785" lon="11.501746"><ele>927.0</ele><time>2026-04-26T11:25:00.187Z</time></trkpt><trkpt lat="42.8535886" lon="11.5015973"><ele>927.0</ele><time>2026-04-26T11:25:01.187Z</time></trkpt><trkpt lat="42.853509" lon="11.5014531"><ele>927.0</ele><time>2026-04-26T11:25:02.182Z</time></trkpt><trkpt lat="42.8534428" lon="11.5013085"><ele>927.5</ele><time>2026-04-26T11:25:03.195Z</time></trkpt><trkpt lat="42.8533831" lon="11.5011439"><ele>928.0</ele><time>2026-04-26T11:25:04.196Z</time></trkpt><trkpt lat="42.8533295" lon="11.5009775"><ele>928.5</ele><time>2026-04-26T11:25:05.195Z</time></trkpt><trkpt lat="42.8532881" lon="11.500802"><ele>929.0</ele><time>2026-04-26T11:25:06.194Z</time></trkpt><trkpt lat="42.8532415" lon="11.5006251"><ele>929.0</ele><time>2026-04-26T11:25:07.2Z</time></trkpt><trkpt lat="42.8531942" lon="11.5004543"><ele>929.0</ele><time>2026-04-26T11:25:08.195Z</time></trkpt><trkpt lat="42.8531443" lon="11.5002973"><ele>929.0</ele><time>2026-04-26T11:25:09.19Z</time></trkpt><trkpt lat="42.8530882" lon="11.5001606"><ele>929.0</ele><time>2026-04-26T11:25:10.193Z</time></trkpt><trkpt lat="42.8530334" lon="11.5000398"><ele>928.8000000000001</ele><time>2026-04-26T11:25:11.19Z</time></trkpt><trkpt lat="42.8529631" lon="11.4999403"><ele>928.6000000000001</ele><time>2026-04-26T11:25:12.192Z</time></trkpt><trkpt lat="42.8528794" lon="11.4998643"><ele>928.4</ele><time>2026-04-26T11:25:13.178Z</time></trkpt><trkpt lat="42.8527651" lon="11.499827"><ele>928.2</ele><time>2026-04-26T11:25:14.195Z</time></trkpt><trkpt lat="42.8526443" lon="11.4997929"><ele>928.0</ele><time>2026-04-26T11:25:15.187Z</time></trkpt><trkpt lat="42.8525175" lon="11.4997876"><ele>929.25</ele><time>2026-04-26T11:25:16.195Z</time></trkpt><trkpt lat="42.8523959" lon="11.4997809"><ele>930.5</ele><time>2026-04-26T11:25:17.196Z</time></trkpt><trkpt lat="42.8522838" lon="11.499757"><ele>931.75</ele><time>2026-04-26T11:25:18.183Z</time></trkpt><trkpt lat="42.8521826" lon="11.4997086"><ele>933.0</ele><time>2026-04-26T11:25:19.189Z</time></trkpt><trkpt lat="42.8520896" lon="11.4996309"><ele>934.25</ele><time>2026-04-26T11:25:20.19Z</time></trkpt><trkpt lat="42.8520056" lon="11.4995329"><ele>935.5</ele><time>2026-04-26T11:25:21.193Z</time></trkpt><trkpt lat="42.8519325" lon="11.4994033"><ele>936.75</ele><time>2026-04-26T11:25:22.185Z</time></trkpt><trkpt lat="42.8518566" lon="11.4992564"><ele>938.0</ele><time>2026-04-26T11:25:23.198Z</time></trkpt><trkpt lat="42.851785" lon="11.4991153"><ele>938.0</ele><time>2026-04-26T11:25:24.196Z</time></trkpt><trkpt lat="42.8517168" lon="11.4989747"><ele>938.0</ele><time>2026-04-26T11:25:25.184Z</time></trkpt><trkpt lat="42.8516658" lon="11.4988218"><ele>938.0</ele><time>2026-04-26T11:25:26.186Z</time></trkpt><trkpt lat="42.8516326" lon="11.498653"><ele>938.0</ele><time>2026-04-26T11:25:27.193Z</time></trkpt><trkpt lat="42.8516078" lon="11.4984776"><ele>937.75</ele><time>2026-04-26T11:25:28.182Z</time></trkpt><trkpt lat="42.8515799" lon="11.4983021"><ele>937.5</ele><time>2026-04-26T11:25:29.195Z</time></trkpt><trkpt lat="42.851553" lon="11.4981312"><ele>937.25</ele><time>2026-04-26T11:25:30.185Z</time></trkpt><trkpt lat="42.8515268" lon="11.4979684"><ele>937.0</ele><time>2026-04-26T11:25:31.194Z</time></trkpt><trkpt lat="42.8514986" lon="11.4978129"><ele>935.2</ele><time>2026-04-26T11:25:32.2Z</time></trkpt><trkpt lat="42.8514687" lon="11.4976621"><ele>933.4000000000001</ele><time>2026-04-26T11:25:33.19Z</time></trkpt><trkpt lat="42.8514399" lon="11.4975228"><ele>931.5999999999999</ele><time>2026-04-26T11:25:34.178Z</time></trkpt><trkpt lat="42.8514125" lon="11.4973907"><ele>929.8</ele><time>2026-04-26T11:25:35.197Z</time></trkpt><trkpt lat="42.8513881" lon="11.4972733"><ele>928.0</ele><time>2026-04-26T11:25:36.182Z</time></trkpt><trkpt lat="42.8513642" lon="11.4971642"><ele>926.9999999999999</ele><time>2026-04-26T11:25:37.184Z</time></trkpt><trkpt lat="42.8513395" lon="11.4970759"><ele>926.0</ele><time>2026-04-26T11:25:38.189Z</time></trkpt><trkpt lat="42.8512974" lon="11.4969796"><ele>925.0</ele><time>2026-04-26T11:25:40.191Z</time></trkpt><trkpt lat="42.8512595" lon="11.4968962"><ele>924.0</ele><time>2026-04-26T11:25:45.194Z</time></trkpt><trkpt lat="42.8511929" lon="11.4968243"><ele>922.9999999999999</ele><time>2026-04-26T11:26:19.203Z</time></trkpt><trkpt lat="42.8511115" lon="11.4968098"><ele>922.0</ele><time>2026-04-26T11:26:21.182Z</time></trkpt><trkpt lat="42.851053" lon="11.4968486"><ele>921.9999999999999</ele><time>2026-04-26T11:26:22.193Z</time></trkpt><trkpt lat="42.8509957" lon="11.4969116"><ele>922.0</ele><time>2026-04-26T11:26:23.183Z</time></trkpt><trkpt lat="42.8509374" lon="11.4969947"><ele>922.0</ele><time>2026-04-26T11:26:24.184Z</time></trkpt><trkpt lat="42.8508851" lon="11.4970967"><ele>922.0</ele><time>2026-04-26T11:26:25.197Z</time></trkpt><trkpt lat="42.8508391" lon="11.4972085"><ele>921.9999999999999</ele><time>2026-04-26T11:26:26.183Z</time></trkpt><trkpt lat="42.8507944" lon="11.4973174"><ele>922.0</ele><time>2026-04-26T11:26:27.201Z</time></trkpt><trkpt lat="42.8507453" lon="11.4974218"><ele>923.4999999999999</ele><time>2026-04-26T11:26:28.174Z</time></trkpt><trkpt lat="42.8506875" lon="11.4975203"><ele>925.0</ele><time>2026-04-26T11:26:29.19Z</time></trkpt><trkpt lat="42.8506332" lon="11.4976142"><ele>926.5</ele><time>2026-04-26T11:26:30.187Z</time></trkpt><trkpt lat="42.850562" lon="11.4976859"><ele>928.0</ele><time>2026-04-26T11:26:31.191Z</time></trkpt><trkpt lat="42.8504843" lon="11.4977374"><ele>929.4999999999999</ele><time>2026-04-26T11:26:32.176Z</time></trkpt><trkpt lat="42.8504079" lon="11.4977823"><ele>931.0</ele><time>2026-04-26T11:26:33.179Z</time></trkpt><trkpt lat="42.8503213" lon="11.4978023"><ele>931.0</ele><time>2026-04-26T11:26:34.175Z</time></trkpt><trkpt lat="42.850221" lon="11.4977859"><ele>931.0</ele><time>2026-04-26T11:26:35.18Z</time></trkpt><trkpt lat="42.8501003" lon="11.4977708"><ele>931.0</ele><time>2026-04-26T11:26:36.193Z</time></trkpt><trkpt lat="42.8499636" lon="11.4977633"><ele>931.0</ele><time>2026-04-26T11:26:37.179Z</time></trkpt><trkpt lat="42.8498254" lon="11.4977553"><ele>929.0</ele><time>2026-04-26T11:26:38.192Z</time></trkpt><trkpt lat="42.8496873" lon="11.497745"><ele>926.9999999999999</ele><time>2026-04-26T11:26:39.191Z</time></trkpt><trkpt lat="42.8495786" lon="11.4977454"><ele>924.9999999999999</ele><time>2026-04-26T11:26:40.186Z</time></trkpt><trkpt lat="42.8494807" lon="11.4977474"><ele>923.0</ele><time>2026-04-26T11:26:41.185Z</time></trkpt><trkpt lat="42.8494018" lon="11.4977647"><ele>921.0</ele><time>2026-04-26T11:26:42.196Z</time></trkpt><trkpt lat="42.8493356" lon="11.4978126"><ele>922.3333333333334</ele><time>2026-04-26T11:26:43.182Z</time></trkpt><trkpt lat="42.8492905" lon="11.4979085"><ele>923.6666666666667</ele><time>2026-04-26T11:26:44.189Z</time></trkpt><trkpt lat="42.8492449" lon="11.4980154"><ele>925.0</ele><time>2026-04-26T11:26:45.191Z</time></trkpt><trkpt lat="42.8491991" lon="11.4981261"><ele>926.3333333333334</ele><time>2026-04-26T11:26:46.181Z</time></trkpt><trkpt lat="42.8491533" lon="11.4982302"><ele>927.6666666666667</ele><time>2026-04-26T11:26:47.185Z</time></trkpt><trkpt lat="42.8491139" lon="11.4983288"><ele>929.0</ele><time>2026-04-26T11:26:48.178Z</time></trkpt><trkpt lat="42.8490658" lon="11.4984094"><ele>929.0</ele><time>2026-04-26T11:26:49.189Z</time></trkpt><trkpt lat="42.8490005" lon="11.4984857"><ele>929.0000000000001</ele><time>2026-04-26T11:26:50.2Z</time></trkpt><trkpt lat="42.8489341" lon="11.4985534"><ele>929.0000000000001</ele><time>2026-04-26T11:26:51.186Z</time></trkpt><trkpt lat="42.8488556" lon="11.4986135"><ele>929.0</ele><time>2026-04-26T11:26:52.18Z</time></trkpt><trkpt lat="42.8487608" lon="11.4986878"><ele>929.0</ele><time>2026-04-26T11:26:53.193Z</time></trkpt><trkpt lat="42.8486579" lon="11.4987641"><ele>927.0</ele><time>2026-04-26T11:26:54.181Z</time></trkpt><trkpt lat="42.8485552" lon="11.4988393"><ele>925.0000000000001</ele><time>2026-04-26T11:26:55.192Z</time></trkpt><trkpt lat="42.848451" lon="11.4989142"><ele>923.0000000000001</ele><time>2026-04-26T11:26:56.187Z</time></trkpt><trkpt lat="42.8483684" lon="11.4989806"><ele>921.0</ele><time>2026-04-26T11:26:57.182Z</time></trkpt><trkpt lat="42.8482954" lon="11.4990305"><ele>919.0</ele><time>2026-04-26T11:26:58.177Z</time></trkpt><trkpt lat="42.8482238" lon="11.4990659"><ele>918.8571428571428</ele><time>2026-04-26T11:26:59.179Z</time></trkpt><trkpt lat="42.8481448" lon="11.4990963"><ele>918.7142857142856</ele><time>2026-04-26T11:27:00.195Z</time></trkpt><trkpt lat="42.8480668" lon="11.499108"><ele>918.5714285714286</ele><time>2026-04-26T11:27:01.178Z</time></trkpt><trkpt lat="42.8479932" lon="11.4991178"><ele>918.4285714285713</ele><time>2026-04-26T11:27:02.197Z</time></trkpt><trkpt lat="42.8479203" lon="11.4991167"><ele>918.2857142857142</ele><time>2026-04-26T11:27:03.174Z</time></trkpt><trkpt lat="42.8478497" lon="11.4991154"><ele>918.1428571428571</ele><time>2026-04-26T11:27:04.18Z</time></trkpt><trkpt lat="42.8477867" lon="11.4991487"><ele>918.0</ele><time>2026-04-26T11:27:05.171Z</time></trkpt><trkpt lat="42.8476951" lon="11.499241"><ele>918.0</ele><time>2026-04-26T11:27:07.195Z</time></trkpt><trkpt lat="42.8477181" lon="11.4994161"><ele>918.0</ele><time>2026-04-26T11:27:09.176Z</time></trkpt><trkpt lat="42.8477539" lon="11.4995304"><ele>918.0</ele><time>2026-04-26T11:27:10.188Z</time></trkpt><trkpt lat="42.8477846" lon="11.4996622"><ele>918.0</ele><time>2026-04-26T11:27:11.19Z</time></trkpt><trkpt lat="42.8478068" lon="11.4998011"><ele>918.0</ele><time>2026-04-26T11:27:12.18Z</time></trkpt><trkpt lat="42.8478131" lon="11.4999411"><ele>918.0</ele><time>2026-04-26T11:27:13.193Z</time></trkpt><trkpt lat="42.847789" lon="11.5000778"><ele>918.0</ele><time>2026-04-26T11:27:14.179Z</time></trkpt><trkpt lat="42.8477361" lon="11.5001922"><ele>918.0</ele><time>2026-04-26T11:27:15.182Z</time></trkpt><trkpt lat="42.8476656" lon="11.50029"><ele>918.0</ele><time>2026-04-26T11:27:16.197Z</time></trkpt><trkpt lat="42.8476087" lon="11.5003898"><ele>918.0</ele><time>2026-04-26T11:27:17.176Z</time></trkpt><trkpt lat="42.8475622" lon="11.5004983"><ele>917.8</ele><time>2026-04-26T11:27:18.194Z</time></trkpt><trkpt lat="42.8475366" lon="11.500625"><ele>917.5999999999999</ele><time>2026-04-26T11:27:19.189Z</time></trkpt><trkpt lat="42.8475126" lon="11.5007579"><ele>917.4000000000001</ele><time>2026-04-26T11:27:20.196Z</time></trkpt><trkpt lat="42.8475236" lon="11.5008979"><ele>917.2</ele><time>2026-04-26T11:27:21.176Z</time></trkpt><trkpt lat="42.8475423" lon="11.5010065"><ele>917.0</ele><time>2026-04-26T11:27:22.192Z</time></trkpt><trkpt lat="42.8475821" lon="11.5011454"><ele>917.0000000000001</ele><time>2026-04-26T11:27:24.194Z</time></trkpt><trkpt lat="42.8476194" lon="11.5012166"><ele>917.0</ele><time>2026-04-26T11:27:26.197Z</time></trkpt><trkpt lat="42.8476802" lon="11.5012927"><ele>917.0</ele><time>2026-04-26T11:27:28.181Z</time></trkpt><trkpt lat="42.8477752" lon="11.5013806"><ele>917.0</ele><time>2026-04-26T11:27:30.179Z</time></trkpt><trkpt lat="42.8478582" lon="11.5014125"><ele>917.0000000000001</ele><time>2026-04-26T11:27:31.189Z</time></trkpt><trkpt lat="42.8479482" lon="11.5014386"><ele>917.0</ele><time>2026-04-26T11:27:32.198Z</time></trkpt><trkpt lat="42.8480401" lon="11.5014605"><ele>916.0000000000001</ele><time>2026-04-26T11:27:33.193Z</time></trkpt><trkpt lat="42.8481328" lon="11.5014812"><ele>915.0</ele><time>2026-04-26T11:27:34.193Z</time></trkpt><trkpt lat="42.8482193" lon="11.5015039"><ele>914.0</ele><time>2026-04-26T11:27:35.19Z</time></trkpt><trkpt lat="42.8483055" lon="11.5015256"><ele>913.0</ele><time>2026-04-26T11:27:36.194Z</time></trkpt><trkpt lat="42.8483878" lon="11.5015528"><ele>912.0000000000001</ele><time>2026-04-26T11:27:37.19Z</time></trkpt><trkpt lat="42.8484676" lon="11.5015789"><ele>911.0</ele><time>2026-04-26T11:27:38.181Z</time></trkpt><trkpt lat="42.8485386" lon="11.5016068"><ele>908.1428571428572</ele><time>2026-04-26T11:27:39.187Z</time></trkpt><trkpt lat="42.8486028" lon="11.5016471"><ele>905.2857142857142</ele><time>2026-04-26T11:27:40.185Z</time></trkpt><trkpt lat="42.8486548" lon="11.5017011"><ele>902.4285714285714</ele><time>2026-04-26T11:27:41.188Z</time></trkpt><trkpt lat="42.8487045" lon="11.5017554"><ele>899.5714285714287</ele><time>2026-04-26T11:27:42.196Z</time></trkpt><trkpt lat="42.8487487" lon="11.5018272"><ele>896.7142857142858</ele><time>2026-04-26T11:27:43.183Z</time></trkpt><trkpt lat="42.84879" lon="11.5019112"><ele>893.8571428571429</ele><time>2026-04-26T11:27:44.191Z</time></trkpt><trkpt lat="42.8488333" lon="11.5020089"><ele>891.0</ele><time>2026-04-26T11:27:45.192Z</time></trkpt><trkpt lat="42.8488782" lon="11.50211"><ele>891.0</ele><time>2026-04-26T11:27:46.182Z</time></trkpt><trkpt lat="42.8489125" lon="11.5022336"><ele>890.9999999999999</ele><time>2026-04-26T11:27:47.196Z</time></trkpt><trkpt lat="42.8489434" lon="11.5023538"><ele>890.9999999999999</ele><time>2026-04-26T11:27:48.183Z</time></trkpt><trkpt lat="42.8489733" lon="11.5024732"><ele>891.0</ele><time>2026-04-26T11:27:49.193Z</time></trkpt><trkpt lat="42.8490139" lon="11.5025849"><ele>891.0</ele><time>2026-04-26T11:27:50.191Z</time></trkpt><trkpt lat="42.8490559" lon="11.5026994"><ele>891.0</ele><time>2026-04-26T11:27:51.181Z</time></trkpt><trkpt lat="42.8491136" lon="11.5028083"><ele>891.0</ele><time>2026-04-26T11:27:52.192Z</time></trkpt><trkpt lat="42.8491704" lon="11.5029115"><ele>891.0</ele><time>2026-04-26T11:27:53.187Z</time></trkpt><trkpt lat="42.8492288" lon="11.5029966"><ele>891.0</ele><time>2026-04-26T11:27:54.182Z</time></trkpt><trkpt lat="42.8492972" lon="11.5030625"><ele>891.0</ele><time>2026-04-26T11:27:55.189Z</time></trkpt><trkpt lat="42.8493676" lon="11.5031011"><ele>891.0</ele><time>2026-04-26T11:27:56.19Z</time></trkpt><trkpt lat="42.8494435" lon="11.5031222"><ele>887.8333333333334</ele><time>2026-04-26T11:27:57.181Z</time></trkpt><trkpt lat="42.8495149" lon="11.5031426"><ele>884.6666666666667</ele><time>2026-04-26T11:27:58.195Z</time></trkpt><trkpt lat="42.8495833" lon="11.5031668"><ele>881.5</ele><time>2026-04-26T11:27:59.178Z</time></trkpt><trkpt lat="42.8496317" lon="11.5032289"><ele>878.3333333333334</ele><time>2026-04-26T11:28:00.193Z</time></trkpt><trkpt lat="42.8496734" lon="11.5033177"><ele>875.1666666666667</ele><time>2026-04-26T11:28:01.188Z</time></trkpt><trkpt lat="42.8497175" lon="11.5034195"><ele>872.0</ele><time>2026-04-26T11:28:02.175Z</time></trkpt><trkpt lat="42.8497601" lon="11.5035288"><ele>872.0</ele><time>2026-04-26T11:28:03.184Z</time></trkpt><trkpt lat="42.849797" lon="11.5036436"><ele>872.0</ele><time>2026-04-26T11:28:04.192Z</time></trkpt><trkpt lat="42.8498346" lon="11.5037689"><ele>872.0</ele><time>2026-04-26T11:28:05.186Z</time></trkpt><trkpt lat="42.849873" lon="11.5038982"><ele>872.0</ele><time>2026-04-26T11:28:06.187Z</time></trkpt><trkpt lat="42.8499143" lon="11.5040294"><ele>872.0</ele><time>2026-04-26T11:28:07.176Z</time></trkpt><trkpt lat="42.849952" lon="11.5041531"><ele>871.8</ele><time>2026-04-26T11:28:08.175Z</time></trkpt><trkpt lat="42.849983" lon="11.50427"><ele>871.6</ele><time>2026-04-26T11:28:09.187Z</time></trkpt><trkpt lat="42.8500122" lon="11.5043845"><ele>871.3999999999999</ele><time>2026-04-26T11:28:10.182Z</time></trkpt><trkpt lat="42.8500379" lon="11.5045039"><ele>871.1999999999999</ele><time>2026-04-26T11:28:11.193Z</time></trkpt><trkpt lat="42.8500636" lon="11.5046227"><ele>871.0</ele><time>2026-04-26T11:28:12.188Z</time></trkpt><trkpt lat="42.8500754" lon="11.5047452"><ele>871.0</ele><time>2026-04-26T11:28:13.192Z</time></trkpt><trkpt lat="42.8500841" lon="11.5048787"><ele>870.9999999999999</ele><time>2026-04-26T11:28:14.187Z</time></trkpt><trkpt lat="42.8500847" lon="11.5050302"><ele>870.9999999999999</ele><time>2026-04-26T11:28:15.192Z</time></trkpt><trkpt lat="42.8500853" lon="11.5051843"><ele>871.0</ele><time>2026-04-26T11:28:16.177Z</time></trkpt><trkpt lat="42.8500894" lon="11.5053341"><ele>871.0</ele><time>2026-04-26T11:28:17.186Z</time></trkpt><trkpt lat="42.8500963" lon="11.5054829"><ele>870.8</ele><time>2026-04-26T11:28:18.175Z</time></trkpt><trkpt lat="42.8501067" lon="11.5056341"><ele>870.5999999999999</ele><time>2026-04-26T11:28:19.192Z</time></trkpt><trkpt lat="42.8501125" lon="11.5057767"><ele>870.4</ele><time>2026-04-26T11:28:20.176Z</time></trkpt><trkpt lat="42.8501183" lon="11.5059122"><ele>870.2</ele><time>2026-04-26T11:28:21.183Z</time></trkpt><trkpt lat="42.8501261" lon="11.5060431"><ele>870.0</ele><time>2026-04-26T11:28:22.192Z</time></trkpt><trkpt lat="42.8501331" lon="11.5061535"><ele>865.6</ele><time>2026-04-26T11:28:23.181Z</time></trkpt><trkpt lat="42.8501698" lon="11.5062452"><ele>861.2</ele><time>2026-04-26T11:28:24.189Z</time></trkpt><trkpt lat="42.8502249" lon="11.5063226"><ele>856.8</ele><time>2026-04-26T11:28:25.192Z</time></trkpt><trkpt lat="42.8503016" lon="11.5063767"><ele>852.4</ele><time>2026-04-26T11:28:26.175Z</time></trkpt><trkpt lat="42.8503876" lon="11.5064304"><ele>848.0</ele><time>2026-04-26T11:28:27.196Z</time></trkpt><trkpt lat="42.8505049" lon="11.5064226"><ele>848.0</ele><time>2026-04-26T11:28:28.177Z</time></trkpt><trkpt lat="42.8506426" lon="11.5064184"><ele>848.0</ele><time>2026-04-26T11:28:29.19Z</time></trkpt><trkpt lat="42.8507738" lon="11.506416"><ele>848.0</ele><time>2026-04-26T11:28:30.192Z</time></trkpt><trkpt lat="42.8508689" lon="11.5064375"><ele>848.0</ele><time>2026-04-26T11:28:31.196Z</time></trkpt><trkpt lat="42.8509487" lon="11.5064918"><ele>847.6666666666667</ele><time>2026-04-26T11:28:32.204Z</time></trkpt><trkpt lat="42.8510131" lon="11.5065748"><ele>847.3333333333334</ele><time>2026-04-26T11:28:33.198Z</time></trkpt><trkpt lat="42.8510748" lon="11.5066613"><ele>847.0</ele><time>2026-04-26T11:28:34.187Z</time></trkpt><trkpt lat="42.8510997" lon="11.5067671"><ele>846.6666666666667</ele><time>2026-04-26T11:28:35.191Z</time></trkpt><trkpt lat="42.8511106" lon="11.5068788"><ele>846.3333333333334</ele><time>2026-04-26T11:28:36.202Z</time></trkpt><trkpt lat="42.851115" lon="11.5070016"><ele>846.0</ele><time>2026-04-26T11:28:37.194Z</time></trkpt><trkpt lat="42.8511244" lon="11.5071315"><ele>845.1999999999999</ele><time>2026-04-26T11:28:38.197Z</time></trkpt><trkpt lat="42.8511334" lon="11.5072623"><ele>844.4</ele><time>2026-04-26T11:28:39.189Z</time></trkpt><trkpt lat="42.8511727" lon="11.5073824"><ele>843.6</ele><time>2026-04-26T11:28:40.193Z</time></trkpt><trkpt lat="42.8512126" lon="11.5074908"><ele>842.8</ele><time>2026-04-26T11:28:41.178Z</time></trkpt><trkpt lat="42.8512762" lon="11.5075764"><ele>842.0</ele><time>2026-04-26T11:28:42.208Z</time></trkpt><trkpt lat="42.8513397" lon="11.5076614"><ele>842.0</ele><time>2026-04-26T11:28:43.183Z</time></trkpt><trkpt lat="42.8513992" lon="11.5077394"><ele>842.0</ele><time>2026-04-26T11:28:44.187Z</time></trkpt><trkpt lat="42.8514644" lon="11.5078358"><ele>842.0</ele><time>2026-04-26T11:28:45.183Z</time></trkpt><trkpt lat="42.8515278" lon="11.5079286"><ele>842.0</ele><time>2026-04-26T11:28:46.178Z</time></trkpt><trkpt lat="42.8515825" lon="11.5080406"><ele>842.0</ele><time>2026-04-26T11:28:47.199Z</time></trkpt><trkpt lat="42.8516136" lon="11.5081803"><ele>840.75</ele><time>2026-04-26T11:28:48.195Z</time></trkpt><trkpt lat="42.8516462" lon="11.5083311"><ele>839.5</ele><time>2026-04-26T11:28:49.189Z</time></trkpt><trkpt lat="42.851685" lon="11.5085035"><ele>838.25</ele><time>2026-04-26T11:28:50.195Z</time></trkpt><trkpt lat="42.8517351" lon="11.5086802"><ele>837.0</ele><time>2026-04-26T11:28:51.195Z</time></trkpt><trkpt lat="42.851792" lon="11.5088529"><ele>835.2</ele><time>2026-04-26T11:28:52.197Z</time></trkpt><trkpt lat="42.8518425" lon="11.5090087"><ele>833.4000000000001</ele><time>2026-04-26T11:28:53.191Z</time></trkpt><trkpt lat="42.8518851" lon="11.5091416"><ele>831.5999999999999</ele><time>2026-04-26T11:28:54.198Z</time></trkpt><trkpt lat="42.8519227" lon="11.509252"><ele>829.8</ele><time>2026-04-26T11:28:55.185Z</time></trkpt><trkpt lat="42.8519479" lon="11.5093599"><ele>828.0</ele><time>2026-04-26T11:28:56.197Z</time></trkpt><trkpt lat="42.8519517" lon="11.5094717"><ele>828.5999999999999</ele><time>2026-04-26T11:28:57.189Z</time></trkpt><trkpt lat="42.8519337" lon="11.5095891"><ele>829.1999999999999</ele><time>2026-04-26T11:28:58.176Z</time></trkpt><trkpt lat="42.8518952" lon="11.5097153"><ele>829.8</ele><time>2026-04-26T11:28:59.176Z</time></trkpt><trkpt lat="42.8518599" lon="11.5098513"><ele>830.4</ele><time>2026-04-26T11:29:00.175Z</time></trkpt><trkpt lat="42.851785" lon="11.5100165"><ele>831.0</ele><time>2026-04-26T11:29:01.183Z</time></trkpt><trkpt lat="42.8517226" lon="11.5101913"><ele>832.0</ele><time>2026-04-26T11:29:02.189Z</time></trkpt><trkpt lat="42.8516763" lon="11.5103674"><ele>833.0</ele><time>2026-04-26T11:29:03.173Z</time></trkpt><trkpt lat="42.8516372" lon="11.5105375"><ele>834.0</ele><time>2026-04-26T11:29:04.181Z</time></trkpt><trkpt lat="42.8515983" lon="11.5106919"><ele>835.0</ele><time>2026-04-26T11:29:05.174Z</time></trkpt><trkpt lat="42.8515608" lon="11.5108396"><ele>835.0</ele><time>2026-04-26T11:29:06.187Z</time></trkpt><trkpt lat="42.8515315" lon="11.5109855"><ele>835.0</ele><time>2026-04-26T11:29:07.189Z</time></trkpt><trkpt lat="42.851503" lon="11.5111278"><ele>835.0</ele><time>2026-04-26T11:29:08.171Z</time></trkpt><trkpt lat="42.8515022" lon="11.5112826"><ele>835.0</ele><time>2026-04-26T11:29:09.182Z</time></trkpt><trkpt lat="42.8515174" lon="11.5114403"><ele>835.0</ele><time>2026-04-26T11:29:10.178Z</time></trkpt><trkpt lat="42.8515456" lon="11.5116036"><ele>835.0</ele><time>2026-04-26T11:29:11.189Z</time></trkpt><trkpt lat="42.8515816" lon="11.5117682"><ele>835.0</ele><time>2026-04-26T11:29:12.19Z</time></trkpt><trkpt lat="42.8516187" lon="11.511937"><ele>835.0</ele><time>2026-04-26T11:29:13.189Z</time></trkpt><trkpt lat="42.8516581" lon="11.5121102"><ele>835.0</ele><time>2026-04-26T11:29:14.185Z</time></trkpt><trkpt lat="42.8516982" lon="11.5122837"><ele>835.0</ele><time>2026-04-26T11:29:15.176Z</time></trkpt><trkpt lat="42.8517375" lon="11.5124542"><ele>835.0</ele><time>2026-04-26T11:29:16.195Z</time></trkpt><trkpt lat="42.851772" lon="11.5126153"><ele>835.0</ele><time>2026-04-26T11:29:17.186Z</time></trkpt><trkpt lat="42.8517992" lon="11.5127734"><ele>835.0</ele><time>2026-04-26T11:29:18.182Z</time></trkpt><trkpt lat="42.8518201" lon="11.5129321"><ele>828.25</ele><time>2026-04-26T11:29:19.187Z</time></trkpt><trkpt lat="42.8518352" lon="11.5130925"><ele>821.5</ele><time>2026-04-26T11:29:20.202Z</time></trkpt><trkpt lat="42.8518501" lon="11.513249"><ele>814.75</ele><time>2026-04-26T11:29:21.195Z</time></trkpt><trkpt lat="42.8518448" lon="11.5134069"><ele>808.0</ele><time>2026-04-26T11:29:22.2Z</time></trkpt><trkpt lat="42.851832" lon="11.513564"><ele>808.0</ele><time>2026-04-26T11:29:23.192Z</time></trkpt><trkpt lat="42.8518166" lon="11.5137208"><ele>808.0</ele><time>2026-04-26T11:29:24.187Z</time></trkpt><trkpt lat="42.8518049" lon="11.5138772"><ele>808.0</ele><time>2026-04-26T11:29:25.202Z</time></trkpt><trkpt lat="42.8518004" lon="11.5140325"><ele>808.0</ele><time>2026-04-26T11:29:26.197Z</time></trkpt><trkpt lat="42.8517991" lon="11.5141748"><ele>808.0</ele><time>2026-04-26T11:29:27.19Z</time></trkpt><trkpt lat="42.8517984" lon="11.5143"><ele>807.9999999999999</ele><time>2026-04-26T11:29:28.195Z</time></trkpt><trkpt lat="42.8517952" lon="11.5144124"><ele>808.0</ele><time>2026-04-26T11:29:29.198Z</time></trkpt><trkpt lat="42.8517915" lon="11.5145181"><ele>808.0</ele><time>2026-04-26T11:29:30.181Z</time></trkpt><trkpt lat="42.8517465" lon="11.5146044"><ele>808.0</ele><time>2026-04-26T11:29:31.195Z</time></trkpt><trkpt lat="42.8516681" lon="11.5146713"><ele>807.9999999999999</ele><time>2026-04-26T11:29:32.192Z</time></trkpt><trkpt lat="42.8515591" lon="11.5147281"><ele>808.0</ele><time>2026-04-26T11:29:33.185Z</time></trkpt><trkpt lat="42.8514364" lon="11.5147967"><ele>808.0</ele><time>2026-04-26T11:29:34.184Z</time></trkpt><trkpt lat="42.8513119" lon="11.5148746"><ele>808.0</ele><time>2026-04-26T11:29:35.2Z</time></trkpt><trkpt lat="42.8511913" lon="11.5149517"><ele>808.0</ele><time>2026-04-26T11:29:36.199Z</time></trkpt><trkpt lat="42.8510786" lon="11.5150233"><ele>808.0</ele><time>2026-04-26T11:29:37.191Z</time></trkpt><trkpt lat="42.8509737" lon="11.5150883"><ele>807.4</ele><time>2026-04-26T11:29:38.184Z</time></trkpt><trkpt lat="42.8508743" lon="11.5151453"><ele>806.8</ele><time>2026-04-26T11:29:39.195Z</time></trkpt><trkpt lat="42.850778" lon="11.5151969"><ele>806.2</ele><time>2026-04-26T11:29:40.188Z</time></trkpt><trkpt lat="42.8506945" lon="11.5152557"><ele>805.6</ele><time>2026-04-26T11:29:41.193Z</time></trkpt><trkpt lat="42.8506348" lon="11.5153414"><ele>805.0</ele><time>2026-04-26T11:29:42.197Z</time></trkpt><trkpt lat="42.8506007" lon="11.5154628"><ele>802.8</ele><time>2026-04-26T11:29:43.195Z</time></trkpt><trkpt lat="42.8505855" lon="11.515609"><ele>800.6</ele><time>2026-04-26T11:29:44.191Z</time></trkpt><trkpt lat="42.8505883" lon="11.515766"><ele>798.4000000000001</ele><time>2026-04-26T11:29:45.197Z</time></trkpt><trkpt lat="42.8506073" lon="11.5159205"><ele>796.2</ele><time>2026-04-26T11:29:46.181Z</time></trkpt><trkpt lat="42.8506364" lon="11.5160637"><ele>794.0</ele><time>2026-04-26T11:29:47.2Z</time></trkpt><trkpt lat="42.8506719" lon="11.5161884"><ele>792.4000000000001</ele><time>2026-04-26T11:29:48.192Z</time></trkpt><trkpt lat="42.8507227" lon="11.5163022"><ele>790.8</ele><time>2026-04-26T11:29:49.199Z</time></trkpt><trkpt lat="42.8507899" lon="11.5164041"><ele>789.2</ele><time>2026-04-26T11:29:50.195Z</time></trkpt><trkpt lat="42.8508652" lon="11.5165027"><ele>787.5999999999999</ele><time>2026-04-26T11:29:51.201Z</time></trkpt><trkpt lat="42.8509424" lon="11.5166091"><ele>786.0</ele><time>2026-04-26T11:29:52.201Z</time></trkpt><trkpt lat="42.8510179" lon="11.5167307"><ele>783.5</ele><time>2026-04-26T11:29:53.183Z</time></trkpt><trkpt lat="42.8510898" lon="11.5168606"><ele>781.0</ele><time>2026-04-26T11:29:54.197Z</time></trkpt><trkpt lat="42.8511659" lon="11.516985"><ele>778.5</ele><time>2026-04-26T11:29:55.193Z</time></trkpt><trkpt lat="42.8512524" lon="11.5170918"><ele>776.0</ele><time>2026-04-26T11:29:56.189Z</time></trkpt><trkpt lat="42.8513496" lon="11.5171775"><ele>776.0</ele><time>2026-04-26T11:29:57.188Z</time></trkpt><trkpt lat="42.8514525" lon="11.5172501"><ele>776.0</ele><time>2026-04-26T11:29:58.188Z</time></trkpt><trkpt lat="42.8515568" lon="11.5173213"><ele>776.0</ele><time>2026-04-26T11:29:59.203Z</time></trkpt><trkpt lat="42.8516607" lon="11.5173987"><ele>776.0</ele><time>2026-04-26T11:30:00.192Z</time></trkpt><trkpt lat="42.8517635" lon="11.5174845"><ele>772.8</ele><time>2026-04-26T11:30:01.191Z</time></trkpt><trkpt lat="42.8518658" lon="11.5175697"><ele>769.5999999999999</ele><time>2026-04-26T11:30:02.178Z</time></trkpt><trkpt lat="42.8519654" lon="11.5176507"><ele>766.4</ele><time>2026-04-26T11:30:03.177Z</time></trkpt><trkpt lat="42.8520534" lon="11.5177239"><ele>763.2</ele><time>2026-04-26T11:30:04.201Z</time></trkpt><trkpt lat="42.8521274" lon="11.5177894"><ele>760.0</ele><time>2026-04-26T11:30:05.193Z</time></trkpt><trkpt lat="42.8521863" lon="11.5178487"><ele>762.1428571428571</ele><time>2026-04-26T11:30:06.196Z</time></trkpt><trkpt lat="42.8522451" lon="11.5179046"><ele>764.2857142857143</ele><time>2026-04-26T11:30:07.192Z</time></trkpt><trkpt lat="42.8522983" lon="11.5179716"><ele>766.4285714285713</ele><time>2026-04-26T11:30:08.184Z</time></trkpt><trkpt lat="42.8523504" lon="11.5180449"><ele>768.5714285714286</ele><time>2026-04-26T11:30:09.198Z</time></trkpt><trkpt lat="42.8523972" lon="11.5181222"><ele>770.7142857142857</ele><time>2026-04-26T11:30:10.199Z</time></trkpt><trkpt lat="42.8524456" lon="11.5181949"><ele>772.8571428571428</ele><time>2026-04-26T11:30:11.191Z</time></trkpt><trkpt lat="42.852491" lon="11.518269"><ele>775.0</ele><time>2026-04-26T11:30:12.2Z</time></trkpt><trkpt lat="42.8525354" lon="11.5183363"><ele>775.0</ele><time>2026-04-26T11:30:13.182Z</time></trkpt><trkpt lat="42.8526107" lon="11.518433"><ele>775.0</ele><time>2026-04-26T11:30:15.196Z</time></trkpt><trkpt lat="42.8526775" lon="11.5185549"><ele>775.0</ele><time>2026-04-26T11:30:17.198Z</time></trkpt><trkpt lat="42.8527185" lon="11.5187138"><ele>775.0</ele><time>2026-04-26T11:30:19.19Z</time></trkpt><trkpt lat="42.8526971" lon="11.5188242"><ele>775.0</ele><time>2026-04-26T11:30:20.194Z</time></trkpt><trkpt lat="42.8526677" lon="11.5189477"><ele>775.3333333333333</ele><time>2026-04-26T11:30:21.2Z</time></trkpt><trkpt lat="42.8526284" lon="11.5190711"><ele>775.6666666666666</ele><time>2026-04-26T11:30:22.187Z</time></trkpt><trkpt lat="42.8525869" lon="11.5191862"><ele>776.0</ele><time>2026-04-26T11:30:23.194Z</time></trkpt><trkpt lat="42.8525487" lon="11.5192994"><ele>776.3333333333333</ele><time>2026-04-26T11:30:24.194Z</time></trkpt><trkpt lat="42.852525" lon="11.5194033"><ele>776.6666666666666</ele><time>2026-04-26T11:30:25.193Z</time></trkpt><trkpt lat="42.8525629" lon="11.5195058"><ele>777.0</ele><time>2026-04-26T11:30:26.188Z</time></trkpt><trkpt lat="42.8526372" lon="11.5195978"><ele>775.5</ele><time>2026-04-26T11:30:27.187Z</time></trkpt><trkpt lat="42.8527129" lon="11.5196734"><ele>774.0</ele><time>2026-04-26T11:30:28.195Z</time></trkpt><trkpt lat="42.8527812" lon="11.5197337"><ele>772.5</ele><time>2026-04-26T11:30:29.194Z</time></trkpt><trkpt lat="42.8528473" lon="11.5197924"><ele>771.0</ele><time>2026-04-26T11:30:30.198Z</time></trkpt><trkpt lat="42.8528955" lon="11.5198585"><ele>769.5</ele><time>2026-04-26T11:30:31.197Z</time></trkpt><trkpt lat="42.8529565" lon="11.5199843"><ele>768.0</ele><time>2026-04-26T11:30:33.191Z</time></trkpt><trkpt lat="42.8529924" lon="11.5200798"><ele>768.0</ele><time>2026-04-26T11:30:35.196Z</time></trkpt><trkpt lat="42.8530216" lon="11.5201607"><ele>768.0</ele><time>2026-04-26T11:30:38.19Z</time></trkpt><trkpt lat="42.8530162" lon="11.5202858"><ele>768.0</ele><time>2026-04-26T11:30:57.192Z</time></trkpt><trkpt lat="42.8529754" lon="11.5204168"><ele>768.0</ele><time>2026-04-26T11:30:59.19Z</time></trkpt><trkpt lat="42.8529457" lon="11.5204984"><ele>768.0</ele><time>2026-04-26T11:31:00.198Z</time></trkpt><trkpt lat="42.852914" lon="11.5205759"><ele>768.0</ele><time>2026-04-26T11:31:01.193Z</time></trkpt><trkpt lat="42.8528791" lon="11.5206592"><ele>768.1666666666666</ele><time>2026-04-26T11:31:02.197Z</time></trkpt><trkpt lat="42.8528417" lon="11.5207525"><ele>768.3333333333333</ele><time>2026-04-26T11:31:03.191Z</time></trkpt><trkpt lat="42.8527978" lon="11.5208534"><ele>768.5</ele><time>2026-04-26T11:31:04.192Z</time></trkpt><trkpt lat="42.8527413" lon="11.5209494"><ele>768.6666666666666</ele><time>2026-04-26T11:31:05.194Z</time></trkpt><trkpt lat="42.8526705" lon="11.5210327"><ele>768.8333333333333</ele><time>2026-04-26T11:31:06.193Z</time></trkpt><trkpt lat="42.8525896" lon="11.5210977"><ele>769.0</ele><time>2026-04-26T11:31:07.193Z</time></trkpt><trkpt lat="42.8525067" lon="11.5211678"><ele>771.0</ele><time>2026-04-26T11:31:08.187Z</time></trkpt><trkpt lat="42.8524186" lon="11.5212465"><ele>773.0</ele><time>2026-04-26T11:31:09.184Z</time></trkpt><trkpt lat="42.8523266" lon="11.5213231"><ele>775.0</ele><time>2026-04-26T11:31:10.184Z</time></trkpt><trkpt lat="42.8522335" lon="11.5213992"><ele>777.0</ele><time>2026-04-26T11:31:11.185Z</time></trkpt><trkpt lat="42.8521367" lon="11.521475"><ele>779.0</ele><time>2026-04-26T11:31:12.194Z</time></trkpt><trkpt lat="42.8520408" lon="11.5215422"><ele>779.0</ele><time>2026-04-26T11:31:13.184Z</time></trkpt><trkpt lat="42.8519408" lon="11.5216017"><ele>779.0</ele><time>2026-04-26T11:31:14.181Z</time></trkpt><trkpt lat="42.8518372" lon="11.5216468"><ele>779.0</ele><time>2026-04-26T11:31:15.201Z</time></trkpt><trkpt lat="42.851731" lon="11.5216736"><ele>779.0</ele><time>2026-04-26T11:31:16.182Z</time></trkpt><trkpt lat="42.8516228" lon="11.5216779"><ele>779.0</ele><time>2026-04-26T11:31:17.197Z</time></trkpt><trkpt lat="42.8515118" lon="11.5216559"><ele>781.25</ele><time>2026-04-26T11:31:18.2Z</time></trkpt><trkpt lat="42.8514004" lon="11.5215954"><ele>783.5</ele><time>2026-04-26T11:31:19.196Z</time></trkpt><trkpt lat="42.8512926" lon="11.5215014"><ele>785.75</ele><time>2026-04-26T11:31:20.198Z</time></trkpt><trkpt lat="42.8511831" lon="11.5213987"><ele>788.0</ele><time>2026-04-26T11:31:21.192Z</time></trkpt><trkpt lat="42.851066" lon="11.521298"><ele>791.5</ele><time>2026-04-26T11:31:22.19Z</time></trkpt><trkpt lat="42.8509467" lon="11.5211891"><ele>795.0</ele><time>2026-04-26T11:31:23.197Z</time></trkpt><trkpt lat="42.8508306" lon="11.5210672"><ele>798.5</ele><time>2026-04-26T11:31:24.182Z</time></trkpt><trkpt lat="42.8507165" lon="11.5209449"><ele>802.0</ele><time>2026-04-26T11:31:25.193Z</time></trkpt><trkpt lat="42.8506073" lon="11.5208271"><ele>802.0</ele><time>2026-04-26T11:31:26.189Z</time></trkpt><trkpt lat="42.8505004" lon="11.5207086"><ele>802.0</ele><time>2026-04-26T11:31:27.197Z</time></trkpt><trkpt lat="42.8503935" lon="11.5205903"><ele>802.0</ele><time>2026-04-26T11:31:28.195Z</time></trkpt><trkpt lat="42.8502846" lon="11.5204758"><ele>802.0</ele><time>2026-04-26T11:31:29.185Z</time></trkpt><trkpt lat="42.8501756" lon="11.5203606"><ele>804.5</ele><time>2026-04-26T11:31:30.191Z</time></trkpt><trkpt lat="42.8500668" lon="11.5202427"><ele>807.0</ele><time>2026-04-26T11:31:31.192Z</time></trkpt><trkpt lat="42.8499574" lon="11.5201235"><ele>809.5</ele><time>2026-04-26T11:31:32.19Z</time></trkpt><trkpt lat="42.849849" lon="11.5200124"><ele>812.0</ele><time>2026-04-26T11:31:33.199Z</time></trkpt><trkpt lat="42.8497484" lon="11.5198949"><ele>812.0</ele><time>2026-04-26T11:31:34.18Z</time></trkpt><trkpt lat="42.8496593" lon="11.5197564"><ele>812.0</ele><time>2026-04-26T11:31:35.188Z</time></trkpt><trkpt lat="42.8495847" lon="11.5196006"><ele>812.0</ele><time>2026-04-26T11:31:36.192Z</time></trkpt><trkpt lat="42.8495114" lon="11.5194447"><ele>812.0</ele><time>2026-04-26T11:31:37.185Z</time></trkpt><trkpt lat="42.8494397" lon="11.5192952"><ele>811.0</ele><time>2026-04-26T11:31:38.19Z</time></trkpt><trkpt lat="42.8493669" lon="11.519156"><ele>810.0</ele><time>2026-04-26T11:31:39.195Z</time></trkpt><trkpt lat="42.8492483" lon="11.5190842"><ele>809.0</ele><time>2026-04-26T11:31:40.179Z</time></trkpt><trkpt lat="42.8491169" lon="11.5190435"><ele>808.0</ele><time>2026-04-26T11:31:41.179Z</time></trkpt><trkpt lat="42.8489786" lon="11.5190098"><ele>811.25</ele><time>2026-04-26T11:31:42.196Z</time></trkpt><trkpt lat="42.8488339" lon="11.5189654"><ele>814.5</ele><time>2026-04-26T11:31:43.183Z</time></trkpt><trkpt lat="42.8486897" lon="11.5189156"><ele>817.75</ele><time>2026-04-26T11:31:44.186Z</time></trkpt><trkpt lat="42.8485459" lon="11.5188637"><ele>821.0</ele><time>2026-04-26T11:31:45.19Z</time></trkpt><trkpt lat="42.8484075" lon="11.5188094"><ele>824.0</ele><time>2026-04-26T11:31:46.202Z</time></trkpt><trkpt lat="42.8482752" lon="11.5187582"><ele>827.0</ele><time>2026-04-26T11:31:47.198Z</time></trkpt><trkpt lat="42.8481461" lon="11.5187219"><ele>830.0</ele><time>2026-04-26T11:31:48.185Z</time></trkpt><trkpt lat="42.8480179" lon="11.5186815"><ele>833.0</ele><time>2026-04-26T11:31:49.192Z</time></trkpt><trkpt lat="42.8478811" lon="11.518707"><ele>833.25</ele><time>2026-04-26T11:31:50.188Z</time></trkpt><trkpt lat="42.8477511" lon="11.518737"><ele>833.5</ele><time>2026-04-26T11:31:51.198Z</time></trkpt><trkpt lat="42.8476332" lon="11.5187736"><ele>833.75</ele><time>2026-04-26T11:31:52.198Z</time></trkpt><trkpt lat="42.8475262" lon="11.5188431"><ele>834.0</ele><time>2026-04-26T11:31:53.197Z</time></trkpt><trkpt lat="42.8474384" lon="11.5189624"><ele>835.5</ele><time>2026-04-26T11:31:54.188Z</time></trkpt><trkpt lat="42.8473737" lon="11.5191177"><ele>837.0</ele><time>2026-04-26T11:31:55.204Z</time></trkpt><trkpt lat="42.8473176" lon="11.5192893"><ele>838.5</ele><time>2026-04-26T11:31:56.185Z</time></trkpt><trkpt lat="42.8472593" lon="11.5194669"><ele>840.0</ele><time>2026-04-26T11:31:57.2Z</time></trkpt><trkpt lat="42.8471907" lon="11.5196391"><ele>840.0</ele><time>2026-04-26T11:31:58.181Z</time></trkpt><trkpt lat="42.8471086" lon="11.5198017"><ele>840.0</ele><time>2026-04-26T11:31:59.186Z</time></trkpt><trkpt lat="42.8470221" lon="11.5199583"><ele>840.0</ele><time>2026-04-26T11:32:00.195Z</time></trkpt><trkpt lat="42.8469477" lon="11.5201199"><ele>840.0</ele><time>2026-04-26T11:32:01.183Z</time></trkpt><trkpt lat="42.8468957" lon="11.5202854"><ele>840.0</ele><time>2026-04-26T11:32:02.196Z</time></trkpt><trkpt lat="42.8468554" lon="11.5204384"><ele>840.0</ele><time>2026-04-26T11:32:03.198Z</time></trkpt><trkpt lat="42.846811" lon="11.5205833"><ele>840.0</ele><time>2026-04-26T11:32:04.174Z</time></trkpt><trkpt lat="42.8467491" lon="11.5206884"><ele>840.0</ele><time>2026-04-26T11:32:05.201Z</time></trkpt><trkpt lat="42.8466689" lon="11.5207491"><ele>840.0</ele><time>2026-04-26T11:32:06.181Z</time></trkpt><trkpt lat="42.846592" lon="11.5207501"><ele>842.0</ele><time>2026-04-26T11:32:07.194Z</time></trkpt><trkpt lat="42.8465237" lon="11.5207457"><ele>844.0</ele><time>2026-04-26T11:32:08.193Z</time></trkpt><trkpt lat="42.8465036" lon="11.5206471"><ele>846.0</ele><time>2026-04-26T11:32:09.19Z</time></trkpt><trkpt lat="42.8465126" lon="11.5205271"><ele>848.0</ele><time>2026-04-26T11:32:10.193Z</time></trkpt><trkpt lat="42.8465329" lon="11.5203937"><ele>850.0</ele><time>2026-04-26T11:32:11.198Z</time></trkpt><trkpt lat="42.8465527" lon="11.5202428"><ele>852.0</ele><time>2026-04-26T11:32:12.182Z</time></trkpt><trkpt lat="42.8465717" lon="11.5200848"><ele>853.4000000000001</ele><time>2026-04-26T11:32:13.195Z</time></trkpt><trkpt lat="42.8465899" lon="11.5199208"><ele>854.8000000000001</ele><time>2026-04-26T11:32:14.182Z</time></trkpt><trkpt lat="42.8465905" lon="11.5197697"><ele>856.2</ele><time>2026-04-26T11:32:15.181Z</time></trkpt><trkpt lat="42.8465595" lon="11.51964"><ele>857.6</ele><time>2026-04-26T11:32:16.204Z</time></trkpt><trkpt lat="42.8464898" lon="11.5195479"><ele>859.0</ele><time>2026-04-26T11:32:17.18Z</time></trkpt><trkpt lat="42.8463872" lon="11.5195143"><ele>859.8000000000001</ele><time>2026-04-26T11:32:18.188Z</time></trkpt><trkpt lat="42.8462818" lon="11.5194902"><ele>860.6000000000001</ele><time>2026-04-26T11:32:19.192Z</time></trkpt><trkpt lat="42.8461633" lon="11.519502"><ele>861.4</ele><time>2026-04-26T11:32:20.197Z</time></trkpt><trkpt lat="42.8460593" lon="11.5194773"><ele>862.2</ele><time>2026-04-26T11:32:21.184Z</time></trkpt><trkpt lat="42.8459793" lon="11.5194154"><ele>863.0</ele><time>2026-04-26T11:32:22.182Z</time></trkpt><trkpt lat="42.8459354" lon="11.5193301"><ele>865.3333333333334</ele><time>2026-04-26T11:32:23.179Z</time></trkpt><trkpt lat="42.8459171" lon="11.5192403"><ele>867.6666666666667</ele><time>2026-04-26T11:32:24.21Z</time></trkpt><trkpt lat="42.8459101" lon="11.519146"><ele>870.0</ele><time>2026-04-26T11:32:25.184Z</time></trkpt><trkpt lat="42.8459123" lon="11.5190465"><ele>872.3333333333333</ele><time>2026-04-26T11:32:26.198Z</time></trkpt><trkpt lat="42.8459216" lon="11.518935"><ele>874.6666666666666</ele><time>2026-04-26T11:32:27.182Z</time></trkpt><trkpt lat="42.8459317" lon="11.5188113"><ele>877.0</ele><time>2026-04-26T11:32:28.191Z</time></trkpt><trkpt lat="42.8459389" lon="11.5186787"><ele>878.8</ele><time>2026-04-26T11:32:29.199Z</time></trkpt><trkpt lat="42.8459452" lon="11.5185422"><ele>880.6</ele><time>2026-04-26T11:32:30.184Z</time></trkpt><trkpt lat="42.8459477" lon="11.518399"><ele>882.3999999999999</ele><time>2026-04-26T11:32:31.2Z</time></trkpt><trkpt lat="42.8459596" lon="11.51825"><ele>884.1999999999999</ele><time>2026-04-26T11:32:32.188Z</time></trkpt><trkpt lat="42.845984" lon="11.5180993"><ele>886.0</ele><time>2026-04-26T11:32:33.192Z</time></trkpt><trkpt lat="42.8460188" lon="11.5179464"><ele>885.25</ele><time>2026-04-26T11:32:34.179Z</time></trkpt><trkpt lat="42.8460631" lon="11.5177953"><ele>884.5</ele><time>2026-04-26T11:32:35.199Z</time></trkpt><trkpt lat="42.8461157" lon="11.5176509"><ele>883.75</ele><time>2026-04-26T11:32:36.193Z</time></trkpt><trkpt lat="42.8461773" lon="11.5175195"><ele>883.0</ele><time>2026-04-26T11:32:37.189Z</time></trkpt><trkpt lat="42.846238" lon="11.5173946"><ele>883.0</ele><time>2026-04-26T11:32:38.18Z</time></trkpt><trkpt lat="42.846311" lon="11.5172956"><ele>883.0</ele><time>2026-04-26T11:32:39.183Z</time></trkpt><trkpt lat="42.8463936" lon="11.5172178"><ele>883.0</ele><time>2026-04-26T11:32:40.178Z</time></trkpt><trkpt lat="42.8464801" lon="11.5171521"><ele>883.0</ele><time>2026-04-26T11:32:41.194Z</time></trkpt><trkpt lat="42.8465583" lon="11.5170712"><ele>883.0</ele><time>2026-04-26T11:32:42.182Z</time></trkpt><trkpt lat="42.8466348" lon="11.5169964"><ele>885.4999999999999</ele><time>2026-04-26T11:32:43.18Z</time></trkpt><trkpt lat="42.8466997" lon="11.5169221"><ele>888.0</ele><time>2026-04-26T11:32:44.18Z</time></trkpt><trkpt lat="42.846713" lon="11.5168103"><ele>890.5</ele><time>2026-04-26T11:32:45.195Z</time></trkpt><trkpt lat="42.8467246" lon="11.5167008"><ele>893.0</ele><time>2026-04-26T11:32:46.179Z</time></trkpt><trkpt lat="42.8467067" lon="11.5165895"><ele>895.4999999999999</ele><time>2026-04-26T11:32:47.196Z</time></trkpt><trkpt lat="42.846667" lon="11.5164833"><ele>898.0</ele><time>2026-04-26T11:32:48.185Z</time></trkpt><trkpt lat="42.846601" lon="11.516388"><ele>898.0</ele><time>2026-04-26T11:32:49.192Z</time></trkpt><trkpt lat="42.8465249" lon="11.5163067"><ele>898.0</ele><time>2026-04-26T11:32:50.191Z</time></trkpt><trkpt lat="42.846437" lon="11.5162298"><ele>898.0</ele><time>2026-04-26T11:32:51.185Z</time></trkpt><trkpt lat="42.8463409" lon="11.5161758"><ele>898.0</ele><time>2026-04-26T11:32:52.186Z</time></trkpt><trkpt lat="42.8462402" lon="11.516132"><ele>898.0</ele><time>2026-04-26T11:32:53.189Z</time></trkpt><trkpt lat="42.8461413" lon="11.5160798"><ele>898.5999999999999</ele><time>2026-04-26T11:32:54.188Z</time></trkpt><trkpt lat="42.8460475" lon="11.51603"><ele>899.1999999999999</ele><time>2026-04-26T11:32:55.188Z</time></trkpt><trkpt lat="42.8459465" lon="11.5159806"><ele>899.8</ele><time>2026-04-26T11:32:56.191Z</time></trkpt><trkpt lat="42.8458465" lon="11.5159377"><ele>900.4</ele><time>2026-04-26T11:32:57.192Z</time></trkpt><trkpt lat="42.8457455" lon="11.5158909"><ele>901.0</ele><time>2026-04-26T11:32:58.189Z</time></trkpt><trkpt lat="42.8456519" lon="11.5158412"><ele>902.8333333333333</ele><time>2026-04-26T11:32:59.193Z</time></trkpt><trkpt lat="42.8455667" lon="11.5157968"><ele>904.6666666666666</ele><time>2026-04-26T11:33:00.186Z</time></trkpt><trkpt lat="42.8455029" lon="11.5157524"><ele>906.5</ele><time>2026-04-26T11:33:01.192Z</time></trkpt><trkpt lat="42.8454503" lon="11.5157028"><ele>908.3333333333333</ele><time>2026-04-26T11:33:02.184Z</time></trkpt><trkpt lat="42.8454038" lon="11.5155522"><ele>910.1666666666666</ele><time>2026-04-26T11:33:04.188Z</time></trkpt><trkpt lat="42.8454036" lon="11.5154383"><ele>912.0</ele><time>2026-04-26T11:33:05.194Z</time></trkpt><trkpt lat="42.8454216" lon="11.515314"><ele>913.1666666666666</ele><time>2026-04-26T11:33:06.18Z</time></trkpt><trkpt lat="42.8454475" lon="11.5151921"><ele>914.3333333333333</ele><time>2026-04-26T11:33:07.179Z</time></trkpt><trkpt lat="42.8454918" lon="11.5151297"><ele>915.5</ele><time>2026-04-26T11:33:08.19Z</time></trkpt><trkpt lat="42.8455543" lon="11.5150973"><ele>916.6666666666666</ele><time>2026-04-26T11:33:09.187Z</time></trkpt><trkpt lat="42.8456402" lon="11.5151022"><ele>917.8333333333333</ele><time>2026-04-26T11:33:10.194Z</time></trkpt><trkpt lat="42.8457296" lon="11.5151071"><ele>919.0</ele><time>2026-04-26T11:33:11.194Z</time></trkpt><trkpt lat="42.8458172" lon="11.5150697"><ele>919.0</ele><time>2026-04-26T11:33:12.197Z</time></trkpt><trkpt lat="42.8459116" lon="11.5150318"><ele>919.0000000000001</ele><time>2026-04-26T11:33:13.178Z</time></trkpt><trkpt lat="42.8459927" lon="11.5149371"><ele>919.0000000000001</ele><time>2026-04-26T11:33:14.188Z</time></trkpt><trkpt lat="42.846056" lon="11.5148063"><ele>919.0</ele><time>2026-04-26T11:33:15.176Z</time></trkpt><trkpt lat="42.8461268" lon="11.514668"><ele>919.0</ele><time>2026-04-26T11:33:16.179Z</time></trkpt><trkpt lat="42.846218" lon="11.5144836"><ele>921.0</ele><time>2026-04-26T11:33:17.192Z</time></trkpt><trkpt lat="42.8463026" lon="11.5142996"><ele>923.0</ele><time>2026-04-26T11:33:18.191Z</time></trkpt><trkpt lat="42.8463937" lon="11.514126"><ele>925.0</ele><time>2026-04-26T11:33:19.179Z</time></trkpt><trkpt lat="42.8464848" lon="11.5139854"><ele>925.0</ele><time>2026-04-26T11:33:20.185Z</time></trkpt><trkpt lat="42.8465484" lon="11.5138982"><ele>925.0</ele><time>2026-04-26T11:33:21.174Z</time></trkpt><trkpt lat="42.8465936" lon="11.5138263"><ele>925.0</ele><time>2026-04-26T11:33:22.185Z</time></trkpt><trkpt lat="42.8466371" lon="11.5137436"><ele>925.0</ele><time>2026-04-26T11:33:23.182Z</time></trkpt><trkpt lat="42.8466078" lon="11.5136638"><ele>925.0</ele><time>2026-04-26T11:33:24.195Z</time></trkpt><trkpt lat="42.8465719" lon="11.5135831"><ele>925.0</ele><time>2026-04-26T11:33:25.185Z</time></trkpt><trkpt lat="42.8465015" lon="11.5135701"><ele>925.0</ele><time>2026-04-26T11:33:26.194Z</time></trkpt><trkpt lat="42.8464215" lon="11.513581"><ele>925.2</ele><time>2026-04-26T11:33:27.183Z</time></trkpt><trkpt lat="42.8463394" lon="11.5135955"><ele>925.4</ele><time>2026-04-26T11:33:28.179Z</time></trkpt><trkpt lat="42.8462432" lon="11.51363"><ele>925.5999999999999</ele><time>2026-04-26T11:33:29.177Z</time></trkpt><trkpt lat="42.846124" lon="11.5136266"><ele>925.8</ele><time>2026-04-26T11:33:30.19Z</time></trkpt><trkpt lat="42.8460107" lon="11.513624"><ele>926.0</ele><time>2026-04-26T11:33:31.18Z</time></trkpt><trkpt lat="42.8458887" lon="11.5136178"><ele>929.8</ele><time>2026-04-26T11:33:32.188Z</time></trkpt><trkpt lat="42.8457679" lon="11.5136112"><ele>933.5999999999999</ele><time>2026-04-26T11:33:33.172Z</time></trkpt><trkpt lat="42.8456608" lon="11.5136114"><ele>937.4</ele><time>2026-04-26T11:33:34.181Z</time></trkpt><trkpt lat="42.8455628" lon="11.5135969"><ele>941.2</ele><time>2026-04-26T11:33:35.18Z</time></trkpt><trkpt lat="42.8454794" lon="11.5135632"><ele>945.0</ele><time>2026-04-26T11:33:36.183Z</time></trkpt><trkpt lat="42.8454089" lon="11.5135085"><ele>945.0</ele><time>2026-04-26T11:33:37.191Z</time></trkpt><trkpt lat="42.8453449" lon="11.5134515"><ele>945.0</ele><time>2026-04-26T11:33:38.191Z</time></trkpt><trkpt lat="42.8453192" lon="11.5133416"><ele>945.0</ele><time>2026-04-26T11:33:39.177Z</time></trkpt><trkpt lat="42.845323" lon="11.513222"><ele>945.0</ele><time>2026-04-26T11:33:40.179Z</time></trkpt><trkpt lat="42.8453287" lon="11.5131137"><ele>945.0</ele><time>2026-04-26T11:33:41.179Z</time></trkpt><trkpt lat="42.8453449" lon="11.5129956"><ele>945.0</ele><time>2026-04-26T11:33:42.192Z</time></trkpt><trkpt lat="42.8453096" lon="11.5128902"><ele>943.8</ele><time>2026-04-26T11:33:43.179Z</time></trkpt><trkpt lat="42.8452473" lon="11.5128004"><ele>942.6</ele><time>2026-04-26T11:33:44.199Z</time></trkpt><trkpt lat="42.8451659" lon="11.5127191"><ele>941.4000000000001</ele><time>2026-04-26T11:33:45.183Z</time></trkpt><trkpt lat="42.8450745" lon="11.5126407"><ele>940.2</ele><time>2026-04-26T11:33:46.183Z</time></trkpt><trkpt lat="42.8449764" lon="11.512555"><ele>939.0</ele><time>2026-04-26T11:33:47.178Z</time></trkpt><trkpt lat="42.844875" lon="11.5124556"><ele>942.75</ele><time>2026-04-26T11:33:48.176Z</time></trkpt><trkpt lat="42.8447704" lon="11.5123516"><ele>946.5</ele><time>2026-04-26T11:33:49.181Z</time></trkpt><trkpt lat="42.8446647" lon="11.5122232"><ele>950.25</ele><time>2026-04-26T11:33:50.186Z</time></trkpt><trkpt lat="42.8445695" lon="11.5120886"><ele>954.0</ele><time>2026-04-26T11:33:51.181Z</time></trkpt><trkpt lat="42.8444746" lon="11.5119568"><ele>954.0</ele><time>2026-04-26T11:33:52.198Z</time></trkpt><trkpt lat="42.844382" lon="11.5118229"><ele>954.0</ele><time>2026-04-26T11:33:53.193Z</time></trkpt><trkpt lat="42.8443051" lon="11.511693"><ele>954.0</ele><time>2026-04-26T11:33:54.189Z</time></trkpt><trkpt lat="42.844251" lon="11.5115659"><ele>954.0</ele><time>2026-04-26T11:33:55.183Z</time></trkpt><trkpt lat="42.8442221" lon="11.511437"><ele>958.0</ele><time>2026-04-26T11:33:56.193Z</time></trkpt><trkpt lat="42.8441924" lon="11.511299"><ele>962.0</ele><time>2026-04-26T11:33:57.188Z</time></trkpt><trkpt lat="42.8441937" lon="11.5111421"><ele>966.0</ele><time>2026-04-26T11:33:58.189Z</time></trkpt><trkpt lat="42.8441995" lon="11.5109717"><ele>970.0</ele><time>2026-04-26T11:33:59.194Z</time></trkpt><trkpt lat="42.8442167" lon="11.5107964"><ele>970.75</ele><time>2026-04-26T11:34:00.192Z</time></trkpt><trkpt lat="42.8442345" lon="11.5106217"><ele>971.5</ele><time>2026-04-26T11:34:01.178Z</time></trkpt><trkpt lat="42.8442494" lon="11.5104492"><ele>972.25</ele><time>2026-04-26T11:34:02.198Z</time></trkpt><trkpt lat="42.8442681" lon="11.5102759"><ele>973.0</ele><time>2026-04-26T11:34:03.178Z</time></trkpt><trkpt lat="42.8442911" lon="11.5100898"><ele>973.0</ele><time>2026-04-26T11:34:04.179Z</time></trkpt><trkpt lat="42.8443093" lon="11.509911"><ele>973.0</ele><time>2026-04-26T11:34:05.177Z</time></trkpt><trkpt lat="42.8443249" lon="11.5097312"><ele>973.0</ele><time>2026-04-26T11:34:06.178Z</time></trkpt><trkpt lat="42.8443389" lon="11.509553"><ele>973.0</ele><time>2026-04-26T11:34:07.181Z</time></trkpt><trkpt lat="42.8443491" lon="11.5093806"><ele>976.5</ele><time>2026-04-26T11:34:08.19Z</time></trkpt><trkpt lat="42.8443633" lon="11.5092161"><ele>980.0</ele><time>2026-04-26T11:34:09.195Z</time></trkpt><trkpt lat="42.8443884" lon="11.509058"><ele>983.5</ele><time>2026-04-26T11:34:10.175Z</time></trkpt><trkpt lat="42.8444234" lon="11.5089033"><ele>987.0</ele><time>2026-04-26T11:34:11.183Z</time></trkpt><trkpt lat="42.8444657" lon="11.5087504"><ele>988.25</ele><time>2026-04-26T11:34:12.186Z</time></trkpt><trkpt lat="42.8445179" lon="11.5085989"><ele>989.5</ele><time>2026-04-26T11:34:13.191Z</time></trkpt><trkpt lat="42.8445772" lon="11.5084457"><ele>990.75</ele><time>2026-04-26T11:34:14.18Z</time></trkpt><trkpt lat="42.8446342" lon="11.508286"><ele>992.0</ele><time>2026-04-26T11:34:15.188Z</time></trkpt><trkpt lat="42.8446833" lon="11.5081131"><ele>992.0</ele><time>2026-04-26T11:34:16.19Z</time></trkpt><trkpt lat="42.8447214" lon="11.5079287"><ele>992.0</ele><time>2026-04-26T11:34:17.195Z</time></trkpt><trkpt lat="42.8447509" lon="11.5077382"><ele>992.0</ele><time>2026-04-26T11:34:18.189Z</time></trkpt><trkpt lat="42.8447744" lon="11.5075485"><ele>992.0</ele><time>2026-04-26T11:34:19.197Z</time></trkpt><trkpt lat="42.8447897" lon="11.5073597"><ele>992.75</ele><time>2026-04-26T11:34:20.185Z</time></trkpt><trkpt lat="42.8448006" lon="11.507176"><ele>993.5</ele><time>2026-04-26T11:34:21.178Z</time></trkpt><trkpt lat="42.844808" lon="11.5069956"><ele>994.25</ele><time>2026-04-26T11:34:22.175Z</time></trkpt><trkpt lat="42.8448104" lon="11.5068127"><ele>995.0</ele><time>2026-04-26T11:34:23.176Z</time></trkpt><trkpt lat="42.8448137" lon="11.5066257"><ele>995.5</ele><time>2026-04-26T11:34:24.184Z</time></trkpt><trkpt lat="42.8448163" lon="11.5064356"><ele>996.0</ele><time>2026-04-26T11:34:25.187Z</time></trkpt><trkpt lat="42.8448183" lon="11.5062462"><ele>996.5</ele><time>2026-04-26T11:34:26.188Z</time></trkpt><trkpt lat="42.8448213" lon="11.5060546"><ele>997.0</ele><time>2026-04-26T11:34:27.18Z</time></trkpt><trkpt lat="42.8448239" lon="11.5058626"><ele>997.0</ele><time>2026-04-26T11:34:28.197Z</time></trkpt><trkpt lat="42.8448265" lon="11.5056766"><ele>997.0</ele><time>2026-04-26T11:34:29.179Z</time></trkpt><trkpt lat="42.8448268" lon="11.5054937"><ele>997.0</ele><time>2026-04-26T11:34:30.183Z</time></trkpt><trkpt lat="42.8448201" lon="11.5053129"><ele>997.0</ele><time>2026-04-26T11:34:31.178Z</time></trkpt><trkpt lat="42.8448011" lon="11.5051404"><ele>996.75</ele><time>2026-04-26T11:34:32.19Z</time></trkpt><trkpt lat="42.8447647" lon="11.5049737"><ele>996.5</ele><time>2026-04-26T11:34:33.194Z</time></trkpt><trkpt lat="42.8447108" lon="11.5048098"><ele>996.25</ele><time>2026-04-26T11:34:34.185Z</time></trkpt><trkpt lat="42.8446414" lon="11.5046344"><ele>996.0</ele><time>2026-04-26T11:34:35.198Z</time></trkpt><trkpt lat="42.844572" lon="11.504459"><ele>996.0</ele><time>2026-04-26T11:34:36.184Z</time></trkpt><trkpt lat="42.8445039" lon="11.5042858"><ele>996.0</ele><time>2026-04-26T11:34:37.184Z</time></trkpt><trkpt lat="42.8444425" lon="11.5041076"><ele>996.0</ele><time>2026-04-26T11:34:38.189Z</time></trkpt><trkpt lat="42.8443882" lon="11.5039189"><ele>996.0</ele><time>2026-04-26T11:34:39.178Z</time></trkpt><trkpt lat="42.8443417" lon="11.5037227"><ele>997.0</ele><time>2026-04-26T11:34:40.196Z</time></trkpt><trkpt lat="42.8443014" lon="11.5035237"><ele>998.0</ele><time>2026-04-26T11:34:41.181Z</time></trkpt><trkpt lat="42.8442652" lon="11.5033269"><ele>999.0</ele><time>2026-04-26T11:34:42.191Z</time></trkpt><trkpt lat="42.8442338" lon="11.5031291"><ele>1000.0</ele><time>2026-04-26T11:34:43.179Z</time></trkpt><trkpt lat="42.8442067" lon="11.5029285"><ele>1001.0</ele><time>2026-04-26T11:34:44.193Z</time></trkpt><trkpt lat="42.8441839" lon="11.5027253"><ele>1002.0</ele><time>2026-04-26T11:34:45.182Z</time></trkpt><trkpt lat="42.8441665" lon="11.5025263"><ele>1003.0</ele><time>2026-04-26T11:34:46.191Z</time></trkpt><trkpt lat="42.8441508" lon="11.5023352"><ele>1004.0</ele><time>2026-04-26T11:34:47.189Z</time></trkpt><trkpt lat="42.8441341" lon="11.5021538"><ele>1002.5</ele><time>2026-04-26T11:34:48.197Z</time></trkpt><trkpt lat="42.8441135" lon="11.5019802"><ele>1001.0</ele><time>2026-04-26T11:34:49.185Z</time></trkpt><trkpt lat="42.8440841" lon="11.5018155"><ele>999.5</ele><time>2026-04-26T11:34:50.189Z</time></trkpt><trkpt lat="42.8440437" lon="11.5016613"><ele>998.0</ele><time>2026-04-26T11:34:51.175Z</time></trkpt><trkpt lat="42.8439905" lon="11.5015181"><ele>998.0</ele><time>2026-04-26T11:34:52.194Z</time></trkpt><trkpt lat="42.8439247" lon="11.5013745"><ele>998.0</ele><time>2026-04-26T11:34:53.192Z</time></trkpt><trkpt lat="42.8438535" lon="11.5012207"><ele>998.0</ele><time>2026-04-26T11:34:54.194Z</time></trkpt><trkpt lat="42.8437919" lon="11.5010527"><ele>998.0</ele><time>2026-04-26T11:34:55.197Z</time></trkpt><trkpt lat="42.8437481" lon="11.5008785"><ele>996.0</ele><time>2026-04-26T11:34:56.186Z</time></trkpt><trkpt lat="42.8437147" lon="11.5006986"><ele>994.0</ele><time>2026-04-26T11:34:57.196Z</time></trkpt><trkpt lat="42.8436879" lon="11.5005196"><ele>992.0</ele><time>2026-04-26T11:34:58.191Z</time></trkpt><trkpt lat="42.8436679" lon="11.5003369"><ele>990.0</ele><time>2026-04-26T11:34:59.194Z</time></trkpt><trkpt lat="42.843654" lon="11.5001482"><ele>989.5</ele><time>2026-04-26T11:35:00.177Z</time></trkpt><trkpt lat="42.8436458" lon="11.4999548"><ele>989.0</ele><time>2026-04-26T11:35:01.174Z</time></trkpt><trkpt lat="42.8436416" lon="11.4997589"><ele>988.5</ele><time>2026-04-26T11:35:02.182Z</time></trkpt><trkpt lat="42.8436379" lon="11.4995617"><ele>988.0</ele><time>2026-04-26T11:35:03.198Z</time></trkpt><trkpt lat="42.8436334" lon="11.4993663"><ele>988.0</ele><time>2026-04-26T11:35:04.184Z</time></trkpt><trkpt lat="42.8436276" lon="11.4991752"><ele>988.0</ele><time>2026-04-26T11:35:05.188Z</time></trkpt><trkpt lat="42.8436235" lon="11.4989871"><ele>988.0</ele><time>2026-04-26T11:35:06.182Z</time></trkpt><trkpt lat="42.8436203" lon="11.4988002"><ele>988.0</ele><time>2026-04-26T11:35:07.178Z</time></trkpt><trkpt lat="42.8436153" lon="11.4986144"><ele>988.0</ele><time>2026-04-26T11:35:08.179Z</time></trkpt><trkpt lat="42.843607" lon="11.4984299"><ele>988.0</ele><time>2026-04-26T11:35:09.193Z</time></trkpt><trkpt lat="42.8435953" lon="11.4982495"><ele>988.0</ele><time>2026-04-26T11:35:10.18Z</time></trkpt><trkpt lat="42.8435824" lon="11.4980764"><ele>988.0</ele><time>2026-04-26T11:35:11.193Z</time></trkpt><trkpt lat="42.8435685" lon="11.4979163"><ele>989.0</ele><time>2026-04-26T11:35:12.188Z</time></trkpt><trkpt lat="42.8435506" lon="11.4977701"><ele>990.0</ele><time>2026-04-26T11:35:13.186Z</time></trkpt><trkpt lat="42.8435237" lon="11.4976376"><ele>991.0</ele><time>2026-04-26T11:35:14.186Z</time></trkpt><trkpt lat="42.8434777" lon="11.4975083"><ele>992.0</ele><time>2026-04-26T11:35:15.189Z</time></trkpt><trkpt lat="42.843411" lon="11.4973835"><ele>993.0</ele><time>2026-04-26T11:35:16.192Z</time></trkpt><trkpt lat="42.843326" lon="11.4972634"><ele>993.0</ele><time>2026-04-26T11:35:17.192Z</time></trkpt><trkpt lat="42.8432299" lon="11.4971436"><ele>993.0</ele><time>2026-04-26T11:35:18.182Z</time></trkpt><trkpt lat="42.8431334" lon="11.497023"><ele>993.0</ele><time>2026-04-26T11:35:19.191Z</time></trkpt><trkpt lat="42.8430422" lon="11.4969044"><ele>993.0</ele><time>2026-04-26T11:35:20.2Z</time></trkpt><trkpt lat="42.842955" lon="11.4967843"><ele>993.75</ele><time>2026-04-26T11:35:21.181Z</time></trkpt><trkpt lat="42.8428706" lon="11.4966562"><ele>994.5</ele><time>2026-04-26T11:35:22.195Z</time></trkpt><trkpt lat="42.8427914" lon="11.4965227"><ele>995.25</ele><time>2026-04-26T11:35:23.191Z</time></trkpt><trkpt lat="42.8427189" lon="11.4963897"><ele>996.0</ele><time>2026-04-26T11:35:24.195Z</time></trkpt><trkpt lat="42.842648" lon="11.496259"><ele>992.75</ele><time>2026-04-26T11:35:25.183Z</time></trkpt><trkpt lat="42.8425753" lon="11.4961355"><ele>989.5</ele><time>2026-04-26T11:35:26.192Z</time></trkpt><trkpt lat="42.8424979" lon="11.4960242"><ele>986.25</ele><time>2026-04-26T11:35:27.192Z</time></trkpt><trkpt lat="42.8424119" lon="11.4959223"><ele>983.0</ele><time>2026-04-26T11:35:28.195Z</time></trkpt><trkpt lat="42.8423201" lon="11.4958287"><ele>983.0</ele><time>2026-04-26T11:35:29.184Z</time></trkpt><trkpt lat="42.8422286" lon="11.4957373"><ele>983.0</ele><time>2026-04-26T11:35:30.191Z</time></trkpt><trkpt lat="42.8421365" lon="11.4956524"><ele>983.0</ele><time>2026-04-26T11:35:31.18Z</time></trkpt><trkpt lat="42.8420432" lon="11.4955863"><ele>983.0</ele><time>2026-04-26T11:35:32.191Z</time></trkpt><trkpt lat="42.8419496" lon="11.495541"><ele>983.0</ele><time>2026-04-26T11:35:33.18Z</time></trkpt><trkpt lat="42.8418576" lon="11.4955161"><ele>982.1666666666667</ele><time>2026-04-26T11:35:34.194Z</time></trkpt><trkpt lat="42.8417715" lon="11.4955164"><ele>981.3333333333334</ele><time>2026-04-26T11:35:35.187Z</time></trkpt><trkpt lat="42.8416951" lon="11.4955429"><ele>980.5</ele><time>2026-04-26T11:35:36.185Z</time></trkpt><trkpt lat="42.8416248" lon="11.4955969"><ele>979.6666666666667</ele><time>2026-04-26T11:35:37.186Z</time></trkpt><trkpt lat="42.8415606" lon="11.4956767"><ele>978.8333333333334</ele><time>2026-04-26T11:35:38.184Z</time></trkpt><trkpt lat="42.8414989" lon="11.4957828"><ele>978.0</ele><time>2026-04-26T11:35:39.191Z</time></trkpt><trkpt lat="42.8414359" lon="11.4959035"><ele>978.0</ele><time>2026-04-26T11:35:40.174Z</time></trkpt><trkpt lat="42.8413621" lon="11.4960175"><ele>978.0</ele><time>2026-04-26T11:35:41.189Z</time></trkpt><trkpt lat="42.8412672" lon="11.4961268"><ele>978.0</ele><time>2026-04-26T11:35:42.175Z</time></trkpt><trkpt lat="42.8411541" lon="11.4962331"><ele>978.0</ele><time>2026-04-26T11:35:43.181Z</time></trkpt><trkpt lat="42.8410476" lon="11.4963386"><ele>978.0</ele><time>2026-04-26T11:35:44.184Z</time></trkpt><trkpt lat="42.8409525" lon="11.4964513"><ele>978.0</ele><time>2026-04-26T11:35:45.198Z</time></trkpt><trkpt lat="42.84087" lon="11.4965754"><ele>978.0</ele><time>2026-04-26T11:35:46.188Z</time></trkpt><trkpt lat="42.8408004" lon="11.4967099"><ele>978.0</ele><time>2026-04-26T11:35:47.196Z</time></trkpt><trkpt lat="42.8407464" lon="11.4968489"><ele>978.0</ele><time>2026-04-26T11:35:48.19Z</time></trkpt><trkpt lat="42.8407084" lon="11.4969883"><ele>978.0</ele><time>2026-04-26T11:35:49.187Z</time></trkpt><trkpt lat="42.8406703" lon="11.4971275"><ele>978.0</ele><time>2026-04-26T11:35:50.186Z</time></trkpt><trkpt lat="42.8406618" lon="11.497289"><ele>978.0</ele><time>2026-04-26T11:35:51.182Z</time></trkpt><trkpt lat="42.8406652" lon="11.4974611"><ele>978.0</ele><time>2026-04-26T11:35:52.192Z</time></trkpt><trkpt lat="42.8406701" lon="11.497648"><ele>978.0</ele><time>2026-04-26T11:35:53.192Z</time></trkpt><trkpt lat="42.8406743" lon="11.4978353"><ele>978.0</ele><time>2026-04-26T11:35:54.192Z</time></trkpt><trkpt lat="42.8406699" lon="11.4980292"><ele>978.0</ele><time>2026-04-26T11:35:55.201Z</time></trkpt><trkpt lat="42.8406538" lon="11.4982178"><ele>978.75</ele><time>2026-04-26T11:35:56.185Z</time></trkpt><trkpt lat="42.8406413" lon="11.498409"><ele>979.5</ele><time>2026-04-26T11:35:57.194Z</time></trkpt><trkpt lat="42.84063" lon="11.4986021"><ele>980.25</ele><time>2026-04-26T11:35:58.189Z</time></trkpt><trkpt lat="42.8406172" lon="11.4987914"><ele>981.0</ele><time>2026-04-26T11:35:59.202Z</time></trkpt><trkpt lat="42.8406111" lon="11.4989805"><ele>981.5</ele><time>2026-04-26T11:36:00.203Z</time></trkpt><trkpt lat="42.8406102" lon="11.4991627"><ele>982.0</ele><time>2026-04-26T11:36:01.195Z</time></trkpt><trkpt lat="42.8406135" lon="11.4993334"><ele>982.5</ele><time>2026-04-26T11:36:02.198Z</time></trkpt><trkpt lat="42.840616" lon="11.4995002"><ele>983.0</ele><time>2026-04-26T11:36:03.195Z</time></trkpt><trkpt lat="42.84063" lon="11.4996524"><ele>983.5000000000001</ele><time>2026-04-26T11:36:04.197Z</time></trkpt><trkpt lat="42.840644" lon="11.4997881"><ele>984.0</ele><time>2026-04-26T11:36:05.186Z</time></trkpt><trkpt lat="42.8406556" lon="11.4999115"><ele>984.5</ele><time>2026-04-26T11:36:06.181Z</time></trkpt><trkpt lat="42.840644" lon="11.5000225"><ele>985.0</ele><time>2026-04-26T11:36:07.187Z</time></trkpt><trkpt lat="42.84063" lon="11.5001284"><ele>985.5000000000001</ele><time>2026-04-26T11:36:08.186Z</time></trkpt><trkpt lat="42.84059" lon="11.5002128"><ele>986.0</ele><time>2026-04-26T11:36:09.176Z</time></trkpt><trkpt lat="42.8405328" lon="11.5002745"><ele>986.0</ele><time>2026-04-26T11:36:10.186Z</time></trkpt><trkpt lat="42.8404408" lon="11.5003084"><ele>985.9999999999999</ele><time>2026-04-26T11:36:11.19Z</time></trkpt><trkpt lat="42.8403437" lon="11.5003342"><ele>985.9999999999999</ele><time>2026-04-26T11:36:12.194Z</time></trkpt><trkpt lat="42.8402293" lon="11.5003228"><ele>986.0</ele><time>2026-04-26T11:36:13.186Z</time></trkpt><trkpt lat="42.8401301" lon="11.5002829"><ele>986.0</ele><time>2026-04-26T11:36:14.195Z</time></trkpt><trkpt lat="42.8400424" lon="11.5002156"><ele>988.25</ele><time>2026-04-26T11:36:15.186Z</time></trkpt><trkpt lat="42.8399667" lon="11.5001252"><ele>990.5</ele><time>2026-04-26T11:36:16.193Z</time></trkpt><trkpt lat="42.8399002" lon="11.5000078"><ele>992.75</ele><time>2026-04-26T11:36:17.188Z</time></trkpt><trkpt lat="42.8398362" lon="11.4998696"><ele>995.0</ele><time>2026-04-26T11:36:18.187Z</time></trkpt><trkpt lat="42.8397723" lon="11.4997124"><ele>996.25</ele><time>2026-04-26T11:36:19.18Z</time></trkpt><trkpt lat="42.8397066" lon="11.4995547"><ele>997.5</ele><time>2026-04-26T11:36:20.176Z</time></trkpt><trkpt lat="42.8396364" lon="11.4994018"><ele>998.75</ele><time>2026-04-26T11:36:21.185Z</time></trkpt><trkpt lat="42.8395591" lon="11.4992489"><ele>1000.0</ele><time>2026-04-26T11:36:22.197Z</time></trkpt><trkpt lat="42.8394757" lon="11.4991002"><ele>1000.0</ele><time>2026-04-26T11:36:23.198Z</time></trkpt><trkpt lat="42.8393849" lon="11.4989561"><ele>1000.0</ele><time>2026-04-26T11:36:24.181Z</time></trkpt><trkpt lat="42.839292" lon="11.4988132"><ele>1000.0</ele><time>2026-04-26T11:36:25.197Z</time></trkpt><trkpt lat="42.8391921" lon="11.4986892"><ele>1000.0</ele><time>2026-04-26T11:36:26.194Z</time></trkpt><trkpt lat="42.8390877" lon="11.4985714"><ele>1002.0</ele><time>2026-04-26T11:36:27.197Z</time></trkpt><trkpt lat="42.8389766" lon="11.4984664"><ele>1004.0</ele><time>2026-04-26T11:36:28.188Z</time></trkpt><trkpt lat="42.8388618" lon="11.4983685"><ele>1006.0</ele><time>2026-04-26T11:36:29.194Z</time></trkpt><trkpt lat="42.8387449" lon="11.4982702"><ele>1008.0</ele><time>2026-04-26T11:36:30.198Z</time></trkpt><trkpt lat="42.8386266" lon="11.4981803"><ele>1008.0</ele><time>2026-04-26T11:36:31.187Z</time></trkpt><trkpt lat="42.8385059" lon="11.4980834"><ele>1008.0</ele><time>2026-04-26T11:36:32.2Z</time></trkpt><trkpt lat="42.838386" lon="11.497976"><ele>1008.0</ele><time>2026-04-26T11:36:33.2Z</time></trkpt><trkpt lat="42.8382692" lon="11.4978636"><ele>1008.0</ele><time>2026-04-26T11:36:34.187Z</time></trkpt><trkpt lat="42.838153" lon="11.4977513"><ele>1009.25</ele><time>2026-04-26T11:36:35.201Z</time></trkpt><trkpt lat="42.8380373" lon="11.4976383"><ele>1010.5</ele><time>2026-04-26T11:36:36.199Z</time></trkpt><trkpt lat="42.8379223" lon="11.4975239"><ele>1011.75</ele><time>2026-04-26T11:36:37.195Z</time></trkpt><trkpt lat="42.837807" lon="11.4974121"><ele>1013.0</ele><time>2026-04-26T11:36:38.197Z</time></trkpt><trkpt lat="42.8376917" lon="11.4973011"><ele>1013.25</ele><time>2026-04-26T11:36:39.195Z</time></trkpt><trkpt lat="42.8375782" lon="11.4971957"><ele>1013.5</ele><time>2026-04-26T11:36:40.197Z</time></trkpt><trkpt lat="42.8374704" lon="11.4971009"><ele>1013.75</ele><time>2026-04-26T11:36:41.199Z</time></trkpt><trkpt lat="42.8373612" lon="11.4970211"><ele>1014.0</ele><time>2026-04-26T11:36:42.175Z</time></trkpt><trkpt lat="42.837249" lon="11.4969609"><ele>1014.0</ele><time>2026-04-26T11:36:43.181Z</time></trkpt><trkpt lat="42.8371334" lon="11.4969219"><ele>1014.0</ele><time>2026-04-26T11:36:44.193Z</time></trkpt><trkpt lat="42.8370113" lon="11.4969044"><ele>1014.0</ele><time>2026-04-26T11:36:45.18Z</time></trkpt><trkpt lat="42.8368804" lon="11.4969086"><ele>1014.0</ele><time>2026-04-26T11:36:46.176Z</time></trkpt><trkpt lat="42.8367377" lon="11.4969219"><ele>1014.5</ele><time>2026-04-26T11:36:47.178Z</time></trkpt><trkpt lat="42.8365902" lon="11.4969311"><ele>1015.0</ele><time>2026-04-26T11:36:48.179Z</time></trkpt><trkpt lat="42.836444" lon="11.496928"><ele>1015.5</ele><time>2026-04-26T11:36:49.194Z</time></trkpt><trkpt lat="42.8363072" lon="11.4969032"><ele>1016.0</ele><time>2026-04-26T11:36:50.18Z</time></trkpt><trkpt lat="42.8361711" lon="11.4968759"><ele>1016.0</ele><time>2026-04-26T11:36:51.196Z</time></trkpt><trkpt lat="42.8360551" lon="11.4968016"><ele>1016.0</ele><time>2026-04-26T11:36:52.192Z</time></trkpt><trkpt lat="42.8359492" lon="11.4967282"><ele>1016.0</ele><time>2026-04-26T11:36:53.183Z</time></trkpt><trkpt lat="42.8358392" lon="11.496675"><ele>1016.0</ele><time>2026-04-26T11:36:54.184Z</time></trkpt><trkpt lat="42.8357175" lon="11.4966468"><ele>1014.5</ele><time>2026-04-26T11:36:55.192Z</time></trkpt><trkpt lat="42.8355851" lon="11.4966428"><ele>1013.0</ele><time>2026-04-26T11:36:56.189Z</time></trkpt><trkpt lat="42.8354383" lon="11.4966607"><ele>1011.5</ele><time>2026-04-26T11:36:57.194Z</time></trkpt><trkpt lat="42.8352842" lon="11.496691"><ele>1010.0</ele><time>2026-04-26T11:36:58.195Z</time></trkpt><trkpt lat="42.8351288" lon="11.4967321"><ele>1010.0</ele><time>2026-04-26T11:36:59.175Z</time></trkpt><trkpt lat="42.834971" lon="11.4967805"><ele>1010.0</ele><time>2026-04-26T11:37:00.186Z</time></trkpt><trkpt lat="42.8348153" lon="11.4968245"><ele>1010.0</ele><time>2026-04-26T11:37:01.186Z</time></trkpt><trkpt lat="42.8346692" lon="11.4968694"><ele>1010.0</ele><time>2026-04-26T11:37:02.196Z</time></trkpt><trkpt lat="42.8345376" lon="11.4969196"><ele>1010.0</ele><time>2026-04-26T11:37:03.203Z</time></trkpt><trkpt lat="42.8344133" lon="11.496972"><ele>1010.0</ele><time>2026-04-26T11:37:04.195Z</time></trkpt><trkpt lat="42.8342921" lon="11.4970191"><ele>1010.0</ele><time>2026-04-26T11:37:05.181Z</time></trkpt><trkpt lat="42.8341694" lon="11.497055"><ele>1010.0</ele><time>2026-04-26T11:37:06.191Z</time></trkpt><trkpt lat="42.8340396" lon="11.4970789"><ele>1010.0</ele><time>2026-04-26T11:37:07.187Z</time></trkpt><trkpt lat="42.8338972" lon="11.4970907"><ele>1010.0</ele><time>2026-04-26T11:37:08.198Z</time></trkpt><trkpt lat="42.833748" lon="11.4970928"><ele>1010.0</ele><time>2026-04-26T11:37:09.196Z</time></trkpt><trkpt lat="42.8335967" lon="11.4970882"><ele>1007.75</ele><time>2026-04-26T11:37:10.184Z</time></trkpt><trkpt lat="42.8334472" lon="11.4970767"><ele>1005.5</ele><time>2026-04-26T11:37:11.182Z</time></trkpt><trkpt lat="42.8333004" lon="11.497065"><ele>1003.25</ele><time>2026-04-26T11:37:12.197Z</time></trkpt><trkpt lat="42.8331548" lon="11.4970602"><ele>1001.0</ele><time>2026-04-26T11:37:13.198Z</time></trkpt><trkpt lat="42.8330148" lon="11.4970636"><ele>1001.0</ele><time>2026-04-26T11:37:14.19Z</time></trkpt><trkpt lat="42.8328833" lon="11.4970713"><ele>1001.0</ele><time>2026-04-26T11:37:15.184Z</time></trkpt><trkpt lat="42.8327597" lon="11.4970856"><ele>1001.0</ele><time>2026-04-26T11:37:16.194Z</time></trkpt><trkpt lat="42.832641" lon="11.4971114"><ele>1001.0</ele><time>2026-04-26T11:37:17.196Z</time></trkpt><trkpt lat="42.8325317" lon="11.4971539"><ele>1001.25</ele><time>2026-04-26T11:37:18.18Z</time></trkpt><trkpt lat="42.8324265" lon="11.4972168"><ele>1001.5</ele><time>2026-04-26T11:37:19.18Z</time></trkpt><trkpt lat="42.8323199" lon="11.4972912"><ele>1001.75</ele><time>2026-04-26T11:37:20.188Z</time></trkpt><trkpt lat="42.8322106" lon="11.4973721"><ele>1002.0</ele><time>2026-04-26T11:37:21.196Z</time></trkpt><trkpt lat="42.8320964" lon="11.4974511"><ele>1002.0</ele><time>2026-04-26T11:37:22.196Z</time></trkpt><trkpt lat="42.8319772" lon="11.4975223"><ele>1002.0</ele><time>2026-04-26T11:37:23.188Z</time></trkpt><trkpt lat="42.8318533" lon="11.4975833"><ele>1002.0</ele><time>2026-04-26T11:37:24.199Z</time></trkpt><trkpt lat="42.8317319" lon="11.4976414"><ele>1002.0</ele><time>2026-04-26T11:37:25.194Z</time></trkpt><trkpt lat="42.8316128" lon="11.4976779"><ele>1001.8</ele><time>2026-04-26T11:37:26.183Z</time></trkpt><trkpt lat="42.831502" lon="11.4977067"><ele>1001.6</ele><time>2026-04-26T11:37:27.202Z</time></trkpt><trkpt lat="42.8314025" lon="11.497728"><ele>1001.3999999999999</ele><time>2026-04-26T11:37:28.183Z</time></trkpt><trkpt lat="42.831317" lon="11.4977415"><ele>1001.1999999999999</ele><time>2026-04-26T11:37:29.201Z</time></trkpt><trkpt lat="42.8312423" lon="11.4977523"><ele>1001.0</ele><time>2026-04-26T11:37:30.183Z</time></trkpt><trkpt lat="42.8311479" lon="11.4977907"><ele>1001.0000000000001</ele><time>2026-04-26T11:37:32.204Z</time></trkpt><trkpt lat="42.8310761" lon="11.4978039"><ele>1001.0</ele><time>2026-04-26T11:42:27.18Z</time></trkpt><trkpt lat="42.8310016" lon="11.49786"><ele>1001.0</ele><time>2026-04-26T11:42:32.196Z</time></trkpt><trkpt lat="42.830939" lon="11.497922"><ele>1001.0</ele><time>2026-04-26T11:42:34.187Z</time></trkpt><trkpt lat="42.8308662" lon="11.4980133"><ele>1001.0000000000001</ele><time>2026-04-26T11:42:36.181Z</time></trkpt><trkpt lat="42.8307831" lon="11.4981113"><ele>1001.0</ele><time>2026-04-26T11:42:38.197Z</time></trkpt><trkpt lat="42.8306842" lon="11.4982177"><ele>1001.1666666666667</ele><time>2026-04-26T11:42:40.183Z</time></trkpt><trkpt lat="42.8306242" lon="11.4982816"><ele>1001.3333333333334</ele><time>2026-04-26T11:42:41.191Z</time></trkpt><trkpt lat="42.8305615" lon="11.4983511"><ele>1001.5</ele><time>2026-04-26T11:42:42.2Z</time></trkpt><trkpt lat="42.8304969" lon="11.4984237"><ele>1001.6666666666667</ele><time>2026-04-26T11:42:43.197Z</time></trkpt><trkpt lat="42.8304298" lon="11.4984973"><ele>1001.8333333333334</ele><time>2026-04-26T11:42:44.201Z</time></trkpt><trkpt lat="42.8303629" lon="11.4985699"><ele>1002.0</ele><time>2026-04-26T11:42:45.194Z</time></trkpt><trkpt lat="42.8302978" lon="11.498646"><ele>1002.0</ele><time>2026-04-26T11:42:46.191Z</time></trkpt><trkpt lat="42.8302336" lon="11.4987255"><ele>1002.0</ele><time>2026-04-26T11:42:47.197Z</time></trkpt><trkpt lat="42.8301698" lon="11.4988098"><ele>1002.0</ele><time>2026-04-26T11:42:48.181Z</time></trkpt><trkpt lat="42.8301016" lon="11.4988992"><ele>1002.0</ele><time>2026-04-26T11:42:49.185Z</time></trkpt><trkpt lat="42.8300109" lon="11.4990144"><ele>1002.0</ele><time>2026-04-26T11:42:50.173Z</time></trkpt><trkpt lat="42.8299078" lon="11.4991392"><ele>1002.0</ele><time>2026-04-26T11:42:51.182Z</time></trkpt><trkpt lat="42.8298039" lon="11.4992632"><ele>1002.0</ele><time>2026-04-26T11:42:52.189Z</time></trkpt><trkpt lat="42.8296974" lon="11.499378"><ele>1002.0</ele><time>2026-04-26T11:42:53.189Z</time></trkpt><trkpt lat="42.8295967" lon="11.4994912"><ele>1002.0</ele><time>2026-04-26T11:42:54.184Z</time></trkpt><trkpt lat="42.8294934" lon="11.4996075"><ele>1001.5</ele><time>2026-04-26T11:42:55.197Z</time></trkpt><trkpt lat="42.8293988" lon="11.4997245"><ele>1001.0</ele><time>2026-04-26T11:42:56.187Z</time></trkpt><trkpt lat="42.8293091" lon="11.4998422"><ele>1000.5</ele><time>2026-04-26T11:42:57.185Z</time></trkpt><trkpt lat="42.8292199" lon="11.4999627"><ele>1000.0</ele><time>2026-04-26T11:42:58.195Z</time></trkpt><trkpt lat="42.8291311" lon="11.5000845"><ele>1001.0</ele><time>2026-04-26T11:42:59.181Z</time></trkpt><trkpt lat="42.8290436" lon="11.5002087"><ele>1002.0</ele><time>2026-04-26T11:43:00.184Z</time></trkpt><trkpt lat="42.8289613" lon="11.5003298"><ele>1003.0</ele><time>2026-04-26T11:43:01.18Z</time></trkpt><trkpt lat="42.8288797" lon="11.5004468"><ele>1004.0</ele><time>2026-04-26T11:43:02.198Z</time></trkpt><trkpt lat="42.8287974" lon="11.5005464"><ele>1004.5</ele><time>2026-04-26T11:43:03.186Z</time></trkpt><trkpt lat="42.8287181" lon="11.5006591"><ele>1005.0</ele><time>2026-04-26T11:43:04.197Z</time></trkpt><trkpt lat="42.8286351" lon="11.5007842"><ele>1005.5</ele><time>2026-04-26T11:43:05.2Z</time></trkpt><trkpt lat="42.8285554" lon="11.500908"><ele>1006.0</ele><time>2026-04-26T11:43:06.199Z</time></trkpt><trkpt lat="42.8284751" lon="11.5010273"><ele>1006.0</ele><time>2026-04-26T11:43:07.205Z</time></trkpt><trkpt lat="42.8283934" lon="11.5011447"><ele>1006.0</ele><time>2026-04-26T11:43:08.19Z</time></trkpt><trkpt lat="42.8283081" lon="11.5012615"><ele>1006.0</ele><time>2026-04-26T11:43:09.182Z</time></trkpt><trkpt lat="42.8282195" lon="11.5013686"><ele>1006.0</ele><time>2026-04-26T11:43:10.18Z</time></trkpt><trkpt lat="42.8281177" lon="11.501456"><ele>1005.75</ele><time>2026-04-26T11:43:11.191Z</time></trkpt><trkpt lat="42.8280055" lon="11.5015355"><ele>1005.5</ele><time>2026-04-26T11:43:12.179Z</time></trkpt><trkpt lat="42.8278962" lon="11.501616"><ele>1005.25</ele><time>2026-04-26T11:43:13.195Z</time></trkpt><trkpt lat="42.827799" lon="11.5017007"><ele>1005.0</ele><time>2026-04-26T11:43:14.178Z</time></trkpt><trkpt lat="42.8277179" lon="11.5017909"><ele>1005.1666666666666</ele><time>2026-04-26T11:43:15.182Z</time></trkpt><trkpt lat="42.8276425" lon="11.5018783"><ele>1005.3333333333333</ele><time>2026-04-26T11:43:16.186Z</time></trkpt><trkpt lat="42.8275678" lon="11.5019532"><ele>1005.5</ele><time>2026-04-26T11:43:17.195Z</time></trkpt><trkpt lat="42.8274943" lon="11.5020062"><ele>1005.6666666666666</ele><time>2026-04-26T11:43:18.197Z</time></trkpt><trkpt lat="42.8274183" lon="11.5020386"><ele>1005.8333333333333</ele><time>2026-04-26T11:43:19.199Z</time></trkpt><trkpt lat="42.8273349" lon="11.5020595"><ele>1006.0</ele><time>2026-04-26T11:43:20.201Z</time></trkpt><trkpt lat="42.8272484" lon="11.5020674"><ele>1005.9999999999999</ele><time>2026-04-26T11:43:21.18Z</time></trkpt><trkpt lat="42.8271634" lon="11.5020655"><ele>1006.0</ele><time>2026-04-26T11:43:22.199Z</time></trkpt><trkpt lat="42.8270826" lon="11.5020654"><ele>1006.0</ele><time>2026-04-26T11:43:23.187Z</time></trkpt><trkpt lat="42.8270109" lon="11.5020717"><ele>1006.0</ele><time>2026-04-26T11:43:24.204Z</time></trkpt><trkpt lat="42.8269448" lon="11.5020883"><ele>1005.9999999999999</ele><time>2026-04-26T11:43:25.203Z</time></trkpt><trkpt lat="42.8268401" lon="11.5021589"><ele>1006.0</ele><time>2026-04-26T11:43:27.181Z</time></trkpt><trkpt lat="42.8267683" lon="11.5022862"><ele>1004.8</ele><time>2026-04-26T11:43:29.194Z</time></trkpt><trkpt lat="42.8267311" lon="11.5023693"><ele>1003.5999999999999</ele><time>2026-04-26T11:43:30.181Z</time></trkpt><trkpt lat="42.8267111" lon="11.5024842"><ele>1002.4</ele><time>2026-04-26T11:43:31.196Z</time></trkpt><trkpt lat="42.8266925" lon="11.5026149"><ele>1001.2</ele><time>2026-04-26T11:43:32.194Z</time></trkpt><trkpt lat="42.8266735" lon="11.5027545"><ele>1000.0</ele><time>2026-04-26T11:43:33.196Z</time></trkpt><trkpt lat="42.8266521" lon="11.5029031"><ele>999.25</ele><time>2026-04-26T11:43:34.197Z</time></trkpt><trkpt lat="42.8266281" lon="11.5030558"><ele>998.5</ele><time>2026-04-26T11:43:35.181Z</time></trkpt><trkpt lat="42.826602" lon="11.5032114"><ele>997.75</ele><time>2026-04-26T11:43:36.197Z</time></trkpt><trkpt lat="42.8265727" lon="11.5033644"><ele>997.0</ele><time>2026-04-26T11:43:37.193Z</time></trkpt><trkpt lat="42.8265412" lon="11.5035149"><ele>997.0</ele><time>2026-04-26T11:43:38.192Z</time></trkpt><trkpt lat="42.8265049" lon="11.503659"><ele>997.0</ele><time>2026-04-26T11:43:39.198Z</time></trkpt><trkpt lat="42.8264634" lon="11.5037958"><ele>997.0</ele><time>2026-04-26T11:43:40.18Z</time></trkpt><trkpt lat="42.826421" lon="11.5039231"><ele>997.0</ele><time>2026-04-26T11:43:41.185Z</time></trkpt><trkpt lat="42.8263828" lon="11.5040447"><ele>997.0</ele><time>2026-04-26T11:43:42.192Z</time></trkpt><trkpt lat="42.8263488" lon="11.5041627"><ele>996.9999999999999</ele><time>2026-04-26T11:43:43.178Z</time></trkpt><trkpt lat="42.8263134" lon="11.5042736"><ele>997.0</ele><time>2026-04-26T11:43:44.201Z</time></trkpt><trkpt lat="42.8262789" lon="11.5043706"><ele>997.0</ele><time>2026-04-26T11:43:45.196Z</time></trkpt><trkpt lat="42.826225" lon="11.5044429"><ele>997.0</ele><time>2026-04-26T11:43:46.191Z</time></trkpt><trkpt lat="42.8261535" lon="11.5045122"><ele>996.9999999999999</ele><time>2026-04-26T11:43:47.179Z</time></trkpt><trkpt lat="42.8260661" lon="11.5045815"><ele>997.0</ele><time>2026-04-26T11:43:48.181Z</time></trkpt><trkpt lat="42.8259732" lon="11.504651"><ele>997.0</ele><time>2026-04-26T11:43:49.202Z</time></trkpt><trkpt lat="42.8258899" lon="11.5047237"><ele>997.0</ele><time>2026-04-26T11:43:50.19Z</time></trkpt><trkpt lat="42.8258175" lon="11.5048007"><ele>997.0</ele><time>2026-04-26T11:43:51.195Z</time></trkpt><trkpt lat="42.8257502" lon="11.5048941"><ele>997.0</ele><time>2026-04-26T11:43:52.189Z</time></trkpt><trkpt lat="42.825682" lon="11.505017"><ele>997.0</ele><time>2026-04-26T11:43:53.178Z</time></trkpt><trkpt lat="42.8256104" lon="11.5051584"><ele>997.0</ele><time>2026-04-26T11:43:54.196Z</time></trkpt><trkpt lat="42.8255401" lon="11.5052986"><ele>997.0</ele><time>2026-04-26T11:43:55.185Z</time></trkpt><trkpt lat="42.8254761" lon="11.5054293"><ele>997.0</ele><time>2026-04-26T11:43:56.177Z</time></trkpt><trkpt lat="42.8254227" lon="11.5055471"><ele>997.0</ele><time>2026-04-26T11:43:57.183Z</time></trkpt><trkpt lat="42.8253827" lon="11.5056591"><ele>997.0</ele><time>2026-04-26T11:43:58.189Z</time></trkpt><trkpt lat="42.8253574" lon="11.5057716"><ele>997.8</ele><time>2026-04-26T11:43:59.189Z</time></trkpt><trkpt lat="42.8253471" lon="11.5058934"><ele>998.6</ele><time>2026-04-26T11:44:00.181Z</time></trkpt><trkpt lat="42.8253427" lon="11.5060338"><ele>999.3999999999999</ele><time>2026-04-26T11:44:01.198Z</time></trkpt><trkpt lat="42.825331" lon="11.5061805"><ele>1000.1999999999999</ele><time>2026-04-26T11:44:02.183Z</time></trkpt><trkpt lat="42.8253079" lon="11.5063263"><ele>1001.0</ele><time>2026-04-26T11:44:03.182Z</time></trkpt><trkpt lat="42.8252801" lon="11.5064706"><ele>1001.0</ele><time>2026-04-26T11:44:04.199Z</time></trkpt><trkpt lat="42.8252565" lon="11.5066165"><ele>1001.0</ele><time>2026-04-26T11:44:05.198Z</time></trkpt><trkpt lat="42.8252384" lon="11.506768"><ele>1001.0</ele><time>2026-04-26T11:44:06.2Z</time></trkpt><trkpt lat="42.8252236" lon="11.5069255"><ele>1001.0</ele><time>2026-04-26T11:44:07.199Z</time></trkpt><trkpt lat="42.8252051" lon="11.5070786"><ele>1001.1999999999999</ele><time>2026-04-26T11:44:08.197Z</time></trkpt><trkpt lat="42.8251868" lon="11.5072207"><ele>1001.3999999999999</ele><time>2026-04-26T11:44:09.196Z</time></trkpt><trkpt lat="42.8251742" lon="11.5073554"><ele>1001.6</ele><time>2026-04-26T11:44:10.179Z</time></trkpt><trkpt lat="42.8251746" lon="11.5074854"><ele>1001.8</ele><time>2026-04-26T11:44:11.196Z</time></trkpt><trkpt lat="42.8251936" lon="11.5076016"><ele>1002.0</ele><time>2026-04-26T11:44:12.18Z</time></trkpt><trkpt lat="42.825232" lon="11.5077044"><ele>1002.0</ele><time>2026-04-26T11:44:13.179Z</time></trkpt><trkpt lat="42.825287" lon="11.5077917"><ele>1002.0</ele><time>2026-04-26T11:44:14.181Z</time></trkpt><trkpt lat="42.8253586" lon="11.5078663"><ele>1002.0</ele><time>2026-04-26T11:44:15.178Z</time></trkpt><trkpt lat="42.8254484" lon="11.5079369"><ele>1002.0</ele><time>2026-04-26T11:44:16.2Z</time></trkpt><trkpt lat="42.8255448" lon="11.5080129"><ele>1002.0</ele><time>2026-04-26T11:44:17.18Z</time></trkpt><trkpt lat="42.8256392" lon="11.5080972"><ele>1003.4000000000001</ele><time>2026-04-26T11:44:18.177Z</time></trkpt><trkpt lat="42.8257248" lon="11.5081895"><ele>1004.8000000000001</ele><time>2026-04-26T11:44:19.195Z</time></trkpt><trkpt lat="42.8257951" lon="11.5082799"><ele>1006.2</ele><time>2026-04-26T11:44:20.187Z</time></trkpt><trkpt lat="42.8258472" lon="11.5083614"><ele>1007.6</ele><time>2026-04-26T11:44:21.192Z</time></trkpt><trkpt lat="42.8258865" lon="11.5085024"><ele>1009.0</ele><time>2026-04-26T11:44:23.196Z</time></trkpt><trkpt lat="42.8258805" lon="11.5085896"><ele>1009.0</ele><time>2026-04-26T11:44:24.183Z</time></trkpt><trkpt lat="42.8258647" lon="11.5087037"><ele>1009.0000000000001</ele><time>2026-04-26T11:44:25.193Z</time></trkpt><trkpt lat="42.8258506" lon="11.5088244"><ele>1009.0000000000001</ele><time>2026-04-26T11:44:26.183Z</time></trkpt><trkpt lat="42.8258478" lon="11.5089438"><ele>1009.0</ele><time>2026-04-26T11:44:27.196Z</time></trkpt><trkpt lat="42.8258695" lon="11.5090653"><ele>1009.0</ele><time>2026-04-26T11:44:28.195Z</time></trkpt><trkpt lat="42.8258978" lon="11.5091969"><ele>1009.25</ele><time>2026-04-26T11:44:29.18Z</time></trkpt><trkpt lat="42.8259502" lon="11.5093372"><ele>1009.5</ele><time>2026-04-26T11:44:30.179Z</time></trkpt><trkpt lat="42.8260196" lon="11.5094806"><ele>1009.75</ele><time>2026-04-26T11:44:31.179Z</time></trkpt><trkpt lat="42.8260916" lon="11.5096274"><ele>1010.0</ele><time>2026-04-26T11:44:32.176Z</time></trkpt><trkpt lat="42.8261665" lon="11.5097913"><ele>1010.0</ele><time>2026-04-26T11:44:33.193Z</time></trkpt><trkpt lat="42.826239" lon="11.509958"><ele>1010.0</ele><time>2026-04-26T11:44:34.18Z</time></trkpt><trkpt lat="42.8263107" lon="11.5101273"><ele>1010.0</ele><time>2026-04-26T11:44:35.198Z</time></trkpt><trkpt lat="42.8263791" lon="11.5102881"><ele>1010.0</ele><time>2026-04-26T11:44:36.182Z</time></trkpt><trkpt lat="42.8264441" lon="11.5104415"><ele>1012.0</ele><time>2026-04-26T11:44:37.178Z</time></trkpt><trkpt lat="42.8265031" lon="11.5105933"><ele>1014.0</ele><time>2026-04-26T11:44:38.185Z</time></trkpt><trkpt lat="42.8265497" lon="11.5107473"><ele>1016.0</ele><time>2026-04-26T11:44:39.178Z</time></trkpt><trkpt lat="42.8265891" lon="11.5109042"><ele>1018.0</ele><time>2026-04-26T11:44:40.185Z</time></trkpt><trkpt lat="42.8266285" lon="11.5110553"><ele>1018.0</ele><time>2026-04-26T11:44:41.204Z</time></trkpt><trkpt lat="42.8266642" lon="11.5111988"><ele>1018.0</ele><time>2026-04-26T11:44:42.181Z</time></trkpt><trkpt lat="42.8266951" lon="11.5113432"><ele>1018.0</ele><time>2026-04-26T11:44:43.184Z</time></trkpt><trkpt lat="42.8267234" lon="11.5114761"><ele>1018.0</ele><time>2026-04-26T11:44:44.204Z</time></trkpt><trkpt lat="42.8267474" lon="11.5115922"><ele>1018.0</ele><time>2026-04-26T11:44:45.195Z</time></trkpt><trkpt lat="42.8267714" lon="11.5116918"><ele>1018.8333333333333</ele><time>2026-04-26T11:44:46.198Z</time></trkpt><trkpt lat="42.8267913" lon="11.511788"><ele>1019.6666666666666</ele><time>2026-04-26T11:44:47.201Z</time></trkpt><trkpt lat="42.8268049" lon="11.5118841"><ele>1020.5</ele><time>2026-04-26T11:44:48.193Z</time></trkpt><trkpt lat="42.8267961" lon="11.5119824"><ele>1021.3333333333333</ele><time>2026-04-26T11:44:49.185Z</time></trkpt><trkpt lat="42.8267603" lon="11.5120751"><ele>1022.1666666666666</ele><time>2026-04-26T11:44:50.196Z</time></trkpt><trkpt lat="42.8267104" lon="11.5121548"><ele>1023.0</ele><time>2026-04-26T11:44:51.193Z</time></trkpt><trkpt lat="42.8266416" lon="11.5122232"><ele>1024.4</ele><time>2026-04-26T11:44:52.173Z</time></trkpt><trkpt lat="42.8265518" lon="11.5122871"><ele>1025.8</ele><time>2026-04-26T11:44:53.192Z</time></trkpt><trkpt lat="42.8264654" lon="11.5123466"><ele>1027.2</ele><time>2026-04-26T11:44:54.176Z</time></trkpt><trkpt lat="42.8263914" lon="11.5124076"><ele>1028.6</ele><time>2026-04-26T11:44:55.179Z</time></trkpt><trkpt lat="42.826327" lon="11.5124821"><ele>1030.0</ele><time>2026-04-26T11:44:56.189Z</time></trkpt><trkpt lat="42.8262682" lon="11.5125726"><ele>1030.0</ele><time>2026-04-26T11:44:57.195Z</time></trkpt><trkpt lat="42.8262167" lon="11.5126726"><ele>1030.0</ele><time>2026-04-26T11:44:58.184Z</time></trkpt><trkpt lat="42.8261678" lon="11.5127776"><ele>1030.0</ele><time>2026-04-26T11:44:59.198Z</time></trkpt><trkpt lat="42.8261191" lon="11.5128778"><ele>1030.0</ele><time>2026-04-26T11:45:00.185Z</time></trkpt><trkpt lat="42.8260641" lon="11.5129711"><ele>1030.0</ele><time>2026-04-26T11:45:01.198Z</time></trkpt><trkpt lat="42.8260006" lon="11.5130492"><ele>1030.0</ele><time>2026-04-26T11:45:02.199Z</time></trkpt><trkpt lat="42.8259331" lon="11.5131211"><ele>1027.4</ele><time>2026-04-26T11:45:03.201Z</time></trkpt><trkpt lat="42.8258691" lon="11.5132013"><ele>1024.8</ele><time>2026-04-26T11:45:04.197Z</time></trkpt><trkpt lat="42.8258099" lon="11.513301"><ele>1022.2</ele><time>2026-04-26T11:45:05.199Z</time></trkpt><trkpt lat="42.8257523" lon="11.5134297"><ele>1019.6</ele><time>2026-04-26T11:45:06.188Z</time></trkpt><trkpt lat="42.8256896" lon="11.5135664"><ele>1017.0</ele><time>2026-04-26T11:45:07.206Z</time></trkpt><trkpt lat="42.8256051" lon="11.5136857"><ele>1022.75</ele><time>2026-04-26T11:45:08.18Z</time></trkpt><trkpt lat="42.8254994" lon="11.5137975"><ele>1028.5</ele><time>2026-04-26T11:45:09.184Z</time></trkpt><trkpt lat="42.8253882" lon="11.513901"><ele>1034.25</ele><time>2026-04-26T11:45:10.181Z</time></trkpt><trkpt lat="42.825285" lon="11.5139993"><ele>1040.0</ele><time>2026-04-26T11:45:11.183Z</time></trkpt><trkpt lat="42.8251907" lon="11.5140919"><ele>1036.4</ele><time>2026-04-26T11:45:12.198Z</time></trkpt><trkpt lat="42.8251055" lon="11.5141789"><ele>1032.8</ele><time>2026-04-26T11:45:13.177Z</time></trkpt><trkpt lat="42.8250195" lon="11.5142682"><ele>1029.2</ele><time>2026-04-26T11:45:14.191Z</time></trkpt><trkpt lat="42.8249334" lon="11.5143476"><ele>1025.6</ele><time>2026-04-26T11:45:15.195Z</time></trkpt><trkpt lat="42.8248428" lon="11.5144038"><ele>1022.0</ele><time>2026-04-26T11:45:16.188Z</time></trkpt><trkpt lat="42.8247419" lon="11.5144375"><ele>1022.0</ele><time>2026-04-26T11:45:17.189Z</time></trkpt><trkpt lat="42.8246363" lon="11.5144637"><ele>1022.0</ele><time>2026-04-26T11:45:18.199Z</time></trkpt><trkpt lat="42.8245379" lon="11.5144934"><ele>1022.0</ele><time>2026-04-26T11:45:19.191Z</time></trkpt><trkpt lat="42.8244494" lon="11.5145297"><ele>1022.0</ele><time>2026-04-26T11:45:20.192Z</time></trkpt><trkpt lat="42.8243699" lon="11.5145816"><ele>1022.0</ele><time>2026-04-26T11:45:21.18Z</time></trkpt><trkpt lat="42.8242871" lon="11.5146373"><ele>1026.5</ele><time>2026-04-26T11:45:22.195Z</time></trkpt><trkpt lat="42.8242166" lon="11.5147366"><ele>1031.0</ele><time>2026-04-26T11:45:23.189Z</time></trkpt><trkpt lat="42.8241337" lon="11.514852"><ele>1035.5</ele><time>2026-04-26T11:45:24.193Z</time></trkpt><trkpt lat="42.8240486" lon="11.5149683"><ele>1040.0</ele><time>2026-04-26T11:45:25.195Z</time></trkpt><trkpt lat="42.823953" lon="11.5150721"><ele>1040.0</ele><time>2026-04-26T11:45:26.193Z</time></trkpt><trkpt lat="42.8238563" lon="11.5151824"><ele>1040.0</ele><time>2026-04-26T11:45:27.198Z</time></trkpt><trkpt lat="42.8237625" lon="11.5153013"><ele>1040.0</ele><time>2026-04-26T11:45:28.201Z</time></trkpt><trkpt lat="42.8236725" lon="11.5154231"><ele>1040.0</ele><time>2026-04-26T11:45:29.182Z</time></trkpt><trkpt lat="42.8235833" lon="11.5155461"><ele>1039.5</ele><time>2026-04-26T11:45:30.197Z</time></trkpt><trkpt lat="42.8234985" lon="11.515659"><ele>1039.0</ele><time>2026-04-26T11:45:31.193Z</time></trkpt><trkpt lat="42.8234148" lon="11.5157666"><ele>1038.5</ele><time>2026-04-26T11:45:32.18Z</time></trkpt><trkpt lat="42.8233312" lon="11.5158816"><ele>1038.0</ele><time>2026-04-26T11:45:33.188Z</time></trkpt><trkpt lat="42.8232512" lon="11.5160052"><ele>1038.0</ele><time>2026-04-26T11:45:34.183Z</time></trkpt><trkpt lat="42.8231726" lon="11.5161321"><ele>1038.0</ele><time>2026-04-26T11:45:35.182Z</time></trkpt><trkpt lat="42.8230953" lon="11.5162582"><ele>1038.0</ele><time>2026-04-26T11:45:36.197Z</time></trkpt><trkpt lat="42.8230232" lon="11.5163804"><ele>1038.0</ele><time>2026-04-26T11:45:37.198Z</time></trkpt><trkpt lat="42.8229561" lon="11.5165016"><ele>1042.8</ele><time>2026-04-26T11:45:38.195Z</time></trkpt><trkpt lat="42.8228916" lon="11.5166207"><ele>1047.6</ele><time>2026-04-26T11:45:39.199Z</time></trkpt><trkpt lat="42.8228288" lon="11.5167385"><ele>1052.4</ele><time>2026-04-26T11:45:40.18Z</time></trkpt><trkpt lat="42.8227663" lon="11.5168593"><ele>1057.2</ele><time>2026-04-26T11:45:41.201Z</time></trkpt><trkpt lat="42.8227029" lon="11.516976"><ele>1062.0</ele><time>2026-04-26T11:45:42.187Z</time></trkpt><trkpt lat="42.8226342" lon="11.5170937"><ele>1062.0</ele><time>2026-04-26T11:45:43.175Z</time></trkpt><trkpt lat="42.8225594" lon="11.5172141"><ele>1062.0</ele><time>2026-04-26T11:45:44.196Z</time></trkpt><trkpt lat="42.8224796" lon="11.5173328"><ele>1062.0</ele><time>2026-04-26T11:45:45.197Z</time></trkpt><trkpt lat="42.8223942" lon="11.5174513"><ele>1062.0</ele><time>2026-04-26T11:45:46.198Z</time></trkpt><trkpt lat="42.8223065" lon="11.5175695"><ele>1062.0</ele><time>2026-04-26T11:45:47.195Z</time></trkpt><trkpt lat="42.8222156" lon="11.517685"><ele>1062.0</ele><time>2026-04-26T11:45:48.184Z</time></trkpt><trkpt lat="42.8221227" lon="11.517795"><ele>1062.0</ele><time>2026-04-26T11:45:49.179Z</time></trkpt><trkpt lat="42.8220299" lon="11.5178959"><ele>1062.0</ele><time>2026-04-26T11:45:50.18Z</time></trkpt><trkpt lat="42.821936" lon="11.517987"><ele>1063.8</ele><time>2026-04-26T11:45:51.196Z</time></trkpt><trkpt lat="42.8218439" lon="11.5180692"><ele>1065.6</ele><time>2026-04-26T11:45:52.188Z</time></trkpt><trkpt lat="42.8217546" lon="11.5181534"><ele>1067.3999999999999</ele><time>2026-04-26T11:45:53.185Z</time></trkpt><trkpt lat="42.8216687" lon="11.5182465"><ele>1069.2</ele><time>2026-04-26T11:45:54.198Z</time></trkpt><trkpt lat="42.8215855" lon="11.5183463"><ele>1071.0</ele><time>2026-04-26T11:45:55.193Z</time></trkpt><trkpt lat="42.8215088" lon="11.5184637"><ele>1071.0</ele><time>2026-04-26T11:45:56.187Z</time></trkpt><trkpt lat="42.8214321" lon="11.5185875"><ele>1071.0</ele><time>2026-04-26T11:45:57.191Z</time></trkpt><trkpt lat="42.8213524" lon="11.5187142"><ele>1071.0</ele><time>2026-04-26T11:45:58.201Z</time></trkpt><trkpt lat="42.821273" lon="11.5188376"><ele>1071.0</ele><time>2026-04-26T11:45:59.195Z</time></trkpt><trkpt lat="42.8211945" lon="11.5189622"><ele>1072.25</ele><time>2026-04-26T11:46:00.197Z</time></trkpt><trkpt lat="42.8211177" lon="11.519085"><ele>1073.5</ele><time>2026-04-26T11:46:01.199Z</time></trkpt><trkpt lat="42.8210422" lon="11.5192055"><ele>1074.75</ele><time>2026-04-26T11:46:02.175Z</time></trkpt><trkpt lat="42.8209662" lon="11.5193373"><ele>1076.0</ele><time>2026-04-26T11:46:03.183Z</time></trkpt><trkpt lat="42.8208916" lon="11.5194791"><ele>1080.0</ele><time>2026-04-26T11:46:04.179Z</time></trkpt><trkpt lat="42.8208226" lon="11.5196408"><ele>1084.0</ele><time>2026-04-26T11:46:05.192Z</time></trkpt><trkpt lat="42.8207681" lon="11.5198303"><ele>1088.0</ele><time>2026-04-26T11:46:06.184Z</time></trkpt><trkpt lat="42.8207165" lon="11.5200282"><ele>1092.0</ele><time>2026-04-26T11:46:07.194Z</time></trkpt><trkpt lat="42.820672" lon="11.5202228"><ele>1094.25</ele><time>2026-04-26T11:46:08.194Z</time></trkpt><trkpt lat="42.820633" lon="11.5204111"><ele>1096.5</ele><time>2026-04-26T11:46:09.193Z</time></trkpt><trkpt lat="42.8205948" lon="11.5205833"><ele>1098.75</ele><time>2026-04-26T11:46:10.191Z</time></trkpt><trkpt lat="42.8205518" lon="11.5207418"><ele>1101.0</ele><time>2026-04-26T11:46:11.2Z</time></trkpt><trkpt lat="42.8205069" lon="11.5208927"><ele>1101.0</ele><time>2026-04-26T11:46:12.191Z</time></trkpt><trkpt lat="42.8204607" lon="11.5210393"><ele>1101.0</ele><time>2026-04-26T11:46:13.19Z</time></trkpt><trkpt lat="42.820413" lon="11.5211889"><ele>1101.0</ele><time>2026-04-26T11:46:14.191Z</time></trkpt><trkpt lat="42.8203569" lon="11.5213532"><ele>1101.0</ele><time>2026-04-26T11:46:15.183Z</time></trkpt><trkpt lat="42.820294" lon="11.5215219"><ele>1100.5</ele><time>2026-04-26T11:46:16.197Z</time></trkpt><trkpt lat="42.8202271" lon="11.5216856"><ele>1100.0</ele><time>2026-04-26T11:46:17.193Z</time></trkpt><trkpt lat="42.8201571" lon="11.5218461"><ele>1099.5</ele><time>2026-04-26T11:46:18.19Z</time></trkpt><trkpt lat="42.8200929" lon="11.5219998"><ele>1099.0</ele><time>2026-04-26T11:46:19.184Z</time></trkpt><trkpt lat="42.8200344" lon="11.5221531"><ele>1096.25</ele><time>2026-04-26T11:46:20.186Z</time></trkpt><trkpt lat="42.819982" lon="11.5223032"><ele>1093.5</ele><time>2026-04-26T11:46:21.183Z</time></trkpt><trkpt lat="42.8199319" lon="11.5224514"><ele>1090.75</ele><time>2026-04-26T11:46:22.184Z</time></trkpt><trkpt lat="42.8198791" lon="11.5226031"><ele>1088.0</ele><time>2026-04-26T11:46:23.199Z</time></trkpt><trkpt lat="42.8198249" lon="11.522755"><ele>1090.5</ele><time>2026-04-26T11:46:24.183Z</time></trkpt><trkpt lat="42.8197701" lon="11.5229087"><ele>1093.0</ele><time>2026-04-26T11:46:25.194Z</time></trkpt><trkpt lat="42.8197198" lon="11.5230631"><ele>1095.5</ele><time>2026-04-26T11:46:26.179Z</time></trkpt><trkpt lat="42.8196745" lon="11.5232149"><ele>1098.0</ele><time>2026-04-26T11:46:27.194Z</time></trkpt><trkpt lat="42.8196324" lon="11.5233611"><ele>1098.0</ele><time>2026-04-26T11:46:28.201Z</time></trkpt><trkpt lat="42.8195942" lon="11.5234977"><ele>1098.0</ele><time>2026-04-26T11:46:29.18Z</time></trkpt><trkpt lat="42.8195564" lon="11.5236289"><ele>1098.0</ele><time>2026-04-26T11:46:30.179Z</time></trkpt><trkpt lat="42.8195199" lon="11.5237581"><ele>1098.0</ele><time>2026-04-26T11:46:31.191Z</time></trkpt><trkpt lat="42.8194884" lon="11.5238761"><ele>1098.0</ele><time>2026-04-26T11:46:32.201Z</time></trkpt><trkpt lat="42.8194614" lon="11.523979"><ele>1098.5714285714284</ele><time>2026-04-26T11:46:33.182Z</time></trkpt><trkpt lat="42.8194334" lon="11.5240689"><ele>1099.142857142857</ele><time>2026-04-26T11:46:34.198Z</time></trkpt><trkpt lat="42.8194052" lon="11.5241575"><ele>1099.7142857142858</ele><time>2026-04-26T11:46:35.182Z</time></trkpt><trkpt lat="42.8193772" lon="11.5242484"><ele>1100.2857142857142</ele><time>2026-04-26T11:46:36.196Z</time></trkpt><trkpt lat="42.8193454" lon="11.5243423"><ele>1100.857142857143</ele><time>2026-04-26T11:46:37.187Z</time></trkpt><trkpt lat="42.8193135" lon="11.5244381"><ele>1101.4285714285713</ele><time>2026-04-26T11:46:38.193Z</time></trkpt><trkpt lat="42.8192825" lon="11.5245301"><ele>1102.0</ele><time>2026-04-26T11:46:39.2Z</time></trkpt><trkpt lat="42.8192545" lon="11.5246128"><ele>1102.8333333333333</ele><time>2026-04-26T11:46:40.198Z</time></trkpt><trkpt lat="42.8192025" lon="11.5247425"><ele>1103.6666666666665</ele><time>2026-04-26T11:46:42.199Z</time></trkpt><trkpt lat="42.819172" lon="11.5248411"><ele>1104.5</ele><time>2026-04-26T11:46:45.195Z</time></trkpt><trkpt lat="42.8191448" lon="11.524922"><ele>1105.3333333333333</ele><time>2026-04-26T11:47:02.199Z</time></trkpt><trkpt lat="42.8191211" lon="11.5250319"><ele>1106.1666666666667</ele><time>2026-04-26T11:49:15.191Z</time></trkpt><trkpt lat="42.8190816" lon="11.5251501"><ele>1107.0</ele><time>2026-04-26T11:49:17.186Z</time></trkpt><trkpt lat="42.8190282" lon="11.5253066"><ele>1107.0</ele><time>2026-04-26T11:49:19.2Z</time></trkpt><trkpt lat="42.819001" lon="11.5253889"><ele>1107.0</ele><time>2026-04-26T11:49:20.195Z</time></trkpt><trkpt lat="42.8189626" lon="11.5255413"><ele>1107.0</ele><time>2026-04-26T11:49:22.182Z</time></trkpt><trkpt lat="42.8189331" lon="11.5256777"><ele>1107.0</ele><time>2026-04-26T11:49:24.196Z</time></trkpt><trkpt lat="42.8189092" lon="11.5258021"><ele>1107.0</ele><time>2026-04-26T11:49:26.199Z</time></trkpt><trkpt lat="42.8188905" lon="11.525914"><ele>1108.2</ele><time>2026-04-26T11:49:28.19Z</time></trkpt><trkpt lat="42.8188663" lon="11.5260279"><ele>1109.4</ele><time>2026-04-26T11:49:30.19Z</time></trkpt><trkpt lat="42.8188385" lon="11.5261459"><ele>1110.6</ele><time>2026-04-26T11:49:32.198Z</time></trkpt><trkpt lat="42.8188148" lon="11.5262751"><ele>1111.8</ele><time>2026-04-26T11:49:34.181Z</time></trkpt><trkpt lat="42.8187881" lon="11.5264083"><ele>1113.0</ele><time>2026-04-26T11:49:36.181Z</time></trkpt><trkpt lat="42.8187632" lon="11.5265369"><ele>1113.1666666666667</ele><time>2026-04-26T11:49:38.192Z</time></trkpt><trkpt lat="42.8187415" lon="11.526678"><ele>1113.3333333333333</ele><time>2026-04-26T11:49:40.185Z</time></trkpt><trkpt lat="42.8187189" lon="11.5268436"><ele>1113.5</ele><time>2026-04-26T11:49:42.201Z</time></trkpt><trkpt lat="42.8187077" lon="11.5269369"><ele>1113.6666666666665</ele><time>2026-04-26T11:49:43.181Z</time></trkpt><trkpt lat="42.8186971" lon="11.5270363"><ele>1113.8333333333333</ele><time>2026-04-26T11:49:44.197Z</time></trkpt><trkpt lat="42.8186893" lon="11.5271408"><ele>1114.0</ele><time>2026-04-26T11:49:45.186Z</time></trkpt><trkpt lat="42.8186868" lon="11.5272486"><ele>1114.0</ele><time>2026-04-26T11:49:46.183Z</time></trkpt><trkpt lat="42.8186917" lon="11.5273595"><ele>1114.0</ele><time>2026-04-26T11:49:47.188Z</time></trkpt><trkpt lat="42.8187011" lon="11.5274738"><ele>1114.0</ele><time>2026-04-26T11:49:48.191Z</time></trkpt><trkpt lat="42.8187162" lon="11.5275936"><ele>1114.0</ele><time>2026-04-26T11:49:49.184Z</time></trkpt><trkpt lat="42.8187371" lon="11.5277184"><ele>1114.0</ele><time>2026-04-26T11:49:50.185Z</time></trkpt><trkpt lat="42.8187615" lon="11.5278374"><ele>1114.0</ele><time>2026-04-26T11:49:51.19Z</time></trkpt><trkpt lat="42.8187888" lon="11.5279584"><ele>1111.3333333333333</ele><time>2026-04-26T11:49:52.196Z</time></trkpt><trkpt lat="42.8188163" lon="11.5280818"><ele>1108.6666666666665</ele><time>2026-04-26T11:49:53.188Z</time></trkpt><trkpt lat="42.818841" lon="11.5281998"><ele>1106.0</ele><time>2026-04-26T11:49:54.182Z</time></trkpt><trkpt lat="42.8188637" lon="11.5283142"><ele>1103.3333333333333</ele><time>2026-04-26T11:49:55.19Z</time></trkpt><trkpt lat="42.8188849" lon="11.5284232"><ele>1100.6666666666667</ele><time>2026-04-26T11:49:56.199Z</time></trkpt><trkpt lat="42.8189077" lon="11.5285246"><ele>1098.0</ele><time>2026-04-26T11:49:57.186Z</time></trkpt><trkpt lat="42.818936" lon="11.5286174"><ele>1098.0</ele><time>2026-04-26T11:49:58.199Z</time></trkpt><trkpt lat="42.8189752" lon="11.528698"><ele>1098.0</ele><time>2026-04-26T11:49:59.194Z</time></trkpt><trkpt lat="42.819029" lon="11.528761"><ele>1098.0</ele><time>2026-04-26T11:50:00.188Z</time></trkpt><trkpt lat="42.8190989" lon="11.5288101"><ele>1098.0</ele><time>2026-04-26T11:50:01.184Z</time></trkpt><trkpt lat="42.8191838" lon="11.5288517"><ele>1098.0</ele><time>2026-04-26T11:50:02.196Z</time></trkpt><trkpt lat="42.8192798" lon="11.5288874"><ele>1098.0</ele><time>2026-04-26T11:50:03.198Z</time></trkpt><trkpt lat="42.8193806" lon="11.528929"><ele>1094.2</ele><time>2026-04-26T11:50:04.196Z</time></trkpt><trkpt lat="42.81948" lon="11.5289744"><ele>1090.4</ele><time>2026-04-26T11:50:05.185Z</time></trkpt><trkpt lat="42.8195806" lon="11.5290225"><ele>1086.6000000000001</ele><time>2026-04-26T11:50:06.189Z</time></trkpt><trkpt lat="42.8196832" lon="11.5290707"><ele>1082.8</ele><time>2026-04-26T11:50:07.19Z</time></trkpt><trkpt lat="42.8197858" lon="11.5291194"><ele>1079.0</ele><time>2026-04-26T11:50:08.198Z</time></trkpt><trkpt lat="42.8198895" lon="11.529169"><ele>1079.0</ele><time>2026-04-26T11:50:09.203Z</time></trkpt><trkpt lat="42.8199941" lon="11.5292251"><ele>1079.0</ele><time>2026-04-26T11:50:10.189Z</time></trkpt><trkpt lat="42.8200977" lon="11.5292842"><ele>1079.0</ele><time>2026-04-26T11:50:11.2Z</time></trkpt><trkpt lat="42.8201945" lon="11.5293393"><ele>1079.0</ele><time>2026-04-26T11:50:12.193Z</time></trkpt><trkpt lat="42.8202826" lon="11.5293831"><ele>1079.0</ele><time>2026-04-26T11:50:13.196Z</time></trkpt><trkpt lat="42.8203642" lon="11.5294159"><ele>1078.8333333333335</ele><time>2026-04-26T11:50:14.193Z</time></trkpt><trkpt lat="42.8204412" lon="11.5294466"><ele>1078.6666666666667</ele><time>2026-04-26T11:50:15.203Z</time></trkpt><trkpt lat="42.8205168" lon="11.529438"><ele>1078.5</ele><time>2026-04-26T11:50:16.189Z</time></trkpt><trkpt lat="42.820593" lon="11.5294136"><ele>1078.3333333333333</ele><time>2026-04-26T11:50:17.189Z</time></trkpt><trkpt lat="42.8206704" lon="11.5293879"><ele>1078.1666666666665</ele><time>2026-04-26T11:50:18.2Z</time></trkpt><trkpt lat="42.8207519" lon="11.5293541"><ele>1078.0</ele><time>2026-04-26T11:50:19.197Z</time></trkpt><trkpt lat="42.820833" lon="11.5293183"><ele>1078.0</ele><time>2026-04-26T11:50:20.179Z</time></trkpt><trkpt lat="42.8209162" lon="11.5292847"><ele>1078.0</ele><time>2026-04-26T11:50:21.194Z</time></trkpt><trkpt lat="42.8210011" lon="11.5292565"><ele>1078.0</ele><time>2026-04-26T11:50:22.202Z</time></trkpt><trkpt lat="42.8210852" lon="11.5292337"><ele>1078.0</ele><time>2026-04-26T11:50:23.183Z</time></trkpt><trkpt lat="42.8211696" lon="11.5292145"><ele>1078.0</ele><time>2026-04-26T11:50:24.194Z</time></trkpt><trkpt lat="42.8212531" lon="11.5291966"><ele>1078.0</ele><time>2026-04-26T11:50:25.195Z</time></trkpt><trkpt lat="42.8213356" lon="11.5291823"><ele>1075.8</ele><time>2026-04-26T11:50:26.186Z</time></trkpt><trkpt lat="42.8214197" lon="11.5291705"><ele>1073.6</ele><time>2026-04-26T11:50:27.201Z</time></trkpt><trkpt lat="42.8215074" lon="11.5291622"><ele>1071.4</ele><time>2026-04-26T11:50:28.193Z</time></trkpt><trkpt lat="42.8216001" lon="11.5291546"><ele>1069.2</ele><time>2026-04-26T11:50:29.18Z</time></trkpt><trkpt lat="42.8216981" lon="11.5291499"><ele>1067.0</ele><time>2026-04-26T11:50:30.178Z</time></trkpt><trkpt lat="42.8217975" lon="11.5291491"><ele>1064.6</ele><time>2026-04-26T11:50:31.184Z</time></trkpt><trkpt lat="42.8218935" lon="11.5291494"><ele>1062.2</ele><time>2026-04-26T11:50:32.19Z</time></trkpt><trkpt lat="42.8219874" lon="11.5291482"><ele>1059.8</ele><time>2026-04-26T11:50:33.181Z</time></trkpt><trkpt lat="42.8220777" lon="11.5291477"><ele>1057.4</ele><time>2026-04-26T11:50:34.199Z</time></trkpt><trkpt lat="42.8221657" lon="11.5291567"><ele>1055.0</ele><time>2026-04-26T11:50:35.184Z</time></trkpt><trkpt lat="42.8222525" lon="11.529167"><ele>1055.0</ele><time>2026-04-26T11:50:36.194Z</time></trkpt><trkpt lat="42.8223385" lon="11.529201"><ele>1055.0</ele><time>2026-04-26T11:50:37.194Z</time></trkpt><trkpt lat="42.8224187" lon="11.5292412"><ele>1055.0</ele><time>2026-04-26T11:50:38.198Z</time></trkpt><trkpt lat="42.8225027" lon="11.5292857"><ele>1055.0</ele><time>2026-04-26T11:50:39.188Z</time></trkpt><trkpt lat="42.8225871" lon="11.5293365"><ele>1055.0</ele><time>2026-04-26T11:50:40.191Z</time></trkpt><trkpt lat="42.8226705" lon="11.5293857"><ele>1055.0</ele><time>2026-04-26T11:50:41.192Z</time></trkpt><trkpt lat="42.8227574" lon="11.5294474"><ele>1053.2</ele><time>2026-04-26T11:50:42.19Z</time></trkpt><trkpt lat="42.8228466" lon="11.5295271"><ele>1051.4</ele><time>2026-04-26T11:50:43.184Z</time></trkpt><trkpt lat="42.8229376" lon="11.5296064"><ele>1049.6</ele><time>2026-04-26T11:50:44.192Z</time></trkpt><trkpt lat="42.8230239" lon="11.5296835"><ele>1047.8</ele><time>2026-04-26T11:50:45.195Z</time></trkpt><trkpt lat="42.8231008" lon="11.5297617"><ele>1046.0</ele><time>2026-04-26T11:50:46.198Z</time></trkpt><trkpt lat="42.8231769" lon="11.5298392"><ele>1045.3999999999999</ele><time>2026-04-26T11:50:47.189Z</time></trkpt><trkpt lat="42.8232525" lon="11.5299206"><ele>1044.8</ele><time>2026-04-26T11:50:48.198Z</time></trkpt><trkpt lat="42.8233265" lon="11.5300037"><ele>1044.1999999999998</ele><time>2026-04-26T11:50:49.196Z</time></trkpt><trkpt lat="42.8233963" lon="11.5300958"><ele>1043.6</ele><time>2026-04-26T11:50:50.198Z</time></trkpt><trkpt lat="42.8234564" lon="11.5301948"><ele>1043.0</ele><time>2026-04-26T11:50:51.204Z</time></trkpt><trkpt lat="42.823512" lon="11.5302889"><ele>1042.4285714285713</ele><time>2026-04-26T11:50:52.186Z</time></trkpt><trkpt lat="42.8235665" lon="11.5303807"><ele>1041.857142857143</ele><time>2026-04-26T11:50:53.196Z</time></trkpt><trkpt lat="42.8236145" lon="11.53047"><ele>1041.2857142857142</ele><time>2026-04-26T11:50:54.195Z</time></trkpt><trkpt lat="42.8236535" lon="11.5305552"><ele>1040.7142857142858</ele><time>2026-04-26T11:50:55.197Z</time></trkpt><trkpt lat="42.8236761" lon="11.5306392"><ele>1040.142857142857</ele><time>2026-04-26T11:50:56.198Z</time></trkpt><trkpt lat="42.8236821" lon="11.5307304"><ele>1039.5714285714284</ele><time>2026-04-26T11:50:57.183Z</time></trkpt><trkpt lat="42.8236731" lon="11.5308266"><ele>1039.0</ele><time>2026-04-26T11:50:58.204Z</time></trkpt><trkpt lat="42.8236488" lon="11.5309239"><ele>1038.8333333333333</ele><time>2026-04-26T11:50:59.202Z</time></trkpt><trkpt lat="42.8236143" lon="11.5310272"><ele>1038.6666666666665</ele><time>2026-04-26T11:51:00.198Z</time></trkpt><trkpt lat="42.8235762" lon="11.5311318"><ele>1038.5</ele><time>2026-04-26T11:51:01.198Z</time></trkpt><trkpt lat="42.8235408" lon="11.5312371"><ele>1038.3333333333333</ele><time>2026-04-26T11:51:02.192Z</time></trkpt><trkpt lat="42.8235137" lon="11.5313381"><ele>1038.1666666666667</ele><time>2026-04-26T11:51:03.187Z</time></trkpt><trkpt lat="42.8235003" lon="11.5314342"><ele>1038.0</ele><time>2026-04-26T11:51:04.186Z</time></trkpt><trkpt lat="42.8234992" lon="11.5315236"><ele>1035.8333333333333</ele><time>2026-04-26T11:51:05.201Z</time></trkpt><trkpt lat="42.8235164" lon="11.5316818"><ele>1033.6666666666667</ele><time>2026-04-26T11:51:07.181Z</time></trkpt><trkpt lat="42.823543" lon="11.5317608"><ele>1031.5</ele><time>2026-04-26T11:51:08.193Z</time></trkpt><trkpt lat="42.8235789" lon="11.5318353"><ele>1029.3333333333335</ele><time>2026-04-26T11:51:09.196Z</time></trkpt><trkpt lat="42.8236254" lon="11.5319024"><ele>1027.1666666666667</ele><time>2026-04-26T11:51:10.192Z</time></trkpt><trkpt lat="42.8236812" lon="11.5319535"><ele>1025.0</ele><time>2026-04-26T11:51:11.192Z</time></trkpt><trkpt lat="42.8237472" lon="11.5319906"><ele>1025.0</ele><time>2026-04-26T11:51:12.182Z</time></trkpt><trkpt lat="42.8238268" lon="11.5320153"><ele>1025.0</ele><time>2026-04-26T11:51:13.195Z</time></trkpt><trkpt lat="42.823915" lon="11.5320256"><ele>1025.0</ele><time>2026-04-26T11:51:14.194Z</time></trkpt><trkpt lat="42.8240135" lon="11.5320261"><ele>1025.0</ele><time>2026-04-26T11:51:15.184Z</time></trkpt><trkpt lat="42.8241175" lon="11.5320288"><ele>1025.0</ele><time>2026-04-26T11:51:16.199Z</time></trkpt><trkpt lat="42.8242207" lon="11.5320398"><ele>1020.6</ele><time>2026-04-26T11:51:17.187Z</time></trkpt><trkpt lat="42.8243203" lon="11.5320598"><ele>1016.2</ele><time>2026-04-26T11:51:18.194Z</time></trkpt><trkpt lat="42.824416" lon="11.532088"><ele>1011.8</ele><time>2026-04-26T11:51:19.198Z</time></trkpt><trkpt lat="42.8245088" lon="11.5321144"><ele>1007.4</ele><time>2026-04-26T11:51:20.181Z</time></trkpt><trkpt lat="42.8246048" lon="11.5321321"><ele>1003.0</ele><time>2026-04-26T11:51:21.187Z</time></trkpt><trkpt lat="42.8247018" lon="11.5321405"><ele>1003.0</ele><time>2026-04-26T11:51:22.199Z</time></trkpt><trkpt lat="42.8247971" lon="11.5321369"><ele>1003.0</ele><time>2026-04-26T11:51:23.199Z</time></trkpt><trkpt lat="42.8249051" lon="11.5321174"><ele>1003.0</ele><time>2026-04-26T11:51:24.202Z</time></trkpt><trkpt lat="42.8250151" lon="11.5320992"><ele>1003.0</ele><time>2026-04-26T11:51:25.183Z</time></trkpt><trkpt lat="42.8251239" lon="11.5320815"><ele>1003.0</ele><time>2026-04-26T11:51:26.182Z</time></trkpt><trkpt lat="42.8252326" lon="11.5320627"><ele>1003.2</ele><time>2026-04-26T11:51:27.184Z</time></trkpt><trkpt lat="42.825339" lon="11.5320456"><ele>1003.4</ele><time>2026-04-26T11:51:28.18Z</time></trkpt><trkpt lat="42.8254466" lon="11.532035"><ele>1003.6000000000001</ele><time>2026-04-26T11:51:29.179Z</time></trkpt><trkpt lat="42.8255504" lon="11.5320263"><ele>1003.8000000000001</ele><time>2026-04-26T11:51:30.183Z</time></trkpt><trkpt lat="42.8256495" lon="11.5320267"><ele>1004.0</ele><time>2026-04-26T11:51:31.193Z</time></trkpt><trkpt lat="42.8257373" lon="11.532034"><ele>1004.0000000000001</ele><time>2026-04-26T11:51:32.183Z</time></trkpt><trkpt lat="42.8258226" lon="11.5320419"><ele>1004.0</ele><time>2026-04-26T11:51:33.182Z</time></trkpt><trkpt lat="42.8258969" lon="11.5320763"><ele>1004.0</ele><time>2026-04-26T11:51:34.193Z</time></trkpt><trkpt lat="42.8259731" lon="11.532112"><ele>1004.0</ele><time>2026-04-26T11:51:35.18Z</time></trkpt><trkpt lat="42.8260453" lon="11.5321683"><ele>1004.0000000000001</ele><time>2026-04-26T11:51:36.191Z</time></trkpt><trkpt lat="42.8261126" lon="11.5322335"><ele>1004.0</ele><time>2026-04-26T11:51:37.181Z</time></trkpt><trkpt lat="42.8261713" lon="11.5323116"><ele>999.6666666666667</ele><time>2026-04-26T11:51:38.183Z</time></trkpt><trkpt lat="42.8262326" lon="11.5323923"><ele>995.3333333333334</ele><time>2026-04-26T11:51:39.183Z</time></trkpt><trkpt lat="42.8262676" lon="11.5324926"><ele>991.0</ele><time>2026-04-26T11:51:40.195Z</time></trkpt><trkpt lat="42.826284" lon="11.5325974"><ele>986.6666666666667</ele><time>2026-04-26T11:51:41.189Z</time></trkpt><trkpt lat="42.8262827" lon="11.5327005"><ele>982.3333333333334</ele><time>2026-04-26T11:51:42.194Z</time></trkpt><trkpt lat="42.8262637" lon="11.5327985"><ele>978.0</ele><time>2026-04-26T11:51:43.198Z</time></trkpt><trkpt lat="42.826228" lon="11.5328869"><ele>978.8333333333334</ele><time>2026-04-26T11:51:44.195Z</time></trkpt><trkpt lat="42.8261732" lon="11.5329525"><ele>979.6666666666667</ele><time>2026-04-26T11:51:45.181Z</time></trkpt><trkpt lat="42.8261006" lon="11.5330041"><ele>980.5</ele><time>2026-04-26T11:51:46.19Z</time></trkpt><trkpt lat="42.8260108" lon="11.5330465"><ele>981.3333333333334</ele><time>2026-04-26T11:51:47.195Z</time></trkpt><trkpt lat="42.8259177" lon="11.53309"><ele>982.1666666666667</ele><time>2026-04-26T11:51:48.183Z</time></trkpt><trkpt lat="42.8258327" lon="11.5331437"><ele>983.0</ele><time>2026-04-26T11:51:49.192Z</time></trkpt><trkpt lat="42.825758" lon="11.5332134"><ele>983.0000000000001</ele><time>2026-04-26T11:51:50.185Z</time></trkpt><trkpt lat="42.8256942" lon="11.5332997"><ele>983.0</ele><time>2026-04-26T11:51:51.178Z</time></trkpt><trkpt lat="42.8256382" lon="11.5333947"><ele>983.0</ele><time>2026-04-26T11:51:52.191Z</time></trkpt><trkpt lat="42.8255936" lon="11.5334958"><ele>983.0</ele><time>2026-04-26T11:51:53.193Z</time></trkpt><trkpt lat="42.8255567" lon="11.5335998"><ele>983.0000000000001</ele><time>2026-04-26T11:51:54.199Z</time></trkpt><trkpt lat="42.8255458" lon="11.5337179"><ele>983.0</ele><time>2026-04-26T11:51:55.199Z</time></trkpt><trkpt lat="42.8255478" lon="11.5338431"><ele>981.8333333333334</ele><time>2026-04-26T11:51:56.186Z</time></trkpt><trkpt lat="42.8255523" lon="11.5339665"><ele>980.6666666666667</ele><time>2026-04-26T11:51:57.203Z</time></trkpt><trkpt lat="42.8255571" lon="11.5340838"><ele>979.5</ele><time>2026-04-26T11:51:58.186Z</time></trkpt><trkpt lat="42.8255647" lon="11.5342028"><ele>978.3333333333333</ele><time>2026-04-26T11:51:59.2Z</time></trkpt><trkpt lat="42.8255756" lon="11.5343148"><ele>977.1666666666666</ele><time>2026-04-26T11:52:00.196Z</time></trkpt><trkpt lat="42.8255934" lon="11.5344206"><ele>976.0</ele><time>2026-04-26T11:52:01.197Z</time></trkpt><trkpt lat="42.8256271" lon="11.5345174"><ele>976.3333333333333</ele><time>2026-04-26T11:52:02.199Z</time></trkpt><trkpt lat="42.8256747" lon="11.5346"><ele>976.6666666666666</ele><time>2026-04-26T11:52:03.184Z</time></trkpt><trkpt lat="42.8257389" lon="11.5346646"><ele>977.0</ele><time>2026-04-26T11:52:04.197Z</time></trkpt><trkpt lat="42.8258166" lon="11.5347086"><ele>977.3333333333333</ele><time>2026-04-26T11:52:05.189Z</time></trkpt><trkpt lat="42.825903" lon="11.5347316"><ele>977.6666666666666</ele><time>2026-04-26T11:52:06.194Z</time></trkpt><trkpt lat="42.8259907" lon="11.5347353"><ele>978.0</ele><time>2026-04-26T11:52:07.19Z</time></trkpt><trkpt lat="42.8260788" lon="11.5347184"><ele>977.2</ele><time>2026-04-26T11:52:08.195Z</time></trkpt><trkpt lat="42.8261676" lon="11.5346849"><ele>976.4</ele><time>2026-04-26T11:52:09.194Z</time></trkpt><trkpt lat="42.8262593" lon="11.5346414"><ele>975.6000000000001</ele><time>2026-04-26T11:52:10.183Z</time></trkpt><trkpt lat="42.8263552" lon="11.5345963"><ele>974.8000000000001</ele><time>2026-04-26T11:52:11.2Z</time></trkpt><trkpt lat="42.8264531" lon="11.5345488"><ele>974.0</ele><time>2026-04-26T11:52:12.188Z</time></trkpt><trkpt lat="42.8265551" lon="11.5344966"><ele>972.4000000000001</ele><time>2026-04-26T11:52:13.196Z</time></trkpt><trkpt lat="42.8266569" lon="11.5344483"><ele>970.8000000000001</ele><time>2026-04-26T11:52:14.181Z</time></trkpt><trkpt lat="42.8267592" lon="11.5344116"><ele>969.1999999999999</ele><time>2026-04-26T11:52:15.185Z</time></trkpt><trkpt lat="42.826858" lon="11.5343765"><ele>967.5999999999999</ele><time>2026-04-26T11:52:16.178Z</time></trkpt><trkpt lat="42.8269543" lon="11.5343361"><ele>966.0</ele><time>2026-04-26T11:52:17.183Z</time></trkpt><trkpt lat="42.8270526" lon="11.5342963"><ele>964.8</ele><time>2026-04-26T11:52:18.195Z</time></trkpt><trkpt lat="42.8271553" lon="11.534263"><ele>963.5999999999999</ele><time>2026-04-26T11:52:19.189Z</time></trkpt><trkpt lat="42.8272625" lon="11.5342389"><ele>962.4</ele><time>2026-04-26T11:52:20.197Z</time></trkpt><trkpt lat="42.8273726" lon="11.5342204"><ele>961.2</ele><time>2026-04-26T11:52:21.177Z</time></trkpt><trkpt lat="42.8274852" lon="11.5342009"><ele>960.0</ele><time>2026-04-26T11:52:22.193Z</time></trkpt><trkpt lat="42.8276008" lon="11.5341747"><ele>959.25</ele><time>2026-04-26T11:52:23.199Z</time></trkpt><trkpt lat="42.8277174" lon="11.5341482"><ele>958.5</ele><time>2026-04-26T11:52:24.181Z</time></trkpt><trkpt lat="42.827836" lon="11.5341226"><ele>957.75</ele><time>2026-04-26T11:52:25.191Z</time></trkpt><trkpt lat="42.8279558" lon="11.534097"><ele>957.0</ele><time>2026-04-26T11:52:26.189Z</time></trkpt><trkpt lat="42.8280749" lon="11.5340745"><ele>957.0</ele><time>2026-04-26T11:52:27.186Z</time></trkpt><trkpt lat="42.8281903" lon="11.5340586"><ele>957.0</ele><time>2026-04-26T11:52:28.193Z</time></trkpt><trkpt lat="42.8283032" lon="11.5340497"><ele>957.0</ele><time>2026-04-26T11:52:29.195Z</time></trkpt><trkpt lat="42.8284156" lon="11.5340437"><ele>957.0</ele><time>2026-04-26T11:52:30.196Z</time></trkpt><trkpt lat="42.8285297" lon="11.5340389"><ele>954.6</ele><time>2026-04-26T11:52:31.202Z</time></trkpt><trkpt lat="42.8286451" lon="11.5340329"><ele>952.2</ele><time>2026-04-26T11:52:32.191Z</time></trkpt><trkpt lat="42.8287593" lon="11.5340286"><ele>949.8</ele><time>2026-04-26T11:52:33.179Z</time></trkpt><trkpt lat="42.8288711" lon="11.5340263"><ele>947.4</ele><time>2026-04-26T11:52:34.195Z</time></trkpt><trkpt lat="42.8289772" lon="11.5340254"><ele>945.0</ele><time>2026-04-26T11:52:35.194Z</time></trkpt><trkpt lat="42.8290801" lon="11.534031"><ele>945.0</ele><time>2026-04-26T11:52:36.188Z</time></trkpt><trkpt lat="42.8291764" lon="11.5340424"><ele>945.0</ele><time>2026-04-26T11:52:37.194Z</time></trkpt><trkpt lat="42.8292631" lon="11.5340604"><ele>945.0</ele><time>2026-04-26T11:52:38.192Z</time></trkpt><trkpt lat="42.8293442" lon="11.5340914"><ele>945.0</ele><time>2026-04-26T11:52:39.182Z</time></trkpt><trkpt lat="42.8294189" lon="11.5341353"><ele>945.0</ele><time>2026-04-26T11:52:40.181Z</time></trkpt><trkpt lat="42.8294842" lon="11.5341847"><ele>945.0</ele><time>2026-04-26T11:52:41.181Z</time></trkpt><trkpt lat="42.8295443" lon="11.534235"><ele>941.6</ele><time>2026-04-26T11:52:42.179Z</time></trkpt><trkpt lat="42.829597" lon="11.5343072"><ele>938.2</ele><time>2026-04-26T11:52:43.18Z</time></trkpt><trkpt lat="42.8296449" lon="11.5344012"><ele>934.8</ele><time>2026-04-26T11:52:44.207Z</time></trkpt><trkpt lat="42.8296919" lon="11.5345103"><ele>931.4</ele><time>2026-04-26T11:52:45.19Z</time></trkpt><trkpt lat="42.8297443" lon="11.5346569"><ele>928.0</ele><time>2026-04-26T11:52:46.196Z</time></trkpt><trkpt lat="42.8298038" lon="11.5348092"><ele>928.0</ele><time>2026-04-26T11:52:47.191Z</time></trkpt><trkpt lat="42.8298648" lon="11.5349531"><ele>928.0</ele><time>2026-04-26T11:52:48.177Z</time></trkpt><trkpt lat="42.8299251" lon="11.5350958"><ele>928.0</ele><time>2026-04-26T11:52:49.198Z</time></trkpt><trkpt lat="42.8299847" lon="11.535233"><ele>928.0</ele><time>2026-04-26T11:52:50.179Z</time></trkpt><trkpt lat="42.830042" lon="11.5353707"><ele>928.0</ele><time>2026-04-26T11:52:51.179Z</time></trkpt><trkpt lat="42.8300921" lon="11.5355076"><ele>928.0</ele><time>2026-04-26T11:52:52.194Z</time></trkpt><trkpt lat="42.8301376" lon="11.5356405"><ele>928.0</ele><time>2026-04-26T11:52:53.177Z</time></trkpt><trkpt lat="42.8301841" lon="11.5357717"><ele>928.0</ele><time>2026-04-26T11:52:54.198Z</time></trkpt><trkpt lat="42.8302337" lon="11.5359022"><ele>928.0</ele><time>2026-04-26T11:52:55.193Z</time></trkpt><trkpt lat="42.8302803" lon="11.5360351"><ele>923.75</ele><time>2026-04-26T11:52:56.187Z</time></trkpt><trkpt lat="42.8303233" lon="11.5361723"><ele>919.5</ele><time>2026-04-26T11:52:57.2Z</time></trkpt><trkpt lat="42.8303685" lon="11.5363161"><ele>915.25</ele><time>2026-04-26T11:52:58.196Z</time></trkpt><trkpt lat="42.8304222" lon="11.5364714"><ele>911.0</ele><time>2026-04-26T11:52:59.196Z</time></trkpt><trkpt lat="42.8304856" lon="11.5366275"><ele>911.0</ele><time>2026-04-26T11:53:00.195Z</time></trkpt><trkpt lat="42.8305553" lon="11.5367783"><ele>911.0</ele><time>2026-04-26T11:53:01.182Z</time></trkpt><trkpt lat="42.830628" lon="11.5369206"><ele>911.0</ele><time>2026-04-26T11:53:02.182Z</time></trkpt><trkpt lat="42.830702" lon="11.5370549"><ele>911.0</ele><time>2026-04-26T11:53:03.196Z</time></trkpt><trkpt lat="42.8307783" lon="11.5371798"><ele>911.5</ele><time>2026-04-26T11:53:04.178Z</time></trkpt><trkpt lat="42.8308565" lon="11.5373013"><ele>912.0</ele><time>2026-04-26T11:53:05.194Z</time></trkpt><trkpt lat="42.8309356" lon="11.5374162"><ele>912.5</ele><time>2026-04-26T11:53:06.184Z</time></trkpt><trkpt lat="42.8310153" lon="11.5375316"><ele>913.0</ele><time>2026-04-26T11:53:07.186Z</time></trkpt><trkpt lat="42.8310955" lon="11.5376468"><ele>911.0</ele><time>2026-04-26T11:53:08.185Z</time></trkpt><trkpt lat="42.8311742" lon="11.5377626"><ele>909.0</ele><time>2026-04-26T11:53:09.184Z</time></trkpt><trkpt lat="42.8312509" lon="11.5378816"><ele>907.0</ele><time>2026-04-26T11:53:10.184Z</time></trkpt><trkpt lat="42.8313254" lon="11.5379992"><ele>905.0</ele><time>2026-04-26T11:53:11.189Z</time></trkpt><trkpt lat="42.8314003" lon="11.5381102"><ele>905.0</ele><time>2026-04-26T11:53:12.198Z</time></trkpt><trkpt lat="42.8314728" lon="11.5382166"><ele>905.0</ele><time>2026-04-26T11:53:13.181Z</time></trkpt><trkpt lat="42.8315404" lon="11.5383204"><ele>905.0</ele><time>2026-04-26T11:53:14.181Z</time></trkpt><trkpt lat="42.8316022" lon="11.5384163"><ele>905.0</ele><time>2026-04-26T11:53:15.18Z</time></trkpt><trkpt lat="42.8316611" lon="11.5385047"><ele>905.0</ele><time>2026-04-26T11:53:16.194Z</time></trkpt><trkpt lat="42.8317136" lon="11.5385861"><ele>905.0000000000001</ele><time>2026-04-26T11:53:17.178Z</time></trkpt><trkpt lat="42.8317627" lon="11.5386648"><ele>905.0</ele><time>2026-04-26T11:53:18.186Z</time></trkpt><trkpt lat="42.8318023" lon="11.5387466"><ele>905.0</ele><time>2026-04-26T11:53:19.182Z</time></trkpt><trkpt lat="42.8318344" lon="11.5388452"><ele>905.0</ele><time>2026-04-26T11:53:20.195Z</time></trkpt><trkpt lat="42.8318553" lon="11.5389618"><ele>905.0000000000001</ele><time>2026-04-26T11:53:21.186Z</time></trkpt><trkpt lat="42.8318724" lon="11.5390768"><ele>905.0</ele><time>2026-04-26T11:53:22.177Z</time></trkpt><trkpt lat="42.8318941" lon="11.5391865"><ele>902.0</ele><time>2026-04-26T11:53:23.181Z</time></trkpt><trkpt lat="42.8319274" lon="11.5392885"><ele>899.0</ele><time>2026-04-26T11:53:24.197Z</time></trkpt><trkpt lat="42.8319739" lon="11.5393763"><ele>896.0</ele><time>2026-04-26T11:53:25.183Z</time></trkpt><trkpt lat="42.8320402" lon="11.5394562"><ele>893.0</ele><time>2026-04-26T11:53:26.19Z</time></trkpt><trkpt lat="42.8321264" lon="11.5395247"><ele>890.0</ele><time>2026-04-26T11:53:27.182Z</time></trkpt><trkpt lat="42.8322328" lon="11.5395867"><ele>889.0</ele><time>2026-04-26T11:53:28.189Z</time></trkpt><trkpt lat="42.8323529" lon="11.539649"><ele>888.0</ele><time>2026-04-26T11:53:29.194Z</time></trkpt><trkpt lat="42.8324742" lon="11.539712"><ele>887.0</ele><time>2026-04-26T11:53:30.178Z</time></trkpt><trkpt lat="42.8325939" lon="11.539775"><ele>886.0</ele><time>2026-04-26T11:53:31.191Z</time></trkpt><trkpt lat="42.8327064" lon="11.5398358"><ele>884.75</ele><time>2026-04-26T11:53:32.188Z</time></trkpt><trkpt lat="42.8328118" lon="11.5398958"><ele>883.5</ele><time>2026-04-26T11:53:33.187Z</time></trkpt><trkpt lat="42.8329123" lon="11.5399605"><ele>882.25</ele><time>2026-04-26T11:53:34.194Z</time></trkpt><trkpt lat="42.8330119" lon="11.5400344"><ele>881.0</ele><time>2026-04-26T11:53:35.176Z</time></trkpt><trkpt lat="42.833114" lon="11.5401199"><ele>881.0</ele><time>2026-04-26T11:53:36.201Z</time></trkpt><trkpt lat="42.8332128" lon="11.5402129"><ele>881.0</ele><time>2026-04-26T11:53:37.188Z</time></trkpt><trkpt lat="42.8333129" lon="11.5403153"><ele>881.0</ele><time>2026-04-26T11:53:38.177Z</time></trkpt><trkpt lat="42.8334142" lon="11.5404238"><ele>881.0</ele><time>2026-04-26T11:53:39.185Z</time></trkpt><trkpt lat="42.8335164" lon="11.5405333"><ele>880.0</ele><time>2026-04-26T11:53:40.183Z</time></trkpt><trkpt lat="42.8336169" lon="11.540648"><ele>879.0</ele><time>2026-04-26T11:53:41.194Z</time></trkpt><trkpt lat="42.8337113" lon="11.5407685"><ele>878.0</ele><time>2026-04-26T11:53:42.182Z</time></trkpt><trkpt lat="42.8338048" lon="11.540892"><ele>877.0</ele><time>2026-04-26T11:53:43.181Z</time></trkpt><trkpt lat="42.8338969" lon="11.5410183"><ele>877.0</ele><time>2026-04-26T11:53:44.195Z</time></trkpt><trkpt lat="42.8339805" lon="11.5411508"><ele>877.0</ele><time>2026-04-26T11:53:45.194Z</time></trkpt><trkpt lat="42.8340489" lon="11.5412996"><ele>877.0</ele><time>2026-04-26T11:53:46.185Z</time></trkpt><trkpt lat="42.8340983" lon="11.5414696"><ele>877.0</ele><time>2026-04-26T11:53:47.188Z</time></trkpt><trkpt lat="42.8341307" lon="11.5416548"><ele>877.6666666666666</ele><time>2026-04-26T11:53:48.187Z</time></trkpt><trkpt lat="42.8341594" lon="11.5418481"><ele>878.3333333333333</ele><time>2026-04-26T11:53:49.19Z</time></trkpt><trkpt lat="42.8341849" lon="11.5420573"><ele>879.0</ele><time>2026-04-26T11:53:50.182Z</time></trkpt><trkpt lat="42.8342108" lon="11.542273"><ele>878.0</ele><time>2026-04-26T11:53:51.196Z</time></trkpt><trkpt lat="42.8342344" lon="11.5424805"><ele>877.0</ele><time>2026-04-26T11:53:52.186Z</time></trkpt><trkpt lat="42.8342553" lon="11.5426779"><ele>876.0</ele><time>2026-04-26T11:53:53.181Z</time></trkpt><trkpt lat="42.8342744" lon="11.5428661"><ele>875.0</ele><time>2026-04-26T11:53:54.193Z</time></trkpt><trkpt lat="42.8342903" lon="11.5430453"><ele>873.0</ele><time>2026-04-26T11:53:55.179Z</time></trkpt><trkpt lat="42.8342985" lon="11.5432206"><ele>871.0</ele><time>2026-04-26T11:53:56.177Z</time></trkpt><trkpt lat="42.8342882" lon="11.5433883"><ele>869.0</ele><time>2026-04-26T11:53:57.192Z</time></trkpt><trkpt lat="42.8342476" lon="11.5435427"><ele>867.0</ele><time>2026-04-26T11:53:58.196Z</time></trkpt><trkpt lat="42.8341839" lon="11.5436877"><ele>866.25</ele><time>2026-04-26T11:53:59.194Z</time></trkpt><trkpt lat="42.8341079" lon="11.5438334"><ele>865.5</ele><time>2026-04-26T11:54:00.174Z</time></trkpt><trkpt lat="42.8340283" lon="11.5439827"><ele>864.75</ele><time>2026-04-26T11:54:01.178Z</time></trkpt><trkpt lat="42.8339556" lon="11.5441409"><ele>864.0</ele><time>2026-04-26T11:54:02.191Z</time></trkpt><trkpt lat="42.8338925" lon="11.5442998"><ele>864.0</ele><time>2026-04-26T11:54:03.197Z</time></trkpt><trkpt lat="42.8338492" lon="11.5444606"><ele>864.0</ele><time>2026-04-26T11:54:04.19Z</time></trkpt><trkpt lat="42.8338266" lon="11.5446297"><ele>864.0</ele><time>2026-04-26T11:54:05.178Z</time></trkpt><trkpt lat="42.8338251" lon="11.5448035"><ele>864.0</ele><time>2026-04-26T11:54:06.181Z</time></trkpt><trkpt lat="42.8338242" lon="11.5449694"><ele>863.4000000000001</ele><time>2026-04-26T11:54:07.18Z</time></trkpt><trkpt lat="42.8338239" lon="11.5451285"><ele>862.8000000000001</ele><time>2026-04-26T11:54:08.181Z</time></trkpt><trkpt lat="42.8338221" lon="11.5452821"><ele>862.1999999999999</ele><time>2026-04-26T11:54:09.194Z</time></trkpt><trkpt lat="42.8338242" lon="11.5454305"><ele>861.5999999999999</ele><time>2026-04-26T11:54:10.193Z</time></trkpt><trkpt lat="42.8338413" lon="11.5455794"><ele>861.0</ele><time>2026-04-26T11:54:11.191Z</time></trkpt><trkpt lat="42.8338891" lon="11.5457209"><ele>859.8</ele><time>2026-04-26T11:54:12.194Z</time></trkpt><trkpt lat="42.8339638" lon="11.5458452"><ele>858.5999999999999</ele><time>2026-04-26T11:54:13.195Z</time></trkpt><trkpt lat="42.8340498" lon="11.5459502"><ele>857.4</ele><time>2026-04-26T11:54:14.189Z</time></trkpt><trkpt lat="42.8341378" lon="11.5460361"><ele>856.2</ele><time>2026-04-26T11:54:15.194Z</time></trkpt><trkpt lat="42.8342248" lon="11.5461062"><ele>855.0</ele><time>2026-04-26T11:54:16.2Z</time></trkpt><trkpt lat="42.8343086" lon="11.5461636"><ele>854.5</ele><time>2026-04-26T11:54:17.201Z</time></trkpt><trkpt lat="42.8343852" lon="11.546208"><ele>854.0</ele><time>2026-04-26T11:54:18.192Z</time></trkpt><trkpt lat="42.8344553" lon="11.5462467"><ele>853.5</ele><time>2026-04-26T11:54:19.182Z</time></trkpt><trkpt lat="42.8345255" lon="11.546286"><ele>853.0</ele><time>2026-04-26T11:54:20.199Z</time></trkpt><trkpt lat="42.834606" lon="11.5463226"><ele>852.5</ele><time>2026-04-26T11:54:21.193Z</time></trkpt><trkpt lat="42.8347001" lon="11.5463626"><ele>852.0</ele><time>2026-04-26T11:54:22.18Z</time></trkpt><trkpt lat="42.834805" lon="11.5464141"><ele>853.5</ele><time>2026-04-26T11:54:23.192Z</time></trkpt><trkpt lat="42.8349189" lon="11.5464783"><ele>855.0</ele><time>2026-04-26T11:54:24.2Z</time></trkpt><trkpt lat="42.8350422" lon="11.5465506"><ele>856.5</ele><time>2026-04-26T11:54:25.198Z</time></trkpt><trkpt lat="42.8351665" lon="11.5466216"><ele>858.0</ele><time>2026-04-26T11:54:26.19Z</time></trkpt><trkpt lat="42.8353007" lon="11.5466964"><ele>859.0</ele><time>2026-04-26T11:54:27.193Z</time></trkpt><trkpt lat="42.8354425" lon="11.546774"><ele>860.0</ele><time>2026-04-26T11:54:28.176Z</time></trkpt><trkpt lat="42.8355825" lon="11.5468477"><ele>861.0</ele><time>2026-04-26T11:54:29.188Z</time></trkpt><trkpt lat="42.8357197" lon="11.5469207"><ele>861.0</ele><time>2026-04-26T11:54:30.193Z</time></trkpt><trkpt lat="42.8358498" lon="11.5470028"><ele>861.0</ele><time>2026-04-26T11:54:31.189Z</time></trkpt><trkpt lat="42.8359768" lon="11.5470942"><ele>861.0</ele><time>2026-04-26T11:54:32.192Z</time></trkpt><trkpt lat="42.836099" lon="11.54719"><ele>861.0</ele><time>2026-04-26T11:54:33.179Z</time></trkpt><trkpt lat="42.8362193" lon="11.5472835"><ele>863.75</ele><time>2026-04-26T11:54:34.182Z</time></trkpt><trkpt lat="42.8363354" lon="11.5473709"><ele>866.5</ele><time>2026-04-26T11:54:35.188Z</time></trkpt><trkpt lat="42.8364518" lon="11.5474496"><ele>869.25</ele><time>2026-04-26T11:54:36.176Z</time></trkpt><trkpt lat="42.8365693" lon="11.5475094"><ele>872.0</ele><time>2026-04-26T11:54:37.184Z</time></trkpt><trkpt lat="42.8366913" lon="11.5475487"><ele>874.25</ele><time>2026-04-26T11:54:38.182Z</time></trkpt><trkpt lat="42.8368189" lon="11.5475714"><ele>876.5</ele><time>2026-04-26T11:54:39.192Z</time></trkpt><trkpt lat="42.8369456" lon="11.5475803"><ele>878.75</ele><time>2026-04-26T11:54:40.187Z</time></trkpt><trkpt lat="42.8370632" lon="11.5475755"><ele>881.0</ele><time>2026-04-26T11:54:41.186Z</time></trkpt><trkpt lat="42.8371721" lon="11.5475451"><ele>881.0</ele><time>2026-04-26T11:54:42.183Z</time></trkpt><trkpt lat="42.8372745" lon="11.5474873"><ele>880.9999999999999</ele><time>2026-04-26T11:54:43.192Z</time></trkpt><trkpt lat="42.8373705" lon="11.5474046"><ele>880.9999999999999</ele><time>2026-04-26T11:54:44.186Z</time></trkpt><trkpt lat="42.8374584" lon="11.5473276"><ele>881.0</ele><time>2026-04-26T11:54:45.19Z</time></trkpt><trkpt lat="42.8375426" lon="11.547274"><ele>881.0</ele><time>2026-04-26T11:54:46.188Z</time></trkpt><trkpt lat="42.8376253" lon="11.5472241"><ele>882.5999999999999</ele><time>2026-04-26T11:54:47.193Z</time></trkpt><trkpt lat="42.8377211" lon="11.5472126"><ele>884.1999999999999</ele><time>2026-04-26T11:54:48.193Z</time></trkpt><trkpt lat="42.8378208" lon="11.5471793"><ele>885.8000000000001</ele><time>2026-04-26T11:54:49.195Z</time></trkpt><trkpt lat="42.8379159" lon="11.5471139"><ele>887.4000000000001</ele><time>2026-04-26T11:54:50.194Z</time></trkpt><trkpt lat="42.8380089" lon="11.5470425"><ele>889.0</ele><time>2026-04-26T11:54:51.18Z</time></trkpt><trkpt lat="42.8380938" lon="11.5469948"><ele>889.0</ele><time>2026-04-26T11:54:52.19Z</time></trkpt><trkpt lat="42.8381767" lon="11.5469539"><ele>889.0000000000001</ele><time>2026-04-26T11:54:53.177Z</time></trkpt><trkpt lat="42.8382684" lon="11.5469551"><ele>889.0000000000001</ele><time>2026-04-26T11:54:54.183Z</time></trkpt><trkpt lat="42.8383722" lon="11.5469588"><ele>889.0</ele><time>2026-04-26T11:54:55.196Z</time></trkpt><trkpt lat="42.8384931" lon="11.5469649"><ele>889.0</ele><time>2026-04-26T11:54:56.177Z</time></trkpt><trkpt lat="42.8386287" lon="11.5469718"><ele>888.5</ele><time>2026-04-26T11:54:57.17Z</time></trkpt><trkpt lat="42.8387676" lon="11.5469793"><ele>888.0</ele><time>2026-04-26T11:54:58.176Z</time></trkpt><trkpt lat="42.8388976" lon="11.5469929"><ele>887.5</ele><time>2026-04-26T11:54:59.179Z</time></trkpt><trkpt lat="42.8390125" lon="11.5470238"><ele>887.0</ele><time>2026-04-26T11:55:00.182Z</time></trkpt><trkpt lat="42.8391169" lon="11.5470753"><ele>888.3333333333334</ele><time>2026-04-26T11:55:01.188Z</time></trkpt><trkpt lat="42.8392132" lon="11.5471502"><ele>889.6666666666667</ele><time>2026-04-26T11:55:02.182Z</time></trkpt><trkpt lat="42.8392999" lon="11.5472297"><ele>891.0</ele><time>2026-04-26T11:55:03.195Z</time></trkpt><trkpt lat="42.8393715" lon="11.5472975"><ele>892.3333333333333</ele><time>2026-04-26T11:55:04.191Z</time></trkpt><trkpt lat="42.8394282" lon="11.5473596"><ele>893.6666666666666</ele><time>2026-04-26T11:55:05.19Z</time></trkpt><trkpt lat="42.8394758" lon="11.547416"><ele>895.0</ele><time>2026-04-26T11:55:06.181Z</time></trkpt><trkpt lat="42.8395456" lon="11.5474808"><ele>896.1666666666666</ele><time>2026-04-26T11:55:08.199Z</time></trkpt><trkpt lat="42.8396306" lon="11.5474834"><ele>897.3333333333333</ele><time>2026-04-26T11:56:15.2Z</time></trkpt><trkpt lat="42.83969" lon="11.5474366"><ele>898.5</ele><time>2026-04-26T11:56:18.191Z</time></trkpt><trkpt lat="42.8397506" lon="11.5473806"><ele>899.6666666666667</ele><time>2026-04-26T11:56:21.2Z</time></trkpt><trkpt lat="42.8398066" lon="11.547316"><ele>900.8333333333334</ele><time>2026-04-26T11:56:23.196Z</time></trkpt><trkpt lat="42.8398826" lon="11.5471898"><ele>902.0</ele><time>2026-04-26T11:56:25.184Z</time></trkpt><trkpt lat="42.8399484" lon="11.5470558"><ele>902.2</ele><time>2026-04-26T11:56:27.2Z</time></trkpt><trkpt lat="42.8399893" lon="11.5469874"><ele>902.4000000000001</ele><time>2026-04-26T11:56:28.198Z</time></trkpt><trkpt lat="42.8400327" lon="11.5469241"><ele>902.5999999999999</ele><time>2026-04-26T11:56:29.183Z</time></trkpt><trkpt lat="42.8401103" lon="11.5468218"><ele>902.8</ele><time>2026-04-26T11:56:31.184Z</time></trkpt><trkpt lat="42.8402027" lon="11.5467454"><ele>903.0</ele><time>2026-04-26T11:56:33.208Z</time></trkpt><trkpt lat="42.8403086" lon="11.5466723"><ele>903.0</ele><time>2026-04-26T11:56:35.198Z</time></trkpt><trkpt lat="42.84037" lon="11.5466278"><ele>903.0</ele><time>2026-04-26T11:56:36.203Z</time></trkpt><trkpt lat="42.8404359" lon="11.5465869"><ele>903.0</ele><time>2026-04-26T11:56:37.195Z</time></trkpt><trkpt lat="42.8405038" lon="11.5465659"><ele>903.0</ele><time>2026-04-26T11:56:38.194Z</time></trkpt><trkpt lat="42.8405762" lon="11.546572"><ele>903.0</ele><time>2026-04-26T11:56:39.201Z</time></trkpt><trkpt lat="42.8406604" lon="11.5465957"><ele>903.0</ele><time>2026-04-26T11:56:40.174Z</time></trkpt><trkpt lat="42.8407565" lon="11.5466323"><ele>903.0</ele><time>2026-04-26T11:56:41.183Z</time></trkpt><trkpt lat="42.8408645" lon="11.5466578"><ele>903.0</ele><time>2026-04-26T11:56:42.201Z</time></trkpt><trkpt lat="42.8409778" lon="11.5466726"><ele>903.0</ele><time>2026-04-26T11:56:43.196Z</time></trkpt><trkpt lat="42.8410962" lon="11.5466823"><ele>903.0</ele><time>2026-04-26T11:56:44.184Z</time></trkpt><trkpt lat="42.8412143" lon="11.5466922"><ele>902.4</ele><time>2026-04-26T11:56:45.175Z</time></trkpt><trkpt lat="42.8413286" lon="11.5466971"><ele>901.8</ele><time>2026-04-26T11:56:46.174Z</time></trkpt><trkpt lat="42.8414366" lon="11.5466783"><ele>901.2</ele><time>2026-04-26T11:56:47.192Z</time></trkpt><trkpt lat="42.841542" lon="11.5466578"><ele>900.6</ele><time>2026-04-26T11:56:48.177Z</time></trkpt><trkpt lat="42.8416375" lon="11.5466457"><ele>900.0</ele><time>2026-04-26T11:56:49.176Z</time></trkpt><trkpt lat="42.8417192" lon="11.5466496"><ele>897.6666666666666</ele><time>2026-04-26T11:56:50.185Z</time></trkpt><trkpt lat="42.8418029" lon="11.5466556"><ele>895.3333333333333</ele><time>2026-04-26T11:56:51.177Z</time></trkpt><trkpt lat="42.8418897" lon="11.5466811"><ele>893.0</ele><time>2026-04-26T11:56:52.198Z</time></trkpt><trkpt lat="42.8419851" lon="11.5467086"><ele>890.6666666666666</ele><time>2026-04-26T11:56:53.182Z</time></trkpt><trkpt lat="42.8420738" lon="11.5467388"><ele>888.3333333333333</ele><time>2026-04-26T11:56:54.183Z</time></trkpt><trkpt lat="42.842145" lon="11.5467762"><ele>886.0</ele><time>2026-04-26T11:56:55.199Z</time></trkpt><trkpt lat="42.8422018" lon="11.5468322"><ele>885.9999999999999</ele><time>2026-04-26T11:56:56.182Z</time></trkpt><trkpt lat="42.8422505" lon="11.5469147"><ele>886.0</ele><time>2026-04-26T11:56:57.193Z</time></trkpt><trkpt lat="42.842291" lon="11.5470124"><ele>886.0</ele><time>2026-04-26T11:56:58.199Z</time></trkpt><trkpt lat="42.8423322" lon="11.5471089"><ele>886.0</ele><time>2026-04-26T11:56:59.19Z</time></trkpt><trkpt lat="42.8423713" lon="11.547197"><ele>885.9999999999999</ele><time>2026-04-26T11:57:00.201Z</time></trkpt><trkpt lat="42.8424359" lon="11.5472598"><ele>886.0</ele><time>2026-04-26T11:57:01.192Z</time></trkpt><trkpt lat="42.842516" lon="11.5473119"><ele>888.4999999999999</ele><time>2026-04-26T11:57:02.183Z</time></trkpt><trkpt lat="42.8426065" lon="11.5473578"><ele>891.0</ele><time>2026-04-26T11:57:03.193Z</time></trkpt><trkpt lat="42.8426937" lon="11.5473932"><ele>893.5</ele><time>2026-04-26T11:57:04.185Z</time></trkpt><trkpt lat="42.8427759" lon="11.5474241"><ele>896.0</ele><time>2026-04-26T11:57:05.204Z</time></trkpt><trkpt lat="42.8428508" lon="11.5474508"><ele>898.4999999999999</ele><time>2026-04-26T11:57:06.191Z</time></trkpt><trkpt lat="42.842927" lon="11.5474667"><ele>901.0</ele><time>2026-04-26T11:57:07.198Z</time></trkpt><trkpt lat="42.8430053" lon="11.5474823"><ele>900.9999999999999</ele><time>2026-04-26T11:57:08.181Z</time></trkpt><trkpt lat="42.8430887" lon="11.5474594"><ele>901.0</ele><time>2026-04-26T11:57:09.199Z</time></trkpt><trkpt lat="42.8431651" lon="11.5474267"><ele>901.0</ele><time>2026-04-26T11:57:10.197Z</time></trkpt><trkpt lat="42.8432379" lon="11.547391"><ele>901.0</ele><time>2026-04-26T11:57:11.199Z</time></trkpt><trkpt lat="42.8433093" lon="11.5473493"><ele>900.9999999999999</ele><time>2026-04-26T11:57:12.182Z</time></trkpt><trkpt lat="42.8433818" lon="11.5473078"><ele>901.0</ele><time>2026-04-26T11:57:13.2Z</time></trkpt><trkpt lat="42.8434568" lon="11.547282"><ele>900.8333333333333</ele><time>2026-04-26T11:57:14.197Z</time></trkpt><trkpt lat="42.8435299" lon="11.5472777"><ele>900.6666666666666</ele><time>2026-04-26T11:57:15.196Z</time></trkpt><trkpt lat="42.8436047" lon="11.5472946"><ele>900.5</ele><time>2026-04-26T11:57:16.196Z</time></trkpt><trkpt lat="42.8436834" lon="11.5473304"><ele>900.3333333333333</ele><time>2026-04-26T11:57:17.196Z</time></trkpt><trkpt lat="42.8437666" lon="11.5473837"><ele>900.1666666666666</ele><time>2026-04-26T11:57:18.194Z</time></trkpt><trkpt lat="42.8438559" lon="11.5474512"><ele>900.0</ele><time>2026-04-26T11:57:19.206Z</time></trkpt><trkpt lat="42.8439384" lon="11.5475126"><ele>900.0</ele><time>2026-04-26T11:57:20.188Z</time></trkpt><trkpt lat="42.8440122" lon="11.547561"><ele>900.0</ele><time>2026-04-26T11:57:21.198Z</time></trkpt><trkpt lat="42.8440917" lon="11.5475527"><ele>900.0</ele><time>2026-04-26T11:57:22.195Z</time></trkpt><trkpt lat="42.8441752" lon="11.5475369"><ele>900.0</ele><time>2026-04-26T11:57:23.176Z</time></trkpt><trkpt lat="42.8442623" lon="11.5474763"><ele>900.0</ele><time>2026-04-26T11:57:24.199Z</time></trkpt><trkpt lat="42.8443521" lon="11.547418"><ele>900.0</ele><time>2026-04-26T11:57:25.193Z</time></trkpt><trkpt lat="42.8444491" lon="11.5473736"><ele>899.0</ele><time>2026-04-26T11:57:26.182Z</time></trkpt><trkpt lat="42.8445474" lon="11.5473267"><ele>898.0</ele><time>2026-04-26T11:57:27.182Z</time></trkpt><trkpt lat="42.8446382" lon="11.5472553"><ele>897.0</ele><time>2026-04-26T11:57:28.194Z</time></trkpt><trkpt lat="42.8447153" lon="11.5471597"><ele>896.0</ele><time>2026-04-26T11:57:29.182Z</time></trkpt><trkpt lat="42.8448013" lon="11.5470546"><ele>895.0</ele><time>2026-04-26T11:57:30.195Z</time></trkpt><trkpt lat="42.8448705" lon="11.5469176"><ele>895.0</ele><time>2026-04-26T11:57:31.176Z</time></trkpt><trkpt lat="42.8449403" lon="11.5467897"><ele>895.0</ele><time>2026-04-26T11:57:32.191Z</time></trkpt><trkpt lat="42.8450075" lon="11.5466845"><ele>895.0</ele><time>2026-04-26T11:57:33.179Z</time></trkpt><trkpt lat="42.8450741" lon="11.5465822"><ele>895.0</ele><time>2026-04-26T11:57:34.19Z</time></trkpt><trkpt lat="42.8451619" lon="11.5465121"><ele>895.0</ele><time>2026-04-26T11:57:35.195Z</time></trkpt><trkpt lat="42.8452643" lon="11.5464443"><ele>895.0</ele><time>2026-04-26T11:57:36.18Z</time></trkpt><trkpt lat="42.8453701" lon="11.5463747"><ele>895.0</ele><time>2026-04-26T11:57:37.199Z</time></trkpt><trkpt lat="42.8454706" lon="11.5463085"><ele>895.0</ele><time>2026-04-26T11:57:38.19Z</time></trkpt><trkpt lat="42.8455698" lon="11.5462447"><ele>895.0</ele><time>2026-04-26T11:57:39.182Z</time></trkpt><trkpt lat="42.8456755" lon="11.5461923"><ele>895.0</ele><time>2026-04-26T11:57:40.201Z</time></trkpt><trkpt lat="42.8457849" lon="11.5461532"><ele>895.0</ele><time>2026-04-26T11:57:41.186Z</time></trkpt><trkpt lat="42.845888" lon="11.5461143"><ele>895.0</ele><time>2026-04-26T11:57:42.2Z</time></trkpt><trkpt lat="42.8459873" lon="11.5460678"><ele>895.0</ele><time>2026-04-26T11:57:43.184Z</time></trkpt><trkpt lat="42.8460783" lon="11.5460084"><ele>895.0</ele><time>2026-04-26T11:57:44.185Z</time></trkpt><trkpt lat="42.8461666" lon="11.5459403"><ele>894.6</ele><time>2026-04-26T11:57:45.198Z</time></trkpt><trkpt lat="42.846249" lon="11.5458727"><ele>894.2</ele><time>2026-04-26T11:57:46.197Z</time></trkpt><trkpt lat="42.8463316" lon="11.5458013"><ele>893.8</ele><time>2026-04-26T11:57:47.205Z</time></trkpt><trkpt lat="42.8464101" lon="11.5457305"><ele>893.4</ele><time>2026-04-26T11:57:48.193Z</time></trkpt><trkpt lat="42.8464867" lon="11.5456588"><ele>893.0</ele><time>2026-04-26T11:57:49.195Z</time></trkpt><trkpt lat="42.8465649" lon="11.5455929"><ele>893.0000000000001</ele><time>2026-04-26T11:57:50.199Z</time></trkpt><trkpt lat="42.8466428" lon="11.5455348"><ele>893.0</ele><time>2026-04-26T11:57:51.197Z</time></trkpt><trkpt lat="42.8467215" lon="11.545489"><ele>893.0</ele><time>2026-04-26T11:57:52.193Z</time></trkpt><trkpt lat="42.8468042" lon="11.5454566"><ele>893.0</ele><time>2026-04-26T11:57:53.199Z</time></trkpt><trkpt lat="42.8468899" lon="11.5454457"><ele>893.0000000000001</ele><time>2026-04-26T11:57:54.193Z</time></trkpt><trkpt lat="42.8469732" lon="11.5454609"><ele>893.0</ele><time>2026-04-26T11:57:55.201Z</time></trkpt><trkpt lat="42.8470489" lon="11.5454996"><ele>893.8333333333334</ele><time>2026-04-26T11:57:56.182Z</time></trkpt><trkpt lat="42.8471141" lon="11.545556"><ele>894.6666666666667</ele><time>2026-04-26T11:57:57.183Z</time></trkpt><trkpt lat="42.8471729" lon="11.5456307"><ele>895.5</ele><time>2026-04-26T11:57:58.2Z</time></trkpt><trkpt lat="42.8472322" lon="11.5457075"><ele>896.3333333333333</ele><time>2026-04-26T11:57:59.199Z</time></trkpt><trkpt lat="42.8472966" lon="11.545797"><ele>897.1666666666666</ele><time>2026-04-26T11:58:00.183Z</time></trkpt><trkpt lat="42.8473653" lon="11.5458824"><ele>898.0</ele><time>2026-04-26T11:58:01.2Z</time></trkpt><trkpt lat="42.8474446" lon="11.5459726"><ele>898.0</ele><time>2026-04-26T11:58:02.198Z</time></trkpt><trkpt lat="42.8475334" lon="11.5460669"><ele>898.0</ele><time>2026-04-26T11:58:03.189Z</time></trkpt><trkpt lat="42.8476278" lon="11.5461649"><ele>898.0</ele><time>2026-04-26T11:58:04.189Z</time></trkpt><trkpt lat="42.8477234" lon="11.5462635"><ele>898.0</ele><time>2026-04-26T11:58:05.201Z</time></trkpt><trkpt lat="42.8478177" lon="11.5463658"><ele>900.0</ele><time>2026-04-26T11:58:06.191Z</time></trkpt><trkpt lat="42.8479081" lon="11.546478"><ele>902.0</ele><time>2026-04-26T11:58:07.184Z</time></trkpt><trkpt lat="42.8479922" lon="11.5465987"><ele>904.0</ele><time>2026-04-26T11:58:08.19Z</time></trkpt><trkpt lat="42.8480703" lon="11.5467221"><ele>906.0</ele><time>2026-04-26T11:58:09.191Z</time></trkpt><trkpt lat="42.8481475" lon="11.5468404"><ele>906.0</ele><time>2026-04-26T11:58:10.194Z</time></trkpt><trkpt lat="42.8482187" lon="11.5469499"><ele>905.9999999999999</ele><time>2026-04-26T11:58:11.192Z</time></trkpt><trkpt lat="42.8482863" lon="11.5470572"><ele>905.9999999999999</ele><time>2026-04-26T11:58:12.198Z</time></trkpt><trkpt lat="42.8483481" lon="11.547158"><ele>906.0</ele><time>2026-04-26T11:58:13.204Z</time></trkpt><trkpt lat="42.8484174" lon="11.5472379"><ele>906.0</ele><time>2026-04-26T11:58:14.198Z</time></trkpt><trkpt lat="42.8484967" lon="11.5472901"><ele>904.1999999999999</ele><time>2026-04-26T11:58:15.184Z</time></trkpt><trkpt lat="42.8485782" lon="11.5473428"><ele>902.3999999999999</ele><time>2026-04-26T11:58:16.198Z</time></trkpt><trkpt lat="42.848676" lon="11.5473535"><ele>900.6</ele><time>2026-04-26T11:58:17.176Z</time></trkpt><trkpt lat="42.8487831" lon="11.5473459"><ele>898.8</ele><time>2026-04-26T11:58:18.189Z</time></trkpt><trkpt lat="42.8488925" lon="11.5473353"><ele>897.0</ele><time>2026-04-26T11:58:19.181Z</time></trkpt><trkpt lat="42.8490117" lon="11.547307"><ele>897.0</ele><time>2026-04-26T11:58:20.186Z</time></trkpt><trkpt lat="42.849128" lon="11.547288"><ele>897.0</ele><time>2026-04-26T11:58:21.193Z</time></trkpt><trkpt lat="42.8492444" lon="11.5472807"><ele>897.0</ele><time>2026-04-26T11:58:22.183Z</time></trkpt><trkpt lat="42.849365" lon="11.5472749"><ele>897.0</ele><time>2026-04-26T11:58:23.185Z</time></trkpt><trkpt lat="42.8494845" lon="11.5472693"><ele>896.4000000000001</ele><time>2026-04-26T11:58:24.201Z</time></trkpt><trkpt lat="42.8496028" lon="11.5472621"><ele>895.8000000000001</ele><time>2026-04-26T11:58:25.182Z</time></trkpt><trkpt lat="42.8497147" lon="11.5472617"><ele>895.2</ele><time>2026-04-26T11:58:26.188Z</time></trkpt><trkpt lat="42.8498216" lon="11.5472635"><ele>894.6</ele><time>2026-04-26T11:58:27.202Z</time></trkpt><trkpt lat="42.8499148" lon="11.5473185"><ele>894.0</ele><time>2026-04-26T11:58:28.199Z</time></trkpt><trkpt lat="42.849999" lon="11.5474077"><ele>894.0</ele><time>2026-04-26T11:58:29.197Z</time></trkpt><trkpt lat="42.8500599" lon="11.5475121"><ele>894.0</ele><time>2026-04-26T11:58:30.201Z</time></trkpt><trkpt lat="42.8501179" lon="11.5476107"><ele>894.0</ele><time>2026-04-26T11:58:31.195Z</time></trkpt><trkpt lat="42.8501876" lon="11.5476794"><ele>894.0</ele><time>2026-04-26T11:58:32.202Z</time></trkpt><trkpt lat="42.8502638" lon="11.5477147"><ele>894.0</ele><time>2026-04-26T11:58:33.188Z</time></trkpt><trkpt lat="42.8503429" lon="11.5477076"><ele>894.0</ele><time>2026-04-26T11:58:34.19Z</time></trkpt><trkpt lat="42.8504227" lon="11.5476685"><ele>893.0</ele><time>2026-04-26T11:58:35.183Z</time></trkpt><trkpt lat="42.8504989" lon="11.5476259"><ele>892.0</ele><time>2026-04-26T11:58:36.185Z</time></trkpt><trkpt lat="42.8505753" lon="11.5475839"><ele>891.0</ele><time>2026-04-26T11:58:37.181Z</time></trkpt><trkpt lat="42.8506517" lon="11.5475971"><ele>890.0</ele><time>2026-04-26T11:58:38.196Z</time></trkpt><trkpt lat="42.8507162" lon="11.5476473"><ele>889.0</ele><time>2026-04-26T11:58:39.202Z</time></trkpt><trkpt lat="42.8507709" lon="11.5477369"><ele>888.0</ele><time>2026-04-26T11:58:40.193Z</time></trkpt><trkpt lat="42.8508092" lon="11.5478567"><ele>886.8</ele><time>2026-04-26T11:58:41.201Z</time></trkpt><trkpt lat="42.8508493" lon="11.5479858"><ele>885.5999999999999</ele><time>2026-04-26T11:58:42.2Z</time></trkpt><trkpt lat="42.8508995" lon="11.5481038"><ele>884.4000000000001</ele><time>2026-04-26T11:58:43.181Z</time></trkpt><trkpt lat="42.8509662" lon="11.5482067"><ele>883.2</ele><time>2026-04-26T11:58:44.207Z</time></trkpt><trkpt lat="42.8510551" lon="11.5482938"><ele>882.0</ele><time>2026-04-26T11:58:45.194Z</time></trkpt><trkpt lat="42.8511607" lon="11.5483706"><ele>882.0</ele><time>2026-04-26T11:58:46.196Z</time></trkpt><trkpt lat="42.8512646" lon="11.5484554"><ele>882.0</ele><time>2026-04-26T11:58:47.196Z</time></trkpt><trkpt lat="42.851352" lon="11.5485542"><ele>882.0</ele><time>2026-04-26T11:58:48.2Z</time></trkpt><trkpt lat="42.851418" lon="11.5486714"><ele>882.0</ele><time>2026-04-26T11:58:49.189Z</time></trkpt><trkpt lat="42.8514635" lon="11.5488079"><ele>882.0</ele><time>2026-04-26T11:58:50.2Z</time></trkpt><trkpt lat="42.8515108" lon="11.5489476"><ele>882.0</ele><time>2026-04-26T11:58:51.2Z</time></trkpt><trkpt lat="42.851525" lon="11.5491031"><ele>882.0</ele><time>2026-04-26T11:58:52.197Z</time></trkpt><trkpt lat="42.8515343" lon="11.5492585"><ele>882.0</ele><time>2026-04-26T11:58:53.178Z</time></trkpt><trkpt lat="42.8515479" lon="11.5494092"><ele>881.8</ele><time>2026-04-26T11:58:54.194Z</time></trkpt><trkpt lat="42.8515621" lon="11.5495556"><ele>881.6</ele><time>2026-04-26T11:58:55.201Z</time></trkpt><trkpt lat="42.8515866" lon="11.5497001"><ele>881.3999999999999</ele><time>2026-04-26T11:58:56.19Z</time></trkpt><trkpt lat="42.8516203" lon="11.5498442"><ele>881.1999999999999</ele><time>2026-04-26T11:58:57.197Z</time></trkpt><trkpt lat="42.8516651" lon="11.5499935"><ele>881.0</ele><time>2026-04-26T11:58:58.199Z</time></trkpt><trkpt lat="42.8517166" lon="11.55015"><ele>881.0</ele><time>2026-04-26T11:58:59.188Z</time></trkpt><trkpt lat="42.8517638" lon="11.5503075"><ele>881.0</ele><time>2026-04-26T11:59:00.186Z</time></trkpt><trkpt lat="42.8518041" lon="11.5504668"><ele>881.0</ele><time>2026-04-26T11:59:01.199Z</time></trkpt><trkpt lat="42.8518394" lon="11.550628"><ele>881.0</ele><time>2026-04-26T11:59:02.183Z</time></trkpt><trkpt lat="42.8518678" lon="11.5507872"><ele>878.0</ele><time>2026-04-26T11:59:03.199Z</time></trkpt><trkpt lat="42.8518908" lon="11.550944"><ele>874.9999999999999</ele><time>2026-04-26T11:59:04.196Z</time></trkpt><trkpt lat="42.8519136" lon="11.5510949"><ele>871.9999999999999</ele><time>2026-04-26T11:59:05.198Z</time></trkpt><trkpt lat="42.8519389" lon="11.5512338"><ele>869.0</ele><time>2026-04-26T11:59:06.202Z</time></trkpt><trkpt lat="42.8519696" lon="11.551345"><ele>866.0</ele><time>2026-04-26T11:59:07.202Z</time></trkpt><trkpt lat="42.852011" lon="11.551425"><ele>866.0</ele><time>2026-04-26T11:59:08.196Z</time></trkpt><trkpt lat="42.8521222" lon="11.5514411"><ele>865.9999999999999</ele><time>2026-04-26T11:59:10.198Z</time></trkpt><trkpt lat="42.8521721" lon="11.5513668"><ele>865.9999999999999</ele><time>2026-04-26T11:59:11.196Z</time></trkpt><trkpt lat="42.852231" lon="11.551278"><ele>866.0</ele><time>2026-04-26T11:59:12.182Z</time></trkpt><trkpt lat="42.8522819" lon="11.5511571"><ele>866.0</ele><time>2026-04-26T11:59:13.191Z</time></trkpt><trkpt lat="42.8523343" lon="11.5510449"><ele>865.8</ele><time>2026-04-26T11:59:14.177Z</time></trkpt><trkpt lat="42.8523936" lon="11.550945"><ele>865.5999999999999</ele><time>2026-04-26T11:59:15.189Z</time></trkpt><trkpt lat="42.8524549" lon="11.5508527"><ele>865.4</ele><time>2026-04-26T11:59:16.187Z</time></trkpt><trkpt lat="42.8525171" lon="11.5507526"><ele>865.2</ele><time>2026-04-26T11:59:17.184Z</time></trkpt><trkpt lat="42.8525785" lon="11.5506425"><ele>865.0</ele><time>2026-04-26T11:59:18.192Z</time></trkpt><trkpt lat="42.8525988" lon="11.5504925"><ele>864.75</ele><time>2026-04-26T11:59:19.181Z</time></trkpt><trkpt lat="42.8526159" lon="11.5503429"><ele>864.5</ele><time>2026-04-26T11:59:20.179Z</time></trkpt><trkpt lat="42.8526148" lon="11.5501811"><ele>864.25</ele><time>2026-04-26T11:59:21.196Z</time></trkpt><trkpt lat="42.8526296" lon="11.5500236"><ele>864.0</ele><time>2026-04-26T11:59:22.179Z</time></trkpt><trkpt lat="42.8526601" lon="11.5498794"><ele>860.0</ele><time>2026-04-26T11:59:23.197Z</time></trkpt><trkpt lat="42.8526927" lon="11.549735"><ele>856.0000000000001</ele><time>2026-04-26T11:59:24.192Z</time></trkpt><trkpt lat="42.8527392" lon="11.5496115"><ele>852.0</ele><time>2026-04-26T11:59:25.181Z</time></trkpt><trkpt lat="42.8528051" lon="11.5494983"><ele>848.0</ele><time>2026-04-26T11:59:26.178Z</time></trkpt><trkpt lat="42.8528779" lon="11.5493795"><ele>844.0</ele><time>2026-04-26T11:59:27.187Z</time></trkpt><trkpt lat="42.8529492" lon="11.5492512"><ele>843.4000000000001</ele><time>2026-04-26T11:59:28.191Z</time></trkpt><trkpt lat="42.8530266" lon="11.5491202"><ele>842.8</ele><time>2026-04-26T11:59:29.19Z</time></trkpt><trkpt lat="42.853101" lon="11.5490059"><ele>842.2</ele><time>2026-04-26T11:59:30.181Z</time></trkpt><trkpt lat="42.8531654" lon="11.5489228"><ele>841.5999999999999</ele><time>2026-04-26T11:59:31.181Z</time></trkpt><trkpt lat="42.8532251" lon="11.5488841"><ele>841.0</ele><time>2026-04-26T11:59:32.183Z</time></trkpt><trkpt lat="42.8533401" lon="11.5489265"><ele>841.0</ele><time>2026-04-26T11:59:34.178Z</time></trkpt><trkpt lat="42.853406" lon="11.5490048"><ele>841.0</ele><time>2026-04-26T11:59:35.179Z</time></trkpt><trkpt lat="42.8534451" lon="11.5491241"><ele>841.0</ele><time>2026-04-26T11:59:36.195Z</time></trkpt><trkpt lat="42.8534752" lon="11.5492538"><ele>841.0</ele><time>2026-04-26T11:59:37.183Z</time></trkpt><trkpt lat="42.8534716" lon="11.5494043"><ele>841.0</ele><time>2026-04-26T11:59:38.191Z</time></trkpt><trkpt lat="42.8534681" lon="11.5495528"><ele>836.8</ele><time>2026-04-26T11:59:39.184Z</time></trkpt><trkpt lat="42.8534632" lon="11.5497009"><ele>832.5999999999999</ele><time>2026-04-26T11:59:40.183Z</time></trkpt><trkpt lat="42.8534807" lon="11.5498418"><ele>828.4</ele><time>2026-04-26T11:59:41.194Z</time></trkpt><trkpt lat="42.8535141" lon="11.5499659"><ele>824.2</ele><time>2026-04-26T11:59:42.185Z</time></trkpt><trkpt lat="42.853546" lon="11.5500781"><ele>820.0</ele><time>2026-04-26T11:59:43.193Z</time></trkpt><trkpt lat="42.8535714" lon="11.5501623"><ele>819.9999999999999</ele><time>2026-04-26T11:59:44.195Z</time></trkpt><trkpt lat="42.8535916" lon="11.5502464"><ele>820.0</ele><time>2026-04-26T11:59:45.195Z</time></trkpt><trkpt lat="42.8536175" lon="11.550338"><ele>820.0</ele><time>2026-04-26T11:59:46.183Z</time></trkpt><trkpt lat="42.8536166" lon="11.5504544"><ele>820.0</ele><time>2026-04-26T11:59:47.181Z</time></trkpt><trkpt lat="42.8536163" lon="11.5505686"><ele>819.9999999999999</ele><time>2026-04-26T11:59:48.183Z</time></trkpt><trkpt lat="42.8536014" lon="11.5507024"><ele>820.0</ele><time>2026-04-26T11:59:49.188Z</time></trkpt><trkpt lat="42.8535846" lon="11.550848"><ele>820.6</ele><time>2026-04-26T11:59:50.176Z</time></trkpt><trkpt lat="42.8535701" lon="11.5509976"><ele>821.2</ele><time>2026-04-26T11:59:51.181Z</time></trkpt><trkpt lat="42.8535598" lon="11.5511382"><ele>821.8</ele><time>2026-04-26T11:59:52.181Z</time></trkpt><trkpt lat="42.8535543" lon="11.551276"><ele>822.4</ele><time>2026-04-26T11:59:53.193Z</time></trkpt><trkpt lat="42.8535527" lon="11.5514161"><ele>823.0</ele><time>2026-04-26T11:59:54.177Z</time></trkpt><trkpt lat="42.8535557" lon="11.5515505"><ele>823.4</ele><time>2026-04-26T11:59:55.19Z</time></trkpt><trkpt lat="42.8535674" lon="11.5516779"><ele>823.8</ele><time>2026-04-26T11:59:56.194Z</time></trkpt><trkpt lat="42.8535916" lon="11.5517996"><ele>824.2</ele><time>2026-04-26T11:59:57.185Z</time></trkpt><trkpt lat="42.8536227" lon="11.5519202"><ele>824.6</ele><time>2026-04-26T11:59:58.193Z</time></trkpt><trkpt lat="42.8536554" lon="11.5520417"><ele>825.0</ele><time>2026-04-26T11:59:59.191Z</time></trkpt><trkpt lat="42.8536911" lon="11.5521616"><ele>825.8</ele><time>2026-04-26T12:00:00.184Z</time></trkpt><trkpt lat="42.8537312" lon="11.5522796"><ele>826.6</ele><time>2026-04-26T12:00:01.179Z</time></trkpt><trkpt lat="42.853782" lon="11.5523914"><ele>827.4000000000001</ele><time>2026-04-26T12:00:02.185Z</time></trkpt><trkpt lat="42.8538312" lon="11.5524999"><ele>828.2</ele><time>2026-04-26T12:00:03.176Z</time></trkpt><trkpt lat="42.8538918" lon="11.552603"><ele>829.0</ele><time>2026-04-26T12:00:04.197Z</time></trkpt><trkpt lat="42.8539576" lon="11.5527026"><ele>829.0</ele><time>2026-04-26T12:00:05.192Z</time></trkpt><trkpt lat="42.8540378" lon="11.552792"><ele>829.0</ele><time>2026-04-26T12:00:06.181Z</time></trkpt><trkpt lat="42.854126" lon="11.5528543"><ele>829.0</ele><time>2026-04-26T12:00:07.181Z</time></trkpt><trkpt lat="42.8542152" lon="11.5529114"><ele>829.0</ele><time>2026-04-26T12:00:08.188Z</time></trkpt><trkpt lat="42.8543028" lon="11.552951"><ele>829.0</ele><time>2026-04-26T12:00:09.188Z</time></trkpt><trkpt lat="42.8543839" lon="11.5529784"><ele>828.0</ele><time>2026-04-26T12:00:10.192Z</time></trkpt><trkpt lat="42.8544741" lon="11.5530224"><ele>827.0</ele><time>2026-04-26T12:00:11.189Z</time></trkpt><trkpt lat="42.8545683" lon="11.5530792"><ele>826.0</ele><time>2026-04-26T12:00:12.183Z</time></trkpt><trkpt lat="42.8546613" lon="11.553142"><ele>825.0</ele><time>2026-04-26T12:00:13.194Z</time></trkpt><trkpt lat="42.8547525" lon="11.5532009"><ele>824.0</ele><time>2026-04-26T12:00:14.175Z</time></trkpt><trkpt lat="42.854837" lon="11.5532565"><ele>824.0000000000001</ele><time>2026-04-26T12:00:15.196Z</time></trkpt><trkpt lat="42.8549166" lon="11.5533108"><ele>824.0</ele><time>2026-04-26T12:00:16.177Z</time></trkpt><trkpt lat="42.8549919" lon="11.5533739"><ele>824.0</ele><time>2026-04-26T12:00:17.193Z</time></trkpt><trkpt lat="42.8550647" lon="11.5534342"><ele>824.0</ele><time>2026-04-26T12:00:18.174Z</time></trkpt><trkpt lat="42.8551334" lon="11.553495"><ele>824.0000000000001</ele><time>2026-04-26T12:00:19.187Z</time></trkpt><trkpt lat="42.8551879" lon="11.5535467"><ele>824.0</ele><time>2026-04-26T12:00:20.181Z</time></trkpt><trkpt lat="42.8552518" lon="11.5536005"><ele>823.4000000000001</ele><time>2026-04-26T12:00:22.169Z</time></trkpt><trkpt lat="42.8553123" lon="11.5536458"><ele>822.8</ele><time>2026-04-26T12:01:07.197Z</time></trkpt><trkpt lat="42.8554115" lon="11.5536528"><ele>822.2</ele><time>2026-04-26T12:01:09.179Z</time></trkpt><trkpt lat="42.8554906" lon="11.55363"><ele>821.5999999999999</ele><time>2026-04-26T12:01:10.194Z</time></trkpt><trkpt lat="42.855589" lon="11.5535753"><ele>821.0</ele><time>2026-04-26T12:01:11.185Z</time></trkpt><trkpt lat="42.8557252" lon="11.5535157"><ele>821.0</ele><time>2026-04-26T12:01:12.181Z</time></trkpt><trkpt lat="42.8558706" lon="11.5534363"><ele>821.0</ele><time>2026-04-26T12:01:13.184Z</time></trkpt><trkpt lat="42.856023" lon="11.5533135"><ele>821.0</ele><time>2026-04-26T12:01:14.186Z</time></trkpt><trkpt lat="42.8561613" lon="11.5531423"><ele>822.0</ele><time>2026-04-26T12:01:15.177Z</time></trkpt><trkpt lat="42.8562813" lon="11.5529578"><ele>823.0</ele><time>2026-04-26T12:01:16.179Z</time></trkpt><trkpt lat="42.8563982" lon="11.5527843"><ele>824.0</ele><time>2026-04-26T12:01:17.176Z</time></trkpt><trkpt lat="42.8565234" lon="11.5526289"><ele>820.3333333333334</ele><time>2026-04-26T12:01:18.181Z</time></trkpt><trkpt lat="42.856659" lon="11.5525014"><ele>816.6666666666667</ele><time>2026-04-26T12:01:19.195Z</time></trkpt><trkpt lat="42.8568003" lon="11.5523987"><ele>813.0</ele><time>2026-04-26T12:01:20.179Z</time></trkpt><trkpt lat="42.8569455" lon="11.5523191"><ele>813.0</ele><time>2026-04-26T12:01:21.197Z</time></trkpt><trkpt lat="42.8570955" lon="11.5522597"><ele>813.0</ele><time>2026-04-26T12:01:22.191Z</time></trkpt><trkpt lat="42.8572496" lon="11.5522168"><ele>813.0</ele><time>2026-04-26T12:01:23.18Z</time></trkpt><trkpt lat="42.857401" lon="11.5521835"><ele>813.0</ele><time>2026-04-26T12:01:24.196Z</time></trkpt><trkpt lat="42.8575476" lon="11.5521459"><ele>813.0</ele><time>2026-04-26T12:01:25.183Z</time></trkpt><trkpt lat="42.8576877" lon="11.5520996"><ele>813.0</ele><time>2026-04-26T12:01:26.198Z</time></trkpt><trkpt lat="42.857821" lon="11.5520375"><ele>813.0</ele><time>2026-04-26T12:01:27.184Z</time></trkpt><trkpt lat="42.8579457" lon="11.5519467"><ele>808.0</ele><time>2026-04-26T12:01:28.179Z</time></trkpt><trkpt lat="42.8580633" lon="11.5518312"><ele>803.0</ele><time>2026-04-26T12:01:29.181Z</time></trkpt><trkpt lat="42.8581791" lon="11.551704"><ele>798.0</ele><time>2026-04-26T12:01:30.192Z</time></trkpt><trkpt lat="42.8582916" lon="11.5515723"><ele>793.0</ele><time>2026-04-26T12:01:31.193Z</time></trkpt><trkpt lat="42.8583987" lon="11.551439"><ele>794.5</ele><time>2026-04-26T12:01:32.191Z</time></trkpt><trkpt lat="42.8585056" lon="11.551312"><ele>796.0</ele><time>2026-04-26T12:01:33.178Z</time></trkpt><trkpt lat="42.8586135" lon="11.5511964"><ele>797.5</ele><time>2026-04-26T12:01:34.197Z</time></trkpt><trkpt lat="42.8587263" lon="11.5510925"><ele>799.0</ele><time>2026-04-26T12:01:35.2Z</time></trkpt><trkpt lat="42.8588466" lon="11.5510063"><ele>795.75</ele><time>2026-04-26T12:01:36.191Z</time></trkpt><trkpt lat="42.8589738" lon="11.5509384"><ele>792.5</ele><time>2026-04-26T12:01:37.194Z</time></trkpt><trkpt lat="42.859107" lon="11.5508875"><ele>789.25</ele><time>2026-04-26T12:01:38.182Z</time></trkpt><trkpt lat="42.8592463" lon="11.5508497"><ele>786.0</ele><time>2026-04-26T12:01:39.188Z</time></trkpt><trkpt lat="42.8593885" lon="11.5508174"><ele>786.0</ele><time>2026-04-26T12:01:40.175Z</time></trkpt><trkpt lat="42.8595354" lon="11.5507827"><ele>786.0</ele><time>2026-04-26T12:01:41.192Z</time></trkpt><trkpt lat="42.8596888" lon="11.5507467"><ele>786.0</ele><time>2026-04-26T12:01:42.179Z</time></trkpt><trkpt lat="42.8598483" lon="11.5507106"><ele>786.0</ele><time>2026-04-26T12:01:43.179Z</time></trkpt><trkpt lat="42.8600092" lon="11.550672"><ele>786.0</ele><time>2026-04-26T12:01:44.175Z</time></trkpt><trkpt lat="42.860159" lon="11.5506271"><ele>786.0</ele><time>2026-04-26T12:01:45.193Z</time></trkpt><trkpt lat="42.8602967" lon="11.5505683"><ele>789.0</ele><time>2026-04-26T12:01:46.195Z</time></trkpt><trkpt lat="42.8604288" lon="11.5504885"><ele>792.0</ele><time>2026-04-26T12:01:47.18Z</time></trkpt><trkpt lat="42.8605567" lon="11.5503901"><ele>795.0</ele><time>2026-04-26T12:01:48.177Z</time></trkpt><trkpt lat="42.860679" lon="11.5502856"><ele>798.0</ele><time>2026-04-26T12:01:49.18Z</time></trkpt><trkpt lat="42.8607995" lon="11.5501831"><ele>792.5</ele><time>2026-04-26T12:01:50.186Z</time></trkpt><trkpt lat="42.860924" lon="11.5500855"><ele>787.0</ele><time>2026-04-26T12:01:51.179Z</time></trkpt><trkpt lat="42.8610529" lon="11.5499896"><ele>781.5</ele><time>2026-04-26T12:01:52.195Z</time></trkpt><trkpt lat="42.8611888" lon="11.5498952"><ele>776.0</ele><time>2026-04-26T12:01:53.188Z</time></trkpt><trkpt lat="42.8613356" lon="11.5498104"><ele>776.0</ele><time>2026-04-26T12:01:54.176Z</time></trkpt><trkpt lat="42.86149" lon="11.5497356"><ele>776.0</ele><time>2026-04-26T12:01:55.182Z</time></trkpt><trkpt lat="42.8616474" lon="11.5496737"><ele>776.0</ele><time>2026-04-26T12:01:56.186Z</time></trkpt><trkpt lat="42.8618043" lon="11.5496301"><ele>774.0</ele><time>2026-04-26T12:01:57.178Z</time></trkpt><trkpt lat="42.8619599" lon="11.549604"><ele>772.0</ele><time>2026-04-26T12:01:58.178Z</time></trkpt><trkpt lat="42.8621156" lon="11.5495944"><ele>770.0</ele><time>2026-04-26T12:01:59.191Z</time></trkpt><trkpt lat="42.8622664" lon="11.5495984"><ele>770.0</ele><time>2026-04-26T12:02:00.175Z</time></trkpt><trkpt lat="42.8624037" lon="11.5496117"><ele>770.0</ele><time>2026-04-26T12:02:01.187Z</time></trkpt><trkpt lat="42.8625236" lon="11.5496272"><ele>770.0</ele><time>2026-04-26T12:02:02.19Z</time></trkpt><trkpt lat="42.8626299" lon="11.5496428"><ele>770.0</ele><time>2026-04-26T12:02:03.192Z</time></trkpt><trkpt lat="42.8627227" lon="11.5496453"><ele>769.1666666666667</ele><time>2026-04-26T12:02:04.199Z</time></trkpt><trkpt lat="42.8628061" lon="11.549639"><ele>768.3333333333334</ele><time>2026-04-26T12:02:05.187Z</time></trkpt><trkpt lat="42.862849" lon="11.5495528"><ele>767.5</ele><time>2026-04-26T12:02:06.184Z</time></trkpt><trkpt lat="42.8628525" lon="11.5494574"><ele>766.6666666666667</ele><time>2026-04-26T12:02:07.179Z</time></trkpt><trkpt lat="42.8628115" lon="11.5493714"><ele>765.8333333333334</ele><time>2026-04-26T12:02:08.186Z</time></trkpt><trkpt lat="42.8627276" lon="11.5493104"><ele>765.0</ele><time>2026-04-26T12:02:09.179Z</time></trkpt><trkpt lat="42.8626129" lon="11.5492623"><ele>759.5</ele><time>2026-04-26T12:02:10.181Z</time></trkpt><trkpt lat="42.8624829" lon="11.5492127"><ele>754.0</ele><time>2026-04-26T12:02:11.182Z</time></trkpt><trkpt lat="42.8623492" lon="11.5491565"><ele>748.5</ele><time>2026-04-26T12:02:12.195Z</time></trkpt><trkpt lat="42.8622128" lon="11.5491039"><ele>743.0</ele><time>2026-04-26T12:02:13.176Z</time></trkpt><trkpt lat="42.8620693" lon="11.5490631"><ele>743.0</ele><time>2026-04-26T12:02:14.183Z</time></trkpt><trkpt lat="42.8619185" lon="11.5490367"><ele>743.0</ele><time>2026-04-26T12:02:15.189Z</time></trkpt><trkpt lat="42.8617674" lon="11.5490231"><ele>743.0</ele><time>2026-04-26T12:02:16.184Z</time></trkpt><trkpt lat="42.8616223" lon="11.549009"><ele>743.0</ele><time>2026-04-26T12:02:17.194Z</time></trkpt><trkpt lat="42.8614848" lon="11.548987"><ele>743.0</ele><time>2026-04-26T12:02:18.19Z</time></trkpt><trkpt lat="42.8613541" lon="11.5489623"><ele>743.0</ele><time>2026-04-26T12:02:19.187Z</time></trkpt><trkpt lat="42.8612304" lon="11.5489165"><ele>743.0</ele><time>2026-04-26T12:02:20.19Z</time></trkpt><trkpt lat="42.861125" lon="11.5488241"><ele>743.0</ele><time>2026-04-26T12:02:21.19Z</time></trkpt><trkpt lat="42.8610489" lon="11.5486837"><ele>736.0</ele><time>2026-04-26T12:02:22.176Z</time></trkpt><trkpt lat="42.8610084" lon="11.5485009"><ele>729.0</ele><time>2026-04-26T12:02:23.179Z</time></trkpt><trkpt lat="42.8610052" lon="11.5482863"><ele>722.0</ele><time>2026-04-26T12:02:24.177Z</time></trkpt><trkpt lat="42.8610342" lon="11.5480556"><ele>719.6666666666666</ele><time>2026-04-26T12:02:25.176Z</time></trkpt><trkpt lat="42.8610893" lon="11.5478178"><ele>717.3333333333334</ele><time>2026-04-26T12:02:26.176Z</time></trkpt><trkpt lat="42.8611634" lon="11.5475722"><ele>715.0</ele><time>2026-04-26T12:02:27.182Z</time></trkpt><trkpt lat="42.8612435" lon="11.5473325"><ele>715.0</ele><time>2026-04-26T12:02:28.192Z</time></trkpt><trkpt lat="42.8613249" lon="11.5470965"><ele>715.0</ele><time>2026-04-26T12:02:29.19Z</time></trkpt><trkpt lat="42.8614133" lon="11.5468593"><ele>715.0</ele><time>2026-04-26T12:02:30.196Z</time></trkpt><trkpt lat="42.8615014" lon="11.546621"><ele>714.3333333333334</ele><time>2026-04-26T12:02:31.178Z</time></trkpt><trkpt lat="42.861606" lon="11.5463966"><ele>713.6666666666666</ele><time>2026-04-26T12:02:32.179Z</time></trkpt><trkpt lat="42.8617149" lon="11.54618"><ele>713.0</ele><time>2026-04-26T12:02:33.184Z</time></trkpt><trkpt lat="42.8618226" lon="11.5459766"><ele>708.0</ele><time>2026-04-26T12:02:34.19Z</time></trkpt><trkpt lat="42.8619342" lon="11.5457817"><ele>703.0</ele><time>2026-04-26T12:02:35.193Z</time></trkpt><trkpt lat="42.8620567" lon="11.5456001"><ele>698.0</ele><time>2026-04-26T12:02:36.178Z</time></trkpt><trkpt lat="42.8621933" lon="11.5454371"><ele>700.0</ele><time>2026-04-26T12:02:37.191Z</time></trkpt><trkpt lat="42.8623466" lon="11.5452995"><ele>702.0</ele><time>2026-04-26T12:02:38.183Z</time></trkpt><trkpt lat="42.86251" lon="11.545194"><ele>704.0</ele><time>2026-04-26T12:02:39.184Z</time></trkpt><trkpt lat="42.862686" lon="11.5451224"><ele>704.0</ele><time>2026-04-26T12:02:40.187Z</time></trkpt><trkpt lat="42.8628731" lon="11.5450852"><ele>704.0</ele><time>2026-04-26T12:02:41.192Z</time></trkpt><trkpt lat="42.8630654" lon="11.5450796"><ele>704.0</ele><time>2026-04-26T12:02:42.187Z</time></trkpt><trkpt lat="42.8632587" lon="11.545095"><ele>703.3333333333333</ele><time>2026-04-26T12:02:43.195Z</time></trkpt><trkpt lat="42.8634508" lon="11.5451197"><ele>702.6666666666666</ele><time>2026-04-26T12:02:44.188Z</time></trkpt><trkpt lat="42.8636422" lon="11.5451476"><ele>702.0</ele><time>2026-04-26T12:02:45.181Z</time></trkpt><trkpt lat="42.8638343" lon="11.5451731"><ele>702.0</ele><time>2026-04-26T12:02:46.192Z</time></trkpt><trkpt lat="42.8640273" lon="11.5451909"><ele>702.0</ele><time>2026-04-26T12:02:47.193Z</time></trkpt><trkpt lat="42.8642211" lon="11.5451877"><ele>702.0</ele><time>2026-04-26T12:02:48.182Z</time></trkpt><trkpt lat="42.8644155" lon="11.5451588"><ele>702.3333333333334</ele><time>2026-04-26T12:02:49.189Z</time></trkpt><trkpt lat="42.8646119" lon="11.5451417"><ele>702.6666666666667</ele><time>2026-04-26T12:02:50.175Z</time></trkpt><trkpt lat="42.8648069" lon="11.5451736"><ele>703.0</ele><time>2026-04-26T12:02:51.179Z</time></trkpt><trkpt lat="42.8649996" lon="11.5452474"><ele>705.3333333333334</ele><time>2026-04-26T12:02:52.185Z</time></trkpt><trkpt lat="42.8651935" lon="11.5453328"><ele>707.6666666666666</ele><time>2026-04-26T12:02:53.182Z</time></trkpt><trkpt lat="42.8654015" lon="11.5453912"><ele>710.0</ele><time>2026-04-26T12:02:54.196Z</time></trkpt><trkpt lat="42.8656263" lon="11.5454032"><ele>708.0</ele><time>2026-04-26T12:02:55.19Z</time></trkpt><trkpt lat="42.8658606" lon="11.5453817"><ele>706.0</ele><time>2026-04-26T12:02:56.19Z</time></trkpt><trkpt lat="42.8660903" lon="11.5453497"><ele>706.0</ele><time>2026-04-26T12:02:57.194Z</time></trkpt><trkpt lat="42.8663077" lon="11.5453202"><ele>706.0</ele><time>2026-04-26T12:02:58.174Z</time></trkpt><trkpt lat="42.8665168" lon="11.5452918"><ele>706.0</ele><time>2026-04-26T12:02:59.196Z</time></trkpt><trkpt lat="42.8667204" lon="11.5452637"><ele>704.0</ele><time>2026-04-26T12:03:00.188Z</time></trkpt><trkpt lat="42.8669209" lon="11.5452372"><ele>702.0</ele><time>2026-04-26T12:03:01.187Z</time></trkpt><trkpt lat="42.8671201" lon="11.5452121"><ele>700.0</ele><time>2026-04-26T12:03:02.179Z</time></trkpt><trkpt lat="42.8673156" lon="11.5451867"><ele>700.0</ele><time>2026-04-26T12:03:03.187Z</time></trkpt><trkpt lat="42.8675034" lon="11.5451613"><ele>700.0</ele><time>2026-04-26T12:03:04.181Z</time></trkpt><trkpt lat="42.8676843" lon="11.5451399"><ele>700.0</ele><time>2026-04-26T12:03:05.176Z</time></trkpt><trkpt lat="42.8678597" lon="11.5451411"><ele>698.0</ele><time>2026-04-26T12:03:06.184Z</time></trkpt><trkpt lat="42.8680253" lon="11.5451774"><ele>696.0</ele><time>2026-04-26T12:03:07.191Z</time></trkpt><trkpt lat="42.8681858" lon="11.5452105"><ele>694.0</ele><time>2026-04-26T12:03:08.181Z</time></trkpt><trkpt lat="42.8683361" lon="11.5452139"><ele>689.5</ele><time>2026-04-26T12:03:09.198Z</time></trkpt><trkpt lat="42.8684735" lon="11.5451686"><ele>685.0</ele><time>2026-04-26T12:03:10.191Z</time></trkpt><trkpt lat="42.8685912" lon="11.5450614"><ele>680.5</ele><time>2026-04-26T12:03:11.176Z</time></trkpt><trkpt lat="42.8687089" lon="11.5449294"><ele>676.0</ele><time>2026-04-26T12:03:12.179Z</time></trkpt><trkpt lat="42.8687859" lon="11.5447396"><ele>676.0</ele><time>2026-04-26T12:03:13.184Z</time></trkpt><trkpt lat="42.8688897" lon="11.5446113"><ele>676.0</ele><time>2026-04-26T12:03:14.185Z</time></trkpt><trkpt lat="42.8690508" lon="11.5445341"><ele>676.0</ele><time>2026-04-26T12:03:15.186Z</time></trkpt><trkpt lat="42.8692155" lon="11.5444517"><ele>671.75</ele><time>2026-04-26T12:03:16.185Z</time></trkpt><trkpt lat="42.8693533" lon="11.544352"><ele>667.5</ele><time>2026-04-26T12:03:17.185Z</time></trkpt><trkpt lat="42.8694576" lon="11.5442212"><ele>663.25</ele><time>2026-04-26T12:03:18.171Z</time></trkpt><trkpt lat="42.8694935" lon="11.5440376"><ele>659.0</ele><time>2026-04-26T12:03:19.175Z</time></trkpt><trkpt lat="42.8694901" lon="11.5438434"><ele>661.0</ele><time>2026-04-26T12:03:20.176Z</time></trkpt><trkpt lat="42.8694951" lon="11.543656"><ele>663.0</ele><time>2026-04-26T12:03:21.174Z</time></trkpt><trkpt lat="42.869528" lon="11.5434791"><ele>665.0</ele><time>2026-04-26T12:03:22.187Z</time></trkpt><trkpt lat="42.8695916" lon="11.5433134"><ele>667.0</ele><time>2026-04-26T12:03:23.187Z</time></trkpt><trkpt lat="42.8696722" lon="11.5431514"><ele>667.0</ele><time>2026-04-26T12:03:24.174Z</time></trkpt><trkpt lat="42.8697561" lon="11.542985"><ele>667.0</ele><time>2026-04-26T12:03:25.189Z</time></trkpt><trkpt lat="42.8698391" lon="11.5428243"><ele>667.0</ele><time>2026-04-26T12:03:26.19Z</time></trkpt><trkpt lat="42.8699272" lon="11.5426605"><ele>667.0</ele><time>2026-04-26T12:03:27.186Z</time></trkpt><trkpt lat="42.8700127" lon="11.5424978"><ele>667.0</ele><time>2026-04-26T12:03:28.189Z</time></trkpt><trkpt lat="42.8700972" lon="11.5423335"><ele>667.0</ele><time>2026-04-26T12:03:29.178Z</time></trkpt><trkpt lat="42.8701762" lon="11.5421769"><ele>667.0</ele><time>2026-04-26T12:03:30.184Z</time></trkpt><trkpt lat="42.8702608" lon="11.5420201"><ele>667.0</ele><time>2026-04-26T12:03:31.18Z</time></trkpt><trkpt lat="42.8703413" lon="11.5418551"><ele>666.5</ele><time>2026-04-26T12:03:32.177Z</time></trkpt><trkpt lat="42.8704233" lon="11.5416986"><ele>666.0</ele><time>2026-04-26T12:03:33.183Z</time></trkpt><trkpt lat="42.8705031" lon="11.5415476"><ele>665.5</ele><time>2026-04-26T12:03:34.188Z</time></trkpt><trkpt lat="42.8705773" lon="11.541405"><ele>665.0</ele><time>2026-04-26T12:03:35.181Z</time></trkpt><trkpt lat="42.8706478" lon="11.5412672"><ele>664.6</ele><time>2026-04-26T12:03:36.177Z</time></trkpt><trkpt lat="42.8707167" lon="11.5411384"><ele>664.2</ele><time>2026-04-26T12:03:37.18Z</time></trkpt><trkpt lat="42.8707842" lon="11.5410147"><ele>663.8</ele><time>2026-04-26T12:03:38.182Z</time></trkpt><trkpt lat="42.8708481" lon="11.5408986"><ele>663.4</ele><time>2026-04-26T12:03:39.189Z</time></trkpt><trkpt lat="42.870909" lon="11.5407877"><ele>663.0</ele><time>2026-04-26T12:03:40.173Z</time></trkpt><trkpt lat="42.8709664" lon="11.5406795"><ele>662.5</ele><time>2026-04-26T12:03:41.192Z</time></trkpt><trkpt lat="42.8710183" lon="11.5405732"><ele>662.0</ele><time>2026-04-26T12:03:42.187Z</time></trkpt><trkpt lat="42.8710694" lon="11.5404713"><ele>661.5</ele><time>2026-04-26T12:03:43.187Z</time></trkpt><trkpt lat="42.8711133" lon="11.5403901"><ele>661.0</ele><time>2026-04-26T12:03:44.181Z</time></trkpt><trkpt lat="42.8711689" lon="11.5403046"><ele>660.5</ele><time>2026-04-26T12:03:46.19Z</time></trkpt><trkpt lat="42.8712373" lon="11.5402294"><ele>660.0</ele><time>2026-04-26T12:03:56.179Z</time></trkpt><trkpt lat="42.8713184" lon="11.5401303"><ele>660.0</ele><time>2026-04-26T12:03:58.179Z</time></trkpt><trkpt lat="42.8713592" lon="11.539981"><ele>660.0</ele><time>2026-04-26T12:04:00.186Z</time></trkpt><trkpt lat="42.8713733" lon="11.5398292"><ele>660.0</ele><time>2026-04-26T12:04:02.179Z</time></trkpt><trkpt lat="42.8714104" lon="11.5396812"><ele>660.0</ele><time>2026-04-26T12:04:04.176Z</time></trkpt><trkpt lat="42.8714548" lon="11.5395296"><ele>660.1666666666666</ele><time>2026-04-26T12:04:06.186Z</time></trkpt><trkpt lat="42.8714997" lon="11.5393941"><ele>660.3333333333334</ele><time>2026-04-26T12:04:08.195Z</time></trkpt><trkpt lat="42.8715395" lon="11.5392852"><ele>660.5</ele><time>2026-04-26T12:04:10.192Z</time></trkpt><trkpt lat="42.8715886" lon="11.5391865"><ele>660.6666666666667</ele><time>2026-04-26T12:04:13.178Z</time></trkpt><trkpt lat="42.8716158" lon="11.5390988"><ele>660.8333333333334</ele><time>2026-04-26T12:04:16.196Z</time></trkpt><trkpt lat="42.8716223" lon="11.5389772"><ele>661.0</ele><time>2026-04-26T12:07:14.194Z</time></trkpt><trkpt lat="42.8716606" lon="11.5388387"><ele>661.1666666666667</ele><time>2026-04-26T12:07:16.182Z</time></trkpt><trkpt lat="42.8716968" lon="11.5386975"><ele>661.3333333333334</ele><time>2026-04-26T12:07:18.176Z</time></trkpt><trkpt lat="42.8717291" lon="11.538568"><ele>661.5</ele><time>2026-04-26T12:07:20.191Z</time></trkpt><trkpt lat="42.8717642" lon="11.5384667"><ele>661.6666666666666</ele><time>2026-04-26T12:07:22.196Z</time></trkpt><trkpt lat="42.8717916" lon="11.5383849"><ele>661.8333333333333</ele><time>2026-04-26T12:07:24.189Z</time></trkpt><trkpt lat="42.8718199" lon="11.5382955"><ele>662.0</ele><time>2026-04-26T12:07:26.191Z</time></trkpt><trkpt lat="42.8718451" lon="11.5382065"><ele>661.8333333333333</ele><time>2026-04-26T12:07:28.187Z</time></trkpt><trkpt lat="42.8718793" lon="11.5380839"><ele>661.6666666666666</ele><time>2026-04-26T12:07:31.194Z</time></trkpt><trkpt lat="42.871916" lon="11.5379595"><ele>661.5</ele><time>2026-04-26T12:07:33.197Z</time></trkpt><trkpt lat="42.8719637" lon="11.5378518"><ele>661.3333333333334</ele><time>2026-04-26T12:07:35.188Z</time></trkpt><trkpt lat="42.8720211" lon="11.5377829"><ele>661.1666666666667</ele><time>2026-04-26T12:07:37.178Z</time></trkpt><trkpt lat="42.872081" lon="11.5377472"><ele>661.0</ele><time>2026-04-26T12:14:30.184Z</time></trkpt><trkpt lat="42.8720556" lon="11.5376643"><ele>661.0</ele><time>2026-04-26T12:26:06.178Z</time></trkpt><trkpt lat="42.8720864" lon="11.5375567"><ele>661.0</ele><time>2026-04-26T12:26:08.182Z</time></trkpt><trkpt lat="42.8721313" lon="11.5374273"><ele>661.0</ele><time>2026-04-26T12:26:10.186Z</time></trkpt><trkpt lat="42.8721828" lon="11.5372655"><ele>661.0</ele><time>2026-04-26T12:26:12.195Z</time></trkpt><trkpt lat="42.8722095" lon="11.5371806"><ele>661.0</ele><time>2026-04-26T12:26:13.198Z</time></trkpt><trkpt lat="42.8722567" lon="11.5370359"><ele>662.1999999999999</ele><time>2026-04-26T12:26:15.196Z</time></trkpt><trkpt lat="42.8723166" lon="11.5369335"><ele>663.4</ele><time>2026-04-26T12:26:17.195Z</time></trkpt><trkpt lat="42.8723754" lon="11.5368494"><ele>664.6</ele><time>2026-04-26T12:26:19.194Z</time></trkpt><trkpt lat="42.8724556" lon="11.5367861"><ele>665.8</ele><time>2026-04-26T12:26:21.184Z</time></trkpt><trkpt lat="42.8725402" lon="11.5367269"><ele>667.0</ele><time>2026-04-26T12:26:23.186Z</time></trkpt><trkpt lat="42.8726147" lon="11.536644"><ele>662.3333333333334</ele><time>2026-04-26T12:26:25.193Z</time></trkpt><trkpt lat="42.872665" lon="11.5365018"><ele>657.6666666666667</ele><time>2026-04-26T12:26:27.183Z</time></trkpt><trkpt lat="42.8727008" lon="11.5363953"><ele>653.0</ele><time>2026-04-26T12:26:29.183Z</time></trkpt><trkpt lat="42.8727782" lon="11.5364339"><ele>648.3333333333334</ele><time>2026-04-26T12:26:34.197Z</time></trkpt><trkpt lat="42.8727781" lon="11.5365208"><ele>643.6666666666666</ele><time>2026-04-26T12:26:35.183Z</time></trkpt><trkpt lat="42.8727773" lon="11.5366331"><ele>639.0</ele><time>2026-04-26T12:26:36.197Z</time></trkpt><trkpt lat="42.8727913" lon="11.5367549"><ele>639.0</ele><time>2026-04-26T12:26:37.183Z</time></trkpt><trkpt lat="42.8728175" lon="11.5368693"><ele>639.0</ele><time>2026-04-26T12:26:38.196Z</time></trkpt><trkpt lat="42.8728592" lon="11.5369775"><ele>639.0</ele><time>2026-04-26T12:26:39.193Z</time></trkpt><trkpt lat="42.8729115" lon="11.5370782"><ele>639.0</ele><time>2026-04-26T12:26:40.2Z</time></trkpt><trkpt lat="42.8729655" lon="11.5371705"><ele>639.0</ele><time>2026-04-26T12:26:41.196Z</time></trkpt><trkpt lat="42.8730132" lon="11.5372638"><ele>639.0</ele><time>2026-04-26T12:26:42.203Z</time></trkpt><trkpt lat="42.8730415" lon="11.537365"><ele>639.4</ele><time>2026-04-26T12:26:43.181Z</time></trkpt><trkpt lat="42.8730416" lon="11.5374808"><ele>639.8</ele><time>2026-04-26T12:26:44.185Z</time></trkpt><trkpt lat="42.8730134" lon="11.5376038"><ele>640.1999999999999</ele><time>2026-04-26T12:26:45.194Z</time></trkpt><trkpt lat="42.8729708" lon="11.5377121"><ele>640.5999999999999</ele><time>2026-04-26T12:26:46.181Z</time></trkpt><trkpt lat="42.8729296" lon="11.5378183"><ele>641.0</ele><time>2026-04-26T12:26:47.195Z</time></trkpt><trkpt lat="42.8728929" lon="11.537936"><ele>639.0</ele><time>2026-04-26T12:26:48.181Z</time></trkpt><trkpt lat="42.8728591" lon="11.5380724"><ele>637.0</ele><time>2026-04-26T12:26:49.197Z</time></trkpt><trkpt lat="42.8728347" lon="11.5382221"><ele>635.0</ele><time>2026-04-26T12:26:50.198Z</time></trkpt><trkpt lat="42.872817" lon="11.5383803"><ele>633.0</ele><time>2026-04-26T12:26:51.187Z</time></trkpt><trkpt lat="42.8728033" lon="11.5385463"><ele>631.0</ele><time>2026-04-26T12:26:52.184Z</time></trkpt><trkpt lat="42.8727912" lon="11.538719"><ele>629.0</ele><time>2026-04-26T12:26:53.195Z</time></trkpt><trkpt lat="42.8727785" lon="11.5388977"><ele>627.0</ele><time>2026-04-26T12:26:54.194Z</time></trkpt><trkpt lat="42.8727642" lon="11.5390814"><ele>625.0</ele><time>2026-04-26T12:26:55.183Z</time></trkpt><trkpt lat="42.8727499" lon="11.5392679"><ele>625.0</ele><time>2026-04-26T12:26:56.202Z</time></trkpt><trkpt lat="42.872735" lon="11.5394555"><ele>625.0</ele><time>2026-04-26T12:26:57.185Z</time></trkpt><trkpt lat="42.8727201" lon="11.5396441"><ele>625.0</ele><time>2026-04-26T12:26:58.181Z</time></trkpt><trkpt lat="42.8727075" lon="11.5398272"><ele>625.0</ele><time>2026-04-26T12:26:59.181Z</time></trkpt><trkpt lat="42.8726931" lon="11.5400073"><ele>623.75</ele><time>2026-04-26T12:27:00.2Z</time></trkpt><trkpt lat="42.8726791" lon="11.5401849"><ele>622.5</ele><time>2026-04-26T12:27:01.202Z</time></trkpt><trkpt lat="42.8726671" lon="11.5403649"><ele>621.25</ele><time>2026-04-26T12:27:02.192Z</time></trkpt><trkpt lat="42.8726631" lon="11.5405449"><ele>620.0</ele><time>2026-04-26T12:27:03.204Z</time></trkpt><trkpt lat="42.8726594" lon="11.5407215"><ele>620.0</ele><time>2026-04-26T12:27:04.193Z</time></trkpt><trkpt lat="42.8726898" lon="11.5408988"><ele>620.0</ele><time>2026-04-26T12:27:05.186Z</time></trkpt><trkpt lat="42.8727264" lon="11.5410732"><ele>620.0</ele><time>2026-04-26T12:27:06.198Z</time></trkpt><trkpt lat="42.872764" lon="11.5412478"><ele>620.0</ele><time>2026-04-26T12:27:07.192Z</time></trkpt><trkpt lat="42.8727974" lon="11.5414187"><ele>620.0</ele><time>2026-04-26T12:27:08.202Z</time></trkpt><trkpt lat="42.87283" lon="11.5415865"><ele>620.0</ele><time>2026-04-26T12:27:09.183Z</time></trkpt><trkpt lat="42.872862" lon="11.5417471"><ele>620.0</ele><time>2026-04-26T12:27:10.188Z</time></trkpt><trkpt lat="42.8729253" lon="11.5418818"><ele>620.0</ele><time>2026-04-26T12:27:11.18Z</time></trkpt><trkpt lat="42.8730119" lon="11.5419801"><ele>620.0</ele><time>2026-04-26T12:27:12.183Z</time></trkpt><trkpt lat="42.8731176" lon="11.5420368"><ele>620.0</ele><time>2026-04-26T12:27:13.193Z</time></trkpt><trkpt lat="42.8732359" lon="11.5420414"><ele>620.0</ele><time>2026-04-26T12:27:14.204Z</time></trkpt><trkpt lat="42.8733621" lon="11.5420406"><ele>620.0</ele><time>2026-04-26T12:27:15.186Z</time></trkpt><trkpt lat="42.8734769" lon="11.5419544"><ele>619.75</ele><time>2026-04-26T12:27:16.203Z</time></trkpt><trkpt lat="42.8735859" lon="11.5418399"><ele>619.5</ele><time>2026-04-26T12:27:17.184Z</time></trkpt><trkpt lat="42.8736893" lon="11.5417099"><ele>619.25</ele><time>2026-04-26T12:27:18.185Z</time></trkpt><trkpt lat="42.8737958" lon="11.5415771"><ele>619.0</ele><time>2026-04-26T12:27:19.185Z</time></trkpt><trkpt lat="42.8739047" lon="11.5414389"><ele>619.0</ele><time>2026-04-26T12:27:20.196Z</time></trkpt><trkpt lat="42.8740149" lon="11.5413032"><ele>619.0</ele><time>2026-04-26T12:27:21.191Z</time></trkpt><trkpt lat="42.8741221" lon="11.5411729"><ele>619.0</ele><time>2026-04-26T12:27:22.204Z</time></trkpt><trkpt lat="42.8742249" lon="11.5410478"><ele>619.0</ele><time>2026-04-26T12:27:23.176Z</time></trkpt><trkpt lat="42.8743241" lon="11.5409138"><ele>620.5</ele><time>2026-04-26T12:27:24.204Z</time></trkpt><trkpt lat="42.8744189" lon="11.5407723"><ele>622.0</ele><time>2026-04-26T12:27:25.184Z</time></trkpt><trkpt lat="42.8745078" lon="11.5406203"><ele>623.5</ele><time>2026-04-26T12:27:26.197Z</time></trkpt><trkpt lat="42.8745818" lon="11.540457"><ele>625.0</ele><time>2026-04-26T12:27:27.199Z</time></trkpt><trkpt lat="42.8746449" lon="11.5402865"><ele>622.0</ele><time>2026-04-26T12:27:28.2Z</time></trkpt><trkpt lat="42.8747028" lon="11.5401124"><ele>619.0</ele><time>2026-04-26T12:27:29.197Z</time></trkpt><trkpt lat="42.8747609" lon="11.539935"><ele>616.0</ele><time>2026-04-26T12:27:30.186Z</time></trkpt><trkpt lat="42.8748177" lon="11.5397581"><ele>613.0</ele><time>2026-04-26T12:27:31.194Z</time></trkpt><trkpt lat="42.8748754" lon="11.5395821"><ele>613.25</ele><time>2026-04-26T12:27:32.193Z</time></trkpt><trkpt lat="42.8749359" lon="11.5394019"><ele>613.5</ele><time>2026-04-26T12:27:33.2Z</time></trkpt><trkpt lat="42.874995" lon="11.5392212"><ele>613.75</ele><time>2026-04-26T12:27:34.187Z</time></trkpt><trkpt lat="42.8750525" lon="11.53904"><ele>614.0</ele><time>2026-04-26T12:27:35.187Z</time></trkpt><trkpt lat="42.8751057" lon="11.5388593"><ele>619.25</ele><time>2026-04-26T12:27:36.195Z</time></trkpt><trkpt lat="42.8751555" lon="11.5386756"><ele>624.5</ele><time>2026-04-26T12:27:37.182Z</time></trkpt><trkpt lat="42.8752047" lon="11.538493"><ele>629.75</ele><time>2026-04-26T12:27:38.198Z</time></trkpt><trkpt lat="42.8752625" lon="11.5383205"><ele>635.0</ele><time>2026-04-26T12:27:39.193Z</time></trkpt><trkpt lat="42.8753442" lon="11.5381674"><ele>635.0</ele><time>2026-04-26T12:27:40.194Z</time></trkpt><trkpt lat="42.8754513" lon="11.5380397"><ele>635.0</ele><time>2026-04-26T12:27:41.184Z</time></trkpt><trkpt lat="42.8755745" lon="11.537935"><ele>635.0</ele><time>2026-04-26T12:27:42.193Z</time></trkpt><trkpt lat="42.8757041" lon="11.5378468"><ele>635.0</ele><time>2026-04-26T12:27:43.182Z</time></trkpt><trkpt lat="42.8758321" lon="11.5377555"><ele>638.5</ele><time>2026-04-26T12:27:44.193Z</time></trkpt><trkpt lat="42.8759456" lon="11.5376401"><ele>642.0</ele><time>2026-04-26T12:27:45.193Z</time></trkpt><trkpt lat="42.8760409" lon="11.5374954"><ele>645.5</ele><time>2026-04-26T12:27:46.197Z</time></trkpt><trkpt lat="42.8761235" lon="11.5373355"><ele>649.0</ele><time>2026-04-26T12:27:47.19Z</time></trkpt><trkpt lat="42.8762067" lon="11.5371744"><ele>647.75</ele><time>2026-04-26T12:27:48.189Z</time></trkpt><trkpt lat="42.8762919" lon="11.5370152"><ele>646.5</ele><time>2026-04-26T12:27:49.201Z</time></trkpt><trkpt lat="42.8763732" lon="11.5368524"><ele>645.25</ele><time>2026-04-26T12:27:50.183Z</time></trkpt><trkpt lat="42.8764519" lon="11.5366899"><ele>644.0</ele><time>2026-04-26T12:27:51.2Z</time></trkpt><trkpt lat="42.8765307" lon="11.5365318"><ele>644.0</ele><time>2026-04-26T12:27:52.197Z</time></trkpt><trkpt lat="42.8766112" lon="11.5363767"><ele>644.0</ele><time>2026-04-26T12:27:53.183Z</time></trkpt><trkpt lat="42.8766959" lon="11.5362279"><ele>644.0</ele><time>2026-04-26T12:27:54.183Z</time></trkpt><trkpt lat="42.8767817" lon="11.5360863"><ele>644.0</ele><time>2026-04-26T12:27:55.194Z</time></trkpt><trkpt lat="42.8768679" lon="11.5359514"><ele>645.75</ele><time>2026-04-26T12:27:56.198Z</time></trkpt><trkpt lat="42.8769565" lon="11.5358202"><ele>647.5</ele><time>2026-04-26T12:27:57.186Z</time></trkpt><trkpt lat="42.8770523" lon="11.5357022"><ele>649.25</ele><time>2026-04-26T12:27:58.183Z</time></trkpt><trkpt lat="42.8771617" lon="11.5356089"><ele>651.0</ele><time>2026-04-26T12:27:59.194Z</time></trkpt><trkpt lat="42.877283" lon="11.5355436"><ele>651.0</ele><time>2026-04-26T12:28:00.199Z</time></trkpt><trkpt lat="42.8774134" lon="11.5355035"><ele>651.0</ele><time>2026-04-26T12:28:01.2Z</time></trkpt><trkpt lat="42.87755" lon="11.5354838"><ele>651.0</ele><time>2026-04-26T12:28:02.181Z</time></trkpt><trkpt lat="42.8776924" lon="11.5354744"><ele>651.0</ele><time>2026-04-26T12:28:03.202Z</time></trkpt><trkpt lat="42.8778382" lon="11.5354617"><ele>654.0</ele><time>2026-04-26T12:28:04.191Z</time></trkpt><trkpt lat="42.8779839" lon="11.5354335"><ele>657.0</ele><time>2026-04-26T12:28:05.203Z</time></trkpt><trkpt lat="42.8781273" lon="11.5353909"><ele>660.0</ele><time>2026-04-26T12:28:06.185Z</time></trkpt><trkpt lat="42.8782701" lon="11.5353452"><ele>663.0</ele><time>2026-04-26T12:28:07.2Z</time></trkpt><trkpt lat="42.8784462" lon="11.5352812"><ele>651.6666666666666</ele><time>2026-04-26T12:28:08.192Z</time></trkpt><trkpt lat="42.8785945" lon="11.5352711"><ele>640.3333333333333</ele><time>2026-04-26T12:28:09.195Z</time></trkpt><trkpt lat="42.8787452" lon="11.535295"><ele>629.0</ele><time>2026-04-26T12:28:10.207Z</time></trkpt><trkpt lat="42.8788908" lon="11.5353473"><ele>634.3333333333333</ele><time>2026-04-26T12:28:11.179Z</time></trkpt><trkpt lat="42.8790269" lon="11.5354345"><ele>639.6666666666666</ele><time>2026-04-26T12:28:12.182Z</time></trkpt><trkpt lat="42.8791618" lon="11.5355231"><ele>645.0</ele><time>2026-04-26T12:28:13.191Z</time></trkpt><trkpt lat="42.8792908" lon="11.5356291"><ele>645.0</ele><time>2026-04-26T12:28:14.185Z</time></trkpt><trkpt lat="42.8794307" lon="11.5357052"><ele>645.0</ele><time>2026-04-26T12:28:15.207Z</time></trkpt><trkpt lat="42.8795737" lon="11.5357523"><ele>645.0</ele><time>2026-04-26T12:28:16.201Z</time></trkpt><trkpt lat="42.8797142" lon="11.5357959"><ele>645.0</ele><time>2026-04-26T12:28:17.195Z</time></trkpt><trkpt lat="42.8798453" lon="11.5358654"><ele>645.0</ele><time>2026-04-26T12:28:18.187Z</time></trkpt><trkpt lat="42.8799619" lon="11.5359719"><ele>645.0</ele><time>2026-04-26T12:28:19.178Z</time></trkpt><trkpt lat="42.8800646" lon="11.5361059"><ele>645.0</ele><time>2026-04-26T12:28:20.181Z</time></trkpt><trkpt lat="42.8801441" lon="11.5362653"><ele>645.0</ele><time>2026-04-26T12:28:21.205Z</time></trkpt><trkpt lat="42.8801957" lon="11.5364418"><ele>647.0</ele><time>2026-04-26T12:28:22.185Z</time></trkpt><trkpt lat="42.880233" lon="11.5366272"><ele>649.0</ele><time>2026-04-26T12:28:23.2Z</time></trkpt><trkpt lat="42.8802662" lon="11.5368105"><ele>651.0</ele><time>2026-04-26T12:28:24.203Z</time></trkpt><trkpt lat="42.8803077" lon="11.5369953"><ele>653.0</ele><time>2026-04-26T12:28:25.188Z</time></trkpt><trkpt lat="42.8803585" lon="11.5371714"><ele>654.5</ele><time>2026-04-26T12:28:26.181Z</time></trkpt><trkpt lat="42.8804226" lon="11.5373387"><ele>656.0</ele><time>2026-04-26T12:28:27.192Z</time></trkpt><trkpt lat="42.8805017" lon="11.5374901"><ele>657.5</ele><time>2026-04-26T12:28:28.203Z</time></trkpt><trkpt lat="42.8805952" lon="11.5376285"><ele>659.0</ele><time>2026-04-26T12:28:29.188Z</time></trkpt><trkpt lat="42.8807191" lon="11.5377563"><ele>659.0</ele><time>2026-04-26T12:28:30.205Z</time></trkpt><trkpt lat="42.880833" lon="11.5378574"><ele>659.0</ele><time>2026-04-26T12:28:31.186Z</time></trkpt><trkpt lat="42.8809518" lon="11.5379432"><ele>659.0</ele><time>2026-04-26T12:28:32.183Z</time></trkpt><trkpt lat="42.8810785" lon="11.5380112"><ele>659.0</ele><time>2026-04-26T12:28:33.183Z</time></trkpt><trkpt lat="42.8812153" lon="11.5380497"><ele>660.0</ele><time>2026-04-26T12:28:34.191Z</time></trkpt><trkpt lat="42.8813558" lon="11.538051"><ele>661.0</ele><time>2026-04-26T12:28:35.192Z</time></trkpt><trkpt lat="42.881496" lon="11.5380229"><ele>662.0</ele><time>2026-04-26T12:28:36.191Z</time></trkpt><trkpt lat="42.8816351" lon="11.5379842"><ele>663.0</ele><time>2026-04-26T12:28:37.19Z</time></trkpt><trkpt lat="42.8818212" lon="11.5378784"><ele>663.0</ele><time>2026-04-26T12:28:38.184Z</time></trkpt><trkpt lat="42.881953" lon="11.537835"><ele>663.0</ele><time>2026-04-26T12:28:39.201Z</time></trkpt><trkpt lat="42.8820816" lon="11.5377836"><ele>663.0</ele><time>2026-04-26T12:28:40.186Z</time></trkpt><trkpt lat="42.8822081" lon="11.5377224"><ele>663.0</ele><time>2026-04-26T12:28:41.201Z</time></trkpt><trkpt lat="42.882334" lon="11.5376514"><ele>663.0</ele><time>2026-04-26T12:28:42.188Z</time></trkpt><trkpt lat="42.8824613" lon="11.5375711"><ele>663.0</ele><time>2026-04-26T12:28:43.184Z</time></trkpt><trkpt lat="42.8825875" lon="11.5374831"><ele>663.0</ele><time>2026-04-26T12:28:44.189Z</time></trkpt><trkpt lat="42.8827093" lon="11.5373975"><ele>663.0</ele><time>2026-04-26T12:28:45.197Z</time></trkpt><trkpt lat="42.8828308" lon="11.5373217"><ele>662.0</ele><time>2026-04-26T12:28:46.197Z</time></trkpt><trkpt lat="42.8829559" lon="11.5372569"><ele>661.0</ele><time>2026-04-26T12:28:47.195Z</time></trkpt><trkpt lat="42.8830862" lon="11.5371996"><ele>660.0</ele><time>2026-04-26T12:28:48.188Z</time></trkpt><trkpt lat="42.8832201" lon="11.5371458"><ele>659.0</ele><time>2026-04-26T12:28:49.197Z</time></trkpt><trkpt lat="42.8833576" lon="11.5370946"><ele>657.25</ele><time>2026-04-26T12:28:50.197Z</time></trkpt><trkpt lat="42.8834855" lon="11.5370499"><ele>655.5</ele><time>2026-04-26T12:28:51.195Z</time></trkpt><trkpt lat="42.8836141" lon="11.5370073"><ele>653.75</ele><time>2026-04-26T12:28:52.186Z</time></trkpt><trkpt lat="42.8837389" lon="11.5369664"><ele>652.0</ele><time>2026-04-26T12:28:53.198Z</time></trkpt><trkpt lat="42.8838645" lon="11.5369248"><ele>652.0</ele><time>2026-04-26T12:28:54.187Z</time></trkpt><trkpt lat="42.8839919" lon="11.5368826"><ele>652.0</ele><time>2026-04-26T12:28:55.185Z</time></trkpt><trkpt lat="42.8841188" lon="11.5368399"><ele>652.0</ele><time>2026-04-26T12:28:56.183Z</time></trkpt><trkpt lat="42.8842448" lon="11.5367976"><ele>652.0</ele><time>2026-04-26T12:28:57.199Z</time></trkpt><trkpt lat="42.8843683" lon="11.5367554"><ele>650.75</ele><time>2026-04-26T12:28:58.195Z</time></trkpt><trkpt lat="42.8844875" lon="11.5367078"><ele>649.5</ele><time>2026-04-26T12:28:59.201Z</time></trkpt><trkpt lat="42.8846062" lon="11.5366554"><ele>648.25</ele><time>2026-04-26T12:29:00.185Z</time></trkpt><trkpt lat="42.8847235" lon="11.5365956"><ele>647.0</ele><time>2026-04-26T12:29:01.184Z</time></trkpt><trkpt lat="42.8848431" lon="11.5365316"><ele>647.0</ele><time>2026-04-26T12:29:02.198Z</time></trkpt><trkpt lat="42.8849661" lon="11.5364648"><ele>647.0</ele><time>2026-04-26T12:29:03.176Z</time></trkpt><trkpt lat="42.8850894" lon="11.5363959"><ele>647.0</ele><time>2026-04-26T12:29:04.185Z</time></trkpt><trkpt lat="42.8852101" lon="11.5363252"><ele>647.0</ele><time>2026-04-26T12:29:05.196Z</time></trkpt><trkpt lat="42.885328" lon="11.5362584"><ele>646.25</ele><time>2026-04-26T12:29:06.189Z</time></trkpt><trkpt lat="42.8854428" lon="11.5361951"><ele>645.5</ele><time>2026-04-26T12:29:07.179Z</time></trkpt><trkpt lat="42.8855533" lon="11.5361355"><ele>644.75</ele><time>2026-04-26T12:29:08.183Z</time></trkpt><trkpt lat="42.8856608" lon="11.5360761"><ele>644.0</ele><time>2026-04-26T12:29:09.196Z</time></trkpt><trkpt lat="42.8857648" lon="11.5360219"><ele>644.0</ele><time>2026-04-26T12:29:10.198Z</time></trkpt><trkpt lat="42.8858666" lon="11.5359757"><ele>644.0</ele><time>2026-04-26T12:29:11.187Z</time></trkpt><trkpt lat="42.8859685" lon="11.5359274"><ele>644.0</ele><time>2026-04-26T12:29:12.186Z</time></trkpt><trkpt lat="42.886074" lon="11.5358742"><ele>644.0</ele><time>2026-04-26T12:29:13.181Z</time></trkpt><trkpt lat="42.8861832" lon="11.5358228"><ele>644.0</ele><time>2026-04-26T12:29:14.199Z</time></trkpt><trkpt lat="42.8862953" lon="11.5357754"><ele>642.8000000000001</ele><time>2026-04-26T12:29:15.187Z</time></trkpt><trkpt lat="42.8864095" lon="11.5357356"><ele>641.6</ele><time>2026-04-26T12:29:16.182Z</time></trkpt><trkpt lat="42.8865222" lon="11.5357127"><ele>640.4</ele><time>2026-04-26T12:29:17.184Z</time></trkpt><trkpt lat="42.8866297" lon="11.5357036"><ele>639.2</ele><time>2026-04-26T12:29:18.195Z</time></trkpt><trkpt lat="42.8867272" lon="11.535701"><ele>638.0</ele><time>2026-04-26T12:29:19.184Z</time></trkpt><trkpt lat="42.8868118" lon="11.535701"><ele>637.8333333333333</ele><time>2026-04-26T12:29:20.177Z</time></trkpt><trkpt lat="42.8868863" lon="11.5357035"><ele>637.6666666666666</ele><time>2026-04-26T12:29:21.192Z</time></trkpt><trkpt lat="42.8869548" lon="11.535703"><ele>637.5</ele><time>2026-04-26T12:29:22.19Z</time></trkpt><trkpt lat="42.8870204" lon="11.5356955"><ele>637.3333333333334</ele><time>2026-04-26T12:29:23.199Z</time></trkpt><trkpt lat="42.8871329" lon="11.5356674"><ele>637.1666666666667</ele><time>2026-04-26T12:29:25.186Z</time></trkpt><trkpt lat="42.8872148" lon="11.5356412"><ele>637.0</ele><time>2026-04-26T12:29:27.182Z</time></trkpt><trkpt lat="42.8872914" lon="11.5356354"><ele>637.0</ele><time>2026-04-26T12:29:30.197Z</time></trkpt><trkpt lat="42.8873565" lon="11.5356587"><ele>637.0</ele><time>2026-04-26T12:31:57.183Z</time></trkpt><trkpt lat="42.8874233" lon="11.5356883"><ele>637.0</ele><time>2026-04-26T12:32:01.197Z</time></trkpt><trkpt lat="42.8874992" lon="11.5357579"><ele>637.0</ele><time>2026-04-26T12:32:03.193Z</time></trkpt><trkpt lat="42.8875732" lon="11.5357662"><ele>637.0</ele><time>2026-04-26T12:32:04.197Z</time></trkpt><trkpt lat="42.8876585" lon="11.5357688"><ele>637.0</ele><time>2026-04-26T12:32:05.193Z</time></trkpt><trkpt lat="42.8877529" lon="11.5357729"><ele>636.6</ele><time>2026-04-26T12:32:06.178Z</time></trkpt><trkpt lat="42.887848" lon="11.5357816"><ele>636.2</ele><time>2026-04-26T12:32:07.186Z</time></trkpt><trkpt lat="42.8879511" lon="11.5357935"><ele>635.8</ele><time>2026-04-26T12:32:08.201Z</time></trkpt><trkpt lat="42.8880632" lon="11.5358149"><ele>635.4</ele><time>2026-04-26T12:32:09.2Z</time></trkpt><trkpt lat="42.8881747" lon="11.5358449"><ele>635.0</ele><time>2026-04-26T12:32:10.185Z</time></trkpt><trkpt lat="42.8882805" lon="11.5358795"><ele>635.0</ele><time>2026-04-26T12:32:11.188Z</time></trkpt><trkpt lat="42.8883813" lon="11.5359129"><ele>635.0</ele><time>2026-04-26T12:32:12.199Z</time></trkpt><trkpt lat="42.8884735" lon="11.5359458"><ele>635.0</ele><time>2026-04-26T12:32:13.184Z</time></trkpt><trkpt lat="42.8885522" lon="11.5359802"><ele>635.0</ele><time>2026-04-26T12:32:14.184Z</time></trkpt><trkpt lat="42.8886279" lon="11.5360246"><ele>635.0</ele><time>2026-04-26T12:32:15.197Z</time></trkpt><trkpt lat="42.8887073" lon="11.5360732"><ele>634.5</ele><time>2026-04-26T12:32:16.183Z</time></trkpt><trkpt lat="42.8887834" lon="11.5361193"><ele>634.0</ele><time>2026-04-26T12:32:17.202Z</time></trkpt><trkpt lat="42.888858" lon="11.5361592"><ele>633.5</ele><time>2026-04-26T12:32:18.188Z</time></trkpt><trkpt lat="42.8889308" lon="11.5361969"><ele>633.0</ele><time>2026-04-26T12:32:19.179Z</time></trkpt><trkpt lat="42.8890056" lon="11.5362338"><ele>632.5</ele><time>2026-04-26T12:32:20.2Z</time></trkpt><trkpt lat="42.8890798" lon="11.5362727"><ele>632.0</ele><time>2026-04-26T12:32:21.202Z</time></trkpt><trkpt lat="42.8891513" lon="11.536329"><ele>631.2</ele><time>2026-04-26T12:32:22.184Z</time></trkpt><trkpt lat="42.8892299" lon="11.5363829"><ele>630.4000000000001</ele><time>2026-04-26T12:32:23.2Z</time></trkpt><trkpt lat="42.8893111" lon="11.5364411"><ele>629.5999999999999</ele><time>2026-04-26T12:32:24.199Z</time></trkpt><trkpt lat="42.889399" lon="11.5365056"><ele>628.8</ele><time>2026-04-26T12:32:25.186Z</time></trkpt><trkpt lat="42.889492" lon="11.5365644"><ele>628.0</ele><time>2026-04-26T12:32:26.182Z</time></trkpt><trkpt lat="42.8895841" lon="11.5366275"><ele>628.0</ele><time>2026-04-26T12:32:27.198Z</time></trkpt><trkpt lat="42.8896792" lon="11.5366918"><ele>628.0</ele><time>2026-04-26T12:32:28.187Z</time></trkpt><trkpt lat="42.8897726" lon="11.536759"><ele>628.0</ele><time>2026-04-26T12:32:29.179Z</time></trkpt><trkpt lat="42.8898685" lon="11.536827"><ele>628.0</ele><time>2026-04-26T12:32:30.196Z</time></trkpt><trkpt lat="42.8899664" lon="11.5368951"><ele>628.0</ele><time>2026-04-26T12:32:31.194Z</time></trkpt><trkpt lat="42.8900628" lon="11.5369665"><ele>628.1999999999999</ele><time>2026-04-26T12:32:32.185Z</time></trkpt><trkpt lat="42.8901596" lon="11.5370374"><ele>628.4</ele><time>2026-04-26T12:32:33.186Z</time></trkpt><trkpt lat="42.8902508" lon="11.5371038"><ele>628.5999999999999</ele><time>2026-04-26T12:32:34.196Z</time></trkpt><trkpt lat="42.8903383" lon="11.5371635"><ele>628.8</ele><time>2026-04-26T12:32:35.183Z</time></trkpt><trkpt lat="42.8904237" lon="11.5372211"><ele>629.0</ele><time>2026-04-26T12:32:36.209Z</time></trkpt><trkpt lat="42.8905108" lon="11.5372797"><ele>628.2</ele><time>2026-04-26T12:32:37.179Z</time></trkpt><trkpt lat="42.8906019" lon="11.5373426"><ele>627.4</ele><time>2026-04-26T12:32:38.179Z</time></trkpt><trkpt lat="42.890698" lon="11.5374089"><ele>626.6</ele><time>2026-04-26T12:32:39.194Z</time></trkpt><trkpt lat="42.8907971" lon="11.5374774"><ele>625.8</ele><time>2026-04-26T12:32:40.182Z</time></trkpt><trkpt lat="42.8908971" lon="11.5375481"><ele>625.0</ele><time>2026-04-26T12:32:41.195Z</time></trkpt><trkpt lat="42.8909961" lon="11.5376153"><ele>625.0</ele><time>2026-04-26T12:32:42.194Z</time></trkpt><trkpt lat="42.8910921" lon="11.5376812"><ele>625.0</ele><time>2026-04-26T12:32:43.185Z</time></trkpt><trkpt lat="42.8911892" lon="11.5377486"><ele>625.0</ele><time>2026-04-26T12:32:44.185Z</time></trkpt><trkpt lat="42.8912885" lon="11.537819"><ele>625.0</ele><time>2026-04-26T12:32:45.183Z</time></trkpt><trkpt lat="42.8913913" lon="11.5378908"><ele>625.0</ele><time>2026-04-26T12:32:46.188Z</time></trkpt><trkpt lat="42.8914949" lon="11.5379636"><ele>625.0</ele><time>2026-04-26T12:32:47.182Z</time></trkpt><trkpt lat="42.8915982" lon="11.5380359"><ele>625.0</ele><time>2026-04-26T12:32:48.191Z</time></trkpt><trkpt lat="42.8916996" lon="11.5381054"><ele>625.0</ele><time>2026-04-26T12:32:49.195Z</time></trkpt><trkpt lat="42.8917986" lon="11.5381715"><ele>625.0</ele><time>2026-04-26T12:32:50.191Z</time></trkpt><trkpt lat="42.8918939" lon="11.5382392"><ele>625.0</ele><time>2026-04-26T12:32:51.2Z</time></trkpt><trkpt lat="42.8919786" lon="11.538329"><ele>625.0</ele><time>2026-04-26T12:32:52.186Z</time></trkpt><trkpt lat="42.892038" lon="11.5384494"><ele>625.0</ele><time>2026-04-26T12:32:53.189Z</time></trkpt><trkpt lat="42.8920856" lon="11.538583"><ele>625.0</ele><time>2026-04-26T12:32:54.2Z</time></trkpt><trkpt lat="42.8921321" lon="11.5387243"><ele>625.0</ele><time>2026-04-26T12:32:55.194Z</time></trkpt><trkpt lat="42.8921683" lon="11.5388762"><ele>625.0</ele><time>2026-04-26T12:32:56.183Z</time></trkpt><trkpt lat="42.8921974" lon="11.5390334"><ele>624.25</ele><time>2026-04-26T12:32:57.195Z</time></trkpt><trkpt lat="42.8922263" lon="11.5391917"><ele>623.5</ele><time>2026-04-26T12:32:58.181Z</time></trkpt><trkpt lat="42.8922567" lon="11.5393498"><ele>622.75</ele><time>2026-04-26T12:32:59.196Z</time></trkpt><trkpt lat="42.8922884" lon="11.5395092"><ele>622.0</ele><time>2026-04-26T12:33:00.191Z</time></trkpt><trkpt lat="42.8923204" lon="11.5396701"><ele>621.5</ele><time>2026-04-26T12:33:01.194Z</time></trkpt><trkpt lat="42.8923507" lon="11.5398302"><ele>621.0</ele><time>2026-04-26T12:33:02.193Z</time></trkpt><trkpt lat="42.8923804" lon="11.5399887"><ele>620.5</ele><time>2026-04-26T12:33:03.195Z</time></trkpt><trkpt lat="42.8924113" lon="11.5401471"><ele>620.0</ele><time>2026-04-26T12:33:04.194Z</time></trkpt><trkpt lat="42.8924418" lon="11.5403062"><ele>619.25</ele><time>2026-04-26T12:33:05.186Z</time></trkpt><trkpt lat="42.8924707" lon="11.5404653"><ele>618.5</ele><time>2026-04-26T12:33:06.197Z</time></trkpt><trkpt lat="42.8924993" lon="11.5406242"><ele>617.75</ele><time>2026-04-26T12:33:07.185Z</time></trkpt><trkpt lat="42.8925284" lon="11.5407841"><ele>617.0</ele><time>2026-04-26T12:33:08.192Z</time></trkpt><trkpt lat="42.8925552" lon="11.540945"><ele>617.0</ele><time>2026-04-26T12:33:09.192Z</time></trkpt><trkpt lat="42.892582" lon="11.5411069"><ele>617.0</ele><time>2026-04-26T12:33:10.185Z</time></trkpt><trkpt lat="42.8926084" lon="11.5412692"><ele>617.0</ele><time>2026-04-26T12:33:11.191Z</time></trkpt><trkpt lat="42.8926352" lon="11.5414339"><ele>617.0</ele><time>2026-04-26T12:33:12.181Z</time></trkpt><trkpt lat="42.8926633" lon="11.5415991"><ele>617.0</ele><time>2026-04-26T12:33:13.199Z</time></trkpt><trkpt lat="42.8926904" lon="11.5417638"><ele>617.0</ele><time>2026-04-26T12:33:14.196Z</time></trkpt><trkpt lat="42.8927182" lon="11.5419268"><ele>617.0</ele><time>2026-04-26T12:33:15.206Z</time></trkpt><trkpt lat="42.8927463" lon="11.5420878"><ele>617.0</ele><time>2026-04-26T12:33:16.202Z</time></trkpt><trkpt lat="42.8927737" lon="11.5422456"><ele>616.25</ele><time>2026-04-26T12:33:17.199Z</time></trkpt><trkpt lat="42.8928008" lon="11.5424013"><ele>615.5</ele><time>2026-04-26T12:33:18.186Z</time></trkpt><trkpt lat="42.8928282" lon="11.542556"><ele>614.75</ele><time>2026-04-26T12:33:19.204Z</time></trkpt><trkpt lat="42.892856" lon="11.5427092"><ele>614.0</ele><time>2026-04-26T12:33:20.203Z</time></trkpt><trkpt lat="42.8928817" lon="11.5428623"><ele>613.5</ele><time>2026-04-26T12:33:21.184Z</time></trkpt><trkpt lat="42.8929078" lon="11.5430142"><ele>613.0</ele><time>2026-04-26T12:33:22.202Z</time></trkpt><trkpt lat="42.892933" lon="11.5431657"><ele>612.5</ele><time>2026-04-26T12:33:23.185Z</time></trkpt><trkpt lat="42.8929566" lon="11.5433161"><ele>612.0</ele><time>2026-04-26T12:33:24.183Z</time></trkpt><trkpt lat="42.8929785" lon="11.5434669"><ele>612.0</ele><time>2026-04-26T12:33:25.193Z</time></trkpt><trkpt lat="42.8930003" lon="11.5436173"><ele>612.0</ele><time>2026-04-26T12:33:26.192Z</time></trkpt><trkpt lat="42.8930253" lon="11.543767"><ele>612.0</ele><time>2026-04-26T12:33:27.198Z</time></trkpt><trkpt lat="42.8930529" lon="11.5439182"><ele>612.0</ele><time>2026-04-26T12:33:28.19Z</time></trkpt><trkpt lat="42.8930827" lon="11.5440713"><ele>610.75</ele><time>2026-04-26T12:33:29.192Z</time></trkpt><trkpt lat="42.8931115" lon="11.5442267"><ele>609.5</ele><time>2026-04-26T12:33:30.196Z</time></trkpt><trkpt lat="42.8931522" lon="11.5443896"><ele>608.25</ele><time>2026-04-26T12:33:31.186Z</time></trkpt><trkpt lat="42.893201" lon="11.5445615"><ele>607.0</ele><time>2026-04-26T12:33:32.202Z</time></trkpt><trkpt lat="42.8932509" lon="11.5447352"><ele>607.0</ele><time>2026-04-26T12:33:33.192Z</time></trkpt><trkpt lat="42.8933219" lon="11.5449161"><ele>607.0</ele><time>2026-04-26T12:33:34.202Z</time></trkpt><trkpt lat="42.8934079" lon="11.5450991"><ele>607.0</ele><time>2026-04-26T12:33:35.188Z</time></trkpt><trkpt lat="42.8935096" lon="11.5452828"><ele>608.6666666666667</ele><time>2026-04-26T12:33:36.186Z</time></trkpt><trkpt lat="42.8936193" lon="11.5454678"><ele>610.3333333333334</ele><time>2026-04-26T12:33:37.187Z</time></trkpt><trkpt lat="42.8937314" lon="11.5456596"><ele>612.0</ele><time>2026-04-26T12:33:38.205Z</time></trkpt><trkpt lat="42.8938416" lon="11.5458545"><ele>612.0</ele><time>2026-04-26T12:33:39.183Z</time></trkpt><trkpt lat="42.8939482" lon="11.5460481"><ele>612.0</ele><time>2026-04-26T12:33:40.191Z</time></trkpt><trkpt lat="42.8940468" lon="11.5462409"><ele>612.0</ele><time>2026-04-26T12:33:41.183Z</time></trkpt><trkpt lat="42.8941312" lon="11.5464332"><ele>610.75</ele><time>2026-04-26T12:33:42.196Z</time></trkpt><trkpt lat="42.894203" lon="11.5466163"><ele>609.5</ele><time>2026-04-26T12:33:43.196Z</time></trkpt><trkpt lat="42.8942692" lon="11.5467864"><ele>608.25</ele><time>2026-04-26T12:33:44.196Z</time></trkpt><trkpt lat="42.8943304" lon="11.546951"><ele>607.0</ele><time>2026-04-26T12:33:45.202Z</time></trkpt><trkpt lat="42.8943907" lon="11.5471187"><ele>609.75</ele><time>2026-04-26T12:33:46.195Z</time></trkpt><trkpt lat="42.8944508" lon="11.5472901"><ele>612.5</ele><time>2026-04-26T12:33:47.187Z</time></trkpt><trkpt lat="42.8945065" lon="11.5474664"><ele>615.25</ele><time>2026-04-26T12:33:48.198Z</time></trkpt><trkpt lat="42.8945546" lon="11.5476464"><ele>618.0</ele><time>2026-04-26T12:33:49.197Z</time></trkpt><trkpt lat="42.8945934" lon="11.5478331"><ele>620.75</ele><time>2026-04-26T12:33:50.195Z</time></trkpt><trkpt lat="42.894623" lon="11.5480269"><ele>623.5</ele><time>2026-04-26T12:33:51.202Z</time></trkpt><trkpt lat="42.8946486" lon="11.5482268"><ele>626.25</ele><time>2026-04-26T12:33:52.201Z</time></trkpt><trkpt lat="42.8946748" lon="11.5484315"><ele>629.0</ele><time>2026-04-26T12:33:53.192Z</time></trkpt><trkpt lat="42.8947044" lon="11.5486378"><ele>630.3333333333333</ele><time>2026-04-26T12:33:54.196Z</time></trkpt><trkpt lat="42.8947411" lon="11.5488447"><ele>631.6666666666666</ele><time>2026-04-26T12:33:55.2Z</time></trkpt><trkpt lat="42.8947902" lon="11.5490513"><ele>633.0</ele><time>2026-04-26T12:33:56.187Z</time></trkpt><trkpt lat="42.8948506" lon="11.5492589"><ele>633.0</ele><time>2026-04-26T12:33:57.2Z</time></trkpt><trkpt lat="42.8949229" lon="11.549467"><ele>633.0</ele><time>2026-04-26T12:33:58.186Z</time></trkpt><trkpt lat="42.8950018" lon="11.5496761"><ele>633.0</ele><time>2026-04-26T12:33:59.195Z</time></trkpt><trkpt lat="42.8950819" lon="11.5498837"><ele>635.0</ele><time>2026-04-26T12:34:00.192Z</time></trkpt><trkpt lat="42.8951635" lon="11.5500783"><ele>637.0</ele><time>2026-04-26T12:34:01.194Z</time></trkpt><trkpt lat="42.8952412" lon="11.5502809"><ele>639.0</ele><time>2026-04-26T12:34:02.184Z</time></trkpt><trkpt lat="42.8953204" lon="11.5504817"><ele>639.0</ele><time>2026-04-26T12:34:03.197Z</time></trkpt><trkpt lat="42.8953978" lon="11.5506815"><ele>639.0</ele><time>2026-04-26T12:34:04.192Z</time></trkpt><trkpt lat="42.8954755" lon="11.5508823"><ele>639.0</ele><time>2026-04-26T12:34:05.195Z</time></trkpt><trkpt lat="42.895553" lon="11.5510854"><ele>641.3333333333334</ele><time>2026-04-26T12:34:06.188Z</time></trkpt><trkpt lat="42.8956307" lon="11.5512886"><ele>643.6666666666667</ele><time>2026-04-26T12:34:07.198Z</time></trkpt><trkpt lat="42.8957054" lon="11.5514938"><ele>646.0</ele><time>2026-04-26T12:34:08.196Z</time></trkpt><trkpt lat="42.8957696" lon="11.5517058"><ele>646.0</ele><time>2026-04-26T12:34:09.193Z</time></trkpt><trkpt lat="42.89581" lon="11.5519271"><ele>646.0</ele><time>2026-04-26T12:34:10.197Z</time></trkpt><trkpt lat="42.8958295" lon="11.5521451"><ele>646.0</ele><time>2026-04-26T12:34:11.18Z</time></trkpt><trkpt lat="42.8958538" lon="11.5523588"><ele>646.6666666666667</ele><time>2026-04-26T12:34:12.191Z</time></trkpt><trkpt lat="42.8958991" lon="11.5525671"><ele>647.3333333333334</ele><time>2026-04-26T12:34:13.197Z</time></trkpt><trkpt lat="42.8959649" lon="11.5527642"><ele>648.0</ele><time>2026-04-26T12:34:14.208Z</time></trkpt><trkpt lat="42.8960514" lon="11.5529298"><ele>645.3333333333334</ele><time>2026-04-26T12:34:15.19Z</time></trkpt><trkpt lat="42.8961678" lon="11.5530531"><ele>642.6666666666667</ele><time>2026-04-26T12:34:16.19Z</time></trkpt><trkpt lat="42.8963114" lon="11.5531273"><ele>640.0</ele><time>2026-04-26T12:34:17.2Z</time></trkpt><trkpt lat="42.8964687" lon="11.5531924"><ele>640.0</ele><time>2026-04-26T12:34:18.182Z</time></trkpt><trkpt lat="42.8966314" lon="11.5532635"><ele>640.0</ele><time>2026-04-26T12:34:19.197Z</time></trkpt><trkpt lat="42.8967663" lon="11.5534104"><ele>640.0</ele><time>2026-04-26T12:34:20.196Z</time></trkpt><trkpt lat="42.8969034" lon="11.5535571"><ele>640.6666666666667</ele><time>2026-04-26T12:34:21.191Z</time></trkpt><trkpt lat="42.8970584" lon="11.5536549"><ele>641.3333333333334</ele><time>2026-04-26T12:34:22.192Z</time></trkpt><trkpt lat="42.8972347" lon="11.5537051"><ele>642.0</ele><time>2026-04-26T12:34:23.182Z</time></trkpt><trkpt lat="42.8974117" lon="11.5537512"><ele>637.0</ele><time>2026-04-26T12:34:24.208Z</time></trkpt><trkpt lat="42.8975897" lon="11.5537847"><ele>632.0</ele><time>2026-04-26T12:34:25.188Z</time></trkpt><trkpt lat="42.8977451" lon="11.5538563"><ele>627.0</ele><time>2026-04-26T12:34:26.183Z</time></trkpt><trkpt lat="42.8978932" lon="11.5539349"><ele>627.0</ele><time>2026-04-26T12:34:27.197Z</time></trkpt><trkpt lat="42.8980075" lon="11.5540909"><ele>627.0</ele><time>2026-04-26T12:34:28.202Z</time></trkpt><trkpt lat="42.8980769" lon="11.5543008"><ele>627.0</ele><time>2026-04-26T12:34:29.19Z</time></trkpt><trkpt lat="42.898136" lon="11.554513"><ele>629.3333333333334</ele><time>2026-04-26T12:34:30.201Z</time></trkpt><trkpt lat="42.8981733" lon="11.554729"><ele>631.6666666666667</ele><time>2026-04-26T12:34:31.195Z</time></trkpt><trkpt lat="42.8982299" lon="11.5549168"><ele>634.0</ele><time>2026-04-26T12:34:32.187Z</time></trkpt><trkpt lat="42.8983267" lon="11.555065"><ele>631.0</ele><time>2026-04-26T12:34:33.198Z</time></trkpt><trkpt lat="42.8984566" lon="11.5551663"><ele>628.0</ele><time>2026-04-26T12:34:34.198Z</time></trkpt><trkpt lat="42.8985999" lon="11.5552596"><ele>625.0</ele><time>2026-04-26T12:34:35.198Z</time></trkpt><trkpt lat="42.8987382" lon="11.5553805"><ele>625.0</ele><time>2026-04-26T12:34:36.196Z</time></trkpt><trkpt lat="42.8988661" lon="11.5555354"><ele>625.0</ele><time>2026-04-26T12:34:37.208Z</time></trkpt><trkpt lat="42.8989891" lon="11.5557034"><ele>625.0</ele><time>2026-04-26T12:34:38.2Z</time></trkpt><trkpt lat="42.8991099" lon="11.5558707"><ele>625.0</ele><time>2026-04-26T12:34:39.194Z</time></trkpt><trkpt lat="42.8992314" lon="11.5560401"><ele>625.0</ele><time>2026-04-26T12:34:40.189Z</time></trkpt><trkpt lat="42.8993519" lon="11.5562022"><ele>625.0</ele><time>2026-04-26T12:34:41.184Z</time></trkpt><trkpt lat="42.8994668" lon="11.5563571"><ele>622.6666666666667</ele><time>2026-04-26T12:34:42.202Z</time></trkpt><trkpt lat="42.8995875" lon="11.5565009"><ele>620.3333333333334</ele><time>2026-04-26T12:34:43.195Z</time></trkpt><trkpt lat="42.8997153" lon="11.5566217"><ele>618.0</ele><time>2026-04-26T12:34:44.187Z</time></trkpt><trkpt lat="42.8998499" lon="11.5567228"><ele>618.0</ele><time>2026-04-26T12:34:45.181Z</time></trkpt><trkpt lat="42.8999913" lon="11.5568082"><ele>618.0</ele><time>2026-04-26T12:34:46.201Z</time></trkpt><trkpt lat="42.9001347" lon="11.5568886"><ele>618.0</ele><time>2026-04-26T12:34:47.191Z</time></trkpt><trkpt lat="42.9002801" lon="11.5569673"><ele>620.6666666666666</ele><time>2026-04-26T12:34:48.193Z</time></trkpt><trkpt lat="42.9004273" lon="11.5570448"><ele>623.3333333333333</ele><time>2026-04-26T12:34:49.198Z</time></trkpt><trkpt lat="42.9005765" lon="11.5571084"><ele>626.0</ele><time>2026-04-26T12:34:50.201Z</time></trkpt><trkpt lat="42.9007298" lon="11.5571409"><ele>626.0</ele><time>2026-04-26T12:34:51.199Z</time></trkpt><trkpt lat="42.9008861" lon="11.5571249"><ele>626.0</ele><time>2026-04-26T12:34:52.204Z</time></trkpt><trkpt lat="42.9010355" lon="11.5570601"><ele>626.0</ele><time>2026-04-26T12:34:53.185Z</time></trkpt><trkpt lat="42.901175" lon="11.5569527"><ele>624.6666666666666</ele><time>2026-04-26T12:34:54.186Z</time></trkpt><trkpt lat="42.9013056" lon="11.5568258"><ele>623.3333333333334</ele><time>2026-04-26T12:34:55.196Z</time></trkpt><trkpt lat="42.901432" lon="11.5567001"><ele>622.0</ele><time>2026-04-26T12:34:56.195Z</time></trkpt><trkpt lat="42.9015512" lon="11.5565853"><ele>622.0</ele><time>2026-04-26T12:34:57.195Z</time></trkpt><trkpt lat="42.9016611" lon="11.5564803"><ele>622.0</ele><time>2026-04-26T12:34:58.189Z</time></trkpt><trkpt lat="42.9017605" lon="11.556383"><ele>622.0</ele><time>2026-04-26T12:34:59.192Z</time></trkpt><trkpt lat="42.9018523" lon="11.5562944"><ele>622.0</ele><time>2026-04-26T12:35:00.187Z</time></trkpt><trkpt lat="42.9019404" lon="11.5562131"><ele>622.4</ele><time>2026-04-26T12:35:01.199Z</time></trkpt><trkpt lat="42.9020221" lon="11.5561365"><ele>622.8000000000001</ele><time>2026-04-26T12:35:02.189Z</time></trkpt><trkpt lat="42.9021047" lon="11.5560615"><ele>623.2</ele><time>2026-04-26T12:35:03.184Z</time></trkpt><trkpt lat="42.9021897" lon="11.5559926"><ele>623.6</ele><time>2026-04-26T12:35:04.2Z</time></trkpt><trkpt lat="42.9022792" lon="11.5559352"><ele>624.0</ele><time>2026-04-26T12:35:05.194Z</time></trkpt><trkpt lat="42.9023775" lon="11.5558912"><ele>624.0</ele><time>2026-04-26T12:35:06.194Z</time></trkpt><trkpt lat="42.9024864" lon="11.5558613"><ele>624.0</ele><time>2026-04-26T12:35:07.198Z</time></trkpt><trkpt lat="42.9026028" lon="11.5558455"><ele>624.0</ele><time>2026-04-26T12:35:08.199Z</time></trkpt><trkpt lat="42.9027239" lon="11.55584"><ele>624.0</ele><time>2026-04-26T12:35:09.198Z</time></trkpt><trkpt lat="42.9028485" lon="11.555842"><ele>628.25</ele><time>2026-04-26T12:35:10.18Z</time></trkpt><trkpt lat="42.9029747" lon="11.5558482"><ele>632.5</ele><time>2026-04-26T12:35:11.196Z</time></trkpt><trkpt lat="42.9030996" lon="11.5558556"><ele>636.75</ele><time>2026-04-26T12:35:12.184Z</time></trkpt><trkpt lat="42.9032243" lon="11.5558618"><ele>641.0</ele><time>2026-04-26T12:35:13.188Z</time></trkpt><trkpt lat="42.9033469" lon="11.5558666"><ele>641.0</ele><time>2026-04-26T12:35:14.185Z</time></trkpt><trkpt lat="42.9034676" lon="11.5558694"><ele>641.0</ele><time>2026-04-26T12:35:15.18Z</time></trkpt><trkpt lat="42.9035869" lon="11.5558685"><ele>641.0</ele><time>2026-04-26T12:35:16.186Z</time></trkpt><trkpt lat="42.9036943" lon="11.5558683"><ele>641.0</ele><time>2026-04-26T12:35:17.189Z</time></trkpt><trkpt lat="42.9037865" lon="11.5558801"><ele>641.0</ele><time>2026-04-26T12:35:18.193Z</time></trkpt><trkpt lat="42.9038614" lon="11.5558976"><ele>641.0</ele><time>2026-04-26T12:35:19.195Z</time></trkpt><trkpt lat="42.9038889" lon="11.5559905"><ele>641.0</ele><time>2026-04-26T12:35:20.189Z</time></trkpt><trkpt lat="42.9038743" lon="11.5560882"><ele>641.0</ele><time>2026-04-26T12:35:21.184Z</time></trkpt><trkpt lat="42.9037733" lon="11.5561889"><ele>641.0</ele><time>2026-04-26T12:35:23.195Z</time></trkpt><trkpt lat="42.9037115" lon="11.5562311"><ele>641.0</ele><time>2026-04-26T12:35:24.197Z</time></trkpt><trkpt lat="42.9036983" lon="11.5563378"><ele>641.0</ele><time>2026-04-26T12:35:25.193Z</time></trkpt><trkpt lat="42.9037363" lon="11.5564513"><ele>643.25</ele><time>2026-04-26T12:35:26.176Z</time></trkpt><trkpt lat="42.9038088" lon="11.5565606"><ele>645.5</ele><time>2026-04-26T12:35:27.196Z</time></trkpt><trkpt lat="42.9038976" lon="11.5566771"><ele>647.75</ele><time>2026-04-26T12:35:28.192Z</time></trkpt><trkpt lat="42.9039962" lon="11.5568045"><ele>650.0</ele><time>2026-04-26T12:35:29.2Z</time></trkpt><trkpt lat="42.9040903" lon="11.556944"><ele>650.5</ele><time>2026-04-26T12:35:30.193Z</time></trkpt><trkpt lat="42.9041883" lon="11.5570854"><ele>651.0</ele><time>2026-04-26T12:35:31.184Z</time></trkpt><trkpt lat="42.9042935" lon="11.5572273"><ele>651.5</ele><time>2026-04-26T12:35:32.185Z</time></trkpt><trkpt lat="42.9043992" lon="11.5573756"><ele>652.0</ele><time>2026-04-26T12:35:33.183Z</time></trkpt><trkpt lat="42.9044974" lon="11.5575264"><ele>652.0</ele><time>2026-04-26T12:35:34.2Z</time></trkpt><trkpt lat="42.9045811" lon="11.5576782"><ele>652.0</ele><time>2026-04-26T12:35:35.191Z</time></trkpt><trkpt lat="42.9046449" lon="11.5578373"><ele>652.0</ele><time>2026-04-26T12:35:36.183Z</time></trkpt><trkpt lat="42.9046912" lon="11.5579996"><ele>652.0</ele><time>2026-04-26T12:35:37.201Z</time></trkpt><trkpt lat="42.904716" lon="11.5581626"><ele>654.25</ele><time>2026-04-26T12:35:38.192Z</time></trkpt><trkpt lat="42.9047044" lon="11.5583151"><ele>656.5</ele><time>2026-04-26T12:35:39.194Z</time></trkpt><trkpt lat="42.9046497" lon="11.5584517"><ele>658.75</ele><time>2026-04-26T12:35:40.187Z</time></trkpt><trkpt lat="42.9045584" lon="11.5585752"><ele>661.0</ele><time>2026-04-26T12:35:41.182Z</time></trkpt><trkpt lat="42.9044483" lon="11.5587016"><ele>661.6666666666667</ele><time>2026-04-26T12:35:42.174Z</time></trkpt><trkpt lat="42.9043322" lon="11.5588405"><ele>662.3333333333334</ele><time>2026-04-26T12:35:43.196Z</time></trkpt><trkpt lat="42.9042142" lon="11.5589846"><ele>663.0</ele><time>2026-04-26T12:35:44.191Z</time></trkpt><trkpt lat="42.9040916" lon="11.5591303"><ele>665.6666666666666</ele><time>2026-04-26T12:35:45.178Z</time></trkpt><trkpt lat="42.9039708" lon="11.5592725"><ele>668.3333333333333</ele><time>2026-04-26T12:35:46.194Z</time></trkpt><trkpt lat="42.9038475" lon="11.5594168"><ele>671.0</ele><time>2026-04-26T12:35:47.198Z</time></trkpt><trkpt lat="42.9037224" lon="11.559562"><ele>672.0</ele><time>2026-04-26T12:35:48.193Z</time></trkpt><trkpt lat="42.9035995" lon="11.5597041"><ele>673.0</ele><time>2026-04-26T12:35:49.198Z</time></trkpt><trkpt lat="42.9034824" lon="11.5598402"><ele>674.0</ele><time>2026-04-26T12:35:50.198Z</time></trkpt><trkpt lat="42.9033729" lon="11.5599675"><ele>675.4000000000001</ele><time>2026-04-26T12:35:51.179Z</time></trkpt><trkpt lat="42.9032804" lon="11.5600845"><ele>676.8</ele><time>2026-04-26T12:35:52.196Z</time></trkpt><trkpt lat="42.9032186" lon="11.5602074"><ele>678.2</ele><time>2026-04-26T12:35:53.199Z</time></trkpt><trkpt lat="42.9031986" lon="11.5603445"><ele>679.5999999999999</ele><time>2026-04-26T12:35:54.18Z</time></trkpt><trkpt lat="42.9032242" lon="11.560486"><ele>681.0</ele><time>2026-04-26T12:35:55.199Z</time></trkpt><trkpt lat="42.903289" lon="11.5606245"><ele>681.5</ele><time>2026-04-26T12:35:56.193Z</time></trkpt><trkpt lat="42.9033723" lon="11.5607714"><ele>682.0</ele><time>2026-04-26T12:35:57.192Z</time></trkpt><trkpt lat="42.9034575" lon="11.5609351"><ele>682.5</ele><time>2026-04-26T12:35:58.18Z</time></trkpt><trkpt lat="42.9035416" lon="11.5611104"><ele>683.0</ele><time>2026-04-26T12:35:59.192Z</time></trkpt><trkpt lat="42.9036253" lon="11.5612815"><ele>684.2</ele><time>2026-04-26T12:36:00.198Z</time></trkpt><trkpt lat="42.9037028" lon="11.5614385"><ele>685.4</ele><time>2026-04-26T12:36:01.197Z</time></trkpt><trkpt lat="42.9037615" lon="11.5615827"><ele>686.6</ele><time>2026-04-26T12:36:02.194Z</time></trkpt><trkpt lat="42.9037892" lon="11.5617092"><ele>687.8000000000001</ele><time>2026-04-26T12:36:03.198Z</time></trkpt><trkpt lat="42.9037818" lon="11.5618146"><ele>689.0</ele><time>2026-04-26T12:36:04.191Z</time></trkpt><trkpt lat="42.9037385" lon="11.5618938"><ele>689.0</ele><time>2026-04-26T12:36:05.183Z</time></trkpt><trkpt lat="42.9036649" lon="11.5619364"><ele>689.0</ele><time>2026-04-26T12:36:06.193Z</time></trkpt><trkpt lat="42.9035718" lon="11.5619405"><ele>689.0</ele><time>2026-04-26T12:36:07.18Z</time></trkpt><trkpt lat="42.9034608" lon="11.5619263"><ele>689.0</ele><time>2026-04-26T12:36:08.191Z</time></trkpt><trkpt lat="42.9033376" lon="11.5619076"><ele>689.0</ele><time>2026-04-26T12:36:09.185Z</time></trkpt><trkpt lat="42.9032086" lon="11.5618912"><ele>692.4000000000001</ele><time>2026-04-26T12:36:10.18Z</time></trkpt><trkpt lat="42.9030818" lon="11.5618769"><ele>695.8</ele><time>2026-04-26T12:36:11.168Z</time></trkpt><trkpt lat="42.9029706" lon="11.5618652"><ele>699.2</ele><time>2026-04-26T12:36:12.198Z</time></trkpt><trkpt lat="42.9028774" lon="11.5618693"><ele>702.5999999999999</ele><time>2026-04-26T12:36:13.189Z</time></trkpt><trkpt lat="42.9027933" lon="11.561881"><ele>706.0</ele><time>2026-04-26T12:36:14.196Z</time></trkpt><trkpt lat="42.9027533" lon="11.5619713"><ele>706.4</ele><time>2026-04-26T12:36:15.193Z</time></trkpt><trkpt lat="42.9027636" lon="11.5620841"><ele>706.8</ele><time>2026-04-26T12:36:16.196Z</time></trkpt><trkpt lat="42.9028165" lon="11.5621972"><ele>707.1999999999999</ele><time>2026-04-26T12:36:17.183Z</time></trkpt><trkpt lat="42.902871" lon="11.5623173"><ele>707.5999999999999</ele><time>2026-04-26T12:36:18.178Z</time></trkpt><trkpt lat="42.9028843" lon="11.5624435"><ele>708.0</ele><time>2026-04-26T12:36:19.188Z</time></trkpt><trkpt lat="42.9028547" lon="11.5625531"><ele>708.0</ele><time>2026-04-26T12:36:20.196Z</time></trkpt><trkpt lat="42.9028232" lon="11.5626493"><ele>708.0</ele><time>2026-04-26T12:36:21.18Z</time></trkpt><trkpt lat="42.9027412" lon="11.5626733"><ele>708.0</ele><time>2026-04-26T12:36:22.181Z</time></trkpt><trkpt lat="42.9026389" lon="11.5626307"><ele>708.0</ele><time>2026-04-26T12:36:23.187Z</time></trkpt><trkpt lat="42.9025295" lon="11.5625873"><ele>708.0</ele><time>2026-04-26T12:36:24.184Z</time></trkpt><trkpt lat="42.9024271" lon="11.5625516"><ele>710.0</ele><time>2026-04-26T12:36:25.196Z</time></trkpt><trkpt lat="42.9023463" lon="11.5625333"><ele>712.0</ele><time>2026-04-26T12:36:26.194Z</time></trkpt><trkpt lat="42.9022829" lon="11.5625258"><ele>714.0</ele><time>2026-04-26T12:36:27.188Z</time></trkpt><trkpt lat="42.9022518" lon="11.5626084"><ele>716.0</ele><time>2026-04-26T12:36:28.187Z</time></trkpt><trkpt lat="42.9022639" lon="11.5627193"><ele>718.0</ele><time>2026-04-26T12:36:29.192Z</time></trkpt><trkpt lat="42.9022814" lon="11.5628471"><ele>720.0</ele><time>2026-04-26T12:36:30.19Z</time></trkpt><trkpt lat="42.9023388" lon="11.5630035"><ele>718.6666666666666</ele><time>2026-04-26T12:36:31.191Z</time></trkpt><trkpt lat="42.9024109" lon="11.5631566"><ele>717.3333333333333</ele><time>2026-04-26T12:36:32.178Z</time></trkpt><trkpt lat="42.9024916" lon="11.5633367"><ele>716.0</ele><time>2026-04-26T12:36:33.189Z</time></trkpt><trkpt lat="42.9025827" lon="11.5635461"><ele>720.0</ele><time>2026-04-26T12:36:34.187Z</time></trkpt><trkpt lat="42.9026863" lon="11.5637808"><ele>724.0</ele><time>2026-04-26T12:36:35.195Z</time></trkpt><trkpt lat="42.9027938" lon="11.5640343"><ele>728.0</ele><time>2026-04-26T12:36:36.193Z</time></trkpt><trkpt lat="42.9029011" lon="11.5642954"><ele>731.6666666666666</ele><time>2026-04-26T12:36:37.171Z</time></trkpt><trkpt lat="42.9030069" lon="11.5645552"><ele>735.3333333333334</ele><time>2026-04-26T12:36:38.189Z</time></trkpt><trkpt lat="42.9031137" lon="11.5648103"><ele>739.0</ele><time>2026-04-26T12:36:39.192Z</time></trkpt><trkpt lat="42.9032208" lon="11.5650551"><ele>739.0</ele><time>2026-04-26T12:36:40.2Z</time></trkpt><trkpt lat="42.9033251" lon="11.5652889"><ele>739.0</ele><time>2026-04-26T12:36:41.182Z</time></trkpt><trkpt lat="42.9034234" lon="11.5655114"><ele>739.0</ele><time>2026-04-26T12:36:42.19Z</time></trkpt><trkpt lat="42.9035184" lon="11.5657233"><ele>740.0</ele><time>2026-04-26T12:36:43.193Z</time></trkpt><trkpt lat="42.9036109" lon="11.5659258"><ele>741.0</ele><time>2026-04-26T12:36:44.189Z</time></trkpt><trkpt lat="42.9037021" lon="11.5661208"><ele>742.0</ele><time>2026-04-26T12:36:45.179Z</time></trkpt><trkpt lat="42.9037897" lon="11.5663111"><ele>743.3333333333334</ele><time>2026-04-26T12:36:46.198Z</time></trkpt><trkpt lat="42.9038716" lon="11.5664965"><ele>744.6666666666666</ele><time>2026-04-26T12:36:47.185Z</time></trkpt><trkpt lat="42.9039484" lon="11.5666857"><ele>746.0</ele><time>2026-04-26T12:36:48.191Z</time></trkpt><trkpt lat="42.9040107" lon="11.5668859"><ele>746.3333333333333</ele><time>2026-04-26T12:36:49.184Z</time></trkpt><trkpt lat="42.9040541" lon="11.5671027"><ele>746.6666666666666</ele><time>2026-04-26T12:36:50.186Z</time></trkpt><trkpt lat="42.9040774" lon="11.5673331"><ele>747.0</ele><time>2026-04-26T12:36:51.175Z</time></trkpt><trkpt lat="42.9040908" lon="11.5675673"><ele>747.0</ele><time>2026-04-26T12:36:52.193Z</time></trkpt><trkpt lat="42.904104" lon="11.5677989"><ele>747.0</ele><time>2026-04-26T12:36:53.203Z</time></trkpt><trkpt lat="42.9041179" lon="11.5680207"><ele>747.0</ele><time>2026-04-26T12:36:54.18Z</time></trkpt><trkpt lat="42.9041252" lon="11.5682265"><ele>747.25</ele><time>2026-04-26T12:36:55.197Z</time></trkpt><trkpt lat="42.9041073" lon="11.5684244"><ele>747.5</ele><time>2026-04-26T12:36:56.195Z</time></trkpt><trkpt lat="42.9040752" lon="11.5686076"><ele>747.75</ele><time>2026-04-26T12:36:57.181Z</time></trkpt><trkpt lat="42.9039919" lon="11.5687763"><ele>748.0</ele><time>2026-04-26T12:36:58.19Z</time></trkpt><trkpt lat="42.903901" lon="11.5689526"><ele>746.3333333333334</ele><time>2026-04-26T12:36:59.18Z</time></trkpt><trkpt lat="42.9038081" lon="11.569129"><ele>744.6666666666666</ele><time>2026-04-26T12:37:00.174Z</time></trkpt><trkpt lat="42.9037132" lon="11.5693121"><ele>743.0</ele><time>2026-04-26T12:37:01.186Z</time></trkpt><trkpt lat="42.9036191" lon="11.5694923"><ele>741.3333333333333</ele><time>2026-04-26T12:37:02.184Z</time></trkpt><trkpt lat="42.9035244" lon="11.5696678"><ele>739.6666666666666</ele><time>2026-04-26T12:37:03.178Z</time></trkpt><trkpt lat="42.903434" lon="11.569835"><ele>738.0</ele><time>2026-04-26T12:37:04.192Z</time></trkpt><trkpt lat="42.9033486" lon="11.5699983"><ele>743.5</ele><time>2026-04-26T12:37:05.196Z</time></trkpt><trkpt lat="42.9032838" lon="11.5701671"><ele>749.0</ele><time>2026-04-26T12:37:06.182Z</time></trkpt><trkpt lat="42.903259" lon="11.5703497"><ele>754.5</ele><time>2026-04-26T12:37:07.193Z</time></trkpt><trkpt lat="42.9032818" lon="11.5705451"><ele>760.0</ele><time>2026-04-26T12:37:08.192Z</time></trkpt><trkpt lat="42.9033339" lon="11.5707438"><ele>761.3333333333334</ele><time>2026-04-26T12:37:09.196Z</time></trkpt><trkpt lat="42.9033914" lon="11.5709538"><ele>762.6666666666666</ele><time>2026-04-26T12:37:10.186Z</time></trkpt><trkpt lat="42.9034456" lon="11.5711719"><ele>764.0</ele><time>2026-04-26T12:37:11.184Z</time></trkpt><trkpt lat="42.903499" lon="11.5713952"><ele>760.0</ele><time>2026-04-26T12:37:12.185Z</time></trkpt><trkpt lat="42.9035545" lon="11.5716184"><ele>756.0</ele><time>2026-04-26T12:37:13.191Z</time></trkpt><trkpt lat="42.9036062" lon="11.5718415"><ele>752.0</ele><time>2026-04-26T12:37:14.199Z</time></trkpt><trkpt lat="42.9036564" lon="11.5720631"><ele>752.0</ele><time>2026-04-26T12:37:15.189Z</time></trkpt><trkpt lat="42.9037045" lon="11.5722801"><ele>752.0</ele><time>2026-04-26T12:37:16.2Z</time></trkpt><trkpt lat="42.9037423" lon="11.5724953"><ele>752.0</ele><time>2026-04-26T12:37:17.186Z</time></trkpt><trkpt lat="42.903759" lon="11.572716"><ele>751.0</ele><time>2026-04-26T12:37:18.182Z</time></trkpt><trkpt lat="42.9037588" lon="11.5729446"><ele>750.0</ele><time>2026-04-26T12:37:19.199Z</time></trkpt><trkpt lat="42.9037529" lon="11.5731778"><ele>749.0</ele><time>2026-04-26T12:37:20.185Z</time></trkpt><trkpt lat="42.903747" lon="11.5734181"><ele>749.0</ele><time>2026-04-26T12:37:21.179Z</time></trkpt><trkpt lat="42.9037389" lon="11.5736615"><ele>749.0</ele><time>2026-04-26T12:37:22.178Z</time></trkpt><trkpt lat="42.9037213" lon="11.5739023"><ele>749.0</ele><time>2026-04-26T12:37:23.193Z</time></trkpt><trkpt lat="42.9036913" lon="11.574138"><ele>748.0</ele><time>2026-04-26T12:37:24.192Z</time></trkpt><trkpt lat="42.9036529" lon="11.5743703"><ele>747.0</ele><time>2026-04-26T12:37:25.172Z</time></trkpt><trkpt lat="42.9036084" lon="11.5745985"><ele>746.0</ele><time>2026-04-26T12:37:26.195Z</time></trkpt><trkpt lat="42.9035575" lon="11.5748242"><ele>745.6666666666666</ele><time>2026-04-26T12:37:27.193Z</time></trkpt><trkpt lat="42.9035011" lon="11.5750467"><ele>745.3333333333334</ele><time>2026-04-26T12:37:28.198Z</time></trkpt><trkpt lat="42.9034442" lon="11.5752672"><ele>745.0</ele><time>2026-04-26T12:37:29.198Z</time></trkpt><trkpt lat="42.9033868" lon="11.5754773"><ele>750.0</ele><time>2026-04-26T12:37:30.191Z</time></trkpt><trkpt lat="42.9033363" lon="11.5756773"><ele>755.0</ele><time>2026-04-26T12:37:31.196Z</time></trkpt><trkpt lat="42.9033041" lon="11.575866"><ele>760.0</ele><time>2026-04-26T12:37:32.184Z</time></trkpt><trkpt lat="42.903311" lon="11.5760488"><ele>765.0</ele><time>2026-04-26T12:37:33.181Z</time></trkpt><trkpt lat="42.9033635" lon="11.5762227"><ele>759.6666666666666</ele><time>2026-04-26T12:37:34.179Z</time></trkpt><trkpt lat="42.9034624" lon="11.5763717"><ele>754.3333333333333</ele><time>2026-04-26T12:37:35.179Z</time></trkpt><trkpt lat="42.9035949" lon="11.5764989"><ele>749.0</ele><time>2026-04-26T12:37:36.201Z</time></trkpt><trkpt lat="42.9037356" lon="11.5766117"><ele>749.0</ele><time>2026-04-26T12:37:37.191Z</time></trkpt><trkpt lat="42.9038671" lon="11.5767258"><ele>749.0</ele><time>2026-04-26T12:37:38.192Z</time></trkpt><trkpt lat="42.9039815" lon="11.5768747"><ele>749.0</ele><time>2026-04-26T12:37:39.193Z</time></trkpt><trkpt lat="42.9040736" lon="11.5770574"><ele>750.0</ele><time>2026-04-26T12:37:40.177Z</time></trkpt><trkpt lat="42.9041339" lon="11.5772668"><ele>751.0</ele><time>2026-04-26T12:37:41.19Z</time></trkpt><trkpt lat="42.9041547" lon="11.5774926"><ele>752.0</ele><time>2026-04-26T12:37:42.199Z</time></trkpt><trkpt lat="42.9041695" lon="11.5777151"><ele>751.0</ele><time>2026-04-26T12:37:43.195Z</time></trkpt><trkpt lat="42.9041545" lon="11.5779339"><ele>750.0</ele><time>2026-04-26T12:37:44.2Z</time></trkpt><trkpt lat="42.9041859" lon="11.5781332"><ele>749.0</ele><time>2026-04-26T12:37:45.193Z</time></trkpt><trkpt lat="42.9042258" lon="11.5783243"><ele>746.6666666666666</ele><time>2026-04-26T12:37:46.196Z</time></trkpt><trkpt lat="42.9043426" lon="11.5784794"><ele>744.3333333333334</ele><time>2026-04-26T12:37:47.192Z</time></trkpt><trkpt lat="42.9044842" lon="11.5785907"><ele>742.0</ele><time>2026-04-26T12:37:48.188Z</time></trkpt><trkpt lat="42.9046445" lon="11.5786806"><ele>744.6666666666667</ele><time>2026-04-26T12:37:49.198Z</time></trkpt><trkpt lat="42.9048033" lon="11.5787784"><ele>747.3333333333334</ele><time>2026-04-26T12:37:50.19Z</time></trkpt><trkpt lat="42.9049595" lon="11.578869"><ele>750.0</ele><time>2026-04-26T12:37:51.19Z</time></trkpt><trkpt lat="42.9051004" lon="11.578957"><ele>750.0</ele><time>2026-04-26T12:37:52.196Z</time></trkpt><trkpt lat="42.9052244" lon="11.5790476"><ele>750.0</ele><time>2026-04-26T12:37:53.187Z</time></trkpt><trkpt lat="42.9053211" lon="11.5791612"><ele>750.0</ele><time>2026-04-26T12:37:54.195Z</time></trkpt><trkpt lat="42.9054124" lon="11.5792833"><ele>750.0</ele><time>2026-04-26T12:37:55.195Z</time></trkpt><trkpt lat="42.905448" lon="11.5794701"><ele>752.0</ele><time>2026-04-26T12:37:56.186Z</time></trkpt><trkpt lat="42.90548" lon="11.5796697"><ele>754.0</ele><time>2026-04-26T12:37:57.199Z</time></trkpt><trkpt lat="42.9054906" lon="11.5798841"><ele>756.0</ele><time>2026-04-26T12:37:58.185Z</time></trkpt><trkpt lat="42.9055075" lon="11.5801078"><ele>756.0</ele><time>2026-04-26T12:37:59.19Z</time></trkpt><trkpt lat="42.9055279" lon="11.5803471"><ele>756.0</ele><time>2026-04-26T12:38:00.195Z</time></trkpt><trkpt lat="42.9055472" lon="11.5805876"><ele>756.0</ele><time>2026-04-26T12:38:01.18Z</time></trkpt><trkpt lat="42.9055674" lon="11.5808252"><ele>755.6666666666666</ele><time>2026-04-26T12:38:02.192Z</time></trkpt><trkpt lat="42.9055867" lon="11.5810621"><ele>755.3333333333333</ele><time>2026-04-26T12:38:03.198Z</time></trkpt><trkpt lat="42.9056116" lon="11.5812952"><ele>755.0</ele><time>2026-04-26T12:38:04.185Z</time></trkpt><trkpt lat="42.9056507" lon="11.5815214"><ele>755.0</ele><time>2026-04-26T12:38:05.183Z</time></trkpt><trkpt lat="42.9057115" lon="11.5817481"><ele>755.0</ele><time>2026-04-26T12:38:06.209Z</time></trkpt><trkpt lat="42.9057727" lon="11.5819728"><ele>755.0</ele><time>2026-04-26T12:38:07.187Z</time></trkpt><trkpt lat="42.9058643" lon="11.582201"><ele>754.6666666666666</ele><time>2026-04-26T12:38:08.182Z</time></trkpt><trkpt lat="42.9059586" lon="11.5824236"><ele>754.3333333333334</ele><time>2026-04-26T12:38:09.189Z</time></trkpt><trkpt lat="42.9060507" lon="11.5826421"><ele>754.0</ele><time>2026-04-26T12:38:10.184Z</time></trkpt><trkpt lat="42.9061484" lon="11.5828638"><ele>754.0</ele><time>2026-04-26T12:38:11.19Z</time></trkpt><trkpt lat="42.9062458" lon="11.5830876"><ele>754.0</ele><time>2026-04-26T12:38:12.181Z</time></trkpt><trkpt lat="42.9063425" lon="11.5833167"><ele>754.0</ele><time>2026-04-26T12:38:13.196Z</time></trkpt><trkpt lat="42.9064383" lon="11.5835284"><ele>753.6666666666667</ele><time>2026-04-26T12:38:14.183Z</time></trkpt><trkpt lat="42.9065334" lon="11.5837382"><ele>753.3333333333334</ele><time>2026-04-26T12:38:15.198Z</time></trkpt><trkpt lat="42.9066393" lon="11.5839352"><ele>753.0</ele><time>2026-04-26T12:38:16.196Z</time></trkpt><trkpt lat="42.9067617" lon="11.584112"><ele>753.0</ele><time>2026-04-26T12:38:17.175Z</time></trkpt><trkpt lat="42.9069" lon="11.5842681"><ele>753.0</ele><time>2026-04-26T12:38:18.191Z</time></trkpt><trkpt lat="42.9070526" lon="11.5843992"><ele>753.0</ele><time>2026-04-26T12:38:19.187Z</time></trkpt><trkpt lat="42.9072173" lon="11.5845093"><ele>753.3333333333334</ele><time>2026-04-26T12:38:20.196Z</time></trkpt><trkpt lat="42.9073858" lon="11.5846132"><ele>753.6666666666667</ele><time>2026-04-26T12:38:21.193Z</time></trkpt><trkpt lat="42.9075545" lon="11.5847211"><ele>754.0</ele><time>2026-04-26T12:38:22.204Z</time></trkpt><trkpt lat="42.907724" lon="11.5848283"><ele>754.0</ele><time>2026-04-26T12:38:23.191Z</time></trkpt><trkpt lat="42.9078942" lon="11.5849311"><ele>754.0</ele><time>2026-04-26T12:38:24.187Z</time></trkpt><trkpt lat="42.9080667" lon="11.585024"><ele>754.0</ele><time>2026-04-26T12:38:25.192Z</time></trkpt><trkpt lat="42.9082403" lon="11.5850949"><ele>754.3333333333334</ele><time>2026-04-26T12:38:26.19Z</time></trkpt><trkpt lat="42.9084153" lon="11.585133"><ele>754.6666666666666</ele><time>2026-04-26T12:38:27.186Z</time></trkpt><trkpt lat="42.9085949" lon="11.5851305"><ele>755.0</ele><time>2026-04-26T12:38:28.186Z</time></trkpt><trkpt lat="42.9087783" lon="11.5850861"><ele>755.0</ele><time>2026-04-26T12:38:29.181Z</time></trkpt><trkpt lat="42.9089657" lon="11.5850366"><ele>755.0</ele><time>2026-04-26T12:38:30.189Z</time></trkpt><trkpt lat="42.9091507" lon="11.5849452"><ele>755.0</ele><time>2026-04-26T12:38:31.18Z</time></trkpt><trkpt lat="42.9093288" lon="11.5848392"><ele>755.3333333333333</ele><time>2026-04-26T12:38:32.191Z</time></trkpt><trkpt lat="42.9094988" lon="11.5847281"><ele>755.6666666666666</ele><time>2026-04-26T12:38:33.194Z</time></trkpt><trkpt lat="42.9096483" lon="11.5845999"><ele>756.0</ele><time>2026-04-26T12:38:34.18Z</time></trkpt><trkpt lat="42.9097805" lon="11.5844554"><ele>756.0</ele><time>2026-04-26T12:38:35.201Z</time></trkpt><trkpt lat="42.9099026" lon="11.5843176"><ele>756.0</ele><time>2026-04-26T12:38:36.196Z</time></trkpt><trkpt lat="42.9100302" lon="11.5841993"><ele>756.0</ele><time>2026-04-26T12:38:37.185Z</time></trkpt><trkpt lat="42.9101697" lon="11.5841108"><ele>756.5</ele><time>2026-04-26T12:38:38.191Z</time></trkpt><trkpt lat="42.9103127" lon="11.5840558"><ele>757.0</ele><time>2026-04-26T12:38:39.183Z</time></trkpt><trkpt lat="42.9104448" lon="11.5840155"><ele>757.5</ele><time>2026-04-26T12:38:40.182Z</time></trkpt><trkpt lat="42.9105682" lon="11.58401"><ele>758.0</ele><time>2026-04-26T12:38:41.198Z</time></trkpt><trkpt lat="42.9106835" lon="11.584046"><ele>758.0</ele><time>2026-04-26T12:38:42.196Z</time></trkpt><trkpt lat="42.9107917" lon="11.5841321"><ele>758.0</ele><time>2026-04-26T12:38:43.18Z</time></trkpt><trkpt lat="42.9108885" lon="11.5842593"><ele>758.0</ele><time>2026-04-26T12:38:44.195Z</time></trkpt><trkpt lat="42.910975" lon="11.5844151"><ele>758.0</ele><time>2026-04-26T12:38:45.186Z</time></trkpt><trkpt lat="42.9110548" lon="11.5845644"><ele>759.75</ele><time>2026-04-26T12:38:46.192Z</time></trkpt><trkpt lat="42.9111532" lon="11.5846917"><ele>761.5</ele><time>2026-04-26T12:38:47.183Z</time></trkpt><trkpt lat="42.9112782" lon="11.5847814"><ele>763.25</ele><time>2026-04-26T12:38:48.192Z</time></trkpt><trkpt lat="42.9114253" lon="11.5848448"><ele>765.0</ele><time>2026-04-26T12:38:49.2Z</time></trkpt><trkpt lat="42.9115847" lon="11.5848993"><ele>765.3333333333334</ele><time>2026-04-26T12:38:50.182Z</time></trkpt><trkpt lat="42.9117579" lon="11.5849585"><ele>765.6666666666667</ele><time>2026-04-26T12:38:51.203Z</time></trkpt><trkpt lat="42.9119408" lon="11.5850201"><ele>766.0</ele><time>2026-04-26T12:38:52.177Z</time></trkpt><trkpt lat="42.9121283" lon="11.5850663"><ele>766.0</ele><time>2026-04-26T12:38:53.197Z</time></trkpt><trkpt lat="42.9123228" lon="11.5850989"><ele>766.0</ele><time>2026-04-26T12:38:54.195Z</time></trkpt><trkpt lat="42.912521" lon="11.5851302"><ele>766.0</ele><time>2026-04-26T12:38:55.189Z</time></trkpt><trkpt lat="42.9127143" lon="11.5851627"><ele>766.0</ele><time>2026-04-26T12:38:56.18Z</time></trkpt><trkpt lat="42.9128977" lon="11.5851928"><ele>766.0</ele><time>2026-04-26T12:38:57.19Z</time></trkpt><trkpt lat="42.9130694" lon="11.5852128"><ele>766.0</ele><time>2026-04-26T12:38:58.194Z</time></trkpt><trkpt lat="42.9132356" lon="11.5851952"><ele>766.0</ele><time>2026-04-26T12:38:59.181Z</time></trkpt><trkpt lat="42.9133919" lon="11.5851276"><ele>766.0</ele><time>2026-04-26T12:39:00.182Z</time></trkpt><trkpt lat="42.9135368" lon="11.5850364"><ele>766.0</ele><time>2026-04-26T12:39:01.18Z</time></trkpt><trkpt lat="42.9136799" lon="11.5849596"><ele>768.0</ele><time>2026-04-26T12:39:02.205Z</time></trkpt><trkpt lat="42.9138307" lon="11.5849173"><ele>770.0</ele><time>2026-04-26T12:39:03.188Z</time></trkpt><trkpt lat="42.9139876" lon="11.5849073"><ele>772.0</ele><time>2026-04-26T12:39:04.2Z</time></trkpt><trkpt lat="42.9141451" lon="11.5848996"><ele>772.3333333333333</ele><time>2026-04-26T12:39:05.241Z</time></trkpt><trkpt lat="42.9143035" lon="11.5849052"><ele>772.6666666666667</ele><time>2026-04-26T12:39:06.208Z</time></trkpt><trkpt lat="42.9144604" lon="11.5849061"><ele>773.0</ele><time>2026-04-26T12:39:07.178Z</time></trkpt><trkpt lat="42.9146131" lon="11.58491"><ele>773.0</ele><time>2026-04-26T12:39:08.185Z</time></trkpt><trkpt lat="42.9147588" lon="11.5849179"><ele>773.0</ele><time>2026-04-26T12:39:09.184Z</time></trkpt><trkpt lat="42.9148913" lon="11.5849267"><ele>773.0</ele><time>2026-04-26T12:39:10.193Z</time></trkpt><trkpt lat="42.9150106" lon="11.584934"><ele>773.0</ele><time>2026-04-26T12:39:11.176Z</time></trkpt><trkpt lat="42.9151224" lon="11.5849374"><ele>770.75</ele><time>2026-04-26T12:39:12.202Z</time></trkpt><trkpt lat="42.9152332" lon="11.5849413"><ele>768.5</ele><time>2026-04-26T12:39:13.201Z</time></trkpt><trkpt lat="42.9153464" lon="11.5849547"><ele>766.25</ele><time>2026-04-26T12:39:14.182Z</time></trkpt><trkpt lat="42.9154556" lon="11.5849945"><ele>764.0</ele><time>2026-04-26T12:39:15.196Z</time></trkpt><trkpt lat="42.91556" lon="11.5850763"><ele>764.0</ele><time>2026-04-26T12:39:16.193Z</time></trkpt><trkpt lat="42.9156503" lon="11.5851975"><ele>764.0</ele><time>2026-04-26T12:39:17.181Z</time></trkpt><trkpt lat="42.9157247" lon="11.5853419"><ele>764.0</ele><time>2026-04-26T12:39:18.189Z</time></trkpt><trkpt lat="42.9157949" lon="11.5854923"><ele>764.0</ele><time>2026-04-26T12:39:19.182Z</time></trkpt><trkpt lat="42.9158757" lon="11.5856285"><ele>761.75</ele><time>2026-04-26T12:39:20.188Z</time></trkpt><trkpt lat="42.9159728" lon="11.5857391"><ele>759.5</ele><time>2026-04-26T12:39:21.192Z</time></trkpt><trkpt lat="42.91608" lon="11.5858203"><ele>757.25</ele><time>2026-04-26T12:39:22.195Z</time></trkpt><trkpt lat="42.9161844" lon="11.5858954"><ele>755.0</ele><time>2026-04-26T12:39:23.199Z</time></trkpt><trkpt lat="42.9162908" lon="11.585948"><ele>755.0</ele><time>2026-04-26T12:39:24.183Z</time></trkpt><trkpt lat="42.91639" lon="11.5859962"><ele>755.0</ele><time>2026-04-26T12:39:25.187Z</time></trkpt><trkpt lat="42.9164901" lon="11.5860294"><ele>755.0</ele><time>2026-04-26T12:39:26.191Z</time></trkpt><trkpt lat="42.9165864" lon="11.5860456"><ele>755.0</ele><time>2026-04-26T12:39:27.195Z</time></trkpt><trkpt lat="42.9166841" lon="11.5860525"><ele>755.0</ele><time>2026-04-26T12:39:28.192Z</time></trkpt><trkpt lat="42.916783" lon="11.5860579"><ele>752.8</ele><time>2026-04-26T12:39:29.189Z</time></trkpt><trkpt lat="42.916884" lon="11.5860608"><ele>750.6</ele><time>2026-04-26T12:39:30.195Z</time></trkpt><trkpt lat="42.9169917" lon="11.5860663"><ele>748.4000000000001</ele><time>2026-04-26T12:39:31.179Z</time></trkpt><trkpt lat="42.9171016" lon="11.5860735"><ele>746.2</ele><time>2026-04-26T12:39:32.182Z</time></trkpt><trkpt lat="42.9172135" lon="11.5860833"><ele>744.0</ele><time>2026-04-26T12:39:33.191Z</time></trkpt><trkpt lat="42.9173126" lon="11.5861458"><ele>744.0</ele><time>2026-04-26T12:39:34.177Z</time></trkpt><trkpt lat="42.9174034" lon="11.5862404"><ele>744.0</ele><time>2026-04-26T12:39:35.192Z</time></trkpt><trkpt lat="42.9174918" lon="11.5863409"><ele>744.0</ele><time>2026-04-26T12:39:36.188Z</time></trkpt><trkpt lat="42.9175855" lon="11.5864376"><ele>744.0</ele><time>2026-04-26T12:39:37.187Z</time></trkpt><trkpt lat="42.9176732" lon="11.5865375"><ele>744.0</ele><time>2026-04-26T12:39:38.193Z</time></trkpt><trkpt lat="42.9177581" lon="11.5866431"><ele>744.0</ele><time>2026-04-26T12:39:39.195Z</time></trkpt><trkpt lat="42.917836" lon="11.5867474"><ele>744.0</ele><time>2026-04-26T12:39:40.196Z</time></trkpt><trkpt lat="42.9179196" lon="11.5868398"><ele>744.0</ele><time>2026-04-26T12:39:41.2Z</time></trkpt><trkpt lat="42.9180102" lon="11.5869308"><ele>744.0</ele><time>2026-04-26T12:39:42.178Z</time></trkpt><trkpt lat="42.9180949" lon="11.5870236"><ele>745.2</ele><time>2026-04-26T12:39:43.188Z</time></trkpt><trkpt lat="42.918166" lon="11.5871127"><ele>746.4000000000001</ele><time>2026-04-26T12:39:44.19Z</time></trkpt><trkpt lat="42.918242" lon="11.5872014"><ele>747.6</ele><time>2026-04-26T12:39:45.197Z</time></trkpt><trkpt lat="42.9183261" lon="11.5872918"><ele>748.8</ele><time>2026-04-26T12:39:46.188Z</time></trkpt><trkpt lat="42.9184078" lon="11.5873752"><ele>750.0</ele><time>2026-04-26T12:39:47.186Z</time></trkpt><trkpt lat="42.9185023" lon="11.587449"><ele>750.0</ele><time>2026-04-26T12:39:48.196Z</time></trkpt><trkpt lat="42.9186049" lon="11.5875016"><ele>750.0</ele><time>2026-04-26T12:39:49.181Z</time></trkpt><trkpt lat="42.9187083" lon="11.5875414"><ele>750.0</ele><time>2026-04-26T12:39:50.197Z</time></trkpt><trkpt lat="42.9188092" lon="11.587576"><ele>750.0</ele><time>2026-04-26T12:39:51.198Z</time></trkpt><trkpt lat="42.918903" lon="11.5876137"><ele>750.0</ele><time>2026-04-26T12:39:52.195Z</time></trkpt><trkpt lat="42.918986" lon="11.5876481"><ele>750.0</ele><time>2026-04-26T12:39:53.196Z</time></trkpt><trkpt lat="42.9190577" lon="11.5876753"><ele>750.0</ele><time>2026-04-26T12:39:54.177Z</time></trkpt><trkpt lat="42.9191222" lon="11.5876966"><ele>750.0</ele><time>2026-04-26T12:39:55.195Z</time></trkpt><trkpt lat="42.9192382" lon="11.5877248"><ele>750.0</ele><time>2026-04-26T12:39:57.198Z</time></trkpt><trkpt lat="42.9193428" lon="11.5877248"><ele>750.0</ele><time>2026-04-26T12:39:59.184Z</time></trkpt><trkpt lat="42.9194575" lon="11.5876187"><ele>750.0</ele><time>2026-04-26T12:40:01.191Z</time></trkpt><trkpt lat="42.9195218" lon="11.5875389"><ele>750.0</ele><time>2026-04-26T12:40:02.177Z</time></trkpt><trkpt lat="42.919586" lon="11.5874595"><ele>750.0</ele><time>2026-04-26T12:40:03.187Z</time></trkpt><trkpt lat="42.9196501" lon="11.5873809"><ele>750.0</ele><time>2026-04-26T12:40:04.197Z</time></trkpt><trkpt lat="42.9197149" lon="11.5873015"><ele>750.0</ele><time>2026-04-26T12:40:05.196Z</time></trkpt><trkpt lat="42.9197807" lon="11.5872203"><ele>750.0</ele><time>2026-04-26T12:40:06.2Z</time></trkpt><trkpt lat="42.9198385" lon="11.5871394"><ele>750.0</ele><time>2026-04-26T12:40:07.195Z</time></trkpt><trkpt lat="42.9199031" lon="11.5870559"><ele>750.0</ele><time>2026-04-26T12:40:08.184Z</time></trkpt><trkpt lat="42.9199741" lon="11.5869706"><ele>750.0</ele><time>2026-04-26T12:40:09.182Z</time></trkpt><trkpt lat="42.9200529" lon="11.5868822"><ele>750.0</ele><time>2026-04-26T12:40:10.188Z</time></trkpt><trkpt lat="42.9201341" lon="11.5868014"><ele>750.0</ele><time>2026-04-26T12:40:11.19Z</time></trkpt><trkpt lat="42.9202205" lon="11.5867272"><ele>749.2</ele><time>2026-04-26T12:40:12.191Z</time></trkpt><trkpt lat="42.9203081" lon="11.5866609"><ele>748.4</ele><time>2026-04-26T12:40:13.193Z</time></trkpt><trkpt lat="42.9203868" lon="11.5865938"><ele>747.5999999999999</ele><time>2026-04-26T12:40:14.181Z</time></trkpt><trkpt lat="42.920462" lon="11.5865202"><ele>746.8</ele><time>2026-04-26T12:40:15.196Z</time></trkpt><trkpt lat="42.9205294" lon="11.5864387"><ele>746.0</ele><time>2026-04-26T12:40:16.198Z</time></trkpt><trkpt lat="42.9205968" lon="11.5863425"><ele>746.0</ele><time>2026-04-26T12:40:17.183Z</time></trkpt><trkpt lat="42.9206519" lon="11.5862235"><ele>746.0</ele><time>2026-04-26T12:40:18.186Z</time></trkpt><trkpt lat="42.920715" lon="11.5861001"><ele>746.0</ele><time>2026-04-26T12:40:19.177Z</time></trkpt><trkpt lat="42.9207663" lon="11.5859817"><ele>746.0</ele><time>2026-04-26T12:40:20.199Z</time></trkpt><trkpt lat="42.9208173" lon="11.5858733"><ele>746.0</ele><time>2026-04-26T12:40:21.185Z</time></trkpt><trkpt lat="42.9208547" lon="11.585754"><ele>746.1999999999999</ele><time>2026-04-26T12:40:22.195Z</time></trkpt><trkpt lat="42.9208701" lon="11.5856249"><ele>746.4</ele><time>2026-04-26T12:40:23.18Z</time></trkpt><trkpt lat="42.9208673" lon="11.5854912"><ele>746.6</ele><time>2026-04-26T12:40:24.191Z</time></trkpt><trkpt lat="42.9208593" lon="11.5853594"><ele>746.8</ele><time>2026-04-26T12:40:25.188Z</time></trkpt><trkpt lat="42.9208305" lon="11.5852556"><ele>747.0</ele><time>2026-04-26T12:40:26.185Z</time></trkpt><trkpt lat="42.9207965" lon="11.5851297"><ele>746.0</ele><time>2026-04-26T12:40:28.208Z</time></trkpt><trkpt lat="42.9207601" lon="11.58502"><ele>745.0</ele><time>2026-04-26T12:40:31.186Z</time></trkpt><trkpt lat="42.9207187" lon="11.5849373"><ele>744.0</ele><time>2026-04-26T12:40:59.191Z</time></trkpt><trkpt lat="42.9206853" lon="11.5848318"><ele>743.0</ele><time>2026-04-26T12:41:01.194Z</time></trkpt><trkpt lat="42.9206441" lon="11.5846989"><ele>742.0</ele><time>2026-04-26T12:41:03.198Z</time></trkpt><trkpt lat="42.9206166" lon="11.5846174"><ele>741.0</ele><time>2026-04-26T12:41:04.174Z</time></trkpt><trkpt lat="42.9205982" lon="11.5845125"><ele>739.8333333333334</ele><time>2026-04-26T12:41:05.2Z</time></trkpt><trkpt lat="42.9206158" lon="11.5844118"><ele>738.6666666666666</ele><time>2026-04-26T12:41:06.203Z</time></trkpt><trkpt lat="42.9206689" lon="11.5843336"><ele>737.5</ele><time>2026-04-26T12:41:07.184Z</time></trkpt><trkpt lat="42.9207505" lon="11.5842908"><ele>736.3333333333333</ele><time>2026-04-26T12:41:08.187Z</time></trkpt><trkpt lat="42.9208409" lon="11.5842647"><ele>735.1666666666666</ele><time>2026-04-26T12:41:09.179Z</time></trkpt><trkpt lat="42.9209322" lon="11.5842429"><ele>734.0</ele><time>2026-04-26T12:41:10.186Z</time></trkpt><trkpt lat="42.9210244" lon="11.5842206"><ele>732.0</ele><time>2026-04-26T12:41:11.189Z</time></trkpt><trkpt lat="42.9211138" lon="11.5841982"><ele>730.0</ele><time>2026-04-26T12:41:12.199Z</time></trkpt><trkpt lat="42.9211993" lon="11.584179"><ele>728.0</ele><time>2026-04-26T12:41:13.188Z</time></trkpt><trkpt lat="42.9212856" lon="11.5841998"><ele>726.0</ele><time>2026-04-26T12:41:14.177Z</time></trkpt><trkpt lat="42.9213697" lon="11.5842641"><ele>724.0</ele><time>2026-04-26T12:41:15.184Z</time></trkpt><trkpt lat="42.9214498" lon="11.5843658"><ele>724.0</ele><time>2026-04-26T12:41:16.186Z</time></trkpt><trkpt lat="42.9215552" lon="11.5844287"><ele>724.0</ele><time>2026-04-26T12:41:17.196Z</time></trkpt><trkpt lat="42.9216589" lon="11.5844828"><ele>724.0</ele><time>2026-04-26T12:41:18.18Z</time></trkpt><trkpt lat="42.9217639" lon="11.5844945"><ele>724.0</ele><time>2026-04-26T12:41:19.195Z</time></trkpt><trkpt lat="42.9218717" lon="11.5844839"><ele>724.0</ele><time>2026-04-26T12:41:20.188Z</time></trkpt><trkpt lat="42.9219824" lon="11.5844679"><ele>722.4000000000001</ele><time>2026-04-26T12:41:21.196Z</time></trkpt><trkpt lat="42.9220848" lon="11.5844533"><ele>720.8</ele><time>2026-04-26T12:41:22.199Z</time></trkpt><trkpt lat="42.9221801" lon="11.5844278"><ele>719.2</ele><time>2026-04-26T12:41:23.19Z</time></trkpt><trkpt lat="42.9222564" lon="11.5843104"><ele>717.5999999999999</ele><time>2026-04-26T12:41:24.193Z</time></trkpt><trkpt lat="42.9223302" lon="11.5841655"><ele>716.0</ele><time>2026-04-26T12:41:25.186Z</time></trkpt><trkpt lat="42.9224098" lon="11.5840183"><ele>716.0</ele><time>2026-04-26T12:41:26.188Z</time></trkpt><trkpt lat="42.92249" lon="11.583866"><ele>716.0</ele><time>2026-04-26T12:41:27.191Z</time></trkpt><trkpt lat="42.9225681" lon="11.5837231"><ele>716.0</ele><time>2026-04-26T12:41:28.2Z</time></trkpt><trkpt lat="42.9226406" lon="11.5835871"><ele>716.0</ele><time>2026-04-26T12:41:29.193Z</time></trkpt><trkpt lat="42.9227131" lon="11.5834536"><ele>712.8</ele><time>2026-04-26T12:41:30.194Z</time></trkpt><trkpt lat="42.9227796" lon="11.5833268"><ele>709.5999999999999</ele><time>2026-04-26T12:41:31.207Z</time></trkpt><trkpt lat="42.9228394" lon="11.5832067"><ele>706.4</ele><time>2026-04-26T12:41:32.197Z</time></trkpt><trkpt lat="42.9228938" lon="11.583097"><ele>703.2</ele><time>2026-04-26T12:41:33.192Z</time></trkpt><trkpt lat="42.9229549" lon="11.5830356"><ele>700.0</ele><time>2026-04-26T12:41:34.182Z</time></trkpt><trkpt lat="42.923025" lon="11.5830334"><ele>700.0</ele><time>2026-04-26T12:41:35.183Z</time></trkpt><trkpt lat="42.9230956" lon="11.5830353"><ele>700.0</ele><time>2026-04-26T12:41:36.2Z</time></trkpt><trkpt lat="42.9231692" lon="11.583078"><ele>700.0</ele><time>2026-04-26T12:41:37.194Z</time></trkpt><trkpt lat="42.9232263" lon="11.5832112"><ele>700.0</ele><time>2026-04-26T12:41:38.179Z</time></trkpt><trkpt lat="42.9232926" lon="11.5833103"><ele>700.0</ele><time>2026-04-26T12:41:39.197Z</time></trkpt><trkpt lat="42.9233564" lon="11.5834109"><ele>697.4</ele><time>2026-04-26T12:41:40.196Z</time></trkpt><trkpt lat="42.9234331" lon="11.5834549"><ele>694.8</ele><time>2026-04-26T12:41:41.176Z</time></trkpt><trkpt lat="42.9235092" lon="11.5834275"><ele>692.2</ele><time>2026-04-26T12:41:42.185Z</time></trkpt><trkpt lat="42.923577" lon="11.5833588"><ele>689.6</ele><time>2026-04-26T12:41:43.193Z</time></trkpt><trkpt lat="42.9235716" lon="11.5832075"><ele>687.0</ele><time>2026-04-26T12:41:44.183Z</time></trkpt><trkpt lat="42.9235691" lon="11.5830588"><ele>687.0</ele><time>2026-04-26T12:41:45.201Z</time></trkpt><trkpt lat="42.9235151" lon="11.5828794"><ele>687.0</ele><time>2026-04-26T12:41:46.18Z</time></trkpt><trkpt lat="42.9234646" lon="11.5826922"><ele>687.0</ele><time>2026-04-26T12:41:47.19Z</time></trkpt><trkpt lat="42.9234159" lon="11.5825061"><ele>687.0</ele><time>2026-04-26T12:41:48.192Z</time></trkpt><trkpt lat="42.9233648" lon="11.5823301"><ele>687.75</ele><time>2026-04-26T12:41:49.182Z</time></trkpt><trkpt lat="42.9233116" lon="11.5821653"><ele>688.5</ele><time>2026-04-26T12:41:50.179Z</time></trkpt><trkpt lat="42.9232582" lon="11.5820116"><ele>689.25</ele><time>2026-04-26T12:41:51.181Z</time></trkpt><trkpt lat="42.9232015" lon="11.5818647"><ele>690.0</ele><time>2026-04-26T12:41:52.196Z</time></trkpt><trkpt lat="42.9231339" lon="11.581724"><ele>686.75</ele><time>2026-04-26T12:41:53.191Z</time></trkpt><trkpt lat="42.923056" lon="11.5815932"><ele>683.5</ele><time>2026-04-26T12:41:54.179Z</time></trkpt><trkpt lat="42.9229708" lon="11.5814755"><ele>680.25</ele><time>2026-04-26T12:41:55.188Z</time></trkpt><trkpt lat="42.9228853" lon="11.5813697"><ele>677.0</ele><time>2026-04-26T12:41:56.194Z</time></trkpt><trkpt lat="42.9228033" lon="11.5812702"><ele>677.8</ele><time>2026-04-26T12:41:57.192Z</time></trkpt><trkpt lat="42.9227238" lon="11.5811765"><ele>678.6</ele><time>2026-04-26T12:41:58.2Z</time></trkpt><trkpt lat="42.9226476" lon="11.5810858"><ele>679.4</ele><time>2026-04-26T12:41:59.192Z</time></trkpt><trkpt lat="42.9225753" lon="11.5809935"><ele>680.1999999999999</ele><time>2026-04-26T12:42:00.198Z</time></trkpt><trkpt lat="42.9225023" lon="11.5808997"><ele>681.0</ele><time>2026-04-26T12:42:01.192Z</time></trkpt><trkpt lat="42.9224583" lon="11.5807755"><ele>681.0</ele><time>2026-04-26T12:42:02.198Z</time></trkpt><trkpt lat="42.9224355" lon="11.5806382"><ele>681.0</ele><time>2026-04-26T12:42:03.184Z</time></trkpt><trkpt lat="42.9224221" lon="11.5804912"><ele>681.0</ele><time>2026-04-26T12:42:04.187Z</time></trkpt><trkpt lat="42.9224126" lon="11.5803392"><ele>681.0</ele><time>2026-04-26T12:42:05.196Z</time></trkpt><trkpt lat="42.9224084" lon="11.5801882"><ele>681.0</ele><time>2026-04-26T12:42:06.194Z</time></trkpt><trkpt lat="42.9224243" lon="11.5800412"><ele>679.5</ele><time>2026-04-26T12:42:07.189Z</time></trkpt><trkpt lat="42.9224705" lon="11.5799033"><ele>678.0</ele><time>2026-04-26T12:42:08.207Z</time></trkpt><trkpt lat="42.9225406" lon="11.5797729"><ele>676.5</ele><time>2026-04-26T12:42:09.179Z</time></trkpt><trkpt lat="42.922618" lon="11.5796436"><ele>675.0</ele><time>2026-04-26T12:42:10.187Z</time></trkpt><trkpt lat="42.9227022" lon="11.5795234"><ele>672.75</ele><time>2026-04-26T12:42:11.191Z</time></trkpt><trkpt lat="42.9227992" lon="11.5794293"><ele>670.5</ele><time>2026-04-26T12:42:12.192Z</time></trkpt><trkpt lat="42.9229085" lon="11.5793726"><ele>668.25</ele><time>2026-04-26T12:42:13.175Z</time></trkpt><trkpt lat="42.9230243" lon="11.579361"><ele>666.0</ele><time>2026-04-26T12:42:14.183Z</time></trkpt><trkpt lat="42.9231371" lon="11.5793533"><ele>666.0</ele><time>2026-04-26T12:42:15.184Z</time></trkpt><trkpt lat="42.9232464" lon="11.5794248"><ele>666.0</ele><time>2026-04-26T12:42:16.194Z</time></trkpt><trkpt lat="42.9233521" lon="11.5795054"><ele>666.0</ele><time>2026-04-26T12:42:17.187Z</time></trkpt><trkpt lat="42.923464" lon="11.5795733"><ele>666.0</ele><time>2026-04-26T12:42:18.188Z</time></trkpt><trkpt lat="42.9235787" lon="11.5796067"><ele>663.5</ele><time>2026-04-26T12:42:19.202Z</time></trkpt><trkpt lat="42.9236936" lon="11.5795991"><ele>661.0</ele><time>2026-04-26T12:42:20.197Z</time></trkpt><trkpt lat="42.9238078" lon="11.5795903"><ele>658.5</ele><time>2026-04-26T12:42:21.194Z</time></trkpt><trkpt lat="42.9239193" lon="11.5795465"><ele>656.0</ele><time>2026-04-26T12:42:22.203Z</time></trkpt><trkpt lat="42.92403" lon="11.5795065"><ele>656.0</ele><time>2026-04-26T12:42:23.199Z</time></trkpt><trkpt lat="42.9241374" lon="11.5794738"><ele>656.0</ele><time>2026-04-26T12:42:24.184Z</time></trkpt><trkpt lat="42.9242443" lon="11.5794366"><ele>656.0</ele><time>2026-04-26T12:42:25.178Z</time></trkpt><trkpt lat="42.924345" lon="11.5793822"><ele>656.0</ele><time>2026-04-26T12:42:26.19Z</time></trkpt><trkpt lat="42.9244295" lon="11.5792967"><ele>656.0</ele><time>2026-04-26T12:42:27.192Z</time></trkpt><trkpt lat="42.9244904" lon="11.5791882"><ele>653.4</ele><time>2026-04-26T12:42:28.198Z</time></trkpt><trkpt lat="42.924514" lon="11.5790709"><ele>650.8</ele><time>2026-04-26T12:42:29.195Z</time></trkpt><trkpt lat="42.9245353" lon="11.5789558"><ele>648.1999999999999</ele><time>2026-04-26T12:42:30.197Z</time></trkpt><trkpt lat="42.9244747" lon="11.5788639"><ele>645.5999999999999</ele><time>2026-04-26T12:42:31.202Z</time></trkpt><trkpt lat="42.9243919" lon="11.5787845"><ele>643.0</ele><time>2026-04-26T12:42:32.195Z</time></trkpt><trkpt lat="42.9243014" lon="11.5786993"><ele>644.0</ele><time>2026-04-26T12:42:33.187Z</time></trkpt><trkpt lat="42.9242008" lon="11.5786107"><ele>645.0</ele><time>2026-04-26T12:42:34.192Z</time></trkpt><trkpt lat="42.9240959" lon="11.5785212"><ele>646.0</ele><time>2026-04-26T12:42:35.203Z</time></trkpt><trkpt lat="42.9239878" lon="11.5784248"><ele>647.0</ele><time>2026-04-26T12:42:36.185Z</time></trkpt><trkpt lat="42.9238806" lon="11.578316"><ele>647.0</ele><time>2026-04-26T12:42:37.192Z</time></trkpt><trkpt lat="42.923776" lon="11.5781995"><ele>647.0</ele><time>2026-04-26T12:42:38.203Z</time></trkpt><trkpt lat="42.9236718" lon="11.5780808"><ele>647.0</ele><time>2026-04-26T12:42:39.195Z</time></trkpt><trkpt lat="42.9235653" lon="11.5779659"><ele>647.0</ele><time>2026-04-26T12:42:40.195Z</time></trkpt><trkpt lat="42.9234564" lon="11.5778545"><ele>646.75</ele><time>2026-04-26T12:42:41.192Z</time></trkpt><trkpt lat="42.9233463" lon="11.5777465"><ele>646.5</ele><time>2026-04-26T12:42:42.181Z</time></trkpt><trkpt lat="42.9232353" lon="11.5776409"><ele>646.25</ele><time>2026-04-26T12:42:43.177Z</time></trkpt><trkpt lat="42.9231225" lon="11.5775333"><ele>646.0</ele><time>2026-04-26T12:42:44.192Z</time></trkpt><trkpt lat="42.923008" lon="11.5774228"><ele>646.0</ele><time>2026-04-26T12:42:45.201Z</time></trkpt><trkpt lat="42.9228917" lon="11.5773102"><ele>646.0</ele><time>2026-04-26T12:42:46.18Z</time></trkpt><trkpt lat="42.9228034" lon="11.5771539"><ele>646.0</ele><time>2026-04-26T12:42:47.199Z</time></trkpt><trkpt lat="42.9227294" lon="11.5769937"><ele>646.0</ele><time>2026-04-26T12:42:48.199Z</time></trkpt><trkpt lat="42.9226697" lon="11.5768323"><ele>644.75</ele><time>2026-04-26T12:42:49.203Z</time></trkpt><trkpt lat="42.9226213" lon="11.5766673"><ele>643.5</ele><time>2026-04-26T12:42:50.193Z</time></trkpt><trkpt lat="42.9225735" lon="11.5764973"><ele>642.25</ele><time>2026-04-26T12:42:51.191Z</time></trkpt><trkpt lat="42.9225167" lon="11.5763325"><ele>641.0</ele><time>2026-04-26T12:42:52.198Z</time></trkpt><trkpt lat="42.9224464" lon="11.5761794"><ele>638.75</ele><time>2026-04-26T12:42:53.178Z</time></trkpt><trkpt lat="42.9223689" lon="11.5760375"><ele>636.5</ele><time>2026-04-26T12:42:54.186Z</time></trkpt><trkpt lat="42.9222863" lon="11.5758994"><ele>634.25</ele><time>2026-04-26T12:42:55.198Z</time></trkpt><trkpt lat="42.922207" lon="11.5757585"><ele>632.0</ele><time>2026-04-26T12:42:56.184Z</time></trkpt><trkpt lat="42.9221333" lon="11.5756218"><ele>632.0</ele><time>2026-04-26T12:42:57.196Z</time></trkpt><trkpt lat="42.9220605" lon="11.5755031"><ele>632.0</ele><time>2026-04-26T12:42:58.199Z</time></trkpt><trkpt lat="42.9220018" lon="11.5753959"><ele>632.0</ele><time>2026-04-26T12:42:59.188Z</time></trkpt><trkpt lat="42.9219695" lon="11.5752857"><ele>632.0</ele><time>2026-04-26T12:43:00.2Z</time></trkpt><trkpt lat="42.921971" lon="11.5751681"><ele>632.0</ele><time>2026-04-26T12:43:01.189Z</time></trkpt><trkpt lat="42.9220112" lon="11.5750606"><ele>629.2</ele><time>2026-04-26T12:43:02.186Z</time></trkpt><trkpt lat="42.922092" lon="11.5749805"><ele>626.4000000000001</ele><time>2026-04-26T12:43:03.194Z</time></trkpt><trkpt lat="42.9222043" lon="11.574927"><ele>623.5999999999999</ele><time>2026-04-26T12:43:04.193Z</time></trkpt><trkpt lat="42.9223201" lon="11.5748927"><ele>620.8</ele><time>2026-04-26T12:43:05.195Z</time></trkpt><trkpt lat="42.9224303" lon="11.5748842"><ele>618.0</ele><time>2026-04-26T12:43:06.196Z</time></trkpt><trkpt lat="42.9225302" lon="11.5749149"><ele>616.0</ele><time>2026-04-26T12:43:07.196Z</time></trkpt><trkpt lat="42.9226188" lon="11.5749813"><ele>614.0</ele><time>2026-04-26T12:43:08.179Z</time></trkpt><trkpt lat="42.9227036" lon="11.5750771"><ele>612.0</ele><time>2026-04-26T12:43:09.181Z</time></trkpt><trkpt lat="42.9227961" lon="11.575184"><ele>610.0</ele><time>2026-04-26T12:43:10.194Z</time></trkpt><trkpt lat="42.9229027" lon="11.5752822"><ele>613.5</ele><time>2026-04-26T12:43:11.188Z</time></trkpt><trkpt lat="42.9230199" lon="11.5753691"><ele>617.0</ele><time>2026-04-26T12:43:12.196Z</time></trkpt><trkpt lat="42.9231405" lon="11.5754458"><ele>620.5</ele><time>2026-04-26T12:43:13.187Z</time></trkpt><trkpt lat="42.9232598" lon="11.5755045"><ele>624.0</ele><time>2026-04-26T12:43:14.185Z</time></trkpt><trkpt lat="42.9233799" lon="11.5755255"><ele>624.0</ele><time>2026-04-26T12:43:15.193Z</time></trkpt><trkpt lat="42.9234971" lon="11.5755441"><ele>624.0</ele><time>2026-04-26T12:43:16.194Z</time></trkpt><trkpt lat="42.9236168" lon="11.5754917"><ele>624.0</ele><time>2026-04-26T12:43:17.193Z</time></trkpt><trkpt lat="42.9237335" lon="11.5754353"><ele>624.0</ele><time>2026-04-26T12:43:18.191Z</time></trkpt><trkpt lat="42.9238468" lon="11.5753785"><ele>624.0</ele><time>2026-04-26T12:43:19.203Z</time></trkpt><trkpt lat="42.923957" lon="11.5753434"><ele>624.0</ele><time>2026-04-26T12:43:20.204Z</time></trkpt><trkpt lat="42.9240625" lon="11.5753422"><ele>624.0</ele><time>2026-04-26T12:43:21.203Z</time></trkpt><trkpt lat="42.9241619" lon="11.5753864"><ele>624.0</ele><time>2026-04-26T12:43:22.201Z</time></trkpt><trkpt lat="42.9242458" lon="11.5754678"><ele>624.0</ele><time>2026-04-26T12:43:23.195Z</time></trkpt><trkpt lat="42.9243151" lon="11.5755589"><ele>620.6</ele><time>2026-04-26T12:43:24.185Z</time></trkpt><trkpt lat="42.9243864" lon="11.5756428"><ele>617.2</ele><time>2026-04-26T12:43:25.198Z</time></trkpt><trkpt lat="42.9244706" lon="11.5757118"><ele>613.8000000000001</ele><time>2026-04-26T12:43:26.18Z</time></trkpt><trkpt lat="42.9245683" lon="11.5757458"><ele>610.4</ele><time>2026-04-26T12:43:27.183Z</time></trkpt><trkpt lat="42.9246657" lon="11.5757776"><ele>607.0</ele><time>2026-04-26T12:43:28.196Z</time></trkpt><trkpt lat="42.9247599" lon="11.5757399"><ele>607.0</ele><time>2026-04-26T12:43:29.184Z</time></trkpt><trkpt lat="42.9248392" lon="11.5756548"><ele>607.0</ele><time>2026-04-26T12:43:30.184Z</time></trkpt><trkpt lat="42.9248987" lon="11.5755157"><ele>607.0</ele><time>2026-04-26T12:43:31.189Z</time></trkpt><trkpt lat="42.9249241" lon="11.5753402"><ele>607.0</ele><time>2026-04-26T12:43:32.189Z</time></trkpt><trkpt lat="42.9249471" lon="11.5751679"><ele>605.25</ele><time>2026-04-26T12:43:33.201Z</time></trkpt><trkpt lat="42.9249464" lon="11.5750007"><ele>603.5</ele><time>2026-04-26T12:43:34.194Z</time></trkpt><trkpt lat="42.9249103" lon="11.5748551"><ele>601.75</ele><time>2026-04-26T12:43:35.188Z</time></trkpt><trkpt lat="42.9248352" lon="11.5747337"><ele>600.0</ele><time>2026-04-26T12:43:36.189Z</time></trkpt><trkpt lat="42.9247562" lon="11.5746092"><ele>597.5</ele><time>2026-04-26T12:43:37.193Z</time></trkpt><trkpt lat="42.9246658" lon="11.5744795"><ele>595.0</ele><time>2026-04-26T12:43:38.202Z</time></trkpt><trkpt lat="42.9245872" lon="11.5743212"><ele>592.5</ele><time>2026-04-26T12:43:39.192Z</time></trkpt><trkpt lat="42.9245407" lon="11.574152"><ele>590.0</ele><time>2026-04-26T12:43:40.204Z</time></trkpt><trkpt lat="42.9244963" lon="11.574"><ele>590.0</ele><time>2026-04-26T12:43:41.181Z</time></trkpt><trkpt lat="42.9244558" lon="11.5738649"><ele>590.0</ele><time>2026-04-26T12:43:42.183Z</time></trkpt><trkpt lat="42.9244186" lon="11.5737326"><ele>590.0</ele><time>2026-04-26T12:43:43.196Z</time></trkpt><trkpt lat="42.9243734" lon="11.5736175"><ele>590.0</ele><time>2026-04-26T12:43:44.185Z</time></trkpt><trkpt lat="42.9243159" lon="11.5735154"><ele>590.0</ele><time>2026-04-26T12:43:45.179Z</time></trkpt><trkpt lat="42.9242351" lon="11.5734448"><ele>588.5</ele><time>2026-04-26T12:43:46.19Z</time></trkpt><trkpt lat="42.9241299" lon="11.5734177"><ele>587.0</ele><time>2026-04-26T12:43:47.186Z</time></trkpt><trkpt lat="42.924012" lon="11.5734082"><ele>585.5</ele><time>2026-04-26T12:43:48.179Z</time></trkpt><trkpt lat="42.923899" lon="11.5734132"><ele>584.0</ele><time>2026-04-26T12:43:49.198Z</time></trkpt><trkpt lat="42.9237849" lon="11.5734409"><ele>584.0</ele><time>2026-04-26T12:43:50.188Z</time></trkpt><trkpt lat="42.9236735" lon="11.5734804"><ele>584.0</ele><time>2026-04-26T12:43:51.19Z</time></trkpt><trkpt lat="42.9235686" lon="11.5735323"><ele>584.0</ele><time>2026-04-26T12:43:52.194Z</time></trkpt><trkpt lat="42.9234659" lon="11.5735689"><ele>584.0</ele><time>2026-04-26T12:43:53.179Z</time></trkpt><trkpt lat="42.9233643" lon="11.5736089"><ele>584.0</ele><time>2026-04-26T12:43:54.177Z</time></trkpt><trkpt lat="42.9232624" lon="11.5736524"><ele>583.0</ele><time>2026-04-26T12:43:55.179Z</time></trkpt><trkpt lat="42.9231522" lon="11.5736762"><ele>582.0</ele><time>2026-04-26T12:43:56.197Z</time></trkpt><trkpt lat="42.9230387" lon="11.5736715"><ele>581.0</ele><time>2026-04-26T12:43:57.197Z</time></trkpt><trkpt lat="42.9229233" lon="11.5736634"><ele>580.0</ele><time>2026-04-26T12:43:58.193Z</time></trkpt><trkpt lat="42.9228143" lon="11.5736148"><ele>580.0</ele><time>2026-04-26T12:43:59.198Z</time></trkpt><trkpt lat="42.9227232" lon="11.5735219"><ele>580.0</ele><time>2026-04-26T12:44:00.197Z</time></trkpt><trkpt lat="42.9226662" lon="11.5733937"><ele>580.0</ele><time>2026-04-26T12:44:01.195Z</time></trkpt><trkpt lat="42.9226414" lon="11.5732571"><ele>580.0</ele><time>2026-04-26T12:44:02.202Z</time></trkpt><trkpt lat="42.9226578" lon="11.5731202"><ele>580.0</ele><time>2026-04-26T12:44:03.193Z</time></trkpt><trkpt lat="42.9227195" lon="11.5729918"><ele>580.0</ele><time>2026-04-26T12:44:04.186Z</time></trkpt><trkpt lat="42.9228095" lon="11.5728823"><ele>580.0</ele><time>2026-04-26T12:44:05.194Z</time></trkpt><trkpt lat="42.9229221" lon="11.5727947"><ele>580.0</ele><time>2026-04-26T12:44:06.204Z</time></trkpt><trkpt lat="42.9230353" lon="11.5727141"><ele>580.0</ele><time>2026-04-26T12:44:07.195Z</time></trkpt><trkpt lat="42.923138" lon="11.5726312"><ele>577.8</ele><time>2026-04-26T12:44:08.194Z</time></trkpt><trkpt lat="42.9232036" lon="11.5725193"><ele>575.6</ele><time>2026-04-26T12:44:09.178Z</time></trkpt><trkpt lat="42.9232345" lon="11.5723895"><ele>573.4</ele><time>2026-04-26T12:44:10.187Z</time></trkpt><trkpt lat="42.923227" lon="11.5722554"><ele>571.2</ele><time>2026-04-26T12:44:11.197Z</time></trkpt><trkpt lat="42.9232115" lon="11.5721251"><ele>569.0</ele><time>2026-04-26T12:44:12.185Z</time></trkpt><trkpt lat="42.9231715" lon="11.5720213"><ele>569.0</ele><time>2026-04-26T12:44:13.193Z</time></trkpt><trkpt lat="42.9230998" lon="11.5719932"><ele>569.0</ele><time>2026-04-26T12:44:14.181Z</time></trkpt><trkpt lat="42.9229802" lon="11.572022"><ele>569.0</ele><time>2026-04-26T12:44:15.186Z</time></trkpt><trkpt lat="42.9228598" lon="11.5721177"><ele>569.0</ele><time>2026-04-26T12:44:16.172Z</time></trkpt><trkpt lat="42.9227433" lon="11.57223"><ele>569.0</ele><time>2026-04-26T12:44:17.194Z</time></trkpt><trkpt lat="42.9226309" lon="11.5723401"><ele>569.0</ele><time>2026-04-26T12:44:18.187Z</time></trkpt><trkpt lat="42.9225321" lon="11.5724247"><ele>569.0</ele><time>2026-04-26T12:44:19.18Z</time></trkpt><trkpt lat="42.9224373" lon="11.572488"><ele>569.0</ele><time>2026-04-26T12:44:20.184Z</time></trkpt><trkpt lat="42.9223384" lon="11.5725153"><ele>568.0</ele><time>2026-04-26T12:44:21.193Z</time></trkpt><trkpt lat="42.9222405" lon="11.5724928"><ele>567.0</ele><time>2026-04-26T12:44:22.188Z</time></trkpt><trkpt lat="42.9221412" lon="11.5724608"><ele>566.0</ele><time>2026-04-26T12:44:23.198Z</time></trkpt><trkpt lat="42.9220607" lon="11.5723549"><ele>565.0</ele><time>2026-04-26T12:44:24.175Z</time></trkpt><trkpt lat="42.9219943" lon="11.5722198"><ele>564.0</ele><time>2026-04-26T12:44:25.193Z</time></trkpt><trkpt lat="42.9219354" lon="11.5720651"><ele>560.75</ele><time>2026-04-26T12:44:26.186Z</time></trkpt><trkpt lat="42.9219079" lon="11.5718949"><ele>557.5</ele><time>2026-04-26T12:44:27.179Z</time></trkpt><trkpt lat="42.9218767" lon="11.5717358"><ele>554.25</ele><time>2026-04-26T12:44:28.189Z</time></trkpt><trkpt lat="42.9218502" lon="11.5715761"><ele>551.0</ele><time>2026-04-26T12:44:29.184Z</time></trkpt><trkpt lat="42.9218335" lon="11.5714176"><ele>551.0</ele><time>2026-04-26T12:44:30.187Z</time></trkpt><trkpt lat="42.9218427" lon="11.5712534"><ele>551.0</ele><time>2026-04-26T12:44:31.184Z</time></trkpt><trkpt lat="42.9218585" lon="11.5710885"><ele>551.0</ele><time>2026-04-26T12:44:32.19Z</time></trkpt><trkpt lat="42.9218642" lon="11.570916"><ele>551.0</ele><time>2026-04-26T12:44:33.191Z</time></trkpt><trkpt lat="42.921861" lon="11.5707467"><ele>549.0</ele><time>2026-04-26T12:44:34.187Z</time></trkpt><trkpt lat="42.921857" lon="11.5705843"><ele>547.0</ele><time>2026-04-26T12:44:35.193Z</time></trkpt><trkpt lat="42.9218526" lon="11.5704244"><ele>545.0</ele><time>2026-04-26T12:44:36.202Z</time></trkpt><trkpt lat="42.9218489" lon="11.5702727"><ele>543.0</ele><time>2026-04-26T12:44:37.187Z</time></trkpt><trkpt lat="42.921833" lon="11.5701324"><ele>542.0</ele><time>2026-04-26T12:44:38.194Z</time></trkpt><trkpt lat="42.9218142" lon="11.5699974"><ele>541.0</ele><time>2026-04-26T12:44:39.191Z</time></trkpt><trkpt lat="42.9217371" lon="11.5698971"><ele>540.0</ele><time>2026-04-26T12:44:40.188Z</time></trkpt><trkpt lat="42.9216432" lon="11.5698118"><ele>539.0</ele><time>2026-04-26T12:44:41.191Z</time></trkpt><trkpt lat="42.9215438" lon="11.5697296"><ele>538.0</ele><time>2026-04-26T12:44:42.194Z</time></trkpt><trkpt lat="42.9214437" lon="11.5696417"><ele>538.0</ele><time>2026-04-26T12:44:43.186Z</time></trkpt><trkpt lat="42.9213416" lon="11.5695476"><ele>538.0</ele><time>2026-04-26T12:44:44.173Z</time></trkpt><trkpt lat="42.9212513" lon="11.5694502"><ele>538.0</ele><time>2026-04-26T12:44:45.182Z</time></trkpt><trkpt lat="42.9211817" lon="11.5693339"><ele>538.0</ele><time>2026-04-26T12:44:46.196Z</time></trkpt><trkpt lat="42.9211314" lon="11.5691944"><ele>536.25</ele><time>2026-04-26T12:44:47.183Z</time></trkpt><trkpt lat="42.9210966" lon="11.5690463"><ele>534.5</ele><time>2026-04-26T12:44:48.197Z</time></trkpt><trkpt lat="42.921062" lon="11.5688977"><ele>532.75</ele><time>2026-04-26T12:44:49.196Z</time></trkpt><trkpt lat="42.9210475" lon="11.5687398"><ele>531.0</ele><time>2026-04-26T12:44:50.181Z</time></trkpt><trkpt lat="42.9210511" lon="11.5685788"><ele>530.5</ele><time>2026-04-26T12:44:51.201Z</time></trkpt><trkpt lat="42.9210672" lon="11.5684138"><ele>530.0</ele><time>2026-04-26T12:44:52.177Z</time></trkpt><trkpt lat="42.9210946" lon="11.5682444"><ele>529.5</ele><time>2026-04-26T12:44:53.195Z</time></trkpt><trkpt lat="42.9211304" lon="11.5680778"><ele>529.0</ele><time>2026-04-26T12:44:54.196Z</time></trkpt><trkpt lat="42.9211655" lon="11.5679138"><ele>527.0</ele><time>2026-04-26T12:44:55.191Z</time></trkpt><trkpt lat="42.9211958" lon="11.5677479"><ele>525.0</ele><time>2026-04-26T12:44:56.201Z</time></trkpt><trkpt lat="42.9212115" lon="11.5675841"><ele>523.0</ele><time>2026-04-26T12:44:57.179Z</time></trkpt><trkpt lat="42.9211905" lon="11.5674218"><ele>521.0</ele><time>2026-04-26T12:44:58.2Z</time></trkpt><trkpt lat="42.9211394" lon="11.5672662"><ele>521.0</ele><time>2026-04-26T12:44:59.203Z</time></trkpt><trkpt lat="42.9210909" lon="11.5671057"><ele>521.0</ele><time>2026-04-26T12:45:00.197Z</time></trkpt><trkpt lat="42.9210427" lon="11.5669426"><ele>521.0</ele><time>2026-04-26T12:45:01.2Z</time></trkpt><trkpt lat="42.921047" lon="11.5667634"><ele>521.0</ele><time>2026-04-26T12:45:02.189Z</time></trkpt><trkpt lat="42.92107" lon="11.5665825"><ele>518.75</ele><time>2026-04-26T12:45:03.193Z</time></trkpt><trkpt lat="42.9210993" lon="11.5663972"><ele>516.5</ele><time>2026-04-26T12:45:04.184Z</time></trkpt><trkpt lat="42.921131" lon="11.566211"><ele>514.25</ele><time>2026-04-26T12:45:05.19Z</time></trkpt><trkpt lat="42.9211707" lon="11.5660367"><ele>512.0</ele><time>2026-04-26T12:45:06.178Z</time></trkpt><trkpt lat="42.9212153" lon="11.565868"><ele>510.25</ele><time>2026-04-26T12:45:07.192Z</time></trkpt><trkpt lat="42.9212609" lon="11.5657024"><ele>508.5</ele><time>2026-04-26T12:45:08.186Z</time></trkpt><trkpt lat="42.9213137" lon="11.5655378"><ele>506.75</ele><time>2026-04-26T12:45:09.196Z</time></trkpt><trkpt lat="42.9213654" lon="11.5653748"><ele>505.0</ele><time>2026-04-26T12:45:10.18Z</time></trkpt><trkpt lat="42.9214135" lon="11.565219"><ele>502.8</ele><time>2026-04-26T12:45:11.196Z</time></trkpt><trkpt lat="42.9214585" lon="11.5650722"><ele>500.6</ele><time>2026-04-26T12:45:12.192Z</time></trkpt><trkpt lat="42.9214986" lon="11.5649432"><ele>498.4</ele><time>2026-04-26T12:45:13.175Z</time></trkpt><trkpt lat="42.9215841" lon="11.5648522"><ele>496.2</ele><time>2026-04-26T12:45:14.192Z</time></trkpt><trkpt lat="42.9216945" lon="11.5648048"><ele>494.0</ele><time>2026-04-26T12:45:15.183Z</time></trkpt><trkpt lat="42.9218211" lon="11.5647906"><ele>492.75</ele><time>2026-04-26T12:45:16.189Z</time></trkpt><trkpt lat="42.9219515" lon="11.5647778"><ele>491.5</ele><time>2026-04-26T12:45:17.19Z</time></trkpt><trkpt lat="42.922082" lon="11.5647758"><ele>490.25</ele><time>2026-04-26T12:45:18.185Z</time></trkpt><trkpt lat="42.9222111" lon="11.564781"><ele>489.0</ele><time>2026-04-26T12:45:19.19Z</time></trkpt><trkpt lat="42.9223364" lon="11.564801"><ele>489.0</ele><time>2026-04-26T12:45:20.184Z</time></trkpt><trkpt lat="42.9224433" lon="11.5648327"><ele>489.0</ele><time>2026-04-26T12:45:21.203Z</time></trkpt><trkpt lat="42.9225353" lon="11.5648497"><ele>489.0</ele><time>2026-04-26T12:45:22.197Z</time></trkpt><trkpt lat="42.9226121" lon="11.5648195"><ele>489.0</ele><time>2026-04-26T12:45:23.189Z</time></trkpt><trkpt lat="42.9226678" lon="11.5647444"><ele>489.0</ele><time>2026-04-26T12:45:24.182Z</time></trkpt><trkpt lat="42.9227009" lon="11.5646546"><ele>489.0</ele><time>2026-04-26T12:45:25.193Z</time></trkpt><trkpt lat="42.9227275" lon="11.5645222"><ele>486.6666666666667</ele><time>2026-04-26T12:45:27.197Z</time></trkpt><trkpt lat="42.92274" lon="11.5644223"><ele>484.33333333333337</ele><time>2026-04-26T12:45:30.197Z</time></trkpt><trkpt lat="42.9227508" lon="11.5643203"><ele>482.0</ele><time>2026-04-26T12:46:01.18Z</time></trkpt><trkpt lat="42.9228163" lon="11.5642191"><ele>479.6666666666667</ele><time>2026-04-26T12:46:03.203Z</time></trkpt><trkpt lat="42.9228801" lon="11.5641635"><ele>477.33333333333337</ele><time>2026-04-26T12:46:04.192Z</time></trkpt><trkpt lat="42.9229637" lon="11.5641129"><ele>475.0</ele><time>2026-04-26T12:46:05.178Z</time></trkpt><trkpt lat="42.9230605" lon="11.5640583"><ele>475.0</ele><time>2026-04-26T12:46:06.191Z</time></trkpt><trkpt lat="42.9231643" lon="11.563998"><ele>475.0</ele><time>2026-04-26T12:46:07.186Z</time></trkpt><trkpt lat="42.9232803" lon="11.5639295"><ele>475.0</ele><time>2026-04-26T12:46:08.199Z</time></trkpt><trkpt lat="42.9234014" lon="11.5638603"><ele>475.0</ele><time>2026-04-26T12:46:09.194Z</time></trkpt><trkpt lat="42.9235252" lon="11.5637825"><ele>473.75</ele><time>2026-04-26T12:46:10.178Z</time></trkpt><trkpt lat="42.9236519" lon="11.563708"><ele>472.5</ele><time>2026-04-26T12:46:11.199Z</time></trkpt><trkpt lat="42.9237796" lon="11.5636518"><ele>471.25</ele><time>2026-04-26T12:46:12.204Z</time></trkpt><trkpt lat="42.9239091" lon="11.5636264"><ele>470.0</ele><time>2026-04-26T12:46:13.178Z</time></trkpt><trkpt lat="42.9240407" lon="11.5636413"><ele>467.75</ele><time>2026-04-26T12:46:14.188Z</time></trkpt><trkpt lat="42.9241698" lon="11.5636968"><ele>465.5</ele><time>2026-04-26T12:46:15.197Z</time></trkpt><trkpt lat="42.9242952" lon="11.5637794"><ele>463.25</ele><time>2026-04-26T12:46:16.192Z</time></trkpt><trkpt lat="42.9244279" lon="11.5638625"><ele>461.0</ele><time>2026-04-26T12:46:17.19Z</time></trkpt><trkpt lat="42.9245647" lon="11.5639501"><ele>461.0</ele><time>2026-04-26T12:46:18.194Z</time></trkpt><trkpt lat="42.9246996" lon="11.5640458"><ele>461.0</ele><time>2026-04-26T12:46:19.199Z</time></trkpt><trkpt lat="42.9248345" lon="11.5641403"><ele>461.0</ele><time>2026-04-26T12:46:20.194Z</time></trkpt><trkpt lat="42.9249652" lon="11.5642356"><ele>461.0</ele><time>2026-04-26T12:46:21.191Z</time></trkpt><trkpt lat="42.9250918" lon="11.5643271"><ele>461.0</ele><time>2026-04-26T12:46:22.195Z</time></trkpt><trkpt lat="42.9252159" lon="11.5644118"><ele>461.0</ele><time>2026-04-26T12:46:23.184Z</time></trkpt><trkpt lat="42.9253369" lon="11.5644932"><ele>461.0</ele><time>2026-04-26T12:46:24.19Z</time></trkpt><trkpt lat="42.925453" lon="11.5645725"><ele>461.0</ele><time>2026-04-26T12:46:25.183Z</time></trkpt><trkpt lat="42.9255663" lon="11.5646487"><ele>461.0</ele><time>2026-04-26T12:46:26.183Z</time></trkpt><trkpt lat="42.9256854" lon="11.5647037"><ele>461.0</ele><time>2026-04-26T12:46:27.197Z</time></trkpt><trkpt lat="42.9258104" lon="11.5647424"><ele>461.0</ele><time>2026-04-26T12:46:28.195Z</time></trkpt><trkpt lat="42.9259356" lon="11.5647747"><ele>458.75</ele><time>2026-04-26T12:46:29.185Z</time></trkpt><trkpt lat="42.9260575" lon="11.5648065"><ele>456.5</ele><time>2026-04-26T12:46:30.198Z</time></trkpt><trkpt lat="42.9261773" lon="11.5648412"><ele>454.25</ele><time>2026-04-26T12:46:31.18Z</time></trkpt><trkpt lat="42.9262967" lon="11.5648731"><ele>452.0</ele><time>2026-04-26T12:46:32.197Z</time></trkpt><trkpt lat="42.9264216" lon="11.5649008"><ele>452.0</ele><time>2026-04-26T12:46:33.192Z</time></trkpt><trkpt lat="42.9265514" lon="11.5649082"><ele>452.0</ele><time>2026-04-26T12:46:34.175Z</time></trkpt><trkpt lat="42.9266826" lon="11.5649114"><ele>452.0</ele><time>2026-04-26T12:46:35.2Z</time></trkpt><trkpt lat="42.9268111" lon="11.5648673"><ele>452.0</ele><time>2026-04-26T12:46:36.194Z</time></trkpt><trkpt lat="42.9269273" lon="11.56473"><ele>451.66666666666663</ele><time>2026-04-26T12:46:37.183Z</time></trkpt><trkpt lat="42.9270434" lon="11.5645518"><ele>451.33333333333337</ele><time>2026-04-26T12:46:38.188Z</time></trkpt><trkpt lat="42.9271356" lon="11.5643475"><ele>451.0</ele><time>2026-04-26T12:46:39.194Z</time></trkpt><trkpt lat="42.9272027" lon="11.5641491"><ele>450.25</ele><time>2026-04-26T12:46:40.196Z</time></trkpt><trkpt lat="42.927267" lon="11.5639679"><ele>449.5</ele><time>2026-04-26T12:46:41.2Z</time></trkpt><trkpt lat="42.927325" lon="11.5637973"><ele>448.75</ele><time>2026-04-26T12:46:42.187Z</time></trkpt><trkpt lat="42.9273714" lon="11.5636361"><ele>448.0</ele><time>2026-04-26T12:46:43.188Z</time></trkpt><trkpt lat="42.9274244" lon="11.5634892"><ele>445.75</ele><time>2026-04-26T12:46:44.191Z</time></trkpt><trkpt lat="42.9274826" lon="11.5633512"><ele>443.5</ele><time>2026-04-26T12:46:45.191Z</time></trkpt><trkpt lat="42.9275423" lon="11.5632206"><ele>441.25</ele><time>2026-04-26T12:46:46.198Z</time></trkpt><trkpt lat="42.9276035" lon="11.5630919"><ele>439.0</ele><time>2026-04-26T12:46:47.193Z</time></trkpt><trkpt lat="42.9276782" lon="11.5629815"><ele>439.0</ele><time>2026-04-26T12:46:48.193Z</time></trkpt><trkpt lat="42.9277587" lon="11.5628735"><ele>439.0</ele><time>2026-04-26T12:46:49.196Z</time></trkpt><trkpt lat="42.9278381" lon="11.5627663"><ele>439.0</ele><time>2026-04-26T12:46:50.186Z</time></trkpt><trkpt lat="42.9279144" lon="11.5626513"><ele>439.0</ele><time>2026-04-26T12:46:51.196Z</time></trkpt><trkpt lat="42.9279819" lon="11.5625211"><ele>437.75</ele><time>2026-04-26T12:46:52.176Z</time></trkpt><trkpt lat="42.9280407" lon="11.5623827"><ele>436.5</ele><time>2026-04-26T12:46:53.198Z</time></trkpt><trkpt lat="42.9280979" lon="11.5622388"><ele>435.25</ele><time>2026-04-26T12:46:54.194Z</time></trkpt><trkpt lat="42.9281585" lon="11.5620927"><ele>434.0</ele><time>2026-04-26T12:46:55.188Z</time></trkpt><trkpt lat="42.9282164" lon="11.5619442"><ele>431.5</ele><time>2026-04-26T12:46:56.198Z</time></trkpt><trkpt lat="42.9282708" lon="11.5617945"><ele>429.0</ele><time>2026-04-26T12:46:57.19Z</time></trkpt><trkpt lat="42.9283193" lon="11.561648"><ele>426.5</ele><time>2026-04-26T12:46:58.201Z</time></trkpt><trkpt lat="42.9283607" lon="11.5615026"><ele>424.0</ele><time>2026-04-26T12:46:59.197Z</time></trkpt><trkpt lat="42.9283982" lon="11.5613595"><ele>423.2</ele><time>2026-04-26T12:47:00.18Z</time></trkpt><trkpt lat="42.9284325" lon="11.5612198"><ele>422.4</ele><time>2026-04-26T12:47:01.183Z</time></trkpt><trkpt lat="42.9284645" lon="11.561087"><ele>421.6</ele><time>2026-04-26T12:47:02.204Z</time></trkpt><trkpt lat="42.928497" lon="11.560961"><ele>420.8</ele><time>2026-04-26T12:47:03.195Z</time></trkpt><trkpt lat="42.9285323" lon="11.5608398"><ele>420.0</ele><time>2026-04-26T12:47:04.196Z</time></trkpt><trkpt lat="42.9285701" lon="11.5607277"><ele>419.3333333333333</ele><time>2026-04-26T12:47:05.197Z</time></trkpt><trkpt lat="42.9286154" lon="11.5606301"><ele>418.66666666666663</ele><time>2026-04-26T12:47:06.177Z</time></trkpt><trkpt lat="42.9286589" lon="11.5605372"><ele>418.0</ele><time>2026-04-26T12:47:07.2Z</time></trkpt><trkpt lat="42.9287363" lon="11.5604892"><ele>417.3333333333333</ele><time>2026-04-26T12:47:08.178Z</time></trkpt><trkpt lat="42.9288293" lon="11.5604641"><ele>416.66666666666663</ele><time>2026-04-26T12:47:09.194Z</time></trkpt><trkpt lat="42.9289287" lon="11.5604395"><ele>416.0</ele><time>2026-04-26T12:47:10.198Z</time></trkpt><trkpt lat="42.9290455" lon="11.5604441"><ele>416.0</ele><time>2026-04-26T12:47:11.202Z</time></trkpt><trkpt lat="42.9291646" lon="11.5604518"><ele>416.0</ele><time>2026-04-26T12:47:12.186Z</time></trkpt><trkpt lat="42.9292828" lon="11.5604612"><ele>416.0</ele><time>2026-04-26T12:47:13.196Z</time></trkpt><trkpt lat="42.9294018" lon="11.5604702"><ele>416.0</ele><time>2026-04-26T12:47:14.182Z</time></trkpt><trkpt lat="42.9295235" lon="11.5604791"><ele>415.25</ele><time>2026-04-26T12:47:15.194Z</time></trkpt><trkpt lat="42.9296493" lon="11.560486"><ele>414.5</ele><time>2026-04-26T12:47:16.195Z</time></trkpt><trkpt lat="42.9297813" lon="11.560493"><ele>413.75</ele><time>2026-04-26T12:47:17.2Z</time></trkpt><trkpt lat="42.9299178" lon="11.5604997"><ele>413.0</ele><time>2026-04-26T12:47:18.184Z</time></trkpt><trkpt lat="42.9300567" lon="11.5605057"><ele>410.75</ele><time>2026-04-26T12:47:19.192Z</time></trkpt><trkpt lat="42.9301972" lon="11.560513"><ele>408.5</ele><time>2026-04-26T12:47:20.2Z</time></trkpt><trkpt lat="42.9303383" lon="11.5605216"><ele>406.25</ele><time>2026-04-26T12:47:21.189Z</time></trkpt><trkpt lat="42.9304817" lon="11.5605299"><ele>404.0</ele><time>2026-04-26T12:47:22.188Z</time></trkpt><trkpt lat="42.9306257" lon="11.5605367"><ele>404.0</ele><time>2026-04-26T12:47:23.199Z</time></trkpt><trkpt lat="42.9307683" lon="11.5605435"><ele>404.0</ele><time>2026-04-26T12:47:24.193Z</time></trkpt><trkpt lat="42.9309088" lon="11.5605507"><ele>404.0</ele><time>2026-04-26T12:47:25.189Z</time></trkpt><trkpt lat="42.9310468" lon="11.5605579"><ele>404.0</ele><time>2026-04-26T12:47:26.199Z</time></trkpt><trkpt lat="42.9311864" lon="11.5605647"><ele>402.75</ele><time>2026-04-26T12:47:27.187Z</time></trkpt><trkpt lat="42.9313286" lon="11.5605695"><ele>401.5</ele><time>2026-04-26T12:47:28.186Z</time></trkpt><trkpt lat="42.931474" lon="11.5605772"><ele>400.25</ele><time>2026-04-26T12:47:29.174Z</time></trkpt><trkpt lat="42.9316202" lon="11.5605712"><ele>399.0</ele><time>2026-04-26T12:47:30.182Z</time></trkpt><trkpt lat="42.9317663" lon="11.5605328"><ele>396.25</ele><time>2026-04-26T12:47:31.189Z</time></trkpt><trkpt lat="42.9319067" lon="11.5604763"><ele>393.5</ele><time>2026-04-26T12:47:32.177Z</time></trkpt><trkpt lat="42.9320404" lon="11.560414"><ele>390.75</ele><time>2026-04-26T12:47:33.178Z</time></trkpt><trkpt lat="42.9321616" lon="11.5603306"><ele>388.0</ele><time>2026-04-26T12:47:34.191Z</time></trkpt><trkpt lat="42.9322593" lon="11.5602083"><ele>387.25</ele><time>2026-04-26T12:47:35.179Z</time></trkpt><trkpt lat="42.9323296" lon="11.560058"><ele>386.5</ele><time>2026-04-26T12:47:36.176Z</time></trkpt><trkpt lat="42.9323667" lon="11.5598801"><ele>385.75</ele><time>2026-04-26T12:47:37.184Z</time></trkpt><trkpt lat="42.9324199" lon="11.5597038"><ele>385.0</ele><time>2026-04-26T12:47:38.174Z</time></trkpt><trkpt lat="42.932448" lon="11.5595033"><ele>384.33333333333337</ele><time>2026-04-26T12:47:39.191Z</time></trkpt><trkpt lat="42.9324448" lon="11.5592858"><ele>383.6666666666667</ele><time>2026-04-26T12:47:40.181Z</time></trkpt><trkpt lat="42.9324465" lon="11.5590798"><ele>383.0</ele><time>2026-04-26T12:47:41.182Z</time></trkpt><trkpt lat="42.932459" lon="11.5588797"><ele>383.0</ele><time>2026-04-26T12:47:42.189Z</time></trkpt><trkpt lat="42.9324832" lon="11.5586842"><ele>383.0</ele><time>2026-04-26T12:47:43.195Z</time></trkpt><trkpt lat="42.9325171" lon="11.5584893"><ele>383.0</ele><time>2026-04-26T12:47:44.181Z</time></trkpt><trkpt lat="42.9325568" lon="11.5582962"><ele>383.0</ele><time>2026-04-26T12:47:45.189Z</time></trkpt><trkpt lat="42.932603" lon="11.5581045"><ele>379.75</ele><time>2026-04-26T12:47:46.195Z</time></trkpt><trkpt lat="42.9326525" lon="11.5579195"><ele>376.5</ele><time>2026-04-26T12:47:47.188Z</time></trkpt><trkpt lat="42.9327034" lon="11.5577403"><ele>373.25</ele><time>2026-04-26T12:47:48.183Z</time></trkpt><trkpt lat="42.9327441" lon="11.5575647"><ele>370.0</ele><time>2026-04-26T12:47:49.172Z</time></trkpt><trkpt lat="42.9327649" lon="11.5573865"><ele>368.25</ele><time>2026-04-26T12:47:50.191Z</time></trkpt><trkpt lat="42.9327586" lon="11.5571989"><ele>366.5</ele><time>2026-04-26T12:47:51.184Z</time></trkpt><trkpt lat="42.9327281" lon="11.5570073"><ele>364.75</ele><time>2026-04-26T12:47:52.201Z</time></trkpt><trkpt lat="42.9326788" lon="11.5568177"><ele>363.0</ele><time>2026-04-26T12:47:53.187Z</time></trkpt><trkpt lat="42.9326296" lon="11.5566289"><ele>363.0</ele><time>2026-04-26T12:47:54.174Z</time></trkpt><trkpt lat="42.9325706" lon="11.5564417"><ele>363.0</ele><time>2026-04-26T12:47:55.183Z</time></trkpt><trkpt lat="42.9324755" lon="11.556254"><ele>363.0</ele><time>2026-04-26T12:47:56.193Z</time></trkpt><trkpt lat="42.9323981" lon="11.5560567"><ele>363.0</ele><time>2026-04-26T12:47:57.202Z</time></trkpt><trkpt lat="42.932346" lon="11.5558525"><ele>363.0</ele><time>2026-04-26T12:47:58.187Z</time></trkpt><trkpt lat="42.9323207" lon="11.5556477"><ele>363.0</ele><time>2026-04-26T12:47:59.185Z</time></trkpt><trkpt lat="42.932317" lon="11.5554458"><ele>363.25</ele><time>2026-04-26T12:48:00.184Z</time></trkpt><trkpt lat="42.9323348" lon="11.5552497"><ele>363.5</ele><time>2026-04-26T12:48:01.2Z</time></trkpt><trkpt lat="42.9323775" lon="11.5550692"><ele>363.75</ele><time>2026-04-26T12:48:02.19Z</time></trkpt><trkpt lat="42.9324118" lon="11.5549132"><ele>364.0</ele><time>2026-04-26T12:48:03.194Z</time></trkpt><trkpt lat="42.9324531" lon="11.5548161"><ele>364.0</ele><time>2026-04-26T12:48:04.191Z</time></trkpt><trkpt lat="42.9325029" lon="11.5547522"><ele>364.0</ele><time>2026-04-26T12:48:05.183Z</time></trkpt><trkpt lat="42.9325674" lon="11.5547427"><ele>364.0</ele><time>2026-04-26T12:48:06.182Z</time></trkpt><trkpt lat="42.9326378" lon="11.5547396"><ele>364.0</ele><time>2026-04-26T12:48:07.199Z</time></trkpt><trkpt lat="42.9327086" lon="11.5548235"><ele>364.0</ele><time>2026-04-26T12:48:08.188Z</time></trkpt><trkpt lat="42.9327913" lon="11.5549183"><ele>364.0</ele><time>2026-04-26T12:48:09.187Z</time></trkpt><trkpt lat="42.9328974" lon="11.5550051"><ele>366.25</ele><time>2026-04-26T12:48:10.182Z</time></trkpt><trkpt lat="42.9330213" lon="11.555071"><ele>368.5</ele><time>2026-04-26T12:48:11.198Z</time></trkpt><trkpt lat="42.9331584" lon="11.5551189"><ele>370.75</ele><time>2026-04-26T12:48:12.182Z</time></trkpt><trkpt lat="42.9333038" lon="11.5551584"><ele>373.0</ele><time>2026-04-26T12:48:13.2Z</time></trkpt><trkpt lat="42.9334522" lon="11.5552146"><ele>374.0</ele><time>2026-04-26T12:48:14.199Z</time></trkpt><trkpt lat="42.9335904" lon="11.5553027"><ele>375.0</ele><time>2026-04-26T12:48:15.182Z</time></trkpt><trkpt lat="42.9337204" lon="11.555425"><ele>376.0</ele><time>2026-04-26T12:48:16.185Z</time></trkpt><trkpt lat="42.9338342" lon="11.5555778"><ele>376.0</ele><time>2026-04-26T12:48:17.198Z</time></trkpt><trkpt lat="42.9339348" lon="11.5557539"><ele>376.0</ele><time>2026-04-26T12:48:18.188Z</time></trkpt><trkpt lat="42.9340373" lon="11.5559229"><ele>376.0</ele><time>2026-04-26T12:48:19.199Z</time></trkpt><trkpt lat="42.9341535" lon="11.5560595"><ele>377.75</ele><time>2026-04-26T12:48:20.19Z</time></trkpt><trkpt lat="42.934282" lon="11.5561368"><ele>379.5</ele><time>2026-04-26T12:48:21.188Z</time></trkpt><trkpt lat="42.9344214" lon="11.556156"><ele>381.25</ele><time>2026-04-26T12:48:22.193Z</time></trkpt><trkpt lat="42.9345705" lon="11.5561464"><ele>383.0</ele><time>2026-04-26T12:48:23.188Z</time></trkpt><trkpt lat="42.9347283" lon="11.5561386"><ele>383.0</ele><time>2026-04-26T12:48:24.2Z</time></trkpt><trkpt lat="42.9348884" lon="11.5561366"><ele>383.0</ele><time>2026-04-26T12:48:25.183Z</time></trkpt><trkpt lat="42.9350474" lon="11.556137"><ele>383.0</ele><time>2026-04-26T12:48:26.195Z</time></trkpt><trkpt lat="42.9352021" lon="11.5561353"><ele>382.75</ele><time>2026-04-26T12:48:27.19Z</time></trkpt><trkpt lat="42.9353492" lon="11.5561353"><ele>382.5</ele><time>2026-04-26T12:48:28.198Z</time></trkpt><trkpt lat="42.9354856" lon="11.5561545"><ele>382.25</ele><time>2026-04-26T12:48:29.194Z</time></trkpt><trkpt lat="42.9356215" lon="11.556184"><ele>382.0</ele><time>2026-04-26T12:48:30.196Z</time></trkpt><trkpt lat="42.9357403" lon="11.5562999"><ele>382.0</ele><time>2026-04-26T12:48:31.183Z</time></trkpt><trkpt lat="42.9358516" lon="11.5564404"><ele>382.0</ele><time>2026-04-26T12:48:32.178Z</time></trkpt><trkpt lat="42.9359619" lon="11.5565926"><ele>382.0</ele><time>2026-04-26T12:48:33.191Z</time></trkpt><trkpt lat="42.9360745" lon="11.5567519"><ele>383.66666666666663</ele><time>2026-04-26T12:48:34.193Z</time></trkpt><trkpt lat="42.9361835" lon="11.5569184"><ele>385.3333333333333</ele><time>2026-04-26T12:48:35.187Z</time></trkpt><trkpt lat="42.9362929" lon="11.5570857"><ele>387.0</ele><time>2026-04-26T12:48:36.195Z</time></trkpt><trkpt lat="42.9364023" lon="11.5572451"><ele>387.0</ele><time>2026-04-26T12:48:37.185Z</time></trkpt><trkpt lat="42.9365193" lon="11.5573824"><ele>387.0</ele><time>2026-04-26T12:48:38.185Z</time></trkpt><trkpt lat="42.9366536" lon="11.5574833"><ele>387.0</ele><time>2026-04-26T12:48:39.196Z</time></trkpt><trkpt lat="42.9367897" lon="11.5575687"><ele>388.0</ele><time>2026-04-26T12:48:40.19Z</time></trkpt><trkpt lat="42.9369339" lon="11.5576132"><ele>389.0</ele><time>2026-04-26T12:48:41.201Z</time></trkpt><trkpt lat="42.9370603" lon="11.5576413"><ele>390.0</ele><time>2026-04-26T12:48:42.179Z</time></trkpt><trkpt lat="42.9371755" lon="11.5576156"><ele>391.0</ele><time>2026-04-26T12:48:43.187Z</time></trkpt><trkpt lat="42.937274" lon="11.5575219"><ele>391.0</ele><time>2026-04-26T12:48:44.182Z</time></trkpt><trkpt lat="42.9373698" lon="11.5573869"><ele>391.0</ele><time>2026-04-26T12:48:45.197Z</time></trkpt><trkpt lat="42.9374845" lon="11.5572534"><ele>391.0</ele><time>2026-04-26T12:48:46.191Z</time></trkpt><trkpt lat="42.9376233" lon="11.5571495"><ele>391.0</ele><time>2026-04-26T12:48:47.18Z</time></trkpt><trkpt lat="42.9377563" lon="11.5570897"><ele>394.20000000000005</ele><time>2026-04-26T12:48:48.196Z</time></trkpt><trkpt lat="42.9378704" lon="11.557047"><ele>397.40000000000003</ele><time>2026-04-26T12:48:49.178Z</time></trkpt><trkpt lat="42.937962" lon="11.5570716"><ele>400.6</ele><time>2026-04-26T12:48:50.188Z</time></trkpt><trkpt lat="42.9380088" lon="11.5571779"><ele>403.8</ele><time>2026-04-26T12:48:51.18Z</time></trkpt><trkpt lat="42.9380271" lon="11.5573315"><ele>407.0</ele><time>2026-04-26T12:48:52.183Z</time></trkpt><trkpt lat="42.9380317" lon="11.5575134"><ele>407.0</ele><time>2026-04-26T12:48:53.19Z</time></trkpt><trkpt lat="42.9380559" lon="11.5576948"><ele>407.0</ele><time>2026-04-26T12:48:54.18Z</time></trkpt><trkpt lat="42.9381267" lon="11.5578569"><ele>407.0</ele><time>2026-04-26T12:48:55.195Z</time></trkpt><trkpt lat="42.938243" lon="11.5579827"><ele>407.0</ele><time>2026-04-26T12:48:56.177Z</time></trkpt><trkpt lat="42.9383974" lon="11.5580629"><ele>407.0</ele><time>2026-04-26T12:48:57.181Z</time></trkpt><trkpt lat="42.9385762" lon="11.5581042"><ele>407.0</ele><time>2026-04-26T12:48:58.201Z</time></trkpt><trkpt lat="42.9387665" lon="11.5581364"><ele>407.0</ele><time>2026-04-26T12:48:59.193Z</time></trkpt><trkpt lat="42.938969" lon="11.5581884"><ele>407.0</ele><time>2026-04-26T12:49:00.193Z</time></trkpt><trkpt lat="42.9391806" lon="11.5582622"><ele>407.0</ele><time>2026-04-26T12:49:01.18Z</time></trkpt><trkpt lat="42.9393964" lon="11.558342"><ele>407.0</ele><time>2026-04-26T12:49:02.191Z</time></trkpt><trkpt lat="42.939621" lon="11.5584194"><ele>410.0</ele><time>2026-04-26T12:49:03.183Z</time></trkpt><trkpt lat="42.9398476" lon="11.5584954"><ele>413.0</ele><time>2026-04-26T12:49:04.196Z</time></trkpt><trkpt lat="42.9400699" lon="11.55857"><ele>413.66666666666663</ele><time>2026-04-26T12:49:05.192Z</time></trkpt><trkpt lat="42.9402871" lon="11.558643"><ele>414.33333333333337</ele><time>2026-04-26T12:49:06.175Z</time></trkpt><trkpt lat="42.9405019" lon="11.5587145"><ele>415.0</ele><time>2026-04-26T12:49:07.199Z</time></trkpt><trkpt lat="42.9407115" lon="11.5587843"><ele>417.6666666666667</ele><time>2026-04-26T12:49:08.201Z</time></trkpt><trkpt lat="42.9409082" lon="11.5588563"><ele>420.33333333333337</ele><time>2026-04-26T12:49:09.188Z</time></trkpt><trkpt lat="42.9410897" lon="11.5589442"><ele>423.0</ele><time>2026-04-26T12:49:10.205Z</time></trkpt><trkpt lat="42.9412547" lon="11.559054"><ele>423.0</ele><time>2026-04-26T12:49:11.184Z</time></trkpt><trkpt lat="42.9414119" lon="11.559173"><ele>423.0</ele><time>2026-04-26T12:49:12.197Z</time></trkpt><trkpt lat="42.9415685" lon="11.5592873"><ele>423.0</ele><time>2026-04-26T12:49:13.2Z</time></trkpt><trkpt lat="42.9417299" lon="11.559399"><ele>423.66666666666663</ele><time>2026-04-26T12:49:14.179Z</time></trkpt><trkpt lat="42.941885" lon="11.5595108"><ele>424.3333333333333</ele><time>2026-04-26T12:49:15.181Z</time></trkpt><trkpt lat="42.9420364" lon="11.5596249"><ele>425.0</ele><time>2026-04-26T12:49:16.19Z</time></trkpt><trkpt lat="42.9421855" lon="11.5597514"><ele>425.0</ele><time>2026-04-26T12:49:17.184Z</time></trkpt><trkpt lat="42.9423274" lon="11.5598919"><ele>425.0</ele><time>2026-04-26T12:49:18.2Z</time></trkpt><trkpt lat="42.9424632" lon="11.5600322"><ele>425.0</ele><time>2026-04-26T12:49:19.188Z</time></trkpt><trkpt lat="42.9425977" lon="11.5601561"><ele>427.3333333333333</ele><time>2026-04-26T12:49:20.184Z</time></trkpt><trkpt lat="42.9427379" lon="11.5602514"><ele>429.66666666666663</ele><time>2026-04-26T12:49:21.2Z</time></trkpt><trkpt lat="42.9428902" lon="11.5602996"><ele>432.0</ele><time>2026-04-26T12:49:22.188Z</time></trkpt><trkpt lat="42.9430491" lon="11.5602889"><ele>432.0</ele><time>2026-04-26T12:49:23.189Z</time></trkpt><trkpt lat="42.9432051" lon="11.5602315"><ele>432.0</ele><time>2026-04-26T12:49:24.196Z</time></trkpt><trkpt lat="42.9433642" lon="11.5601556"><ele>432.0</ele><time>2026-04-26T12:49:25.198Z</time></trkpt><trkpt lat="42.9435175" lon="11.560048"><ele>431.66666666666663</ele><time>2026-04-26T12:49:26.184Z</time></trkpt><trkpt lat="42.9436713" lon="11.5599373"><ele>431.3333333333333</ele><time>2026-04-26T12:49:27.18Z</time></trkpt><trkpt lat="42.9438165" lon="11.5598247"><ele>431.0</ele><time>2026-04-26T12:49:28.202Z</time></trkpt><trkpt lat="42.9439488" lon="11.5597161"><ele>431.0</ele><time>2026-04-26T12:49:29.189Z</time></trkpt><trkpt lat="42.9440792" lon="11.5596219"><ele>431.0</ele><time>2026-04-26T12:49:30.192Z</time></trkpt><trkpt lat="42.944214" lon="11.5595603"><ele>431.0</ele><time>2026-04-26T12:49:31.194Z</time></trkpt><trkpt lat="42.9443665" lon="11.559563"><ele>431.0</ele><time>2026-04-26T12:49:32.185Z</time></trkpt><trkpt lat="42.9445102" lon="11.5595906"><ele>435.0</ele><time>2026-04-26T12:49:33.18Z</time></trkpt><trkpt lat="42.9446449" lon="11.5596641"><ele>439.0</ele><time>2026-04-26T12:49:34.184Z</time></trkpt><trkpt lat="42.9447691" lon="11.5597821"><ele>443.0</ele><time>2026-04-26T12:49:35.198Z</time></trkpt><trkpt lat="42.9448824" lon="11.5599324"><ele>443.0</ele><time>2026-04-26T12:49:36.194Z</time></trkpt><trkpt lat="42.9449948" lon="11.5601"><ele>443.0</ele><time>2026-04-26T12:49:37.199Z</time></trkpt><trkpt lat="42.9451029" lon="11.5602785"><ele>443.0</ele><time>2026-04-26T12:49:38.184Z</time></trkpt><trkpt lat="42.9452062" lon="11.5604609"><ele>446.3333333333333</ele><time>2026-04-26T12:49:39.196Z</time></trkpt><trkpt lat="42.9452992" lon="11.5606539"><ele>449.66666666666663</ele><time>2026-04-26T12:49:40.187Z</time></trkpt><trkpt lat="42.9453879" lon="11.5608477"><ele>453.0</ele><time>2026-04-26T12:49:41.187Z</time></trkpt><trkpt lat="42.9454841" lon="11.5610355"><ele>450.0</ele><time>2026-04-26T12:49:42.184Z</time></trkpt><trkpt lat="42.9455922" lon="11.5612115"><ele>447.0</ele><time>2026-04-26T12:49:43.198Z</time></trkpt><trkpt lat="42.9457165" lon="11.561371"><ele>444.0</ele><time>2026-04-26T12:49:44.192Z</time></trkpt><trkpt lat="42.9458523" lon="11.5615126"><ele>449.33333333333337</ele><time>2026-04-26T12:49:45.203Z</time></trkpt><trkpt lat="42.9459906" lon="11.5616442"><ele>454.6666666666667</ele><time>2026-04-26T12:49:46.203Z</time></trkpt><trkpt lat="42.9461236" lon="11.5617713"><ele>460.0</ele><time>2026-04-26T12:49:47.179Z</time></trkpt><trkpt lat="42.946247" lon="11.5618887"><ele>460.0</ele><time>2026-04-26T12:49:48.188Z</time></trkpt><trkpt lat="42.946369" lon="11.5619871"><ele>460.0</ele><time>2026-04-26T12:49:49.191Z</time></trkpt><trkpt lat="42.9464977" lon="11.5620604"><ele>460.0</ele><time>2026-04-26T12:49:50.202Z</time></trkpt><trkpt lat="42.9466365" lon="11.5621016"><ele>460.0</ele><time>2026-04-26T12:49:51.193Z</time></trkpt><trkpt lat="42.9467791" lon="11.5621302"><ele>462.6666666666667</ele><time>2026-04-26T12:49:52.191Z</time></trkpt><trkpt lat="42.9469318" lon="11.5621028"><ele>465.33333333333337</ele><time>2026-04-26T12:49:53.197Z</time></trkpt><trkpt lat="42.9470872" lon="11.5620627"><ele>468.0</ele><time>2026-04-26T12:49:54.188Z</time></trkpt><trkpt lat="42.9472463" lon="11.562022"><ele>468.0</ele><time>2026-04-26T12:49:55.201Z</time></trkpt><trkpt lat="42.9474056" lon="11.561989"><ele>468.0</ele><time>2026-04-26T12:49:56.197Z</time></trkpt><trkpt lat="42.9475694" lon="11.5619609"><ele>468.0</ele><time>2026-04-26T12:49:57.201Z</time></trkpt><trkpt lat="42.9477357" lon="11.5619422"><ele>467.0</ele><time>2026-04-26T12:49:58.192Z</time></trkpt><trkpt lat="42.9478979" lon="11.5619584"><ele>466.0</ele><time>2026-04-26T12:49:59.195Z</time></trkpt><trkpt lat="42.9480503" lon="11.5620043"><ele>465.0</ele><time>2026-04-26T12:50:00.188Z</time></trkpt><trkpt lat="42.9481882" lon="11.5620711"><ele>465.0</ele><time>2026-04-26T12:50:01.189Z</time></trkpt><trkpt lat="42.9483102" lon="11.5621653"><ele>465.0</ele><time>2026-04-26T12:50:02.198Z</time></trkpt><trkpt lat="42.9484181" lon="11.5622937"><ele>465.0</ele><time>2026-04-26T12:50:03.201Z</time></trkpt><trkpt lat="42.9485108" lon="11.5624407"><ele>465.0</ele><time>2026-04-26T12:50:04.199Z</time></trkpt><trkpt lat="42.9485993" lon="11.5625808"><ele>468.5</ele><time>2026-04-26T12:50:05.193Z</time></trkpt><trkpt lat="42.9487044" lon="11.5626937"><ele>472.0</ele><time>2026-04-26T12:50:06.203Z</time></trkpt><trkpt lat="42.9488141" lon="11.5627991"><ele>475.5</ele><time>2026-04-26T12:50:07.195Z</time></trkpt><trkpt lat="42.9489622" lon="11.5628275"><ele>479.0</ele><time>2026-04-26T12:50:08.182Z</time></trkpt><trkpt lat="42.9491151" lon="11.5628352"><ele>482.5</ele><time>2026-04-26T12:50:09.192Z</time></trkpt><trkpt lat="42.9492651" lon="11.5628443"><ele>486.0</ele><time>2026-04-26T12:50:10.183Z</time></trkpt><trkpt lat="42.9494015" lon="11.5628756"><ele>489.5</ele><time>2026-04-26T12:50:11.192Z</time></trkpt><trkpt lat="42.9495276" lon="11.5629119"><ele>493.0</ele><time>2026-04-26T12:50:12.182Z</time></trkpt><trkpt lat="42.9496321" lon="11.5630251"><ele>493.0</ele><time>2026-04-26T12:50:13.184Z</time></trkpt><trkpt lat="42.9496839" lon="11.5631898"><ele>493.0</ele><time>2026-04-26T12:50:14.192Z</time></trkpt><trkpt lat="42.949716" lon="11.5633544"><ele>493.0</ele><time>2026-04-26T12:50:15.2Z</time></trkpt><trkpt lat="42.9497485" lon="11.5635126"><ele>493.0</ele><time>2026-04-26T12:50:16.186Z</time></trkpt><trkpt lat="42.9498127" lon="11.5636669"><ele>494.33333333333337</ele><time>2026-04-26T12:50:17.189Z</time></trkpt><trkpt lat="42.9499338" lon="11.5637747"><ele>495.66666666666663</ele><time>2026-04-26T12:50:18.195Z</time></trkpt><trkpt lat="42.9500677" lon="11.5638905"><ele>497.0</ele><time>2026-04-26T12:50:19.198Z</time></trkpt><trkpt lat="42.9501962" lon="11.5640178"><ele>497.0</ele><time>2026-04-26T12:50:20.188Z</time></trkpt><trkpt lat="42.9503221" lon="11.5641474"><ele>497.0</ele><time>2026-04-26T12:50:21.189Z</time></trkpt><trkpt lat="42.9504429" lon="11.564276"><ele>497.0</ele><time>2026-04-26T12:50:22.191Z</time></trkpt><trkpt lat="42.9505686" lon="11.5644101"><ele>496.66666666666663</ele><time>2026-04-26T12:50:23.185Z</time></trkpt><trkpt lat="42.95069" lon="11.5645454"><ele>496.33333333333337</ele><time>2026-04-26T12:50:24.182Z</time></trkpt><trkpt lat="42.9508064" lon="11.564676"><ele>496.0</ele><time>2026-04-26T12:50:25.205Z</time></trkpt><trkpt lat="42.9509097" lon="11.5648114"><ele>496.0</ele><time>2026-04-26T12:50:26.201Z</time></trkpt><trkpt lat="42.9510045" lon="11.5649489"><ele>496.0</ele><time>2026-04-26T12:50:27.186Z</time></trkpt><trkpt lat="42.9510915" lon="11.56509"><ele>496.0</ele><time>2026-04-26T12:50:28.195Z</time></trkpt><trkpt lat="42.9511661" lon="11.5652337"><ele>496.0</ele><time>2026-04-26T12:50:29.202Z</time></trkpt><trkpt lat="42.9512284" lon="11.5653729"><ele>495.6</ele><time>2026-04-26T12:50:30.189Z</time></trkpt><trkpt lat="42.9512897" lon="11.565505"><ele>495.20000000000005</ele><time>2026-04-26T12:50:31.198Z</time></trkpt><trkpt lat="42.9513487" lon="11.5656328"><ele>494.79999999999995</ele><time>2026-04-26T12:50:32.192Z</time></trkpt><trkpt lat="42.9514068" lon="11.5657531"><ele>494.4</ele><time>2026-04-26T12:50:33.19Z</time></trkpt><trkpt lat="42.9514622" lon="11.5658649"><ele>494.0</ele><time>2026-04-26T12:50:34.195Z</time></trkpt><trkpt lat="42.9515136" lon="11.5659701"><ele>493.99999999999994</ele><time>2026-04-26T12:50:35.195Z</time></trkpt><trkpt lat="42.951561" lon="11.5660683"><ele>494.0</ele><time>2026-04-26T12:50:36.182Z</time></trkpt><trkpt lat="42.9516038" lon="11.5661614"><ele>494.0</ele><time>2026-04-26T12:50:37.199Z</time></trkpt><trkpt lat="42.9516379" lon="11.5662488"><ele>494.0</ele><time>2026-04-26T12:50:38.193Z</time></trkpt><trkpt lat="42.9516571" lon="11.5663362"><ele>493.99999999999994</ele><time>2026-04-26T12:50:39.198Z</time></trkpt><trkpt lat="42.9516719" lon="11.5664877"><ele>494.0</ele><time>2026-04-26T12:50:41.182Z</time></trkpt><trkpt lat="42.9516806" lon="11.5666075"><ele>494.0</ele><time>2026-04-26T12:50:43.185Z</time></trkpt><trkpt lat="42.9516887" lon="11.566729"><ele>494.0</ele><time>2026-04-26T12:50:45.193Z</time></trkpt><trkpt lat="42.9516956" lon="11.5668555"><ele>494.0</ele><time>2026-04-26T12:50:47.198Z</time></trkpt><trkpt lat="42.9517201" lon="11.5669659"><ele>494.0</ele><time>2026-04-26T12:50:49.189Z</time></trkpt><trkpt lat="42.9517541" lon="11.567078"><ele>494.0</ele><time>2026-04-26T12:50:51.185Z</time></trkpt><trkpt lat="42.9517951" lon="11.5672303"><ele>493.99999999999994</ele><time>2026-04-26T12:50:53.191Z</time></trkpt><trkpt lat="42.9518276" lon="11.5673222"><ele>494.0</ele><time>2026-04-26T12:50:54.178Z</time></trkpt><trkpt lat="42.9518648" lon="11.5674207"><ele>494.0</ele><time>2026-04-26T12:50:55.199Z</time></trkpt><trkpt lat="42.9519017" lon="11.5675194"><ele>494.0</ele><time>2026-04-26T12:50:56.185Z</time></trkpt><trkpt lat="42.9519402" lon="11.5676163"><ele>493.99999999999994</ele><time>2026-04-26T12:50:57.199Z</time></trkpt><trkpt lat="42.9519845" lon="11.5677108"><ele>494.0</ele><time>2026-04-26T12:50:58.193Z</time></trkpt><trkpt lat="42.95203" lon="11.5678112"><ele>495.79999999999995</ele><time>2026-04-26T12:50:59.194Z</time></trkpt><trkpt lat="42.9520773" lon="11.567918"><ele>497.59999999999997</ele><time>2026-04-26T12:51:00.198Z</time></trkpt><trkpt lat="42.9521254" lon="11.5680342"><ele>499.4</ele><time>2026-04-26T12:51:01.2Z</time></trkpt><trkpt lat="42.9521721" lon="11.5681646"><ele>501.2</ele><time>2026-04-26T12:51:02.202Z</time></trkpt><trkpt lat="42.9522103" lon="11.5683071"><ele>503.0</ele><time>2026-04-26T12:51:03.196Z</time></trkpt><trkpt lat="42.952235" lon="11.5684587"><ele>503.0</ele><time>2026-04-26T12:51:04.183Z</time></trkpt><trkpt lat="42.9522523" lon="11.568617"><ele>503.0</ele><time>2026-04-26T12:51:05.187Z</time></trkpt><trkpt lat="42.9522661" lon="11.5687712"><ele>503.0</ele><time>2026-04-26T12:51:06.192Z</time></trkpt><trkpt lat="42.9522781" lon="11.56892"><ele>503.0</ele><time>2026-04-26T12:51:07.185Z</time></trkpt><trkpt lat="42.9522828" lon="11.5690692"><ele>504.4</ele><time>2026-04-26T12:51:08.203Z</time></trkpt><trkpt lat="42.95228" lon="11.5692141"><ele>505.79999999999995</ele><time>2026-04-26T12:51:09.191Z</time></trkpt><trkpt lat="42.9522677" lon="11.5693449"><ele>507.2</ele><time>2026-04-26T12:51:10.193Z</time></trkpt><trkpt lat="42.9522547" lon="11.5694643"><ele>508.6</ele><time>2026-04-26T12:51:11.189Z</time></trkpt><trkpt lat="42.9522473" lon="11.5695783"><ele>510.0</ele><time>2026-04-26T12:51:12.183Z</time></trkpt><trkpt lat="42.9522455" lon="11.5696918"><ele>511.2</ele><time>2026-04-26T12:51:13.199Z</time></trkpt><trkpt lat="42.9522539" lon="11.5698074"><ele>512.4</ele><time>2026-04-26T12:51:14.193Z</time></trkpt><trkpt lat="42.9522769" lon="11.5699263"><ele>513.6</ele><time>2026-04-26T12:51:15.198Z</time></trkpt><trkpt lat="42.9523095" lon="11.5700548"><ele>514.8</ele><time>2026-04-26T12:51:16.207Z</time></trkpt><trkpt lat="42.9523374" lon="11.5701825"><ele>516.0</ele><time>2026-04-26T12:51:17.187Z</time></trkpt><trkpt lat="42.9523565" lon="11.5703044"><ele>517.6</ele><time>2026-04-26T12:51:18.193Z</time></trkpt><trkpt lat="42.952375" lon="11.5704197"><ele>519.2</ele><time>2026-04-26T12:51:19.182Z</time></trkpt><trkpt lat="42.9524098" lon="11.5705289"><ele>520.8</ele><time>2026-04-26T12:51:20.179Z</time></trkpt><trkpt lat="42.9524476" lon="11.5706313"><ele>522.4</ele><time>2026-04-26T12:51:21.183Z</time></trkpt><trkpt lat="42.9525213" lon="11.5707192"><ele>524.0</ele><time>2026-04-26T12:51:22.182Z</time></trkpt><trkpt lat="42.9526039" lon="11.5708025"><ele>524.2</ele><time>2026-04-26T12:51:23.182Z</time></trkpt><trkpt lat="42.9526856" lon="11.5708784"><ele>524.4</ele><time>2026-04-26T12:51:24.188Z</time></trkpt><trkpt lat="42.9527701" lon="11.5709396"><ele>524.6</ele><time>2026-04-26T12:51:25.192Z</time></trkpt><trkpt lat="42.9528582" lon="11.5709799"><ele>524.8</ele><time>2026-04-26T12:51:26.2Z</time></trkpt><trkpt lat="42.9529539" lon="11.5710195"><ele>525.0</ele><time>2026-04-26T12:51:27.201Z</time></trkpt><trkpt lat="42.9530407" lon="11.5710812"><ele>525.0</ele><time>2026-04-26T12:51:28.195Z</time></trkpt><trkpt lat="42.9531115" lon="11.5711707"><ele>525.0</ele><time>2026-04-26T12:51:29.198Z</time></trkpt><trkpt lat="42.9531791" lon="11.5712785"><ele>525.0</ele><time>2026-04-26T12:51:30.186Z</time></trkpt><trkpt lat="42.9532386" lon="11.5714028"><ele>525.0</ele><time>2026-04-26T12:51:31.195Z</time></trkpt><trkpt lat="42.9533121" lon="11.5715207"><ele>525.0</ele><time>2026-04-26T12:51:32.189Z</time></trkpt><trkpt lat="42.9534013" lon="11.5716377"><ele>528.0</ele><time>2026-04-26T12:51:33.198Z</time></trkpt><trkpt lat="42.9534898" lon="11.5717383"><ele>531.0</ele><time>2026-04-26T12:51:34.19Z</time></trkpt><trkpt lat="42.9535723" lon="11.5718417"><ele>534.0</ele><time>2026-04-26T12:51:35.187Z</time></trkpt><trkpt lat="42.9536413" lon="11.5719684"><ele>537.0</ele><time>2026-04-26T12:51:36.189Z</time></trkpt><trkpt lat="42.953714" lon="11.5720995"><ele>539.8333333333334</ele><time>2026-04-26T12:51:37.202Z</time></trkpt><trkpt lat="42.9537872" lon="11.5722084"><ele>542.6666666666666</ele><time>2026-04-26T12:51:38.194Z</time></trkpt><trkpt lat="42.9538535" lon="11.5723035"><ele>545.5</ele><time>2026-04-26T12:51:39.187Z</time></trkpt><trkpt lat="42.9539217" lon="11.5723496"><ele>548.3333333333333</ele><time>2026-04-26T12:51:40.175Z</time></trkpt><trkpt lat="42.9539968" lon="11.5723621"><ele>551.1666666666666</ele><time>2026-04-26T12:51:41.186Z</time></trkpt><trkpt lat="42.9540783" lon="11.5723445"><ele>554.0</ele><time>2026-04-26T12:51:42.182Z</time></trkpt><trkpt lat="42.9541584" lon="11.5723166"><ele>552.6666666666666</ele><time>2026-04-26T12:51:43.183Z</time></trkpt><trkpt lat="42.9542385" lon="11.5723088"><ele>551.3333333333333</ele><time>2026-04-26T12:51:44.18Z</time></trkpt><trkpt lat="42.954315" lon="11.5723361"><ele>550.0</ele><time>2026-04-26T12:51:45.192Z</time></trkpt><trkpt lat="42.9543833" lon="11.5723929"><ele>548.6666666666666</ele><time>2026-04-26T12:51:46.19Z</time></trkpt><trkpt lat="42.9544538" lon="11.5724537"><ele>547.3333333333334</ele><time>2026-04-26T12:51:47.2Z</time></trkpt><trkpt lat="42.9545015" lon="11.5725495"><ele>546.0</ele><time>2026-04-26T12:51:48.201Z</time></trkpt><trkpt lat="42.9545546" lon="11.5726622"><ele>546.0</ele><time>2026-04-26T12:51:49.197Z</time></trkpt><trkpt lat="42.9546055" lon="11.5727823"><ele>546.0</ele><time>2026-04-26T12:51:50.196Z</time></trkpt><trkpt lat="42.9546563" lon="11.5728961"><ele>546.0</ele><time>2026-04-26T12:51:51.195Z</time></trkpt><trkpt lat="42.9547003" lon="11.5730176"><ele>546.0</ele><time>2026-04-26T12:51:52.199Z</time></trkpt><trkpt lat="42.9547311" lon="11.5731472"><ele>546.0</ele><time>2026-04-26T12:51:53.193Z</time></trkpt><trkpt lat="42.9547552" lon="11.5732797"><ele>548.1666666666666</ele><time>2026-04-26T12:51:54.181Z</time></trkpt><trkpt lat="42.9547738" lon="11.5734064"><ele>550.3333333333334</ele><time>2026-04-26T12:51:55.194Z</time></trkpt><trkpt lat="42.9547832" lon="11.5735316"><ele>552.5</ele><time>2026-04-26T12:51:56.202Z</time></trkpt><trkpt lat="42.9547801" lon="11.5736582"><ele>554.6666666666667</ele><time>2026-04-26T12:51:57.191Z</time></trkpt><trkpt lat="42.9547649" lon="11.5737671"><ele>556.8333333333334</ele><time>2026-04-26T12:51:58.206Z</time></trkpt><trkpt lat="42.954753" lon="11.5738629"><ele>559.0</ele><time>2026-04-26T12:51:59.196Z</time></trkpt><trkpt lat="42.954758" lon="11.5739555"><ele>558.8333333333334</ele><time>2026-04-26T12:52:00.188Z</time></trkpt><trkpt lat="42.9547872" lon="11.5740406"><ele>558.6666666666667</ele><time>2026-04-26T12:52:01.187Z</time></trkpt><trkpt lat="42.9548436" lon="11.5741143"><ele>558.5</ele><time>2026-04-26T12:52:02.184Z</time></trkpt><trkpt lat="42.9549198" lon="11.574179"><ele>558.3333333333334</ele><time>2026-04-26T12:52:03.197Z</time></trkpt><trkpt lat="42.9550057" lon="11.5742425"><ele>558.1666666666666</ele><time>2026-04-26T12:52:04.196Z</time></trkpt><trkpt lat="42.9550937" lon="11.5743121"><ele>558.0</ele><time>2026-04-26T12:52:05.203Z</time></trkpt><trkpt lat="42.9551799" lon="11.5743867"><ele>558.0</ele><time>2026-04-26T12:52:06.192Z</time></trkpt><trkpt lat="42.9552652" lon="11.5744648"><ele>558.0</ele><time>2026-04-26T12:52:07.181Z</time></trkpt><trkpt lat="42.9553495" lon="11.5745428"><ele>558.0</ele><time>2026-04-26T12:52:08.195Z</time></trkpt><trkpt lat="42.9554334" lon="11.574619"><ele>558.0</ele><time>2026-04-26T12:52:09.182Z</time></trkpt><trkpt lat="42.9555192" lon="11.5746991"><ele>558.0</ele><time>2026-04-26T12:52:10.204Z</time></trkpt><trkpt lat="42.9556026" lon="11.5747866"><ele>558.4</ele><time>2026-04-26T12:52:11.189Z</time></trkpt><trkpt lat="42.9556853" lon="11.574877"><ele>558.8</ele><time>2026-04-26T12:52:12.195Z</time></trkpt><trkpt lat="42.9557702" lon="11.5749657"><ele>559.2</ele><time>2026-04-26T12:52:13.196Z</time></trkpt><trkpt lat="42.9558623" lon="11.5750491"><ele>559.6</ele><time>2026-04-26T12:52:14.196Z</time></trkpt><trkpt lat="42.9559632" lon="11.575121"><ele>560.0</ele><time>2026-04-26T12:52:15.192Z</time></trkpt><trkpt lat="42.9560697" lon="11.5751896"><ele>559.75</ele><time>2026-04-26T12:52:16.183Z</time></trkpt><trkpt lat="42.956179" lon="11.5752699"><ele>559.5</ele><time>2026-04-26T12:52:17.196Z</time></trkpt><trkpt lat="42.9562847" lon="11.5753558"><ele>559.25</ele><time>2026-04-26T12:52:18.184Z</time></trkpt><trkpt lat="42.9563847" lon="11.5754419"><ele>559.0</ele><time>2026-04-26T12:52:19.184Z</time></trkpt><trkpt lat="42.9564782" lon="11.575532"><ele>559.0</ele><time>2026-04-26T12:52:20.181Z</time></trkpt><trkpt lat="42.9565588" lon="11.5756306"><ele>559.0</ele><time>2026-04-26T12:52:21.193Z</time></trkpt><trkpt lat="42.9566276" lon="11.5757445"><ele>559.0</ele><time>2026-04-26T12:52:22.202Z</time></trkpt><trkpt lat="42.9566807" lon="11.5758734"><ele>559.0</ele><time>2026-04-26T12:52:23.195Z</time></trkpt><trkpt lat="42.9567148" lon="11.5760186"><ele>559.0</ele><time>2026-04-26T12:52:24.184Z</time></trkpt><trkpt lat="42.9567334" lon="11.5761786"><ele>559.25</ele><time>2026-04-26T12:52:25.193Z</time></trkpt><trkpt lat="42.9567463" lon="11.5763471"><ele>559.5</ele><time>2026-04-26T12:52:26.179Z</time></trkpt><trkpt lat="42.9567676" lon="11.5765175"><ele>559.75</ele><time>2026-04-26T12:52:27.206Z</time></trkpt><trkpt lat="42.9567891" lon="11.576688"><ele>560.0</ele><time>2026-04-26T12:52:28.207Z</time></trkpt><trkpt lat="42.9568325" lon="11.5768522"><ele>560.0</ele><time>2026-04-26T12:52:29.188Z</time></trkpt><trkpt lat="42.9568712" lon="11.5770137"><ele>560.0</ele><time>2026-04-26T12:52:30.192Z</time></trkpt><trkpt lat="42.9569106" lon="11.5771785"><ele>560.0</ele><time>2026-04-26T12:52:31.2Z</time></trkpt><trkpt lat="42.9569422" lon="11.5773477"><ele>560.0</ele><time>2026-04-26T12:52:32.2Z</time></trkpt><trkpt lat="42.9569681" lon="11.5775237"><ele>560.5</ele><time>2026-04-26T12:52:33.203Z</time></trkpt><trkpt lat="42.9569943" lon="11.5777022"><ele>561.0</ele><time>2026-04-26T12:52:34.188Z</time></trkpt><trkpt lat="42.9570245" lon="11.5778825"><ele>561.5</ele><time>2026-04-26T12:52:35.192Z</time></trkpt><trkpt lat="42.9570543" lon="11.5780564"><ele>562.0</ele><time>2026-04-26T12:52:36.186Z</time></trkpt><trkpt lat="42.957075" lon="11.5782207"><ele>563.2</ele><time>2026-04-26T12:52:37.18Z</time></trkpt><trkpt lat="42.9570827" lon="11.57838"><ele>564.4000000000001</ele><time>2026-04-26T12:52:38.195Z</time></trkpt><trkpt lat="42.9570709" lon="11.5785288"><ele>565.5999999999999</ele><time>2026-04-26T12:52:39.198Z</time></trkpt><trkpt lat="42.9570367" lon="11.5786668"><ele>566.8</ele><time>2026-04-26T12:52:40.199Z</time></trkpt><trkpt lat="42.956983" lon="11.5787871"><ele>568.0</ele><time>2026-04-26T12:52:41.19Z</time></trkpt><trkpt lat="42.9569146" lon="11.5788968"><ele>568.0</ele><time>2026-04-26T12:52:42.194Z</time></trkpt><trkpt lat="42.9568362" lon="11.5790092"><ele>568.0</ele><time>2026-04-26T12:52:43.196Z</time></trkpt><trkpt lat="42.9567531" lon="11.5791334"><ele>568.0</ele><time>2026-04-26T12:52:44.187Z</time></trkpt><trkpt lat="42.9566685" lon="11.5792601"><ele>568.0</ele><time>2026-04-26T12:52:45.175Z</time></trkpt><trkpt lat="42.9565816" lon="11.5793881"><ele>570.5</ele><time>2026-04-26T12:52:46.2Z</time></trkpt><trkpt lat="42.9564943" lon="11.579513"><ele>573.0</ele><time>2026-04-26T12:52:47.195Z</time></trkpt><trkpt lat="42.9564062" lon="11.5796312"><ele>575.5</ele><time>2026-04-26T12:52:48.18Z</time></trkpt><trkpt lat="42.9563149" lon="11.5797452"><ele>578.0</ele><time>2026-04-26T12:52:49.178Z</time></trkpt><trkpt lat="42.956223" lon="11.5798592"><ele>578.0</ele><time>2026-04-26T12:52:50.185Z</time></trkpt><trkpt lat="42.9561331" lon="11.5799777"><ele>578.0</ele><time>2026-04-26T12:52:51.181Z</time></trkpt><trkpt lat="42.9560449" lon="11.5800945"><ele>578.0</ele><time>2026-04-26T12:52:52.196Z</time></trkpt><trkpt lat="42.9559792" lon="11.5802321"><ele>578.0</ele><time>2026-04-26T12:52:53.179Z</time></trkpt><trkpt lat="42.9559196" lon="11.5803935"><ele>580.5</ele><time>2026-04-26T12:52:54.185Z</time></trkpt><trkpt lat="42.955861" lon="11.5805693"><ele>583.0</ele><time>2026-04-26T12:52:55.191Z</time></trkpt><trkpt lat="42.9558033" lon="11.5807438"><ele>585.5</ele><time>2026-04-26T12:52:56.192Z</time></trkpt><trkpt lat="42.9557431" lon="11.5809162"><ele>588.0</ele><time>2026-04-26T12:52:57.182Z</time></trkpt><trkpt lat="42.9556835" lon="11.5810851"><ele>587.25</ele><time>2026-04-26T12:52:58.2Z</time></trkpt><trkpt lat="42.9556267" lon="11.5812473"><ele>586.5</ele><time>2026-04-26T12:52:59.182Z</time></trkpt><trkpt lat="42.9555713" lon="11.5814043"><ele>585.75</ele><time>2026-04-26T12:53:00.191Z</time></trkpt><trkpt lat="42.9555122" lon="11.5815534"><ele>585.0</ele><time>2026-04-26T12:53:01.196Z</time></trkpt><trkpt lat="42.9554435" lon="11.5816977"><ele>585.0</ele><time>2026-04-26T12:53:02.18Z</time></trkpt><trkpt lat="42.9553744" lon="11.5818428"><ele>585.0</ele><time>2026-04-26T12:53:03.191Z</time></trkpt><trkpt lat="42.9552912" lon="11.5819845"><ele>585.0</ele><time>2026-04-26T12:53:04.181Z</time></trkpt><trkpt lat="42.9552057" lon="11.5821261"><ele>585.0</ele><time>2026-04-26T12:53:05.198Z</time></trkpt><trkpt lat="42.9551153" lon="11.5822657"><ele>588.5</ele><time>2026-04-26T12:53:06.199Z</time></trkpt><trkpt lat="42.9550169" lon="11.5824036"><ele>592.0</ele><time>2026-04-26T12:53:07.191Z</time></trkpt><trkpt lat="42.9549153" lon="11.5825391"><ele>595.5</ele><time>2026-04-26T12:53:08.186Z</time></trkpt><trkpt lat="42.9548137" lon="11.5826734"><ele>599.0</ele><time>2026-04-26T12:53:09.191Z</time></trkpt><trkpt lat="42.9547144" lon="11.582809"><ele>597.25</ele><time>2026-04-26T12:53:10.196Z</time></trkpt><trkpt lat="42.954621" lon="11.5829322"><ele>595.5</ele><time>2026-04-26T12:53:11.185Z</time></trkpt><trkpt lat="42.9545289" lon="11.5830525"><ele>593.75</ele><time>2026-04-26T12:53:12.198Z</time></trkpt><trkpt lat="42.9544411" lon="11.5831701"><ele>592.0</ele><time>2026-04-26T12:53:13.181Z</time></trkpt><trkpt lat="42.9543591" lon="11.5832866"><ele>592.0</ele><time>2026-04-26T12:53:14.185Z</time></trkpt><trkpt lat="42.9542879" lon="11.5834085"><ele>592.0</ele><time>2026-04-26T12:53:15.192Z</time></trkpt><trkpt lat="42.9542295" lon="11.5835424"><ele>592.0</ele><time>2026-04-26T12:53:16.178Z</time></trkpt><trkpt lat="42.9541819" lon="11.5836901"><ele>592.0</ele><time>2026-04-26T12:53:17.198Z</time></trkpt><trkpt lat="42.9541405" lon="11.5838496"><ele>593.5</ele><time>2026-04-26T12:53:18.199Z</time></trkpt><trkpt lat="42.9540991" lon="11.5840094"><ele>595.0</ele><time>2026-04-26T12:53:19.181Z</time></trkpt><trkpt lat="42.9540621" lon="11.5841666"><ele>596.5</ele><time>2026-04-26T12:53:20.204Z</time></trkpt><trkpt lat="42.954026" lon="11.5843162"><ele>598.0</ele><time>2026-04-26T12:53:21.194Z</time></trkpt><trkpt lat="42.9539935" lon="11.5844594"><ele>597.4</ele><time>2026-04-26T12:53:22.186Z</time></trkpt><trkpt lat="42.9539605" lon="11.5845999"><ele>596.8</ele><time>2026-04-26T12:53:23.181Z</time></trkpt><trkpt lat="42.9539318" lon="11.5847399"><ele>596.2</ele><time>2026-04-26T12:53:24.193Z</time></trkpt><trkpt lat="42.953913" lon="11.584884"><ele>595.6</ele><time>2026-04-26T12:53:25.197Z</time></trkpt><trkpt lat="42.9539104" lon="11.585034"><ele>595.0</ele><time>2026-04-26T12:53:26.193Z</time></trkpt><trkpt lat="42.9539313" lon="11.5851841"><ele>595.0</ele><time>2026-04-26T12:53:27.197Z</time></trkpt><trkpt lat="42.953975" lon="11.5853336"><ele>595.0</ele><time>2026-04-26T12:53:28.196Z</time></trkpt><trkpt lat="42.9540392" lon="11.5854885"><ele>595.0</ele><time>2026-04-26T12:53:29.196Z</time></trkpt><trkpt lat="42.9541032" lon="11.585645"><ele>595.0</ele><time>2026-04-26T12:53:30.195Z</time></trkpt><trkpt lat="42.9541565" lon="11.5857952"><ele>596.4</ele><time>2026-04-26T12:53:31.187Z</time></trkpt><trkpt lat="42.9542" lon="11.5859345"><ele>597.8</ele><time>2026-04-26T12:53:32.191Z</time></trkpt><trkpt lat="42.954247" lon="11.5860623"><ele>599.2</ele><time>2026-04-26T12:53:33.189Z</time></trkpt><trkpt lat="42.9543079" lon="11.5861732"><ele>600.6</ele><time>2026-04-26T12:53:34.179Z</time></trkpt><trkpt lat="42.9543899" lon="11.5862711"><ele>602.0</ele><time>2026-04-26T12:53:35.192Z</time></trkpt><trkpt lat="42.9544749" lon="11.5863703"><ele>602.75</ele><time>2026-04-26T12:53:36.189Z</time></trkpt><trkpt lat="42.954575" lon="11.5864626"><ele>603.5</ele><time>2026-04-26T12:53:37.2Z</time></trkpt><trkpt lat="42.9546851" lon="11.5865499"><ele>604.25</ele><time>2026-04-26T12:53:38.192Z</time></trkpt><trkpt lat="42.9547949" lon="11.5866316"><ele>605.0</ele><time>2026-04-26T12:53:39.192Z</time></trkpt><trkpt lat="42.9549216" lon="11.5866957"><ele>602.75</ele><time>2026-04-26T12:53:40.187Z</time></trkpt><trkpt lat="42.9550487" lon="11.5867599"><ele>600.5</ele><time>2026-04-26T12:53:41.195Z</time></trkpt><trkpt lat="42.9551551" lon="11.5868214"><ele>598.25</ele><time>2026-04-26T12:53:42.19Z</time></trkpt><trkpt lat="42.9552484" lon="11.5868829"><ele>596.0</ele><time>2026-04-26T12:53:43.183Z</time></trkpt><trkpt lat="42.9553322" lon="11.5869486"><ele>601.2</ele><time>2026-04-26T12:53:44.192Z</time></trkpt><trkpt lat="42.9554063" lon="11.5870205"><ele>606.4000000000001</ele><time>2026-04-26T12:53:45.193Z</time></trkpt><trkpt lat="42.9554886" lon="11.5871091"><ele>611.6</ele><time>2026-04-26T12:53:46.18Z</time></trkpt><trkpt lat="42.9555794" lon="11.587205"><ele>616.8000000000001</ele><time>2026-04-26T12:53:47.192Z</time></trkpt><trkpt lat="42.9557002" lon="11.5872928"><ele>622.0</ele><time>2026-04-26T12:53:48.172Z</time></trkpt><trkpt lat="42.9558206" lon="11.5873899"><ele>620.75</ele><time>2026-04-26T12:53:49.193Z</time></trkpt><trkpt lat="42.9559356" lon="11.5874963"><ele>619.5</ele><time>2026-04-26T12:53:50.194Z</time></trkpt><trkpt lat="42.9560529" lon="11.5875989"><ele>618.25</ele><time>2026-04-26T12:53:51.182Z</time></trkpt><trkpt lat="42.9561652" lon="11.587692"><ele>617.0</ele><time>2026-04-26T12:53:52.183Z</time></trkpt><trkpt lat="42.9562679" lon="11.5877765"><ele>620.0</ele><time>2026-04-26T12:53:53.196Z</time></trkpt><trkpt lat="42.9563646" lon="11.5878594"><ele>623.0</ele><time>2026-04-26T12:53:54.191Z</time></trkpt><trkpt lat="42.9564524" lon="11.5879531"><ele>626.0</ele><time>2026-04-26T12:53:55.185Z</time></trkpt><trkpt lat="42.9565278" lon="11.5880682"><ele>629.0</ele><time>2026-04-26T12:53:56.201Z</time></trkpt><trkpt lat="42.9566036" lon="11.588186"><ele>629.0</ele><time>2026-04-26T12:53:57.18Z</time></trkpt><trkpt lat="42.9566693" lon="11.5883225"><ele>629.0</ele><time>2026-04-26T12:53:58.192Z</time></trkpt><trkpt lat="42.9567256" lon="11.5884618"><ele>629.0</ele><time>2026-04-26T12:53:59.179Z</time></trkpt><trkpt lat="42.9567666" lon="11.5886147"><ele>629.0</ele><time>2026-04-26T12:54:00.191Z</time></trkpt><trkpt lat="42.9567921" lon="11.5887752"><ele>628.5</ele><time>2026-04-26T12:54:01.192Z</time></trkpt><trkpt lat="42.9568121" lon="11.5889387"><ele>628.0</ele><time>2026-04-26T12:54:02.189Z</time></trkpt><trkpt lat="42.9568236" lon="11.589104"><ele>627.5</ele><time>2026-04-26T12:54:03.181Z</time></trkpt><trkpt lat="42.9568226" lon="11.5892574"><ele>627.0</ele><time>2026-04-26T12:54:04.177Z</time></trkpt><trkpt lat="42.9568009" lon="11.5893923"><ele>629.8</ele><time>2026-04-26T12:54:05.186Z</time></trkpt><trkpt lat="42.956779" lon="11.5895227"><ele>632.6</ele><time>2026-04-26T12:54:06.183Z</time></trkpt><trkpt lat="42.9567186" lon="11.5896073"><ele>635.4</ele><time>2026-04-26T12:54:07.19Z</time></trkpt><trkpt lat="42.9566512" lon="11.5896702"><ele>638.1999999999999</ele><time>2026-04-26T12:54:08.191Z</time></trkpt><trkpt lat="42.9565917" lon="11.5897234"><ele>641.0</ele><time>2026-04-26T12:54:09.176Z</time></trkpt><trkpt lat="42.9565125" lon="11.5898399"><ele>641.0</ele><time>2026-04-26T12:54:11.191Z</time></trkpt><trkpt lat="42.9565545" lon="11.5899976"><ele>641.0</ele><time>2026-04-26T12:54:13.192Z</time></trkpt><trkpt lat="42.956608" lon="11.5900729"><ele>641.0</ele><time>2026-04-26T12:54:14.193Z</time></trkpt><trkpt lat="42.9566781" lon="11.5901465"><ele>641.0</ele><time>2026-04-26T12:54:15.192Z</time></trkpt><trkpt lat="42.9567633" lon="11.5902259"><ele>641.0</ele><time>2026-04-26T12:54:16.189Z</time></trkpt><trkpt lat="42.9568617" lon="11.5903028"><ele>643.75</ele><time>2026-04-26T12:54:17.186Z</time></trkpt><trkpt lat="42.956971" lon="11.5903776"><ele>646.5</ele><time>2026-04-26T12:54:18.178Z</time></trkpt><trkpt lat="42.9570818" lon="11.5904546"><ele>649.25</ele><time>2026-04-26T12:54:19.198Z</time></trkpt><trkpt lat="42.9571958" lon="11.5905396"><ele>652.0</ele><time>2026-04-26T12:54:20.185Z</time></trkpt><trkpt lat="42.957314" lon="11.5906277"><ele>652.0</ele><time>2026-04-26T12:54:21.2Z</time></trkpt><trkpt lat="42.957432" lon="11.5907064"><ele>652.0</ele><time>2026-04-26T12:54:22.2Z</time></trkpt><trkpt lat="42.9575363" lon="11.5907648"><ele>652.0</ele><time>2026-04-26T12:54:23.179Z</time></trkpt><trkpt lat="42.957629" lon="11.5908204"><ele>652.0</ele><time>2026-04-26T12:54:24.194Z</time></trkpt><trkpt lat="42.9577085" lon="11.5908897"><ele>652.0</ele><time>2026-04-26T12:54:25.178Z</time></trkpt><trkpt lat="42.9577804" lon="11.5909935"><ele>652.2</ele><time>2026-04-26T12:54:26.202Z</time></trkpt><trkpt lat="42.9578467" lon="11.5911006"><ele>652.4000000000001</ele><time>2026-04-26T12:54:27.193Z</time></trkpt><trkpt lat="42.9579191" lon="11.591177"><ele>652.5999999999999</ele><time>2026-04-26T12:54:28.189Z</time></trkpt><trkpt lat="42.9580007" lon="11.5912216"><ele>652.8</ele><time>2026-04-26T12:54:29.194Z</time></trkpt><trkpt lat="42.9580921" lon="11.5912386"><ele>653.0</ele><time>2026-04-26T12:54:30.172Z</time></trkpt><trkpt lat="42.9581933" lon="11.5912473"><ele>655.0</ele><time>2026-04-26T12:54:31.192Z</time></trkpt><trkpt lat="42.9582894" lon="11.591256"><ele>657.0</ele><time>2026-04-26T12:54:32.199Z</time></trkpt><trkpt lat="42.9583724" lon="11.5912736"><ele>659.0</ele><time>2026-04-26T12:54:33.19Z</time></trkpt><trkpt lat="42.9584366" lon="11.5913037"><ele>661.0</ele><time>2026-04-26T12:54:34.204Z</time></trkpt><trkpt lat="42.9585112" lon="11.5914093"><ele>663.0</ele><time>2026-04-26T12:54:36.185Z</time></trkpt><trkpt lat="42.9585259" lon="11.5915708"><ele>663.0</ele><time>2026-04-26T12:54:38.191Z</time></trkpt><trkpt lat="42.9585" lon="11.5916814"><ele>663.0</ele><time>2026-04-26T12:54:39.199Z</time></trkpt><trkpt lat="42.9584742" lon="11.5917947"><ele>663.0</ele><time>2026-04-26T12:54:40.19Z</time></trkpt><trkpt lat="42.958453" lon="11.5919239"><ele>663.0</ele><time>2026-04-26T12:54:41.198Z</time></trkpt><trkpt lat="42.9584414" lon="11.5920725"><ele>663.0</ele><time>2026-04-26T12:54:42.179Z</time></trkpt><trkpt lat="42.9584288" lon="11.5922348"><ele>663.5999999999999</ele><time>2026-04-26T12:54:43.207Z</time></trkpt><trkpt lat="42.9584247" lon="11.5924008"><ele>664.1999999999999</ele><time>2026-04-26T12:54:44.199Z</time></trkpt><trkpt lat="42.9584188" lon="11.5925509"><ele>664.8</ele><time>2026-04-26T12:54:45.186Z</time></trkpt><trkpt lat="42.9584045" lon="11.5926748"><ele>665.4</ele><time>2026-04-26T12:54:46.197Z</time></trkpt><trkpt lat="42.9583794" lon="11.5927899"><ele>666.0</ele><time>2026-04-26T12:54:47.191Z</time></trkpt><trkpt lat="42.9583456" lon="11.5929017"><ele>666.0</ele><time>2026-04-26T12:54:48.192Z</time></trkpt><trkpt lat="42.9582939" lon="11.5930007"><ele>666.0</ele><time>2026-04-26T12:54:49.197Z</time></trkpt><trkpt lat="42.9582167" lon="11.5931008"><ele>666.0</ele><time>2026-04-26T12:54:50.197Z</time></trkpt><trkpt lat="42.9581342" lon="11.593209"><ele>666.0</ele><time>2026-04-26T12:54:51.19Z</time></trkpt><trkpt lat="42.9580339" lon="11.5933071"><ele>666.0</ele><time>2026-04-26T12:54:52.197Z</time></trkpt><trkpt lat="42.9579352" lon="11.5934195"><ele>666.0</ele><time>2026-04-26T12:54:53.193Z</time></trkpt><trkpt lat="42.9578434" lon="11.5935387"><ele>666.0</ele><time>2026-04-26T12:54:54.204Z</time></trkpt><trkpt lat="42.9577565" lon="11.5936612"><ele>666.0</ele><time>2026-04-26T12:54:55.197Z</time></trkpt><trkpt lat="42.9576717" lon="11.5937744"><ele>666.0</ele><time>2026-04-26T12:54:56.188Z</time></trkpt><trkpt lat="42.9576036" lon="11.5938809"><ele>665.8</ele><time>2026-04-26T12:54:57.197Z</time></trkpt><trkpt lat="42.9575593" lon="11.5939938"><ele>665.5999999999999</ele><time>2026-04-26T12:54:58.192Z</time></trkpt><trkpt lat="42.9575394" lon="11.5941153"><ele>665.4</ele><time>2026-04-26T12:54:59.182Z</time></trkpt><trkpt lat="42.9575442" lon="11.5942518"><ele>665.2</ele><time>2026-04-26T12:55:00.183Z</time></trkpt><trkpt lat="42.9575718" lon="11.5944087"><ele>665.0</ele><time>2026-04-26T12:55:01.198Z</time></trkpt><trkpt lat="42.9576118" lon="11.5945879"><ele>665.0</ele><time>2026-04-26T12:55:02.182Z</time></trkpt><trkpt lat="42.9576547" lon="11.5947895"><ele>665.0</ele><time>2026-04-26T12:55:03.204Z</time></trkpt><trkpt lat="42.9576969" lon="11.5949974"><ele>665.0</ele><time>2026-04-26T12:55:04.193Z</time></trkpt><trkpt lat="42.9577401" lon="11.5952061"><ele>667.3333333333333</ele><time>2026-04-26T12:55:05.195Z</time></trkpt><trkpt lat="42.9577873" lon="11.5954163"><ele>669.6666666666666</ele><time>2026-04-26T12:55:06.198Z</time></trkpt><trkpt lat="42.9578387" lon="11.5956293"><ele>672.0</ele><time>2026-04-26T12:55:07.194Z</time></trkpt><trkpt lat="42.9578913" lon="11.5958227"><ele>672.0</ele><time>2026-04-26T12:55:08.196Z</time></trkpt><trkpt lat="42.9579448" lon="11.5959911"><ele>672.0</ele><time>2026-04-26T12:55:09.179Z</time></trkpt><trkpt lat="42.9580041" lon="11.5961421"><ele>672.0</ele><time>2026-04-26T12:55:10.189Z</time></trkpt><trkpt lat="42.9580753" lon="11.5962727"><ele>672.0</ele><time>2026-04-26T12:55:11.186Z</time></trkpt><trkpt lat="42.9581583" lon="11.5963933"><ele>674.2</ele><time>2026-04-26T12:55:12.192Z</time></trkpt><trkpt lat="42.9582296" lon="11.5964891"><ele>676.4000000000001</ele><time>2026-04-26T12:55:13.191Z</time></trkpt><trkpt lat="42.9582772" lon="11.5965719"><ele>678.5999999999999</ele><time>2026-04-26T12:55:14.191Z</time></trkpt><trkpt lat="42.9582698" lon="11.5967068"><ele>680.8</ele><time>2026-04-26T12:55:16.203Z</time></trkpt><trkpt lat="42.958148" lon="11.5967732"><ele>683.0</ele><time>2026-04-26T12:55:18.183Z</time></trkpt><trkpt lat="42.9580613" lon="11.5968041"><ele>683.0</ele><time>2026-04-26T12:55:19.188Z</time></trkpt><trkpt lat="42.9579629" lon="11.5968414"><ele>683.0</ele><time>2026-04-26T12:55:20.184Z</time></trkpt><trkpt lat="42.9578763" lon="11.5968848"><ele>683.0</ele><time>2026-04-26T12:55:21.192Z</time></trkpt><trkpt lat="42.9578154" lon="11.5969456"><ele>683.0</ele><time>2026-04-26T12:55:22.196Z</time></trkpt><trkpt lat="42.9577803" lon="11.5970208"><ele>683.0</ele><time>2026-04-26T12:55:23.192Z</time></trkpt><trkpt lat="42.9577709" lon="11.5971074"><ele>683.0</ele><time>2026-04-26T12:55:24.192Z</time></trkpt><trkpt lat="42.9577903" lon="11.5971944"><ele>685.4</ele><time>2026-04-26T12:55:25.199Z</time></trkpt><trkpt lat="42.9578349" lon="11.5972911"><ele>687.8</ele><time>2026-04-26T12:55:26.192Z</time></trkpt><trkpt lat="42.9578952" lon="11.5974019"><ele>690.2</ele><time>2026-04-26T12:55:27.182Z</time></trkpt><trkpt lat="42.9579685" lon="11.5975166"><ele>692.6</ele><time>2026-04-26T12:55:28.193Z</time></trkpt><trkpt lat="42.9580486" lon="11.5976236"><ele>695.0</ele><time>2026-04-26T12:55:29.179Z</time></trkpt><trkpt lat="42.9581292" lon="11.5977295"><ele>695.0</ele><time>2026-04-26T12:55:30.201Z</time></trkpt><trkpt lat="42.9582217" lon="11.5978153"><ele>695.0</ele><time>2026-04-26T12:55:31.195Z</time></trkpt><trkpt lat="42.9583239" lon="11.5978963"><ele>695.0</ele><time>2026-04-26T12:55:32.193Z</time></trkpt><trkpt lat="42.9584162" lon="11.5979681"><ele>695.0</ele><time>2026-04-26T12:55:33.185Z</time></trkpt><trkpt lat="42.9584933" lon="11.5980342"><ele>695.0</ele><time>2026-04-26T12:55:34.188Z</time></trkpt><trkpt lat="42.9585302" lon="11.5981378"><ele>695.1666666666666</ele><time>2026-04-26T12:55:35.19Z</time></trkpt><trkpt lat="42.9585402" lon="11.5982517"><ele>695.3333333333333</ele><time>2026-04-26T12:55:36.185Z</time></trkpt><trkpt lat="42.958524" lon="11.5983733"><ele>695.5</ele><time>2026-04-26T12:55:37.187Z</time></trkpt><trkpt lat="42.9584957" lon="11.5984909"><ele>695.6666666666666</ele><time>2026-04-26T12:55:38.187Z</time></trkpt><trkpt lat="42.958467" lon="11.5986056"><ele>695.8333333333334</ele><time>2026-04-26T12:55:39.179Z</time></trkpt><trkpt lat="42.9584746" lon="11.5987264"><ele>696.0</ele><time>2026-04-26T12:55:40.187Z</time></trkpt><trkpt lat="42.9585043" lon="11.5988286"><ele>696.0</ele><time>2026-04-26T12:55:41.204Z</time></trkpt><trkpt lat="42.958535" lon="11.5989317"><ele>696.0</ele><time>2026-04-26T12:55:42.199Z</time></trkpt><trkpt lat="42.9586003" lon="11.5990183"><ele>696.0</ele><time>2026-04-26T12:55:43.194Z</time></trkpt><trkpt lat="42.9586641" lon="11.5991153"><ele>696.0</ele><time>2026-04-26T12:55:44.198Z</time></trkpt><trkpt lat="42.9587163" lon="11.5992399"><ele>696.0</ele><time>2026-04-26T12:55:45.197Z</time></trkpt><trkpt lat="42.9587582" lon="11.5993755"><ele>697.25</ele><time>2026-04-26T12:55:46.185Z</time></trkpt><trkpt lat="42.9587862" lon="11.5995148"><ele>698.5</ele><time>2026-04-26T12:55:47.2Z</time></trkpt><trkpt lat="42.9587982" lon="11.5996604"><ele>699.75</ele><time>2026-04-26T12:55:48.2Z</time></trkpt><trkpt lat="42.958798" lon="11.5998173"><ele>701.0</ele><time>2026-04-26T12:55:49.196Z</time></trkpt><trkpt lat="42.9587903" lon="11.5999889"><ele>701.0</ele><time>2026-04-26T12:55:50.191Z</time></trkpt><trkpt lat="42.9587767" lon="11.6001694"><ele>701.0</ele><time>2026-04-26T12:55:51.183Z</time></trkpt><trkpt lat="42.9587569" lon="11.600358"><ele>701.0</ele><time>2026-04-26T12:55:52.197Z</time></trkpt><trkpt lat="42.9587339" lon="11.6005442"><ele>701.0</ele><time>2026-04-26T12:55:53.2Z</time></trkpt><trkpt lat="42.9587119" lon="11.6007158"><ele>702.75</ele><time>2026-04-26T12:55:54.205Z</time></trkpt><trkpt lat="42.9586911" lon="11.6008817"><ele>704.5</ele><time>2026-04-26T12:55:55.194Z</time></trkpt><trkpt lat="42.958675" lon="11.6010405"><ele>706.25</ele><time>2026-04-26T12:55:56.191Z</time></trkpt><trkpt lat="42.9586654" lon="11.6012058"><ele>708.0</ele><time>2026-04-26T12:55:57.189Z</time></trkpt><trkpt lat="42.958655" lon="11.6013795"><ele>709.0</ele><time>2026-04-26T12:55:58.187Z</time></trkpt><trkpt lat="42.9586374" lon="11.6015557"><ele>710.0</ele><time>2026-04-26T12:55:59.184Z</time></trkpt><trkpt lat="42.9586155" lon="11.6017356"><ele>711.0</ele><time>2026-04-26T12:56:00.197Z</time></trkpt><trkpt lat="42.9585941" lon="11.601914"><ele>712.0</ele><time>2026-04-26T12:56:01.193Z</time></trkpt><trkpt lat="42.9585877" lon="11.6020934"><ele>712.75</ele><time>2026-04-26T12:56:02.193Z</time></trkpt><trkpt lat="42.9585902" lon="11.6022682"><ele>713.5</ele><time>2026-04-26T12:56:03.196Z</time></trkpt><trkpt lat="42.9585981" lon="11.6024412"><ele>714.25</ele><time>2026-04-26T12:56:04.192Z</time></trkpt><trkpt lat="42.9585986" lon="11.602618"><ele>715.0</ele><time>2026-04-26T12:56:05.192Z</time></trkpt><trkpt lat="42.9585864" lon="11.6027996"><ele>715.5</ele><time>2026-04-26T12:56:06.197Z</time></trkpt><trkpt lat="42.9585632" lon="11.602978"><ele>716.0</ele><time>2026-04-26T12:56:07.195Z</time></trkpt><trkpt lat="42.9585396" lon="11.6031368"><ele>716.5</ele><time>2026-04-26T12:56:08.177Z</time></trkpt><trkpt lat="42.9585215" lon="11.6032808"><ele>717.0</ele><time>2026-04-26T12:56:09.191Z</time></trkpt><trkpt lat="42.9585101" lon="11.6034111"><ele>717.0</ele><time>2026-04-26T12:56:10.192Z</time></trkpt><trkpt lat="42.9585002" lon="11.603531"><ele>717.0</ele><time>2026-04-26T12:56:11.195Z</time></trkpt><trkpt lat="42.9585013" lon="11.603636"><ele>717.0</ele><time>2026-04-26T12:56:12.196Z</time></trkpt><trkpt lat="42.9585199" lon="11.6037447"><ele>717.0</ele><time>2026-04-26T12:56:13.196Z</time></trkpt><trkpt lat="42.9585626" lon="11.6038574"><ele>717.0</ele><time>2026-04-26T12:56:14.194Z</time></trkpt><trkpt lat="42.9586092" lon="11.6039756"><ele>717.0</ele><time>2026-04-26T12:56:15.191Z</time></trkpt><trkpt lat="42.9587074" lon="11.6040909"><ele>718.75</ele><time>2026-04-26T12:56:16.183Z</time></trkpt><trkpt lat="42.9588134" lon="11.6042087"><ele>720.5</ele><time>2026-04-26T12:56:17.185Z</time></trkpt><trkpt lat="42.9589112" lon="11.6043287"><ele>722.25</ele><time>2026-04-26T12:56:18.18Z</time></trkpt><trkpt lat="42.9590075" lon="11.6044506"><ele>724.0</ele><time>2026-04-26T12:56:19.186Z</time></trkpt><trkpt lat="42.9590795" lon="11.6045944"><ele>725.5</ele><time>2026-04-26T12:56:20.191Z</time></trkpt><trkpt lat="42.9591429" lon="11.6047515"><ele>727.0</ele><time>2026-04-26T12:56:21.186Z</time></trkpt><trkpt lat="42.9591912" lon="11.6049147"><ele>728.5</ele><time>2026-04-26T12:56:22.197Z</time></trkpt><trkpt lat="42.9592219" lon="11.6050837"><ele>730.0</ele><time>2026-04-26T12:56:23.175Z</time></trkpt><trkpt lat="42.9592406" lon="11.6052522"><ele>725.5</ele><time>2026-04-26T12:56:24.195Z</time></trkpt><trkpt lat="42.9592554" lon="11.6054205"><ele>721.0</ele><time>2026-04-26T12:56:25.191Z</time></trkpt><trkpt lat="42.9592642" lon="11.6055843"><ele>716.5</ele><time>2026-04-26T12:56:26.198Z</time></trkpt><trkpt lat="42.9592557" lon="11.6057374"><ele>712.0</ele><time>2026-04-26T12:56:27.184Z</time></trkpt><trkpt lat="42.9592277" lon="11.6058887"><ele>717.25</ele><time>2026-04-26T12:56:28.191Z</time></trkpt><trkpt lat="42.9591997" lon="11.6060461"><ele>722.5</ele><time>2026-04-26T12:56:29.196Z</time></trkpt><trkpt lat="42.9591717" lon="11.6062111"><ele>727.75</ele><time>2026-04-26T12:56:30.181Z</time></trkpt><trkpt lat="42.9591729" lon="11.6064082"><ele>733.0</ele><time>2026-04-26T12:56:31.199Z</time></trkpt><trkpt lat="42.9591837" lon="11.6066185"><ele>733.0</ele><time>2026-04-26T12:56:32.183Z</time></trkpt><trkpt lat="42.9591947" lon="11.6068303"><ele>733.0</ele><time>2026-04-26T12:56:33.18Z</time></trkpt><trkpt lat="42.9592135" lon="11.6070486"><ele>733.0</ele><time>2026-04-26T12:56:34.173Z</time></trkpt><trkpt lat="42.9592345" lon="11.6072605"><ele>730.0</ele><time>2026-04-26T12:56:35.184Z</time></trkpt><trkpt lat="42.9592575" lon="11.6074646"><ele>727.0</ele><time>2026-04-26T12:56:36.179Z</time></trkpt><trkpt lat="42.9592819" lon="11.6076635"><ele>724.0</ele><time>2026-04-26T12:56:37.2Z</time></trkpt><trkpt lat="42.9593231" lon="11.6078502"><ele>721.0</ele><time>2026-04-26T12:56:38.187Z</time></trkpt><trkpt lat="42.9593747" lon="11.6080264"><ele>721.0</ele><time>2026-04-26T12:56:39.18Z</time></trkpt><trkpt lat="42.9594306" lon="11.6081915"><ele>721.0</ele><time>2026-04-26T12:56:40.197Z</time></trkpt><trkpt lat="42.9594827" lon="11.6083599"><ele>721.0</ele><time>2026-04-26T12:56:41.202Z</time></trkpt><trkpt lat="42.959519" lon="11.6085269"><ele>721.0</ele><time>2026-04-26T12:56:42.186Z</time></trkpt><trkpt lat="42.9595441" lon="11.6086758"><ele>722.8</ele><time>2026-04-26T12:56:43.191Z</time></trkpt><trkpt lat="42.959556" lon="11.608818"><ele>724.5999999999999</ele><time>2026-04-26T12:56:44.188Z</time></trkpt><trkpt lat="42.9595502" lon="11.6089601"><ele>726.4</ele><time>2026-04-26T12:56:45.201Z</time></trkpt><trkpt lat="42.9595432" lon="11.609103"><ele>728.2</ele><time>2026-04-26T12:56:46.186Z</time></trkpt><trkpt lat="42.9595228" lon="11.6092544"><ele>730.0</ele><time>2026-04-26T12:56:47.184Z</time></trkpt><trkpt lat="42.9595117" lon="11.6094125"><ele>729.25</ele><time>2026-04-26T12:56:48.199Z</time></trkpt><trkpt lat="42.9595177" lon="11.6095843"><ele>728.5</ele><time>2026-04-26T12:56:49.2Z</time></trkpt><trkpt lat="42.9595388" lon="11.6097529"><ele>727.75</ele><time>2026-04-26T12:56:50.2Z</time></trkpt><trkpt lat="42.9595617" lon="11.6099223"><ele>727.0</ele><time>2026-04-26T12:56:51.202Z</time></trkpt><trkpt lat="42.9596075" lon="11.6100929"><ele>727.0</ele><time>2026-04-26T12:56:52.176Z</time></trkpt><trkpt lat="42.9596577" lon="11.6102499"><ele>727.0</ele><time>2026-04-26T12:56:53.201Z</time></trkpt><trkpt lat="42.9597092" lon="11.6103971"><ele>727.0</ele><time>2026-04-26T12:56:54.177Z</time></trkpt><trkpt lat="42.9597632" lon="11.6105383"><ele>727.0</ele><time>2026-04-26T12:56:55.186Z</time></trkpt><trkpt lat="42.9598227" lon="11.6106703"><ele>726.0</ele><time>2026-04-26T12:56:56.2Z</time></trkpt><trkpt lat="42.9598945" lon="11.6107915"><ele>725.0</ele><time>2026-04-26T12:56:57.197Z</time></trkpt><trkpt lat="42.959978" lon="11.6108983"><ele>724.0</ele><time>2026-04-26T12:56:58.204Z</time></trkpt><trkpt lat="42.9600727" lon="11.6110046"><ele>723.0</ele><time>2026-04-26T12:56:59.189Z</time></trkpt><trkpt lat="42.9601783" lon="11.611112"><ele>721.75</ele><time>2026-04-26T12:57:00.203Z</time></trkpt><trkpt lat="42.9602982" lon="11.6112196"><ele>720.5</ele><time>2026-04-26T12:57:01.189Z</time></trkpt><trkpt lat="42.9604226" lon="11.6113277"><ele>719.25</ele><time>2026-04-26T12:57:02.199Z</time></trkpt><trkpt lat="42.9605488" lon="11.611443"><ele>718.0</ele><time>2026-04-26T12:57:03.188Z</time></trkpt><trkpt lat="42.9606682" lon="11.6115668"><ele>718.0</ele><time>2026-04-26T12:57:04.189Z</time></trkpt><trkpt lat="42.9607724" lon="11.6116896"><ele>718.0</ele><time>2026-04-26T12:57:05.195Z</time></trkpt><trkpt lat="42.9608601" lon="11.6118052"><ele>718.0</ele><time>2026-04-26T12:57:06.199Z</time></trkpt><trkpt lat="42.9609322" lon="11.6119115"><ele>718.0</ele><time>2026-04-26T12:57:07.183Z</time></trkpt><trkpt lat="42.9609972" lon="11.6120036"><ele>716.8</ele><time>2026-04-26T12:57:08.189Z</time></trkpt><trkpt lat="42.961073" lon="11.6120869"><ele>715.5999999999999</ele><time>2026-04-26T12:57:09.195Z</time></trkpt><trkpt lat="42.9611655" lon="11.6121563"><ele>714.4000000000001</ele><time>2026-04-26T12:57:10.183Z</time></trkpt><trkpt lat="42.9612799" lon="11.6122218"><ele>713.2</ele><time>2026-04-26T12:57:11.202Z</time></trkpt><trkpt lat="42.9613926" lon="11.6122856"><ele>712.0</ele><time>2026-04-26T12:57:12.188Z</time></trkpt><trkpt lat="42.9614943" lon="11.6123467"><ele>712.0</ele><time>2026-04-26T12:57:13.197Z</time></trkpt><trkpt lat="42.9615864" lon="11.6124067"><ele>712.0</ele><time>2026-04-26T12:57:14.185Z</time></trkpt><trkpt lat="42.9616775" lon="11.6124666"><ele>712.0</ele><time>2026-04-26T12:57:15.206Z</time></trkpt><trkpt lat="42.9617672" lon="11.6125345"><ele>712.0</ele><time>2026-04-26T12:57:16.201Z</time></trkpt><trkpt lat="42.9618452" lon="11.6126324"><ele>712.0</ele><time>2026-04-26T12:57:17.199Z</time></trkpt><trkpt lat="42.9619085" lon="11.6127587"><ele>708.25</ele><time>2026-04-26T12:57:18.187Z</time></trkpt><trkpt lat="42.9619507" lon="11.6129177"><ele>704.5</ele><time>2026-04-26T12:57:19.197Z</time></trkpt><trkpt lat="42.9619776" lon="11.6130741"><ele>700.75</ele><time>2026-04-26T12:57:20.196Z</time></trkpt><trkpt lat="42.9619988" lon="11.6132236"><ele>697.0</ele><time>2026-04-26T12:57:21.191Z</time></trkpt><trkpt lat="42.9620068" lon="11.6133729"><ele>697.0</ele><time>2026-04-26T12:57:22.192Z</time></trkpt><trkpt lat="42.9620014" lon="11.6135295"><ele>697.0</ele><time>2026-04-26T12:57:23.184Z</time></trkpt><trkpt lat="42.9619839" lon="11.613692"><ele>697.0</ele><time>2026-04-26T12:57:24.197Z</time></trkpt><trkpt lat="42.9619612" lon="11.6138543"><ele>697.0</ele><time>2026-04-26T12:57:25.182Z</time></trkpt><trkpt lat="42.9619444" lon="11.6140152"><ele>696.25</ele><time>2026-04-26T12:57:26.198Z</time></trkpt><trkpt lat="42.9619361" lon="11.6141776"><ele>695.5</ele><time>2026-04-26T12:57:27.183Z</time></trkpt><trkpt lat="42.9619385" lon="11.6143417"><ele>694.75</ele><time>2026-04-26T12:57:28.2Z</time></trkpt><trkpt lat="42.9619537" lon="11.6145067"><ele>694.0</ele><time>2026-04-26T12:57:29.202Z</time></trkpt><trkpt lat="42.9619691" lon="11.6146728"><ele>693.5</ele><time>2026-04-26T12:57:30.198Z</time></trkpt><trkpt lat="42.962007" lon="11.6148293"><ele>693.0</ele><time>2026-04-26T12:57:31.198Z</time></trkpt><trkpt lat="42.9620588" lon="11.614974"><ele>692.5</ele><time>2026-04-26T12:57:32.192Z</time></trkpt><trkpt lat="42.9621085" lon="11.6151043"><ele>692.0</ele><time>2026-04-26T12:57:33.181Z</time></trkpt><trkpt lat="42.9621396" lon="11.6152403"><ele>691.6666666666666</ele><time>2026-04-26T12:57:34.193Z</time></trkpt><trkpt lat="42.9621497" lon="11.6153807"><ele>691.3333333333333</ele><time>2026-04-26T12:57:35.197Z</time></trkpt><trkpt lat="42.9621483" lon="11.6155023"><ele>691.0</ele><time>2026-04-26T12:57:36.193Z</time></trkpt><trkpt lat="42.9621455" lon="11.6156127"><ele>690.6666666666666</ele><time>2026-04-26T12:57:37.201Z</time></trkpt><trkpt lat="42.9621517" lon="11.6157188"><ele>690.3333333333334</ele><time>2026-04-26T12:57:38.199Z</time></trkpt><trkpt lat="42.9621762" lon="11.615817"><ele>690.0</ele><time>2026-04-26T12:57:39.191Z</time></trkpt><trkpt lat="42.9622241" lon="11.6158971"><ele>690.0</ele><time>2026-04-26T12:57:40.193Z</time></trkpt><trkpt lat="42.9622701" lon="11.6159715"><ele>690.0</ele><time>2026-04-26T12:57:41.198Z</time></trkpt><trkpt lat="42.962343" lon="11.6160033"><ele>690.0</ele><time>2026-04-26T12:57:42.186Z</time></trkpt><trkpt lat="42.962441" lon="11.6160128"><ele>690.0</ele><time>2026-04-26T12:57:43.195Z</time></trkpt><trkpt lat="42.9625556" lon="11.6160196"><ele>690.0</ele><time>2026-04-26T12:57:44.197Z</time></trkpt><trkpt lat="42.9626853" lon="11.616018"><ele>686.6666666666666</ele><time>2026-04-26T12:57:45.191Z</time></trkpt><trkpt lat="42.9628272" lon="11.616012"><ele>683.3333333333333</ele><time>2026-04-26T12:57:46.198Z</time></trkpt><trkpt lat="42.9629804" lon="11.6159762"><ele>680.0</ele><time>2026-04-26T12:57:47.193Z</time></trkpt><trkpt lat="42.9631325" lon="11.6159514"><ele>680.0</ele><time>2026-04-26T12:57:48.203Z</time></trkpt><trkpt lat="42.9632803" lon="11.6159387"><ele>680.0</ele><time>2026-04-26T12:57:49.208Z</time></trkpt><trkpt lat="42.9634461" lon="11.61592"><ele>680.0</ele><time>2026-04-26T12:57:50.186Z</time></trkpt><trkpt lat="42.9635976" lon="11.6159102"><ele>679.0</ele><time>2026-04-26T12:57:51.185Z</time></trkpt><trkpt lat="42.9637369" lon="11.6159186"><ele>678.0</ele><time>2026-04-26T12:57:52.189Z</time></trkpt><trkpt lat="42.9638697" lon="11.6159304"><ele>677.0</ele><time>2026-04-26T12:57:53.184Z</time></trkpt><trkpt lat="42.9639973" lon="11.6159388"><ele>676.0</ele><time>2026-04-26T12:57:54.189Z</time></trkpt><trkpt lat="42.9641241" lon="11.6159472"><ele>675.5</ele><time>2026-04-26T12:57:55.181Z</time></trkpt><trkpt lat="42.9642474" lon="11.6159469"><ele>675.0</ele><time>2026-04-26T12:57:56.198Z</time></trkpt><trkpt lat="42.9643684" lon="11.6159352"><ele>674.5</ele><time>2026-04-26T12:57:57.193Z</time></trkpt><trkpt lat="42.9644911" lon="11.615922"><ele>674.0</ele><time>2026-04-26T12:57:58.187Z</time></trkpt><trkpt lat="42.9646169" lon="11.6158898"><ele>674.0</ele><time>2026-04-26T12:57:59.189Z</time></trkpt><trkpt lat="42.9647407" lon="11.6158558"><ele>674.0</ele><time>2026-04-26T12:58:00.195Z</time></trkpt><trkpt lat="42.9648613" lon="11.6158236"><ele>674.0</ele><time>2026-04-26T12:58:01.178Z</time></trkpt><trkpt lat="42.9649748" lon="11.6158088"><ele>674.0</ele><time>2026-04-26T12:58:02.195Z</time></trkpt><trkpt lat="42.9650831" lon="11.6158009"><ele>672.2</ele><time>2026-04-26T12:58:03.186Z</time></trkpt><trkpt lat="42.9651826" lon="11.6158046"><ele>670.4000000000001</ele><time>2026-04-26T12:58:04.185Z</time></trkpt><trkpt lat="42.9652928" lon="11.6158428"><ele>668.6</ele><time>2026-04-26T12:58:05.191Z</time></trkpt><trkpt lat="42.9654076" lon="11.6158846"><ele>666.8</ele><time>2026-04-26T12:58:06.178Z</time></trkpt><trkpt lat="42.9655174" lon="11.6159139"><ele>665.0</ele><time>2026-04-26T12:58:07.179Z</time></trkpt><trkpt lat="42.9656165" lon="11.6159317"><ele>665.0</ele><time>2026-04-26T12:58:08.196Z</time></trkpt><trkpt lat="42.9657058" lon="11.6159536"><ele>665.0</ele><time>2026-04-26T12:58:09.21Z</time></trkpt><trkpt lat="42.9657878" lon="11.6159762"><ele>665.0</ele><time>2026-04-26T12:58:10.188Z</time></trkpt><trkpt lat="42.9658758" lon="11.6160082"><ele>665.0</ele><time>2026-04-26T12:58:11.198Z</time></trkpt><trkpt lat="42.9659711" lon="11.6160909"><ele>665.0</ele><time>2026-04-26T12:58:12.181Z</time></trkpt><trkpt lat="42.9660619" lon="11.6161931"><ele>663.8</ele><time>2026-04-26T12:58:13.194Z</time></trkpt><trkpt lat="42.9661432" lon="11.6162914"><ele>662.6</ele><time>2026-04-26T12:58:14.192Z</time></trkpt><trkpt lat="42.9662167" lon="11.6163822"><ele>661.4000000000001</ele><time>2026-04-26T12:58:15.196Z</time></trkpt><trkpt lat="42.9662911" lon="11.6164647"><ele>660.2</ele><time>2026-04-26T12:58:16.187Z</time></trkpt><trkpt lat="42.9663518" lon="11.6165356"><ele>659.0</ele><time>2026-04-26T12:58:17.199Z</time></trkpt><trkpt lat="42.9664048" lon="11.6165941"><ele>659.0</ele><time>2026-04-26T12:58:18.191Z</time></trkpt><trkpt lat="42.9664818" lon="11.6166626"><ele>659.0</ele><time>2026-04-26T12:58:20.194Z</time></trkpt><trkpt lat="42.9665656" lon="11.6167132"><ele>659.0</ele><time>2026-04-26T12:59:05.203Z</time></trkpt><trkpt lat="42.9666785" lon="11.6167328"><ele>659.0</ele><time>2026-04-26T12:59:07.184Z</time></trkpt><trkpt lat="42.966751" lon="11.6167409"><ele>659.0</ele><time>2026-04-26T12:59:08.186Z</time></trkpt><trkpt lat="42.9668361" lon="11.6167468"><ele>659.2</ele><time>2026-04-26T12:59:09.207Z</time></trkpt><trkpt lat="42.9669306" lon="11.6167463"><ele>659.4000000000001</ele><time>2026-04-26T12:59:10.193Z</time></trkpt><trkpt lat="42.9670286" lon="11.6167364"><ele>659.6</ele><time>2026-04-26T12:59:11.191Z</time></trkpt><trkpt lat="42.9671253" lon="11.6167239"><ele>659.8</ele><time>2026-04-26T12:59:12.198Z</time></trkpt><trkpt lat="42.9672248" lon="11.6167078"><ele>660.0</ele><time>2026-04-26T12:59:13.207Z</time></trkpt><trkpt lat="42.9673249" lon="11.6166886"><ele>660.0</ele><time>2026-04-26T12:59:14.196Z</time></trkpt><trkpt lat="42.9674183" lon="11.6166659"><ele>660.0</ele><time>2026-04-26T12:59:15.202Z</time></trkpt><trkpt lat="42.9675016" lon="11.6166487"><ele>660.0</ele><time>2026-04-26T12:59:16.201Z</time></trkpt><trkpt lat="42.9675765" lon="11.6166435"><ele>660.0</ele><time>2026-04-26T12:59:17.191Z</time></trkpt><trkpt lat="42.9676445" lon="11.6166563"><ele>660.0</ele><time>2026-04-26T12:59:18.196Z</time></trkpt><trkpt lat="42.9677003" lon="11.6166962"><ele>660.0</ele><time>2026-04-26T12:59:19.202Z</time></trkpt><trkpt lat="42.9677419" lon="11.6167632"><ele>660.0</ele><time>2026-04-26T12:59:20.189Z</time></trkpt><trkpt lat="42.9677859" lon="11.6168349"><ele>660.0</ele><time>2026-04-26T12:59:21.198Z</time></trkpt><trkpt lat="42.9678216" lon="11.6169417"><ele>660.0</ele><time>2026-04-26T12:59:22.188Z</time></trkpt><trkpt lat="42.9678649" lon="11.617072"><ele>660.0</ele><time>2026-04-26T12:59:23.194Z</time></trkpt><trkpt lat="42.9679088" lon="11.6172002"><ele>660.0</ele><time>2026-04-26T12:59:24.19Z</time></trkpt><trkpt lat="42.9679547" lon="11.617327"><ele>660.0</ele><time>2026-04-26T12:59:25.2Z</time></trkpt><trkpt lat="42.9680014" lon="11.617452"><ele>660.0</ele><time>2026-04-26T12:59:26.204Z</time></trkpt><trkpt lat="42.9680475" lon="11.6175582"><ele>660.0</ele><time>2026-04-26T12:59:27.182Z</time></trkpt><trkpt lat="42.9681055" lon="11.6176576"><ele>660.0</ele><time>2026-04-26T12:59:28.203Z</time></trkpt><trkpt lat="42.9681682" lon="11.6177626"><ele>660.0</ele><time>2026-04-26T12:59:29.183Z</time></trkpt><trkpt lat="42.9682722" lon="11.617838"><ele>656.8</ele><time>2026-04-26T12:59:30.204Z</time></trkpt><trkpt lat="42.9683789" lon="11.6179057"><ele>653.6</ele><time>2026-04-26T12:59:31.191Z</time></trkpt><trkpt lat="42.9684795" lon="11.6179738"><ele>650.4000000000001</ele><time>2026-04-26T12:59:32.194Z</time></trkpt><trkpt lat="42.968576" lon="11.6180362"><ele>647.2</ele><time>2026-04-26T12:59:33.19Z</time></trkpt><trkpt lat="42.9686629" lon="11.6180983"><ele>644.0</ele><time>2026-04-26T12:59:34.193Z</time></trkpt><trkpt lat="42.9687477" lon="11.6181573"><ele>644.0</ele><time>2026-04-26T12:59:35.193Z</time></trkpt><trkpt lat="42.968831" lon="11.6182124"><ele>644.0</ele><time>2026-04-26T12:59:36.199Z</time></trkpt><trkpt lat="42.9689097" lon="11.6182779"><ele>644.0</ele><time>2026-04-26T12:59:37.181Z</time></trkpt><trkpt lat="42.9689927" lon="11.6183377"><ele>644.0</ele><time>2026-04-26T12:59:38.204Z</time></trkpt><trkpt lat="42.9690732" lon="11.6183997"><ele>644.0</ele><time>2026-04-26T12:59:39.203Z</time></trkpt><trkpt lat="42.9691476" lon="11.6184663"><ele>645.6</ele><time>2026-04-26T12:59:40.194Z</time></trkpt><trkpt lat="42.969211" lon="11.618543"><ele>647.2</ele><time>2026-04-26T12:59:41.192Z</time></trkpt><trkpt lat="42.9692698" lon="11.6186438"><ele>648.8000000000001</ele><time>2026-04-26T12:59:42.199Z</time></trkpt><trkpt lat="42.9693223" lon="11.6187649"><ele>650.4000000000001</ele><time>2026-04-26T12:59:43.182Z</time></trkpt><trkpt lat="42.969372" lon="11.6189022"><ele>652.0</ele><time>2026-04-26T12:59:44.186Z</time></trkpt><trkpt lat="42.969418" lon="11.619027"><ele>649.2857142857143</ele><time>2026-04-26T12:59:45.197Z</time></trkpt><trkpt lat="42.9694587" lon="11.619137"><ele>646.5714285714286</ele><time>2026-04-26T12:59:46.198Z</time></trkpt><trkpt lat="42.9694959" lon="11.6192341"><ele>643.8571428571429</ele><time>2026-04-26T12:59:47.197Z</time></trkpt><trkpt lat="42.969531" lon="11.6193257"><ele>641.1428571428571</ele><time>2026-04-26T12:59:48.198Z</time></trkpt><trkpt lat="42.9695611" lon="11.6194157"><ele>638.4285714285714</ele><time>2026-04-26T12:59:49.195Z</time></trkpt><trkpt lat="42.9695699" lon="11.6195021"><ele>635.7142857142857</ele><time>2026-04-26T12:59:50.191Z</time></trkpt><trkpt lat="42.9695767" lon="11.6195916"><ele>633.0</ele><time>2026-04-26T12:59:51.197Z</time></trkpt><trkpt lat="42.9695565" lon="11.6196915"><ele>630.6</ele><time>2026-04-26T12:59:52.179Z</time></trkpt><trkpt lat="42.9695093" lon="11.6197864"><ele>628.1999999999999</ele><time>2026-04-26T12:59:53.19Z</time></trkpt><trkpt lat="42.9694371" lon="11.6198815"><ele>625.8</ele><time>2026-04-26T12:59:54.197Z</time></trkpt><trkpt lat="42.9693626" lon="11.6199717"><ele>623.4</ele><time>2026-04-26T12:59:55.19Z</time></trkpt><trkpt lat="42.9692769" lon="11.620047"><ele>621.0</ele><time>2026-04-26T12:59:56.19Z</time></trkpt><trkpt lat="42.9691945" lon="11.620133"><ele>620.6666666666666</ele><time>2026-04-26T12:59:57.195Z</time></trkpt><trkpt lat="42.9691138" lon="11.6202133"><ele>620.3333333333334</ele><time>2026-04-26T12:59:58.199Z</time></trkpt><trkpt lat="42.969044" lon="11.6202835"><ele>620.0</ele><time>2026-04-26T12:59:59.199Z</time></trkpt><trkpt lat="42.9689884" lon="11.6203557"><ele>619.6666666666667</ele><time>2026-04-26T13:00:00.194Z</time></trkpt><trkpt lat="42.9689497" lon="11.6204477"><ele>619.3333333333334</ele><time>2026-04-26T13:00:01.198Z</time></trkpt><trkpt lat="42.9689117" lon="11.6205422"><ele>619.0</ele><time>2026-04-26T13:00:02.192Z</time></trkpt><trkpt lat="42.9689296" lon="11.6206824"><ele>616.2</ele><time>2026-04-26T13:00:03.203Z</time></trkpt><trkpt lat="42.968957" lon="11.6208187"><ele>613.4</ele><time>2026-04-26T13:00:04.18Z</time></trkpt><trkpt lat="42.968985" lon="11.6209503"><ele>610.6</ele><time>2026-04-26T13:00:05.18Z</time></trkpt><trkpt lat="42.9690085" lon="11.6210744"><ele>607.8</ele><time>2026-04-26T13:00:06.185Z</time></trkpt><trkpt lat="42.9690361" lon="11.6211869"><ele>605.0</ele><time>2026-04-26T13:00:07.197Z</time></trkpt><trkpt lat="42.9690792" lon="11.6212811"><ele>603.0</ele><time>2026-04-26T13:00:08.203Z</time></trkpt><trkpt lat="42.9691333" lon="11.6213518"><ele>601.0</ele><time>2026-04-26T13:00:09.203Z</time></trkpt><trkpt lat="42.9691879" lon="11.6214083"><ele>599.0</ele><time>2026-04-26T13:00:10.192Z</time></trkpt><trkpt lat="42.9692306" lon="11.6214727"><ele>597.0</ele><time>2026-04-26T13:00:11.182Z</time></trkpt><trkpt lat="42.9692209" lon="11.6216453"><ele>595.0</ele><time>2026-04-26T13:00:13.193Z</time></trkpt><trkpt lat="42.969177" lon="11.6217454"><ele>593.0</ele><time>2026-04-26T13:00:14.185Z</time></trkpt><trkpt lat="42.9691331" lon="11.6218498"><ele>592.7142857142857</ele><time>2026-04-26T13:00:15.191Z</time></trkpt><trkpt lat="42.9691001" lon="11.6219556"><ele>592.4285714285714</ele><time>2026-04-26T13:00:16.195Z</time></trkpt><trkpt lat="42.9690815" lon="11.6220563"><ele>592.1428571428571</ele><time>2026-04-26T13:00:17.197Z</time></trkpt><trkpt lat="42.9690744" lon="11.6221521"><ele>591.8571428571429</ele><time>2026-04-26T13:00:18.195Z</time></trkpt><trkpt lat="42.9690905" lon="11.6222429"><ele>591.5714285714286</ele><time>2026-04-26T13:00:19.185Z</time></trkpt><trkpt lat="42.9691357" lon="11.622317"><ele>591.2857142857142</ele><time>2026-04-26T13:00:20.185Z</time></trkpt><trkpt lat="42.9692012" lon="11.6223644"><ele>591.0</ele><time>2026-04-26T13:00:21.185Z</time></trkpt><trkpt lat="42.96928" lon="11.6223747"><ele>589.0</ele><time>2026-04-26T13:00:22.196Z</time></trkpt><trkpt lat="42.9693598" lon="11.6223815"><ele>587.0</ele><time>2026-04-26T13:00:23.191Z</time></trkpt><trkpt lat="42.9694507" lon="11.6223647"><ele>585.0</ele><time>2026-04-26T13:00:24.207Z</time></trkpt><trkpt lat="42.9695407" lon="11.622372"><ele>583.0</ele><time>2026-04-26T13:00:25.202Z</time></trkpt><trkpt lat="42.9696272" lon="11.6223797"><ele>581.0</ele><time>2026-04-26T13:00:26.192Z</time></trkpt><trkpt lat="42.969701" lon="11.6224157"><ele>579.0</ele><time>2026-04-26T13:00:27.196Z</time></trkpt><trkpt lat="42.9697499" lon="11.6225028"><ele>579.0</ele><time>2026-04-26T13:00:28.197Z</time></trkpt><trkpt lat="42.9697751" lon="11.6226142"><ele>579.0</ele><time>2026-04-26T13:00:29.18Z</time></trkpt><trkpt lat="42.9697983" lon="11.6227287"><ele>579.0</ele><time>2026-04-26T13:00:30.196Z</time></trkpt><trkpt lat="42.9698101" lon="11.622856"><ele>579.0</ele><time>2026-04-26T13:00:31.193Z</time></trkpt><trkpt lat="42.9698227" lon="11.6229831"><ele>579.0</ele><time>2026-04-26T13:00:32.192Z</time></trkpt><trkpt lat="42.9698313" lon="11.6231073"><ele>577.5</ele><time>2026-04-26T13:00:33.197Z</time></trkpt><trkpt lat="42.9698357" lon="11.6232218"><ele>576.0</ele><time>2026-04-26T13:00:34.205Z</time></trkpt><trkpt lat="42.9698423" lon="11.6233335"><ele>574.5</ele><time>2026-04-26T13:00:35.203Z</time></trkpt><trkpt lat="42.9698554" lon="11.623444"><ele>573.0</ele><time>2026-04-26T13:00:36.195Z</time></trkpt><trkpt lat="42.9698721" lon="11.6235577"><ele>571.5</ele><time>2026-04-26T13:00:37.179Z</time></trkpt><trkpt lat="42.9698911" lon="11.6236766"><ele>570.0</ele><time>2026-04-26T13:00:38.201Z</time></trkpt><trkpt lat="42.9699108" lon="11.6238016"><ele>571.6</ele><time>2026-04-26T13:00:39.2Z</time></trkpt><trkpt lat="42.969931" lon="11.6239286"><ele>573.2</ele><time>2026-04-26T13:00:40.179Z</time></trkpt><trkpt lat="42.9699532" lon="11.6240591"><ele>574.8</ele><time>2026-04-26T13:00:41.202Z</time></trkpt><trkpt lat="42.9699869" lon="11.6241927"><ele>576.4</ele><time>2026-04-26T13:00:42.189Z</time></trkpt><trkpt lat="42.970046" lon="11.6243197"><ele>578.0</ele><time>2026-04-26T13:00:43.188Z</time></trkpt><trkpt lat="42.9701145" lon="11.6244473"><ele>577.75</ele><time>2026-04-26T13:00:44.2Z</time></trkpt><trkpt lat="42.9701778" lon="11.6245854"><ele>577.5</ele><time>2026-04-26T13:00:45.188Z</time></trkpt><trkpt lat="42.9702388" lon="11.6247304"><ele>577.25</ele><time>2026-04-26T13:00:46.199Z</time></trkpt><trkpt lat="42.9702822" lon="11.6248912"><ele>577.0</ele><time>2026-04-26T13:00:47.198Z</time></trkpt><trkpt lat="42.970316" lon="11.6250427"><ele>577.0</ele><time>2026-04-26T13:00:48.19Z</time></trkpt><trkpt lat="42.9703349" lon="11.6251812"><ele>577.0</ele><time>2026-04-26T13:00:49.209Z</time></trkpt><trkpt lat="42.9703425" lon="11.6253071"><ele>577.0</ele><time>2026-04-26T13:00:50.193Z</time></trkpt><trkpt lat="42.9703517" lon="11.6254223"><ele>577.0</ele><time>2026-04-26T13:00:51.203Z</time></trkpt><trkpt lat="42.9703751" lon="11.6255349"><ele>577.0</ele><time>2026-04-26T13:00:52.182Z</time></trkpt><trkpt lat="42.9704189" lon="11.6256456"><ele>575.8000000000001</ele><time>2026-04-26T13:00:53.19Z</time></trkpt><trkpt lat="42.9704787" lon="11.6257506"><ele>574.6</ele><time>2026-04-26T13:00:54.183Z</time></trkpt><trkpt lat="42.9705408" lon="11.6258533"><ele>573.4000000000001</ele><time>2026-04-26T13:00:55.207Z</time></trkpt><trkpt lat="42.9705994" lon="11.6259521"><ele>572.2</ele><time>2026-04-26T13:00:56.191Z</time></trkpt><trkpt lat="42.970647" lon="11.6260535"><ele>571.0</ele><time>2026-04-26T13:00:57.191Z</time></trkpt><trkpt lat="42.970675" lon="11.626165"><ele>567.4</ele><time>2026-04-26T13:00:58.181Z</time></trkpt><trkpt lat="42.9707042" lon="11.626278"><ele>563.8</ele><time>2026-04-26T13:00:59.189Z</time></trkpt><trkpt lat="42.9707309" lon="11.6263896"><ele>560.1999999999999</ele><time>2026-04-26T13:01:00.196Z</time></trkpt><trkpt lat="42.9707445" lon="11.62651"><ele>556.6</ele><time>2026-04-26T13:01:01.199Z</time></trkpt><trkpt lat="42.9707342" lon="11.6266489"><ele>553.0</ele><time>2026-04-26T13:01:02.198Z</time></trkpt><trkpt lat="42.9707269" lon="11.6267933"><ele>553.0</ele><time>2026-04-26T13:01:03.213Z</time></trkpt><trkpt lat="42.970725" lon="11.6269398"><ele>553.0</ele><time>2026-04-26T13:01:04.2Z</time></trkpt><trkpt lat="42.9707294" lon="11.6270851"><ele>553.0</ele><time>2026-04-26T13:01:05.193Z</time></trkpt><trkpt lat="42.9707405" lon="11.6272324"><ele>553.0</ele><time>2026-04-26T13:01:06.186Z</time></trkpt><trkpt lat="42.9707613" lon="11.6273811"><ele>553.0</ele><time>2026-04-26T13:01:07.178Z</time></trkpt><trkpt lat="42.9707969" lon="11.6275266"><ele>550.1999999999999</ele><time>2026-04-26T13:01:08.202Z</time></trkpt><trkpt lat="42.9708459" lon="11.6276659"><ele>547.4</ele><time>2026-04-26T13:01:09.205Z</time></trkpt><trkpt lat="42.970893" lon="11.6278035"><ele>544.5999999999999</ele><time>2026-04-26T13:01:10.203Z</time></trkpt><trkpt lat="42.9709335" lon="11.6279389"><ele>541.8</ele><time>2026-04-26T13:01:11.195Z</time></trkpt><trkpt lat="42.9709587" lon="11.6280826"><ele>539.0</ele><time>2026-04-26T13:01:12.19Z</time></trkpt><trkpt lat="42.9709804" lon="11.6282253"><ele>544.2</ele><time>2026-04-26T13:01:13.202Z</time></trkpt><trkpt lat="42.9709836" lon="11.6283699"><ele>549.4</ele><time>2026-04-26T13:01:14.204Z</time></trkpt><trkpt lat="42.9709864" lon="11.6285059"><ele>554.6</ele><time>2026-04-26T13:01:15.184Z</time></trkpt><trkpt lat="42.9709887" lon="11.6286355"><ele>559.8</ele><time>2026-04-26T13:01:16.2Z</time></trkpt><trkpt lat="42.9709854" lon="11.628759"><ele>565.0</ele><time>2026-04-26T13:01:17.196Z</time></trkpt><trkpt lat="42.9709729" lon="11.6288748"><ele>565.0</ele><time>2026-04-26T13:01:18.206Z</time></trkpt><trkpt lat="42.970959" lon="11.6289857"><ele>565.0</ele><time>2026-04-26T13:01:19.197Z</time></trkpt><trkpt lat="42.9709351" lon="11.629094"><ele>565.0</ele><time>2026-04-26T13:01:20.2Z</time></trkpt><trkpt lat="42.9709232" lon="11.6292087"><ele>565.0</ele><time>2026-04-26T13:01:21.191Z</time></trkpt><trkpt lat="42.9709208" lon="11.6293299"><ele>565.0</ele><time>2026-04-26T13:01:22.215Z</time></trkpt><trkpt lat="42.9709224" lon="11.6294467"><ele>565.0</ele><time>2026-04-26T13:01:23.192Z</time></trkpt><trkpt lat="42.9709234" lon="11.6295577"><ele>563.5</ele><time>2026-04-26T13:01:24.201Z</time></trkpt><trkpt lat="42.9709248" lon="11.6296693"><ele>562.0</ele><time>2026-04-26T13:01:25.201Z</time></trkpt><trkpt lat="42.9709112" lon="11.6297752"><ele>560.5</ele><time>2026-04-26T13:01:26.194Z</time></trkpt><trkpt lat="42.9708938" lon="11.6298683"><ele>559.0</ele><time>2026-04-26T13:01:27.198Z</time></trkpt><trkpt lat="42.9708335" lon="11.629923"><ele>557.5</ele><time>2026-04-26T13:01:28.185Z</time></trkpt><trkpt lat="42.9707581" lon="11.6299562"><ele>556.0</ele><time>2026-04-26T13:01:29.201Z</time></trkpt><trkpt lat="42.9706685" lon="11.6299722"><ele>550.6666666666667</ele><time>2026-04-26T13:01:30.184Z</time></trkpt><trkpt lat="42.9705788" lon="11.6299682"><ele>545.3333333333334</ele><time>2026-04-26T13:01:31.189Z</time></trkpt><trkpt lat="42.9704969" lon="11.6299472"><ele>540.0</ele><time>2026-04-26T13:01:32.195Z</time></trkpt><trkpt lat="42.9704284" lon="11.6299199"><ele>534.6666666666666</ele><time>2026-04-26T13:01:33.2Z</time></trkpt><trkpt lat="42.9703241" lon="11.6299024"><ele>529.3333333333333</ele><time>2026-04-26T13:01:35.191Z</time></trkpt><trkpt lat="42.9702392" lon="11.6299663"><ele>524.0</ele><time>2026-04-26T13:01:37.204Z</time></trkpt><trkpt lat="42.9702282" lon="11.6300604"><ele>524.0</ele><time>2026-04-26T13:01:38.198Z</time></trkpt><trkpt lat="42.9702238" lon="11.6301751"><ele>524.0</ele><time>2026-04-26T13:01:39.193Z</time></trkpt><trkpt lat="42.9702234" lon="11.6302992"><ele>524.0</ele><time>2026-04-26T13:01:40.191Z</time></trkpt><trkpt lat="42.9702242" lon="11.6304312"><ele>524.0</ele><time>2026-04-26T13:01:41.2Z</time></trkpt><trkpt lat="42.9702232" lon="11.6305656"><ele>524.0</ele><time>2026-04-26T13:01:42.194Z</time></trkpt><trkpt lat="42.9702228" lon="11.6307019"><ele>522.2</ele><time>2026-04-26T13:01:43.188Z</time></trkpt><trkpt lat="42.9702219" lon="11.6308419"><ele>520.4</ele><time>2026-04-26T13:01:44.198Z</time></trkpt><trkpt lat="42.9702201" lon="11.6309862"><ele>518.6</ele><time>2026-04-26T13:01:45.195Z</time></trkpt><trkpt lat="42.9702177" lon="11.6311313"><ele>516.8</ele><time>2026-04-26T13:01:46.21Z</time></trkpt><trkpt lat="42.9702162" lon="11.6312651"><ele>515.0</ele><time>2026-04-26T13:01:47.185Z</time></trkpt><trkpt lat="42.9702208" lon="11.6313972"><ele>514.4</ele><time>2026-04-26T13:01:48.191Z</time></trkpt><trkpt lat="42.9702342" lon="11.6315303"><ele>513.8</ele><time>2026-04-26T13:01:49.194Z</time></trkpt><trkpt lat="42.9702537" lon="11.6316601"><ele>513.2</ele><time>2026-04-26T13:01:50.19Z</time></trkpt><trkpt lat="42.9702763" lon="11.6317892"><ele>512.6</ele><time>2026-04-26T13:01:51.187Z</time></trkpt><trkpt lat="42.9702984" lon="11.6319204"><ele>512.0</ele><time>2026-04-26T13:01:52.188Z</time></trkpt><trkpt lat="42.9703181" lon="11.6320563"><ele>511.0</ele><time>2026-04-26T13:01:53.182Z</time></trkpt><trkpt lat="42.97035" lon="11.6321921"><ele>510.00000000000006</ele><time>2026-04-26T13:01:54.2Z</time></trkpt><trkpt lat="42.9704039" lon="11.6323225"><ele>509.00000000000006</ele><time>2026-04-26T13:01:55.201Z</time></trkpt><trkpt lat="42.9704745" lon="11.6324456"><ele>508.0</ele><time>2026-04-26T13:01:56.195Z</time></trkpt><trkpt lat="42.9705529" lon="11.6325693"><ele>507.0</ele><time>2026-04-26T13:01:57.196Z</time></trkpt><trkpt lat="42.9706184" lon="11.632697"><ele>505.8</ele><time>2026-04-26T13:01:58.188Z</time></trkpt><trkpt lat="42.9706572" lon="11.6328273"><ele>504.6</ele><time>2026-04-26T13:01:59.187Z</time></trkpt><trkpt lat="42.970694" lon="11.6329568"><ele>503.40000000000003</ele><time>2026-04-26T13:02:00.181Z</time></trkpt><trkpt lat="42.9706953" lon="11.633096"><ele>502.20000000000005</ele><time>2026-04-26T13:02:01.194Z</time></trkpt><trkpt lat="42.9706913" lon="11.6332408"><ele>501.0</ele><time>2026-04-26T13:02:02.191Z</time></trkpt><trkpt lat="42.9706955" lon="11.6333897"><ele>501.0</ele><time>2026-04-26T13:02:03.193Z</time></trkpt><trkpt lat="42.9707164" lon="11.6335371"><ele>501.0</ele><time>2026-04-26T13:02:04.2Z</time></trkpt><trkpt lat="42.9707549" lon="11.633685"><ele>501.0</ele><time>2026-04-26T13:02:05.188Z</time></trkpt><trkpt lat="42.9708041" lon="11.6338307"><ele>501.0</ele><time>2026-04-26T13:02:06.196Z</time></trkpt><trkpt lat="42.9708551" lon="11.6339675"><ele>501.0</ele><time>2026-04-26T13:02:07.19Z</time></trkpt><trkpt lat="42.9709077" lon="11.6340954"><ele>501.0</ele><time>2026-04-26T13:02:08.197Z</time></trkpt><trkpt lat="42.9709635" lon="11.6342178"><ele>501.0</ele><time>2026-04-26T13:02:09.193Z</time></trkpt><trkpt lat="42.9710184" lon="11.6343303"><ele>501.0</ele><time>2026-04-26T13:02:10.184Z</time></trkpt><trkpt lat="42.9710702" lon="11.6344374"><ele>501.0</ele><time>2026-04-26T13:02:11.184Z</time></trkpt><trkpt lat="42.9711119" lon="11.6345485"><ele>501.0</ele><time>2026-04-26T13:02:12.197Z</time></trkpt><trkpt lat="42.9711232" lon="11.6346901"><ele>501.0</ele><time>2026-04-26T13:02:13.186Z</time></trkpt><trkpt lat="42.9711227" lon="11.6348429"><ele>501.0</ele><time>2026-04-26T13:02:14.19Z</time></trkpt><trkpt lat="42.9711158" lon="11.6349846"><ele>501.0</ele><time>2026-04-26T13:02:15.194Z</time></trkpt><trkpt lat="42.9711101" lon="11.6351159"><ele>501.0</ele><time>2026-04-26T13:02:16.195Z</time></trkpt><trkpt lat="42.9711058" lon="11.6352355"><ele>499.7142857142857</ele><time>2026-04-26T13:02:17.194Z</time></trkpt><trkpt lat="42.9711038" lon="11.635346"><ele>498.42857142857144</ele><time>2026-04-26T13:02:18.182Z</time></trkpt><trkpt lat="42.9711025" lon="11.6354463"><ele>497.14285714285717</ele><time>2026-04-26T13:02:19.199Z</time></trkpt><trkpt lat="42.9710953" lon="11.6355436"><ele>495.8571428571429</ele><time>2026-04-26T13:02:20.19Z</time></trkpt><trkpt lat="42.9710781" lon="11.6356412"><ele>494.57142857142856</ele><time>2026-04-26T13:02:21.185Z</time></trkpt><trkpt lat="42.9710548" lon="11.6357348"><ele>493.28571428571433</ele><time>2026-04-26T13:02:22.188Z</time></trkpt><trkpt lat="42.9710401" lon="11.6358275"><ele>492.00000000000006</ele><time>2026-04-26T13:02:23.199Z</time></trkpt><trkpt lat="42.9710592" lon="11.6359743"><ele>492.0</ele><time>2026-04-26T13:02:25.198Z</time></trkpt><trkpt lat="42.9711334" lon="11.6360816"><ele>492.00000000000006</ele><time>2026-04-26T13:02:27.188Z</time></trkpt><trkpt lat="42.9712396" lon="11.6361843"><ele>492.00000000000006</ele><time>2026-04-26T13:02:29.184Z</time></trkpt><trkpt lat="42.9712965" lon="11.6362438"><ele>492.0</ele><time>2026-04-26T13:02:30.182Z</time></trkpt><trkpt lat="42.9713509" lon="11.6363231"><ele>492.0</ele><time>2026-04-26T13:02:31.187Z</time></trkpt><trkpt lat="42.9714056" lon="11.6364223"><ele>490.40000000000003</ele><time>2026-04-26T13:02:32.185Z</time></trkpt><trkpt lat="42.9714504" lon="11.6365331"><ele>488.80000000000007</ele><time>2026-04-26T13:02:33.182Z</time></trkpt><trkpt lat="42.9714899" lon="11.6366531"><ele>487.2</ele><time>2026-04-26T13:02:34.191Z</time></trkpt><trkpt lat="42.9715188" lon="11.636777"><ele>485.6</ele><time>2026-04-26T13:02:35.181Z</time></trkpt><trkpt lat="42.9715373" lon="11.6368991"><ele>484.0</ele><time>2026-04-26T13:02:36.195Z</time></trkpt><trkpt lat="42.9715544" lon="11.637012"><ele>483.6666666666667</ele><time>2026-04-26T13:02:37.182Z</time></trkpt><trkpt lat="42.9715723" lon="11.6371222"><ele>483.33333333333337</ele><time>2026-04-26T13:02:38.189Z</time></trkpt><trkpt lat="42.9715903" lon="11.637227"><ele>483.0</ele><time>2026-04-26T13:02:39.186Z</time></trkpt><trkpt lat="42.9716104" lon="11.6373228"><ele>482.66666666666663</ele><time>2026-04-26T13:02:40.195Z</time></trkpt><trkpt lat="42.9716466" lon="11.6374168"><ele>482.3333333333333</ele><time>2026-04-26T13:02:41.19Z</time></trkpt><trkpt lat="42.9717123" lon="11.6375014"><ele>482.0</ele><time>2026-04-26T13:02:42.195Z</time></trkpt><trkpt lat="42.9717948" lon="11.6375795"><ele>482.0</ele><time>2026-04-26T13:02:43.189Z</time></trkpt><trkpt lat="42.9718808" lon="11.6376633"><ele>482.00000000000006</ele><time>2026-04-26T13:02:44.186Z</time></trkpt><trkpt lat="42.9719642" lon="11.637746"><ele>482.00000000000006</ele><time>2026-04-26T13:02:45.182Z</time></trkpt><trkpt lat="42.9720385" lon="11.6378318"><ele>482.0</ele><time>2026-04-26T13:02:46.199Z</time></trkpt><trkpt lat="42.9721178" lon="11.6379151"><ele>482.0</ele><time>2026-04-26T13:02:47.177Z</time></trkpt><trkpt lat="42.9721973" lon="11.6379954"><ele>478.20000000000005</ele><time>2026-04-26T13:02:48.193Z</time></trkpt><trkpt lat="42.9722783" lon="11.6380761"><ele>474.40000000000003</ele><time>2026-04-26T13:02:49.181Z</time></trkpt><trkpt lat="42.9723607" lon="11.638151"><ele>470.59999999999997</ele><time>2026-04-26T13:02:50.186Z</time></trkpt><trkpt lat="42.972439" lon="11.6382274"><ele>466.79999999999995</ele><time>2026-04-26T13:02:51.189Z</time></trkpt><trkpt lat="42.9725184" lon="11.6383024"><ele>463.0</ele><time>2026-04-26T13:02:52.184Z</time></trkpt><trkpt lat="42.972599" lon="11.6383765"><ele>463.0</ele><time>2026-04-26T13:02:53.189Z</time></trkpt><trkpt lat="42.972686" lon="11.6384436"><ele>462.99999999999994</ele><time>2026-04-26T13:02:54.198Z</time></trkpt><trkpt lat="42.9727687" lon="11.6384953"><ele>462.99999999999994</ele><time>2026-04-26T13:02:55.188Z</time></trkpt><trkpt lat="42.9728502" lon="11.6385428"><ele>463.0</ele><time>2026-04-26T13:02:56.198Z</time></trkpt><trkpt lat="42.9729383" lon="11.6385825"><ele>463.0</ele><time>2026-04-26T13:02:57.198Z</time></trkpt><trkpt lat="42.9730377" lon="11.6386186"><ele>458.25</ele><time>2026-04-26T13:02:58.199Z</time></trkpt><trkpt lat="42.9731446" lon="11.6386472"><ele>453.5</ele><time>2026-04-26T13:02:59.203Z</time></trkpt><trkpt lat="42.9732553" lon="11.6386837"><ele>448.75</ele><time>2026-04-26T13:03:00.203Z</time></trkpt><trkpt lat="42.9733677" lon="11.6387406"><ele>444.0</ele><time>2026-04-26T13:03:01.183Z</time></trkpt><trkpt lat="42.9734732" lon="11.6388037"><ele>444.0</ele><time>2026-04-26T13:03:02.187Z</time></trkpt><trkpt lat="42.973567" lon="11.6388722"><ele>444.0</ele><time>2026-04-26T13:03:03.189Z</time></trkpt><trkpt lat="42.9736536" lon="11.638949"><ele>444.0</ele><time>2026-04-26T13:03:04.199Z</time></trkpt><trkpt lat="42.9737377" lon="11.6390165"><ele>444.0</ele><time>2026-04-26T13:03:05.207Z</time></trkpt><trkpt lat="42.9738207" lon="11.6390844"><ele>444.0</ele><time>2026-04-26T13:03:06.187Z</time></trkpt><trkpt lat="42.9739087" lon="11.6391374"><ele>444.0</ele><time>2026-04-26T13:03:07.183Z</time></trkpt><trkpt lat="42.9739979" lon="11.639189"><ele>444.0</ele><time>2026-04-26T13:03:08.199Z</time></trkpt><trkpt lat="42.9740879" lon="11.6392194"><ele>444.0</ele><time>2026-04-26T13:03:09.186Z</time></trkpt><trkpt lat="42.974173" lon="11.6392323"><ele>444.0</ele><time>2026-04-26T13:03:10.2Z</time></trkpt><trkpt lat="42.9742518" lon="11.6392184"><ele>444.0</ele><time>2026-04-26T13:03:11.186Z</time></trkpt><trkpt lat="42.9743155" lon="11.6391991"><ele>444.0</ele><time>2026-04-26T13:03:12.179Z</time></trkpt><trkpt lat="42.9744256" lon="11.6392078"><ele>443.5</ele><time>2026-04-26T13:03:14.19Z</time></trkpt><trkpt lat="42.9744733" lon="11.6392749"><ele>443.0</ele><time>2026-04-26T13:03:15.201Z</time></trkpt><trkpt lat="42.9745039" lon="11.6393617"><ele>442.5</ele><time>2026-04-26T13:03:16.201Z</time></trkpt><trkpt lat="42.9745255" lon="11.6394542"><ele>442.0</ele><time>2026-04-26T13:03:17.193Z</time></trkpt><trkpt lat="42.974533" lon="11.6395405"><ele>441.5</ele><time>2026-04-26T13:03:18.197Z</time></trkpt><trkpt lat="42.9744992" lon="11.6396828"><ele>441.0</ele><time>2026-04-26T13:03:20.179Z</time></trkpt><trkpt lat="42.9743904" lon="11.639755"><ele>438.0</ele><time>2026-04-26T13:03:22.198Z</time></trkpt><trkpt lat="42.9742982" lon="11.6397567"><ele>435.0</ele><time>2026-04-26T13:03:23.183Z</time></trkpt><trkpt lat="42.9741881" lon="11.6397671"><ele>432.0</ele><time>2026-04-26T13:03:24.196Z</time></trkpt><trkpt lat="42.9740693" lon="11.6397853"><ele>429.0</ele><time>2026-04-26T13:03:25.2Z</time></trkpt><trkpt lat="42.9739471" lon="11.6397946"><ele>426.0</ele><time>2026-04-26T13:03:26.187Z</time></trkpt><trkpt lat="42.973832" lon="11.6397912"><ele>426.0</ele><time>2026-04-26T13:03:27.202Z</time></trkpt><trkpt lat="42.9737246" lon="11.6397785"><ele>426.0</ele><time>2026-04-26T13:03:28.183Z</time></trkpt><trkpt lat="42.9736189" lon="11.6397685"><ele>426.0</ele><time>2026-04-26T13:03:29.189Z</time></trkpt><trkpt lat="42.9735131" lon="11.6397617"><ele>426.0</ele><time>2026-04-26T13:03:30.189Z</time></trkpt><trkpt lat="42.9734014" lon="11.639755"><ele>426.0</ele><time>2026-04-26T13:03:31.19Z</time></trkpt><trkpt lat="42.9732881" lon="11.6397513"><ele>425.6</ele><time>2026-04-26T13:03:32.183Z</time></trkpt><trkpt lat="42.9731788" lon="11.6397481"><ele>425.20000000000005</ele><time>2026-04-26T13:03:33.203Z</time></trkpt><trkpt lat="42.9730737" lon="11.6397457"><ele>424.79999999999995</ele><time>2026-04-26T13:03:34.204Z</time></trkpt><trkpt lat="42.9729704" lon="11.6397483"><ele>424.4</ele><time>2026-04-26T13:03:35.196Z</time></trkpt><trkpt lat="42.9728734" lon="11.6397567"><ele>424.0</ele><time>2026-04-26T13:03:36.179Z</time></trkpt><trkpt lat="42.9727718" lon="11.639796"><ele>424.00000000000006</ele><time>2026-04-26T13:03:37.191Z</time></trkpt><trkpt lat="42.972672" lon="11.6398531"><ele>424.0</ele><time>2026-04-26T13:03:38.189Z</time></trkpt><trkpt lat="42.972587" lon="11.6399005"><ele>424.0</ele><time>2026-04-26T13:03:39.188Z</time></trkpt><trkpt lat="42.9725151" lon="11.6399415"><ele>424.0</ele><time>2026-04-26T13:03:40.182Z</time></trkpt><trkpt lat="42.9724549" lon="11.6399916"><ele>424.00000000000006</ele><time>2026-04-26T13:03:41.187Z</time></trkpt><trkpt lat="42.9724057" lon="11.6400578"><ele>424.0</ele><time>2026-04-26T13:03:42.186Z</time></trkpt><trkpt lat="42.9723439" lon="11.6401618"><ele>423.50000000000006</ele><time>2026-04-26T13:03:44.182Z</time></trkpt><trkpt lat="42.9723175" lon="11.6402416"><ele>423.0</ele><time>2026-04-26T13:03:47.192Z</time></trkpt><trkpt lat="42.9723979" lon="11.6402931"><ele>422.5</ele><time>2026-04-26T13:18:56.196Z</time></trkpt><trkpt lat="42.9725035" lon="11.6403231"><ele>422.0</ele><time>2026-04-26T13:18:58.208Z</time></trkpt><trkpt lat="42.9725709" lon="11.6403413"><ele>421.50000000000006</ele><time>2026-04-26T13:18:59.198Z</time></trkpt><trkpt lat="42.9726377" lon="11.6403607"><ele>421.0</ele><time>2026-04-26T13:19:00.19Z</time></trkpt><trkpt lat="42.9727024" lon="11.6403773"><ele>419.42857142857144</ele><time>2026-04-26T13:19:01.193Z</time></trkpt><trkpt lat="42.9727651" lon="11.6403939"><ele>417.8571428571429</ele><time>2026-04-26T13:19:02.203Z</time></trkpt><trkpt lat="42.9728317" lon="11.6404129"><ele>416.28571428571433</ele><time>2026-04-26T13:19:03.204Z</time></trkpt><trkpt lat="42.9728995" lon="11.6404308"><ele>414.7142857142857</ele><time>2026-04-26T13:19:04.196Z</time></trkpt><trkpt lat="42.9729728" lon="11.6404535"><ele>413.1428571428571</ele><time>2026-04-26T13:19:05.2Z</time></trkpt><trkpt lat="42.9730543" lon="11.640476"><ele>411.5714285714286</ele><time>2026-04-26T13:19:06.192Z</time></trkpt><trkpt lat="42.9731426" lon="11.6404994"><ele>410.0</ele><time>2026-04-26T13:19:07.195Z</time></trkpt><trkpt lat="42.9732294" lon="11.6405237"><ele>410.0</ele><time>2026-04-26T13:19:08.189Z</time></trkpt><trkpt lat="42.9733014" lon="11.6405417"><ele>410.0</ele><time>2026-04-26T13:19:09.197Z</time></trkpt><trkpt lat="42.9733786" lon="11.6405499"><ele>410.0</ele><time>2026-04-26T13:19:10.186Z</time></trkpt><trkpt lat="42.9734702" lon="11.6405608"><ele>410.0</ele><time>2026-04-26T13:19:11.201Z</time></trkpt><trkpt lat="42.9735696" lon="11.6405719"><ele>410.0</ele><time>2026-04-26T13:19:12.191Z</time></trkpt><trkpt lat="42.9736981" lon="11.6405787"><ele>409.5</ele><time>2026-04-26T13:19:13.201Z</time></trkpt><trkpt lat="42.9738354" lon="11.6405844"><ele>409.0</ele><time>2026-04-26T13:19:14.198Z</time></trkpt><trkpt lat="42.9739644" lon="11.6405865"><ele>408.5</ele><time>2026-04-26T13:19:15.201Z</time></trkpt><trkpt lat="42.9740819" lon="11.6405898"><ele>408.0</ele><time>2026-04-26T13:19:16.192Z</time></trkpt><trkpt lat="42.9741915" lon="11.6405947"><ele>407.4</ele><time>2026-04-26T13:19:17.199Z</time></trkpt><trkpt lat="42.9742947" lon="11.6405983"><ele>406.79999999999995</ele><time>2026-04-26T13:19:18.196Z</time></trkpt><trkpt lat="42.9743893" lon="11.6406037"><ele>406.2</ele><time>2026-04-26T13:19:19.18Z</time></trkpt><trkpt lat="42.9744833" lon="11.6406044"><ele>405.6</ele><time>2026-04-26T13:19:20.195Z</time></trkpt><trkpt lat="42.9745772" lon="11.6406075"><ele>405.0</ele><time>2026-04-26T13:19:21.199Z</time></trkpt><trkpt lat="42.9746711" lon="11.6406096"><ele>405.0</ele><time>2026-04-26T13:19:22.188Z</time></trkpt><trkpt lat="42.9747628" lon="11.6406157"><ele>405.0</ele><time>2026-04-26T13:19:23.182Z</time></trkpt><trkpt lat="42.974853" lon="11.6406284"><ele>405.0</ele><time>2026-04-26T13:19:24.195Z</time></trkpt><trkpt lat="42.9749432" lon="11.640667"><ele>405.0</ele><time>2026-04-26T13:19:25.186Z</time></trkpt><trkpt lat="42.9750349" lon="11.640708"><ele>405.0</ele><time>2026-04-26T13:19:26.198Z</time></trkpt><trkpt lat="42.9751312" lon="11.6407625"><ele>405.4</ele><time>2026-04-26T13:19:27.197Z</time></trkpt><trkpt lat="42.975226" lon="11.6408166"><ele>405.8</ele><time>2026-04-26T13:19:28.191Z</time></trkpt><trkpt lat="42.975323" lon="11.6408667"><ele>406.20000000000005</ele><time>2026-04-26T13:19:29.207Z</time></trkpt><trkpt lat="42.9754193" lon="11.6409071"><ele>406.6</ele><time>2026-04-26T13:19:30.196Z</time></trkpt><trkpt lat="42.9755142" lon="11.6409367"><ele>407.0</ele><time>2026-04-26T13:19:31.201Z</time></trkpt><trkpt lat="42.9756105" lon="11.640971"><ele>407.0</ele><time>2026-04-26T13:19:32.191Z</time></trkpt><trkpt lat="42.9757045" lon="11.6410133"><ele>407.0</ele><time>2026-04-26T13:19:33.204Z</time></trkpt><trkpt lat="42.9758016" lon="11.6410439"><ele>407.0</ele><time>2026-04-26T13:19:34.199Z</time></trkpt><trkpt lat="42.9759029" lon="11.6410729"><ele>407.0</ele><time>2026-04-26T13:19:35.181Z</time></trkpt><trkpt lat="42.9760014" lon="11.6411227"><ele>407.0</ele><time>2026-04-26T13:19:36.198Z</time></trkpt><trkpt lat="42.9760987" lon="11.6411947"><ele>404.25</ele><time>2026-04-26T13:19:37.187Z</time></trkpt><trkpt lat="42.9761901" lon="11.641283"><ele>401.5</ele><time>2026-04-26T13:19:38.205Z</time></trkpt><trkpt lat="42.9762771" lon="11.6413843"><ele>398.75</ele><time>2026-04-26T13:19:39.188Z</time></trkpt><trkpt lat="42.9763676" lon="11.6414805"><ele>396.0</ele><time>2026-04-26T13:19:40.191Z</time></trkpt><trkpt lat="42.9764515" lon="11.6415841"><ele>396.0</ele><time>2026-04-26T13:19:41.198Z</time></trkpt><trkpt lat="42.9765431" lon="11.6416781"><ele>396.0</ele><time>2026-04-26T13:19:42.186Z</time></trkpt><trkpt lat="42.9766328" lon="11.641765"><ele>396.0</ele><time>2026-04-26T13:19:43.206Z</time></trkpt><trkpt lat="42.9767259" lon="11.6418473"><ele>396.0</ele><time>2026-04-26T13:19:44.185Z</time></trkpt><trkpt lat="42.9768293" lon="11.6419224"><ele>394.75</ele><time>2026-04-26T13:19:45.206Z</time></trkpt><trkpt lat="42.976949" lon="11.6420009"><ele>393.5</ele><time>2026-04-26T13:19:46.196Z</time></trkpt><trkpt lat="42.9770777" lon="11.64208"><ele>392.25</ele><time>2026-04-26T13:19:47.198Z</time></trkpt><trkpt lat="42.9772105" lon="11.6421606"><ele>391.0</ele><time>2026-04-26T13:19:48.197Z</time></trkpt><trkpt lat="42.9773413" lon="11.6422405"><ele>391.0</ele><time>2026-04-26T13:19:49.189Z</time></trkpt><trkpt lat="42.9774705" lon="11.6423181"><ele>391.0</ele><time>2026-04-26T13:19:50.197Z</time></trkpt><trkpt lat="42.977599" lon="11.6423963"><ele>391.0</ele><time>2026-04-26T13:19:51.198Z</time></trkpt><trkpt lat="42.9777239" lon="11.6424805"><ele>391.0</ele><time>2026-04-26T13:19:52.196Z</time></trkpt><trkpt lat="42.9778469" lon="11.6425605"><ele>390.75</ele><time>2026-04-26T13:19:53.201Z</time></trkpt><trkpt lat="42.9779668" lon="11.6426353"><ele>390.5</ele><time>2026-04-26T13:19:54.205Z</time></trkpt><trkpt lat="42.978079" lon="11.6427096"><ele>390.25</ele><time>2026-04-26T13:19:55.191Z</time></trkpt><trkpt lat="42.9781864" lon="11.6427835"><ele>390.0</ele><time>2026-04-26T13:19:56.177Z</time></trkpt><trkpt lat="42.9782946" lon="11.6428583"><ele>391.5</ele><time>2026-04-26T13:19:57.204Z</time></trkpt><trkpt lat="42.9784051" lon="11.6429384"><ele>393.0</ele><time>2026-04-26T13:19:58.193Z</time></trkpt><trkpt lat="42.9785144" lon="11.6430194"><ele>394.5</ele><time>2026-04-26T13:19:59.201Z</time></trkpt><trkpt lat="42.9786174" lon="11.6430959"><ele>396.0</ele><time>2026-04-26T13:20:00.194Z</time></trkpt><trkpt lat="42.9787126" lon="11.6431681"><ele>396.0</ele><time>2026-04-26T13:20:01.199Z</time></trkpt><trkpt lat="42.9788033" lon="11.6432353"><ele>396.0</ele><time>2026-04-26T13:20:02.201Z</time></trkpt><trkpt lat="42.9788896" lon="11.6432942"><ele>396.0</ele><time>2026-04-26T13:20:03.197Z</time></trkpt><trkpt lat="42.9789719" lon="11.6433405"><ele>396.0</ele><time>2026-04-26T13:20:04.196Z</time></trkpt><trkpt lat="42.9790526" lon="11.6433667"><ele>396.0</ele><time>2026-04-26T13:20:05.197Z</time></trkpt><trkpt lat="42.9791325" lon="11.643365"><ele>395.6</ele><time>2026-04-26T13:20:06.186Z</time></trkpt><trkpt lat="42.9792116" lon="11.6433356"><ele>395.20000000000005</ele><time>2026-04-26T13:20:07.2Z</time></trkpt><trkpt lat="42.9792964" lon="11.6432812"><ele>394.79999999999995</ele><time>2026-04-26T13:20:08.202Z</time></trkpt><trkpt lat="42.9793965" lon="11.6432145"><ele>394.4</ele><time>2026-04-26T13:20:09.187Z</time></trkpt><trkpt lat="42.9794898" lon="11.643112"><ele>394.0</ele><time>2026-04-26T13:20:10.192Z</time></trkpt><trkpt lat="42.979583" lon="11.643006"><ele>394.0</ele><time>2026-04-26T13:20:11.18Z</time></trkpt><trkpt lat="42.9796738" lon="11.642904"><ele>394.0</ele><time>2026-04-26T13:20:12.184Z</time></trkpt><trkpt lat="42.9797509" lon="11.6428146"><ele>394.0</ele><time>2026-04-26T13:20:13.192Z</time></trkpt><trkpt lat="42.979817" lon="11.6427307"><ele>394.0</ele><time>2026-04-26T13:20:14.188Z</time></trkpt><trkpt lat="42.9798754" lon="11.6426379"><ele>394.0</ele><time>2026-04-26T13:20:15.201Z</time></trkpt><trkpt lat="42.9799295" lon="11.6425314"><ele>395.25</ele><time>2026-04-26T13:20:16.194Z</time></trkpt><trkpt lat="42.979977" lon="11.6424095"><ele>396.5</ele><time>2026-04-26T13:20:17.186Z</time></trkpt><trkpt lat="42.9800211" lon="11.6422645"><ele>397.75</ele><time>2026-04-26T13:20:18.195Z</time></trkpt><trkpt lat="42.9800641" lon="11.6421108"><ele>399.0</ele><time>2026-04-26T13:20:19.197Z</time></trkpt><trkpt lat="42.9801099" lon="11.6419447"><ele>400.5</ele><time>2026-04-26T13:20:20.194Z</time></trkpt><trkpt lat="42.980156" lon="11.6417739"><ele>402.0</ele><time>2026-04-26T13:20:21.184Z</time></trkpt><trkpt lat="42.9802035" lon="11.6416101"><ele>403.5</ele><time>2026-04-26T13:20:22.187Z</time></trkpt><trkpt lat="42.9802492" lon="11.6414566"><ele>405.0</ele><time>2026-04-26T13:20:23.189Z</time></trkpt><trkpt lat="42.9802905" lon="11.6413087"><ele>405.0</ele><time>2026-04-26T13:20:24.188Z</time></trkpt><trkpt lat="42.9803254" lon="11.6411648"><ele>405.0</ele><time>2026-04-26T13:20:25.199Z</time></trkpt><trkpt lat="42.9803535" lon="11.6410186"><ele>405.0</ele><time>2026-04-26T13:20:26.197Z</time></trkpt><trkpt lat="42.9803727" lon="11.6408678"><ele>405.0</ele><time>2026-04-26T13:20:27.188Z</time></trkpt><trkpt lat="42.9803796" lon="11.6407176"><ele>405.0</ele><time>2026-04-26T13:20:28.193Z</time></trkpt><trkpt lat="42.9803741" lon="11.6405654"><ele>406.0</ele><time>2026-04-26T13:20:29.199Z</time></trkpt><trkpt lat="42.9803685" lon="11.6404131"><ele>407.0</ele><time>2026-04-26T13:20:30.188Z</time></trkpt><trkpt lat="42.9803523" lon="11.6402531"><ele>408.0</ele><time>2026-04-26T13:20:31.202Z</time></trkpt><trkpt lat="42.9803349" lon="11.6400853"><ele>409.0</ele><time>2026-04-26T13:20:32.194Z</time></trkpt><trkpt lat="42.9803143" lon="11.6399242"><ele>410.0</ele><time>2026-04-26T13:20:33.192Z</time></trkpt><trkpt lat="42.9802934" lon="11.639773"><ele>411.0</ele><time>2026-04-26T13:20:34.185Z</time></trkpt><trkpt lat="42.9802776" lon="11.639638"><ele>412.0</ele><time>2026-04-26T13:20:35.204Z</time></trkpt><trkpt lat="42.980271" lon="11.6395129"><ele>413.0</ele><time>2026-04-26T13:20:36.179Z</time></trkpt><trkpt lat="42.9802815" lon="11.6393961"><ele>414.0</ele><time>2026-04-26T13:20:37.202Z</time></trkpt><trkpt lat="42.9803113" lon="11.6392891"><ele>415.6666666666667</ele><time>2026-04-26T13:20:38.192Z</time></trkpt><trkpt lat="42.9803576" lon="11.6391943"><ele>417.33333333333337</ele><time>2026-04-26T13:20:39.189Z</time></trkpt><trkpt lat="42.9804147" lon="11.6391171"><ele>419.0</ele><time>2026-04-26T13:20:40.204Z</time></trkpt><trkpt lat="42.9804841" lon="11.6390578"><ele>420.6666666666667</ele><time>2026-04-26T13:20:41.188Z</time></trkpt><trkpt lat="42.9805677" lon="11.6390245"><ele>422.33333333333337</ele><time>2026-04-26T13:20:42.206Z</time></trkpt><trkpt lat="42.9806608" lon="11.6390221"><ele>424.0</ele><time>2026-04-26T13:20:43.196Z</time></trkpt><trkpt lat="42.9807567" lon="11.6390555"><ele>424.0</ele><time>2026-04-26T13:20:44.192Z</time></trkpt><trkpt lat="42.9808439" lon="11.6391239"><ele>424.0</ele><time>2026-04-26T13:20:45.198Z</time></trkpt><trkpt lat="42.9809307" lon="11.6392174"><ele>424.0</ele><time>2026-04-26T13:20:46.196Z</time></trkpt><trkpt lat="42.9810331" lon="11.6393344"><ele>424.0</ele><time>2026-04-26T13:20:47.201Z</time></trkpt><trkpt lat="42.9811409" lon="11.639461"><ele>423.5</ele><time>2026-04-26T13:20:48.189Z</time></trkpt><trkpt lat="42.9812462" lon="11.6395848"><ele>423.0</ele><time>2026-04-26T13:20:49.208Z</time></trkpt><trkpt lat="42.9813479" lon="11.6397051"><ele>422.5</ele><time>2026-04-26T13:20:50.196Z</time></trkpt><trkpt lat="42.9814409" lon="11.639819"><ele>422.0</ele><time>2026-04-26T13:20:51.201Z</time></trkpt><trkpt lat="42.9815244" lon="11.6399212"><ele>422.0</ele><time>2026-04-26T13:20:52.205Z</time></trkpt><trkpt lat="42.9816024" lon="11.6400151"><ele>422.0</ele><time>2026-04-26T13:20:53.189Z</time></trkpt><trkpt lat="42.9816768" lon="11.6401031"><ele>422.0</ele><time>2026-04-26T13:20:54.181Z</time></trkpt><trkpt lat="42.9817505" lon="11.6401861"><ele>422.0</ele><time>2026-04-26T13:20:55.183Z</time></trkpt><trkpt lat="42.9818272" lon="11.6402564"><ele>422.0</ele><time>2026-04-26T13:20:56.202Z</time></trkpt><trkpt lat="42.9819002" lon="11.640303"><ele>421.8333333333333</ele><time>2026-04-26T13:20:57.199Z</time></trkpt><trkpt lat="42.9819692" lon="11.6403233"><ele>421.66666666666663</ele><time>2026-04-26T13:20:58.191Z</time></trkpt><trkpt lat="42.9820359" lon="11.6403195"><ele>421.5</ele><time>2026-04-26T13:20:59.188Z</time></trkpt><trkpt lat="42.9821033" lon="11.6402945"><ele>421.33333333333337</ele><time>2026-04-26T13:21:00.185Z</time></trkpt><trkpt lat="42.9821746" lon="11.6402463"><ele>421.1666666666667</ele><time>2026-04-26T13:21:01.178Z</time></trkpt><trkpt lat="42.9822503" lon="11.6401684"><ele>421.0</ele><time>2026-04-26T13:21:02.192Z</time></trkpt><trkpt lat="42.982337" lon="11.6400654"><ele>421.5</ele><time>2026-04-26T13:21:03.203Z</time></trkpt><trkpt lat="42.9824356" lon="11.6399521"><ele>422.0</ele><time>2026-04-26T13:21:04.193Z</time></trkpt><trkpt lat="42.9825284" lon="11.6398523"><ele>422.5</ele><time>2026-04-26T13:21:05.183Z</time></trkpt><trkpt lat="42.9826115" lon="11.6397617"><ele>423.0</ele><time>2026-04-26T13:21:06.205Z</time></trkpt><trkpt lat="42.9826886" lon="11.6396794"><ele>422.59999999999997</ele><time>2026-04-26T13:21:07.184Z</time></trkpt><trkpt lat="42.9827637" lon="11.6396027"><ele>422.2</ele><time>2026-04-26T13:21:08.195Z</time></trkpt><trkpt lat="42.9828406" lon="11.6395231"><ele>421.8</ele><time>2026-04-26T13:21:09.199Z</time></trkpt><trkpt lat="42.9829205" lon="11.6394457"><ele>421.4</ele><time>2026-04-26T13:21:10.196Z</time></trkpt><trkpt lat="42.9830072" lon="11.6393786"><ele>421.0</ele><time>2026-04-26T13:21:11.189Z</time></trkpt><trkpt lat="42.9831023" lon="11.6393315"><ele>421.00000000000006</ele><time>2026-04-26T13:21:12.195Z</time></trkpt><trkpt lat="42.9832026" lon="11.6393079"><ele>421.0</ele><time>2026-04-26T13:21:13.197Z</time></trkpt><trkpt lat="42.9832978" lon="11.6393034"><ele>421.0</ele><time>2026-04-26T13:21:14.19Z</time></trkpt><trkpt lat="42.9833828" lon="11.6393083"><ele>421.0</ele><time>2026-04-26T13:21:15.196Z</time></trkpt><trkpt lat="42.9834612" lon="11.6393191"><ele>421.00000000000006</ele><time>2026-04-26T13:21:16.194Z</time></trkpt><trkpt lat="42.9835353" lon="11.6393308"><ele>421.0</ele><time>2026-04-26T13:21:17.177Z</time></trkpt><trkpt lat="42.9836048" lon="11.639341"><ele>420.7142857142857</ele><time>2026-04-26T13:21:18.201Z</time></trkpt><trkpt lat="42.9836682" lon="11.6393536"><ele>420.42857142857144</ele><time>2026-04-26T13:21:19.198Z</time></trkpt><trkpt lat="42.9837292" lon="11.6393796"><ele>420.1428571428571</ele><time>2026-04-26T13:21:20.196Z</time></trkpt><trkpt lat="42.9837869" lon="11.6394256"><ele>419.8571428571429</ele><time>2026-04-26T13:21:21.175Z</time></trkpt><trkpt lat="42.983842" lon="11.6394866"><ele>419.57142857142856</ele><time>2026-04-26T13:21:22.18Z</time></trkpt><trkpt lat="42.9839028" lon="11.6395613"><ele>419.2857142857143</ele><time>2026-04-26T13:21:23.185Z</time></trkpt><trkpt lat="42.9839686" lon="11.6396499"><ele>419.0</ele><time>2026-04-26T13:21:24.187Z</time></trkpt><trkpt lat="42.9840383" lon="11.6397521"><ele>419.0</ele><time>2026-04-26T13:21:25.184Z</time></trkpt><trkpt lat="42.984113" lon="11.6398593"><ele>419.0</ele><time>2026-04-26T13:21:26.196Z</time></trkpt><trkpt lat="42.9841884" lon="11.6399673"><ele>419.0</ele><time>2026-04-26T13:21:27.193Z</time></trkpt><trkpt lat="42.984267" lon="11.6400793"><ele>419.0</ele><time>2026-04-26T13:21:28.196Z</time></trkpt><trkpt lat="42.9843536" lon="11.6401883"><ele>419.0</ele><time>2026-04-26T13:21:29.185Z</time></trkpt><trkpt lat="42.9844429" lon="11.6402984"><ele>418.25</ele><time>2026-04-26T13:21:30.195Z</time></trkpt><trkpt lat="42.9845396" lon="11.6404158"><ele>417.5</ele><time>2026-04-26T13:21:31.195Z</time></trkpt><trkpt lat="42.9846322" lon="11.6405412"><ele>416.75</ele><time>2026-04-26T13:21:32.185Z</time></trkpt><trkpt lat="42.984721" lon="11.6406776"><ele>416.0</ele><time>2026-04-26T13:21:33.193Z</time></trkpt><trkpt lat="42.9848098" lon="11.6408221"><ele>416.0</ele><time>2026-04-26T13:21:34.2Z</time></trkpt><trkpt lat="42.9848975" lon="11.6409669"><ele>416.0</ele><time>2026-04-26T13:21:35.193Z</time></trkpt><trkpt lat="42.9849845" lon="11.641105"><ele>416.0</ele><time>2026-04-26T13:21:36.186Z</time></trkpt><trkpt lat="42.9850738" lon="11.6412373"><ele>416.0</ele><time>2026-04-26T13:21:37.188Z</time></trkpt><trkpt lat="42.9851612" lon="11.6413621"><ele>416.0</ele><time>2026-04-26T13:21:38.192Z</time></trkpt><trkpt lat="42.985247" lon="11.6414857"><ele>416.0</ele><time>2026-04-26T13:21:39.199Z</time></trkpt><trkpt lat="42.9853309" lon="11.641613"><ele>416.0</ele><time>2026-04-26T13:21:40.177Z</time></trkpt><trkpt lat="42.9854135" lon="11.6417394"><ele>416.0</ele><time>2026-04-26T13:21:41.187Z</time></trkpt><trkpt lat="42.9854945" lon="11.6418659"><ele>416.75</ele><time>2026-04-26T13:21:42.188Z</time></trkpt><trkpt lat="42.9855765" lon="11.6419927"><ele>417.5</ele><time>2026-04-26T13:21:43.193Z</time></trkpt><trkpt lat="42.9856652" lon="11.6421165"><ele>418.25</ele><time>2026-04-26T13:21:44.197Z</time></trkpt><trkpt lat="42.9857615" lon="11.6422374"><ele>419.0</ele><time>2026-04-26T13:21:45.194Z</time></trkpt><trkpt lat="42.9858644" lon="11.6423548"><ele>419.25</ele><time>2026-04-26T13:21:46.196Z</time></trkpt><trkpt lat="42.9859748" lon="11.6424623"><ele>419.5</ele><time>2026-04-26T13:21:47.183Z</time></trkpt><trkpt lat="42.9860868" lon="11.6425612"><ele>419.75</ele><time>2026-04-26T13:21:48.193Z</time></trkpt><trkpt lat="42.9861978" lon="11.642658"><ele>420.0</ele><time>2026-04-26T13:21:49.191Z</time></trkpt><trkpt lat="42.9863049" lon="11.6427568"><ele>420.75</ele><time>2026-04-26T13:21:50.184Z</time></trkpt><trkpt lat="42.9864036" lon="11.642863"><ele>421.5</ele><time>2026-04-26T13:21:51.2Z</time></trkpt><trkpt lat="42.9864942" lon="11.6429828"><ele>422.25</ele><time>2026-04-26T13:21:52.18Z</time></trkpt><trkpt lat="42.986585" lon="11.64312"><ele>423.0</ele><time>2026-04-26T13:21:53.197Z</time></trkpt><trkpt lat="42.9866838" lon="11.6432794"><ele>424.0</ele><time>2026-04-26T13:21:54.195Z</time></trkpt><trkpt lat="42.9867853" lon="11.6434489"><ele>425.0</ele><time>2026-04-26T13:21:55.184Z</time></trkpt><trkpt lat="42.9868854" lon="11.6436176"><ele>426.0</ele><time>2026-04-26T13:21:56.193Z</time></trkpt><trkpt lat="42.9869831" lon="11.6437818"><ele>427.0</ele><time>2026-04-26T13:21:57.186Z</time></trkpt><trkpt lat="42.9870782" lon="11.6439404"><ele>428.0</ele><time>2026-04-26T13:21:58.184Z</time></trkpt><trkpt lat="42.9871728" lon="11.6440923"><ele>429.0</ele><time>2026-04-26T13:21:59.184Z</time></trkpt><trkpt lat="42.9872705" lon="11.6442394"><ele>430.0</ele><time>2026-04-26T13:22:00.199Z</time></trkpt><trkpt lat="42.9873741" lon="11.644388"><ele>430.5</ele><time>2026-04-26T13:22:01.179Z</time></trkpt><trkpt lat="42.9874728" lon="11.6445268"><ele>431.0</ele><time>2026-04-26T13:22:02.197Z</time></trkpt><trkpt lat="42.9875646" lon="11.6446577"><ele>431.5</ele><time>2026-04-26T13:22:03.182Z</time></trkpt><trkpt lat="42.9876521" lon="11.6447858"><ele>432.0</ele><time>2026-04-26T13:22:04.2Z</time></trkpt><trkpt lat="42.9877397" lon="11.6449124"><ele>432.0</ele><time>2026-04-26T13:22:05.199Z</time></trkpt><trkpt lat="42.9878254" lon="11.6450393"><ele>432.0</ele><time>2026-04-26T13:22:06.185Z</time></trkpt><trkpt lat="42.9879026" lon="11.6451662"><ele>432.0</ele><time>2026-04-26T13:22:07.205Z</time></trkpt><trkpt lat="42.9879697" lon="11.6452976"><ele>432.0</ele><time>2026-04-26T13:22:08.177Z</time></trkpt><trkpt lat="42.9880258" lon="11.6454366"><ele>433.5</ele><time>2026-04-26T13:22:09.188Z</time></trkpt><trkpt lat="42.9880692" lon="11.6455849"><ele>435.0</ele><time>2026-04-26T13:22:10.196Z</time></trkpt><trkpt lat="42.9881009" lon="11.6457393"><ele>436.5</ele><time>2026-04-26T13:22:11.188Z</time></trkpt><trkpt lat="42.9881245" lon="11.6458948"><ele>438.0</ele><time>2026-04-26T13:22:12.199Z</time></trkpt><trkpt lat="42.9881452" lon="11.6460447"><ele>437.59999999999997</ele><time>2026-04-26T13:22:13.19Z</time></trkpt><trkpt lat="42.9881679" lon="11.6461855"><ele>437.19999999999993</ele><time>2026-04-26T13:22:14.18Z</time></trkpt><trkpt lat="42.988196" lon="11.6463161"><ele>436.8</ele><time>2026-04-26T13:22:15.179Z</time></trkpt><trkpt lat="42.9882315" lon="11.6464308"><ele>436.4</ele><time>2026-04-26T13:22:16.195Z</time></trkpt><trkpt lat="42.9882717" lon="11.6465299"><ele>436.0</ele><time>2026-04-26T13:22:17.182Z</time></trkpt><trkpt lat="42.9883124" lon="11.6466214"><ele>434.6666666666667</ele><time>2026-04-26T13:22:18.19Z</time></trkpt><trkpt lat="42.9883524" lon="11.6467146"><ele>433.33333333333337</ele><time>2026-04-26T13:22:19.191Z</time></trkpt><trkpt lat="42.9883941" lon="11.6468095"><ele>432.0</ele><time>2026-04-26T13:22:20.185Z</time></trkpt><trkpt lat="42.9884366" lon="11.6469082"><ele>430.66666666666663</ele><time>2026-04-26T13:22:21.197Z</time></trkpt><trkpt lat="42.9884791" lon="11.6470163"><ele>429.3333333333333</ele><time>2026-04-26T13:22:22.181Z</time></trkpt><trkpt lat="42.98852" lon="11.6471365"><ele>428.0</ele><time>2026-04-26T13:22:23.193Z</time></trkpt><trkpt lat="42.988562" lon="11.647265"><ele>427.75</ele><time>2026-04-26T13:22:24.186Z</time></trkpt><trkpt lat="42.9886084" lon="11.6474012"><ele>427.5</ele><time>2026-04-26T13:22:25.182Z</time></trkpt><trkpt lat="42.9886549" lon="11.6475439"><ele>427.25</ele><time>2026-04-26T13:22:26.193Z</time></trkpt><trkpt lat="42.9887007" lon="11.647693"><ele>427.0</ele><time>2026-04-26T13:22:27.185Z</time></trkpt><trkpt lat="42.9887451" lon="11.6478447"><ele>427.0</ele><time>2026-04-26T13:22:28.177Z</time></trkpt><trkpt lat="42.9887862" lon="11.6479972"><ele>427.0</ele><time>2026-04-26T13:22:29.188Z</time></trkpt><trkpt lat="42.9888258" lon="11.6481456"><ele>427.0</ele><time>2026-04-26T13:22:30.191Z</time></trkpt><trkpt lat="42.9888534" lon="11.6483005"><ele>427.0</ele><time>2026-04-26T13:22:31.191Z</time></trkpt><trkpt lat="42.9888727" lon="11.6484637"><ele>427.25</ele><time>2026-04-26T13:22:32.185Z</time></trkpt><trkpt lat="42.9888829" lon="11.6486319"><ele>427.5</ele><time>2026-04-26T13:22:33.19Z</time></trkpt><trkpt lat="42.9888862" lon="11.6488064"><ele>427.75</ele><time>2026-04-26T13:22:34.181Z</time></trkpt><trkpt lat="42.9888859" lon="11.6489882"><ele>428.0</ele><time>2026-04-26T13:22:35.175Z</time></trkpt><trkpt lat="42.9888833" lon="11.6491756"><ele>428.0</ele><time>2026-04-26T13:22:36.201Z</time></trkpt><trkpt lat="42.9888812" lon="11.6493644"><ele>428.0</ele><time>2026-04-26T13:22:37.184Z</time></trkpt><trkpt lat="42.9888783" lon="11.6495523"><ele>428.0</ele><time>2026-04-26T13:22:38.181Z</time></trkpt><trkpt lat="42.9888763" lon="11.6497392"><ele>428.0</ele><time>2026-04-26T13:22:39.177Z</time></trkpt><trkpt lat="42.9888746" lon="11.6499225"><ele>427.75</ele><time>2026-04-26T13:22:40.202Z</time></trkpt><trkpt lat="42.9888712" lon="11.6501011"><ele>427.5</ele><time>2026-04-26T13:22:41.183Z</time></trkpt><trkpt lat="42.9888681" lon="11.6502774"><ele>427.25</ele><time>2026-04-26T13:22:42.204Z</time></trkpt><trkpt lat="42.9888611" lon="11.6504516"><ele>427.0</ele><time>2026-04-26T13:22:43.184Z</time></trkpt><trkpt lat="42.9888475" lon="11.6506222"><ele>427.0</ele><time>2026-04-26T13:22:44.197Z</time></trkpt><trkpt lat="42.9888239" lon="11.6507863"><ele>427.0</ele><time>2026-04-26T13:22:45.203Z</time></trkpt><trkpt lat="42.9887906" lon="11.6509445"><ele>427.0</ele><time>2026-04-26T13:22:46.193Z</time></trkpt><trkpt lat="42.9887475" lon="11.6510954"><ele>427.0</ele><time>2026-04-26T13:22:47.193Z</time></trkpt><trkpt lat="42.9886969" lon="11.6512382"><ele>427.5</ele><time>2026-04-26T13:22:48.187Z</time></trkpt><trkpt lat="42.9886485" lon="11.6513789"><ele>428.0</ele><time>2026-04-26T13:22:49.203Z</time></trkpt><trkpt lat="42.9886037" lon="11.6515291"><ele>428.5</ele><time>2026-04-26T13:22:50.198Z</time></trkpt><trkpt lat="42.9885554" lon="11.6516916"><ele>429.0</ele><time>2026-04-26T13:22:51.178Z</time></trkpt><trkpt lat="42.9885004" lon="11.651877"><ele>428.33333333333337</ele><time>2026-04-26T13:22:52.203Z</time></trkpt><trkpt lat="42.9884431" lon="11.6520807"><ele>427.6666666666667</ele><time>2026-04-26T13:22:53.187Z</time></trkpt><trkpt lat="42.9883859" lon="11.6522869"><ele>427.0</ele><time>2026-04-26T13:22:54.206Z</time></trkpt><trkpt lat="42.9883285" lon="11.6524973"><ele>427.6666666666667</ele><time>2026-04-26T13:22:55.193Z</time></trkpt><trkpt lat="42.9882721" lon="11.6527036"><ele>428.33333333333337</ele><time>2026-04-26T13:22:56.177Z</time></trkpt><trkpt lat="42.9882168" lon="11.6529006"><ele>429.0</ele><time>2026-04-26T13:22:57.202Z</time></trkpt><trkpt lat="42.988162" lon="11.6530916"><ele>429.0</ele><time>2026-04-26T13:22:58.196Z</time></trkpt><trkpt lat="42.9881082" lon="11.6532798"><ele>429.0</ele><time>2026-04-26T13:22:59.204Z</time></trkpt><trkpt lat="42.9880558" lon="11.6534662"><ele>429.0</ele><time>2026-04-26T13:23:00.195Z</time></trkpt><trkpt lat="42.9880033" lon="11.6536497"><ele>429.0</ele><time>2026-04-26T13:23:01.2Z</time></trkpt><trkpt lat="42.9879499" lon="11.6538303"><ele>429.0</ele><time>2026-04-26T13:23:02.199Z</time></trkpt><trkpt lat="42.9878932" lon="11.6540153"><ele>429.0</ele><time>2026-04-26T13:23:03.19Z</time></trkpt><trkpt lat="42.9878331" lon="11.6542098"><ele>429.0</ele><time>2026-04-26T13:23:04.186Z</time></trkpt><trkpt lat="42.9877745" lon="11.6544025"><ele>428.5</ele><time>2026-04-26T13:23:05.177Z</time></trkpt><trkpt lat="42.9877196" lon="11.6545871"><ele>428.0</ele><time>2026-04-26T13:23:06.195Z</time></trkpt><trkpt lat="42.9876695" lon="11.654766"><ele>427.5</ele><time>2026-04-26T13:23:07.203Z</time></trkpt><trkpt lat="42.987623" lon="11.6549465"><ele>427.0</ele><time>2026-04-26T13:23:08.196Z</time></trkpt><trkpt lat="42.9875811" lon="11.6551288"><ele>427.5</ele><time>2026-04-26T13:23:09.2Z</time></trkpt><trkpt lat="42.9875448" lon="11.655311"><ele>428.0</ele><time>2026-04-26T13:23:10.197Z</time></trkpt><trkpt lat="42.9875141" lon="11.6554934"><ele>428.5</ele><time>2026-04-26T13:23:11.204Z</time></trkpt><trkpt lat="42.9874912" lon="11.6556759"><ele>429.0</ele><time>2026-04-26T13:23:12.199Z</time></trkpt><trkpt lat="42.9874763" lon="11.6558548"><ele>429.0</ele><time>2026-04-26T13:23:13.186Z</time></trkpt><trkpt lat="42.9874679" lon="11.6560212"><ele>429.0</ele><time>2026-04-26T13:23:14.197Z</time></trkpt><trkpt lat="42.9874657" lon="11.6561835"><ele>429.0</ele><time>2026-04-26T13:23:15.199Z</time></trkpt><trkpt lat="42.9874745" lon="11.6563447"><ele>429.0</ele><time>2026-04-26T13:23:16.186Z</time></trkpt><trkpt lat="42.9874969" lon="11.6564998"><ele>429.25</ele><time>2026-04-26T13:23:17.189Z</time></trkpt><trkpt lat="42.9875328" lon="11.6566461"><ele>429.5</ele><time>2026-04-26T13:23:18.18Z</time></trkpt><trkpt lat="42.9875859" lon="11.6568"><ele>429.75</ele><time>2026-04-26T13:23:19.194Z</time></trkpt><trkpt lat="42.9876523" lon="11.6569753"><ele>430.0</ele><time>2026-04-26T13:23:20.188Z</time></trkpt><trkpt lat="42.987727" lon="11.6571719"><ele>430.0</ele><time>2026-04-26T13:23:21.183Z</time></trkpt><trkpt lat="42.987804" lon="11.657373"><ele>430.0</ele><time>2026-04-26T13:23:22.187Z</time></trkpt><trkpt lat="42.9878827" lon="11.657575"><ele>430.0</ele><time>2026-04-26T13:23:23.182Z</time></trkpt><trkpt lat="42.9879588" lon="11.6577711"><ele>430.0</ele><time>2026-04-26T13:23:24.198Z</time></trkpt><trkpt lat="42.9880322" lon="11.6579633"><ele>430.0</ele><time>2026-04-26T13:23:25.198Z</time></trkpt><trkpt lat="42.9881019" lon="11.6581476"><ele>430.0</ele><time>2026-04-26T13:23:26.191Z</time></trkpt><trkpt lat="42.9881676" lon="11.65832"><ele>430.0</ele><time>2026-04-26T13:23:27.193Z</time></trkpt><trkpt lat="42.9882332" lon="11.6584877"><ele>430.0</ele><time>2026-04-26T13:23:28.182Z</time></trkpt><trkpt lat="42.9882988" lon="11.658652"><ele>430.0</ele><time>2026-04-26T13:23:29.182Z</time></trkpt><trkpt lat="42.9883629" lon="11.6588101"><ele>430.0</ele><time>2026-04-26T13:23:30.2Z</time></trkpt><trkpt lat="42.9884261" lon="11.6589644"><ele>430.0</ele><time>2026-04-26T13:23:31.196Z</time></trkpt><trkpt lat="42.9884915" lon="11.6591127"><ele>430.0</ele><time>2026-04-26T13:23:32.192Z</time></trkpt><trkpt lat="42.9885615" lon="11.6592584"><ele>430.0</ele><time>2026-04-26T13:23:33.199Z</time></trkpt><trkpt lat="42.9886334" lon="11.6593994"><ele>430.0</ele><time>2026-04-26T13:23:34.192Z</time></trkpt><trkpt lat="42.988706" lon="11.659539"><ele>429.75</ele><time>2026-04-26T13:23:35.186Z</time></trkpt><trkpt lat="42.9887751" lon="11.6596785"><ele>429.5</ele><time>2026-04-26T13:23:36.198Z</time></trkpt><trkpt lat="42.9888379" lon="11.6598193"><ele>429.25</ele><time>2026-04-26T13:23:37.183Z</time></trkpt><trkpt lat="42.9888978" lon="11.659969"><ele>429.0</ele><time>2026-04-26T13:23:38.184Z</time></trkpt><trkpt lat="42.9889513" lon="11.660125"><ele>427.75</ele><time>2026-04-26T13:23:39.198Z</time></trkpt><trkpt lat="42.9889964" lon="11.6602843"><ele>426.5</ele><time>2026-04-26T13:23:40.205Z</time></trkpt><trkpt lat="42.9890326" lon="11.6604427"><ele>425.25</ele><time>2026-04-26T13:23:41.192Z</time></trkpt><trkpt lat="42.9890646" lon="11.6606072"><ele>424.0</ele><time>2026-04-26T13:23:42.197Z</time></trkpt><trkpt lat="42.9890974" lon="11.6607833"><ele>424.0</ele><time>2026-04-26T13:23:43.196Z</time></trkpt><trkpt lat="42.9891339" lon="11.6609639"><ele>424.0</ele><time>2026-04-26T13:23:44.185Z</time></trkpt><trkpt lat="42.9891697" lon="11.6611431"><ele>424.0</ele><time>2026-04-26T13:23:45.201Z</time></trkpt><trkpt lat="42.9892" lon="11.6613271"><ele>424.0</ele><time>2026-04-26T13:23:46.182Z</time></trkpt><trkpt lat="42.9892277" lon="11.6615181"><ele>422.25</ele><time>2026-04-26T13:23:47.184Z</time></trkpt><trkpt lat="42.9892533" lon="11.6617082"><ele>420.5</ele><time>2026-04-26T13:23:48.201Z</time></trkpt><trkpt lat="42.9892791" lon="11.6618928"><ele>418.75</ele><time>2026-04-26T13:23:49.198Z</time></trkpt><trkpt lat="42.9893044" lon="11.662074"><ele>417.0</ele><time>2026-04-26T13:23:50.201Z</time></trkpt><trkpt lat="42.9893282" lon="11.6622554"><ele>417.0</ele><time>2026-04-26T13:23:51.191Z</time></trkpt><trkpt lat="42.9893506" lon="11.6624379"><ele>417.0</ele><time>2026-04-26T13:23:52.189Z</time></trkpt><trkpt lat="42.9893717" lon="11.6626171"><ele>417.0</ele><time>2026-04-26T13:23:53.184Z</time></trkpt><trkpt lat="42.9893926" lon="11.662794"><ele>417.0</ele><time>2026-04-26T13:23:54.182Z</time></trkpt><trkpt lat="42.9894092" lon="11.6629702"><ele>416.75</ele><time>2026-04-26T13:23:55.187Z</time></trkpt><trkpt lat="42.9894244" lon="11.6631479"><ele>416.5</ele><time>2026-04-26T13:23:56.193Z</time></trkpt><trkpt lat="42.9894422" lon="11.6633276"><ele>416.25</ele><time>2026-04-26T13:23:57.201Z</time></trkpt><trkpt lat="42.9894592" lon="11.6635056"><ele>416.0</ele><time>2026-04-26T13:23:58.187Z</time></trkpt><trkpt lat="42.9894802" lon="11.6636816"><ele>416.75</ele><time>2026-04-26T13:23:59.196Z</time></trkpt><trkpt lat="42.9895118" lon="11.6638543"><ele>417.5</ele><time>2026-04-26T13:24:00.182Z</time></trkpt><trkpt lat="42.9895527" lon="11.6640218"><ele>418.25</ele><time>2026-04-26T13:24:01.186Z</time></trkpt><trkpt lat="42.9896034" lon="11.6641824"><ele>419.0</ele><time>2026-04-26T13:24:02.181Z</time></trkpt><trkpt lat="42.989664" lon="11.6643372"><ele>419.25</ele><time>2026-04-26T13:24:03.185Z</time></trkpt><trkpt lat="42.9897306" lon="11.6644924"><ele>419.5</ele><time>2026-04-26T13:24:04.179Z</time></trkpt><trkpt lat="42.9897971" lon="11.6646463"><ele>419.75</ele><time>2026-04-26T13:24:05.184Z</time></trkpt><trkpt lat="42.9898623" lon="11.6647908"><ele>420.0</ele><time>2026-04-26T13:24:06.189Z</time></trkpt><trkpt lat="42.9899254" lon="11.6649286"><ele>420.0</ele><time>2026-04-26T13:24:07.177Z</time></trkpt><trkpt lat="42.9899846" lon="11.6650578"><ele>420.0</ele><time>2026-04-26T13:24:08.182Z</time></trkpt><trkpt lat="42.9900385" lon="11.665177"><ele>420.0</ele><time>2026-04-26T13:24:09.193Z</time></trkpt><trkpt lat="42.9900868" lon="11.6652989"><ele>420.0</ele><time>2026-04-26T13:24:10.196Z</time></trkpt><trkpt lat="42.9901281" lon="11.6654284"><ele>420.0</ele><time>2026-04-26T13:24:11.199Z</time></trkpt><trkpt lat="42.9901605" lon="11.6655623"><ele>419.0</ele><time>2026-04-26T13:24:12.202Z</time></trkpt><trkpt lat="42.9901802" lon="11.6657012"><ele>418.0</ele><time>2026-04-26T13:24:13.2Z</time></trkpt><trkpt lat="42.9901867" lon="11.6658382"><ele>417.0</ele><time>2026-04-26T13:24:14.184Z</time></trkpt><trkpt lat="42.9901865" lon="11.6659625"><ele>416.0</ele><time>2026-04-26T13:24:15.2Z</time></trkpt><trkpt lat="42.9901863" lon="11.6660638"><ele>415.0</ele><time>2026-04-26T13:24:16.19Z</time></trkpt><trkpt lat="42.9901955" lon="11.6661556"><ele>414.0</ele><time>2026-04-26T13:24:17.183Z</time></trkpt><trkpt lat="42.9902221" lon="11.6662437"><ele>414.0</ele><time>2026-04-26T13:24:18.194Z</time></trkpt><trkpt lat="42.990268" lon="11.6663252"><ele>414.0</ele><time>2026-04-26T13:24:19.183Z</time></trkpt><trkpt lat="42.9903266" lon="11.6663961"><ele>414.0</ele><time>2026-04-26T13:24:20.185Z</time></trkpt><trkpt lat="42.9903948" lon="11.66646"><ele>414.0</ele><time>2026-04-26T13:24:21.199Z</time></trkpt><trkpt lat="42.9904633" lon="11.6665221"><ele>414.0</ele><time>2026-04-26T13:24:22.204Z</time></trkpt><trkpt lat="42.9905263" lon="11.6665847"><ele>414.0</ele><time>2026-04-26T13:24:23.186Z</time></trkpt><trkpt lat="42.990581" lon="11.666643"><ele>414.0</ele><time>2026-04-26T13:24:24.184Z</time></trkpt><trkpt lat="42.9906329" lon="11.6667047"><ele>414.0</ele><time>2026-04-26T13:24:25.196Z</time></trkpt><trkpt lat="42.9906795" lon="11.6667757"><ele>414.0</ele><time>2026-04-26T13:24:26.183Z</time></trkpt><trkpt lat="42.9907197" lon="11.6668594"><ele>414.0</ele><time>2026-04-26T13:24:27.199Z</time></trkpt><trkpt lat="42.9907511" lon="11.6669547"><ele>414.0</ele><time>2026-04-26T13:24:28.193Z</time></trkpt><trkpt lat="42.9907745" lon="11.6670619"><ele>414.0</ele><time>2026-04-26T13:24:29.198Z</time></trkpt><trkpt lat="42.990797" lon="11.6671675"><ele>413.28571428571433</ele><time>2026-04-26T13:24:30.185Z</time></trkpt><trkpt lat="42.9908134" lon="11.6672781"><ele>412.57142857142856</ele><time>2026-04-26T13:24:31.192Z</time></trkpt><trkpt lat="42.990831" lon="11.6673768"><ele>411.8571428571429</ele><time>2026-04-26T13:24:32.182Z</time></trkpt><trkpt lat="42.9908511" lon="11.6674653"><ele>411.14285714285717</ele><time>2026-04-26T13:24:33.18Z</time></trkpt><trkpt lat="42.9908801" lon="11.667547"><ele>410.42857142857144</ele><time>2026-04-26T13:24:34.18Z</time></trkpt><trkpt lat="42.9909217" lon="11.6676225"><ele>409.7142857142857</ele><time>2026-04-26T13:24:35.181Z</time></trkpt><trkpt lat="42.9909753" lon="11.6676866"><ele>409.0</ele><time>2026-04-26T13:24:36.184Z</time></trkpt><trkpt lat="42.9910435" lon="11.6677389"><ele>406.6</ele><time>2026-04-26T13:24:37.188Z</time></trkpt><trkpt lat="42.9911277" lon="11.6677784"><ele>404.2</ele><time>2026-04-26T13:24:38.194Z</time></trkpt><trkpt lat="42.9912283" lon="11.6678122"><ele>401.8</ele><time>2026-04-26T13:24:39.184Z</time></trkpt><trkpt lat="42.9913391" lon="11.6678424"><ele>399.40000000000003</ele><time>2026-04-26T13:24:40.199Z</time></trkpt><trkpt lat="42.9914596" lon="11.6678779"><ele>397.0</ele><time>2026-04-26T13:24:41.178Z</time></trkpt><trkpt lat="42.9915818" lon="11.6679224"><ele>395.25</ele><time>2026-04-26T13:24:42.198Z</time></trkpt><trkpt lat="42.9917048" lon="11.6679757"><ele>393.5</ele><time>2026-04-26T13:24:43.194Z</time></trkpt><trkpt lat="42.9918294" lon="11.6680406"><ele>391.75</ele><time>2026-04-26T13:24:44.199Z</time></trkpt><trkpt lat="42.9919557" lon="11.6681128"><ele>390.0</ele><time>2026-04-26T13:24:45.191Z</time></trkpt><trkpt lat="42.9920844" lon="11.6681859"><ele>390.0</ele><time>2026-04-26T13:24:46.193Z</time></trkpt><trkpt lat="42.992216" lon="11.6682581"><ele>390.0</ele><time>2026-04-26T13:24:47.198Z</time></trkpt><trkpt lat="42.9923494" lon="11.668333"><ele>390.0</ele><time>2026-04-26T13:24:48.181Z</time></trkpt><trkpt lat="42.9924822" lon="11.668411"><ele>390.0</ele><time>2026-04-26T13:24:49.18Z</time></trkpt><trkpt lat="42.9926129" lon="11.6684876"><ele>389.25</ele><time>2026-04-26T13:24:50.197Z</time></trkpt><trkpt lat="42.9927432" lon="11.6685579"><ele>388.5</ele><time>2026-04-26T13:24:51.186Z</time></trkpt><trkpt lat="42.9928728" lon="11.6686262"><ele>387.75</ele><time>2026-04-26T13:24:52.196Z</time></trkpt><trkpt lat="42.9929979" lon="11.6686952"><ele>387.0</ele><time>2026-04-26T13:24:53.198Z</time></trkpt><trkpt lat="42.9931161" lon="11.668763"><ele>387.0</ele><time>2026-04-26T13:24:54.2Z</time></trkpt><trkpt lat="42.9932315" lon="11.6688301"><ele>387.0</ele><time>2026-04-26T13:24:55.191Z</time></trkpt><trkpt lat="42.9933429" lon="11.668898"><ele>387.0</ele><time>2026-04-26T13:24:56.184Z</time></trkpt><trkpt lat="42.9934512" lon="11.668967"><ele>387.0</ele><time>2026-04-26T13:24:57.185Z</time></trkpt><trkpt lat="42.9935578" lon="11.6690356"><ele>388.25</ele><time>2026-04-26T13:24:58.196Z</time></trkpt><trkpt lat="42.993661" lon="11.6691099"><ele>389.5</ele><time>2026-04-26T13:24:59.195Z</time></trkpt><trkpt lat="42.9937598" lon="11.669196"><ele>390.75</ele><time>2026-04-26T13:25:00.181Z</time></trkpt><trkpt lat="42.9938513" lon="11.6692947"><ele>392.0</ele><time>2026-04-26T13:25:01.192Z</time></trkpt><trkpt lat="42.9939366" lon="11.6694051"><ele>392.0</ele><time>2026-04-26T13:25:02.191Z</time></trkpt><trkpt lat="42.994021" lon="11.669525"><ele>392.0</ele><time>2026-04-26T13:25:03.195Z</time></trkpt><trkpt lat="42.9941068" lon="11.6696472"><ele>392.0</ele><time>2026-04-26T13:25:04.201Z</time></trkpt><trkpt lat="42.9941925" lon="11.6697678"><ele>392.0</ele><time>2026-04-26T13:25:05.191Z</time></trkpt><trkpt lat="42.9942839" lon="11.6698862"><ele>392.0</ele><time>2026-04-26T13:25:06.183Z</time></trkpt><trkpt lat="42.9943859" lon="11.6700124"><ele>392.0</ele><time>2026-04-26T13:25:07.181Z</time></trkpt><trkpt lat="42.9944961" lon="11.6701476"><ele>392.0</ele><time>2026-04-26T13:25:08.195Z</time></trkpt><trkpt lat="42.9946058" lon="11.6702797"><ele>392.0</ele><time>2026-04-26T13:25:09.186Z</time></trkpt><trkpt lat="42.9947098" lon="11.6704086"><ele>392.5</ele><time>2026-04-26T13:25:10.2Z</time></trkpt><trkpt lat="42.9948051" lon="11.6705284"><ele>393.0</ele><time>2026-04-26T13:25:11.2Z</time></trkpt><trkpt lat="42.9948935" lon="11.6706399"><ele>393.5</ele><time>2026-04-26T13:25:12.205Z</time></trkpt><trkpt lat="42.9949719" lon="11.6707479"><ele>394.0</ele><time>2026-04-26T13:25:13.186Z</time></trkpt><trkpt lat="42.9950391" lon="11.6708584"><ele>392.6</ele><time>2026-04-26T13:25:14.188Z</time></trkpt><trkpt lat="42.9951038" lon="11.6709673"><ele>391.2</ele><time>2026-04-26T13:25:15.2Z</time></trkpt><trkpt lat="42.995147" lon="11.671101"><ele>389.8</ele><time>2026-04-26T13:25:16.178Z</time></trkpt><trkpt lat="42.9951819" lon="11.6712494"><ele>388.40000000000003</ele><time>2026-04-26T13:25:17.196Z</time></trkpt><trkpt lat="42.9952086" lon="11.6714109"><ele>387.0</ele><time>2026-04-26T13:25:18.193Z</time></trkpt><trkpt lat="42.9952359" lon="11.6715931"><ele>387.0</ele><time>2026-04-26T13:25:19.194Z</time></trkpt><trkpt lat="42.9952632" lon="11.6717844"><ele>387.0</ele><time>2026-04-26T13:25:20.179Z</time></trkpt><trkpt lat="42.9952887" lon="11.6719739"><ele>387.0</ele><time>2026-04-26T13:25:21.189Z</time></trkpt><trkpt lat="42.9953126" lon="11.6721565"><ele>387.0</ele><time>2026-04-26T13:25:22.19Z</time></trkpt><trkpt lat="42.9953359" lon="11.6723323"><ele>387.0</ele><time>2026-04-26T13:25:23.192Z</time></trkpt><trkpt lat="42.9953593" lon="11.6725057"><ele>387.0</ele><time>2026-04-26T13:25:24.186Z</time></trkpt><trkpt lat="42.9953853" lon="11.6726801"><ele>387.0</ele><time>2026-04-26T13:25:25.187Z</time></trkpt><trkpt lat="42.9954155" lon="11.6728548"><ele>387.0</ele><time>2026-04-26T13:25:26.19Z</time></trkpt><trkpt lat="42.995454" lon="11.6730294"><ele>387.0</ele><time>2026-04-26T13:25:27.186Z</time></trkpt><trkpt lat="42.9955025" lon="11.6732032"><ele>387.0</ele><time>2026-04-26T13:25:28.202Z</time></trkpt><trkpt lat="42.9955608" lon="11.673374"><ele>387.0</ele><time>2026-04-26T13:25:29.177Z</time></trkpt><trkpt lat="42.9956212" lon="11.6735483"><ele>387.0</ele><time>2026-04-26T13:25:30.197Z</time></trkpt><trkpt lat="42.9956901" lon="11.6737303"><ele>387.5</ele><time>2026-04-26T13:25:31.177Z</time></trkpt><trkpt lat="42.9957567" lon="11.6739094"><ele>388.0</ele><time>2026-04-26T13:25:32.178Z</time></trkpt><trkpt lat="42.9958226" lon="11.6740883"><ele>388.5</ele><time>2026-04-26T13:25:33.189Z</time></trkpt><trkpt lat="42.9958886" lon="11.6742635"><ele>389.0</ele><time>2026-04-26T13:25:34.2Z</time></trkpt><trkpt lat="42.9959521" lon="11.6744266"><ele>386.75</ele><time>2026-04-26T13:25:35.198Z</time></trkpt><trkpt lat="42.996014" lon="11.6745772"><ele>384.5</ele><time>2026-04-26T13:25:36.188Z</time></trkpt><trkpt lat="42.996071" lon="11.6747197"><ele>382.25</ele><time>2026-04-26T13:25:37.186Z</time></trkpt><trkpt lat="42.9961238" lon="11.6748601"><ele>380.0</ele><time>2026-04-26T13:25:38.198Z</time></trkpt><trkpt lat="42.9961761" lon="11.6749977"><ele>380.0</ele><time>2026-04-26T13:25:39.193Z</time></trkpt><trkpt lat="42.9962272" lon="11.6751347"><ele>380.0</ele><time>2026-04-26T13:25:40.199Z</time></trkpt><trkpt lat="42.9962793" lon="11.6752715"><ele>380.0</ele><time>2026-04-26T13:25:41.178Z</time></trkpt><trkpt lat="42.9963334" lon="11.6754087"><ele>380.0</ele><time>2026-04-26T13:25:42.197Z</time></trkpt><trkpt lat="42.9963877" lon="11.675548"><ele>380.5</ele><time>2026-04-26T13:25:43.193Z</time></trkpt><trkpt lat="42.9964415" lon="11.6756881"><ele>381.0</ele><time>2026-04-26T13:25:44.201Z</time></trkpt><trkpt lat="42.9964955" lon="11.6758289"><ele>381.5</ele><time>2026-04-26T13:25:45.188Z</time></trkpt><trkpt lat="42.9965505" lon="11.6759644"><ele>382.0</ele><time>2026-04-26T13:25:46.2Z</time></trkpt><trkpt lat="42.996605" lon="11.6760959"><ele>381.8</ele><time>2026-04-26T13:25:47.185Z</time></trkpt><trkpt lat="42.9966546" lon="11.6762182"><ele>381.6</ele><time>2026-04-26T13:25:48.184Z</time></trkpt><trkpt lat="42.9967005" lon="11.6763371"><ele>381.40000000000003</ele><time>2026-04-26T13:25:49.195Z</time></trkpt><trkpt lat="42.9967428" lon="11.6764535"><ele>381.20000000000005</ele><time>2026-04-26T13:25:50.195Z</time></trkpt><trkpt lat="42.9967841" lon="11.6765644"><ele>381.0</ele><time>2026-04-26T13:25:51.201Z</time></trkpt><trkpt lat="42.9968244" lon="11.6766679"><ele>379.1666666666667</ele><time>2026-04-26T13:25:52.185Z</time></trkpt><trkpt lat="42.9968657" lon="11.676764"><ele>377.3333333333333</ele><time>2026-04-26T13:25:53.195Z</time></trkpt><trkpt lat="42.9969108" lon="11.6768554"><ele>375.5</ele><time>2026-04-26T13:25:54.195Z</time></trkpt><trkpt lat="42.996966" lon="11.6769475"><ele>373.66666666666663</ele><time>2026-04-26T13:25:55.183Z</time></trkpt><trkpt lat="42.9970281" lon="11.6770316"><ele>371.8333333333333</ele><time>2026-04-26T13:25:56.185Z</time></trkpt><trkpt lat="42.9970893" lon="11.6771059"><ele>370.0</ele><time>2026-04-26T13:25:57.194Z</time></trkpt><trkpt lat="42.9971502" lon="11.6771746"><ele>369.8333333333333</ele><time>2026-04-26T13:25:58.183Z</time></trkpt><trkpt lat="42.997216" lon="11.6772337"><ele>369.66666666666663</ele><time>2026-04-26T13:25:59.18Z</time></trkpt><trkpt lat="42.9972924" lon="11.6772811"><ele>369.5</ele><time>2026-04-26T13:26:00.188Z</time></trkpt><trkpt lat="42.9973797" lon="11.6773123"><ele>369.3333333333333</ele><time>2026-04-26T13:26:01.206Z</time></trkpt><trkpt lat="42.9974751" lon="11.6773289"><ele>369.1666666666667</ele><time>2026-04-26T13:26:02.197Z</time></trkpt><trkpt lat="42.9975742" lon="11.677339"><ele>369.0</ele><time>2026-04-26T13:26:03.195Z</time></trkpt><trkpt lat="42.9976731" lon="11.6773485"><ele>367.5</ele><time>2026-04-26T13:26:04.185Z</time></trkpt><trkpt lat="42.9977677" lon="11.6773601"><ele>366.0</ele><time>2026-04-26T13:26:05.202Z</time></trkpt><trkpt lat="42.997854" lon="11.6773739"><ele>364.5</ele><time>2026-04-26T13:26:06.208Z</time></trkpt><trkpt lat="42.9979374" lon="11.6773879"><ele>363.0</ele><time>2026-04-26T13:26:07.198Z</time></trkpt><trkpt lat="42.9980137" lon="11.6774326"><ele>361.5</ele><time>2026-04-26T13:26:08.199Z</time></trkpt><trkpt lat="42.9980868" lon="11.677502"><ele>360.0</ele><time>2026-04-26T13:26:09.197Z</time></trkpt><trkpt lat="42.9981571" lon="11.6775907"><ele>360.0</ele><time>2026-04-26T13:26:10.182Z</time></trkpt><trkpt lat="42.9982272" lon="11.6776894"><ele>360.0</ele><time>2026-04-26T13:26:11.2Z</time></trkpt><trkpt lat="42.9982942" lon="11.6777863"><ele>360.0</ele><time>2026-04-26T13:26:12.187Z</time></trkpt><trkpt lat="42.9983575" lon="11.6778846"><ele>360.0</ele><time>2026-04-26T13:26:13.195Z</time></trkpt><trkpt lat="42.9984164" lon="11.6779805"><ele>360.0</ele><time>2026-04-26T13:26:14.2Z</time></trkpt><trkpt lat="42.9984709" lon="11.6780774"><ele>357.5</ele><time>2026-04-26T13:26:15.189Z</time></trkpt><trkpt lat="42.9985176" lon="11.6781739"><ele>355.0</ele><time>2026-04-26T13:26:16.195Z</time></trkpt><trkpt lat="42.9985563" lon="11.6782736"><ele>352.5</ele><time>2026-04-26T13:26:17.186Z</time></trkpt><trkpt lat="42.9985842" lon="11.6783853"><ele>350.0</ele><time>2026-04-26T13:26:18.188Z</time></trkpt><trkpt lat="42.9986011" lon="11.6785111"><ele>347.5</ele><time>2026-04-26T13:26:19.181Z</time></trkpt><trkpt lat="42.9986129" lon="11.6786481"><ele>345.0</ele><time>2026-04-26T13:26:20.184Z</time></trkpt><trkpt lat="42.9986267" lon="11.6787975"><ele>344.25</ele><time>2026-04-26T13:26:21.183Z</time></trkpt><trkpt lat="42.9986406" lon="11.678958"><ele>343.5</ele><time>2026-04-26T13:26:22.197Z</time></trkpt><trkpt lat="42.9986524" lon="11.6791247"><ele>342.75</ele><time>2026-04-26T13:26:23.198Z</time></trkpt><trkpt lat="42.998662" lon="11.6792858"><ele>342.0</ele><time>2026-04-26T13:26:24.199Z</time></trkpt><trkpt lat="42.9986691" lon="11.6794409"><ele>341.1666666666667</ele><time>2026-04-26T13:26:25.196Z</time></trkpt><trkpt lat="42.9986757" lon="11.6795863"><ele>340.3333333333333</ele><time>2026-04-26T13:26:26.202Z</time></trkpt><trkpt lat="42.9986816" lon="11.6797171"><ele>339.5</ele><time>2026-04-26T13:26:27.194Z</time></trkpt><trkpt lat="42.9986863" lon="11.6798372"><ele>338.66666666666663</ele><time>2026-04-26T13:26:28.188Z</time></trkpt><trkpt lat="42.998692" lon="11.6799487"><ele>337.8333333333333</ele><time>2026-04-26T13:26:29.19Z</time></trkpt><trkpt lat="42.9986976" lon="11.6800521"><ele>337.0</ele><time>2026-04-26T13:26:30.19Z</time></trkpt><trkpt lat="42.9987086" lon="11.6801511"><ele>337.00000000000006</ele><time>2026-04-26T13:26:31.187Z</time></trkpt><trkpt lat="42.9987192" lon="11.6802478"><ele>337.0</ele><time>2026-04-26T13:26:32.2Z</time></trkpt><trkpt lat="42.9987267" lon="11.6803486"><ele>337.0</ele><time>2026-04-26T13:26:33.193Z</time></trkpt><trkpt lat="42.9987319" lon="11.6804513"><ele>337.0</ele><time>2026-04-26T13:26:34.196Z</time></trkpt><trkpt lat="42.9987404" lon="11.6805524"><ele>337.0</ele><time>2026-04-26T13:26:35.186Z</time></trkpt><trkpt lat="42.9987607" lon="11.6806491"><ele>337.00000000000006</ele><time>2026-04-26T13:26:36.189Z</time></trkpt><trkpt lat="42.9987911" lon="11.6807454"><ele>337.0</ele><time>2026-04-26T13:26:37.197Z</time></trkpt><trkpt lat="42.9988327" lon="11.6808405"><ele>336.40000000000003</ele><time>2026-04-26T13:26:38.202Z</time></trkpt><trkpt lat="42.9988865" lon="11.680931"><ele>335.8</ele><time>2026-04-26T13:26:39.197Z</time></trkpt><trkpt lat="42.9989518" lon="11.6810199"><ele>335.2</ele><time>2026-04-26T13:26:40.195Z</time></trkpt><trkpt lat="42.9990217" lon="11.6811094"><ele>334.6</ele><time>2026-04-26T13:26:41.198Z</time></trkpt><trkpt lat="42.9990938" lon="11.6812014"><ele>334.0</ele><time>2026-04-26T13:26:42.188Z</time></trkpt><trkpt lat="42.999171" lon="11.6813025"><ele>331.79999999999995</ele><time>2026-04-26T13:26:43.199Z</time></trkpt><trkpt lat="42.9992461" lon="11.6814027"><ele>329.59999999999997</ele><time>2026-04-26T13:26:44.195Z</time></trkpt><trkpt lat="42.9993161" lon="11.6815003"><ele>327.4</ele><time>2026-04-26T13:26:45.198Z</time></trkpt><trkpt lat="42.9993811" lon="11.6815977"><ele>325.2</ele><time>2026-04-26T13:26:46.191Z</time></trkpt><trkpt lat="42.9994387" lon="11.6816997"><ele>323.0</ele><time>2026-04-26T13:26:47.208Z</time></trkpt><trkpt lat="42.999485" lon="11.6818048"><ele>323.0</ele><time>2026-04-26T13:26:48.198Z</time></trkpt><trkpt lat="42.9995213" lon="11.6819115"><ele>323.0</ele><time>2026-04-26T13:26:49.197Z</time></trkpt><trkpt lat="42.999548" lon="11.6820179"><ele>323.0</ele><time>2026-04-26T13:26:50.187Z</time></trkpt><trkpt lat="42.9995662" lon="11.6821257"><ele>323.0</ele><time>2026-04-26T13:26:51.202Z</time></trkpt><trkpt lat="42.9995804" lon="11.6822326"><ele>323.0</ele><time>2026-04-26T13:26:52.188Z</time></trkpt><trkpt lat="42.9995941" lon="11.6823382"><ele>323.0</ele><time>2026-04-26T13:26:53.189Z</time></trkpt><trkpt lat="42.9996065" lon="11.6824402"><ele>322.83333333333337</ele><time>2026-04-26T13:26:54.18Z</time></trkpt><trkpt lat="42.9996184" lon="11.682544"><ele>322.6666666666667</ele><time>2026-04-26T13:26:55.18Z</time></trkpt><trkpt lat="42.9996311" lon="11.6826512"><ele>322.5</ele><time>2026-04-26T13:26:56.206Z</time></trkpt><trkpt lat="42.9996429" lon="11.6827595"><ele>322.3333333333333</ele><time>2026-04-26T13:26:57.196Z</time></trkpt><trkpt lat="42.9996544" lon="11.6828709"><ele>322.16666666666663</ele><time>2026-04-26T13:26:58.187Z</time></trkpt><trkpt lat="42.9996661" lon="11.6829833"><ele>322.0</ele><time>2026-04-26T13:26:59.192Z</time></trkpt><trkpt lat="42.9996787" lon="11.6830916"><ele>321.8333333333333</ele><time>2026-04-26T13:27:00.205Z</time></trkpt><trkpt lat="42.9996885" lon="11.6831898"><ele>321.66666666666663</ele><time>2026-04-26T13:27:01.203Z</time></trkpt><trkpt lat="42.9996993" lon="11.6833294"><ele>321.5</ele><time>2026-04-26T13:27:03.204Z</time></trkpt><trkpt lat="42.9997046" lon="11.6834306"><ele>321.3333333333333</ele><time>2026-04-26T13:27:06.204Z</time></trkpt><trkpt lat="42.9996931" lon="11.6835176"><ele>321.1666666666667</ele><time>2026-04-26T13:27:22.185Z</time></trkpt><trkpt lat="42.9996239" lon="11.6836228"><ele>321.0</ele><time>2026-04-26T13:27:25.195Z</time></trkpt><trkpt lat="42.9995436" lon="11.6836259"><ele>319.5</ele><time>2026-04-26T13:27:26.198Z</time></trkpt><trkpt lat="42.9994411" lon="11.6836244"><ele>318.0</ele><time>2026-04-26T13:27:27.188Z</time></trkpt><trkpt lat="42.9993259" lon="11.6836268"><ele>316.5</ele><time>2026-04-26T13:27:28.185Z</time></trkpt><trkpt lat="42.9991997" lon="11.6836266"><ele>315.0</ele><time>2026-04-26T13:27:29.192Z</time></trkpt><trkpt lat="42.9990522" lon="11.6836252"><ele>314.5</ele><time>2026-04-26T13:27:30.181Z</time></trkpt><trkpt lat="42.9988949" lon="11.6836191"><ele>314.0</ele><time>2026-04-26T13:27:31.195Z</time></trkpt><trkpt lat="42.9987473" lon="11.6836131"><ele>313.5</ele><time>2026-04-26T13:27:32.175Z</time></trkpt><trkpt lat="42.9986087" lon="11.6836058"><ele>313.0</ele><time>2026-04-26T13:27:33.197Z</time></trkpt><trkpt lat="42.9984691" lon="11.6836009"><ele>314.0</ele><time>2026-04-26T13:27:34.186Z</time></trkpt><trkpt lat="42.9983259" lon="11.6835953"><ele>315.0</ele><time>2026-04-26T13:27:35.19Z</time></trkpt><trkpt lat="42.9981833" lon="11.6835875"><ele>316.0</ele><time>2026-04-26T13:27:36.19Z</time></trkpt><trkpt lat="42.9980407" lon="11.6835764"><ele>317.0</ele><time>2026-04-26T13:27:37.185Z</time></trkpt><trkpt lat="42.9979004" lon="11.6835634"><ele>317.0</ele><time>2026-04-26T13:27:38.188Z</time></trkpt><trkpt lat="42.9977647" lon="11.6835499"><ele>317.0</ele><time>2026-04-26T13:27:39.192Z</time></trkpt><trkpt lat="42.9976294" lon="11.6835354"><ele>317.0</ele><time>2026-04-26T13:27:40.184Z</time></trkpt><trkpt lat="42.9974951" lon="11.6835231"><ele>317.0</ele><time>2026-04-26T13:27:41.199Z</time></trkpt><trkpt lat="42.9973673" lon="11.6835103"><ele>315.25</ele><time>2026-04-26T13:27:42.202Z</time></trkpt><trkpt lat="42.9972484" lon="11.6834973"><ele>313.5</ele><time>2026-04-26T13:27:43.202Z</time></trkpt><trkpt lat="42.9971352" lon="11.6834899"><ele>311.75</ele><time>2026-04-26T13:27:44.196Z</time></trkpt><trkpt lat="42.9970228" lon="11.683493"><ele>310.0</ele><time>2026-04-26T13:27:45.198Z</time></trkpt><trkpt lat="42.9969091" lon="11.6835202"><ele>310.0</ele><time>2026-04-26T13:27:46.195Z</time></trkpt><trkpt lat="42.9967966" lon="11.683575"><ele>310.0</ele><time>2026-04-26T13:27:47.199Z</time></trkpt><trkpt lat="42.9966894" lon="11.6836551"><ele>310.0</ele><time>2026-04-26T13:27:48.195Z</time></trkpt><trkpt lat="42.9965982" lon="11.6837698"><ele>310.0</ele><time>2026-04-26T13:27:49.196Z</time></trkpt><trkpt lat="42.9965271" lon="11.6839145"><ele>309.25</ele><time>2026-04-26T13:27:50.182Z</time></trkpt><trkpt lat="42.9964593" lon="11.6840652"><ele>308.5</ele><time>2026-04-26T13:27:51.195Z</time></trkpt><trkpt lat="42.9963789" lon="11.6842031"><ele>307.75</ele><time>2026-04-26T13:27:52.188Z</time></trkpt><trkpt lat="42.996288" lon="11.6843245"><ele>307.0</ele><time>2026-04-26T13:27:53.183Z</time></trkpt><trkpt lat="42.9961898" lon="11.6844314"><ele>306.5</ele><time>2026-04-26T13:27:54.193Z</time></trkpt><trkpt lat="42.9960876" lon="11.6845273"><ele>306.0</ele><time>2026-04-26T13:27:55.197Z</time></trkpt><trkpt lat="42.9959818" lon="11.6846172"><ele>305.5</ele><time>2026-04-26T13:27:56.2Z</time></trkpt><trkpt lat="42.9958718" lon="11.6847048"><ele>305.0</ele><time>2026-04-26T13:27:57.186Z</time></trkpt><trkpt lat="42.9957598" lon="11.6847963"><ele>305.0</ele><time>2026-04-26T13:27:58.196Z</time></trkpt><trkpt lat="42.9956445" lon="11.6848853"><ele>305.0</ele><time>2026-04-26T13:27:59.191Z</time></trkpt><trkpt lat="42.9955321" lon="11.6849682"><ele>305.0</ele><time>2026-04-26T13:28:00.197Z</time></trkpt><trkpt lat="42.9954251" lon="11.6850528"><ele>305.0</ele><time>2026-04-26T13:28:01.189Z</time></trkpt><trkpt lat="42.995321" lon="11.6851361"><ele>305.0</ele><time>2026-04-26T13:28:02.197Z</time></trkpt><trkpt lat="42.9952171" lon="11.6852129"><ele>305.0</ele><time>2026-04-26T13:28:03.188Z</time></trkpt><trkpt lat="42.9951156" lon="11.6852895"><ele>305.0</ele><time>2026-04-26T13:28:04.201Z</time></trkpt><trkpt lat="42.9950151" lon="11.685363"><ele>305.0</ele><time>2026-04-26T13:28:05.199Z</time></trkpt><trkpt lat="42.994916" lon="11.685435"><ele>304.75</ele><time>2026-04-26T13:28:06.195Z</time></trkpt><trkpt lat="42.9948185" lon="11.6855095"><ele>304.5</ele><time>2026-04-26T13:28:07.185Z</time></trkpt><trkpt lat="42.9947218" lon="11.685585"><ele>304.25</ele><time>2026-04-26T13:28:08.207Z</time></trkpt><trkpt lat="42.9946236" lon="11.6856582"><ele>304.0</ele><time>2026-04-26T13:28:09.199Z</time></trkpt><trkpt lat="42.9945205" lon="11.685735"><ele>304.0</ele><time>2026-04-26T13:28:10.203Z</time></trkpt><trkpt lat="42.9944051" lon="11.685824"><ele>304.0</ele><time>2026-04-26T13:28:11.197Z</time></trkpt><trkpt lat="42.9942894" lon="11.6859166"><ele>304.0</ele><time>2026-04-26T13:28:12.187Z</time></trkpt><trkpt lat="42.9941808" lon="11.6860055"><ele>304.0</ele><time>2026-04-26T13:28:13.196Z</time></trkpt><trkpt lat="42.9940737" lon="11.6860868"><ele>304.2</ele><time>2026-04-26T13:28:14.183Z</time></trkpt><trkpt lat="42.9939685" lon="11.6861651"><ele>304.4</ele><time>2026-04-26T13:28:15.207Z</time></trkpt><trkpt lat="42.9938707" lon="11.6862414"><ele>304.6</ele><time>2026-04-26T13:28:16.188Z</time></trkpt><trkpt lat="42.9937789" lon="11.6863141"><ele>304.8</ele><time>2026-04-26T13:28:17.201Z</time></trkpt><trkpt lat="42.9936836" lon="11.6863774"><ele>305.0</ele><time>2026-04-26T13:28:18.176Z</time></trkpt><trkpt lat="42.9935856" lon="11.6864344"><ele>305.0</ele><time>2026-04-26T13:28:19.202Z</time></trkpt><trkpt lat="42.9934819" lon="11.6864905"><ele>305.0</ele><time>2026-04-26T13:28:20.189Z</time></trkpt><trkpt lat="42.9933576" lon="11.6865407"><ele>305.0</ele><time>2026-04-26T13:28:21.203Z</time></trkpt><trkpt lat="42.9932093" lon="11.6865846"><ele>305.0</ele><time>2026-04-26T13:28:22.2Z</time></trkpt><trkpt lat="42.9930575" lon="11.6866312"><ele>305.75</ele><time>2026-04-26T13:28:23.199Z</time></trkpt><trkpt lat="42.9929154" lon="11.6866756"><ele>306.5</ele><time>2026-04-26T13:28:24.186Z</time></trkpt><trkpt lat="42.9927856" lon="11.6867114"><ele>307.25</ele><time>2026-04-26T13:28:25.192Z</time></trkpt><trkpt lat="42.992666" lon="11.6867415"><ele>308.0</ele><time>2026-04-26T13:28:26.198Z</time></trkpt><trkpt lat="42.9925554" lon="11.6867692"><ele>308.6</ele><time>2026-04-26T13:28:27.196Z</time></trkpt><trkpt lat="42.9924508" lon="11.6867927"><ele>309.20000000000005</ele><time>2026-04-26T13:28:28.193Z</time></trkpt><trkpt lat="42.9923492" lon="11.6868116"><ele>309.8</ele><time>2026-04-26T13:28:29.178Z</time></trkpt><trkpt lat="42.9922491" lon="11.6868297"><ele>310.40000000000003</ele><time>2026-04-26T13:28:30.198Z</time></trkpt><trkpt lat="42.9921489" lon="11.6868485"><ele>311.0</ele><time>2026-04-26T13:28:31.198Z</time></trkpt><trkpt lat="42.9920398" lon="11.6868717"><ele>311.0</ele><time>2026-04-26T13:28:32.177Z</time></trkpt><trkpt lat="42.9919287" lon="11.6868942"><ele>311.0</ele><time>2026-04-26T13:28:33.197Z</time></trkpt><trkpt lat="42.9918096" lon="11.6869256"><ele>311.0</ele><time>2026-04-26T13:28:34.199Z</time></trkpt><trkpt lat="42.9916695" lon="11.6869629"><ele>311.0</ele><time>2026-04-26T13:28:35.203Z</time></trkpt><trkpt lat="42.9915098" lon="11.6869951"><ele>309.33333333333337</ele><time>2026-04-26T13:28:36.202Z</time></trkpt><trkpt lat="42.9913535" lon="11.6870243"><ele>307.6666666666667</ele><time>2026-04-26T13:28:37.189Z</time></trkpt><trkpt lat="42.9912012" lon="11.6870629"><ele>306.0</ele><time>2026-04-26T13:28:38.184Z</time></trkpt><trkpt lat="42.9910511" lon="11.6871052"><ele>306.0</ele><time>2026-04-26T13:28:39.186Z</time></trkpt><trkpt lat="42.9909164" lon="11.6872227"><ele>306.0</ele><time>2026-04-26T13:28:40.195Z</time></trkpt><trkpt lat="42.990802" lon="11.6873992"><ele>306.0</ele><time>2026-04-26T13:28:41.197Z</time></trkpt><trkpt lat="42.9907299" lon="11.6876235"><ele>306.3333333333333</ele><time>2026-04-26T13:28:42.201Z</time></trkpt><trkpt lat="42.9907069" lon="11.6878807"><ele>306.66666666666663</ele><time>2026-04-26T13:28:43.187Z</time></trkpt><trkpt lat="42.9907013" lon="11.6881456"><ele>307.0</ele><time>2026-04-26T13:28:44.2Z</time></trkpt><trkpt lat="42.9906903" lon="11.6883991"><ele>307.66666666666663</ele><time>2026-04-26T13:28:45.204Z</time></trkpt><trkpt lat="42.9906571" lon="11.6886384"><ele>308.3333333333333</ele><time>2026-04-26T13:28:46.183Z</time></trkpt><trkpt lat="42.9905907" lon="11.6888507"><ele>309.0</ele><time>2026-04-26T13:28:47.198Z</time></trkpt><trkpt lat="42.990498" lon="11.689027"><ele>309.0</ele><time>2026-04-26T13:28:48.184Z</time></trkpt><trkpt lat="42.9903979" lon="11.6891754"><ele>309.0</ele><time>2026-04-26T13:28:49.185Z</time></trkpt><trkpt lat="42.9903079" lon="11.6893053"><ele>309.0</ele><time>2026-04-26T13:28:50.196Z</time></trkpt><trkpt lat="42.9902252" lon="11.6894232"><ele>309.0</ele><time>2026-04-26T13:28:51.198Z</time></trkpt><trkpt lat="42.9901497" lon="11.6895303"><ele>308.8333333333333</ele><time>2026-04-26T13:28:52.195Z</time></trkpt><trkpt lat="42.9900821" lon="11.689628"><ele>308.6666666666667</ele><time>2026-04-26T13:28:53.202Z</time></trkpt><trkpt lat="42.9900193" lon="11.6897155"><ele>308.5</ele><time>2026-04-26T13:28:54.196Z</time></trkpt><trkpt lat="42.9899578" lon="11.6897988"><ele>308.33333333333337</ele><time>2026-04-26T13:28:55.196Z</time></trkpt><trkpt lat="42.9898955" lon="11.6898834"><ele>308.1666666666667</ele><time>2026-04-26T13:28:56.184Z</time></trkpt><trkpt lat="42.9898366" lon="11.6899646"><ele>308.0</ele><time>2026-04-26T13:28:57.176Z</time></trkpt><trkpt lat="42.9897877" lon="11.6900309"><ele>308.33333333333337</ele><time>2026-04-26T13:28:58.177Z</time></trkpt><trkpt lat="42.9897281" lon="11.6901407"><ele>308.6666666666667</ele><time>2026-04-26T13:29:00.189Z</time></trkpt><trkpt lat="42.9897594" lon="11.690232"><ele>309.0</ele><time>2026-04-26T13:29:03.204Z</time></trkpt><trkpt lat="42.9898221" lon="11.6902548"><ele>309.3333333333333</ele><time>2026-04-26T13:29:43.192Z</time></trkpt><trkpt lat="42.9899074" lon="11.690295"><ele>309.66666666666663</ele><time>2026-04-26T13:29:45.2Z</time></trkpt><trkpt lat="42.9899836" lon="11.6903241"><ele>310.0</ele><time>2026-04-26T13:29:47.198Z</time></trkpt><trkpt lat="42.9900588" lon="11.690342"><ele>310.2</ele><time>2026-04-26T13:29:50.18Z</time></trkpt><trkpt lat="42.9901264" lon="11.6903618"><ele>310.4</ele><time>2026-04-26T13:29:52.194Z</time></trkpt><trkpt lat="42.9902291" lon="11.6904087"><ele>310.6</ele><time>2026-04-26T13:29:54.182Z</time></trkpt><trkpt lat="42.9903439" lon="11.6904597"><ele>310.8</ele><time>2026-04-26T13:29:56.194Z</time></trkpt><trkpt lat="42.9904666" lon="11.6905085"><ele>311.0</ele><time>2026-04-26T13:29:58.192Z</time></trkpt><trkpt lat="42.9905345" lon="11.6905338"><ele>311.0</ele><time>2026-04-26T13:29:59.195Z</time></trkpt><trkpt lat="42.9906141" lon="11.6905631"><ele>311.0</ele><time>2026-04-26T13:30:00.201Z</time></trkpt><trkpt lat="42.9907185" lon="11.690603"><ele>311.0</ele><time>2026-04-26T13:30:01.182Z</time></trkpt><trkpt lat="42.9908326" lon="11.6906458"><ele>311.0</ele><time>2026-04-26T13:30:02.187Z</time></trkpt><trkpt lat="42.9909416" lon="11.6906841"><ele>311.0</ele><time>2026-04-26T13:30:03.193Z</time></trkpt><trkpt lat="42.991044" lon="11.6907213"><ele>310.8</ele><time>2026-04-26T13:30:04.184Z</time></trkpt><trkpt lat="42.9911433" lon="11.6907605"><ele>310.6</ele><time>2026-04-26T13:30:05.198Z</time></trkpt><trkpt lat="42.9912425" lon="11.6907988"><ele>310.4</ele><time>2026-04-26T13:30:06.184Z</time></trkpt><trkpt lat="42.991343" lon="11.6908362"><ele>310.2</ele><time>2026-04-26T13:30:07.201Z</time></trkpt><trkpt lat="42.9914448" lon="11.6908756"><ele>310.0</ele><time>2026-04-26T13:30:08.189Z</time></trkpt><trkpt lat="42.9915505" lon="11.6909181"><ele>310.0</ele><time>2026-04-26T13:30:09.176Z</time></trkpt><trkpt lat="42.9916591" lon="11.6909604"><ele>310.0</ele><time>2026-04-26T13:30:10.181Z</time></trkpt><trkpt lat="42.9917701" lon="11.6910019"><ele>310.0</ele><time>2026-04-26T13:30:11.196Z</time></trkpt><trkpt lat="42.9918831" lon="11.6910447"><ele>310.0</ele><time>2026-04-26T13:30:12.183Z</time></trkpt><trkpt lat="42.9919962" lon="11.6910885"><ele>311.25</ele><time>2026-04-26T13:30:13.203Z</time></trkpt><trkpt lat="42.9921098" lon="11.6911306"><ele>312.5</ele><time>2026-04-26T13:30:14.196Z</time></trkpt><trkpt lat="42.9922227" lon="11.6911735"><ele>313.75</ele><time>2026-04-26T13:30:15.191Z</time></trkpt><trkpt lat="42.992333" lon="11.6912195"><ele>315.0</ele><time>2026-04-26T13:30:16.177Z</time></trkpt><trkpt lat="42.9924441" lon="11.6912639"><ele>313.75</ele><time>2026-04-26T13:30:17.199Z</time></trkpt><trkpt lat="42.9925572" lon="11.691306"><ele>312.5</ele><time>2026-04-26T13:30:18.194Z</time></trkpt><trkpt lat="42.9926715" lon="11.6913498"><ele>311.25</ele><time>2026-04-26T13:30:19.192Z</time></trkpt><trkpt lat="42.9927877" lon="11.691393"><ele>310.0</ele><time>2026-04-26T13:30:20.187Z</time></trkpt><trkpt lat="42.9929061" lon="11.6914364"><ele>310.0</ele><time>2026-04-26T13:30:21.198Z</time></trkpt><trkpt lat="42.9930275" lon="11.6914834"><ele>310.0</ele><time>2026-04-26T13:30:22.184Z</time></trkpt><trkpt lat="42.9931496" lon="11.6915313"><ele>310.0</ele><time>2026-04-26T13:30:23.196Z</time></trkpt><trkpt lat="42.9932709" lon="11.6915765"><ele>310.0</ele><time>2026-04-26T13:30:24.197Z</time></trkpt><trkpt lat="42.9933868" lon="11.6916206"><ele>309.4</ele><time>2026-04-26T13:30:25.181Z</time></trkpt><trkpt lat="42.9934946" lon="11.6916656"><ele>308.8</ele><time>2026-04-26T13:30:26.187Z</time></trkpt><trkpt lat="42.993599" lon="11.6917138"><ele>308.2</ele><time>2026-04-26T13:30:27.189Z</time></trkpt><trkpt lat="42.9937016" lon="11.6917695"><ele>307.6</ele><time>2026-04-26T13:30:28.196Z</time></trkpt><trkpt lat="42.9937973" lon="11.6918445"><ele>307.0</ele><time>2026-04-26T13:30:29.181Z</time></trkpt><trkpt lat="42.9938902" lon="11.6919202"><ele>308.0</ele><time>2026-04-26T13:30:30.182Z</time></trkpt><trkpt lat="42.9939617" lon="11.692043"><ele>309.0</ele><time>2026-04-26T13:30:31.18Z</time></trkpt><trkpt lat="42.9940386" lon="11.6921908"><ele>310.0</ele><time>2026-04-26T13:30:32.199Z</time></trkpt><trkpt lat="42.9941189" lon="11.6923463"><ele>311.0</ele><time>2026-04-26T13:30:33.196Z</time></trkpt><trkpt lat="42.9941959" lon="11.6924905"><ele>312.75</ele><time>2026-04-26T13:30:34.198Z</time></trkpt><trkpt lat="42.9942661" lon="11.6926261"><ele>314.5</ele><time>2026-04-26T13:30:35.195Z</time></trkpt><trkpt lat="42.9943327" lon="11.6927557"><ele>316.25</ele><time>2026-04-26T13:30:36.191Z</time></trkpt><trkpt lat="42.9944032" lon="11.6928762"><ele>318.0</ele><time>2026-04-26T13:30:37.196Z</time></trkpt><trkpt lat="42.9944856" lon="11.6929859"><ele>318.0</ele><time>2026-04-26T13:30:38.195Z</time></trkpt><trkpt lat="42.9945946" lon="11.6930846"><ele>318.0</ele><time>2026-04-26T13:30:39.199Z</time></trkpt><trkpt lat="42.994732" lon="11.6931767"><ele>318.0</ele><time>2026-04-26T13:30:40.187Z</time></trkpt><trkpt lat="42.9948789" lon="11.6932659"><ele>318.0</ele><time>2026-04-26T13:30:41.2Z</time></trkpt><trkpt lat="42.9950072" lon="11.693356"><ele>319.75</ele><time>2026-04-26T13:30:42.197Z</time></trkpt><trkpt lat="42.9951197" lon="11.6934413"><ele>321.5</ele><time>2026-04-26T13:30:43.191Z</time></trkpt><trkpt lat="42.9952226" lon="11.6935164"><ele>323.25</ele><time>2026-04-26T13:30:44.174Z</time></trkpt><trkpt lat="42.9953194" lon="11.6935852"><ele>325.0</ele><time>2026-04-26T13:30:45.195Z</time></trkpt><trkpt lat="42.995421" lon="11.6936438"><ele>325.25</ele><time>2026-04-26T13:30:46.198Z</time></trkpt><trkpt lat="42.9955362" lon="11.6936911"><ele>325.5</ele><time>2026-04-26T13:30:47.205Z</time></trkpt><trkpt lat="42.9956547" lon="11.6937205"><ele>325.75</ele><time>2026-04-26T13:30:48.195Z</time></trkpt><trkpt lat="42.9957645" lon="11.6937484"><ele>326.0</ele><time>2026-04-26T13:30:49.202Z</time></trkpt><trkpt lat="42.9958619" lon="11.6937989"><ele>327.0</ele><time>2026-04-26T13:30:50.197Z</time></trkpt><trkpt lat="42.9959446" lon="11.6938751"><ele>328.0</ele><time>2026-04-26T13:30:51.199Z</time></trkpt><trkpt lat="42.9960319" lon="11.6939614"><ele>329.0</ele><time>2026-04-26T13:30:52.176Z</time></trkpt><trkpt lat="42.9960972" lon="11.6941011"><ele>330.0</ele><time>2026-04-26T13:30:53.187Z</time></trkpt><trkpt lat="42.996151" lon="11.6942329"><ele>331.0</ele><time>2026-04-26T13:30:54.199Z</time></trkpt><trkpt lat="42.9962036" lon="11.6943483"><ele>330.66666666666663</ele><time>2026-04-26T13:30:55.197Z</time></trkpt><trkpt lat="42.9962522" lon="11.6944498"><ele>330.3333333333333</ele><time>2026-04-26T13:30:56.192Z</time></trkpt><trkpt lat="42.9963011" lon="11.6945311"><ele>330.0</ele><time>2026-04-26T13:30:57.189Z</time></trkpt><trkpt lat="42.996357" lon="11.694586"><ele>329.6666666666667</ele><time>2026-04-26T13:30:58.193Z</time></trkpt><trkpt lat="42.9964192" lon="11.6946161"><ele>329.33333333333337</ele><time>2026-04-26T13:30:59.203Z</time></trkpt><trkpt lat="42.9964849" lon="11.6946195"><ele>329.0</ele><time>2026-04-26T13:31:00.188Z</time></trkpt><trkpt lat="42.9965658" lon="11.6945913"><ele>329.0</ele><time>2026-04-26T13:31:01.191Z</time></trkpt><trkpt lat="42.9966652" lon="11.6945371"><ele>329.0</ele><time>2026-04-26T13:31:02.197Z</time></trkpt><trkpt lat="42.9967732" lon="11.6944676"><ele>329.0</ele><time>2026-04-26T13:31:03.202Z</time></trkpt><trkpt lat="42.996869" lon="11.6944024"><ele>329.0</ele><time>2026-04-26T13:31:04.191Z</time></trkpt><trkpt lat="42.9969529" lon="11.6943428"><ele>329.0</ele><time>2026-04-26T13:31:05.201Z</time></trkpt><trkpt lat="42.9970262" lon="11.6942867"><ele>328.6666666666667</ele><time>2026-04-26T13:31:06.184Z</time></trkpt><trkpt lat="42.9970963" lon="11.6942261"><ele>328.33333333333337</ele><time>2026-04-26T13:31:07.177Z</time></trkpt><trkpt lat="42.9971649" lon="11.6941536"><ele>328.0</ele><time>2026-04-26T13:31:08.191Z</time></trkpt><trkpt lat="42.9972281" lon="11.6940734"><ele>327.6666666666667</ele><time>2026-04-26T13:31:09.193Z</time></trkpt><trkpt lat="42.9972876" lon="11.6939923"><ele>327.3333333333333</ele><time>2026-04-26T13:31:10.198Z</time></trkpt><trkpt lat="42.9973465" lon="11.693914"><ele>327.0</ele><time>2026-04-26T13:31:11.182Z</time></trkpt><trkpt lat="42.9974037" lon="11.6938335"><ele>327.0</ele><time>2026-04-26T13:31:12.2Z</time></trkpt><trkpt lat="42.9974639" lon="11.6937498"><ele>327.0</ele><time>2026-04-26T13:31:13.196Z</time></trkpt><trkpt lat="42.9975272" lon="11.6936649"><ele>327.0</ele><time>2026-04-26T13:31:14.197Z</time></trkpt><trkpt lat="42.9975882" lon="11.6935769"><ele>327.0</ele><time>2026-04-26T13:31:15.211Z</time></trkpt><trkpt lat="42.9976482" lon="11.6934881"><ele>327.0</ele><time>2026-04-26T13:31:16.194Z</time></trkpt><trkpt lat="42.9977071" lon="11.6934001"><ele>327.0</ele><time>2026-04-26T13:31:17.201Z</time></trkpt><trkpt lat="42.9977652" lon="11.6933115"><ele>324.8</ele><time>2026-04-26T13:31:18.182Z</time></trkpt><trkpt lat="42.9978325" lon="11.6932319"><ele>322.6</ele><time>2026-04-26T13:31:19.182Z</time></trkpt><trkpt lat="42.9979096" lon="11.6931731"><ele>320.40000000000003</ele><time>2026-04-26T13:31:20.191Z</time></trkpt><trkpt lat="42.9979958" lon="11.6931395"><ele>318.20000000000005</ele><time>2026-04-26T13:31:21.188Z</time></trkpt><trkpt lat="42.9980889" lon="11.6931328"><ele>316.0</ele><time>2026-04-26T13:31:22.181Z</time></trkpt><trkpt lat="42.9981875" lon="11.6931433"><ele>316.0</ele><time>2026-04-26T13:31:23.191Z</time></trkpt><trkpt lat="42.99829" lon="11.693163"><ele>316.0</ele><time>2026-04-26T13:31:24.208Z</time></trkpt><trkpt lat="42.9983911" lon="11.6931948"><ele>316.0</ele><time>2026-04-26T13:31:25.196Z</time></trkpt><trkpt lat="42.9984919" lon="11.6932296"><ele>316.0</ele><time>2026-04-26T13:31:26.186Z</time></trkpt><trkpt lat="42.9985963" lon="11.6932595"><ele>316.0</ele><time>2026-04-26T13:31:27.185Z</time></trkpt><trkpt lat="42.9986994" lon="11.6932975"><ele>315.8</ele><time>2026-04-26T13:31:28.194Z</time></trkpt><trkpt lat="42.9988014" lon="11.6933434"><ele>315.6</ele><time>2026-04-26T13:31:29.179Z</time></trkpt><trkpt lat="42.9989032" lon="11.6933912"><ele>315.4</ele><time>2026-04-26T13:31:30.201Z</time></trkpt><trkpt lat="42.9989997" lon="11.6934636"><ele>315.2</ele><time>2026-04-26T13:31:31.193Z</time></trkpt><trkpt lat="42.999095" lon="11.6935504"><ele>315.0</ele><time>2026-04-26T13:31:32.197Z</time></trkpt><trkpt lat="42.9991884" lon="11.693641"><ele>314.4</ele><time>2026-04-26T13:31:33.193Z</time></trkpt><trkpt lat="42.9992751" lon="11.6937347"><ele>313.8</ele><time>2026-04-26T13:31:34.205Z</time></trkpt><trkpt lat="42.999356" lon="11.6938352"><ele>313.2</ele><time>2026-04-26T13:31:35.182Z</time></trkpt><trkpt lat="42.9994315" lon="11.6939395"><ele>312.6</ele><time>2026-04-26T13:31:36.181Z</time></trkpt><trkpt lat="42.9995062" lon="11.6940444"><ele>312.0</ele><time>2026-04-26T13:31:37.193Z</time></trkpt><trkpt lat="42.9995808" lon="11.6941539"><ele>312.0</ele><time>2026-04-26T13:31:38.195Z</time></trkpt><trkpt lat="42.9996636" lon="11.6942508"><ele>312.0</ele><time>2026-04-26T13:31:39.184Z</time></trkpt><trkpt lat="42.9997557" lon="11.6943232"><ele>312.0</ele><time>2026-04-26T13:31:40.189Z</time></trkpt><trkpt lat="42.9998566" lon="11.6943764"><ele>312.0</ele><time>2026-04-26T13:31:41.197Z</time></trkpt><trkpt lat="42.9999639" lon="11.6944198"><ele>312.0</ele><time>2026-04-26T13:31:42.189Z</time></trkpt><trkpt lat="43.000075" lon="11.6944579"><ele>310.75</ele><time>2026-04-26T13:31:43.181Z</time></trkpt><trkpt lat="43.0001875" lon="11.6944972"><ele>309.5</ele><time>2026-04-26T13:31:44.196Z</time></trkpt><trkpt lat="43.0003044" lon="11.6945416"><ele>308.25</ele><time>2026-04-26T13:31:45.194Z</time></trkpt><trkpt lat="43.0004333" lon="11.694589"><ele>307.0</ele><time>2026-04-26T13:31:46.194Z</time></trkpt><trkpt lat="43.0005605" lon="11.6946368"><ele>307.0</ele><time>2026-04-26T13:31:47.176Z</time></trkpt><trkpt lat="43.0006825" lon="11.6946741"><ele>307.0</ele><time>2026-04-26T13:31:48.191Z</time></trkpt><trkpt lat="43.0008049" lon="11.6947001"><ele>307.0</ele><time>2026-04-26T13:31:49.181Z</time></trkpt><trkpt lat="43.0009253" lon="11.6947149"><ele>307.0</ele><time>2026-04-26T13:31:50.2Z</time></trkpt><trkpt lat="43.001044" lon="11.6947212"><ele>306.4</ele><time>2026-04-26T13:31:51.176Z</time></trkpt><trkpt lat="43.0011599" lon="11.694722"><ele>305.79999999999995</ele><time>2026-04-26T13:31:52.193Z</time></trkpt><trkpt lat="43.0012719" lon="11.6947233"><ele>305.2</ele><time>2026-04-26T13:31:53.193Z</time></trkpt><trkpt lat="43.00138" lon="11.6947365"><ele>304.59999999999997</ele><time>2026-04-26T13:31:54.188Z</time></trkpt><trkpt lat="43.0014879" lon="11.6947614"><ele>304.0</ele><time>2026-04-26T13:31:55.182Z</time></trkpt><trkpt lat="43.0015962" lon="11.6947912"><ele>303.5</ele><time>2026-04-26T13:31:56.194Z</time></trkpt><trkpt lat="43.0017055" lon="11.6948234"><ele>303.0</ele><time>2026-04-26T13:31:57.201Z</time></trkpt><trkpt lat="43.0018202" lon="11.6948624"><ele>302.5</ele><time>2026-04-26T13:31:58.207Z</time></trkpt><trkpt lat="43.0019419" lon="11.6949092"><ele>302.0</ele><time>2026-04-26T13:31:59.205Z</time></trkpt><trkpt lat="43.0020664" lon="11.6949775"><ele>302.0</ele><time>2026-04-26T13:32:00.185Z</time></trkpt><trkpt lat="43.0021906" lon="11.6950773"><ele>302.0</ele><time>2026-04-26T13:32:01.198Z</time></trkpt><trkpt lat="43.0023138" lon="11.6951982"><ele>302.0</ele><time>2026-04-26T13:32:02.195Z</time></trkpt><trkpt lat="43.0024286" lon="11.6953159"><ele>302.0</ele><time>2026-04-26T13:32:03.202Z</time></trkpt><trkpt lat="43.0025388" lon="11.6954239"><ele>304.0</ele><time>2026-04-26T13:32:04.197Z</time></trkpt><trkpt lat="43.0026471" lon="11.6955287"><ele>306.0</ele><time>2026-04-26T13:32:05.198Z</time></trkpt><trkpt lat="43.0027608" lon="11.6956271"><ele>308.0</ele><time>2026-04-26T13:32:06.189Z</time></trkpt><trkpt lat="43.0028862" lon="11.6957061"><ele>310.0</ele><time>2026-04-26T13:32:07.198Z</time></trkpt><trkpt lat="43.0030243" lon="11.6957541"><ele>310.0</ele><time>2026-04-26T13:32:08.191Z</time></trkpt><trkpt lat="43.0031749" lon="11.6957711"><ele>310.0</ele><time>2026-04-26T13:32:09.184Z</time></trkpt><trkpt lat="43.0033242" lon="11.6957871"><ele>310.0</ele><time>2026-04-26T13:32:10.198Z</time></trkpt><trkpt lat="43.003475" lon="11.6957839"><ele>311.75</ele><time>2026-04-26T13:32:11.191Z</time></trkpt><trkpt lat="43.0036224" lon="11.6957724"><ele>313.5</ele><time>2026-04-26T13:32:12.185Z</time></trkpt><trkpt lat="43.0037645" lon="11.6957485"><ele>315.25</ele><time>2026-04-26T13:32:13.183Z</time></trkpt><trkpt lat="43.0038974" lon="11.6957139"><ele>317.0</ele><time>2026-04-26T13:32:14.18Z</time></trkpt><trkpt lat="43.0040209" lon="11.6956724"><ele>317.0</ele><time>2026-04-26T13:32:15.172Z</time></trkpt><trkpt lat="43.0041407" lon="11.6956297"><ele>317.0</ele><time>2026-04-26T13:32:16.199Z</time></trkpt><trkpt lat="43.0042581" lon="11.6955879"><ele>317.0</ele><time>2026-04-26T13:32:17.19Z</time></trkpt><trkpt lat="43.0043656" lon="11.6955516"><ele>317.0</ele><time>2026-04-26T13:32:18.192Z</time></trkpt><trkpt lat="43.0044656" lon="11.6955255"><ele>317.5</ele><time>2026-04-26T13:32:19.194Z</time></trkpt><trkpt lat="43.0045585" lon="11.6955144"><ele>318.0</ele><time>2026-04-26T13:32:20.199Z</time></trkpt><trkpt lat="43.0046499" lon="11.6955197"><ele>318.5</ele><time>2026-04-26T13:32:21.2Z</time></trkpt><trkpt lat="43.0047351" lon="11.6955416"><ele>319.0</ele><time>2026-04-26T13:32:22.188Z</time></trkpt><trkpt lat="43.0048168" lon="11.6955776"><ele>319.5</ele><time>2026-04-26T13:32:23.183Z</time></trkpt><trkpt lat="43.0049006" lon="11.695626"><ele>320.0</ele><time>2026-04-26T13:32:24.195Z</time></trkpt><trkpt lat="43.0049885" lon="11.695677"><ele>318.8</ele><time>2026-04-26T13:32:25.193Z</time></trkpt><trkpt lat="43.0050758" lon="11.6957417"><ele>317.6</ele><time>2026-04-26T13:32:26.193Z</time></trkpt><trkpt lat="43.0051627" lon="11.6958093"><ele>316.4</ele><time>2026-04-26T13:32:27.197Z</time></trkpt><trkpt lat="43.0052585" lon="11.6958845"><ele>315.2</ele><time>2026-04-26T13:32:28.194Z</time></trkpt><trkpt lat="43.0053601" lon="11.6959769"><ele>314.0</ele><time>2026-04-26T13:32:29.226Z</time></trkpt><trkpt lat="43.0054676" lon="11.6960755"><ele>313.75</ele><time>2026-04-26T13:32:30.184Z</time></trkpt><trkpt lat="43.0055814" lon="11.6961864"><ele>313.5</ele><time>2026-04-26T13:32:31.195Z</time></trkpt><trkpt lat="43.0056981" lon="11.6962851"><ele>313.25</ele><time>2026-04-26T13:32:32.181Z</time></trkpt><trkpt lat="43.005814" lon="11.696362"><ele>313.0</ele><time>2026-04-26T13:32:33.195Z</time></trkpt><trkpt lat="43.0059257" lon="11.6964247"><ele>312.0</ele><time>2026-04-26T13:32:34.182Z</time></trkpt><trkpt lat="43.0060301" lon="11.6964807"><ele>311.0</ele><time>2026-04-26T13:32:35.196Z</time></trkpt><trkpt lat="43.0061285" lon="11.6965336"><ele>310.0</ele><time>2026-04-26T13:32:36.194Z</time></trkpt><trkpt lat="43.006211" lon="11.6965784"><ele>309.0</ele><time>2026-04-26T13:32:37.185Z</time></trkpt><trkpt lat="43.0062785" lon="11.6966178"><ele>308.0</ele><time>2026-04-26T13:32:38.2Z</time></trkpt><trkpt lat="43.0063387" lon="11.6966542"><ele>307.0</ele><time>2026-04-26T13:32:39.183Z</time></trkpt><trkpt lat="43.0063967" lon="11.6967892"><ele>306.99999999999994</ele><time>2026-04-26T13:32:41.196Z</time></trkpt><trkpt lat="43.0064114" lon="11.6968782"><ele>307.0</ele><time>2026-04-26T13:32:42.197Z</time></trkpt><trkpt lat="43.0064239" lon="11.6969687"><ele>307.0</ele><time>2026-04-26T13:32:43.195Z</time></trkpt><trkpt lat="43.0064382" lon="11.6970596"><ele>307.0</ele><time>2026-04-26T13:32:44.197Z</time></trkpt><trkpt lat="43.0064539" lon="11.6971539"><ele>307.0</ele><time>2026-04-26T13:32:45.192Z</time></trkpt><trkpt lat="43.0064718" lon="11.6972544"><ele>306.99999999999994</ele><time>2026-04-26T13:32:46.19Z</time></trkpt><trkpt lat="43.0064945" lon="11.69736"><ele>307.0</ele><time>2026-04-26T13:32:47.191Z</time></trkpt><trkpt lat="43.0065188" lon="11.697472"><ele>307.2</ele><time>2026-04-26T13:32:48.183Z</time></trkpt><trkpt lat="43.0065454" lon="11.697588"><ele>307.4</ele><time>2026-04-26T13:32:49.191Z</time></trkpt><trkpt lat="43.0065764" lon="11.697713"><ele>307.6</ele><time>2026-04-26T13:32:50.186Z</time></trkpt><trkpt lat="43.0066181" lon="11.6978621"><ele>307.8</ele><time>2026-04-26T13:32:51.178Z</time></trkpt><trkpt lat="43.0066722" lon="11.6980261"><ele>308.0</ele><time>2026-04-26T13:32:52.191Z</time></trkpt><trkpt lat="43.0067334" lon="11.6981941"><ele>308.5</ele><time>2026-04-26T13:32:53.191Z</time></trkpt><trkpt lat="43.0067898" lon="11.6983435"><ele>309.0</ele><time>2026-04-26T13:32:54.199Z</time></trkpt><trkpt lat="43.0068429" lon="11.6984864"><ele>309.5</ele><time>2026-04-26T13:32:55.198Z</time></trkpt><trkpt lat="43.0068948" lon="11.6986256"><ele>310.0</ele><time>2026-04-26T13:32:56.199Z</time></trkpt><trkpt lat="43.0069461" lon="11.698761"><ele>310.4</ele><time>2026-04-26T13:32:57.192Z</time></trkpt><trkpt lat="43.0069988" lon="11.6988913"><ele>310.8</ele><time>2026-04-26T13:32:58.185Z</time></trkpt><trkpt lat="43.0070504" lon="11.6990187"><ele>311.2</ele><time>2026-04-26T13:32:59.2Z</time></trkpt><trkpt lat="43.0071005" lon="11.699147"><ele>311.6</ele><time>2026-04-26T13:33:00.189Z</time></trkpt><trkpt lat="43.0071492" lon="11.6992768"><ele>312.0</ele><time>2026-04-26T13:33:01.193Z</time></trkpt><trkpt lat="43.0071959" lon="11.6994041"><ele>312.8</ele><time>2026-04-26T13:33:02.199Z</time></trkpt><trkpt lat="43.0072016" lon="11.6995331"><ele>313.6</ele><time>2026-04-26T13:33:03.208Z</time></trkpt><trkpt lat="43.0071723" lon="11.6996568"><ele>314.40000000000003</ele><time>2026-04-26T13:33:04.197Z</time></trkpt><trkpt lat="43.0071135" lon="11.6997724"><ele>315.2</ele><time>2026-04-26T13:33:05.195Z</time></trkpt><trkpt lat="43.007029" lon="11.6998768"><ele>316.0</ele><time>2026-04-26T13:33:06.191Z</time></trkpt><trkpt lat="43.0069248" lon="11.6999826"><ele>316.0</ele><time>2026-04-26T13:33:07.196Z</time></trkpt><trkpt lat="43.0068232" lon="11.7000888"><ele>316.0</ele><time>2026-04-26T13:33:08.197Z</time></trkpt><trkpt lat="43.0067277" lon="11.7001971"><ele>316.0</ele><time>2026-04-26T13:33:09.196Z</time></trkpt><trkpt lat="43.0066362" lon="11.700304"><ele>316.0</ele><time>2026-04-26T13:33:10.18Z</time></trkpt><trkpt lat="43.0065464" lon="11.700409"><ele>316.75</ele><time>2026-04-26T13:33:11.194Z</time></trkpt><trkpt lat="43.0064558" lon="11.7005116"><ele>317.5</ele><time>2026-04-26T13:33:12.182Z</time></trkpt><trkpt lat="43.0063665" lon="11.7006137"><ele>318.25</ele><time>2026-04-26T13:33:13.195Z</time></trkpt><trkpt lat="43.0062783" lon="11.7007162"><ele>319.0</ele><time>2026-04-26T13:33:14.191Z</time></trkpt><trkpt lat="43.0061885" lon="11.7008144"><ele>319.0</ele><time>2026-04-26T13:33:15.195Z</time></trkpt><trkpt lat="43.0060934" lon="11.7008959"><ele>319.0</ele><time>2026-04-26T13:33:16.198Z</time></trkpt><trkpt lat="43.0059867" lon="11.7009579"><ele>319.0</ele><time>2026-04-26T13:33:17.197Z</time></trkpt><trkpt lat="43.0058612" lon="11.7010045"><ele>319.0</ele><time>2026-04-26T13:33:18.198Z</time></trkpt><trkpt lat="43.0057324" lon="11.7010389"><ele>318.5</ele><time>2026-04-26T13:33:19.197Z</time></trkpt><trkpt lat="43.0056096" lon="11.7010737"><ele>318.0</ele><time>2026-04-26T13:33:20.198Z</time></trkpt><trkpt lat="43.0054911" lon="11.701107"><ele>317.5</ele><time>2026-04-26T13:33:21.2Z</time></trkpt><trkpt lat="43.0053726" lon="11.701141"><ele>317.0</ele><time>2026-04-26T13:33:22.201Z</time></trkpt><trkpt lat="43.0052544" lon="11.70119"><ele>316.75</ele><time>2026-04-26T13:33:23.197Z</time></trkpt><trkpt lat="43.0051423" lon="11.7012514"><ele>316.5</ele><time>2026-04-26T13:33:24.197Z</time></trkpt><trkpt lat="43.0050325" lon="11.701321"><ele>316.25</ele><time>2026-04-26T13:33:25.201Z</time></trkpt><trkpt lat="43.0049278" lon="11.7013945"><ele>316.0</ele><time>2026-04-26T13:33:26.197Z</time></trkpt><trkpt lat="43.0048246" lon="11.7014698"><ele>316.0</ele><time>2026-04-26T13:33:27.186Z</time></trkpt><trkpt lat="43.0047223" lon="11.7015479"><ele>316.0</ele><time>2026-04-26T13:33:28.186Z</time></trkpt><trkpt lat="43.0046234" lon="11.7016325"><ele>316.0</ele><time>2026-04-26T13:33:29.214Z</time></trkpt><trkpt lat="43.0045221" lon="11.7017152"><ele>316.0</ele><time>2026-04-26T13:33:30.185Z</time></trkpt><trkpt lat="43.0044271" lon="11.7018129"><ele>316.0</ele><time>2026-04-26T13:33:31.198Z</time></trkpt><trkpt lat="43.0043337" lon="11.7019127"><ele>316.0</ele><time>2026-04-26T13:33:32.197Z</time></trkpt><trkpt lat="43.0042415" lon="11.7020102"><ele>316.0</ele><time>2026-04-26T13:33:33.194Z</time></trkpt><trkpt lat="43.0041493" lon="11.7021061"><ele>316.0</ele><time>2026-04-26T13:33:34.194Z</time></trkpt><trkpt lat="43.0040584" lon="11.7022023"><ele>316.5</ele><time>2026-04-26T13:33:35.194Z</time></trkpt><trkpt lat="43.0039723" lon="11.7023037"><ele>317.0</ele><time>2026-04-26T13:33:36.196Z</time></trkpt><trkpt lat="43.0038989" lon="11.7024224"><ele>317.5</ele><time>2026-04-26T13:33:37.195Z</time></trkpt><trkpt lat="43.0038405" lon="11.7025636"><ele>318.0</ele><time>2026-04-26T13:33:38.202Z</time></trkpt><trkpt lat="43.0038013" lon="11.70273"><ele>318.75</ele><time>2026-04-26T13:33:39.197Z</time></trkpt><trkpt lat="43.0037746" lon="11.7029232"><ele>319.5</ele><time>2026-04-26T13:33:40.198Z</time></trkpt><trkpt lat="43.0037562" lon="11.7031131"><ele>320.25</ele><time>2026-04-26T13:33:41.203Z</time></trkpt><trkpt lat="43.003741" lon="11.7032895"><ele>321.0</ele><time>2026-04-26T13:33:42.195Z</time></trkpt><trkpt lat="43.0037264" lon="11.7034537"><ele>321.4</ele><time>2026-04-26T13:33:43.204Z</time></trkpt><trkpt lat="43.0037133" lon="11.7036112"><ele>321.8</ele><time>2026-04-26T13:33:44.192Z</time></trkpt><trkpt lat="43.0036982" lon="11.7037642"><ele>322.2</ele><time>2026-04-26T13:33:45.196Z</time></trkpt><trkpt lat="43.0036837" lon="11.7039134"><ele>322.59999999999997</ele><time>2026-04-26T13:33:46.2Z</time></trkpt><trkpt lat="43.0036716" lon="11.7040591"><ele>323.0</ele><time>2026-04-26T13:33:47.192Z</time></trkpt><trkpt lat="43.0036585" lon="11.7042004"><ele>323.0</ele><time>2026-04-26T13:33:48.201Z</time></trkpt><trkpt lat="43.0036453" lon="11.7043389"><ele>323.0</ele><time>2026-04-26T13:33:49.188Z</time></trkpt><trkpt lat="43.0036315" lon="11.7044772"><ele>323.0</ele><time>2026-04-26T13:33:50.199Z</time></trkpt><trkpt lat="43.0036185" lon="11.7046145"><ele>323.0</ele><time>2026-04-26T13:33:51.182Z</time></trkpt><trkpt lat="43.0036057" lon="11.7047508"><ele>323.0</ele><time>2026-04-26T13:33:52.199Z</time></trkpt><trkpt lat="43.0035934" lon="11.7048832"><ele>323.2</ele><time>2026-04-26T13:33:53.195Z</time></trkpt><trkpt lat="43.0035809" lon="11.7050129"><ele>323.4</ele><time>2026-04-26T13:33:54.198Z</time></trkpt><trkpt lat="43.0035684" lon="11.7051405"><ele>323.59999999999997</ele><time>2026-04-26T13:33:55.192Z</time></trkpt><trkpt lat="43.0035546" lon="11.7052676"><ele>323.79999999999995</ele><time>2026-04-26T13:33:56.199Z</time></trkpt><trkpt lat="43.0035408" lon="11.7053939"><ele>324.0</ele><time>2026-04-26T13:33:57.193Z</time></trkpt><trkpt lat="43.0035297" lon="11.7055198"><ele>324.4</ele><time>2026-04-26T13:33:58.192Z</time></trkpt><trkpt lat="43.0035178" lon="11.7056469"><ele>324.79999999999995</ele><time>2026-04-26T13:33:59.195Z</time></trkpt><trkpt lat="43.0035059" lon="11.705774"><ele>325.20000000000005</ele><time>2026-04-26T13:34:00.198Z</time></trkpt><trkpt lat="43.0034941" lon="11.7059009"><ele>325.6</ele><time>2026-04-26T13:34:01.197Z</time></trkpt><trkpt lat="43.0034798" lon="11.7060277"><ele>326.0</ele><time>2026-04-26T13:34:02.187Z</time></trkpt><trkpt lat="43.0034646" lon="11.7061675"><ele>326.0</ele><time>2026-04-26T13:34:03.199Z</time></trkpt><trkpt lat="43.0034509" lon="11.7063437"><ele>326.0</ele><time>2026-04-26T13:34:04.198Z</time></trkpt><trkpt lat="43.0034354" lon="11.7065549"><ele>326.0</ele><time>2026-04-26T13:34:05.2Z</time></trkpt><trkpt lat="43.0034153" lon="11.7067773"><ele>326.0</ele><time>2026-04-26T13:34:06.197Z</time></trkpt><trkpt lat="43.0033918" lon="11.7070062"><ele>326.5</ele><time>2026-04-26T13:34:07.193Z</time></trkpt><trkpt lat="43.0033698" lon="11.7072135"><ele>327.0</ele><time>2026-04-26T13:34:08.194Z</time></trkpt><trkpt lat="43.0033509" lon="11.7074061"><ele>327.5</ele><time>2026-04-26T13:34:09.197Z</time></trkpt><trkpt lat="43.0033363" lon="11.7075912"><ele>328.0</ele><time>2026-04-26T13:34:10.193Z</time></trkpt><trkpt lat="43.0033322" lon="11.707771"><ele>328.0</ele><time>2026-04-26T13:34:11.196Z</time></trkpt><trkpt lat="43.003346" lon="11.7079578"><ele>328.0</ele><time>2026-04-26T13:34:12.202Z</time></trkpt><trkpt lat="43.0033741" lon="11.7081565"><ele>328.0</ele><time>2026-04-26T13:34:13.19Z</time></trkpt><trkpt lat="43.0034077" lon="11.7083384"><ele>328.0</ele><time>2026-04-26T13:34:14.203Z</time></trkpt><trkpt lat="43.0034396" lon="11.7084991"><ele>327.5</ele><time>2026-04-26T13:34:15.196Z</time></trkpt><trkpt lat="43.0034743" lon="11.7086407"><ele>327.0</ele><time>2026-04-26T13:34:16.192Z</time></trkpt><trkpt lat="43.0035229" lon="11.7087726"><ele>326.5</ele><time>2026-04-26T13:34:17.179Z</time></trkpt><trkpt lat="43.0035934" lon="11.7088963"><ele>326.0</ele><time>2026-04-26T13:34:18.195Z</time></trkpt><trkpt lat="43.0036942" lon="11.7090164"><ele>326.0</ele><time>2026-04-26T13:34:19.202Z</time></trkpt><trkpt lat="43.0038056" lon="11.7091163"><ele>326.0</ele><time>2026-04-26T13:34:20.198Z</time></trkpt><trkpt lat="43.0039163" lon="11.709205"><ele>326.0</ele><time>2026-04-26T13:34:21.181Z</time></trkpt><trkpt lat="43.0040236" lon="11.7092963"><ele>326.0</ele><time>2026-04-26T13:34:22.181Z</time></trkpt><trkpt lat="43.0041306" lon="11.7093888"><ele>326.75</ele><time>2026-04-26T13:34:23.184Z</time></trkpt><trkpt lat="43.004238" lon="11.7094774"><ele>327.5</ele><time>2026-04-26T13:34:24.191Z</time></trkpt><trkpt lat="43.0043412" lon="11.709563"><ele>328.25</ele><time>2026-04-26T13:34:25.187Z</time></trkpt><trkpt lat="43.0044384" lon="11.709644"><ele>329.0</ele><time>2026-04-26T13:34:26.182Z</time></trkpt><trkpt lat="43.0045303" lon="11.70972"><ele>329.0</ele><time>2026-04-26T13:34:27.198Z</time></trkpt><trkpt lat="43.0046182" lon="11.7097926"><ele>329.0</ele><time>2026-04-26T13:34:28.193Z</time></trkpt><trkpt lat="43.004702" lon="11.7098599"><ele>329.0</ele><time>2026-04-26T13:34:29.198Z</time></trkpt><trkpt lat="43.0047806" lon="11.7099203"><ele>329.0</ele><time>2026-04-26T13:34:30.19Z</time></trkpt><trkpt lat="43.0048553" lon="11.7099796"><ele>329.0</ele><time>2026-04-26T13:34:31.197Z</time></trkpt><trkpt lat="43.0049213" lon="11.7100489"><ele>329.0</ele><time>2026-04-26T13:34:32.182Z</time></trkpt><trkpt lat="43.0049762" lon="11.7101316"><ele>329.0</ele><time>2026-04-26T13:34:33.197Z</time></trkpt><trkpt lat="43.0050232" lon="11.7102205"><ele>329.0</ele><time>2026-04-26T13:34:34.182Z</time></trkpt><trkpt lat="43.0050628" lon="11.7103071"><ele>329.0</ele><time>2026-04-26T13:34:35.202Z</time></trkpt><trkpt lat="43.0050928" lon="11.7103966"><ele>329.0</ele><time>2026-04-26T13:34:36.195Z</time></trkpt><trkpt lat="43.0051108" lon="11.7104909"><ele>329.0</ele><time>2026-04-26T13:34:37.181Z</time></trkpt><trkpt lat="43.0051155" lon="11.7105928"><ele>330.2</ele><time>2026-04-26T13:34:38.182Z</time></trkpt><trkpt lat="43.0051032" lon="11.7107008"><ele>331.4</ele><time>2026-04-26T13:34:39.198Z</time></trkpt><trkpt lat="43.0050746" lon="11.7108157"><ele>332.6</ele><time>2026-04-26T13:34:40.193Z</time></trkpt><trkpt lat="43.0050361" lon="11.7109381"><ele>333.8</ele><time>2026-04-26T13:34:41.184Z</time></trkpt><trkpt lat="43.004999" lon="11.7110599"><ele>335.0</ele><time>2026-04-26T13:34:42.181Z</time></trkpt><trkpt lat="43.0049721" lon="11.7111806"><ele>332.2</ele><time>2026-04-26T13:34:43.2Z</time></trkpt><trkpt lat="43.0049569" lon="11.7113089"><ele>329.4</ele><time>2026-04-26T13:34:44.194Z</time></trkpt><trkpt lat="43.0049521" lon="11.7114537"><ele>326.6</ele><time>2026-04-26T13:34:45.195Z</time></trkpt><trkpt lat="43.0049557" lon="11.7116205"><ele>323.8</ele><time>2026-04-26T13:34:46.195Z</time></trkpt><trkpt lat="43.0049613" lon="11.7117929"><ele>321.0</ele><time>2026-04-26T13:34:47.191Z</time></trkpt><trkpt lat="43.0049583" lon="11.7119637"><ele>320.5</ele><time>2026-04-26T13:34:48.191Z</time></trkpt><trkpt lat="43.0049413" lon="11.7121296"><ele>320.0</ele><time>2026-04-26T13:34:49.192Z</time></trkpt><trkpt lat="43.0049065" lon="11.7122865"><ele>319.5</ele><time>2026-04-26T13:34:50.184Z</time></trkpt><trkpt lat="43.0048607" lon="11.7124429"><ele>319.0</ele><time>2026-04-26T13:34:51.176Z</time></trkpt><trkpt lat="43.0048107" lon="11.7126033"><ele>318.75</ele><time>2026-04-26T13:34:52.185Z</time></trkpt><trkpt lat="43.0047573" lon="11.7127679"><ele>318.5</ele><time>2026-04-26T13:34:53.179Z</time></trkpt><trkpt lat="43.0047019" lon="11.712934"><ele>318.25</ele><time>2026-04-26T13:34:54.197Z</time></trkpt><trkpt lat="43.0046484" lon="11.7130962"><ele>318.0</ele><time>2026-04-26T13:34:55.206Z</time></trkpt><trkpt lat="43.0045991" lon="11.713252"><ele>318.0</ele><time>2026-04-26T13:34:56.194Z</time></trkpt><trkpt lat="43.0045491" lon="11.7134033"><ele>318.0</ele><time>2026-04-26T13:34:57.19Z</time></trkpt><trkpt lat="43.0044986" lon="11.7135589"><ele>318.0</ele><time>2026-04-26T13:34:58.207Z</time></trkpt><trkpt lat="43.0044504" lon="11.7137162"><ele>318.0</ele><time>2026-04-26T13:34:59.185Z</time></trkpt><trkpt lat="43.0044043" lon="11.713865"><ele>317.5</ele><time>2026-04-26T13:35:00.184Z</time></trkpt><trkpt lat="43.0043568" lon="11.7140113"><ele>317.0</ele><time>2026-04-26T13:35:01.178Z</time></trkpt><trkpt lat="43.0043077" lon="11.7141574"><ele>316.5</ele><time>2026-04-26T13:35:02.188Z</time></trkpt><trkpt lat="43.0042598" lon="11.7143077"><ele>316.0</ele><time>2026-04-26T13:35:03.185Z</time></trkpt><trkpt lat="43.0042104" lon="11.7144602"><ele>314.75</ele><time>2026-04-26T13:35:04.205Z</time></trkpt><trkpt lat="43.004162" lon="11.7146145"><ele>313.5</ele><time>2026-04-26T13:35:05.193Z</time></trkpt><trkpt lat="43.0041209" lon="11.714768"><ele>312.25</ele><time>2026-04-26T13:35:06.187Z</time></trkpt><trkpt lat="43.0040887" lon="11.7149165"><ele>311.0</ele><time>2026-04-26T13:35:07.197Z</time></trkpt><trkpt lat="43.0040629" lon="11.7150513"><ele>311.0</ele><time>2026-04-26T13:35:08.191Z</time></trkpt><trkpt lat="43.0040428" lon="11.7151736"><ele>311.0</ele><time>2026-04-26T13:35:09.198Z</time></trkpt><trkpt lat="43.0040299" lon="11.7152897"><ele>311.0</ele><time>2026-04-26T13:35:10.201Z</time></trkpt><trkpt lat="43.004034" lon="11.7154048"><ele>311.0</ele><time>2026-04-26T13:35:11.193Z</time></trkpt><trkpt lat="43.0040609" lon="11.715519"><ele>311.0</ele><time>2026-04-26T13:35:12.181Z</time></trkpt><trkpt lat="43.0041141" lon="11.7156412"><ele>310.75</ele><time>2026-04-26T13:35:13.188Z</time></trkpt><trkpt lat="43.0041884" lon="11.7157722"><ele>310.5</ele><time>2026-04-26T13:35:14.193Z</time></trkpt><trkpt lat="43.0042659" lon="11.7159022"><ele>310.25</ele><time>2026-04-26T13:35:15.19Z</time></trkpt><trkpt lat="43.0043303" lon="11.7160438"><ele>310.0</ele><time>2026-04-26T13:35:16.187Z</time></trkpt><trkpt lat="43.0043841" lon="11.7161968"><ele>310.0</ele><time>2026-04-26T13:35:17.194Z</time></trkpt><trkpt lat="43.0044304" lon="11.7163502"><ele>310.0</ele><time>2026-04-26T13:35:18.193Z</time></trkpt><trkpt lat="43.0044765" lon="11.7165018"><ele>310.0</ele><time>2026-04-26T13:35:19.191Z</time></trkpt><trkpt lat="43.0045225" lon="11.7166482"><ele>310.0</ele><time>2026-04-26T13:35:20.194Z</time></trkpt><trkpt lat="43.004565" lon="11.7167824"><ele>310.6</ele><time>2026-04-26T13:35:21.184Z</time></trkpt><trkpt lat="43.0046069" lon="11.7169091"><ele>311.2</ele><time>2026-04-26T13:35:22.193Z</time></trkpt><trkpt lat="43.0046462" lon="11.7170384"><ele>311.8</ele><time>2026-04-26T13:35:23.197Z</time></trkpt><trkpt lat="43.004685" lon="11.7171683"><ele>312.4</ele><time>2026-04-26T13:35:24.18Z</time></trkpt><trkpt lat="43.0047295" lon="11.7173161"><ele>313.0</ele><time>2026-04-26T13:35:25.181Z</time></trkpt><trkpt lat="43.0047686" lon="11.7174632"><ele>313.0</ele><time>2026-04-26T13:35:26.189Z</time></trkpt><trkpt lat="43.0048" lon="11.7176152"><ele>313.0</ele><time>2026-04-26T13:35:27.202Z</time></trkpt><trkpt lat="43.0048229" lon="11.7177746"><ele>313.0</ele><time>2026-04-26T13:35:28.204Z</time></trkpt><trkpt lat="43.0048389" lon="11.7179294"><ele>313.0</ele><time>2026-04-26T13:35:29.195Z</time></trkpt><trkpt lat="43.0048513" lon="11.7180727"><ele>313.8</ele><time>2026-04-26T13:35:30.188Z</time></trkpt><trkpt lat="43.004861" lon="11.7182179"><ele>314.6</ele><time>2026-04-26T13:35:31.193Z</time></trkpt><trkpt lat="43.0048687" lon="11.718367"><ele>315.4</ele><time>2026-04-26T13:35:32.195Z</time></trkpt><trkpt lat="43.0048686" lon="11.7185161"><ele>316.2</ele><time>2026-04-26T13:35:33.184Z</time></trkpt><trkpt lat="43.0048529" lon="11.7186661"><ele>317.0</ele><time>2026-04-26T13:35:34.202Z</time></trkpt><trkpt lat="43.0048251" lon="11.7188267"><ele>319.0</ele><time>2026-04-26T13:35:35.201Z</time></trkpt><trkpt lat="43.0047945" lon="11.7189951"><ele>321.0</ele><time>2026-04-26T13:35:36.198Z</time></trkpt><trkpt lat="43.0047654" lon="11.7191622"><ele>323.0</ele><time>2026-04-26T13:35:37.181Z</time></trkpt><trkpt lat="43.0047365" lon="11.7193271"><ele>325.0</ele><time>2026-04-26T13:35:38.198Z</time></trkpt><trkpt lat="43.0047093" lon="11.7194892"><ele>326.0</ele><time>2026-04-26T13:35:39.184Z</time></trkpt><trkpt lat="43.0046823" lon="11.7196517"><ele>327.0</ele><time>2026-04-26T13:35:40.2Z</time></trkpt><trkpt lat="43.0046544" lon="11.7198132"><ele>328.0</ele><time>2026-04-26T13:35:41.181Z</time></trkpt><trkpt lat="43.004625" lon="11.7199747"><ele>329.0</ele><time>2026-04-26T13:35:42.194Z</time></trkpt><trkpt lat="43.004594" lon="11.7201379"><ele>329.0</ele><time>2026-04-26T13:35:43.192Z</time></trkpt><trkpt lat="43.0045613" lon="11.720301"><ele>329.0</ele><time>2026-04-26T13:35:44.198Z</time></trkpt><trkpt lat="43.0045267" lon="11.7204627"><ele>329.0</ele><time>2026-04-26T13:35:45.193Z</time></trkpt><trkpt lat="43.0044901" lon="11.720622"><ele>329.0</ele><time>2026-04-26T13:35:46.202Z</time></trkpt><trkpt lat="43.0044546" lon="11.72078"><ele>329.0</ele><time>2026-04-26T13:35:47.186Z</time></trkpt><trkpt lat="43.0044192" lon="11.7209428"><ele>329.0</ele><time>2026-04-26T13:35:48.196Z</time></trkpt><trkpt lat="43.004384" lon="11.7211108"><ele>329.0</ele><time>2026-04-26T13:35:49.193Z</time></trkpt><trkpt lat="43.0043504" lon="11.7212786"><ele>329.0</ele><time>2026-04-26T13:35:50.198Z</time></trkpt><trkpt lat="43.0043167" lon="11.7214444"><ele>328.75</ele><time>2026-04-26T13:35:51.194Z</time></trkpt><trkpt lat="43.0042829" lon="11.7216093"><ele>328.5</ele><time>2026-04-26T13:35:52.197Z</time></trkpt><trkpt lat="43.0042487" lon="11.7217717"><ele>328.25</ele><time>2026-04-26T13:35:53.196Z</time></trkpt><trkpt lat="43.0042128" lon="11.7219314"><ele>328.0</ele><time>2026-04-26T13:35:54.195Z</time></trkpt><trkpt lat="43.0041773" lon="11.7220928"><ele>328.2</ele><time>2026-04-26T13:35:55.2Z</time></trkpt><trkpt lat="43.0041439" lon="11.7222529"><ele>328.4</ele><time>2026-04-26T13:35:56.185Z</time></trkpt><trkpt lat="43.0041179" lon="11.7224009"><ele>328.59999999999997</ele><time>2026-04-26T13:35:57.189Z</time></trkpt><trkpt lat="43.0041084" lon="11.7225341"><ele>328.79999999999995</ele><time>2026-04-26T13:35:58.182Z</time></trkpt><trkpt lat="43.0041152" lon="11.7226546"><ele>329.0</ele><time>2026-04-26T13:35:59.198Z</time></trkpt><trkpt lat="43.0041232" lon="11.7227719"><ele>329.1666666666667</ele><time>2026-04-26T13:36:00.209Z</time></trkpt><trkpt lat="43.0041666" lon="11.722876"><ele>329.33333333333337</ele><time>2026-04-26T13:36:01.189Z</time></trkpt><trkpt lat="43.0042185" lon="11.7229684"><ele>329.5</ele><time>2026-04-26T13:36:02.189Z</time></trkpt><trkpt lat="43.0042702" lon="11.7230563"><ele>329.6666666666667</ele><time>2026-04-26T13:36:03.193Z</time></trkpt><trkpt lat="43.0043074" lon="11.7231569"><ele>329.8333333333333</ele><time>2026-04-26T13:36:04.19Z</time></trkpt><trkpt lat="43.0043315" lon="11.723269"><ele>330.0</ele><time>2026-04-26T13:36:05.189Z</time></trkpt><trkpt lat="43.0043497" lon="11.7233884"><ele>330.0</ele><time>2026-04-26T13:36:06.195Z</time></trkpt><trkpt lat="43.0043733" lon="11.7235079"><ele>330.0</ele><time>2026-04-26T13:36:07.185Z</time></trkpt><trkpt lat="43.0044024" lon="11.7236279"><ele>330.0</ele><time>2026-04-26T13:36:08.2Z</time></trkpt><trkpt lat="43.0044176" lon="11.7237541"><ele>330.0</ele><time>2026-04-26T13:36:09.192Z</time></trkpt><trkpt lat="43.0044076" lon="11.7238755"><ele>330.0</ele><time>2026-04-26T13:36:10.206Z</time></trkpt><trkpt lat="43.0043715" lon="11.723969"><ele>330.0</ele><time>2026-04-26T13:36:11.181Z</time></trkpt><trkpt lat="43.0043182" lon="11.7240213"><ele>330.0</ele><time>2026-04-26T13:36:12.192Z</time></trkpt><trkpt lat="43.0042554" lon="11.7240397"><ele>330.0</ele><time>2026-04-26T13:36:13.18Z</time></trkpt><trkpt lat="43.0041889" lon="11.7240558"><ele>330.0</ele><time>2026-04-26T13:36:14.202Z</time></trkpt><trkpt lat="43.0041206" lon="11.7240939"><ele>330.0</ele><time>2026-04-26T13:36:15.187Z</time></trkpt><trkpt lat="43.0040545" lon="11.7241576"><ele>330.0</ele><time>2026-04-26T13:36:16.178Z</time></trkpt><trkpt lat="43.0039894" lon="11.7242371"><ele>330.0</ele><time>2026-04-26T13:36:17.182Z</time></trkpt><trkpt lat="43.0039248" lon="11.724319"><ele>328.0</ele><time>2026-04-26T13:36:18.18Z</time></trkpt><trkpt lat="43.0038636" lon="11.7244023"><ele>326.0</ele><time>2026-04-26T13:36:19.184Z</time></trkpt><trkpt lat="43.0038015" lon="11.7244888"><ele>324.0</ele><time>2026-04-26T13:36:20.182Z</time></trkpt><trkpt lat="43.0037411" lon="11.7245847"><ele>322.0</ele><time>2026-04-26T13:36:21.197Z</time></trkpt><trkpt lat="43.0036868" lon="11.7246979"><ele>320.0</ele><time>2026-04-26T13:36:22.203Z</time></trkpt><trkpt lat="43.0036419" lon="11.724826"><ele>320.0</ele><time>2026-04-26T13:36:23.199Z</time></trkpt><trkpt lat="43.0036133" lon="11.7249598"><ele>320.0</ele><time>2026-04-26T13:36:24.189Z</time></trkpt><trkpt lat="43.0036019" lon="11.7250925"><ele>320.0</ele><time>2026-04-26T13:36:25.196Z</time></trkpt><trkpt lat="43.0036001" lon="11.7252197"><ele>320.0</ele><time>2026-04-26T13:36:26.182Z</time></trkpt><trkpt lat="43.0035962" lon="11.7253451"><ele>320.0</ele><time>2026-04-26T13:36:27.195Z</time></trkpt><trkpt lat="43.0035875" lon="11.7254704"><ele>319.33333333333337</ele><time>2026-04-26T13:36:28.184Z</time></trkpt><trkpt lat="43.0035643" lon="11.7255841"><ele>318.6666666666667</ele><time>2026-04-26T13:36:29.19Z</time></trkpt><trkpt lat="43.0035403" lon="11.7256844"><ele>318.0</ele><time>2026-04-26T13:36:30.181Z</time></trkpt><trkpt lat="43.0034862" lon="11.7257691"><ele>317.3333333333333</ele><time>2026-04-26T13:36:31.189Z</time></trkpt><trkpt lat="43.0034077" lon="11.7258341"><ele>316.66666666666663</ele><time>2026-04-26T13:36:32.186Z</time></trkpt><trkpt lat="43.0033146" lon="11.7258858"><ele>316.0</ele><time>2026-04-26T13:36:33.186Z</time></trkpt><trkpt lat="43.0032148" lon="11.7259249"><ele>315.6</ele><time>2026-04-26T13:36:34.19Z</time></trkpt><trkpt lat="43.0031172" lon="11.7259566"><ele>315.20000000000005</ele><time>2026-04-26T13:36:35.194Z</time></trkpt><trkpt lat="43.0030241" lon="11.7259833"><ele>314.79999999999995</ele><time>2026-04-26T13:36:36.194Z</time></trkpt><trkpt lat="43.0029385" lon="11.7260157"><ele>314.4</ele><time>2026-04-26T13:36:37.197Z</time></trkpt><trkpt lat="43.002859" lon="11.7260638"><ele>314.0</ele><time>2026-04-26T13:36:38.195Z</time></trkpt><trkpt lat="43.0027826" lon="11.7261224"><ele>313.6666666666667</ele><time>2026-04-26T13:36:39.19Z</time></trkpt><trkpt lat="43.002707" lon="11.7261801"><ele>313.33333333333337</ele><time>2026-04-26T13:36:40.204Z</time></trkpt><trkpt lat="43.002632" lon="11.7262302"><ele>313.0</ele><time>2026-04-26T13:36:41.2Z</time></trkpt><trkpt lat="43.0025621" lon="11.7262623"><ele>312.6666666666667</ele><time>2026-04-26T13:36:42.195Z</time></trkpt><trkpt lat="43.0024983" lon="11.7262857"><ele>312.3333333333333</ele><time>2026-04-26T13:36:43.182Z</time></trkpt><trkpt lat="43.0023802" lon="11.7263224"><ele>312.0</ele><time>2026-04-26T13:36:45.195Z</time></trkpt><trkpt lat="43.0022672" lon="11.7263636"><ele>312.0</ele><time>2026-04-26T13:36:47.2Z</time></trkpt><trkpt lat="43.0021668" lon="11.7264393"><ele>312.0</ele><time>2026-04-26T13:36:49.199Z</time></trkpt><trkpt lat="43.0020778" lon="11.7265648"><ele>312.0</ele><time>2026-04-26T13:36:51.191Z</time></trkpt><trkpt lat="43.0020405" lon="11.726645"><ele>312.0</ele><time>2026-04-26T13:36:52.189Z</time></trkpt><trkpt lat="43.0020054" lon="11.7267318"><ele>312.0</ele><time>2026-04-26T13:36:53.206Z</time></trkpt><trkpt lat="43.0019669" lon="11.7268225"><ele>312.0</ele><time>2026-04-26T13:36:54.197Z</time></trkpt><trkpt lat="43.0019288" lon="11.7269173"><ele>312.0</ele><time>2026-04-26T13:36:55.193Z</time></trkpt><trkpt lat="43.0018899" lon="11.7270136"><ele>312.0</ele><time>2026-04-26T13:36:56.183Z</time></trkpt><trkpt lat="43.0018509" lon="11.727102"><ele>312.0</ele><time>2026-04-26T13:36:57.181Z</time></trkpt><trkpt lat="43.001813" lon="11.7271806"><ele>312.0</ele><time>2026-04-26T13:36:58.191Z</time></trkpt><trkpt lat="43.0017681" lon="11.7272496"><ele>312.0</ele><time>2026-04-26T13:36:59.193Z</time></trkpt><trkpt lat="43.0017135" lon="11.7273099"><ele>312.0</ele><time>2026-04-26T13:37:00.192Z</time></trkpt><trkpt lat="43.0016472" lon="11.727365"><ele>312.3333333333333</ele><time>2026-04-26T13:37:01.198Z</time></trkpt><trkpt lat="43.0015702" lon="11.7274205"><ele>312.6666666666667</ele><time>2026-04-26T13:37:02.188Z</time></trkpt><trkpt lat="43.0014853" lon="11.7274723"><ele>313.0</ele><time>2026-04-26T13:37:03.193Z</time></trkpt><trkpt lat="43.0013965" lon="11.7275218"><ele>313.33333333333337</ele><time>2026-04-26T13:37:04.181Z</time></trkpt><trkpt lat="43.0013124" lon="11.7275708"><ele>313.6666666666667</ele><time>2026-04-26T13:37:05.191Z</time></trkpt><trkpt lat="43.0012404" lon="11.7276201"><ele>314.0</ele><time>2026-04-26T13:37:06.194Z</time></trkpt><trkpt lat="43.0011818" lon="11.7276688"><ele>314.1666666666667</ele><time>2026-04-26T13:37:07.202Z</time></trkpt><trkpt lat="43.0011102" lon="11.7277332"><ele>314.33333333333337</ele><time>2026-04-26T13:37:09.192Z</time></trkpt><trkpt lat="43.0010769" lon="11.7278121"><ele>314.5</ele><time>2026-04-26T13:38:29.211Z</time></trkpt><trkpt lat="43.0011145" lon="11.7279088"><ele>314.6666666666667</ele><time>2026-04-26T13:38:31.199Z</time></trkpt><trkpt lat="43.0011796" lon="11.727973"><ele>314.8333333333333</ele><time>2026-04-26T13:38:32.185Z</time></trkpt><trkpt lat="43.0012614" lon="11.7280387"><ele>315.0</ele><time>2026-04-26T13:38:33.194Z</time></trkpt><trkpt lat="43.0013662" lon="11.7281159"><ele>315.0</ele><time>2026-04-26T13:38:34.191Z</time></trkpt><trkpt lat="43.0014887" lon="11.728206"><ele>315.0</ele><time>2026-04-26T13:38:35.197Z</time></trkpt><trkpt lat="43.0016193" lon="11.7283026"><ele>315.0</ele><time>2026-04-26T13:38:36.21Z</time></trkpt><trkpt lat="43.0017573" lon="11.7284076"><ele>315.0</ele><time>2026-04-26T13:38:37.181Z</time></trkpt><trkpt lat="43.0019002" lon="11.7285165"><ele>314.3333333333333</ele><time>2026-04-26T13:38:38.199Z</time></trkpt><trkpt lat="43.0020474" lon="11.7286303"><ele>313.66666666666663</ele><time>2026-04-26T13:38:39.2Z</time></trkpt><trkpt lat="43.0021966" lon="11.7287433"><ele>313.0</ele><time>2026-04-26T13:38:40.181Z</time></trkpt><trkpt lat="43.0023459" lon="11.7288567"><ele>313.0</ele><time>2026-04-26T13:38:41.205Z</time></trkpt><trkpt lat="43.0024918" lon="11.7289666"><ele>313.0</ele><time>2026-04-26T13:38:42.202Z</time></trkpt><trkpt lat="43.0026302" lon="11.7290715"><ele>313.0</ele><time>2026-04-26T13:38:43.195Z</time></trkpt><trkpt lat="43.0027653" lon="11.7291739"><ele>312.66666666666663</ele><time>2026-04-26T13:38:44.184Z</time></trkpt><trkpt lat="43.0028999" lon="11.7292728"><ele>312.3333333333333</ele><time>2026-04-26T13:38:45.202Z</time></trkpt><trkpt lat="43.0030357" lon="11.7293673"><ele>312.0</ele><time>2026-04-26T13:38:46.18Z</time></trkpt><trkpt lat="43.0031755" lon="11.729457"><ele>312.0</ele><time>2026-04-26T13:38:47.2Z</time></trkpt><trkpt lat="43.0033198" lon="11.7295439"><ele>312.0</ele><time>2026-04-26T13:38:48.209Z</time></trkpt><trkpt lat="43.003469" lon="11.7296253"><ele>312.0</ele><time>2026-04-26T13:38:49.204Z</time></trkpt><trkpt lat="43.0036216" lon="11.7297017"><ele>311.3333333333333</ele><time>2026-04-26T13:38:50.184Z</time></trkpt><trkpt lat="43.0037762" lon="11.7297762"><ele>310.66666666666663</ele><time>2026-04-26T13:38:51.194Z</time></trkpt><trkpt lat="43.0039324" lon="11.7298511"><ele>310.0</ele><time>2026-04-26T13:38:52.202Z</time></trkpt><trkpt lat="43.004092" lon="11.7299267"><ele>309.66666666666663</ele><time>2026-04-26T13:38:53.197Z</time></trkpt><trkpt lat="43.0042541" lon="11.7300033"><ele>309.3333333333333</ele><time>2026-04-26T13:38:54.202Z</time></trkpt><trkpt lat="43.0044187" lon="11.7300801"><ele>309.0</ele><time>2026-04-26T13:38:55.19Z</time></trkpt><trkpt lat="43.0045847" lon="11.7301584"><ele>309.0</ele><time>2026-04-26T13:38:56.19Z</time></trkpt><trkpt lat="43.0047526" lon="11.7302378"><ele>309.0</ele><time>2026-04-26T13:38:57.187Z</time></trkpt><trkpt lat="43.0049222" lon="11.7303183"><ele>309.0</ele><time>2026-04-26T13:38:58.203Z</time></trkpt><trkpt lat="43.0050933" lon="11.7304003"><ele>309.3333333333333</ele><time>2026-04-26T13:38:59.2Z</time></trkpt><trkpt lat="43.005265" lon="11.7304868"><ele>309.66666666666663</ele><time>2026-04-26T13:39:00.188Z</time></trkpt><trkpt lat="43.0054334" lon="11.7305835"><ele>310.0</ele><time>2026-04-26T13:39:01.211Z</time></trkpt><trkpt lat="43.0055972" lon="11.7306924"><ele>310.0</ele><time>2026-04-26T13:39:02.184Z</time></trkpt><trkpt lat="43.0057553" lon="11.730813"><ele>310.0</ele><time>2026-04-26T13:39:03.196Z</time></trkpt><trkpt lat="43.0059074" lon="11.7309439"><ele>310.0</ele><time>2026-04-26T13:39:04.193Z</time></trkpt><trkpt lat="43.006054" lon="11.7310838"><ele>310.0</ele><time>2026-04-26T13:39:05.202Z</time></trkpt><trkpt lat="43.0061947" lon="11.7312342"><ele>310.0</ele><time>2026-04-26T13:39:06.182Z</time></trkpt><trkpt lat="43.0063283" lon="11.7313958"><ele>310.0</ele><time>2026-04-26T13:39:07.186Z</time></trkpt><trkpt lat="43.0064544" lon="11.7315686"><ele>310.0</ele><time>2026-04-26T13:39:08.202Z</time></trkpt><trkpt lat="43.0065735" lon="11.7317506"><ele>310.0</ele><time>2026-04-26T13:39:09.201Z</time></trkpt><trkpt lat="43.0066812" lon="11.7319377"><ele>310.0</ele><time>2026-04-26T13:39:10.189Z</time></trkpt><trkpt lat="43.0067752" lon="11.7321217"><ele>309.66666666666663</ele><time>2026-04-26T13:39:11.185Z</time></trkpt><trkpt lat="43.0068581" lon="11.7322996"><ele>309.3333333333333</ele><time>2026-04-26T13:39:12.208Z</time></trkpt><trkpt lat="43.0069337" lon="11.7324789"><ele>309.0</ele><time>2026-04-26T13:39:13.19Z</time></trkpt><trkpt lat="43.0070034" lon="11.7326608"><ele>310.6666666666667</ele><time>2026-04-26T13:39:14.198Z</time></trkpt><trkpt lat="43.0070683" lon="11.7328449"><ele>312.33333333333337</ele><time>2026-04-26T13:39:15.186Z</time></trkpt><trkpt lat="43.0071259" lon="11.7330347"><ele>314.0</ele><time>2026-04-26T13:39:16.197Z</time></trkpt><trkpt lat="43.0071775" lon="11.7332297"><ele>314.0</ele><time>2026-04-26T13:39:17.181Z</time></trkpt><trkpt lat="43.0072246" lon="11.7334285"><ele>314.0</ele><time>2026-04-26T13:39:18.201Z</time></trkpt><trkpt lat="43.0072661" lon="11.7336317"><ele>314.0</ele><time>2026-04-26T13:39:19.191Z</time></trkpt><trkpt lat="43.0073017" lon="11.7338418"><ele>314.0</ele><time>2026-04-26T13:39:20.183Z</time></trkpt><trkpt lat="43.0073296" lon="11.7340574"><ele>314.0</ele><time>2026-04-26T13:39:21.186Z</time></trkpt><trkpt lat="43.0073475" lon="11.7342825"><ele>314.0</ele><time>2026-04-26T13:39:22.203Z</time></trkpt><trkpt lat="43.0073541" lon="11.7345162"><ele>314.0</ele><time>2026-04-26T13:39:23.194Z</time></trkpt><trkpt lat="43.007355" lon="11.7347589"><ele>314.0</ele><time>2026-04-26T13:39:24.196Z</time></trkpt><trkpt lat="43.0073538" lon="11.7350069"><ele>314.0</ele><time>2026-04-26T13:39:25.2Z</time></trkpt><trkpt lat="43.0073521" lon="11.7352607"><ele>313.33333333333337</ele><time>2026-04-26T13:39:26.19Z</time></trkpt><trkpt lat="43.0073505" lon="11.7355178"><ele>312.6666666666667</ele><time>2026-04-26T13:39:27.195Z</time></trkpt><trkpt lat="43.007347" lon="11.7357779"><ele>312.0</ele><time>2026-04-26T13:39:28.197Z</time></trkpt><trkpt lat="43.0073444" lon="11.7360407"><ele>310.0</ele><time>2026-04-26T13:39:29.19Z</time></trkpt><trkpt lat="43.0073477" lon="11.7362979"><ele>308.0</ele><time>2026-04-26T13:39:30.198Z</time></trkpt><trkpt lat="43.0073469" lon="11.7365564"><ele>306.0</ele><time>2026-04-26T13:39:31.202Z</time></trkpt><trkpt lat="43.0073431" lon="11.7368177"><ele>305.0</ele><time>2026-04-26T13:39:32.181Z</time></trkpt><trkpt lat="43.0073415" lon="11.7370881"><ele>304.0</ele><time>2026-04-26T13:39:33.196Z</time></trkpt><trkpt lat="43.0073426" lon="11.7373746"><ele>303.0</ele><time>2026-04-26T13:39:34.194Z</time></trkpt><trkpt lat="43.0073422" lon="11.7376858"><ele>302.5</ele><time>2026-04-26T13:39:35.184Z</time></trkpt><trkpt lat="43.0073393" lon="11.738007"><ele>302.0</ele><time>2026-04-26T13:39:36.199Z</time></trkpt><trkpt lat="43.007334" lon="11.7383211"><ele>301.6666666666667</ele><time>2026-04-26T13:39:37.202Z</time></trkpt><trkpt lat="43.0073243" lon="11.7386205"><ele>301.3333333333333</ele><time>2026-04-26T13:39:38.18Z</time></trkpt><trkpt lat="43.0073157" lon="11.7389052"><ele>301.0</ele><time>2026-04-26T13:39:39.194Z</time></trkpt><trkpt lat="43.0073118" lon="11.7391689"><ele>301.0</ele><time>2026-04-26T13:39:40.192Z</time></trkpt><trkpt lat="43.0073068" lon="11.739414"><ele>301.0</ele><time>2026-04-26T13:39:41.191Z</time></trkpt><trkpt lat="43.0072993" lon="11.7396515"><ele>301.0</ele><time>2026-04-26T13:39:42.192Z</time></trkpt><trkpt lat="43.0072946" lon="11.7398885"><ele>301.0</ele><time>2026-04-26T13:39:43.202Z</time></trkpt><trkpt lat="43.0072924" lon="11.7401227"><ele>301.0</ele><time>2026-04-26T13:39:44.184Z</time></trkpt><trkpt lat="43.0072925" lon="11.740346"><ele>301.0</ele><time>2026-04-26T13:39:45.194Z</time></trkpt><trkpt lat="43.0072906" lon="11.7405556"><ele>301.5</ele><time>2026-04-26T13:39:46.201Z</time></trkpt><trkpt lat="43.007288" lon="11.7407538"><ele>302.0</ele><time>2026-04-26T13:39:47.187Z</time></trkpt><trkpt lat="43.0072856" lon="11.7409428"><ele>302.5</ele><time>2026-04-26T13:39:48.186Z</time></trkpt><trkpt lat="43.0072816" lon="11.7411241"><ele>303.0</ele><time>2026-04-26T13:39:49.189Z</time></trkpt><trkpt lat="43.0072779" lon="11.7412975"><ele>303.0</ele><time>2026-04-26T13:39:50.183Z</time></trkpt><trkpt lat="43.0072748" lon="11.7414656"><ele>303.0</ele><time>2026-04-26T13:39:51.196Z</time></trkpt><trkpt lat="43.0072724" lon="11.7416284"><ele>303.0</ele><time>2026-04-26T13:39:52.192Z</time></trkpt><trkpt lat="43.0072683" lon="11.7417772"><ele>303.0</ele><time>2026-04-26T13:39:53.194Z</time></trkpt><trkpt lat="43.0072625" lon="11.7418994"><ele>303.0</ele><time>2026-04-26T13:39:54.198Z</time></trkpt><trkpt lat="43.0072546" lon="11.7420004"><ele>302.8333333333333</ele><time>2026-04-26T13:39:55.199Z</time></trkpt><trkpt lat="43.0072448" lon="11.7420877"><ele>302.6666666666667</ele><time>2026-04-26T13:39:56.194Z</time></trkpt><trkpt lat="43.0072173" lon="11.7422495"><ele>302.5</ele><time>2026-04-26T13:39:58.183Z</time></trkpt><trkpt lat="43.0071991" lon="11.7423343"><ele>302.33333333333337</ele><time>2026-04-26T13:39:59.182Z</time></trkpt><trkpt lat="43.0071779" lon="11.7424262"><ele>302.1666666666667</ele><time>2026-04-26T13:40:00.196Z</time></trkpt><trkpt lat="43.0071511" lon="11.7425284"><ele>302.0</ele><time>2026-04-26T13:40:01.193Z</time></trkpt><trkpt lat="43.0071188" lon="11.7426448"><ele>302.6</ele><time>2026-04-26T13:40:02.186Z</time></trkpt><trkpt lat="43.0070825" lon="11.7427721"><ele>303.2</ele><time>2026-04-26T13:40:03.183Z</time></trkpt><trkpt lat="43.0070466" lon="11.742894"><ele>303.8</ele><time>2026-04-26T13:40:04.196Z</time></trkpt><trkpt lat="43.0070124" lon="11.7430072"><ele>304.4</ele><time>2026-04-26T13:40:05.201Z</time></trkpt><trkpt lat="43.0069791" lon="11.7431176"><ele>305.0</ele><time>2026-04-26T13:40:06.195Z</time></trkpt><trkpt lat="43.0069482" lon="11.7432205"><ele>305.0</ele><time>2026-04-26T13:40:07.184Z</time></trkpt><trkpt lat="43.0069193" lon="11.7433189"><ele>305.0</ele><time>2026-04-26T13:40:08.181Z</time></trkpt><trkpt lat="43.0068905" lon="11.7434185"><ele>305.0</ele><time>2026-04-26T13:40:09.195Z</time></trkpt><trkpt lat="43.0068612" lon="11.7435219"><ele>305.0</ele><time>2026-04-26T13:40:10.182Z</time></trkpt><trkpt lat="43.0068315" lon="11.7436224"><ele>305.0</ele><time>2026-04-26T13:40:11.203Z</time></trkpt><trkpt lat="43.0067999" lon="11.7437137"><ele>305.0</ele><time>2026-04-26T13:40:12.198Z</time></trkpt><trkpt lat="43.0067391" lon="11.7438419"><ele>304.83333333333337</ele><time>2026-04-26T13:40:14.182Z</time></trkpt><trkpt lat="43.0066592" lon="11.7439504"><ele>304.6666666666667</ele><time>2026-04-26T13:40:16.187Z</time></trkpt><trkpt lat="43.0066016" lon="11.7440061"><ele>304.5</ele><time>2026-04-26T13:40:17.187Z</time></trkpt><trkpt lat="43.0065319" lon="11.7440586"><ele>304.3333333333333</ele><time>2026-04-26T13:40:18.193Z</time></trkpt><trkpt lat="43.0064553" lon="11.7441099"><ele>304.16666666666663</ele><time>2026-04-26T13:40:19.184Z</time></trkpt><trkpt lat="43.0063746" lon="11.7441596"><ele>304.0</ele><time>2026-04-26T13:40:20.19Z</time></trkpt><trkpt lat="43.0062957" lon="11.7442089"><ele>304.0</ele><time>2026-04-26T13:40:21.186Z</time></trkpt><trkpt lat="43.0062222" lon="11.7442549"><ele>304.0</ele><time>2026-04-26T13:40:22.18Z</time></trkpt><trkpt lat="43.0061531" lon="11.7442966"><ele>304.0</ele><time>2026-04-26T13:40:23.183Z</time></trkpt><trkpt lat="43.0060873" lon="11.7443374"><ele>304.0</ele><time>2026-04-26T13:40:24.199Z</time></trkpt><trkpt lat="43.0060215" lon="11.7443785"><ele>304.0</ele><time>2026-04-26T13:40:25.195Z</time></trkpt><trkpt lat="43.0059582" lon="11.7444183"><ele>304.0</ele><time>2026-04-26T13:40:26.192Z</time></trkpt><trkpt lat="43.0058993" lon="11.7444554"><ele>304.0</ele><time>2026-04-26T13:40:27.178Z</time></trkpt><trkpt lat="43.0058409" lon="11.7444914"><ele>304.0</ele><time>2026-04-26T13:40:28.182Z</time></trkpt><trkpt lat="43.0057828" lon="11.7445286"><ele>304.0</ele><time>2026-04-26T13:40:29.195Z</time></trkpt><trkpt lat="43.0057221" lon="11.744558"><ele>304.0</ele><time>2026-04-26T13:40:30.18Z</time></trkpt><trkpt lat="43.0056604" lon="11.7445913"><ele>304.0</ele><time>2026-04-26T13:40:31.189Z</time></trkpt><trkpt lat="43.0055946" lon="11.744631"><ele>304.0</ele><time>2026-04-26T13:40:32.191Z</time></trkpt><trkpt lat="43.0055288" lon="11.7446731"><ele>304.0</ele><time>2026-04-26T13:40:33.181Z</time></trkpt><trkpt lat="43.0054658" lon="11.7447136"><ele>304.0</ele><time>2026-04-26T13:40:34.209Z</time></trkpt><trkpt lat="43.0053757" lon="11.7447706"><ele>304.0</ele><time>2026-04-26T13:40:36.184Z</time></trkpt><trkpt lat="43.0053182" lon="11.7448074"><ele>304.0</ele><time>2026-04-26T13:40:38.196Z</time></trkpt><trkpt lat="43.0052526" lon="11.7448634"><ele>304.0</ele><time>2026-04-26T13:41:11.193Z</time></trkpt><trkpt lat="43.0051461" lon="11.744934"><ele>304.0</ele><time>2026-04-26T13:41:13.204Z</time></trkpt><trkpt lat="43.0050694" lon="11.7449821"><ele>304.0</ele><time>2026-04-26T13:41:14.191Z</time></trkpt><trkpt lat="43.0049745" lon="11.745043"><ele>304.0</ele><time>2026-04-26T13:41:15.195Z</time></trkpt><trkpt lat="43.0048607" lon="11.7451184"><ele>304.0</ele><time>2026-04-26T13:41:16.185Z</time></trkpt><trkpt lat="43.0047316" lon="11.7452031"><ele>304.0</ele><time>2026-04-26T13:41:17.194Z</time></trkpt><trkpt lat="43.0045926" lon="11.745293"><ele>304.0</ele><time>2026-04-26T13:41:18.181Z</time></trkpt><trkpt lat="43.0044382" lon="11.7453925"><ele>305.3333333333333</ele><time>2026-04-26T13:41:19.199Z</time></trkpt><trkpt lat="43.004265" lon="11.7455035"><ele>306.6666666666667</ele><time>2026-04-26T13:41:20.206Z</time></trkpt><trkpt lat="43.004072" lon="11.7456291"><ele>308.0</ele><time>2026-04-26T13:41:21.192Z</time></trkpt><trkpt lat="43.003871" lon="11.7457604"><ele>308.33333333333337</ele><time>2026-04-26T13:41:22.196Z</time></trkpt><trkpt lat="43.0036688" lon="11.7458889"><ele>308.6666666666667</ele><time>2026-04-26T13:41:23.199Z</time></trkpt><trkpt lat="43.0034652" lon="11.7460099"><ele>309.0</ele><time>2026-04-26T13:41:24.2Z</time></trkpt><trkpt lat="43.0032706" lon="11.7461313"><ele>309.0</ele><time>2026-04-26T13:41:25.199Z</time></trkpt><trkpt lat="43.0030786" lon="11.7462541"><ele>309.0</ele><time>2026-04-26T13:41:26.2Z</time></trkpt><trkpt lat="43.0028822" lon="11.746377"><ele>309.0</ele><time>2026-04-26T13:41:27.187Z</time></trkpt><trkpt lat="43.0026818" lon="11.7465079"><ele>308.6666666666667</ele><time>2026-04-26T13:41:28.183Z</time></trkpt><trkpt lat="43.0024802" lon="11.7466349"><ele>308.33333333333337</ele><time>2026-04-26T13:41:29.189Z</time></trkpt><trkpt lat="43.0022868" lon="11.7467541"><ele>308.0</ele><time>2026-04-26T13:41:30.189Z</time></trkpt><trkpt lat="43.0021001" lon="11.7468663"><ele>309.6666666666667</ele><time>2026-04-26T13:41:31.2Z</time></trkpt><trkpt lat="43.0019196" lon="11.7469783"><ele>311.3333333333333</ele><time>2026-04-26T13:41:32.199Z</time></trkpt><trkpt lat="43.0017546" lon="11.7470887"><ele>313.0</ele><time>2026-04-26T13:41:33.192Z</time></trkpt><trkpt lat="43.0015987" lon="11.7471868"><ele>313.0</ele><time>2026-04-26T13:41:34.188Z</time></trkpt><trkpt lat="43.0014485" lon="11.7472808"><ele>313.0</ele><time>2026-04-26T13:41:35.19Z</time></trkpt><trkpt lat="43.0013097" lon="11.7473718"><ele>313.0</ele><time>2026-04-26T13:41:36.203Z</time></trkpt><trkpt lat="43.0011779" lon="11.7474593"><ele>313.0</ele><time>2026-04-26T13:41:37.196Z</time></trkpt><trkpt lat="43.001052" lon="11.7475457"><ele>313.0</ele><time>2026-04-26T13:41:38.197Z</time></trkpt><trkpt lat="43.000934" lon="11.7476287"><ele>313.0</ele><time>2026-04-26T13:41:39.191Z</time></trkpt><trkpt lat="43.0008289" lon="11.7477048"><ele>313.0</ele><time>2026-04-26T13:41:40.201Z</time></trkpt><trkpt lat="43.0007254" lon="11.7477839"><ele>313.5</ele><time>2026-04-26T13:41:41.197Z</time></trkpt><trkpt lat="43.0006132" lon="11.7478721"><ele>314.0</ele><time>2026-04-26T13:41:42.183Z</time></trkpt><trkpt lat="43.0004915" lon="11.7479718"><ele>314.5</ele><time>2026-04-26T13:41:43.194Z</time></trkpt><trkpt lat="43.0003621" lon="11.7480802"><ele>315.0</ele><time>2026-04-26T13:41:44.19Z</time></trkpt><trkpt lat="43.0002233" lon="11.7481966"><ele>315.0</ele><time>2026-04-26T13:41:45.182Z</time></trkpt><trkpt lat="43.0000775" lon="11.7483152"><ele>315.0</ele><time>2026-04-26T13:41:46.194Z</time></trkpt><trkpt lat="42.9999305" lon="11.7484322"><ele>315.0</ele><time>2026-04-26T13:41:47.181Z</time></trkpt><trkpt lat="42.9997816" lon="11.7485446"><ele>315.0</ele><time>2026-04-26T13:41:48.183Z</time></trkpt><trkpt lat="42.9996306" lon="11.7486534"><ele>315.0</ele><time>2026-04-26T13:41:49.191Z</time></trkpt><trkpt lat="42.9994737" lon="11.7487696"><ele>315.0</ele><time>2026-04-26T13:41:50.181Z</time></trkpt><trkpt lat="42.9993107" lon="11.7488954"><ele>315.0</ele><time>2026-04-26T13:41:51.2Z</time></trkpt><trkpt lat="42.9991406" lon="11.7490282"><ele>315.0</ele><time>2026-04-26T13:41:52.197Z</time></trkpt><trkpt lat="42.9989646" lon="11.7491653"><ele>315.0</ele><time>2026-04-26T13:41:53.191Z</time></trkpt><trkpt lat="42.9987867" lon="11.7493041"><ele>315.0</ele><time>2026-04-26T13:41:54.201Z</time></trkpt><trkpt lat="42.9986111" lon="11.7494428"><ele>315.0</ele><time>2026-04-26T13:41:55.2Z</time></trkpt><trkpt lat="42.9984349" lon="11.7495716"><ele>315.0</ele><time>2026-04-26T13:41:56.199Z</time></trkpt><trkpt lat="42.9982696" lon="11.7497006"><ele>315.6666666666667</ele><time>2026-04-26T13:41:57.188Z</time></trkpt><trkpt lat="42.9981068" lon="11.7498434"><ele>316.33333333333337</ele><time>2026-04-26T13:41:58.199Z</time></trkpt><trkpt lat="42.9979546" lon="11.7499843"><ele>317.0</ele><time>2026-04-26T13:41:59.203Z</time></trkpt><trkpt lat="42.9978077" lon="11.7501241"><ele>316.6666666666667</ele><time>2026-04-26T13:42:00.182Z</time></trkpt><trkpt lat="42.9976655" lon="11.7502613"><ele>316.3333333333333</ele><time>2026-04-26T13:42:01.202Z</time></trkpt><trkpt lat="42.997523" lon="11.7503933"><ele>316.0</ele><time>2026-04-26T13:42:02.179Z</time></trkpt><trkpt lat="42.997381" lon="11.7505264"><ele>317.0</ele><time>2026-04-26T13:42:03.212Z</time></trkpt><trkpt lat="42.9972381" lon="11.7506564"><ele>318.0</ele><time>2026-04-26T13:42:04.183Z</time></trkpt><trkpt lat="42.9970965" lon="11.7507922"><ele>319.0</ele><time>2026-04-26T13:42:05.198Z</time></trkpt><trkpt lat="42.9969554" lon="11.7509256"><ele>319.66666666666663</ele><time>2026-04-26T13:42:06.181Z</time></trkpt><trkpt lat="42.9968105" lon="11.7510555"><ele>320.3333333333333</ele><time>2026-04-26T13:42:07.183Z</time></trkpt><trkpt lat="42.9966633" lon="11.7511856"><ele>321.0</ele><time>2026-04-26T13:42:08.19Z</time></trkpt><trkpt lat="42.9965196" lon="11.7513107"><ele>321.0</ele><time>2026-04-26T13:42:09.209Z</time></trkpt><trkpt lat="42.9963818" lon="11.7514381"><ele>321.0</ele><time>2026-04-26T13:42:10.194Z</time></trkpt><trkpt lat="42.9962472" lon="11.7515635"><ele>321.0</ele><time>2026-04-26T13:42:11.196Z</time></trkpt><trkpt lat="42.9961136" lon="11.7516856"><ele>321.0</ele><time>2026-04-26T13:42:12.182Z</time></trkpt><trkpt lat="42.9959847" lon="11.7518048"><ele>321.0</ele><time>2026-04-26T13:42:13.195Z</time></trkpt><trkpt lat="42.9958589" lon="11.7519216"><ele>321.0</ele><time>2026-04-26T13:42:14.192Z</time></trkpt><trkpt lat="42.9957358" lon="11.7520361"><ele>321.0</ele><time>2026-04-26T13:42:15.193Z</time></trkpt><trkpt lat="42.9956157" lon="11.7521438"><ele>321.0</ele><time>2026-04-26T13:42:16.19Z</time></trkpt><trkpt lat="42.9954986" lon="11.7522505"><ele>321.0</ele><time>2026-04-26T13:42:17.194Z</time></trkpt><trkpt lat="42.9953871" lon="11.7523501"><ele>321.0</ele><time>2026-04-26T13:42:18.195Z</time></trkpt><trkpt lat="42.9952784" lon="11.7524464"><ele>321.0</ele><time>2026-04-26T13:42:19.19Z</time></trkpt><trkpt lat="42.9951654" lon="11.7525426"><ele>321.0</ele><time>2026-04-26T13:42:20.199Z</time></trkpt><trkpt lat="42.9950482" lon="11.7526312"><ele>321.0</ele><time>2026-04-26T13:42:21.188Z</time></trkpt><trkpt lat="42.9949277" lon="11.7527178"><ele>321.0</ele><time>2026-04-26T13:42:22.202Z</time></trkpt><trkpt lat="42.9948105" lon="11.7528002"><ele>320.2</ele><time>2026-04-26T13:42:23.189Z</time></trkpt><trkpt lat="42.9947003" lon="11.7528779"><ele>319.40000000000003</ele><time>2026-04-26T13:42:24.197Z</time></trkpt><trkpt lat="42.9945976" lon="11.7529495"><ele>318.6</ele><time>2026-04-26T13:42:25.196Z</time></trkpt><trkpt lat="42.9945052" lon="11.7530142"><ele>317.8</ele><time>2026-04-26T13:42:26.196Z</time></trkpt><trkpt lat="42.9944245" lon="11.7530689"><ele>317.0</ele><time>2026-04-26T13:42:27.196Z</time></trkpt><trkpt lat="42.9943544" lon="11.7531156"><ele>317.0</ele><time>2026-04-26T13:42:28.198Z</time></trkpt><trkpt lat="42.9942963" lon="11.753156"><ele>317.0</ele><time>2026-04-26T13:42:29.196Z</time></trkpt><trkpt lat="42.9942131" lon="11.7532094"><ele>317.0</ele><time>2026-04-26T13:42:31.192Z</time></trkpt><trkpt lat="42.9941494" lon="11.7532503"><ele>317.0</ele><time>2026-04-26T13:42:34.199Z</time></trkpt><trkpt lat="42.9940606" lon="11.7533171"><ele>317.0</ele><time>2026-04-26T13:42:40.196Z</time></trkpt><trkpt lat="42.9939537" lon="11.7533963"><ele>317.2</ele><time>2026-04-26T13:42:42.19Z</time></trkpt><trkpt lat="42.993884" lon="11.7534506"><ele>317.4</ele><time>2026-04-26T13:42:43.204Z</time></trkpt><trkpt lat="42.9937999" lon="11.7535199"><ele>317.6</ele><time>2026-04-26T13:42:44.199Z</time></trkpt><trkpt lat="42.9937056" lon="11.7536092"><ele>317.8</ele><time>2026-04-26T13:42:45.191Z</time></trkpt><trkpt lat="42.9936101" lon="11.7537088"><ele>318.0</ele><time>2026-04-26T13:42:46.196Z</time></trkpt><trkpt lat="42.99351" lon="11.7538312"><ele>318.75</ele><time>2026-04-26T13:42:47.186Z</time></trkpt><trkpt lat="42.9934096" lon="11.7539531"><ele>319.5</ele><time>2026-04-26T13:42:48.182Z</time></trkpt><trkpt lat="42.9933091" lon="11.7540855"><ele>320.25</ele><time>2026-04-26T13:42:49.197Z</time></trkpt><trkpt lat="42.993211" lon="11.7542242"><ele>321.0</ele><time>2026-04-26T13:42:50.2Z</time></trkpt><trkpt lat="42.9931147" lon="11.7543638"><ele>322.5</ele><time>2026-04-26T13:42:51.198Z</time></trkpt><trkpt lat="42.9930201" lon="11.7545053"><ele>324.0</ele><time>2026-04-26T13:42:52.198Z</time></trkpt><trkpt lat="42.9929279" lon="11.7546389"><ele>325.5</ele><time>2026-04-26T13:42:53.2Z</time></trkpt><trkpt lat="42.9928474" lon="11.7547573"><ele>327.0</ele><time>2026-04-26T13:42:54.18Z</time></trkpt><trkpt lat="42.992773" lon="11.7548711"><ele>327.0</ele><time>2026-04-26T13:42:55.2Z</time></trkpt><trkpt lat="42.9927031" lon="11.7549839"><ele>327.0</ele><time>2026-04-26T13:42:56.199Z</time></trkpt><trkpt lat="42.9926379" lon="11.7550951"><ele>327.0</ele><time>2026-04-26T13:42:57.184Z</time></trkpt><trkpt lat="42.9925827" lon="11.7552146"><ele>327.0</ele><time>2026-04-26T13:42:58.191Z</time></trkpt><trkpt lat="42.9925328" lon="11.7553409"><ele>327.0</ele><time>2026-04-26T13:42:59.19Z</time></trkpt><trkpt lat="42.9924912" lon="11.7554692"><ele>327.0</ele><time>2026-04-26T13:43:00.196Z</time></trkpt><trkpt lat="42.9924563" lon="11.7556006"><ele>327.0</ele><time>2026-04-26T13:43:01.181Z</time></trkpt><trkpt lat="42.9924315" lon="11.755737"><ele>327.0</ele><time>2026-04-26T13:43:02.197Z</time></trkpt><trkpt lat="42.9924134" lon="11.7558816"><ele>327.0</ele><time>2026-04-26T13:43:03.21Z</time></trkpt><trkpt lat="42.9924046" lon="11.7560328"><ele>327.0</ele><time>2026-04-26T13:43:04.198Z</time></trkpt><trkpt lat="42.9924033" lon="11.7561937"><ele>327.0</ele><time>2026-04-26T13:43:05.196Z</time></trkpt><trkpt lat="42.9924119" lon="11.7563619"><ele>327.0</ele><time>2026-04-26T13:43:06.182Z</time></trkpt><trkpt lat="42.9924257" lon="11.7565355"><ele>327.0</ele><time>2026-04-26T13:43:07.193Z</time></trkpt><trkpt lat="42.9924417" lon="11.7567156"><ele>327.0</ele><time>2026-04-26T13:43:08.193Z</time></trkpt><trkpt lat="42.9924617" lon="11.7568924"><ele>328.25</ele><time>2026-04-26T13:43:09.197Z</time></trkpt><trkpt lat="42.992484" lon="11.7570628"><ele>329.5</ele><time>2026-04-26T13:43:10.184Z</time></trkpt><trkpt lat="42.992509" lon="11.7572286"><ele>330.75</ele><time>2026-04-26T13:43:11.202Z</time></trkpt><trkpt lat="42.9925452" lon="11.7573881"><ele>332.0</ele><time>2026-04-26T13:43:12.19Z</time></trkpt><trkpt lat="42.9925983" lon="11.7575382"><ele>332.5</ele><time>2026-04-26T13:43:13.194Z</time></trkpt><trkpt lat="42.992663" lon="11.7576787"><ele>333.0</ele><time>2026-04-26T13:43:14.196Z</time></trkpt><trkpt lat="42.992732" lon="11.7578133"><ele>333.5</ele><time>2026-04-26T13:43:15.201Z</time></trkpt><trkpt lat="42.9927982" lon="11.7579523"><ele>334.0</ele><time>2026-04-26T13:43:16.205Z</time></trkpt><trkpt lat="42.9928547" lon="11.7581096"><ele>334.0</ele><time>2026-04-26T13:43:17.18Z</time></trkpt><trkpt lat="42.9928956" lon="11.7582859"><ele>334.0</ele><time>2026-04-26T13:43:18.188Z</time></trkpt><trkpt lat="42.9929269" lon="11.7584642"><ele>334.0</ele><time>2026-04-26T13:43:19.199Z</time></trkpt><trkpt lat="42.9929327" lon="11.7586785"><ele>334.0</ele><time>2026-04-26T13:43:20.182Z</time></trkpt><trkpt lat="42.9929181" lon="11.7589038"><ele>334.66666666666663</ele><time>2026-04-26T13:43:21.199Z</time></trkpt><trkpt lat="42.9929028" lon="11.7591395"><ele>335.3333333333333</ele><time>2026-04-26T13:43:22.194Z</time></trkpt><trkpt lat="42.9928802" lon="11.7593747"><ele>336.0</ele><time>2026-04-26T13:43:23.178Z</time></trkpt><trkpt lat="42.9928475" lon="11.7596106"><ele>338.0</ele><time>2026-04-26T13:43:24.203Z</time></trkpt><trkpt lat="42.9928047" lon="11.7598402"><ele>340.0</ele><time>2026-04-26T13:43:25.184Z</time></trkpt><trkpt lat="42.9927598" lon="11.7600686"><ele>342.0</ele><time>2026-04-26T13:43:26.201Z</time></trkpt><trkpt lat="42.9927112" lon="11.7602894"><ele>344.3333333333333</ele><time>2026-04-26T13:43:27.2Z</time></trkpt><trkpt lat="42.9926641" lon="11.7605085"><ele>346.66666666666663</ele><time>2026-04-26T13:43:28.187Z</time></trkpt><trkpt lat="42.9926117" lon="11.7607265"><ele>349.0</ele><time>2026-04-26T13:43:29.185Z</time></trkpt><trkpt lat="42.9925491" lon="11.7609402"><ele>349.0</ele><time>2026-04-26T13:43:30.196Z</time></trkpt><trkpt lat="42.9924844" lon="11.7611469"><ele>349.0</ele><time>2026-04-26T13:43:31.191Z</time></trkpt><trkpt lat="42.9924175" lon="11.7613395"><ele>349.0</ele><time>2026-04-26T13:43:32.194Z</time></trkpt><trkpt lat="42.9923541" lon="11.7615111"><ele>349.0</ele><time>2026-04-26T13:43:33.196Z</time></trkpt><trkpt lat="42.9922929" lon="11.7616676"><ele>349.0</ele><time>2026-04-26T13:43:34.181Z</time></trkpt><trkpt lat="42.9922291" lon="11.7618136"><ele>349.0</ele><time>2026-04-26T13:43:35.185Z</time></trkpt><trkpt lat="42.9921626" lon="11.761943"><ele>349.0</ele><time>2026-04-26T13:43:36.199Z</time></trkpt><trkpt lat="42.9920951" lon="11.7620537"><ele>349.0</ele><time>2026-04-26T13:43:37.19Z</time></trkpt><trkpt lat="42.9920282" lon="11.7621471"><ele>349.0</ele><time>2026-04-26T13:43:38.199Z</time></trkpt><trkpt lat="42.9919586" lon="11.7622166"><ele>349.0</ele><time>2026-04-26T13:43:39.199Z</time></trkpt><trkpt lat="42.9918926" lon="11.7622724"><ele>349.0</ele><time>2026-04-26T13:43:40.194Z</time></trkpt><trkpt lat="42.9918388" lon="11.7623341"><ele>349.0</ele><time>2026-04-26T13:43:41.192Z</time></trkpt><trkpt lat="42.9917911" lon="11.7624965"><ele>349.0</ele><time>2026-04-26T13:43:43.179Z</time></trkpt><trkpt lat="42.9917995" lon="11.7625989"><ele>349.0</ele><time>2026-04-26T13:43:44.206Z</time></trkpt><trkpt lat="42.9918261" lon="11.7627069"><ele>349.0</ele><time>2026-04-26T13:43:45.203Z</time></trkpt><trkpt lat="42.9918594" lon="11.7628135"><ele>349.0</ele><time>2026-04-26T13:43:46.182Z</time></trkpt><trkpt lat="42.9918907" lon="11.7629206"><ele>349.0</ele><time>2026-04-26T13:43:47.196Z</time></trkpt><trkpt lat="42.9919218" lon="11.7630324"><ele>349.0</ele><time>2026-04-26T13:43:48.19Z</time></trkpt><trkpt lat="42.9919536" lon="11.7631475"><ele>349.4</ele><time>2026-04-26T13:43:49.196Z</time></trkpt><trkpt lat="42.9919858" lon="11.7632616"><ele>349.79999999999995</ele><time>2026-04-26T13:43:50.184Z</time></trkpt><trkpt lat="42.9920173" lon="11.763376"><ele>350.20000000000005</ele><time>2026-04-26T13:43:51.209Z</time></trkpt><trkpt lat="42.9920499" lon="11.7634919"><ele>350.6</ele><time>2026-04-26T13:43:52.182Z</time></trkpt><trkpt lat="42.9920858" lon="11.7636095"><ele>351.0</ele><time>2026-04-26T13:43:53.185Z</time></trkpt><trkpt lat="42.9921239" lon="11.7637287"><ele>351.4</ele><time>2026-04-26T13:43:54.196Z</time></trkpt><trkpt lat="42.9921638" lon="11.7638483"><ele>351.8</ele><time>2026-04-26T13:43:55.196Z</time></trkpt><trkpt lat="42.9922028" lon="11.7639664"><ele>352.2</ele><time>2026-04-26T13:43:56.185Z</time></trkpt><trkpt lat="42.9922369" lon="11.764085"><ele>352.59999999999997</ele><time>2026-04-26T13:43:57.201Z</time></trkpt><trkpt lat="42.9922675" lon="11.7642056"><ele>353.0</ele><time>2026-04-26T13:43:58.199Z</time></trkpt><trkpt lat="42.9922976" lon="11.7643292"><ele>354.2</ele><time>2026-04-26T13:43:59.178Z</time></trkpt><trkpt lat="42.992331" lon="11.7644554"><ele>355.4</ele><time>2026-04-26T13:44:00.195Z</time></trkpt><trkpt lat="42.9923674" lon="11.7645814"><ele>356.59999999999997</ele><time>2026-04-26T13:44:01.186Z</time></trkpt><trkpt lat="42.9924059" lon="11.7647071"><ele>357.79999999999995</ele><time>2026-04-26T13:44:02.205Z</time></trkpt><trkpt lat="42.9924451" lon="11.7648283"><ele>359.0</ele><time>2026-04-26T13:44:03.201Z</time></trkpt><trkpt lat="42.9924788" lon="11.7649378"><ele>359.0</ele><time>2026-04-26T13:44:04.182Z</time></trkpt><trkpt lat="42.9925015" lon="11.7650363"><ele>359.0</ele><time>2026-04-26T13:44:05.196Z</time></trkpt><trkpt lat="42.9925093" lon="11.7651272"><ele>359.0</ele><time>2026-04-26T13:44:06.182Z</time></trkpt><trkpt lat="42.9924624" lon="11.7652765"><ele>359.0</ele><time>2026-04-26T13:44:08.198Z</time></trkpt><trkpt lat="42.992403" lon="11.7653329"><ele>359.0</ele><time>2026-04-26T13:44:09.182Z</time></trkpt><trkpt lat="42.9923239" lon="11.7653857"><ele>359.0</ele><time>2026-04-26T13:44:10.194Z</time></trkpt><trkpt lat="42.992226" lon="11.7654451"><ele>360.0</ele><time>2026-04-26T13:44:11.178Z</time></trkpt><trkpt lat="42.9921249" lon="11.7654862"><ele>361.0</ele><time>2026-04-26T13:44:12.19Z</time></trkpt><trkpt lat="42.9920188" lon="11.7655104"><ele>362.0</ele><time>2026-04-26T13:44:13.201Z</time></trkpt><trkpt lat="42.9919198" lon="11.7655066"><ele>363.0</ele><time>2026-04-26T13:44:14.199Z</time></trkpt><trkpt lat="42.9918245" lon="11.765497"><ele>364.0</ele><time>2026-04-26T13:44:15.196Z</time></trkpt><trkpt lat="42.9917345" lon="11.7654874"><ele>363.0</ele><time>2026-04-26T13:44:16.19Z</time></trkpt><trkpt lat="42.9916427" lon="11.765474"><ele>362.0</ele><time>2026-04-26T13:44:17.197Z</time></trkpt><trkpt lat="42.9915471" lon="11.7654645"><ele>361.0</ele><time>2026-04-26T13:44:18.19Z</time></trkpt><trkpt lat="42.9914632" lon="11.7654661"><ele>360.0</ele><time>2026-04-26T13:44:19.202Z</time></trkpt><trkpt lat="42.9913846" lon="11.7654792"><ele>359.0</ele><time>2026-04-26T13:44:20.176Z</time></trkpt><trkpt lat="42.9913071" lon="11.7654994"><ele>358.0</ele><time>2026-04-26T13:44:21.202Z</time></trkpt><trkpt lat="42.9912266" lon="11.7655501"><ele>358.0</ele><time>2026-04-26T13:44:22.177Z</time></trkpt><trkpt lat="42.9911424" lon="11.765609"><ele>358.0</ele><time>2026-04-26T13:44:23.184Z</time></trkpt><trkpt lat="42.9910599" lon="11.765676"><ele>358.0</ele><time>2026-04-26T13:44:24.198Z</time></trkpt><trkpt lat="42.9909737" lon="11.7657427"><ele>358.0</ele><time>2026-04-26T13:44:25.186Z</time></trkpt><trkpt lat="42.9908903" lon="11.7658147"><ele>358.0</ele><time>2026-04-26T13:44:26.205Z</time></trkpt><trkpt lat="42.9908121" lon="11.7658975"><ele>356.79999999999995</ele><time>2026-04-26T13:44:27.199Z</time></trkpt><trkpt lat="42.9907414" lon="11.7659897"><ele>355.6</ele><time>2026-04-26T13:44:28.195Z</time></trkpt><trkpt lat="42.9906782" lon="11.7660921"><ele>354.4</ele><time>2026-04-26T13:44:29.186Z</time></trkpt><trkpt lat="42.990619" lon="11.7662008"><ele>353.20000000000005</ele><time>2026-04-26T13:44:30.189Z</time></trkpt><trkpt lat="42.9905687" lon="11.7663188"><ele>352.0</ele><time>2026-04-26T13:44:31.179Z</time></trkpt><trkpt lat="42.9905194" lon="11.7664413"><ele>352.0</ele><time>2026-04-26T13:44:32.181Z</time></trkpt><trkpt lat="42.9904682" lon="11.7665648"><ele>352.0</ele><time>2026-04-26T13:44:33.203Z</time></trkpt><trkpt lat="42.9904156" lon="11.7666886"><ele>352.0</ele><time>2026-04-26T13:44:34.194Z</time></trkpt><trkpt lat="42.9903606" lon="11.7668091"><ele>352.0</ele><time>2026-04-26T13:44:35.187Z</time></trkpt><trkpt lat="42.9903016" lon="11.7669209"><ele>352.0</ele><time>2026-04-26T13:44:36.194Z</time></trkpt><trkpt lat="42.9902337" lon="11.7670199"><ele>352.0</ele><time>2026-04-26T13:44:37.184Z</time></trkpt><trkpt lat="42.9901517" lon="11.7671031"><ele>352.0</ele><time>2026-04-26T13:44:38.201Z</time></trkpt><trkpt lat="42.9900555" lon="11.7671703"><ele>352.0</ele><time>2026-04-26T13:44:39.209Z</time></trkpt><trkpt lat="42.9899485" lon="11.7672284"><ele>352.0</ele><time>2026-04-26T13:44:40.196Z</time></trkpt><trkpt lat="42.9898338" lon="11.7672882"><ele>352.0</ele><time>2026-04-26T13:44:41.196Z</time></trkpt><trkpt lat="42.9897151" lon="11.767352"><ele>349.75</ele><time>2026-04-26T13:44:42.187Z</time></trkpt><trkpt lat="42.9895933" lon="11.7674163"><ele>347.5</ele><time>2026-04-26T13:44:43.179Z</time></trkpt><trkpt lat="42.9894722" lon="11.767477"><ele>345.25</ele><time>2026-04-26T13:44:44.182Z</time></trkpt><trkpt lat="42.9893551" lon="11.7675356"><ele>343.0</ele><time>2026-04-26T13:44:45.201Z</time></trkpt><trkpt lat="42.9892478" lon="11.7675979"><ele>343.4</ele><time>2026-04-26T13:44:46.187Z</time></trkpt><trkpt lat="42.9891556" lon="11.7676745"><ele>343.79999999999995</ele><time>2026-04-26T13:44:47.204Z</time></trkpt><trkpt lat="42.9890735" lon="11.7677681"><ele>344.2</ele><time>2026-04-26T13:44:48.186Z</time></trkpt><trkpt lat="42.9890016" lon="11.7678808"><ele>344.6</ele><time>2026-04-26T13:44:49.195Z</time></trkpt><trkpt lat="42.9889331" lon="11.7680008"><ele>345.0</ele><time>2026-04-26T13:44:50.185Z</time></trkpt><trkpt lat="42.988876" lon="11.7681447"><ele>346.4</ele><time>2026-04-26T13:44:51.204Z</time></trkpt><trkpt lat="42.988818" lon="11.7682948"><ele>347.8</ele><time>2026-04-26T13:44:52.186Z</time></trkpt><trkpt lat="42.9887654" lon="11.7684302"><ele>349.20000000000005</ele><time>2026-04-26T13:44:53.193Z</time></trkpt><trkpt lat="42.988724" lon="11.7685568"><ele>350.6</ele><time>2026-04-26T13:44:54.194Z</time></trkpt><trkpt lat="42.9887016" lon="11.7686851"><ele>352.0</ele><time>2026-04-26T13:44:55.182Z</time></trkpt><trkpt lat="42.9887013" lon="11.768809"><ele>352.5</ele><time>2026-04-26T13:44:56.201Z</time></trkpt><trkpt lat="42.9887242" lon="11.7689326"><ele>353.0</ele><time>2026-04-26T13:44:57.211Z</time></trkpt><trkpt lat="42.9887679" lon="11.7690663"><ele>353.5</ele><time>2026-04-26T13:44:58.19Z</time></trkpt><trkpt lat="42.9888262" lon="11.7692226"><ele>354.0</ele><time>2026-04-26T13:44:59.202Z</time></trkpt><trkpt lat="42.9888854" lon="11.7693877"><ele>354.75</ele><time>2026-04-26T13:45:00.19Z</time></trkpt><trkpt lat="42.9889403" lon="11.7695576"><ele>355.5</ele><time>2026-04-26T13:45:01.188Z</time></trkpt><trkpt lat="42.9889848" lon="11.7697334"><ele>356.25</ele><time>2026-04-26T13:45:02.208Z</time></trkpt><trkpt lat="42.9890139" lon="11.7699055"><ele>357.0</ele><time>2026-04-26T13:45:03.196Z</time></trkpt><trkpt lat="42.9890398" lon="11.7700669"><ele>356.75</ele><time>2026-04-26T13:45:04.204Z</time></trkpt><trkpt lat="42.9890661" lon="11.7702247"><ele>356.5</ele><time>2026-04-26T13:45:05.199Z</time></trkpt><trkpt lat="42.9891161" lon="11.770366"><ele>356.25</ele><time>2026-04-26T13:45:06.185Z</time></trkpt><trkpt lat="42.9891714" lon="11.7704996"><ele>356.0</ele><time>2026-04-26T13:45:07.187Z</time></trkpt><trkpt lat="42.9892298" lon="11.770627"><ele>356.6</ele><time>2026-04-26T13:45:08.194Z</time></trkpt><trkpt lat="42.9892795" lon="11.7707554"><ele>357.20000000000005</ele><time>2026-04-26T13:45:09.201Z</time></trkpt><trkpt lat="42.9893108" lon="11.7708908"><ele>357.79999999999995</ele><time>2026-04-26T13:45:10.198Z</time></trkpt><trkpt lat="42.989325" lon="11.7710337"><ele>358.4</ele><time>2026-04-26T13:45:11.188Z</time></trkpt><trkpt lat="42.9893302" lon="11.7711821"><ele>359.0</ele><time>2026-04-26T13:45:12.184Z</time></trkpt><trkpt lat="42.9893345" lon="11.771332"><ele>359.0</ele><time>2026-04-26T13:45:13.197Z</time></trkpt><trkpt lat="42.9893366" lon="11.7714824"><ele>359.0</ele><time>2026-04-26T13:45:14.193Z</time></trkpt><trkpt lat="42.9893375" lon="11.7716249"><ele>359.0</ele><time>2026-04-26T13:45:15.203Z</time></trkpt><trkpt lat="42.9893177" lon="11.7717643"><ele>359.0</ele><time>2026-04-26T13:45:16.193Z</time></trkpt><trkpt lat="42.9892807" lon="11.7718951"><ele>359.0</ele><time>2026-04-26T13:45:17.185Z</time></trkpt><trkpt lat="42.9892226" lon="11.7720108"><ele>360.75</ele><time>2026-04-26T13:45:18.186Z</time></trkpt><trkpt lat="42.9891443" lon="11.7721069"><ele>362.5</ele><time>2026-04-26T13:45:19.191Z</time></trkpt><trkpt lat="42.9890485" lon="11.7721753"><ele>364.25</ele><time>2026-04-26T13:45:20.198Z</time></trkpt><trkpt lat="42.9889368" lon="11.7722214"><ele>366.0</ele><time>2026-04-26T13:45:21.194Z</time></trkpt><trkpt lat="42.9888133" lon="11.7722518"><ele>366.0</ele><time>2026-04-26T13:45:22.181Z</time></trkpt><trkpt lat="42.9886869" lon="11.7722756"><ele>366.0</ele><time>2026-04-26T13:45:23.18Z</time></trkpt><trkpt lat="42.9885605" lon="11.7722976"><ele>366.0</ele><time>2026-04-26T13:45:24.188Z</time></trkpt><trkpt lat="42.9884362" lon="11.7723135"><ele>366.0</ele><time>2026-04-26T13:45:25.181Z</time></trkpt><trkpt lat="42.9883197" lon="11.7723118"><ele>365.20000000000005</ele><time>2026-04-26T13:45:26.192Z</time></trkpt><trkpt lat="42.9882179" lon="11.7722949"><ele>364.40000000000003</ele><time>2026-04-26T13:45:27.196Z</time></trkpt><trkpt lat="42.9881391" lon="11.7722807"><ele>363.6</ele><time>2026-04-26T13:45:28.191Z</time></trkpt><trkpt lat="42.9880225" lon="11.7722886"><ele>362.8</ele><time>2026-04-26T13:45:30.197Z</time></trkpt><trkpt lat="42.987978" lon="11.7724168"><ele>362.0</ele><time>2026-04-26T13:45:32.191Z</time></trkpt><trkpt lat="42.9879669" lon="11.7725034"><ele>362.0</ele><time>2026-04-26T13:45:33.199Z</time></trkpt><trkpt lat="42.9879772" lon="11.7726091"><ele>362.0</ele><time>2026-04-26T13:45:34.207Z</time></trkpt><trkpt lat="42.9879773" lon="11.7727254"><ele>362.0</ele><time>2026-04-26T13:45:35.204Z</time></trkpt><trkpt lat="42.9879769" lon="11.7728512"><ele>362.0</ele><time>2026-04-26T13:45:36.2Z</time></trkpt><trkpt lat="42.9879775" lon="11.7729775"><ele>362.0</ele><time>2026-04-26T13:45:37.184Z</time></trkpt><trkpt lat="42.9879916" lon="11.7731021"><ele>362.0</ele><time>2026-04-26T13:45:38.199Z</time></trkpt><trkpt lat="42.9880166" lon="11.7732249"><ele>363.40000000000003</ele><time>2026-04-26T13:45:39.197Z</time></trkpt><trkpt lat="42.9880517" lon="11.7733537"><ele>364.8</ele><time>2026-04-26T13:45:40.201Z</time></trkpt><trkpt lat="42.9880922" lon="11.7734863"><ele>366.2</ele><time>2026-04-26T13:45:41.192Z</time></trkpt><trkpt lat="42.9881374" lon="11.7736236"><ele>367.6</ele><time>2026-04-26T13:45:42.203Z</time></trkpt><trkpt lat="42.9881892" lon="11.7737619"><ele>369.0</ele><time>2026-04-26T13:45:43.191Z</time></trkpt><trkpt lat="42.9882436" lon="11.7738975"><ele>370.1666666666667</ele><time>2026-04-26T13:45:44.199Z</time></trkpt><trkpt lat="42.9882973" lon="11.7740176"><ele>371.3333333333333</ele><time>2026-04-26T13:45:45.194Z</time></trkpt><trkpt lat="42.9883496" lon="11.7741157"><ele>372.5</ele><time>2026-04-26T13:45:46.185Z</time></trkpt><trkpt lat="42.9884074" lon="11.7741945"><ele>373.66666666666663</ele><time>2026-04-26T13:45:47.183Z</time></trkpt><trkpt lat="42.9884748" lon="11.7742536"><ele>374.8333333333333</ele><time>2026-04-26T13:45:48.201Z</time></trkpt><trkpt lat="42.9885499" lon="11.7742894"><ele>376.0</ele><time>2026-04-26T13:45:49.185Z</time></trkpt><trkpt lat="42.9886339" lon="11.7743126"><ele>378.0</ele><time>2026-04-26T13:45:50.183Z</time></trkpt><trkpt lat="42.9887261" lon="11.774332"><ele>380.0</ele><time>2026-04-26T13:45:51.185Z</time></trkpt><trkpt lat="42.9888184" lon="11.7743509"><ele>382.0</ele><time>2026-04-26T13:45:52.198Z</time></trkpt><trkpt lat="42.9889074" lon="11.774373"><ele>384.0</ele><time>2026-04-26T13:45:53.197Z</time></trkpt><trkpt lat="42.9889863" lon="11.7743997"><ele>386.00000000000006</ele><time>2026-04-26T13:45:54.199Z</time></trkpt><trkpt lat="42.9890577" lon="11.7744394"><ele>388.0</ele><time>2026-04-26T13:45:55.198Z</time></trkpt><trkpt lat="42.9891191" lon="11.7745025"><ele>388.4</ele><time>2026-04-26T13:45:56.201Z</time></trkpt><trkpt lat="42.9891693" lon="11.7745945"><ele>388.79999999999995</ele><time>2026-04-26T13:45:57.198Z</time></trkpt><trkpt lat="42.9892094" lon="11.7747129"><ele>389.2</ele><time>2026-04-26T13:45:58.209Z</time></trkpt><trkpt lat="42.9892532" lon="11.7748386"><ele>389.6</ele><time>2026-04-26T13:45:59.191Z</time></trkpt><trkpt lat="42.9893055" lon="11.7749637"><ele>390.0</ele><time>2026-04-26T13:46:00.192Z</time></trkpt><trkpt lat="42.9893648" lon="11.7750811"><ele>391.8</ele><time>2026-04-26T13:46:01.188Z</time></trkpt><trkpt lat="42.989428" lon="11.7751838"><ele>393.6</ele><time>2026-04-26T13:46:02.206Z</time></trkpt><trkpt lat="42.9894873" lon="11.775281"><ele>395.4</ele><time>2026-04-26T13:46:03.193Z</time></trkpt><trkpt lat="42.989539" lon="11.775379"><ele>397.2</ele><time>2026-04-26T13:46:04.207Z</time></trkpt><trkpt lat="42.9895881" lon="11.7754786"><ele>399.0</ele><time>2026-04-26T13:46:05.202Z</time></trkpt><trkpt lat="42.9896417" lon="11.7755764"><ele>399.0</ele><time>2026-04-26T13:46:06.183Z</time></trkpt><trkpt lat="42.9897046" lon="11.7756722"><ele>399.0</ele><time>2026-04-26T13:46:07.191Z</time></trkpt><trkpt lat="42.9897798" lon="11.775765"><ele>399.0</ele><time>2026-04-26T13:46:08.2Z</time></trkpt><trkpt lat="42.9898682" lon="11.7758483"><ele>399.0</ele><time>2026-04-26T13:46:09.185Z</time></trkpt><trkpt lat="42.9899655" lon="11.7759181"><ele>399.0</ele><time>2026-04-26T13:46:10.2Z</time></trkpt><trkpt lat="42.9900656" lon="11.775965"><ele>398.6666666666667</ele><time>2026-04-26T13:46:11.198Z</time></trkpt><trkpt lat="42.9901559" lon="11.7759956"><ele>398.33333333333337</ele><time>2026-04-26T13:46:12.194Z</time></trkpt><trkpt lat="42.9902309" lon="11.7760299"><ele>398.0</ele><time>2026-04-26T13:46:13.204Z</time></trkpt><trkpt lat="42.9902938" lon="11.7760863"><ele>397.6666666666667</ele><time>2026-04-26T13:46:14.202Z</time></trkpt><trkpt lat="42.9903445" lon="11.7761677"><ele>397.33333333333337</ele><time>2026-04-26T13:46:15.202Z</time></trkpt><trkpt lat="42.9903866" lon="11.7762733"><ele>397.0</ele><time>2026-04-26T13:46:16.192Z</time></trkpt><trkpt lat="42.9904261" lon="11.7764055"><ele>397.0</ele><time>2026-04-26T13:46:17.211Z</time></trkpt><trkpt lat="42.9904693" lon="11.7765689"><ele>397.0</ele><time>2026-04-26T13:46:18.196Z</time></trkpt><trkpt lat="42.9905149" lon="11.7767362"><ele>397.0</ele><time>2026-04-26T13:46:19.19Z</time></trkpt><trkpt lat="42.9905599" lon="11.7768888"><ele>397.0</ele><time>2026-04-26T13:46:20.196Z</time></trkpt><trkpt lat="42.9906037" lon="11.7770336"><ele>398.5</ele><time>2026-04-26T13:46:21.19Z</time></trkpt><trkpt lat="42.9906485" lon="11.7771788"><ele>400.0</ele><time>2026-04-26T13:46:22.185Z</time></trkpt><trkpt lat="42.9906953" lon="11.7773342"><ele>401.5</ele><time>2026-04-26T13:46:23.198Z</time></trkpt><trkpt lat="42.9907402" lon="11.7774958"><ele>403.0</ele><time>2026-04-26T13:46:24.205Z</time></trkpt><trkpt lat="42.9907801" lon="11.7776555"><ele>402.0</ele><time>2026-04-26T13:46:25.199Z</time></trkpt><trkpt lat="42.9908168" lon="11.7778092"><ele>401.0</ele><time>2026-04-26T13:46:26.194Z</time></trkpt><trkpt lat="42.9908509" lon="11.777959"><ele>400.0</ele><time>2026-04-26T13:46:27.195Z</time></trkpt><trkpt lat="42.9908804" lon="11.7781071"><ele>399.0</ele><time>2026-04-26T13:46:28.19Z</time></trkpt><trkpt lat="42.9909041" lon="11.7782517"><ele>399.0</ele><time>2026-04-26T13:46:29.204Z</time></trkpt><trkpt lat="42.9909253" lon="11.7783864"><ele>399.0</ele><time>2026-04-26T13:46:30.197Z</time></trkpt><trkpt lat="42.9909413" lon="11.778526"><ele>399.0</ele><time>2026-04-26T13:46:31.189Z</time></trkpt><trkpt lat="42.990949" lon="11.7786678"><ele>399.0</ele><time>2026-04-26T13:46:32.199Z</time></trkpt><trkpt lat="42.9909486" lon="11.7788104"><ele>399.0</ele><time>2026-04-26T13:46:33.181Z</time></trkpt><trkpt lat="42.9909439" lon="11.7789511"><ele>401.4</ele><time>2026-04-26T13:46:34.203Z</time></trkpt><trkpt lat="42.9909397" lon="11.779091"><ele>403.79999999999995</ele><time>2026-04-26T13:46:35.186Z</time></trkpt><trkpt lat="42.9909368" lon="11.7792337"><ele>406.20000000000005</ele><time>2026-04-26T13:46:36.193Z</time></trkpt><trkpt lat="42.990936" lon="11.779377"><ele>408.6</ele><time>2026-04-26T13:46:37.203Z</time></trkpt><trkpt lat="42.9909357" lon="11.7795193"><ele>411.0</ele><time>2026-04-26T13:46:38.182Z</time></trkpt><trkpt lat="42.9909348" lon="11.7796599"><ele>412.8</ele><time>2026-04-26T13:46:39.193Z</time></trkpt><trkpt lat="42.9909334" lon="11.7797959"><ele>414.6</ele><time>2026-04-26T13:46:40.192Z</time></trkpt><trkpt lat="42.9909358" lon="11.7799345"><ele>416.4</ele><time>2026-04-26T13:46:41.193Z</time></trkpt><trkpt lat="42.9909404" lon="11.7800725"><ele>418.2</ele><time>2026-04-26T13:46:42.195Z</time></trkpt><trkpt lat="42.9909507" lon="11.7802172"><ele>420.0</ele><time>2026-04-26T13:46:43.178Z</time></trkpt><trkpt lat="42.9909575" lon="11.7803662"><ele>422.4</ele><time>2026-04-26T13:46:44.182Z</time></trkpt><trkpt lat="42.990981" lon="11.7805155"><ele>424.8</ele><time>2026-04-26T13:46:45.2Z</time></trkpt><trkpt lat="42.9910051" lon="11.7806546"><ele>427.20000000000005</ele><time>2026-04-26T13:46:46.205Z</time></trkpt><trkpt lat="42.9910248" lon="11.7807729"><ele>429.6</ele><time>2026-04-26T13:46:47.205Z</time></trkpt><trkpt lat="42.9910421" lon="11.7808747"><ele>432.0</ele><time>2026-04-26T13:46:48.182Z</time></trkpt><trkpt lat="42.9910592" lon="11.7809657"><ele>433.5</ele><time>2026-04-26T13:46:49.191Z</time></trkpt><trkpt lat="42.9910894" lon="11.781048"><ele>435.0</ele><time>2026-04-26T13:46:50.2Z</time></trkpt><trkpt lat="42.991139" lon="11.78111"><ele>436.5</ele><time>2026-04-26T13:46:51.183Z</time></trkpt><trkpt lat="42.9912079" lon="11.7811461"><ele>438.0</ele><time>2026-04-26T13:46:52.19Z</time></trkpt><trkpt lat="42.9912957" lon="11.7811668"><ele>439.5</ele><time>2026-04-26T13:46:53.188Z</time></trkpt><trkpt lat="42.9913841" lon="11.7811946"><ele>441.0</ele><time>2026-04-26T13:46:54.187Z</time></trkpt><trkpt lat="42.9914548" lon="11.7812463"><ele>441.0</ele><time>2026-04-26T13:46:55.195Z</time></trkpt><trkpt lat="42.9915216" lon="11.781302"><ele>441.0</ele><time>2026-04-26T13:46:56.186Z</time></trkpt><trkpt lat="42.9915497" lon="11.7814134"><ele>441.0</ele><time>2026-04-26T13:46:57.193Z</time></trkpt><trkpt lat="42.9915737" lon="11.7815537"><ele>441.0</ele><time>2026-04-26T13:46:58.193Z</time></trkpt><trkpt lat="42.9916032" lon="11.7817012"><ele>441.0</ele><time>2026-04-26T13:46:59.189Z</time></trkpt><trkpt lat="42.9916438" lon="11.7818351"><ele>443.0</ele><time>2026-04-26T13:47:00.204Z</time></trkpt><trkpt lat="42.9916987" lon="11.7819537"><ele>445.0</ele><time>2026-04-26T13:47:01.183Z</time></trkpt><trkpt lat="42.9917691" lon="11.7820712"><ele>447.0</ele><time>2026-04-26T13:47:02.194Z</time></trkpt><trkpt lat="42.9918499" lon="11.7821919"><ele>449.0</ele><time>2026-04-26T13:47:03.195Z</time></trkpt><trkpt lat="42.991928" lon="11.7823046"><ele>451.0</ele><time>2026-04-26T13:47:04.199Z</time></trkpt><trkpt lat="42.9919996" lon="11.782408"><ele>451.00000000000006</ele><time>2026-04-26T13:47:05.19Z</time></trkpt><trkpt lat="42.9920634" lon="11.7824981"><ele>451.0</ele><time>2026-04-26T13:47:06.198Z</time></trkpt><trkpt lat="42.9921195" lon="11.7825864"><ele>451.0</ele><time>2026-04-26T13:47:07.182Z</time></trkpt><trkpt lat="42.9921626" lon="11.7826815"><ele>451.0</ele><time>2026-04-26T13:47:08.187Z</time></trkpt><trkpt lat="42.9921948" lon="11.7827855"><ele>451.00000000000006</ele><time>2026-04-26T13:47:09.185Z</time></trkpt><trkpt lat="42.992227" lon="11.7828924"><ele>451.0</ele><time>2026-04-26T13:47:10.197Z</time></trkpt><trkpt lat="42.9922665" lon="11.7829955"><ele>451.50000000000006</ele><time>2026-04-26T13:47:11.197Z</time></trkpt><trkpt lat="42.9923141" lon="11.7830955"><ele>452.0</ele><time>2026-04-26T13:47:12.201Z</time></trkpt><trkpt lat="42.992367" lon="11.7831919"><ele>452.5</ele><time>2026-04-26T13:47:13.182Z</time></trkpt><trkpt lat="42.9924202" lon="11.7832823"><ele>453.0</ele><time>2026-04-26T13:47:14.182Z</time></trkpt><trkpt lat="42.9924724" lon="11.7833693"><ele>453.50000000000006</ele><time>2026-04-26T13:47:15.194Z</time></trkpt><trkpt lat="42.9925232" lon="11.7834563"><ele>454.0</ele><time>2026-04-26T13:47:16.2Z</time></trkpt><trkpt lat="42.9925759" lon="11.7835463"><ele>455.2</ele><time>2026-04-26T13:47:17.198Z</time></trkpt><trkpt lat="42.9926312" lon="11.7836415"><ele>456.4</ele><time>2026-04-26T13:47:18.2Z</time></trkpt><trkpt lat="42.9926886" lon="11.783744"><ele>457.6</ele><time>2026-04-26T13:47:19.194Z</time></trkpt><trkpt lat="42.9927502" lon="11.7838464"><ele>458.8</ele><time>2026-04-26T13:47:20.194Z</time></trkpt><trkpt lat="42.9928146" lon="11.7839483"><ele>460.0</ele><time>2026-04-26T13:47:21.181Z</time></trkpt><trkpt lat="42.9928804" lon="11.78405"><ele>460.0</ele><time>2026-04-26T13:47:22.2Z</time></trkpt><trkpt lat="42.9929433" lon="11.7841535"><ele>460.0</ele><time>2026-04-26T13:47:23.182Z</time></trkpt><trkpt lat="42.993007" lon="11.7842544"><ele>460.0</ele><time>2026-04-26T13:47:24.193Z</time></trkpt><trkpt lat="42.9930719" lon="11.784354"><ele>460.0</ele><time>2026-04-26T13:47:25.182Z</time></trkpt><trkpt lat="42.9931385" lon="11.7844525"><ele>460.0</ele><time>2026-04-26T13:47:26.183Z</time></trkpt><trkpt lat="42.9932073" lon="11.7845483"><ele>461.2</ele><time>2026-04-26T13:47:27.192Z</time></trkpt><trkpt lat="42.9932798" lon="11.7846425"><ele>462.4</ele><time>2026-04-26T13:47:28.201Z</time></trkpt><trkpt lat="42.9933545" lon="11.7847374"><ele>463.6</ele><time>2026-04-26T13:47:29.198Z</time></trkpt><trkpt lat="42.9934295" lon="11.7848305"><ele>464.8</ele><time>2026-04-26T13:47:30.186Z</time></trkpt><trkpt lat="42.9935047" lon="11.7849219"><ele>466.0</ele><time>2026-04-26T13:47:31.181Z</time></trkpt><trkpt lat="42.993577" lon="11.7850151"><ele>466.83333333333337</ele><time>2026-04-26T13:47:32.199Z</time></trkpt><trkpt lat="42.9936431" lon="11.785115"><ele>467.6666666666667</ele><time>2026-04-26T13:47:33.198Z</time></trkpt><trkpt lat="42.9937046" lon="11.785209"><ele>468.5</ele><time>2026-04-26T13:47:34.193Z</time></trkpt><trkpt lat="42.993745" lon="11.7853108"><ele>469.33333333333337</ele><time>2026-04-26T13:47:35.203Z</time></trkpt><trkpt lat="42.9937794" lon="11.7854071"><ele>470.1666666666667</ele><time>2026-04-26T13:47:36.197Z</time></trkpt><trkpt lat="42.9938132" lon="11.7854961"><ele>471.0</ele><time>2026-04-26T13:47:37.199Z</time></trkpt><trkpt lat="42.9938509" lon="11.7855805"><ele>471.5</ele><time>2026-04-26T13:47:38.187Z</time></trkpt><trkpt lat="42.9938925" lon="11.7856636"><ele>472.0</ele><time>2026-04-26T13:47:39.194Z</time></trkpt><trkpt lat="42.9939373" lon="11.7857453"><ele>472.5</ele><time>2026-04-26T13:47:40.199Z</time></trkpt><trkpt lat="42.9939834" lon="11.7858285"><ele>473.0</ele><time>2026-04-26T13:47:41.194Z</time></trkpt><trkpt lat="42.9940319" lon="11.785917"><ele>473.5</ele><time>2026-04-26T13:47:42.195Z</time></trkpt><trkpt lat="42.9940843" lon="11.7860128"><ele>474.0</ele><time>2026-04-26T13:47:43.197Z</time></trkpt><trkpt lat="42.9941437" lon="11.7861122"><ele>475.6</ele><time>2026-04-26T13:47:44.193Z</time></trkpt><trkpt lat="42.9942098" lon="11.7862133"><ele>477.2</ele><time>2026-04-26T13:47:45.2Z</time></trkpt><trkpt lat="42.9942789" lon="11.7863128"><ele>478.80000000000007</ele><time>2026-04-26T13:47:46.202Z</time></trkpt><trkpt lat="42.9943497" lon="11.7864095"><ele>480.40000000000003</ele><time>2026-04-26T13:47:47.193Z</time></trkpt><trkpt lat="42.9944204" lon="11.7865013"><ele>482.0</ele><time>2026-04-26T13:47:48.183Z</time></trkpt><trkpt lat="42.9944909" lon="11.7865927"><ele>482.0</ele><time>2026-04-26T13:47:49.2Z</time></trkpt><trkpt lat="42.9945648" lon="11.7866726"><ele>482.00000000000006</ele><time>2026-04-26T13:47:50.181Z</time></trkpt><trkpt lat="42.9946449" lon="11.7867461"><ele>482.00000000000006</ele><time>2026-04-26T13:47:51.183Z</time></trkpt><trkpt lat="42.9947286" lon="11.786813"><ele>482.0</ele><time>2026-04-26T13:47:52.193Z</time></trkpt><trkpt lat="42.9948129" lon="11.7868687"><ele>482.0</ele><time>2026-04-26T13:47:53.195Z</time></trkpt><trkpt lat="42.9948958" lon="11.786909"><ele>481.16666666666663</ele><time>2026-04-26T13:47:54.191Z</time></trkpt><trkpt lat="42.9949802" lon="11.7869364"><ele>480.3333333333333</ele><time>2026-04-26T13:47:55.184Z</time></trkpt><trkpt lat="42.9950648" lon="11.7869554"><ele>479.5</ele><time>2026-04-26T13:47:56.192Z</time></trkpt><trkpt lat="42.9951485" lon="11.7869729"><ele>478.66666666666663</ele><time>2026-04-26T13:47:57.193Z</time></trkpt><trkpt lat="42.9952285" lon="11.7869948"><ele>477.8333333333333</ele><time>2026-04-26T13:47:58.181Z</time></trkpt><trkpt lat="42.9953044" lon="11.7870269"><ele>477.0</ele><time>2026-04-26T13:47:59.205Z</time></trkpt><trkpt lat="42.9953759" lon="11.7870774"><ele>477.0</ele><time>2026-04-26T13:48:00.185Z</time></trkpt><trkpt lat="42.9954423" lon="11.7871487"><ele>477.00000000000006</ele><time>2026-04-26T13:48:01.184Z</time></trkpt><trkpt lat="42.9955035" lon="11.7872349"><ele>477.00000000000006</ele><time>2026-04-26T13:48:02.182Z</time></trkpt><trkpt lat="42.9955619" lon="11.7873305"><ele>477.0</ele><time>2026-04-26T13:48:03.205Z</time></trkpt><trkpt lat="42.9956212" lon="11.7874312"><ele>477.0</ele><time>2026-04-26T13:48:04.199Z</time></trkpt><trkpt lat="42.9956792" lon="11.7875354"><ele>477.0</ele><time>2026-04-26T13:48:05.19Z</time></trkpt><trkpt lat="42.9957436" lon="11.7876354"><ele>477.00000000000006</ele><time>2026-04-26T13:48:06.181Z</time></trkpt><trkpt lat="42.9958147" lon="11.7877302"><ele>477.00000000000006</ele><time>2026-04-26T13:48:07.2Z</time></trkpt><trkpt lat="42.9958872" lon="11.7878225"><ele>477.0</ele><time>2026-04-26T13:48:08.194Z</time></trkpt><trkpt lat="42.9959617" lon="11.7879091"><ele>477.0</ele><time>2026-04-26T13:48:09.201Z</time></trkpt><trkpt lat="42.9960384" lon="11.7879858"><ele>475.5</ele><time>2026-04-26T13:48:10.186Z</time></trkpt><trkpt lat="42.9961124" lon="11.7880487"><ele>474.0</ele><time>2026-04-26T13:48:11.193Z</time></trkpt><trkpt lat="42.9961856" lon="11.7881051"><ele>472.5</ele><time>2026-04-26T13:48:12.185Z</time></trkpt><trkpt lat="42.9962558" lon="11.7881579"><ele>471.0</ele><time>2026-04-26T13:48:13.182Z</time></trkpt><trkpt lat="42.9963276" lon="11.7882079"><ele>469.5</ele><time>2026-04-26T13:48:14.184Z</time></trkpt><trkpt lat="42.996403" lon="11.7882598"><ele>468.0</ele><time>2026-04-26T13:48:15.185Z</time></trkpt><trkpt lat="42.9964829" lon="11.7883238"><ele>468.0</ele><time>2026-04-26T13:48:16.196Z</time></trkpt><trkpt lat="42.9965618" lon="11.788406"><ele>467.99999999999994</ele><time>2026-04-26T13:48:17.195Z</time></trkpt><trkpt lat="42.9966385" lon="11.7885086"><ele>467.99999999999994</ele><time>2026-04-26T13:48:18.191Z</time></trkpt><trkpt lat="42.9967103" lon="11.788624"><ele>468.0</ele><time>2026-04-26T13:48:19.197Z</time></trkpt><trkpt lat="42.996784" lon="11.788749"><ele>468.0</ele><time>2026-04-26T13:48:20.198Z</time></trkpt><trkpt lat="42.9968617" lon="11.7888776"><ele>468.25</ele><time>2026-04-26T13:48:21.187Z</time></trkpt><trkpt lat="42.9969413" lon="11.789007"><ele>468.5</ele><time>2026-04-26T13:48:22.19Z</time></trkpt><trkpt lat="42.9970219" lon="11.7891358"><ele>468.75</ele><time>2026-04-26T13:48:23.183Z</time></trkpt><trkpt lat="42.9971031" lon="11.7892612"><ele>469.0</ele><time>2026-04-26T13:48:24.182Z</time></trkpt><trkpt lat="42.9971852" lon="11.7893802"><ele>469.4</ele><time>2026-04-26T13:48:25.18Z</time></trkpt><trkpt lat="42.9972658" lon="11.7894946"><ele>469.79999999999995</ele><time>2026-04-26T13:48:26.195Z</time></trkpt><trkpt lat="42.9973435" lon="11.789603"><ele>470.20000000000005</ele><time>2026-04-26T13:48:27.182Z</time></trkpt><trkpt lat="42.9974152" lon="11.7897098"><ele>470.6</ele><time>2026-04-26T13:48:28.195Z</time></trkpt><trkpt lat="42.9974781" lon="11.7898183"><ele>471.0</ele><time>2026-04-26T13:48:29.188Z</time></trkpt><trkpt lat="42.9975346" lon="11.7899243"><ele>471.0</ele><time>2026-04-26T13:48:30.181Z</time></trkpt><trkpt lat="42.9975849" lon="11.7900301"><ele>471.0</ele><time>2026-04-26T13:48:31.199Z</time></trkpt><trkpt lat="42.9976312" lon="11.7901332"><ele>471.0</ele><time>2026-04-26T13:48:32.197Z</time></trkpt><trkpt lat="42.9976762" lon="11.7902275"><ele>471.0</ele><time>2026-04-26T13:48:33.192Z</time></trkpt><trkpt lat="42.9977292" lon="11.7903131"><ele>471.0</ele><time>2026-04-26T13:48:34.187Z</time></trkpt><trkpt lat="42.9977953" lon="11.7903925"><ele>471.0</ele><time>2026-04-26T13:48:35.203Z</time></trkpt><trkpt lat="42.9978654" lon="11.7904751"><ele>472.4</ele><time>2026-04-26T13:48:36.18Z</time></trkpt><trkpt lat="42.9979503" lon="11.7905559"><ele>473.8</ele><time>2026-04-26T13:48:37.194Z</time></trkpt><trkpt lat="42.9980355" lon="11.7906376"><ele>475.19999999999993</ele><time>2026-04-26T13:48:38.196Z</time></trkpt><trkpt lat="42.9981203" lon="11.7907177"><ele>476.59999999999997</ele><time>2026-04-26T13:48:39.192Z</time></trkpt><trkpt lat="42.9982052" lon="11.7907994"><ele>478.0</ele><time>2026-04-26T13:48:40.192Z</time></trkpt><trkpt lat="42.9982896" lon="11.7908816"><ele>477.1666666666667</ele><time>2026-04-26T13:48:41.198Z</time></trkpt><trkpt lat="42.9983701" lon="11.7909615"><ele>476.33333333333337</ele><time>2026-04-26T13:48:42.196Z</time></trkpt><trkpt lat="42.9984391" lon="11.7910334"><ele>475.5</ele><time>2026-04-26T13:48:43.198Z</time></trkpt><trkpt lat="42.9984983" lon="11.7911051"><ele>474.66666666666663</ele><time>2026-04-26T13:48:44.189Z</time></trkpt><trkpt lat="42.998551" lon="11.7911878"><ele>473.8333333333333</ele><time>2026-04-26T13:48:45.197Z</time></trkpt><trkpt lat="42.9985924" lon="11.7912868"><ele>473.0</ele><time>2026-04-26T13:48:46.193Z</time></trkpt><trkpt lat="42.998615" lon="11.7914039"><ele>473.0</ele><time>2026-04-26T13:48:47.189Z</time></trkpt><trkpt lat="42.9986223" lon="11.791532"><ele>472.99999999999994</ele><time>2026-04-26T13:48:48.192Z</time></trkpt><trkpt lat="42.9986137" lon="11.7916699"><ele>472.99999999999994</ele><time>2026-04-26T13:48:49.193Z</time></trkpt><trkpt lat="42.9985947" lon="11.7918103"><ele>473.0</ele><time>2026-04-26T13:48:50.201Z</time></trkpt><trkpt lat="42.9985712" lon="11.7919485"><ele>473.0</ele><time>2026-04-26T13:48:51.2Z</time></trkpt><trkpt lat="42.9985483" lon="11.7920802"><ele>474.79999999999995</ele><time>2026-04-26T13:48:52.198Z</time></trkpt><trkpt lat="42.998534" lon="11.792209"><ele>476.59999999999997</ele><time>2026-04-26T13:48:53.189Z</time></trkpt><trkpt lat="42.9985319" lon="11.7923376"><ele>478.40000000000003</ele><time>2026-04-26T13:48:54.197Z</time></trkpt><trkpt lat="42.9985428" lon="11.7924637"><ele>480.20000000000005</ele><time>2026-04-26T13:48:55.183Z</time></trkpt><trkpt lat="42.9985733" lon="11.7925843"><ele>482.0</ele><time>2026-04-26T13:48:56.196Z</time></trkpt><trkpt lat="42.9986244" lon="11.7926987"><ele>483.75</ele><time>2026-04-26T13:48:57.198Z</time></trkpt><trkpt lat="42.9986963" lon="11.792798"><ele>485.5</ele><time>2026-04-26T13:48:58.187Z</time></trkpt><trkpt lat="42.9987878" lon="11.7928909"><ele>487.25</ele><time>2026-04-26T13:48:59.181Z</time></trkpt><trkpt lat="42.9988883" lon="11.792987"><ele>489.0</ele><time>2026-04-26T13:49:00.196Z</time></trkpt><trkpt lat="42.9989888" lon="11.7930848"><ele>489.0</ele><time>2026-04-26T13:49:01.198Z</time></trkpt><trkpt lat="42.999084" lon="11.7931796"><ele>489.0</ele><time>2026-04-26T13:49:02.195Z</time></trkpt><trkpt lat="42.999172" lon="11.793278"><ele>489.0</ele><time>2026-04-26T13:49:03.196Z</time></trkpt><trkpt lat="42.9992479" lon="11.7933855"><ele>489.0</ele><time>2026-04-26T13:49:04.186Z</time></trkpt><trkpt lat="42.9993121" lon="11.7935013"><ele>489.0</ele><time>2026-04-26T13:49:05.181Z</time></trkpt><trkpt lat="42.9993686" lon="11.7936241"><ele>491.0</ele><time>2026-04-26T13:49:06.2Z</time></trkpt><trkpt lat="42.9994183" lon="11.7937495"><ele>493.0</ele><time>2026-04-26T13:49:07.192Z</time></trkpt><trkpt lat="42.9994632" lon="11.793876"><ele>495.0</ele><time>2026-04-26T13:49:08.2Z</time></trkpt><trkpt lat="42.9995054" lon="11.7940029"><ele>497.0</ele><time>2026-04-26T13:49:09.18Z</time></trkpt><trkpt lat="42.9995462" lon="11.7941303"><ele>499.0</ele><time>2026-04-26T13:49:10.18Z</time></trkpt><trkpt lat="42.9995886" lon="11.7942593"><ele>501.2</ele><time>2026-04-26T13:49:11.197Z</time></trkpt><trkpt lat="42.9996337" lon="11.7943906"><ele>503.4</ele><time>2026-04-26T13:49:12.185Z</time></trkpt><trkpt lat="42.99968" lon="11.7945246"><ele>505.6</ele><time>2026-04-26T13:49:13.185Z</time></trkpt><trkpt lat="42.999725" lon="11.7946608"><ele>507.8</ele><time>2026-04-26T13:49:14.199Z</time></trkpt><trkpt lat="42.9997691" lon="11.7947972"><ele>510.0</ele><time>2026-04-26T13:49:15.198Z</time></trkpt><trkpt lat="42.9998146" lon="11.794928"><ele>510.0</ele><time>2026-04-26T13:49:16.197Z</time></trkpt><trkpt lat="42.9998556" lon="11.7950393"><ele>510.0</ele><time>2026-04-26T13:49:17.199Z</time></trkpt><trkpt lat="42.9998908" lon="11.7951334"><ele>510.0</ele><time>2026-04-26T13:49:18.179Z</time></trkpt><trkpt lat="42.9999444" lon="11.7952568"><ele>510.0</ele><time>2026-04-26T13:49:20.196Z</time></trkpt><trkpt lat="43.0000093" lon="11.7953078"><ele>510.0</ele><time>2026-04-26T13:49:23.182Z</time></trkpt><trkpt lat="43.0001158" lon="11.7952885"><ele>510.0</ele><time>2026-04-26T13:49:26.193Z</time></trkpt><trkpt lat="43.0002235" lon="11.7952601"><ele>510.0</ele><time>2026-04-26T13:49:28.192Z</time></trkpt><trkpt lat="43.0003267" lon="11.795227"><ele>510.0</ele><time>2026-04-26T13:49:30.19Z</time></trkpt><trkpt lat="43.000417" lon="11.7951901"><ele>510.0</ele><time>2026-04-26T13:49:32.196Z</time></trkpt><trkpt lat="43.0005056" lon="11.7951515"><ele>510.0</ele><time>2026-04-26T13:49:34.191Z</time></trkpt><trkpt lat="43.0005987" lon="11.7951169"><ele>510.0</ele><time>2026-04-26T13:49:36.185Z</time></trkpt><trkpt lat="43.0006935" lon="11.7950819"><ele>510.0</ele><time>2026-04-26T13:49:38.182Z</time></trkpt><trkpt lat="43.0007937" lon="11.7950506"><ele>510.0</ele><time>2026-04-26T13:49:40.201Z</time></trkpt><trkpt lat="43.0008862" lon="11.7950192"><ele>510.0</ele><time>2026-04-26T13:49:42.188Z</time></trkpt><trkpt lat="43.0009835" lon="11.7949885"><ele>510.0</ele><time>2026-04-26T13:49:44.194Z</time></trkpt><trkpt lat="43.0010951" lon="11.7949496"><ele>510.25</ele><time>2026-04-26T13:49:46.19Z</time></trkpt><trkpt lat="43.0012104" lon="11.7949062"><ele>510.5</ele><time>2026-04-26T13:49:48.204Z</time></trkpt><trkpt lat="43.0013313" lon="11.7948625"><ele>510.75</ele><time>2026-04-26T13:49:50.198Z</time></trkpt><trkpt lat="43.0014478" lon="11.7948241"><ele>511.0</ele><time>2026-04-26T13:49:52.186Z</time></trkpt><trkpt lat="43.0015683" lon="11.794778"><ele>510.83333333333337</ele><time>2026-04-26T13:49:54.193Z</time></trkpt><trkpt lat="43.0016749" lon="11.7947372"><ele>510.6666666666667</ele><time>2026-04-26T13:49:56.181Z</time></trkpt><trkpt lat="43.0017422" lon="11.794702"><ele>510.5</ele><time>2026-04-26T13:49:58.201Z</time></trkpt><trkpt lat="43.0018035" lon="11.7946815"><ele>510.33333333333337</ele><time>2026-04-26T13:50:01.183Z</time></trkpt><trkpt lat="43.0018748" lon="11.7946618"><ele>510.1666666666667</ele><time>2026-04-26T13:51:19.183Z</time></trkpt><trkpt lat="43.0019849" lon="11.7946335"><ele>510.0</ele><time>2026-04-26T13:51:21.192Z</time></trkpt><trkpt lat="43.0020661" lon="11.7946071"><ele>510.0</ele><time>2026-04-26T13:51:22.206Z</time></trkpt><trkpt lat="43.0021565" lon="11.7945771"><ele>510.0</ele><time>2026-04-26T13:51:23.195Z</time></trkpt><trkpt lat="43.002276" lon="11.7945415"><ele>510.0</ele><time>2026-04-26T13:51:24.185Z</time></trkpt><trkpt lat="43.0024236" lon="11.7945039"><ele>510.0</ele><time>2026-04-26T13:51:25.194Z</time></trkpt><trkpt lat="43.0025737" lon="11.7944658"><ele>511.5</ele><time>2026-04-26T13:51:26.182Z</time></trkpt><trkpt lat="43.0027249" lon="11.7944296"><ele>513.0</ele><time>2026-04-26T13:51:27.203Z</time></trkpt><trkpt lat="43.0028681" lon="11.7943973"><ele>514.5</ele><time>2026-04-26T13:51:28.193Z</time></trkpt><trkpt lat="43.0029973" lon="11.7943717"><ele>516.0</ele><time>2026-04-26T13:51:29.178Z</time></trkpt><trkpt lat="43.0031248" lon="11.7943426"><ele>514.8</ele><time>2026-04-26T13:51:30.2Z</time></trkpt><trkpt lat="43.0032367" lon="11.7943104"><ele>513.6</ele><time>2026-04-26T13:51:31.201Z</time></trkpt><trkpt lat="43.0033437" lon="11.7942675"><ele>512.4</ele><time>2026-04-26T13:51:32.195Z</time></trkpt><trkpt lat="43.0034402" lon="11.7942126"><ele>511.2</ele><time>2026-04-26T13:51:33.199Z</time></trkpt><trkpt lat="43.0035315" lon="11.7941381"><ele>510.0</ele><time>2026-04-26T13:51:34.192Z</time></trkpt><trkpt lat="43.0036277" lon="11.794059"><ele>510.0</ele><time>2026-04-26T13:51:35.203Z</time></trkpt><trkpt lat="43.00373" lon="11.7939227"><ele>510.0</ele><time>2026-04-26T13:51:36.206Z</time></trkpt><trkpt lat="43.0038464" lon="11.7937686"><ele>510.0</ele><time>2026-04-26T13:51:37.181Z</time></trkpt><trkpt lat="43.0039706" lon="11.7936032"><ele>510.33333333333337</ele><time>2026-04-26T13:51:38.191Z</time></trkpt><trkpt lat="43.0040932" lon="11.7934429"><ele>510.6666666666667</ele><time>2026-04-26T13:51:39.197Z</time></trkpt><trkpt lat="43.0042075" lon="11.7932921"><ele>511.0</ele><time>2026-04-26T13:51:40.189Z</time></trkpt><trkpt lat="43.0043116" lon="11.7931528"><ele>511.0</ele><time>2026-04-26T13:51:41.195Z</time></trkpt><trkpt lat="43.0044135" lon="11.79302"><ele>511.0</ele><time>2026-04-26T13:51:42.201Z</time></trkpt><trkpt lat="43.0045141" lon="11.7928965"><ele>511.0</ele><time>2026-04-26T13:51:43.197Z</time></trkpt><trkpt lat="43.0046186" lon="11.7927802"><ele>511.0</ele><time>2026-04-26T13:51:44.197Z</time></trkpt><trkpt lat="43.0047255" lon="11.7926676"><ele>511.75</ele><time>2026-04-26T13:51:45.177Z</time></trkpt><trkpt lat="43.0048334" lon="11.7925588"><ele>512.5</ele><time>2026-04-26T13:51:46.179Z</time></trkpt><trkpt lat="43.0049325" lon="11.7924599"><ele>513.25</ele><time>2026-04-26T13:51:47.193Z</time></trkpt><trkpt lat="43.0050206" lon="11.7923773"><ele>514.0</ele><time>2026-04-26T13:51:48.18Z</time></trkpt><trkpt lat="43.0051016" lon="11.7922992"><ele>514.0</ele><time>2026-04-26T13:51:49.19Z</time></trkpt><trkpt lat="43.0051809" lon="11.7922346"><ele>514.0</ele><time>2026-04-26T13:51:50.183Z</time></trkpt><trkpt lat="43.0052657" lon="11.79215"><ele>514.0</ele><time>2026-04-26T13:51:51.196Z</time></trkpt><trkpt lat="43.0053474" lon="11.7920349"><ele>514.0</ele><time>2026-04-26T13:51:52.184Z</time></trkpt><trkpt lat="43.0054221" lon="11.7918793"><ele>512.0</ele><time>2026-04-26T13:51:53.199Z</time></trkpt><trkpt lat="43.0055078" lon="11.7916951"><ele>510.0</ele><time>2026-04-26T13:51:54.197Z</time></trkpt><trkpt lat="43.0055892" lon="11.7914909"><ele>508.0</ele><time>2026-04-26T13:51:55.199Z</time></trkpt><trkpt lat="43.0056774" lon="11.7912832"><ele>508.0</ele><time>2026-04-26T13:51:56.195Z</time></trkpt><trkpt lat="43.0057675" lon="11.791099"><ele>508.0</ele><time>2026-04-26T13:51:57.185Z</time></trkpt><trkpt lat="43.005851" lon="11.7909251"><ele>508.0</ele><time>2026-04-26T13:51:58.199Z</time></trkpt><trkpt lat="43.0059237" lon="11.7907654"><ele>509.79999999999995</ele><time>2026-04-26T13:51:59.185Z</time></trkpt><trkpt lat="43.0059894" lon="11.7906304"><ele>511.59999999999997</ele><time>2026-04-26T13:52:00.198Z</time></trkpt><trkpt lat="43.0060512" lon="11.790519"><ele>513.4000000000001</ele><time>2026-04-26T13:52:01.187Z</time></trkpt><trkpt lat="43.0061331" lon="11.7904163"><ele>515.2</ele><time>2026-04-26T13:52:02.198Z</time></trkpt><trkpt lat="43.0062143" lon="11.7903137"><ele>517.0</ele><time>2026-04-26T13:52:03.196Z</time></trkpt><trkpt lat="43.0063294" lon="11.7902193"><ele>517.0</ele><time>2026-04-26T13:52:04.2Z</time></trkpt><trkpt lat="43.006461" lon="11.7901207"><ele>517.0</ele><time>2026-04-26T13:52:05.18Z</time></trkpt><trkpt lat="43.0066022" lon="11.7900159"><ele>517.0</ele><time>2026-04-26T13:52:06.205Z</time></trkpt><trkpt lat="43.0067381" lon="11.7899079"><ele>517.0</ele><time>2026-04-26T13:52:07.202Z</time></trkpt><trkpt lat="43.006867" lon="11.7898164"><ele>517.0</ele><time>2026-04-26T13:52:08.198Z</time></trkpt><trkpt lat="43.0069794" lon="11.7897371"><ele>517.0</ele><time>2026-04-26T13:52:09.206Z</time></trkpt><trkpt lat="43.0070814" lon="11.7896678"><ele>517.0</ele><time>2026-04-26T13:52:10.203Z</time></trkpt><trkpt lat="43.0071839" lon="11.7896259"><ele>517.0</ele><time>2026-04-26T13:52:11.195Z</time></trkpt><trkpt lat="43.0072841" lon="11.789588"><ele>517.0</ele><time>2026-04-26T13:52:12.191Z</time></trkpt><trkpt lat="43.0073883" lon="11.7895956"><ele>517.0</ele><time>2026-04-26T13:52:13.176Z</time></trkpt><trkpt lat="43.0074934" lon="11.7896113"><ele>517.0</ele><time>2026-04-26T13:52:14.191Z</time></trkpt><trkpt lat="43.0076123" lon="11.7896354"><ele>517.0</ele><time>2026-04-26T13:52:15.179Z</time></trkpt><trkpt lat="43.0077393" lon="11.7896737"><ele>518.75</ele><time>2026-04-26T13:52:16.176Z</time></trkpt><trkpt lat="43.0078653" lon="11.7897156"><ele>520.5</ele><time>2026-04-26T13:52:17.184Z</time></trkpt><trkpt lat="43.0079953" lon="11.7897558"><ele>522.25</ele><time>2026-04-26T13:52:18.186Z</time></trkpt><trkpt lat="43.0081228" lon="11.7897934"><ele>524.0</ele><time>2026-04-26T13:52:19.187Z</time></trkpt><trkpt lat="43.0082466" lon="11.7898288"><ele>523.6</ele><time>2026-04-26T13:52:20.187Z</time></trkpt><trkpt lat="43.0083556" lon="11.7898593"><ele>523.2</ele><time>2026-04-26T13:52:21.205Z</time></trkpt><trkpt lat="43.0084547" lon="11.7898869"><ele>522.8000000000001</ele><time>2026-04-26T13:52:22.186Z</time></trkpt><trkpt lat="43.0085441" lon="11.789909"><ele>522.4</ele><time>2026-04-26T13:52:23.195Z</time></trkpt><trkpt lat="43.0086213" lon="11.7899175"><ele>522.0</ele><time>2026-04-26T13:52:24.186Z</time></trkpt><trkpt lat="43.0086952" lon="11.7899051"><ele>522.0</ele><time>2026-04-26T13:52:25.197Z</time></trkpt><trkpt lat="43.0087712" lon="11.7898587"><ele>522.0</ele><time>2026-04-26T13:52:26.195Z</time></trkpt><trkpt lat="43.0088442" lon="11.7897854"><ele>522.0</ele><time>2026-04-26T13:52:27.193Z</time></trkpt><trkpt lat="43.0089042" lon="11.7896795"><ele>522.0</ele><time>2026-04-26T13:52:28.186Z</time></trkpt><trkpt lat="43.008944" lon="11.7895276"><ele>522.0</ele><time>2026-04-26T13:52:29.198Z</time></trkpt><trkpt lat="43.0089815" lon="11.789363"><ele>519.25</ele><time>2026-04-26T13:52:30.178Z</time></trkpt><trkpt lat="43.0090174" lon="11.7891872"><ele>516.5</ele><time>2026-04-26T13:52:31.199Z</time></trkpt><trkpt lat="43.0090569" lon="11.7890169"><ele>513.75</ele><time>2026-04-26T13:52:32.187Z</time></trkpt><trkpt lat="43.0091003" lon="11.7888541"><ele>511.0</ele><time>2026-04-26T13:52:33.19Z</time></trkpt><trkpt lat="43.0091492" lon="11.7886905"><ele>510.5</ele><time>2026-04-26T13:52:34.195Z</time></trkpt><trkpt lat="43.0092127" lon="11.7885332"><ele>510.0</ele><time>2026-04-26T13:52:35.191Z</time></trkpt><trkpt lat="43.0092887" lon="11.7883907"><ele>509.5</ele><time>2026-04-26T13:52:36.187Z</time></trkpt><trkpt lat="43.0093768" lon="11.7882523"><ele>509.0</ele><time>2026-04-26T13:52:37.181Z</time></trkpt><trkpt lat="43.0094689" lon="11.7881172"><ele>509.0</ele><time>2026-04-26T13:52:38.181Z</time></trkpt><trkpt lat="43.0095635" lon="11.7879796"><ele>509.0</ele><time>2026-04-26T13:52:39.197Z</time></trkpt><trkpt lat="43.0096606" lon="11.7878412"><ele>509.0</ele><time>2026-04-26T13:52:40.186Z</time></trkpt><trkpt lat="43.0097561" lon="11.7876986"><ele>509.0</ele><time>2026-04-26T13:52:41.176Z</time></trkpt><trkpt lat="43.0098421" lon="11.7875708"><ele>509.75</ele><time>2026-04-26T13:52:42.184Z</time></trkpt><trkpt lat="43.0099324" lon="11.7874443"><ele>510.5</ele><time>2026-04-26T13:52:43.191Z</time></trkpt><trkpt lat="43.0100258" lon="11.7873209"><ele>511.25</ele><time>2026-04-26T13:52:44.181Z</time></trkpt><trkpt lat="43.0101368" lon="11.7872058"><ele>512.0</ele><time>2026-04-26T13:52:45.175Z</time></trkpt><trkpt lat="43.0102549" lon="11.7870826"><ele>512.0</ele><time>2026-04-26T13:52:46.186Z</time></trkpt><trkpt lat="43.0103711" lon="11.7869548"><ele>512.0</ele><time>2026-04-26T13:52:47.184Z</time></trkpt><trkpt lat="43.0104867" lon="11.7868285"><ele>512.0</ele><time>2026-04-26T13:52:48.185Z</time></trkpt><trkpt lat="43.0106091" lon="11.7866927"><ele>512.3333333333333</ele><time>2026-04-26T13:52:49.2Z</time></trkpt><trkpt lat="43.0107306" lon="11.7865596"><ele>512.6666666666666</ele><time>2026-04-26T13:52:50.182Z</time></trkpt><trkpt lat="43.0108495" lon="11.7864266"><ele>513.0</ele><time>2026-04-26T13:52:51.195Z</time></trkpt><trkpt lat="43.0109685" lon="11.7862937"><ele>513.0</ele><time>2026-04-26T13:52:52.181Z</time></trkpt><trkpt lat="43.0110727" lon="11.7861795"><ele>513.0</ele><time>2026-04-26T13:52:53.18Z</time></trkpt><trkpt lat="43.0111564" lon="11.7860888"><ele>513.0</ele><time>2026-04-26T13:52:54.196Z</time></trkpt><trkpt lat="43.01124" lon="11.7860139"><ele>513.0</ele><time>2026-04-26T13:52:55.179Z</time></trkpt><trkpt lat="43.0113262" lon="11.7859416"><ele>513.0</ele><time>2026-04-26T13:52:56.194Z</time></trkpt><trkpt lat="43.0114333" lon="11.7858875"><ele>511.75</ele><time>2026-04-26T13:52:57.19Z</time></trkpt><trkpt lat="43.0115615" lon="11.7858461"><ele>510.5</ele><time>2026-04-26T13:52:58.183Z</time></trkpt><trkpt lat="43.011698" lon="11.7857973"><ele>509.25</ele><time>2026-04-26T13:52:59.2Z</time></trkpt><trkpt lat="43.0118393" lon="11.7857449"><ele>508.0</ele><time>2026-04-26T13:53:00.185Z</time></trkpt><trkpt lat="43.011986" lon="11.7856822"><ele>511.0</ele><time>2026-04-26T13:53:01.203Z</time></trkpt><trkpt lat="43.0121241" lon="11.7856307"><ele>514.0</ele><time>2026-04-26T13:53:02.201Z</time></trkpt><trkpt lat="43.01226" lon="11.7855792"><ele>517.0</ele><time>2026-04-26T13:53:03.178Z</time></trkpt><trkpt lat="43.0123895" lon="11.7855283"><ele>520.0</ele><time>2026-04-26T13:53:04.175Z</time></trkpt><trkpt lat="43.0125172" lon="11.7854789"><ele>523.25</ele><time>2026-04-26T13:53:05.195Z</time></trkpt><trkpt lat="43.01264" lon="11.7854331"><ele>526.5</ele><time>2026-04-26T13:53:06.175Z</time></trkpt><trkpt lat="43.0127568" lon="11.7853876"><ele>529.75</ele><time>2026-04-26T13:53:07.194Z</time></trkpt><trkpt lat="43.0128648" lon="11.7853355"><ele>533.0</ele><time>2026-04-26T13:53:08.185Z</time></trkpt><trkpt lat="43.0129667" lon="11.7852739"><ele>532.0</ele><time>2026-04-26T13:53:09.196Z</time></trkpt><trkpt lat="43.0130759" lon="11.7851778"><ele>531.0</ele><time>2026-04-26T13:53:10.183Z</time></trkpt><trkpt lat="43.0131889" lon="11.7850666"><ele>530.0</ele><time>2026-04-26T13:53:11.185Z</time></trkpt><trkpt lat="43.0133065" lon="11.7849442"><ele>529.0</ele><time>2026-04-26T13:53:12.178Z</time></trkpt><trkpt lat="43.0134351" lon="11.784813"><ele>532.6666666666667</ele><time>2026-04-26T13:53:13.193Z</time></trkpt><trkpt lat="43.0135661" lon="11.7846784"><ele>536.3333333333334</ele><time>2026-04-26T13:53:14.184Z</time></trkpt><trkpt lat="43.0136996" lon="11.7845462"><ele>540.0</ele><time>2026-04-26T13:53:15.192Z</time></trkpt><trkpt lat="43.0138328" lon="11.7844136"><ele>539.25</ele><time>2026-04-26T13:53:16.187Z</time></trkpt><trkpt lat="43.0139574" lon="11.7842865"><ele>538.5</ele><time>2026-04-26T13:53:17.202Z</time></trkpt><trkpt lat="43.0140798" lon="11.7841662"><ele>537.75</ele><time>2026-04-26T13:53:18.187Z</time></trkpt><trkpt lat="43.0141947" lon="11.7840514"><ele>537.0</ele><time>2026-04-26T13:53:19.181Z</time></trkpt><trkpt lat="43.0143062" lon="11.7839459"><ele>540.0</ele><time>2026-04-26T13:53:20.195Z</time></trkpt><trkpt lat="43.0144156" lon="11.7838424"><ele>543.0</ele><time>2026-04-26T13:53:21.198Z</time></trkpt><trkpt lat="43.0145206" lon="11.7837581"><ele>546.0</ele><time>2026-04-26T13:53:22.197Z</time></trkpt><trkpt lat="43.0146228" lon="11.7836895"><ele>549.0</ele><time>2026-04-26T13:53:23.199Z</time></trkpt><trkpt lat="43.0147333" lon="11.7836151"><ele>549.0</ele><time>2026-04-26T13:53:24.195Z</time></trkpt><trkpt lat="43.0148651" lon="11.7835285"><ele>549.0</ele><time>2026-04-26T13:53:25.197Z</time></trkpt><trkpt lat="43.0150032" lon="11.7834388"><ele>549.0</ele><time>2026-04-26T13:53:26.177Z</time></trkpt><trkpt lat="43.0151423" lon="11.7833481"><ele>549.3333333333334</ele><time>2026-04-26T13:53:27.2Z</time></trkpt><trkpt lat="43.0152869" lon="11.7832638"><ele>549.6666666666667</ele><time>2026-04-26T13:53:28.185Z</time></trkpt><trkpt lat="43.015433" lon="11.783184"><ele>550.0</ele><time>2026-04-26T13:53:29.18Z</time></trkpt><trkpt lat="43.0155747" lon="11.7831063"><ele>550.0</ele><time>2026-04-26T13:53:30.188Z</time></trkpt><trkpt lat="43.0157084" lon="11.7830319"><ele>550.0</ele><time>2026-04-26T13:53:31.183Z</time></trkpt><trkpt lat="43.0158352" lon="11.7829635"><ele>550.0</ele><time>2026-04-26T13:53:32.201Z</time></trkpt><trkpt lat="43.0159655" lon="11.7828951"><ele>550.0</ele><time>2026-04-26T13:53:33.177Z</time></trkpt><trkpt lat="43.0161003" lon="11.7828282"><ele>550.3333333333334</ele><time>2026-04-26T13:53:34.184Z</time></trkpt><trkpt lat="43.0162459" lon="11.7827591"><ele>550.6666666666666</ele><time>2026-04-26T13:53:35.185Z</time></trkpt><trkpt lat="43.0164062" lon="11.7826875"><ele>551.0</ele><time>2026-04-26T13:53:36.196Z</time></trkpt><trkpt lat="43.0165663" lon="11.7826134"><ele>553.0</ele><time>2026-04-26T13:53:37.199Z</time></trkpt><trkpt lat="43.0167302" lon="11.7825408"><ele>555.0</ele><time>2026-04-26T13:53:38.204Z</time></trkpt><trkpt lat="43.0168958" lon="11.7824682"><ele>557.0</ele><time>2026-04-26T13:53:39.201Z</time></trkpt><trkpt lat="43.0170636" lon="11.7823936"><ele>557.0</ele><time>2026-04-26T13:53:40.189Z</time></trkpt><trkpt lat="43.0172353" lon="11.7823136"><ele>557.0</ele><time>2026-04-26T13:53:41.186Z</time></trkpt><trkpt lat="43.0174044" lon="11.7822309"><ele>557.0</ele><time>2026-04-26T13:53:42.201Z</time></trkpt><trkpt lat="43.0175756" lon="11.7821552"><ele>561.3333333333333</ele><time>2026-04-26T13:53:43.195Z</time></trkpt><trkpt lat="43.0177273" lon="11.7820715"><ele>565.6666666666666</ele><time>2026-04-26T13:53:44.179Z</time></trkpt><trkpt lat="43.0178705" lon="11.7819826"><ele>570.0</ele><time>2026-04-26T13:53:45.178Z</time></trkpt><trkpt lat="43.0180071" lon="11.7818905"><ele>570.75</ele><time>2026-04-26T13:53:46.188Z</time></trkpt><trkpt lat="43.0181259" lon="11.7817729"><ele>571.5</ele><time>2026-04-26T13:53:47.19Z</time></trkpt><trkpt lat="43.018233" lon="11.7816348"><ele>572.25</ele><time>2026-04-26T13:53:48.183Z</time></trkpt><trkpt lat="43.0183385" lon="11.7814842"><ele>573.0</ele><time>2026-04-26T13:53:49.181Z</time></trkpt><trkpt lat="43.0184318" lon="11.7813382"><ele>573.0</ele><time>2026-04-26T13:53:50.174Z</time></trkpt><trkpt lat="43.018526" lon="11.7811931"><ele>573.0</ele><time>2026-04-26T13:53:51.197Z</time></trkpt><trkpt lat="43.0186277" lon="11.7810573"><ele>573.0</ele><time>2026-04-26T13:53:52.189Z</time></trkpt><trkpt lat="43.0187318" lon="11.7809294"><ele>573.0</ele><time>2026-04-26T13:53:53.185Z</time></trkpt><trkpt lat="43.0188314" lon="11.7808073"><ele>572.8</ele><time>2026-04-26T13:53:54.204Z</time></trkpt><trkpt lat="43.0189296" lon="11.7807031"><ele>572.5999999999999</ele><time>2026-04-26T13:53:55.202Z</time></trkpt><trkpt lat="43.0190166" lon="11.7806109"><ele>572.4000000000001</ele><time>2026-04-26T13:53:56.198Z</time></trkpt><trkpt lat="43.0190893" lon="11.780536"><ele>572.2</ele><time>2026-04-26T13:53:57.201Z</time></trkpt><trkpt lat="43.0191443" lon="11.780479"><ele>572.0</ele><time>2026-04-26T13:53:58.199Z</time></trkpt><trkpt lat="43.0192389" lon="11.7803781"><ele>572.0</ele><time>2026-04-26T13:54:00.191Z</time></trkpt><trkpt lat="43.0192897" lon="11.7803216"><ele>572.0</ele><time>2026-04-26T13:54:01.184Z</time></trkpt><trkpt lat="43.0193443" lon="11.7802578"><ele>572.0</ele><time>2026-04-26T13:54:02.2Z</time></trkpt><trkpt lat="43.0194106" lon="11.7801762"><ele>572.0</ele><time>2026-04-26T13:54:03.198Z</time></trkpt><trkpt lat="43.0194959" lon="11.7800824"><ele>572.0</ele><time>2026-04-26T13:54:04.197Z</time></trkpt><trkpt lat="43.0195937" lon="11.7799822"><ele>569.5</ele><time>2026-04-26T13:54:05.185Z</time></trkpt><trkpt lat="43.0197148" lon="11.7798988"><ele>567.0</ele><time>2026-04-26T13:54:06.184Z</time></trkpt><trkpt lat="43.0198351" lon="11.7798107"><ele>564.5</ele><time>2026-04-26T13:54:07.186Z</time></trkpt><trkpt lat="43.0199516" lon="11.7797549"><ele>562.0</ele><time>2026-04-26T13:54:08.183Z</time></trkpt><trkpt lat="43.0200475" lon="11.779705"><ele>562.0</ele><time>2026-04-26T13:54:09.189Z</time></trkpt><trkpt lat="43.0201349" lon="11.7796785"><ele>562.0</ele><time>2026-04-26T13:54:10.204Z</time></trkpt><trkpt lat="43.0202109" lon="11.7796665"><ele>562.0</ele><time>2026-04-26T13:54:11.198Z</time></trkpt><trkpt lat="43.020285" lon="11.7796954"><ele>562.0</ele><time>2026-04-26T13:54:12.2Z</time></trkpt><trkpt lat="43.0203528" lon="11.7797507"><ele>562.0</ele><time>2026-04-26T13:54:13.186Z</time></trkpt><trkpt lat="43.0204279" lon="11.7798065"><ele>562.0</ele><time>2026-04-26T13:54:14.199Z</time></trkpt><trkpt lat="43.0205093" lon="11.7798288"><ele>562.0</ele><time>2026-04-26T13:54:15.184Z</time></trkpt><trkpt lat="43.0206015" lon="11.7798177"><ele>562.0</ele><time>2026-04-26T13:54:16.195Z</time></trkpt><trkpt lat="43.0206959" lon="11.7797607"><ele>562.0</ele><time>2026-04-26T13:54:17.188Z</time></trkpt><trkpt lat="43.0208017" lon="11.7796647"><ele>562.0</ele><time>2026-04-26T13:54:18.199Z</time></trkpt><trkpt lat="43.0209338" lon="11.7795659"><ele>562.75</ele><time>2026-04-26T13:54:19.2Z</time></trkpt><trkpt lat="43.021047" lon="11.7794832"><ele>563.5</ele><time>2026-04-26T13:54:20.196Z</time></trkpt><trkpt lat="43.0211673" lon="11.7794359"><ele>564.25</ele><time>2026-04-26T13:54:21.181Z</time></trkpt><trkpt lat="43.0212876" lon="11.7793873"><ele>565.0</ele><time>2026-04-26T13:54:22.185Z</time></trkpt><trkpt lat="43.0213992" lon="11.7793413"><ele>561.25</ele><time>2026-04-26T13:54:23.193Z</time></trkpt><trkpt lat="43.0215085" lon="11.7792718"><ele>557.5</ele><time>2026-04-26T13:54:24.195Z</time></trkpt><trkpt lat="43.0216086" lon="11.7791641"><ele>553.75</ele><time>2026-04-26T13:54:25.204Z</time></trkpt><trkpt lat="43.0217127" lon="11.7790526"><ele>550.0</ele><time>2026-04-26T13:54:26.191Z</time></trkpt><trkpt lat="43.0218165" lon="11.7789482"><ele>550.0</ele><time>2026-04-26T13:54:27.183Z</time></trkpt><trkpt lat="43.0219097" lon="11.7788422"><ele>550.0</ele><time>2026-04-26T13:54:28.184Z</time></trkpt><trkpt lat="43.0219987" lon="11.7787211"><ele>550.0</ele><time>2026-04-26T13:54:29.203Z</time></trkpt><trkpt lat="43.0220812" lon="11.7785942"><ele>550.0</ele><time>2026-04-26T13:54:30.196Z</time></trkpt><trkpt lat="43.0221534" lon="11.7784554"><ele>547.75</ele><time>2026-04-26T13:54:31.195Z</time></trkpt><trkpt lat="43.022219" lon="11.7783373"><ele>545.5</ele><time>2026-04-26T13:54:32.184Z</time></trkpt><trkpt lat="43.0222874" lon="11.7782331"><ele>543.25</ele><time>2026-04-26T13:54:33.197Z</time></trkpt><trkpt lat="43.0223753" lon="11.7781348"><ele>541.0</ele><time>2026-04-26T13:54:34.196Z</time></trkpt><trkpt lat="43.0224922" lon="11.7780499"><ele>541.0</ele><time>2026-04-26T13:54:35.192Z</time></trkpt><trkpt lat="43.0226376" lon="11.7779586"><ele>541.0</ele><time>2026-04-26T13:54:36.185Z</time></trkpt><trkpt lat="43.0227836" lon="11.7778442"><ele>541.0</ele><time>2026-04-26T13:54:37.186Z</time></trkpt><trkpt lat="43.0229016" lon="11.7777417"><ele>541.0</ele><time>2026-04-26T13:54:38.191Z</time></trkpt><trkpt lat="43.0230053" lon="11.7776701"><ele>541.0</ele><time>2026-04-26T13:54:39.196Z</time></trkpt><trkpt lat="43.0230921" lon="11.7776186"><ele>541.0</ele><time>2026-04-26T13:54:40.195Z</time></trkpt><trkpt lat="43.023212" lon="11.7776536"><ele>541.0</ele><time>2026-04-26T13:54:42.198Z</time></trkpt><trkpt lat="43.0232736" lon="11.7776953"><ele>541.0</ele><time>2026-04-26T13:54:43.191Z</time></trkpt><trkpt lat="43.0233516" lon="11.7777345"><ele>543.2</ele><time>2026-04-26T13:54:44.199Z</time></trkpt><trkpt lat="43.0234495" lon="11.7777619"><ele>545.4000000000001</ele><time>2026-04-26T13:54:45.205Z</time></trkpt><trkpt lat="43.0235601" lon="11.7777654"><ele>547.6</ele><time>2026-04-26T13:54:46.195Z</time></trkpt><trkpt lat="43.0236687" lon="11.7777486"><ele>549.8000000000001</ele><time>2026-04-26T13:54:47.189Z</time></trkpt><trkpt lat="43.023767" lon="11.7777374"><ele>552.0</ele><time>2026-04-26T13:54:48.193Z</time></trkpt><trkpt lat="43.0238529" lon="11.7777292"><ele>552.0</ele><time>2026-04-26T13:54:49.204Z</time></trkpt><trkpt lat="43.0239256" lon="11.7777741"><ele>552.0</ele><time>2026-04-26T13:54:50.198Z</time></trkpt><trkpt lat="43.0240091" lon="11.7778262"><ele>552.0</ele><time>2026-04-26T13:54:51.197Z</time></trkpt><trkpt lat="43.0240779" lon="11.7779238"><ele>552.0</ele><time>2026-04-26T13:54:52.184Z</time></trkpt><trkpt lat="43.0241436" lon="11.7780357"><ele>552.0</ele><time>2026-04-26T13:54:53.188Z</time></trkpt><trkpt lat="43.0242084" lon="11.7781524"><ele>551.6</ele><time>2026-04-26T13:54:54.191Z</time></trkpt><trkpt lat="43.0242736" lon="11.7782709"><ele>551.2</ele><time>2026-04-26T13:54:55.19Z</time></trkpt><trkpt lat="43.0243422" lon="11.7783655"><ele>550.8</ele><time>2026-04-26T13:54:56.199Z</time></trkpt><trkpt lat="43.024391" lon="11.7784338"><ele>550.4</ele><time>2026-04-26T13:54:57.198Z</time></trkpt><trkpt lat="43.0244838" lon="11.7784937"><ele>550.0</ele><time>2026-04-26T13:54:59.198Z</time></trkpt><trkpt lat="43.024568" lon="11.7784862"><ele>550.0</ele><time>2026-04-26T13:55:00.177Z</time></trkpt><trkpt lat="43.0246459" lon="11.7784061"><ele>550.0</ele><time>2026-04-26T13:55:01.192Z</time></trkpt><trkpt lat="43.0247123" lon="11.7783376"><ele>550.0</ele><time>2026-04-26T13:55:02.198Z</time></trkpt><trkpt lat="43.0247781" lon="11.7782766"><ele>550.0</ele><time>2026-04-26T13:55:03.198Z</time></trkpt><trkpt lat="43.0248587" lon="11.7782196"><ele>550.0</ele><time>2026-04-26T13:55:05.19Z</time></trkpt><trkpt lat="43.0249134" lon="11.7781746"><ele>550.0</ele><time>2026-04-26T13:56:45.183Z</time></trkpt><trkpt lat="43.0249942" lon="11.7782093"><ele>550.2</ele><time>2026-04-26T13:56:49.2Z</time></trkpt><trkpt lat="43.0250674" lon="11.7781831"><ele>550.4</ele><time>2026-04-26T13:56:55.195Z</time></trkpt><trkpt lat="43.0251439" lon="11.7781655"><ele>550.6</ele><time>2026-04-26T13:56:58.189Z</time></trkpt><trkpt lat="43.0252336" lon="11.778165"><ele>550.8</ele><time>2026-04-26T13:57:00.198Z</time></trkpt><trkpt lat="43.025335" lon="11.7781589"><ele>551.0</ele><time>2026-04-26T13:57:02.206Z</time></trkpt><trkpt lat="43.0254547" lon="11.7781493"><ele>551.0</ele><time>2026-04-26T13:57:04.198Z</time></trkpt><trkpt lat="43.0255183" lon="11.7781311"><ele>551.0</ele><time>2026-04-26T13:57:05.186Z</time></trkpt><trkpt lat="43.0255864" lon="11.7781039"><ele>551.0</ele><time>2026-04-26T13:57:06.198Z</time></trkpt><trkpt lat="43.025659" lon="11.7780723"><ele>551.0</ele><time>2026-04-26T13:57:07.19Z</time></trkpt><trkpt lat="43.0257328" lon="11.7780341"><ele>551.0</ele><time>2026-04-26T13:57:08.2Z</time></trkpt><trkpt lat="43.0258058" lon="11.7779865"><ele>551.0</ele><time>2026-04-26T13:57:09.187Z</time></trkpt><trkpt lat="43.0258774" lon="11.7779382"><ele>550.6666666666666</ele><time>2026-04-26T13:57:10.192Z</time></trkpt><trkpt lat="43.0259476" lon="11.777874"><ele>550.3333333333333</ele><time>2026-04-26T13:57:11.196Z</time></trkpt><trkpt lat="43.0260155" lon="11.7778013"><ele>550.0</ele><time>2026-04-26T13:57:12.195Z</time></trkpt><trkpt lat="43.026088" lon="11.7777258"><ele>549.6666666666666</ele><time>2026-04-26T13:57:13.187Z</time></trkpt><trkpt lat="43.0261574" lon="11.7776467"><ele>549.3333333333334</ele><time>2026-04-26T13:57:14.194Z</time></trkpt><trkpt lat="43.0262255" lon="11.7775677"><ele>549.0</ele><time>2026-04-26T13:57:15.19Z</time></trkpt><trkpt lat="43.0262949" lon="11.7774944"><ele>549.0</ele><time>2026-04-26T13:57:16.198Z</time></trkpt><trkpt lat="43.0263659" lon="11.7774371"><ele>549.0</ele><time>2026-04-26T13:57:17.197Z</time></trkpt><trkpt lat="43.0264404" lon="11.7774007"><ele>549.0</ele><time>2026-04-26T13:57:18.187Z</time></trkpt><trkpt lat="43.0265118" lon="11.7773673"><ele>549.0</ele><time>2026-04-26T13:57:19.193Z</time></trkpt><trkpt lat="43.026587" lon="11.7773496"><ele>549.0</ele><time>2026-04-26T13:57:20.182Z</time></trkpt><trkpt lat="43.0266724" lon="11.777326"><ele>549.0</ele><time>2026-04-26T13:57:21.187Z</time></trkpt><trkpt lat="43.0267688" lon="11.7772956"><ele>551.6</ele><time>2026-04-26T13:57:22.197Z</time></trkpt><trkpt lat="43.0268711" lon="11.7772666"><ele>554.2</ele><time>2026-04-26T13:57:23.183Z</time></trkpt><trkpt lat="43.0269779" lon="11.77724"><ele>556.8000000000001</ele><time>2026-04-26T13:57:24.197Z</time></trkpt><trkpt lat="43.0270895" lon="11.7772201"><ele>559.4</ele><time>2026-04-26T13:57:25.189Z</time></trkpt><trkpt lat="43.0271953" lon="11.7772205"><ele>562.0</ele><time>2026-04-26T13:57:26.197Z</time></trkpt><trkpt lat="43.0272987" lon="11.7772444"><ele>562.0</ele><time>2026-04-26T13:57:27.192Z</time></trkpt><trkpt lat="43.0273972" lon="11.7772738"><ele>562.0</ele><time>2026-04-26T13:57:28.179Z</time></trkpt><trkpt lat="43.0274909" lon="11.7773092"><ele>562.0</ele><time>2026-04-26T13:57:29.196Z</time></trkpt><trkpt lat="43.0275896" lon="11.7773636"><ele>562.0</ele><time>2026-04-26T13:57:30.194Z</time></trkpt><trkpt lat="43.0276928" lon="11.7774182"><ele>562.0</ele><time>2026-04-26T13:57:31.182Z</time></trkpt><trkpt lat="43.0277979" lon="11.7774557"><ele>561.8000000000001</ele><time>2026-04-26T13:57:32.186Z</time></trkpt><trkpt lat="43.0279037" lon="11.7774903"><ele>561.6</ele><time>2026-04-26T13:57:33.196Z</time></trkpt><trkpt lat="43.0280162" lon="11.7775007"><ele>561.4000000000001</ele><time>2026-04-26T13:57:34.189Z</time></trkpt><trkpt lat="43.0281282" lon="11.7775043"><ele>561.2</ele><time>2026-04-26T13:57:35.197Z</time></trkpt><trkpt lat="43.028244" lon="11.7775101"><ele>561.0</ele><time>2026-04-26T13:57:36.188Z</time></trkpt><trkpt lat="43.0283628" lon="11.7775144"><ele>559.0</ele><time>2026-04-26T13:57:37.195Z</time></trkpt><trkpt lat="43.0284821" lon="11.7775132"><ele>557.0</ele><time>2026-04-26T13:57:38.194Z</time></trkpt><trkpt lat="43.0286036" lon="11.7775091"><ele>555.0</ele><time>2026-04-26T13:57:39.189Z</time></trkpt><trkpt lat="43.0287284" lon="11.7775047"><ele>553.0</ele><time>2026-04-26T13:57:40.202Z</time></trkpt><trkpt lat="43.0288511" lon="11.7775003"><ele>553.0</ele><time>2026-04-26T13:57:41.189Z</time></trkpt><trkpt lat="43.0289731" lon="11.777495"><ele>553.0</ele><time>2026-04-26T13:57:42.196Z</time></trkpt><trkpt lat="43.0290986" lon="11.7774875"><ele>553.0</ele><time>2026-04-26T13:57:43.19Z</time></trkpt><trkpt lat="43.0292246" lon="11.7774841"><ele>553.0</ele><time>2026-04-26T13:57:44.19Z</time></trkpt><trkpt lat="43.0293523" lon="11.7774829"><ele>553.25</ele><time>2026-04-26T13:57:45.199Z</time></trkpt><trkpt lat="43.0294768" lon="11.7774817"><ele>553.5</ele><time>2026-04-26T13:57:46.201Z</time></trkpt><trkpt lat="43.0295966" lon="11.7774813"><ele>553.75</ele><time>2026-04-26T13:57:47.184Z</time></trkpt><trkpt lat="43.0297144" lon="11.7774798"><ele>554.0</ele><time>2026-04-26T13:57:48.194Z</time></trkpt><trkpt lat="43.02983" lon="11.7774769"><ele>554.0</ele><time>2026-04-26T13:57:49.188Z</time></trkpt><trkpt lat="43.0299453" lon="11.7774758"><ele>554.0</ele><time>2026-04-26T13:57:50.192Z</time></trkpt><trkpt lat="43.0300594" lon="11.7774777"><ele>554.0</ele><time>2026-04-26T13:57:51.195Z</time></trkpt><trkpt lat="43.030172" lon="11.777482"><ele>554.0</ele><time>2026-04-26T13:57:52.197Z</time></trkpt><trkpt lat="43.0302825" lon="11.7774839"><ele>555.4</ele><time>2026-04-26T13:57:53.198Z</time></trkpt><trkpt lat="43.0303894" lon="11.7774849"><ele>556.8</ele><time>2026-04-26T13:57:54.19Z</time></trkpt><trkpt lat="43.0304921" lon="11.7774752"><ele>558.2</ele><time>2026-04-26T13:57:55.195Z</time></trkpt><trkpt lat="43.0305944" lon="11.777457"><ele>559.6</ele><time>2026-04-26T13:57:56.201Z</time></trkpt><trkpt lat="43.0306979" lon="11.7773981"><ele>561.0</ele><time>2026-04-26T13:57:57.203Z</time></trkpt><trkpt lat="43.0307974" lon="11.7773274"><ele>564.75</ele><time>2026-04-26T13:57:58.2Z</time></trkpt><trkpt lat="43.0308962" lon="11.7772539"><ele>568.5</ele><time>2026-04-26T13:57:59.184Z</time></trkpt><trkpt lat="43.0309882" lon="11.777158"><ele>572.25</ele><time>2026-04-26T13:58:00.204Z</time></trkpt><trkpt lat="43.0310848" lon="11.7770659"><ele>576.0</ele><time>2026-04-26T13:58:01.199Z</time></trkpt><trkpt lat="43.0311793" lon="11.7769815"><ele>576.0</ele><time>2026-04-26T13:58:02.185Z</time></trkpt><trkpt lat="43.0312613" lon="11.776905"><ele>576.0</ele><time>2026-04-26T13:58:03.183Z</time></trkpt><trkpt lat="43.0313212" lon="11.7768524"><ele>576.0</ele><time>2026-04-26T13:58:04.195Z</time></trkpt><trkpt lat="43.0313811" lon="11.7768126"><ele>576.0</ele><time>2026-04-26T13:58:06.187Z</time></trkpt><trkpt lat="43.0314364" lon="11.776771"><ele>576.0</ele><time>2026-04-26T13:58:08.185Z</time></trkpt><trkpt lat="43.0315117" lon="11.7767104"><ele>576.0</ele><time>2026-04-26T13:58:10.194Z</time></trkpt><trkpt lat="43.0315714" lon="11.7766637"><ele>576.3333333333334</ele><time>2026-04-26T13:58:11.203Z</time></trkpt><trkpt lat="43.0316331" lon="11.7766162"><ele>576.6666666666666</ele><time>2026-04-26T13:58:12.196Z</time></trkpt><trkpt lat="43.0316957" lon="11.7765671"><ele>577.0</ele><time>2026-04-26T13:58:13.201Z</time></trkpt><trkpt lat="43.0317658" lon="11.7765097"><ele>577.3333333333333</ele><time>2026-04-26T13:58:14.206Z</time></trkpt><trkpt lat="43.0318436" lon="11.7764505"><ele>577.6666666666666</ele><time>2026-04-26T13:58:15.191Z</time></trkpt><trkpt lat="43.0319156" lon="11.7764016"><ele>578.0</ele><time>2026-04-26T13:58:16.187Z</time></trkpt><trkpt lat="43.0319818" lon="11.7763569"><ele>578.0</ele><time>2026-04-26T13:58:17.194Z</time></trkpt><trkpt lat="43.0320744" lon="11.7763669"><ele>578.0</ele><time>2026-04-26T13:58:19.196Z</time></trkpt><trkpt lat="43.0321489" lon="11.776465"><ele>578.0</ele><time>2026-04-26T13:58:21.189Z</time></trkpt><trkpt lat="43.03222" lon="11.7765214"><ele>578.0</ele><time>2026-04-26T13:58:23.182Z</time></trkpt><trkpt lat="43.0322995" lon="11.7764929"><ele>578.0</ele><time>2026-04-26T13:58:25.187Z</time></trkpt><trkpt lat="43.0323951" lon="11.776397"><ele>578.0</ele><time>2026-04-26T13:58:27.194Z</time></trkpt><trkpt lat="43.0324498" lon="11.7763341"><ele>578.0</ele><time>2026-04-26T13:58:28.192Z</time></trkpt><trkpt lat="43.0325078" lon="11.7762721"><ele>578.0</ele><time>2026-04-26T13:58:29.2Z</time></trkpt><trkpt lat="43.0325699" lon="11.7762052"><ele>578.0</ele><time>2026-04-26T13:58:30.193Z</time></trkpt><trkpt lat="43.0326317" lon="11.77613"><ele>578.0</ele><time>2026-04-26T13:58:31.199Z</time></trkpt><trkpt lat="43.0326894" lon="11.7760604"><ele>578.0</ele><time>2026-04-26T13:58:32.196Z</time></trkpt><trkpt lat="43.0327473" lon="11.7759899"><ele>578.0</ele><time>2026-04-26T13:58:33.198Z</time></trkpt><trkpt lat="43.0328069" lon="11.7759214"><ele>578.0</ele><time>2026-04-26T13:58:34.192Z</time></trkpt><trkpt lat="43.032876" lon="11.7758706"><ele>578.0</ele><time>2026-04-26T13:58:35.18Z</time></trkpt><trkpt lat="43.0329513" lon="11.7758358"><ele>578.0</ele><time>2026-04-26T13:58:36.198Z</time></trkpt><trkpt lat="43.0330437" lon="11.7758219"><ele>578.0</ele><time>2026-04-26T13:58:37.195Z</time></trkpt><trkpt lat="43.0331358" lon="11.775805"><ele>578.0</ele><time>2026-04-26T13:58:38.195Z</time></trkpt><trkpt lat="43.0332206" lon="11.7757888"><ele>578.0</ele><time>2026-04-26T13:58:39.188Z</time></trkpt><trkpt lat="43.0333036" lon="11.7757716"><ele>578.0</ele><time>2026-04-26T13:58:40.191Z</time></trkpt><trkpt lat="43.0333874" lon="11.7757477"><ele>578.0</ele><time>2026-04-26T13:58:41.201Z</time></trkpt><trkpt lat="43.0334685" lon="11.7757281"><ele>578.0</ele><time>2026-04-26T13:58:42.185Z</time></trkpt><trkpt lat="43.0335519" lon="11.7757394"><ele>578.0</ele><time>2026-04-26T13:58:43.189Z</time></trkpt><trkpt lat="43.0336316" lon="11.7757537"><ele>578.0</ele><time>2026-04-26T13:58:44.184Z</time></trkpt><trkpt lat="43.0337082" lon="11.7758162"><ele>576.8</ele><time>2026-04-26T13:58:45.194Z</time></trkpt><trkpt lat="43.0337766" lon="11.7759257"><ele>575.5999999999999</ele><time>2026-04-26T13:58:46.196Z</time></trkpt><trkpt lat="43.0338271" lon="11.77605"><ele>574.4000000000001</ele><time>2026-04-26T13:58:47.191Z</time></trkpt><trkpt lat="43.0338642" lon="11.7761847"><ele>573.2</ele><time>2026-04-26T13:58:48.193Z</time></trkpt><trkpt lat="43.0338915" lon="11.7763242"><ele>572.0</ele><time>2026-04-26T13:58:49.195Z</time></trkpt><trkpt lat="43.0339094" lon="11.776467"><ele>570.75</ele><time>2026-04-26T13:58:50.185Z</time></trkpt><trkpt lat="43.0339259" lon="11.7766168"><ele>569.5</ele><time>2026-04-26T13:58:51.197Z</time></trkpt><trkpt lat="43.0339245" lon="11.7767754"><ele>568.25</ele><time>2026-04-26T13:58:52.2Z</time></trkpt><trkpt lat="43.0339201" lon="11.7769365"><ele>567.0</ele><time>2026-04-26T13:58:53.196Z</time></trkpt><trkpt lat="43.0339162" lon="11.7770974"><ele>567.0</ele><time>2026-04-26T13:58:54.199Z</time></trkpt><trkpt lat="43.0339175" lon="11.7772589"><ele>567.0</ele><time>2026-04-26T13:58:55.185Z</time></trkpt><trkpt lat="43.0339257" lon="11.7774229"><ele>567.0</ele><time>2026-04-26T13:58:56.186Z</time></trkpt><trkpt lat="43.0339375" lon="11.7775875"><ele>567.0</ele><time>2026-04-26T13:58:57.189Z</time></trkpt><trkpt lat="43.033953" lon="11.7777526"><ele>567.5</ele><time>2026-04-26T13:58:58.191Z</time></trkpt><trkpt lat="43.0339684" lon="11.7779216"><ele>568.0</ele><time>2026-04-26T13:58:59.185Z</time></trkpt><trkpt lat="43.033984" lon="11.7780919"><ele>568.5</ele><time>2026-04-26T13:59:00.191Z</time></trkpt><trkpt lat="43.0340018" lon="11.7782631"><ele>569.0</ele><time>2026-04-26T13:59:01.176Z</time></trkpt><trkpt lat="43.0340271" lon="11.7784373"><ele>569.75</ele><time>2026-04-26T13:59:02.194Z</time></trkpt><trkpt lat="43.0340566" lon="11.7786136"><ele>570.5</ele><time>2026-04-26T13:59:03.186Z</time></trkpt><trkpt lat="43.0340907" lon="11.7787909"><ele>571.25</ele><time>2026-04-26T13:59:04.182Z</time></trkpt><trkpt lat="43.0341283" lon="11.7789699"><ele>572.0</ele><time>2026-04-26T13:59:05.182Z</time></trkpt><trkpt lat="43.0341678" lon="11.7791484"><ele>575.0</ele><time>2026-04-26T13:59:06.199Z</time></trkpt><trkpt lat="43.0342094" lon="11.7793278"><ele>578.0</ele><time>2026-04-26T13:59:07.183Z</time></trkpt><trkpt lat="43.034255" lon="11.7795065"><ele>581.0</ele><time>2026-04-26T13:59:08.189Z</time></trkpt><trkpt lat="43.0343044" lon="11.7796805"><ele>584.0</ele><time>2026-04-26T13:59:09.186Z</time></trkpt><trkpt lat="43.034353" lon="11.7798503"><ele>585.5</ele><time>2026-04-26T13:59:10.182Z</time></trkpt><trkpt lat="43.0344027" lon="11.7800161"><ele>587.0</ele><time>2026-04-26T13:59:11.181Z</time></trkpt><trkpt lat="43.0344572" lon="11.7801758"><ele>588.5</ele><time>2026-04-26T13:59:12.182Z</time></trkpt><trkpt lat="43.0345212" lon="11.7803252"><ele>590.0</ele><time>2026-04-26T13:59:13.189Z</time></trkpt><trkpt lat="43.0345954" lon="11.7804651"><ele>591.75</ele><time>2026-04-26T13:59:14.183Z</time></trkpt><trkpt lat="43.0346816" lon="11.7805934"><ele>593.5</ele><time>2026-04-26T13:59:15.188Z</time></trkpt><trkpt lat="43.0347789" lon="11.7807059"><ele>595.25</ele><time>2026-04-26T13:59:16.193Z</time></trkpt><trkpt lat="43.0348857" lon="11.7807995"><ele>597.0</ele><time>2026-04-26T13:59:17.205Z</time></trkpt><trkpt lat="43.034999" lon="11.7808797"><ele>598.0</ele><time>2026-04-26T13:59:18.19Z</time></trkpt><trkpt lat="43.0351145" lon="11.7809499"><ele>599.0</ele><time>2026-04-26T13:59:19.192Z</time></trkpt><trkpt lat="43.0352321" lon="11.781011"><ele>600.0</ele><time>2026-04-26T13:59:20.2Z</time></trkpt><trkpt lat="43.0353527" lon="11.7810645"><ele>601.0</ele><time>2026-04-26T13:59:21.181Z</time></trkpt><trkpt lat="43.0354769" lon="11.7811123"><ele>603.75</ele><time>2026-04-26T13:59:22.195Z</time></trkpt><trkpt lat="43.0356008" lon="11.781165"><ele>606.5</ele><time>2026-04-26T13:59:23.201Z</time></trkpt><trkpt lat="43.0357323" lon="11.7811934"><ele>609.25</ele><time>2026-04-26T13:59:24.2Z</time></trkpt><trkpt lat="43.035863" lon="11.7812126"><ele>612.0</ele><time>2026-04-26T13:59:25.201Z</time></trkpt><trkpt lat="43.0359906" lon="11.7812233"><ele>613.0</ele><time>2026-04-26T13:59:26.203Z</time></trkpt><trkpt lat="43.0361138" lon="11.7812303"><ele>614.0</ele><time>2026-04-26T13:59:27.197Z</time></trkpt><trkpt lat="43.036225" lon="11.7812368"><ele>615.0</ele><time>2026-04-26T13:59:28.194Z</time></trkpt><trkpt lat="43.0363325" lon="11.7812429"><ele>616.0</ele><time>2026-04-26T13:59:29.201Z</time></trkpt><trkpt lat="43.0364349" lon="11.7812327"><ele>617.0</ele><time>2026-04-26T13:59:30.196Z</time></trkpt><trkpt lat="43.0365376" lon="11.7812142"><ele>617.0</ele><time>2026-04-26T13:59:31.194Z</time></trkpt><trkpt lat="43.036632" lon="11.7811721"><ele>617.0</ele><time>2026-04-26T13:59:32.201Z</time></trkpt><trkpt lat="43.0367237" lon="11.7811192"><ele>617.0</ele><time>2026-04-26T13:59:33.198Z</time></trkpt><trkpt lat="43.0368163" lon="11.7810654"><ele>617.0</ele><time>2026-04-26T13:59:34.184Z</time></trkpt><trkpt lat="43.0369079" lon="11.7810098"><ele>617.0</ele><time>2026-04-26T13:59:35.195Z</time></trkpt><trkpt lat="43.0369969" lon="11.7809577"><ele>616.2</ele><time>2026-04-26T13:59:36.184Z</time></trkpt><trkpt lat="43.0370865" lon="11.780905"><ele>615.4000000000001</ele><time>2026-04-26T13:59:37.197Z</time></trkpt><trkpt lat="43.0371728" lon="11.7808497"><ele>614.5999999999999</ele><time>2026-04-26T13:59:38.2Z</time></trkpt><trkpt lat="43.0372605" lon="11.7807955"><ele>613.8</ele><time>2026-04-26T13:59:39.204Z</time></trkpt><trkpt lat="43.0373489" lon="11.7807404"><ele>613.0</ele><time>2026-04-26T13:59:40.2Z</time></trkpt><trkpt lat="43.0374384" lon="11.7806844"><ele>614.8</ele><time>2026-04-26T13:59:41.196Z</time></trkpt><trkpt lat="43.0375293" lon="11.78063"><ele>616.5999999999999</ele><time>2026-04-26T13:59:42.2Z</time></trkpt><trkpt lat="43.037625" lon="11.7805772"><ele>618.4000000000001</ele><time>2026-04-26T13:59:43.195Z</time></trkpt><trkpt lat="43.0377237" lon="11.7805259"><ele>620.2</ele><time>2026-04-26T13:59:44.186Z</time></trkpt><trkpt lat="43.0378241" lon="11.7804745"><ele>622.0</ele><time>2026-04-26T13:59:45.187Z</time></trkpt><trkpt lat="43.0379273" lon="11.7804195"><ele>622.0</ele><time>2026-04-26T13:59:46.198Z</time></trkpt><trkpt lat="43.0380303" lon="11.7803639"><ele>622.0</ele><time>2026-04-26T13:59:47.185Z</time></trkpt><trkpt lat="43.0381342" lon="11.7803069"><ele>622.0</ele><time>2026-04-26T13:59:48.188Z</time></trkpt><trkpt lat="43.038236" lon="11.7802485"><ele>622.0</ele><time>2026-04-26T13:59:49.187Z</time></trkpt><trkpt lat="43.0383478" lon="11.780178"><ele>621.75</ele><time>2026-04-26T13:59:50.188Z</time></trkpt><trkpt lat="43.0384566" lon="11.7801085"><ele>621.5</ele><time>2026-04-26T13:59:51.191Z</time></trkpt><trkpt lat="43.0385636" lon="11.7800434"><ele>621.25</ele><time>2026-04-26T13:59:52.206Z</time></trkpt><trkpt lat="43.0386662" lon="11.7799807"><ele>621.0</ele><time>2026-04-26T13:59:53.183Z</time></trkpt><trkpt lat="43.0387584" lon="11.7799182"><ele>621.0</ele><time>2026-04-26T13:59:54.201Z</time></trkpt><trkpt lat="43.0388412" lon="11.7798482"><ele>621.0</ele><time>2026-04-26T13:59:55.185Z</time></trkpt><trkpt lat="43.0389159" lon="11.7797653"><ele>621.0</ele><time>2026-04-26T13:59:56.189Z</time></trkpt><trkpt lat="43.0389793" lon="11.7796637"><ele>621.0</ele><time>2026-04-26T13:59:57.182Z</time></trkpt><trkpt lat="43.0390244" lon="11.7795463"><ele>621.0</ele><time>2026-04-26T13:59:58.194Z</time></trkpt><trkpt lat="43.0390452" lon="11.7794184"><ele>620.8</ele><time>2026-04-26T13:59:59.194Z</time></trkpt><trkpt lat="43.0390447" lon="11.7792865"><ele>620.6</ele><time>2026-04-26T14:00:00.181Z</time></trkpt><trkpt lat="43.039043" lon="11.7791522"><ele>620.4</ele><time>2026-04-26T14:00:01.185Z</time></trkpt><trkpt lat="43.0390108" lon="11.7790124"><ele>620.2</ele><time>2026-04-26T14:00:02.192Z</time></trkpt><trkpt lat="43.0389669" lon="11.7788743"><ele>620.0</ele><time>2026-04-26T14:00:03.196Z</time></trkpt><trkpt lat="43.0389197" lon="11.7787385"><ele>620.0</ele><time>2026-04-26T14:00:04.197Z</time></trkpt><trkpt lat="43.0388753" lon="11.7786047"><ele>620.0</ele><time>2026-04-26T14:00:05.2Z</time></trkpt><trkpt lat="43.0388301" lon="11.7784737"><ele>620.0</ele><time>2026-04-26T14:00:06.199Z</time></trkpt><trkpt lat="43.0387834" lon="11.7783443"><ele>620.0</ele><time>2026-04-26T14:00:07.196Z</time></trkpt><trkpt lat="43.0387376" lon="11.7782155"><ele>620.0</ele><time>2026-04-26T14:00:08.197Z</time></trkpt><trkpt lat="43.0386966" lon="11.7780913"><ele>621.5</ele><time>2026-04-26T14:00:09.198Z</time></trkpt><trkpt lat="43.0386629" lon="11.777975"><ele>623.0</ele><time>2026-04-26T14:00:10.203Z</time></trkpt><trkpt lat="43.0386448" lon="11.7778617"><ele>624.5</ele><time>2026-04-26T14:00:11.198Z</time></trkpt><trkpt lat="43.0386485" lon="11.777756"><ele>626.0</ele><time>2026-04-26T14:00:12.193Z</time></trkpt><trkpt lat="43.0386722" lon="11.7776662"><ele>627.5</ele><time>2026-04-26T14:00:13.183Z</time></trkpt><trkpt lat="43.0387173" lon="11.7775944"><ele>629.0</ele><time>2026-04-26T14:00:14.183Z</time></trkpt><trkpt lat="43.0387811" lon="11.777548"><ele>630.2</ele><time>2026-04-26T14:00:15.195Z</time></trkpt><trkpt lat="43.0388563" lon="11.7775238"><ele>631.4</ele><time>2026-04-26T14:00:16.194Z</time></trkpt><trkpt lat="43.0389379" lon="11.7775171"><ele>632.6</ele><time>2026-04-26T14:00:17.202Z</time></trkpt><trkpt lat="43.0390242" lon="11.7775125"><ele>633.8</ele><time>2026-04-26T14:00:18.198Z</time></trkpt><trkpt lat="43.039124" lon="11.7775229"><ele>635.0</ele><time>2026-04-26T14:00:19.194Z</time></trkpt><trkpt lat="43.0392321" lon="11.7775304"><ele>636.75</ele><time>2026-04-26T14:00:20.19Z</time></trkpt><trkpt lat="43.0393474" lon="11.7775398"><ele>638.5</ele><time>2026-04-26T14:00:21.193Z</time></trkpt><trkpt lat="43.0394715" lon="11.7775539"><ele>640.25</ele><time>2026-04-26T14:00:22.183Z</time></trkpt><trkpt lat="43.0396043" lon="11.7775742"><ele>642.0</ele><time>2026-04-26T14:00:23.191Z</time></trkpt><trkpt lat="43.0397381" lon="11.7775978"><ele>642.0</ele><time>2026-04-26T14:00:24.194Z</time></trkpt><trkpt lat="43.0398723" lon="11.7776211"><ele>642.0</ele><time>2026-04-26T14:00:25.199Z</time></trkpt><trkpt lat="43.0400022" lon="11.7776394"><ele>642.0</ele><time>2026-04-26T14:00:26.187Z</time></trkpt><trkpt lat="43.0401306" lon="11.7776456"><ele>642.0</ele><time>2026-04-26T14:00:27.204Z</time></trkpt><trkpt lat="43.0402551" lon="11.7776338"><ele>641.5</ele><time>2026-04-26T14:00:28.187Z</time></trkpt><trkpt lat="43.0403746" lon="11.7775975"><ele>641.0</ele><time>2026-04-26T14:00:29.203Z</time></trkpt><trkpt lat="43.040491" lon="11.7775579"><ele>640.5</ele><time>2026-04-26T14:00:30.186Z</time></trkpt><trkpt lat="43.040593" lon="11.7774766"><ele>640.0</ele><time>2026-04-26T14:00:31.194Z</time></trkpt><trkpt lat="43.0406924" lon="11.7773896"><ele>640.0</ele><time>2026-04-26T14:00:32.198Z</time></trkpt><trkpt lat="43.0407904" lon="11.7773021"><ele>640.0</ele><time>2026-04-26T14:00:33.205Z</time></trkpt><trkpt lat="43.0408874" lon="11.7772185"><ele>640.0</ele><time>2026-04-26T14:00:34.183Z</time></trkpt><trkpt lat="43.0409855" lon="11.7771415"><ele>640.0</ele><time>2026-04-26T14:00:35.197Z</time></trkpt><trkpt lat="43.0410845" lon="11.7770733"><ele>641.8</ele><time>2026-04-26T14:00:36.183Z</time></trkpt><trkpt lat="43.0411813" lon="11.7770221"><ele>643.6</ele><time>2026-04-26T14:00:37.182Z</time></trkpt><trkpt lat="43.0412779" lon="11.7769928"><ele>645.4000000000001</ele><time>2026-04-26T14:00:38.199Z</time></trkpt><trkpt lat="43.041377" lon="11.7769926"><ele>647.2</ele><time>2026-04-26T14:00:39.194Z</time></trkpt><trkpt lat="43.0414756" lon="11.7769932"><ele>649.0</ele><time>2026-04-26T14:00:40.197Z</time></trkpt><trkpt lat="43.0415698" lon="11.7770269"><ele>648.4000000000001</ele><time>2026-04-26T14:00:41.203Z</time></trkpt><trkpt lat="43.0416661" lon="11.7770783"><ele>647.8</ele><time>2026-04-26T14:00:42.187Z</time></trkpt><trkpt lat="43.0417668" lon="11.7771448"><ele>647.2</ele><time>2026-04-26T14:00:43.192Z</time></trkpt><trkpt lat="43.0418662" lon="11.7772151"><ele>646.5999999999999</ele><time>2026-04-26T14:00:44.189Z</time></trkpt><trkpt lat="43.0419722" lon="11.7772889"><ele>646.0</ele><time>2026-04-26T14:00:45.183Z</time></trkpt><trkpt lat="43.0420793" lon="11.7773613"><ele>646.0</ele><time>2026-04-26T14:00:46.199Z</time></trkpt><trkpt lat="43.0421903" lon="11.7774313"><ele>646.0</ele><time>2026-04-26T14:00:47.186Z</time></trkpt><trkpt lat="43.0422992" lon="11.7774953"><ele>646.0</ele><time>2026-04-26T14:00:48.186Z</time></trkpt><trkpt lat="43.0424089" lon="11.7775511"><ele>646.0</ele><time>2026-04-26T14:00:49.205Z</time></trkpt><trkpt lat="43.0425202" lon="11.7775965"><ele>644.75</ele><time>2026-04-26T14:00:50.193Z</time></trkpt><trkpt lat="43.0426325" lon="11.7776405"><ele>643.5</ele><time>2026-04-26T14:00:51.209Z</time></trkpt><trkpt lat="43.0427445" lon="11.7776714"><ele>642.25</ele><time>2026-04-26T14:00:52.203Z</time></trkpt><trkpt lat="43.0428544" lon="11.7776963"><ele>641.0</ele><time>2026-04-26T14:00:53.199Z</time></trkpt><trkpt lat="43.0429653" lon="11.7777162"><ele>641.0</ele><time>2026-04-26T14:00:54.187Z</time></trkpt><trkpt lat="43.0430747" lon="11.7777282"><ele>641.0</ele><time>2026-04-26T14:00:55.184Z</time></trkpt><trkpt lat="43.0431827" lon="11.7777287"><ele>641.0</ele><time>2026-04-26T14:00:56.189Z</time></trkpt><trkpt lat="43.04329" lon="11.7777279"><ele>641.0</ele><time>2026-04-26T14:00:57.189Z</time></trkpt><trkpt lat="43.0433979" lon="11.7777112"><ele>641.0</ele><time>2026-04-26T14:00:58.191Z</time></trkpt><trkpt lat="43.043504" lon="11.7776866"><ele>640.0</ele><time>2026-04-26T14:00:59.194Z</time></trkpt><trkpt lat="43.0436078" lon="11.7776477"><ele>639.0</ele><time>2026-04-26T14:01:00.189Z</time></trkpt><trkpt lat="43.0437079" lon="11.7775944"><ele>638.0</ele><time>2026-04-26T14:01:01.203Z</time></trkpt><trkpt lat="43.0438055" lon="11.7775296"><ele>637.0</ele><time>2026-04-26T14:01:02.201Z</time></trkpt><trkpt lat="43.0438984" lon="11.777459"><ele>636.0</ele><time>2026-04-26T14:01:03.211Z</time></trkpt><trkpt lat="43.0439858" lon="11.7773935"><ele>636.0</ele><time>2026-04-26T14:01:04.193Z</time></trkpt><trkpt lat="43.0440689" lon="11.7773322"><ele>636.0</ele><time>2026-04-26T14:01:05.193Z</time></trkpt><trkpt lat="43.0441459" lon="11.7772704"><ele>636.0</ele><time>2026-04-26T14:01:06.187Z</time></trkpt><trkpt lat="43.0442178" lon="11.7772063"><ele>636.0</ele><time>2026-04-26T14:01:07.183Z</time></trkpt><trkpt lat="43.0442869" lon="11.7771366"><ele>636.0</ele><time>2026-04-26T14:01:08.202Z</time></trkpt><trkpt lat="43.0443531" lon="11.7770604"><ele>636.0</ele><time>2026-04-26T14:01:09.202Z</time></trkpt><trkpt lat="43.0444173" lon="11.7769763"><ele>636.0</ele><time>2026-04-26T14:01:10.197Z</time></trkpt><trkpt lat="43.0444818" lon="11.7768874"><ele>636.0</ele><time>2026-04-26T14:01:11.202Z</time></trkpt><trkpt lat="43.0445462" lon="11.7767999"><ele>636.0</ele><time>2026-04-26T14:01:12.187Z</time></trkpt><trkpt lat="43.0446113" lon="11.7767128"><ele>636.0</ele><time>2026-04-26T14:01:13.196Z</time></trkpt><trkpt lat="43.0446804" lon="11.7766193"><ele>636.0</ele><time>2026-04-26T14:01:14.196Z</time></trkpt><trkpt lat="43.0447529" lon="11.7765192"><ele>636.0</ele><time>2026-04-26T14:01:15.194Z</time></trkpt><trkpt lat="43.0448287" lon="11.7764169"><ele>636.0</ele><time>2026-04-26T14:01:16.19Z</time></trkpt><trkpt lat="43.0449084" lon="11.7763107"><ele>636.0</ele><time>2026-04-26T14:01:17.192Z</time></trkpt><trkpt lat="43.0449871" lon="11.7762019"><ele>636.0</ele><time>2026-04-26T14:01:18.202Z</time></trkpt><trkpt lat="43.045068" lon="11.7760895"><ele>636.0</ele><time>2026-04-26T14:01:19.19Z</time></trkpt><trkpt lat="43.0451525" lon="11.7759816"><ele>636.75</ele><time>2026-04-26T14:01:20.201Z</time></trkpt><trkpt lat="43.045247" lon="11.7758851"><ele>637.5</ele><time>2026-04-26T14:01:21.199Z</time></trkpt><trkpt lat="43.0453503" lon="11.7758036"><ele>638.25</ele><time>2026-04-26T14:01:22.188Z</time></trkpt><trkpt lat="43.0454614" lon="11.7757417"><ele>639.0</ele><time>2026-04-26T14:01:23.189Z</time></trkpt><trkpt lat="43.0455758" lon="11.7757068"><ele>639.0</ele><time>2026-04-26T14:01:24.202Z</time></trkpt><trkpt lat="43.0456902" lon="11.7756877"><ele>639.0</ele><time>2026-04-26T14:01:25.199Z</time></trkpt><trkpt lat="43.0457997" lon="11.7756689"><ele>639.0</ele><time>2026-04-26T14:01:26.196Z</time></trkpt><trkpt lat="43.0459046" lon="11.7756516"><ele>639.0</ele><time>2026-04-26T14:01:27.208Z</time></trkpt><trkpt lat="43.0460073" lon="11.7756348"><ele>639.0</ele><time>2026-04-26T14:01:28.196Z</time></trkpt><trkpt lat="43.0461106" lon="11.7756189"><ele>638.4</ele><time>2026-04-26T14:01:29.195Z</time></trkpt><trkpt lat="43.0462135" lon="11.7756033"><ele>637.8</ele><time>2026-04-26T14:01:30.208Z</time></trkpt><trkpt lat="43.0463188" lon="11.7755864"><ele>637.2</ele><time>2026-04-26T14:01:31.202Z</time></trkpt><trkpt lat="43.0464177" lon="11.7755646"><ele>636.6</ele><time>2026-04-26T14:01:32.206Z</time></trkpt><trkpt lat="43.0465099" lon="11.7755369"><ele>636.0</ele><time>2026-04-26T14:01:33.199Z</time></trkpt><trkpt lat="43.0465966" lon="11.7755035"><ele>635.8</ele><time>2026-04-26T14:01:34.203Z</time></trkpt><trkpt lat="43.0466773" lon="11.7754581"><ele>635.6</ele><time>2026-04-26T14:01:35.204Z</time></trkpt><trkpt lat="43.0467526" lon="11.7753943"><ele>635.4</ele><time>2026-04-26T14:01:36.197Z</time></trkpt><trkpt lat="43.0468233" lon="11.7753147"><ele>635.2</ele><time>2026-04-26T14:01:37.199Z</time></trkpt><trkpt lat="43.046891" lon="11.7752258"><ele>635.0</ele><time>2026-04-26T14:01:38.198Z</time></trkpt><trkpt lat="43.0469589" lon="11.7751322"><ele>635.8</ele><time>2026-04-26T14:01:39.203Z</time></trkpt><trkpt lat="43.0470278" lon="11.7750373"><ele>636.6</ele><time>2026-04-26T14:01:40.2Z</time></trkpt><trkpt lat="43.0470946" lon="11.7749441"><ele>637.4</ele><time>2026-04-26T14:01:41.202Z</time></trkpt><trkpt lat="43.0471609" lon="11.7748503"><ele>638.2</ele><time>2026-04-26T14:01:42.201Z</time></trkpt><trkpt lat="43.0472314" lon="11.7747563"><ele>639.0</ele><time>2026-04-26T14:01:43.186Z</time></trkpt><trkpt lat="43.0473097" lon="11.7746693"><ele>639.0</ele><time>2026-04-26T14:01:44.201Z</time></trkpt><trkpt lat="43.0473974" lon="11.7745949"><ele>639.0</ele><time>2026-04-26T14:01:45.188Z</time></trkpt><trkpt lat="43.0474924" lon="11.7745329"><ele>639.0</ele><time>2026-04-26T14:01:46.187Z</time></trkpt><trkpt lat="43.047594" lon="11.7744827"><ele>639.0</ele><time>2026-04-26T14:01:47.195Z</time></trkpt><trkpt lat="43.047702" lon="11.7744422"><ele>639.0</ele><time>2026-04-26T14:01:48.187Z</time></trkpt><trkpt lat="43.0478153" lon="11.7744085"><ele>637.25</ele><time>2026-04-26T14:01:49.198Z</time></trkpt><trkpt lat="43.047931" lon="11.7743802"><ele>635.5</ele><time>2026-04-26T14:01:50.197Z</time></trkpt><trkpt lat="43.0480483" lon="11.7743558"><ele>633.75</ele><time>2026-04-26T14:01:51.193Z</time></trkpt><trkpt lat="43.0481664" lon="11.7743341"><ele>632.0</ele><time>2026-04-26T14:01:52.188Z</time></trkpt><trkpt lat="43.048282" lon="11.7743153"><ele>629.5</ele><time>2026-04-26T14:01:53.194Z</time></trkpt><trkpt lat="43.0483957" lon="11.7742972"><ele>627.0</ele><time>2026-04-26T14:01:54.194Z</time></trkpt><trkpt lat="43.0485103" lon="11.7742825"><ele>624.5</ele><time>2026-04-26T14:01:55.201Z</time></trkpt><trkpt lat="43.0486248" lon="11.7742762"><ele>622.0</ele><time>2026-04-26T14:01:56.189Z</time></trkpt><trkpt lat="43.0487396" lon="11.7742717"><ele>622.0</ele><time>2026-04-26T14:01:57.206Z</time></trkpt><trkpt lat="43.0488528" lon="11.7742884"><ele>622.0</ele><time>2026-04-26T14:01:58.201Z</time></trkpt><trkpt lat="43.0489671" lon="11.7743129"><ele>622.0</ele><time>2026-04-26T14:01:59.186Z</time></trkpt><trkpt lat="43.049082" lon="11.7743413"><ele>622.0</ele><time>2026-04-26T14:02:00.185Z</time></trkpt><trkpt lat="43.0491968" lon="11.7743723"><ele>622.25</ele><time>2026-04-26T14:02:01.183Z</time></trkpt><trkpt lat="43.0493113" lon="11.7744046"><ele>622.5</ele><time>2026-04-26T14:02:02.207Z</time></trkpt><trkpt lat="43.0494253" lon="11.7744371"><ele>622.75</ele><time>2026-04-26T14:02:03.196Z</time></trkpt><trkpt lat="43.0495356" lon="11.774467"><ele>623.0</ele><time>2026-04-26T14:02:04.19Z</time></trkpt><trkpt lat="43.0496436" lon="11.7744912"><ele>623.0</ele><time>2026-04-26T14:02:05.204Z</time></trkpt><trkpt lat="43.0497516" lon="11.774517"><ele>623.0</ele><time>2026-04-26T14:02:06.194Z</time></trkpt><trkpt lat="43.0498586" lon="11.7745463"><ele>623.0</ele><time>2026-04-26T14:02:07.186Z</time></trkpt><trkpt lat="43.0499587" lon="11.7745758"><ele>623.0</ele><time>2026-04-26T14:02:08.203Z</time></trkpt><trkpt lat="43.0500566" lon="11.7746044"><ele>623.0</ele><time>2026-04-26T14:02:09.197Z</time></trkpt><trkpt lat="43.0501517" lon="11.774634"><ele>622.6</ele><time>2026-04-26T14:02:10.203Z</time></trkpt><trkpt lat="43.0502495" lon="11.7746676"><ele>622.1999999999999</ele><time>2026-04-26T14:02:11.188Z</time></trkpt><trkpt lat="43.0503509" lon="11.7747042"><ele>621.8</ele><time>2026-04-26T14:02:12.205Z</time></trkpt><trkpt lat="43.0504577" lon="11.774743"><ele>621.4</ele><time>2026-04-26T14:02:13.196Z</time></trkpt><trkpt lat="43.0505675" lon="11.7747811"><ele>621.0</ele><time>2026-04-26T14:02:14.185Z</time></trkpt><trkpt lat="43.0506801" lon="11.7748157"><ele>620.5</ele><time>2026-04-26T14:02:15.201Z</time></trkpt><trkpt lat="43.0507953" lon="11.7748487"><ele>620.0</ele><time>2026-04-26T14:02:16.2Z</time></trkpt><trkpt lat="43.0509116" lon="11.7748816"><ele>619.5</ele><time>2026-04-26T14:02:17.189Z</time></trkpt><trkpt lat="43.0510264" lon="11.7749137"><ele>619.0</ele><time>2026-04-26T14:02:18.197Z</time></trkpt><trkpt lat="43.0511349" lon="11.7749456"><ele>619.0</ele><time>2026-04-26T14:02:19.198Z</time></trkpt><trkpt lat="43.0512376" lon="11.7749762"><ele>619.0</ele><time>2026-04-26T14:02:20.186Z</time></trkpt><trkpt lat="43.0513355" lon="11.7750056"><ele>619.0</ele><time>2026-04-26T14:02:21.201Z</time></trkpt><trkpt lat="43.0514269" lon="11.7750336"><ele>619.0</ele><time>2026-04-26T14:02:22.189Z</time></trkpt><trkpt lat="43.0515127" lon="11.7750595"><ele>619.0</ele><time>2026-04-26T14:02:23.187Z</time></trkpt><trkpt lat="43.0515929" lon="11.775085"><ele>617.8</ele><time>2026-04-26T14:02:24.199Z</time></trkpt><trkpt lat="43.051668" lon="11.7751098"><ele>616.5999999999999</ele><time>2026-04-26T14:02:25.201Z</time></trkpt><trkpt lat="43.0517361" lon="11.7751255"><ele>615.4</ele><time>2026-04-26T14:02:26.187Z</time></trkpt><trkpt lat="43.0518408" lon="11.7750882"><ele>614.1999999999999</ele><time>2026-04-26T14:02:28.192Z</time></trkpt><trkpt lat="43.0518849" lon="11.7749178"><ele>613.0</ele><time>2026-04-26T14:02:30.189Z</time></trkpt><trkpt lat="43.0518731" lon="11.7747897"><ele>613.0</ele><time>2026-04-26T14:02:31.195Z</time></trkpt><trkpt lat="43.051857" lon="11.7746423"><ele>613.0</ele><time>2026-04-26T14:02:32.191Z</time></trkpt><trkpt lat="43.0518407" lon="11.774479"><ele>613.0</ele><time>2026-04-26T14:02:33.204Z</time></trkpt><trkpt lat="43.0518238" lon="11.7743146"><ele>613.0</ele><time>2026-04-26T14:02:34.191Z</time></trkpt><trkpt lat="43.0518082" lon="11.7741516"><ele>614.0</ele><time>2026-04-26T14:02:35.194Z</time></trkpt><trkpt lat="43.0517915" lon="11.7739827"><ele>615.0</ele><time>2026-04-26T14:02:36.192Z</time></trkpt><trkpt lat="43.0517746" lon="11.773807"><ele>616.0</ele><time>2026-04-26T14:02:37.185Z</time></trkpt><trkpt lat="43.0517557" lon="11.7736311"><ele>617.0</ele><time>2026-04-26T14:02:38.199Z</time></trkpt><trkpt lat="43.0517409" lon="11.7734609"><ele>617.75</ele><time>2026-04-26T14:02:39.193Z</time></trkpt><trkpt lat="43.0517252" lon="11.773289"><ele>618.5</ele><time>2026-04-26T14:02:40.193Z</time></trkpt><trkpt lat="43.0517067" lon="11.7731225"><ele>619.25</ele><time>2026-04-26T14:02:41.192Z</time></trkpt><trkpt lat="43.051685" lon="11.772958"><ele>620.0</ele><time>2026-04-26T14:02:42.196Z</time></trkpt><trkpt lat="43.0516561" lon="11.7727931"><ele>619.25</ele><time>2026-04-26T14:02:43.193Z</time></trkpt><trkpt lat="43.0516237" lon="11.7726229"><ele>618.5</ele><time>2026-04-26T14:02:44.187Z</time></trkpt><trkpt lat="43.0515894" lon="11.7724463"><ele>617.75</ele><time>2026-04-26T14:02:45.187Z</time></trkpt><trkpt lat="43.0515531" lon="11.7722485"><ele>617.0</ele><time>2026-04-26T14:02:46.204Z</time></trkpt><trkpt lat="43.0515097" lon="11.7720386"><ele>618.6666666666666</ele><time>2026-04-26T14:02:47.201Z</time></trkpt><trkpt lat="43.0514636" lon="11.7718124"><ele>620.3333333333334</ele><time>2026-04-26T14:02:48.198Z</time></trkpt><trkpt lat="43.0514163" lon="11.771584"><ele>622.0</ele><time>2026-04-26T14:02:49.189Z</time></trkpt><trkpt lat="43.0513673" lon="11.771353"><ele>622.0</ele><time>2026-04-26T14:02:50.185Z</time></trkpt><trkpt lat="43.051316" lon="11.7711352"><ele>622.0</ele><time>2026-04-26T14:02:51.187Z</time></trkpt><trkpt lat="43.0512239" lon="11.7709593"><ele>622.0</ele><time>2026-04-26T14:02:52.195Z</time></trkpt><trkpt lat="43.0511324" lon="11.7707831"><ele>621.6666666666667</ele><time>2026-04-26T14:02:53.2Z</time></trkpt><trkpt lat="43.0510735" lon="11.7705911"><ele>621.3333333333334</ele><time>2026-04-26T14:02:54.187Z</time></trkpt><trkpt lat="43.0510416" lon="11.770382"><ele>621.0</ele><time>2026-04-26T14:02:55.195Z</time></trkpt><trkpt lat="43.0510128" lon="11.77017"><ele>621.0</ele><time>2026-04-26T14:02:56.184Z</time></trkpt><trkpt lat="43.0509937" lon="11.769944"><ele>621.0</ele><time>2026-04-26T14:02:57.198Z</time></trkpt><trkpt lat="43.0509785" lon="11.7697173"><ele>621.0</ele><time>2026-04-26T14:02:58.196Z</time></trkpt><trkpt lat="43.0509609" lon="11.7694896"><ele>621.3333333333334</ele><time>2026-04-26T14:02:59.19Z</time></trkpt><trkpt lat="43.0509408" lon="11.7692669"><ele>621.6666666666667</ele><time>2026-04-26T14:03:00.198Z</time></trkpt><trkpt lat="43.0509192" lon="11.7690477"><ele>622.0</ele><time>2026-04-26T14:03:01.193Z</time></trkpt><trkpt lat="43.050896" lon="11.7688298"><ele>622.0</ele><time>2026-04-26T14:03:02.198Z</time></trkpt><trkpt lat="43.0508758" lon="11.7686081"><ele>622.0</ele><time>2026-04-26T14:03:03.197Z</time></trkpt><trkpt lat="43.0508544" lon="11.7683841"><ele>622.0</ele><time>2026-04-26T14:03:04.195Z</time></trkpt><trkpt lat="43.0508329" lon="11.7681562"><ele>622.3333333333334</ele><time>2026-04-26T14:03:05.194Z</time></trkpt><trkpt lat="43.0508123" lon="11.7679309"><ele>622.6666666666666</ele><time>2026-04-26T14:03:06.198Z</time></trkpt><trkpt lat="43.0507944" lon="11.7676982"><ele>623.0</ele><time>2026-04-26T14:03:07.186Z</time></trkpt><trkpt lat="43.0507786" lon="11.7674638"><ele>623.3333333333333</ele><time>2026-04-26T14:03:08.196Z</time></trkpt><trkpt lat="43.0507588" lon="11.7672304"><ele>623.6666666666666</ele><time>2026-04-26T14:03:09.201Z</time></trkpt><trkpt lat="43.0507374" lon="11.7669995"><ele>624.0</ele><time>2026-04-26T14:03:10.185Z</time></trkpt><trkpt lat="43.0507187" lon="11.7667659"><ele>624.0</ele><time>2026-04-26T14:03:11.183Z</time></trkpt><trkpt lat="43.0506996" lon="11.7665331"><ele>624.0</ele><time>2026-04-26T14:03:12.188Z</time></trkpt><trkpt lat="43.0506815" lon="11.7663008"><ele>624.0</ele><time>2026-04-26T14:03:13.2Z</time></trkpt><trkpt lat="43.0506629" lon="11.7660679"><ele>625.3333333333334</ele><time>2026-04-26T14:03:14.196Z</time></trkpt><trkpt lat="43.0506424" lon="11.7658367"><ele>626.6666666666667</ele><time>2026-04-26T14:03:15.203Z</time></trkpt><trkpt lat="43.0506224" lon="11.7656045"><ele>628.0</ele><time>2026-04-26T14:03:16.201Z</time></trkpt><trkpt lat="43.0506027" lon="11.7653745"><ele>630.3333333333334</ele><time>2026-04-26T14:03:17.198Z</time></trkpt><trkpt lat="43.0505823" lon="11.7651497"><ele>632.6666666666666</ele><time>2026-04-26T14:03:18.201Z</time></trkpt><trkpt lat="43.0505613" lon="11.7649311"><ele>635.0</ele><time>2026-04-26T14:03:19.198Z</time></trkpt><trkpt lat="43.0505421" lon="11.7647181"><ele>635.0</ele><time>2026-04-26T14:03:20.188Z</time></trkpt><trkpt lat="43.0505245" lon="11.7645108"><ele>635.0</ele><time>2026-04-26T14:03:21.186Z</time></trkpt><trkpt lat="43.0505089" lon="11.7643051"><ele>635.0</ele><time>2026-04-26T14:03:22.197Z</time></trkpt><trkpt lat="43.0504946" lon="11.7641016"><ele>637.0</ele><time>2026-04-26T14:03:23.203Z</time></trkpt><trkpt lat="43.0504798" lon="11.7639025"><ele>639.0</ele><time>2026-04-26T14:03:24.196Z</time></trkpt><trkpt lat="43.0504598" lon="11.7637106"><ele>641.0</ele><time>2026-04-26T14:03:25.194Z</time></trkpt><trkpt lat="43.0504397" lon="11.7635255"><ele>643.0</ele><time>2026-04-26T14:03:26.205Z</time></trkpt><trkpt lat="43.0503874" lon="11.7633494"><ele>644.0</ele><time>2026-04-26T14:03:27.186Z</time></trkpt><trkpt lat="43.0503125" lon="11.7631825"><ele>645.0</ele><time>2026-04-26T14:03:28.185Z</time></trkpt><trkpt lat="43.050221" lon="11.7630256"><ele>646.0</ele><time>2026-04-26T14:03:29.187Z</time></trkpt><trkpt lat="43.0501298" lon="11.7628716"><ele>647.0</ele><time>2026-04-26T14:03:30.19Z</time></trkpt><trkpt lat="43.0500395" lon="11.7627073"><ele>652.6666666666666</ele><time>2026-04-26T14:03:31.201Z</time></trkpt><trkpt lat="43.0499565" lon="11.7625296"><ele>658.3333333333334</ele><time>2026-04-26T14:03:32.199Z</time></trkpt><trkpt lat="43.0498742" lon="11.7623537"><ele>664.0</ele><time>2026-04-26T14:03:33.188Z</time></trkpt><trkpt lat="43.0498282" lon="11.7621498"><ele>664.0</ele><time>2026-04-26T14:03:34.187Z</time></trkpt><trkpt lat="43.0497901" lon="11.7619502"><ele>664.0</ele><time>2026-04-26T14:03:35.184Z</time></trkpt><trkpt lat="43.0497845" lon="11.7617358"><ele>664.0</ele><time>2026-04-26T14:03:36.194Z</time></trkpt><trkpt lat="43.0497854" lon="11.7615224"><ele>665.0</ele><time>2026-04-26T14:03:37.201Z</time></trkpt><trkpt lat="43.0497848" lon="11.7613114"><ele>666.0</ele><time>2026-04-26T14:03:38.182Z</time></trkpt><trkpt lat="43.049793" lon="11.7610951"><ele>667.0</ele><time>2026-04-26T14:03:39.185Z</time></trkpt><trkpt lat="43.0498238" lon="11.7608902"><ele>666.5</ele><time>2026-04-26T14:03:40.184Z</time></trkpt><trkpt lat="43.0498743" lon="11.7607253"><ele>666.0</ele><time>2026-04-26T14:03:41.197Z</time></trkpt><trkpt lat="43.049978" lon="11.7606422"><ele>665.5</ele><time>2026-04-26T14:03:42.185Z</time></trkpt><trkpt lat="43.0500716" lon="11.7605695"><ele>665.0</ele><time>2026-04-26T14:03:43.183Z</time></trkpt><trkpt lat="43.0501732" lon="11.7605669"><ele>665.0</ele><time>2026-04-26T14:03:44.192Z</time></trkpt><trkpt lat="43.0502655" lon="11.7605863"><ele>665.0</ele><time>2026-04-26T14:03:45.197Z</time></trkpt><trkpt lat="43.0503522" lon="11.7605424"><ele>665.0</ele><time>2026-04-26T14:03:46.176Z</time></trkpt><trkpt lat="43.0504053" lon="11.7604338"><ele>665.0</ele><time>2026-04-26T14:03:47.197Z</time></trkpt><trkpt lat="43.0504196" lon="11.760326"><ele>665.0</ele><time>2026-04-26T14:03:48.19Z</time></trkpt><trkpt lat="43.0503667" lon="11.7601793"><ele>667.0</ele><time>2026-04-26T14:03:49.204Z</time></trkpt><trkpt lat="43.0502839" lon="11.760034"><ele>669.0</ele><time>2026-04-26T14:03:50.186Z</time></trkpt><trkpt lat="43.0502155" lon="11.7598615"><ele>671.0</ele><time>2026-04-26T14:03:51.176Z</time></trkpt><trkpt lat="43.0501934" lon="11.7596496"><ele>673.0</ele><time>2026-04-26T14:03:52.196Z</time></trkpt><trkpt lat="43.0502016" lon="11.7594256"><ele>674.0</ele><time>2026-04-26T14:03:53.192Z</time></trkpt><trkpt lat="43.0502174" lon="11.7592049"><ele>675.0</ele><time>2026-04-26T14:03:54.196Z</time></trkpt><trkpt lat="43.0502368" lon="11.7589919"><ele>676.0</ele><time>2026-04-26T14:03:55.196Z</time></trkpt><trkpt lat="43.0502745" lon="11.7587865"><ele>676.0</ele><time>2026-04-26T14:03:56.19Z</time></trkpt><trkpt lat="43.0503224" lon="11.7585804"><ele>676.0</ele><time>2026-04-26T14:03:57.197Z</time></trkpt><trkpt lat="43.0503635" lon="11.7583743"><ele>676.0</ele><time>2026-04-26T14:03:58.187Z</time></trkpt><trkpt lat="43.0503998" lon="11.7581858"><ele>676.25</ele><time>2026-04-26T14:03:59.185Z</time></trkpt><trkpt lat="43.0503987" lon="11.758004"><ele>676.5</ele><time>2026-04-26T14:04:00.194Z</time></trkpt><trkpt lat="43.0504003" lon="11.7578271"><ele>676.75</ele><time>2026-04-26T14:04:01.188Z</time></trkpt><trkpt lat="43.0504101" lon="11.7576521"><ele>677.0</ele><time>2026-04-26T14:04:02.187Z</time></trkpt><trkpt lat="43.0504674" lon="11.7574775"><ele>674.75</ele><time>2026-04-26T14:04:03.195Z</time></trkpt><trkpt lat="43.0505005" lon="11.7572851"><ele>672.5</ele><time>2026-04-26T14:04:04.188Z</time></trkpt><trkpt lat="43.0505233" lon="11.7570928"><ele>670.25</ele><time>2026-04-26T14:04:05.195Z</time></trkpt><trkpt lat="43.0505639" lon="11.7569101"><ele>668.0</ele><time>2026-04-26T14:04:06.204Z</time></trkpt><trkpt lat="43.0506344" lon="11.7567319"><ele>666.75</ele><time>2026-04-26T14:04:07.199Z</time></trkpt><trkpt lat="43.0507165" lon="11.7565591"><ele>665.5</ele><time>2026-04-26T14:04:08.197Z</time></trkpt><trkpt lat="43.0508045" lon="11.7563997"><ele>664.25</ele><time>2026-04-26T14:04:09.204Z</time></trkpt><trkpt lat="43.0509066" lon="11.756261"><ele>663.0</ele><time>2026-04-26T14:04:10.195Z</time></trkpt><trkpt lat="43.0510218" lon="11.756143"><ele>660.5</ele><time>2026-04-26T14:04:11.2Z</time></trkpt><trkpt lat="43.0511418" lon="11.7560336"><ele>658.0</ele><time>2026-04-26T14:04:12.2Z</time></trkpt><trkpt lat="43.0512625" lon="11.7559264"><ele>655.5</ele><time>2026-04-26T14:04:13.187Z</time></trkpt><trkpt lat="43.0513783" lon="11.7558159"><ele>653.0</ele><time>2026-04-26T14:04:14.184Z</time></trkpt><trkpt lat="43.0514887" lon="11.7556977"><ele>653.0</ele><time>2026-04-26T14:04:15.179Z</time></trkpt><trkpt lat="43.0515754" lon="11.755552"><ele>653.0</ele><time>2026-04-26T14:04:16.191Z</time></trkpt><trkpt lat="43.0516241" lon="11.755375"><ele>653.0</ele><time>2026-04-26T14:04:17.182Z</time></trkpt><trkpt lat="43.0516635" lon="11.7551978"><ele>653.0</ele><time>2026-04-26T14:04:18.201Z</time></trkpt><trkpt lat="43.0516548" lon="11.7550249"><ele>650.0</ele><time>2026-04-26T14:04:19.199Z</time></trkpt><trkpt lat="43.0516126" lon="11.7548649"><ele>647.0</ele><time>2026-04-26T14:04:20.179Z</time></trkpt><trkpt lat="43.0515924" lon="11.754724"><ele>644.0</ele><time>2026-04-26T14:04:21.195Z</time></trkpt><trkpt lat="43.0515721" lon="11.7545797"><ele>641.0</ele><time>2026-04-26T14:04:22.203Z</time></trkpt><trkpt lat="43.051621" lon="11.75442"><ele>641.25</ele><time>2026-04-26T14:04:23.191Z</time></trkpt><trkpt lat="43.0516924" lon="11.7542553"><ele>641.5</ele><time>2026-04-26T14:04:24.202Z</time></trkpt><trkpt lat="43.051747" lon="11.7540789"><ele>641.75</ele><time>2026-04-26T14:04:25.186Z</time></trkpt><trkpt lat="43.0517933" lon="11.7539027"><ele>642.0</ele><time>2026-04-26T14:04:26.192Z</time></trkpt><trkpt lat="43.051835" lon="11.7537291"><ele>642.0</ele><time>2026-04-26T14:04:27.188Z</time></trkpt><trkpt lat="43.0518664" lon="11.7535614"><ele>642.0</ele><time>2026-04-26T14:04:28.199Z</time></trkpt><trkpt lat="43.0519122" lon="11.7534023"><ele>642.0</ele><time>2026-04-26T14:04:29.182Z</time></trkpt><trkpt lat="43.0519786" lon="11.7532592"><ele>642.0</ele><time>2026-04-26T14:04:30.187Z</time></trkpt><trkpt lat="43.0520568" lon="11.7531316"><ele>638.75</ele><time>2026-04-26T14:04:31.19Z</time></trkpt><trkpt lat="43.052141" lon="11.7530167"><ele>635.5</ele><time>2026-04-26T14:04:32.196Z</time></trkpt><trkpt lat="43.0522305" lon="11.7529012"><ele>632.25</ele><time>2026-04-26T14:04:33.191Z</time></trkpt><trkpt lat="43.0523327" lon="11.7527965"><ele>629.0</ele><time>2026-04-26T14:04:34.204Z</time></trkpt><trkpt lat="43.0524417" lon="11.7526959"><ele>628.25</ele><time>2026-04-26T14:04:35.202Z</time></trkpt><trkpt lat="43.0525528" lon="11.7525908"><ele>627.5</ele><time>2026-04-26T14:04:36.187Z</time></trkpt><trkpt lat="43.0526626" lon="11.7524859"><ele>626.75</ele><time>2026-04-26T14:04:37.189Z</time></trkpt><trkpt lat="43.0527662" lon="11.7523756"><ele>626.0</ele><time>2026-04-26T14:04:38.19Z</time></trkpt><trkpt lat="43.0528654" lon="11.7522557"><ele>626.0</ele><time>2026-04-26T14:04:39.201Z</time></trkpt><trkpt lat="43.0529601" lon="11.752122"><ele>626.0</ele><time>2026-04-26T14:04:40.191Z</time></trkpt><trkpt lat="43.053052" lon="11.751974"><ele>626.0</ele><time>2026-04-26T14:04:41.196Z</time></trkpt><trkpt lat="43.0531394" lon="11.7518151"><ele>626.0</ele><time>2026-04-26T14:04:42.193Z</time></trkpt><trkpt lat="43.0532264" lon="11.7516466"><ele>626.0</ele><time>2026-04-26T14:04:43.188Z</time></trkpt><trkpt lat="43.0533135" lon="11.7514713"><ele>626.0</ele><time>2026-04-26T14:04:44.195Z</time></trkpt><trkpt lat="43.0533993" lon="11.7512944"><ele>626.0</ele><time>2026-04-26T14:04:45.18Z</time></trkpt><trkpt lat="43.053483" lon="11.7511206"><ele>620.6666666666666</ele><time>2026-04-26T14:04:46.187Z</time></trkpt><trkpt lat="43.0535646" lon="11.7509471"><ele>615.3333333333334</ele><time>2026-04-26T14:04:47.195Z</time></trkpt><trkpt lat="43.0536446" lon="11.7507718"><ele>610.0</ele><time>2026-04-26T14:04:48.192Z</time></trkpt><trkpt lat="43.0537227" lon="11.7505957"><ele>610.0</ele><time>2026-04-26T14:04:49.204Z</time></trkpt><trkpt lat="43.0538021" lon="11.7504211"><ele>610.0</ele><time>2026-04-26T14:04:50.198Z</time></trkpt><trkpt lat="43.0538825" lon="11.7502511"><ele>610.0</ele><time>2026-04-26T14:04:51.196Z</time></trkpt><trkpt lat="43.0539584" lon="11.7500811"><ele>610.0</ele><time>2026-04-26T14:04:52.194Z</time></trkpt><trkpt lat="43.0540223" lon="11.7499011"><ele>605.6666666666667</ele><time>2026-04-26T14:04:53.196Z</time></trkpt><trkpt lat="43.0540605" lon="11.7497016"><ele>601.3333333333334</ele><time>2026-04-26T14:04:54.2Z</time></trkpt><trkpt lat="43.0540666" lon="11.7494779"><ele>597.0</ele><time>2026-04-26T14:04:55.196Z</time></trkpt><trkpt lat="43.0540523" lon="11.7492451"><ele>595.3333333333334</ele><time>2026-04-26T14:04:56.202Z</time></trkpt><trkpt lat="43.054034" lon="11.7490181"><ele>593.6666666666667</ele><time>2026-04-26T14:04:57.191Z</time></trkpt><trkpt lat="43.0540227" lon="11.7487941"><ele>592.0</ele><time>2026-04-26T14:04:58.198Z</time></trkpt><trkpt lat="43.0540175" lon="11.748576"><ele>591.0</ele><time>2026-04-26T14:04:59.197Z</time></trkpt><trkpt lat="43.0540562" lon="11.748371"><ele>590.0</ele><time>2026-04-26T14:05:00.192Z</time></trkpt><trkpt lat="43.0540988" lon="11.7481745"><ele>589.0</ele><time>2026-04-26T14:05:01.197Z</time></trkpt><trkpt lat="43.0541835" lon="11.7479961"><ele>592.6666666666667</ele><time>2026-04-26T14:05:02.191Z</time></trkpt><trkpt lat="43.0542924" lon="11.747842"><ele>596.3333333333334</ele><time>2026-04-26T14:05:03.194Z</time></trkpt><trkpt lat="43.0544233" lon="11.7477072"><ele>600.0</ele><time>2026-04-26T14:05:04.194Z</time></trkpt><trkpt lat="43.0545645" lon="11.747567"><ele>600.0</ele><time>2026-04-26T14:05:05.184Z</time></trkpt><trkpt lat="43.0547021" lon="11.7474062"><ele>600.0</ele><time>2026-04-26T14:05:06.185Z</time></trkpt><trkpt lat="43.0548402" lon="11.7472376"><ele>600.0</ele><time>2026-04-26T14:05:07.189Z</time></trkpt><trkpt lat="43.0549614" lon="11.7470421"><ele>600.6666666666666</ele><time>2026-04-26T14:05:08.176Z</time></trkpt><trkpt lat="43.0550806" lon="11.7468433"><ele>601.3333333333333</ele><time>2026-04-26T14:05:09.18Z</time></trkpt><trkpt lat="43.0552054" lon="11.7466402"><ele>602.0</ele><time>2026-04-26T14:05:10.197Z</time></trkpt><trkpt lat="43.0553327" lon="11.7464392"><ele>602.0</ele><time>2026-04-26T14:05:11.187Z</time></trkpt><trkpt lat="43.05546" lon="11.7462358"><ele>602.0</ele><time>2026-04-26T14:05:12.194Z</time></trkpt><trkpt lat="43.0555865" lon="11.7460332"><ele>602.0</ele><time>2026-04-26T14:05:13.182Z</time></trkpt><trkpt lat="43.0557094" lon="11.7458367"><ele>603.0</ele><time>2026-04-26T14:05:14.186Z</time></trkpt><trkpt lat="43.0558288" lon="11.7456483"><ele>604.0</ele><time>2026-04-26T14:05:15.201Z</time></trkpt><trkpt lat="43.0559405" lon="11.7454693"><ele>605.0</ele><time>2026-04-26T14:05:16.177Z</time></trkpt><trkpt lat="43.0560496" lon="11.7452977"><ele>601.0</ele><time>2026-04-26T14:05:17.192Z</time></trkpt><trkpt lat="43.0561496" lon="11.745132"><ele>597.0</ele><time>2026-04-26T14:05:18.193Z</time></trkpt><trkpt lat="43.0562461" lon="11.7449754"><ele>593.0</ele><time>2026-04-26T14:05:19.186Z</time></trkpt><trkpt lat="43.0563434" lon="11.7448185"><ele>593.0</ele><time>2026-04-26T14:05:20.191Z</time></trkpt><trkpt lat="43.0564439" lon="11.744663"><ele>593.0</ele><time>2026-04-26T14:05:21.195Z</time></trkpt><trkpt lat="43.056549" lon="11.7445054"><ele>593.0</ele><time>2026-04-26T14:05:22.182Z</time></trkpt><trkpt lat="43.0566596" lon="11.744332"><ele>595.3333333333333</ele><time>2026-04-26T14:05:23.196Z</time></trkpt><trkpt lat="43.0567572" lon="11.7441469"><ele>597.6666666666666</ele><time>2026-04-26T14:05:24.179Z</time></trkpt><trkpt lat="43.05682" lon="11.7439361"><ele>600.0</ele><time>2026-04-26T14:05:25.194Z</time></trkpt><trkpt lat="43.0568689" lon="11.7437273"><ele>597.25</ele><time>2026-04-26T14:05:26.192Z</time></trkpt><trkpt lat="43.0568875" lon="11.7435364"><ele>594.5</ele><time>2026-04-26T14:05:27.179Z</time></trkpt><trkpt lat="43.05692" lon="11.7433789"><ele>591.75</ele><time>2026-04-26T14:05:28.199Z</time></trkpt><trkpt lat="43.0569859" lon="11.7432504"><ele>589.0</ele><time>2026-04-26T14:05:29.187Z</time></trkpt><trkpt lat="43.0570798" lon="11.7431507"><ele>589.0</ele><time>2026-04-26T14:05:30.186Z</time></trkpt><trkpt lat="43.0571947" lon="11.74309"><ele>589.0</ele><time>2026-04-26T14:05:31.196Z</time></trkpt><trkpt lat="43.0573123" lon="11.7430431"><ele>589.0</ele><time>2026-04-26T14:05:32.194Z</time></trkpt><trkpt lat="43.0574536" lon="11.7431006"><ele>589.0</ele><time>2026-04-26T14:05:33.18Z</time></trkpt><trkpt lat="43.0575976" lon="11.7431468"><ele>592.3333333333334</ele><time>2026-04-26T14:05:34.19Z</time></trkpt><trkpt lat="43.0577533" lon="11.7431725"><ele>595.6666666666666</ele><time>2026-04-26T14:05:35.193Z</time></trkpt><trkpt lat="43.0579156" lon="11.7431339"><ele>599.0</ele><time>2026-04-26T14:05:36.202Z</time></trkpt><trkpt lat="43.0580729" lon="11.7430079"><ele>599.0</ele><time>2026-04-26T14:05:37.196Z</time></trkpt><trkpt lat="43.0582159" lon="11.7428558"><ele>599.0</ele><time>2026-04-26T14:05:38.199Z</time></trkpt><trkpt lat="43.0583504" lon="11.7426915"><ele>599.0</ele><time>2026-04-26T14:05:39.193Z</time></trkpt><trkpt lat="43.0584805" lon="11.7425214"><ele>595.3333333333333</ele><time>2026-04-26T14:05:40.191Z</time></trkpt><trkpt lat="43.0586119" lon="11.7423469"><ele>591.6666666666666</ele><time>2026-04-26T14:05:41.191Z</time></trkpt><trkpt lat="43.0587428" lon="11.7421793"><ele>588.0</ele><time>2026-04-26T14:05:42.191Z</time></trkpt><trkpt lat="43.0588739" lon="11.7420116"><ele>587.3333333333334</ele><time>2026-04-26T14:05:43.191Z</time></trkpt><trkpt lat="43.0590059" lon="11.7418454"><ele>586.6666666666667</ele><time>2026-04-26T14:05:44.189Z</time></trkpt><trkpt lat="43.0591364" lon="11.7416835"><ele>586.0</ele><time>2026-04-26T14:05:45.182Z</time></trkpt><trkpt lat="43.0592608" lon="11.7415219"><ele>586.0</ele><time>2026-04-26T14:05:46.181Z</time></trkpt><trkpt lat="43.0593758" lon="11.7413545"><ele>586.0</ele><time>2026-04-26T14:05:47.201Z</time></trkpt><trkpt lat="43.0594721" lon="11.7411713"><ele>586.0</ele><time>2026-04-26T14:05:48.196Z</time></trkpt><trkpt lat="43.0595462" lon="11.7409723"><ele>583.3333333333334</ele><time>2026-04-26T14:05:49.202Z</time></trkpt><trkpt lat="43.059596" lon="11.7407606"><ele>580.6666666666666</ele><time>2026-04-26T14:05:50.202Z</time></trkpt><trkpt lat="43.0596343" lon="11.7405528"><ele>578.0</ele><time>2026-04-26T14:05:51.2Z</time></trkpt><trkpt lat="43.059665" lon="11.7403613"><ele>575.75</ele><time>2026-04-26T14:05:52.199Z</time></trkpt><trkpt lat="43.0596993" lon="11.7401887"><ele>573.5</ele><time>2026-04-26T14:05:53.195Z</time></trkpt><trkpt lat="43.0597765" lon="11.7400499"><ele>571.25</ele><time>2026-04-26T14:05:54.2Z</time></trkpt><trkpt lat="43.0598684" lon="11.7399221"><ele>569.0</ele><time>2026-04-26T14:05:55.203Z</time></trkpt><trkpt lat="43.0599554" lon="11.7397993"><ele>570.5</ele><time>2026-04-26T14:05:56.207Z</time></trkpt><trkpt lat="43.0600366" lon="11.7396735"><ele>572.0</ele><time>2026-04-26T14:05:57.19Z</time></trkpt><trkpt lat="43.0601173" lon="11.7395508"><ele>573.5</ele><time>2026-04-26T14:05:58.18Z</time></trkpt><trkpt lat="43.0601992" lon="11.7394296"><ele>575.0</ele><time>2026-04-26T14:05:59.193Z</time></trkpt><trkpt lat="43.0602819" lon="11.7393034"><ele>575.0</ele><time>2026-04-26T14:06:00.197Z</time></trkpt><trkpt lat="43.060363" lon="11.7391724"><ele>575.0</ele><time>2026-04-26T14:06:01.189Z</time></trkpt><trkpt lat="43.0604396" lon="11.7390394"><ele>575.0</ele><time>2026-04-26T14:06:02.202Z</time></trkpt><trkpt lat="43.0605131" lon="11.7389104"><ele>575.0</ele><time>2026-04-26T14:06:03.199Z</time></trkpt><trkpt lat="43.0605808" lon="11.7387918"><ele>575.0</ele><time>2026-04-26T14:06:04.19Z</time></trkpt><trkpt lat="43.0606436" lon="11.7386775"><ele>575.0</ele><time>2026-04-26T14:06:05.207Z</time></trkpt><trkpt lat="43.0607086" lon="11.7385621"><ele>575.0</ele><time>2026-04-26T14:06:06.198Z</time></trkpt><trkpt lat="43.0607711" lon="11.738448"><ele>575.0</ele><time>2026-04-26T14:06:07.182Z</time></trkpt><trkpt lat="43.060834" lon="11.7383379"><ele>575.0</ele><time>2026-04-26T14:06:08.187Z</time></trkpt><trkpt lat="43.0608932" lon="11.7382292"><ele>574.0</ele><time>2026-04-26T14:06:09.203Z</time></trkpt><trkpt lat="43.0609516" lon="11.7381215"><ele>573.0</ele><time>2026-04-26T14:06:10.194Z</time></trkpt><trkpt lat="43.0610104" lon="11.7380165"><ele>572.0</ele><time>2026-04-26T14:06:11.206Z</time></trkpt><trkpt lat="43.0610708" lon="11.7379086"><ele>571.0</ele><time>2026-04-26T14:06:12.195Z</time></trkpt><trkpt lat="43.0611341" lon="11.7377969"><ele>570.0</ele><time>2026-04-26T14:06:13.185Z</time></trkpt><trkpt lat="43.0612015" lon="11.7376803"><ele>568.25</ele><time>2026-04-26T14:06:14.186Z</time></trkpt><trkpt lat="43.0612697" lon="11.7375582"><ele>566.5</ele><time>2026-04-26T14:06:15.196Z</time></trkpt><trkpt lat="43.0613379" lon="11.7374313"><ele>564.75</ele><time>2026-04-26T14:06:16.193Z</time></trkpt><trkpt lat="43.0614058" lon="11.7373044"><ele>563.0</ele><time>2026-04-26T14:06:17.202Z</time></trkpt><trkpt lat="43.0614746" lon="11.7371777"><ele>563.0</ele><time>2026-04-26T14:06:18.195Z</time></trkpt><trkpt lat="43.0615461" lon="11.7370494"><ele>563.0</ele><time>2026-04-26T14:06:19.207Z</time></trkpt><trkpt lat="43.0616187" lon="11.7369207"><ele>563.0</ele><time>2026-04-26T14:06:20.193Z</time></trkpt><trkpt lat="43.0616941" lon="11.7367973"><ele>563.0</ele><time>2026-04-26T14:06:21.196Z</time></trkpt><trkpt lat="43.0617744" lon="11.7366803"><ele>562.25</ele><time>2026-04-26T14:06:22.194Z</time></trkpt><trkpt lat="43.0618596" lon="11.7365685"><ele>561.5</ele><time>2026-04-26T14:06:23.194Z</time></trkpt><trkpt lat="43.0619494" lon="11.7364582"><ele>560.75</ele><time>2026-04-26T14:06:24.191Z</time></trkpt><trkpt lat="43.0620404" lon="11.7363499"><ele>560.0</ele><time>2026-04-26T14:06:25.206Z</time></trkpt><trkpt lat="43.0621322" lon="11.736241"><ele>560.0</ele><time>2026-04-26T14:06:26.197Z</time></trkpt><trkpt lat="43.0622248" lon="11.7361345"><ele>560.0</ele><time>2026-04-26T14:06:27.189Z</time></trkpt><trkpt lat="43.0623219" lon="11.7360237"><ele>560.0</ele><time>2026-04-26T14:06:28.195Z</time></trkpt><trkpt lat="43.0624274" lon="11.7359004"><ele>560.0</ele><time>2026-04-26T14:06:29.201Z</time></trkpt><trkpt lat="43.0625219" lon="11.7357802"><ele>558.25</ele><time>2026-04-26T14:06:30.19Z</time></trkpt><trkpt lat="43.0626145" lon="11.7356594"><ele>556.5</ele><time>2026-04-26T14:06:31.181Z</time></trkpt><trkpt lat="43.0627061" lon="11.7355487"><ele>554.75</ele><time>2026-04-26T14:06:32.199Z</time></trkpt><trkpt lat="43.0627912" lon="11.735442"><ele>553.0</ele><time>2026-04-26T14:06:33.197Z</time></trkpt><trkpt lat="43.0628684" lon="11.7353311"><ele>550.6</ele><time>2026-04-26T14:06:34.191Z</time></trkpt><trkpt lat="43.0629255" lon="11.7351977"><ele>548.1999999999999</ele><time>2026-04-26T14:06:35.195Z</time></trkpt><trkpt lat="43.0629522" lon="11.735042"><ele>545.8</ele><time>2026-04-26T14:06:36.197Z</time></trkpt><trkpt lat="43.0629446" lon="11.7348886"><ele>543.4</ele><time>2026-04-26T14:06:37.177Z</time></trkpt><trkpt lat="43.0629195" lon="11.7347686"><ele>541.0</ele><time>2026-04-26T14:06:38.2Z</time></trkpt><trkpt lat="43.0628918" lon="11.7346832"><ele>541.0</ele><time>2026-04-26T14:06:39.193Z</time></trkpt><trkpt lat="43.0628589" lon="11.7345938"><ele>541.0</ele><time>2026-04-26T14:06:41.195Z</time></trkpt><trkpt lat="43.0628114" lon="11.7344879"><ele>541.0</ele><time>2026-04-26T14:06:44.209Z</time></trkpt><trkpt lat="43.0627626" lon="11.7343628"><ele>541.0</ele><time>2026-04-26T14:06:46.207Z</time></trkpt><trkpt lat="43.0627639" lon="11.7342141"><ele>541.0</ele><time>2026-04-26T14:06:48.196Z</time></trkpt><trkpt lat="43.0628704" lon="11.7341395"><ele>539.2857142857143</ele><time>2026-04-26T14:06:50.194Z</time></trkpt><trkpt lat="43.0629383" lon="11.7341407"><ele>537.5714285714286</ele><time>2026-04-26T14:06:51.207Z</time></trkpt><trkpt lat="43.06301" lon="11.7341629"><ele>535.8571428571429</ele><time>2026-04-26T14:06:52.2Z</time></trkpt><trkpt lat="43.0630825" lon="11.7341462"><ele>534.1428571428571</ele><time>2026-04-26T14:06:53.203Z</time></trkpt><trkpt lat="43.0631447" lon="11.7341008"><ele>532.4285714285714</ele><time>2026-04-26T14:06:54.185Z</time></trkpt><trkpt lat="43.0631835" lon="11.7340292"><ele>530.7142857142858</ele><time>2026-04-26T14:06:55.19Z</time></trkpt><trkpt lat="43.0632026" lon="11.73394"><ele>529.0</ele><time>2026-04-26T14:06:56.192Z</time></trkpt><trkpt lat="43.0631977" lon="11.7338494"><ele>529.0</ele><time>2026-04-26T14:06:57.187Z</time></trkpt><trkpt lat="43.0631735" lon="11.7337642"><ele>529.0</ele><time>2026-04-26T14:06:58.198Z</time></trkpt><trkpt lat="43.0631268" lon="11.7336903"><ele>529.0</ele><time>2026-04-26T14:06:59.193Z</time></trkpt><trkpt lat="43.0630586" lon="11.7336428"><ele>529.0</ele><time>2026-04-26T14:07:00.196Z</time></trkpt><trkpt lat="43.0629786" lon="11.7335944"><ele>529.0</ele><time>2026-04-26T14:07:01.203Z</time></trkpt><trkpt lat="43.0628766" lon="11.7335881"><ele>529.0</ele><time>2026-04-26T14:07:02.197Z</time></trkpt><trkpt lat="43.0627802" lon="11.7335866"><ele>529.0</ele><time>2026-04-26T14:07:03.195Z</time></trkpt><trkpt lat="43.0626985" lon="11.7335842"><ele>529.0</ele><time>2026-04-26T14:07:04.206Z</time></trkpt><trkpt lat="43.0626269" lon="11.7335754"><ele>529.0</ele><time>2026-04-26T14:07:05.198Z</time></trkpt><trkpt lat="43.0625633" lon="11.7335523"><ele>529.0</ele><time>2026-04-26T14:07:06.188Z</time></trkpt><trkpt lat="43.0625043" lon="11.7335128"><ele>529.0</ele><time>2026-04-26T14:07:07.189Z</time></trkpt><trkpt lat="43.0624588" lon="11.7334477"><ele>529.0</ele><time>2026-04-26T14:07:08.189Z</time></trkpt><trkpt lat="43.0624336" lon="11.7333647"><ele>529.0</ele><time>2026-04-26T14:07:09.199Z</time></trkpt><trkpt lat="43.0624364" lon="11.7332653"><ele>527.8571428571429</ele><time>2026-04-26T14:07:10.201Z</time></trkpt><trkpt lat="43.0624658" lon="11.733165"><ele>526.7142857142857</ele><time>2026-04-26T14:07:11.19Z</time></trkpt><trkpt lat="43.0624986" lon="11.7330778"><ele>525.5714285714286</ele><time>2026-04-26T14:07:12.199Z</time></trkpt><trkpt lat="43.0625508" lon="11.7330025"><ele>524.4285714285714</ele><time>2026-04-26T14:07:13.201Z</time></trkpt><trkpt lat="43.0626043" lon="11.7329284"><ele>523.2857142857143</ele><time>2026-04-26T14:07:14.19Z</time></trkpt><trkpt lat="43.0626497" lon="11.7328539"><ele>522.1428571428571</ele><time>2026-04-26T14:07:15.189Z</time></trkpt><trkpt lat="43.062702" lon="11.7327819"><ele>521.0</ele><time>2026-04-26T14:07:16.2Z</time></trkpt><trkpt lat="43.0627605" lon="11.7327188"><ele>521.0</ele><time>2026-04-26T14:07:17.179Z</time></trkpt><trkpt lat="43.0628165" lon="11.7326729"><ele>521.0</ele><time>2026-04-26T14:07:18.178Z</time></trkpt><trkpt lat="43.0629251" lon="11.732608"><ele>521.0</ele><time>2026-04-26T14:07:20.189Z</time></trkpt><trkpt lat="43.0630478" lon="11.7326151"><ele>521.0</ele><time>2026-04-26T14:07:22.184Z</time></trkpt><trkpt lat="43.0631674" lon="11.7326763"><ele>521.0</ele><time>2026-04-26T14:07:24.193Z</time></trkpt><trkpt lat="43.0632774" lon="11.7327359"><ele>520.8</ele><time>2026-04-26T14:07:26.183Z</time></trkpt><trkpt lat="43.0633795" lon="11.7327389"><ele>520.6</ele><time>2026-04-26T14:07:28.197Z</time></trkpt><trkpt lat="43.0634479" lon="11.7326581"><ele>520.4</ele><time>2026-04-26T14:07:30.2Z</time></trkpt><trkpt lat="43.0634293" lon="11.7324858"><ele>520.2</ele><time>2026-04-26T14:07:32.183Z</time></trkpt><trkpt lat="43.0633515" lon="11.732378"><ele>520.0</ele><time>2026-04-26T14:07:33.195Z</time></trkpt><trkpt lat="43.063263" lon="11.7322629"><ele>517.0</ele><time>2026-04-26T14:07:34.19Z</time></trkpt><trkpt lat="43.0631662" lon="11.7321132"><ele>514.0</ele><time>2026-04-26T14:07:35.203Z</time></trkpt><trkpt lat="43.0630686" lon="11.7319308"><ele>511.0</ele><time>2026-04-26T14:07:36.193Z</time></trkpt><trkpt lat="43.0629805" lon="11.7317485"><ele>508.25</ele><time>2026-04-26T14:07:37.189Z</time></trkpt><trkpt lat="43.0629055" lon="11.7315689"><ele>505.5</ele><time>2026-04-26T14:07:38.205Z</time></trkpt><trkpt lat="43.0628562" lon="11.7313815"><ele>502.75</ele><time>2026-04-26T14:07:39.188Z</time></trkpt><trkpt lat="43.062842" lon="11.7311805"><ele>500.0</ele><time>2026-04-26T14:07:40.198Z</time></trkpt><trkpt lat="43.062851" lon="11.7309732"><ele>496.66666666666663</ele><time>2026-04-26T14:07:41.184Z</time></trkpt><trkpt lat="43.0628639" lon="11.7307624"><ele>493.33333333333337</ele><time>2026-04-26T14:07:42.188Z</time></trkpt><trkpt lat="43.0628763" lon="11.7305536"><ele>490.0</ele><time>2026-04-26T14:07:43.199Z</time></trkpt><trkpt lat="43.0628852" lon="11.7303473"><ele>488.25</ele><time>2026-04-26T14:07:44.197Z</time></trkpt><trkpt lat="43.0628962" lon="11.7301415"><ele>486.5</ele><time>2026-04-26T14:07:45.198Z</time></trkpt><trkpt lat="43.0629037" lon="11.7299502"><ele>484.75</ele><time>2026-04-26T14:07:46.194Z</time></trkpt><trkpt lat="43.0629129" lon="11.7297665"><ele>483.0</ele><time>2026-04-26T14:07:47.183Z</time></trkpt><trkpt lat="43.062922" lon="11.7296022"><ele>483.0</ele><time>2026-04-26T14:07:48.199Z</time></trkpt><trkpt lat="43.0629184" lon="11.729451"><ele>482.99999999999994</ele><time>2026-04-26T14:07:49.201Z</time></trkpt><trkpt lat="43.062895" lon="11.7293029"><ele>482.99999999999994</ele><time>2026-04-26T14:07:50.2Z</time></trkpt><trkpt lat="43.0628687" lon="11.7291644"><ele>483.0</ele><time>2026-04-26T14:07:51.189Z</time></trkpt><trkpt lat="43.0628065" lon="11.7290516"><ele>483.0</ele><time>2026-04-26T14:07:52.19Z</time></trkpt><trkpt lat="43.0627444" lon="11.7289394"><ele>481.4</ele><time>2026-04-26T14:07:53.189Z</time></trkpt><trkpt lat="43.0627054" lon="11.7288142"><ele>479.79999999999995</ele><time>2026-04-26T14:07:54.201Z</time></trkpt><trkpt lat="43.0627055" lon="11.7286788"><ele>478.2</ele><time>2026-04-26T14:07:55.204Z</time></trkpt><trkpt lat="43.0627427" lon="11.7285406"><ele>476.6</ele><time>2026-04-26T14:07:56.195Z</time></trkpt><trkpt lat="43.0627827" lon="11.7284071"><ele>475.0</ele><time>2026-04-26T14:07:57.191Z</time></trkpt><trkpt lat="43.0628358" lon="11.7282809"><ele>473.4</ele><time>2026-04-26T14:07:58.202Z</time></trkpt><trkpt lat="43.0628646" lon="11.7281467"><ele>471.8</ele><time>2026-04-26T14:07:59.194Z</time></trkpt><trkpt lat="43.0628648" lon="11.7280151"><ele>470.20000000000005</ele><time>2026-04-26T14:08:00.198Z</time></trkpt><trkpt lat="43.0628348" lon="11.7278983"><ele>468.6</ele><time>2026-04-26T14:08:01.199Z</time></trkpt><trkpt lat="43.0627808" lon="11.727805"><ele>467.0</ele><time>2026-04-26T14:08:02.186Z</time></trkpt><trkpt lat="43.0627108" lon="11.7277482"><ele>465.8333333333333</ele><time>2026-04-26T14:08:03.203Z</time></trkpt><trkpt lat="43.0626463" lon="11.7277212"><ele>464.66666666666663</ele><time>2026-04-26T14:08:04.199Z</time></trkpt><trkpt lat="43.0625366" lon="11.7276638"><ele>463.5</ele><time>2026-04-26T14:08:06.208Z</time></trkpt><trkpt lat="43.0624999" lon="11.7275208"><ele>462.33333333333337</ele><time>2026-04-26T14:08:08.191Z</time></trkpt><trkpt lat="43.0625327" lon="11.7274439"><ele>461.1666666666667</ele><time>2026-04-26T14:08:09.189Z</time></trkpt><trkpt lat="43.0625905" lon="11.7273846"><ele>460.0</ele><time>2026-04-26T14:08:10.204Z</time></trkpt><trkpt lat="43.0626552" lon="11.7273372"><ele>460.00000000000006</ele><time>2026-04-26T14:08:11.195Z</time></trkpt><trkpt lat="43.0627191" lon="11.7272915"><ele>460.0</ele><time>2026-04-26T14:08:12.203Z</time></trkpt><trkpt lat="43.0627764" lon="11.7272488"><ele>460.0</ele><time>2026-04-26T14:08:13.2Z</time></trkpt><trkpt lat="43.0628764" lon="11.7271472"><ele>460.0</ele><time>2026-04-26T14:08:15.204Z</time></trkpt><trkpt lat="43.0628828" lon="11.7270575"><ele>460.00000000000006</ele><time>2026-04-26T14:08:16.187Z</time></trkpt><trkpt lat="43.0628542" lon="11.7269679"><ele>460.0</ele><time>2026-04-26T14:08:17.196Z</time></trkpt><trkpt lat="43.0627997" lon="11.7268902"><ele>459.33333333333337</ele><time>2026-04-26T14:08:18.197Z</time></trkpt><trkpt lat="43.0627311" lon="11.7268246"><ele>458.6666666666667</ele><time>2026-04-26T14:08:19.203Z</time></trkpt><trkpt lat="43.0626568" lon="11.7267623"><ele>458.0</ele><time>2026-04-26T14:08:20.196Z</time></trkpt><trkpt lat="43.062583" lon="11.7266947"><ele>457.33333333333337</ele><time>2026-04-26T14:08:21.197Z</time></trkpt><trkpt lat="43.0625162" lon="11.7266121"><ele>456.6666666666667</ele><time>2026-04-26T14:08:22.189Z</time></trkpt><trkpt lat="43.0624638" lon="11.7265149"><ele>456.0</ele><time>2026-04-26T14:08:23.197Z</time></trkpt><trkpt lat="43.0624107" lon="11.7264157"><ele>456.0</ele><time>2026-04-26T14:08:24.19Z</time></trkpt><trkpt lat="43.0623845" lon="11.726305"><ele>456.0</ele><time>2026-04-26T14:08:25.197Z</time></trkpt><trkpt lat="43.0623618" lon="11.7261949"><ele>456.0</ele><time>2026-04-26T14:08:26.194Z</time></trkpt><trkpt lat="43.0623405" lon="11.7260877"><ele>456.0</ele><time>2026-04-26T14:08:27.185Z</time></trkpt><trkpt lat="43.0623231" lon="11.7259841"><ele>456.0</ele><time>2026-04-26T14:08:28.185Z</time></trkpt><trkpt lat="43.0623224" lon="11.7258837"><ele>456.0</ele><time>2026-04-26T14:08:29.189Z</time></trkpt><trkpt lat="43.0623236" lon="11.7257833"><ele>456.20000000000005</ele><time>2026-04-26T14:08:30.204Z</time></trkpt><trkpt lat="43.0623788" lon="11.7256982"><ele>456.40000000000003</ele><time>2026-04-26T14:08:31.181Z</time></trkpt><trkpt lat="43.0624619" lon="11.7256399"><ele>456.6</ele><time>2026-04-26T14:08:32.196Z</time></trkpt><trkpt lat="43.0625662" lon="11.7256098"><ele>456.8</ele><time>2026-04-26T14:08:33.199Z</time></trkpt><trkpt lat="43.0626815" lon="11.7255908"><ele>457.0</ele><time>2026-04-26T14:08:34.203Z</time></trkpt><trkpt lat="43.0627986" lon="11.7255655"><ele>455.5</ele><time>2026-04-26T14:08:35.176Z</time></trkpt><trkpt lat="43.0629166" lon="11.7255383"><ele>454.0</ele><time>2026-04-26T14:08:36.184Z</time></trkpt><trkpt lat="43.0630331" lon="11.7254881"><ele>452.5</ele><time>2026-04-26T14:08:37.176Z</time></trkpt><trkpt lat="43.0631486" lon="11.7254144"><ele>451.0</ele><time>2026-04-26T14:08:38.191Z</time></trkpt><trkpt lat="43.0632675" lon="11.7253227"><ele>450.25</ele><time>2026-04-26T14:08:39.18Z</time></trkpt><trkpt lat="43.0633872" lon="11.725232"><ele>449.5</ele><time>2026-04-26T14:08:40.199Z</time></trkpt><trkpt lat="43.0635078" lon="11.7251379"><ele>448.75</ele><time>2026-04-26T14:08:41.197Z</time></trkpt><trkpt lat="43.0636225" lon="11.7250499"><ele>448.0</ele><time>2026-04-26T14:08:42.186Z</time></trkpt><trkpt lat="43.0637287" lon="11.7249675"><ele>450.25</ele><time>2026-04-26T14:08:43.187Z</time></trkpt><trkpt lat="43.0638314" lon="11.7248868"><ele>452.5</ele><time>2026-04-26T14:08:44.197Z</time></trkpt><trkpt lat="43.0639302" lon="11.7248046"><ele>454.75</ele><time>2026-04-26T14:08:45.188Z</time></trkpt><trkpt lat="43.0640272" lon="11.7247177"><ele>457.0</ele><time>2026-04-26T14:08:46.203Z</time></trkpt><trkpt lat="43.0641214" lon="11.7246262"><ele>457.5</ele><time>2026-04-26T14:08:47.2Z</time></trkpt><trkpt lat="43.0642104" lon="11.7245247"><ele>458.0</ele><time>2026-04-26T14:08:48.186Z</time></trkpt><trkpt lat="43.0642849" lon="11.7244008"><ele>458.5</ele><time>2026-04-26T14:08:49.201Z</time></trkpt><trkpt lat="43.0643349" lon="11.7242465"><ele>459.0</ele><time>2026-04-26T14:08:50.2Z</time></trkpt><trkpt lat="43.0643675" lon="11.7240735"><ele>460.25</ele><time>2026-04-26T14:08:51.201Z</time></trkpt><trkpt lat="43.0644022" lon="11.723894"><ele>461.5</ele><time>2026-04-26T14:08:52.2Z</time></trkpt><trkpt lat="43.0644401" lon="11.7237181"><ele>462.75</ele><time>2026-04-26T14:08:53.201Z</time></trkpt><trkpt lat="43.0644763" lon="11.7235593"><ele>464.0</ele><time>2026-04-26T14:08:54.201Z</time></trkpt><trkpt lat="43.064508" lon="11.723422"><ele>464.66666666666663</ele><time>2026-04-26T14:08:55.183Z</time></trkpt><trkpt lat="43.0645343" lon="11.7233019"><ele>465.3333333333333</ele><time>2026-04-26T14:08:56.196Z</time></trkpt><trkpt lat="43.0645572" lon="11.7231974"><ele>466.0</ele><time>2026-04-26T14:08:57.189Z</time></trkpt><trkpt lat="43.0645762" lon="11.7231093"><ele>466.66666666666663</ele><time>2026-04-26T14:08:58.195Z</time></trkpt><trkpt lat="43.0646012" lon="11.7229867"><ele>467.3333333333333</ele><time>2026-04-26T14:09:00.191Z</time></trkpt><trkpt lat="43.0646241" lon="11.7228947"><ele>468.0</ele><time>2026-04-26T14:09:03.185Z</time></trkpt><trkpt lat="43.0646372" lon="11.7227942"><ele>468.79999999999995</ele><time>2026-04-26T14:09:07.184Z</time></trkpt><trkpt lat="43.0646084" lon="11.7227172"><ele>469.59999999999997</ele><time>2026-04-26T14:09:09.198Z</time></trkpt><trkpt lat="43.0644922" lon="11.7226212"><ele>470.40000000000003</ele><time>2026-04-26T14:09:11.198Z</time></trkpt><trkpt lat="43.0644136" lon="11.7225599"><ele>471.20000000000005</ele><time>2026-04-26T14:09:12.193Z</time></trkpt><trkpt lat="43.0643272" lon="11.7224886"><ele>472.0</ele><time>2026-04-26T14:09:13.197Z</time></trkpt><trkpt lat="43.0642339" lon="11.7224171"><ele>472.0</ele><time>2026-04-26T14:09:14.185Z</time></trkpt><trkpt lat="43.0641414" lon="11.7223484"><ele>472.00000000000006</ele><time>2026-04-26T14:09:15.205Z</time></trkpt><trkpt lat="43.0640471" lon="11.7222779"><ele>472.00000000000006</ele><time>2026-04-26T14:09:16.201Z</time></trkpt><trkpt lat="43.0639552" lon="11.7222098"><ele>472.0</ele><time>2026-04-26T14:09:17.196Z</time></trkpt><trkpt lat="43.0638726" lon="11.7221442"><ele>472.0</ele><time>2026-04-26T14:09:18.198Z</time></trkpt><trkpt lat="43.0637988" lon="11.7220889"><ele>472.1666666666667</ele><time>2026-04-26T14:09:19.191Z</time></trkpt><trkpt lat="43.0637322" lon="11.7220365"><ele>472.33333333333337</ele><time>2026-04-26T14:09:20.194Z</time></trkpt><trkpt lat="43.0636651" lon="11.7219852"><ele>472.5</ele><time>2026-04-26T14:09:21.186Z</time></trkpt><trkpt lat="43.0635996" lon="11.7219319"><ele>472.66666666666663</ele><time>2026-04-26T14:09:22.181Z</time></trkpt><trkpt lat="43.0635406" lon="11.7218818"><ele>472.8333333333333</ele><time>2026-04-26T14:09:23.2Z</time></trkpt><trkpt lat="43.0634449" lon="11.7218059"><ele>473.0</ele><time>2026-04-26T14:09:25.194Z</time></trkpt><trkpt lat="43.0633724" lon="11.7217771"><ele>473.49999999999994</ele><time>2026-04-26T14:09:27.198Z</time></trkpt><trkpt lat="43.0632842" lon="11.7218059"><ele>474.0</ele><time>2026-04-26T14:09:29.193Z</time></trkpt><trkpt lat="43.0631797" lon="11.7218939"><ele>474.5</ele><time>2026-04-26T14:09:31.186Z</time></trkpt><trkpt lat="43.0631167" lon="11.7219446"><ele>475.0</ele><time>2026-04-26T14:09:32.208Z</time></trkpt><trkpt lat="43.0630483" lon="11.7219919"><ele>475.49999999999994</ele><time>2026-04-26T14:09:33.184Z</time></trkpt><trkpt lat="43.0629778" lon="11.7220397"><ele>476.0</ele><time>2026-04-26T14:09:34.185Z</time></trkpt><trkpt lat="43.0629012" lon="11.7220843"><ele>477.20000000000005</ele><time>2026-04-26T14:09:35.193Z</time></trkpt><trkpt lat="43.06282" lon="11.7221313"><ele>478.40000000000003</ele><time>2026-04-26T14:09:36.194Z</time></trkpt><trkpt lat="43.0627324" lon="11.7221843"><ele>479.6</ele><time>2026-04-26T14:09:37.19Z</time></trkpt><trkpt lat="43.0626474" lon="11.7222382"><ele>480.8</ele><time>2026-04-26T14:09:38.178Z</time></trkpt><trkpt lat="43.062566" lon="11.7222887"><ele>482.0</ele><time>2026-04-26T14:09:39.196Z</time></trkpt><trkpt lat="43.0624895" lon="11.7223494"><ele>483.3333333333333</ele><time>2026-04-26T14:09:40.202Z</time></trkpt><trkpt lat="43.0624142" lon="11.7224126"><ele>484.66666666666663</ele><time>2026-04-26T14:09:41.193Z</time></trkpt><trkpt lat="43.0623361" lon="11.7224711"><ele>486.0</ele><time>2026-04-26T14:09:42.186Z</time></trkpt><trkpt lat="43.0622581" lon="11.7225266"><ele>487.33333333333337</ele><time>2026-04-26T14:09:43.203Z</time></trkpt><trkpt lat="43.0621788" lon="11.7225777"><ele>488.6666666666667</ele><time>2026-04-26T14:09:44.201Z</time></trkpt><trkpt lat="43.0621048" lon="11.7226219"><ele>490.0</ele><time>2026-04-26T14:09:45.187Z</time></trkpt><trkpt lat="43.0620367" lon="11.7226587"><ele>490.00000000000006</ele><time>2026-04-26T14:09:46.197Z</time></trkpt><trkpt lat="43.0619306" lon="11.722702"><ele>490.0</ele><time>2026-04-26T14:09:48.201Z</time></trkpt><trkpt lat="43.0618666" lon="11.7227235"><ele>490.0</ele><time>2026-04-26T14:09:50.203Z</time></trkpt><trkpt lat="43.0618212" lon="11.7228136"><ele>490.0</ele><time>2026-04-26T14:09:55.185Z</time></trkpt><trkpt lat="43.0617494" lon="11.7228125"><ele>490.00000000000006</ele><time>2026-04-26T14:09:59.199Z</time></trkpt><trkpt lat="43.0618043" lon="11.7227325"><ele>490.0</ele><time>2026-04-26T14:23:39.187Z</time></trkpt><trkpt lat="43.0618954" lon="11.7227197"><ele>490.00000000000006</ele><time>2026-04-26T14:23:41.199Z</time></trkpt><trkpt lat="43.0620149" lon="11.7226781"><ele>490.0</ele><time>2026-04-26T14:23:43.196Z</time></trkpt><trkpt lat="43.0620831" lon="11.7226437"><ele>490.0</ele><time>2026-04-26T14:23:44.184Z</time></trkpt><trkpt lat="43.0621528" lon="11.7226033"><ele>490.0</ele><time>2026-04-26T14:23:45.198Z</time></trkpt><trkpt lat="43.0622239" lon="11.7225571"><ele>490.00000000000006</ele><time>2026-04-26T14:23:46.195Z</time></trkpt><trkpt lat="43.0622962" lon="11.7225057"><ele>490.0</ele><time>2026-04-26T14:23:47.182Z</time></trkpt><trkpt lat="43.0623705" lon="11.7224502"><ele>490.00000000000006</ele><time>2026-04-26T14:23:48.199Z</time></trkpt><trkpt lat="43.0624433" lon="11.7223937"><ele>490.0</ele><time>2026-04-26T14:23:49.2Z</time></trkpt><trkpt lat="43.0625139" lon="11.7223393"><ele>490.0</ele><time>2026-04-26T14:23:50.19Z</time></trkpt><trkpt lat="43.0625876" lon="11.7222863"><ele>490.0</ele><time>2026-04-26T14:23:51.199Z</time></trkpt><trkpt lat="43.0626663" lon="11.722239"><ele>490.00000000000006</ele><time>2026-04-26T14:23:52.185Z</time></trkpt><trkpt lat="43.0627469" lon="11.7221885"><ele>490.0</ele><time>2026-04-26T14:23:53.197Z</time></trkpt><trkpt lat="43.06283" lon="11.7221384"><ele>488.6666666666667</ele><time>2026-04-26T14:23:54.196Z</time></trkpt><trkpt lat="43.062913" lon="11.7220886"><ele>487.33333333333337</ele><time>2026-04-26T14:23:55.201Z</time></trkpt><trkpt lat="43.0629979" lon="11.7220397"><ele>486.0</ele><time>2026-04-26T14:23:56.189Z</time></trkpt><trkpt lat="43.0630815" lon="11.721987"><ele>484.66666666666663</ele><time>2026-04-26T14:23:57.2Z</time></trkpt><trkpt lat="43.0631578" lon="11.7219373"><ele>483.3333333333333</ele><time>2026-04-26T14:23:58.188Z</time></trkpt><trkpt lat="43.0632245" lon="11.7218935"><ele>482.0</ele><time>2026-04-26T14:23:59.193Z</time></trkpt><trkpt lat="43.0633163" lon="11.7218345"><ele>480.20000000000005</ele><time>2026-04-26T14:24:01.2Z</time></trkpt><trkpt lat="43.063411" lon="11.7218351"><ele>478.40000000000003</ele><time>2026-04-26T14:24:04.199Z</time></trkpt><trkpt lat="43.0635023" lon="11.7218959"><ele>476.59999999999997</ele><time>2026-04-26T14:24:06.183Z</time></trkpt><trkpt lat="43.063587" lon="11.721968"><ele>474.79999999999995</ele><time>2026-04-26T14:24:08.197Z</time></trkpt><trkpt lat="43.0636556" lon="11.7220221"><ele>473.0</ele><time>2026-04-26T14:24:11.208Z</time></trkpt><trkpt lat="43.0637254" lon="11.7220659"><ele>472.99999999999994</ele><time>2026-04-26T14:24:17.184Z</time></trkpt><trkpt lat="43.0638263" lon="11.7221374"><ele>473.0</ele><time>2026-04-26T14:24:19.185Z</time></trkpt><trkpt lat="43.0638816" lon="11.7221803"><ele>473.0</ele><time>2026-04-26T14:24:20.202Z</time></trkpt><trkpt lat="43.0639397" lon="11.7222265"><ele>473.0</ele><time>2026-04-26T14:24:21.198Z</time></trkpt><trkpt lat="43.0640055" lon="11.7222799"><ele>472.99999999999994</ele><time>2026-04-26T14:24:22.203Z</time></trkpt><trkpt lat="43.0640734" lon="11.7223321"><ele>473.0</ele><time>2026-04-26T14:24:23.199Z</time></trkpt><trkpt lat="43.0641435" lon="11.7223846"><ele>472.8571428571429</ele><time>2026-04-26T14:24:24.186Z</time></trkpt><trkpt lat="43.0642149" lon="11.7224376"><ele>472.71428571428567</ele><time>2026-04-26T14:24:25.2Z</time></trkpt><trkpt lat="43.0642843" lon="11.7224877"><ele>472.57142857142856</ele><time>2026-04-26T14:24:26.195Z</time></trkpt><trkpt lat="43.0643528" lon="11.7225393"><ele>472.42857142857144</ele><time>2026-04-26T14:24:27.187Z</time></trkpt><trkpt lat="43.0644192" lon="11.7225903"><ele>472.28571428571433</ele><time>2026-04-26T14:24:28.194Z</time></trkpt><trkpt lat="43.0644798" lon="11.7226362"><ele>472.1428571428571</ele><time>2026-04-26T14:24:29.192Z</time></trkpt><trkpt lat="43.0645355" lon="11.7226778"><ele>472.0</ele><time>2026-04-26T14:24:30.202Z</time></trkpt><trkpt lat="43.0646411" lon="11.7227203"><ele>472.0</ele><time>2026-04-26T14:24:32.183Z</time></trkpt><trkpt lat="43.0647552" lon="11.7226488"><ele>472.00000000000006</ele><time>2026-04-26T14:24:34.196Z</time></trkpt><trkpt lat="43.0648325" lon="11.7225915"><ele>472.00000000000006</ele><time>2026-04-26T14:24:35.197Z</time></trkpt><trkpt lat="43.0649173" lon="11.7225314"><ele>472.0</ele><time>2026-04-26T14:24:36.194Z</time></trkpt><trkpt lat="43.0650088" lon="11.7224699"><ele>472.0</ele><time>2026-04-26T14:24:37.182Z</time></trkpt><trkpt lat="43.0651059" lon="11.7224056"><ele>471.75</ele><time>2026-04-26T14:24:38.195Z</time></trkpt><trkpt lat="43.0652087" lon="11.7223404"><ele>471.5</ele><time>2026-04-26T14:24:39.184Z</time></trkpt><trkpt lat="43.0653167" lon="11.7222736"><ele>471.25</ele><time>2026-04-26T14:24:40.202Z</time></trkpt><trkpt lat="43.0654264" lon="11.7222044"><ele>471.0</ele><time>2026-04-26T14:24:41.203Z</time></trkpt><trkpt lat="43.0655317" lon="11.7221382"><ele>471.0</ele><time>2026-04-26T14:24:42.199Z</time></trkpt><trkpt lat="43.0656319" lon="11.7220743"><ele>471.0</ele><time>2026-04-26T14:24:43.207Z</time></trkpt><trkpt lat="43.0657281" lon="11.7220102"><ele>471.0</ele><time>2026-04-26T14:24:44.185Z</time></trkpt><trkpt lat="43.0658204" lon="11.7219533"><ele>471.0</ele><time>2026-04-26T14:24:45.207Z</time></trkpt><trkpt lat="43.0659117" lon="11.7218981"><ele>471.0</ele><time>2026-04-26T14:24:46.177Z</time></trkpt><trkpt lat="43.0660033" lon="11.7218438"><ele>468.0</ele><time>2026-04-26T14:24:47.196Z</time></trkpt><trkpt lat="43.0660939" lon="11.72179"><ele>465.0</ele><time>2026-04-26T14:24:48.199Z</time></trkpt><trkpt lat="43.0661803" lon="11.7217394"><ele>462.0</ele><time>2026-04-26T14:24:49.201Z</time></trkpt><trkpt lat="43.0662635" lon="11.7216909"><ele>459.0</ele><time>2026-04-26T14:24:50.199Z</time></trkpt><trkpt lat="43.0663446" lon="11.7216454"><ele>456.0</ele><time>2026-04-26T14:24:51.186Z</time></trkpt><trkpt lat="43.0664307" lon="11.721601"><ele>456.0</ele><time>2026-04-26T14:24:52.197Z</time></trkpt><trkpt lat="43.0665219" lon="11.7215606"><ele>456.0</ele><time>2026-04-26T14:24:53.188Z</time></trkpt><trkpt lat="43.0666192" lon="11.7215255"><ele>456.0</ele><time>2026-04-26T14:24:54.205Z</time></trkpt><trkpt lat="43.0667198" lon="11.7214906"><ele>456.0</ele><time>2026-04-26T14:24:55.197Z</time></trkpt><trkpt lat="43.0668216" lon="11.7214714"><ele>456.0</ele><time>2026-04-26T14:24:56.19Z</time></trkpt><trkpt lat="43.0669256" lon="11.7214533"><ele>455.4</ele><time>2026-04-26T14:24:57.196Z</time></trkpt><trkpt lat="43.0670294" lon="11.7214371"><ele>454.8</ele><time>2026-04-26T14:24:58.189Z</time></trkpt><trkpt lat="43.0671287" lon="11.7214242"><ele>454.19999999999993</ele><time>2026-04-26T14:24:59.208Z</time></trkpt><trkpt lat="43.0672215" lon="11.7214106"><ele>453.59999999999997</ele><time>2026-04-26T14:25:00.202Z</time></trkpt><trkpt lat="43.0673069" lon="11.721399"><ele>453.0</ele><time>2026-04-26T14:25:01.195Z</time></trkpt><trkpt lat="43.0673887" lon="11.7213901"><ele>452.3333333333333</ele><time>2026-04-26T14:25:02.2Z</time></trkpt><trkpt lat="43.0674662" lon="11.7213808"><ele>451.66666666666663</ele><time>2026-04-26T14:25:03.205Z</time></trkpt><trkpt lat="43.0675387" lon="11.7213593"><ele>451.0</ele><time>2026-04-26T14:25:04.19Z</time></trkpt><trkpt lat="43.0676017" lon="11.721317"><ele>450.3333333333333</ele><time>2026-04-26T14:25:05.202Z</time></trkpt><trkpt lat="43.0676593" lon="11.7212512"><ele>449.66666666666663</ele><time>2026-04-26T14:25:06.185Z</time></trkpt><trkpt lat="43.0677152" lon="11.7211664"><ele>449.0</ele><time>2026-04-26T14:25:07.2Z</time></trkpt><trkpt lat="43.0677742" lon="11.7210767"><ele>446.4</ele><time>2026-04-26T14:25:08.191Z</time></trkpt><trkpt lat="43.06784" lon="11.7209738"><ele>443.79999999999995</ele><time>2026-04-26T14:25:09.185Z</time></trkpt><trkpt lat="43.0679068" lon="11.720874"><ele>441.20000000000005</ele><time>2026-04-26T14:25:10.185Z</time></trkpt><trkpt lat="43.0679738" lon="11.7207747"><ele>438.6</ele><time>2026-04-26T14:25:11.196Z</time></trkpt><trkpt lat="43.0680414" lon="11.7206757"><ele>436.0</ele><time>2026-04-26T14:25:12.193Z</time></trkpt><trkpt lat="43.0681084" lon="11.7205786"><ele>436.0</ele><time>2026-04-26T14:25:13.205Z</time></trkpt><trkpt lat="43.0681765" lon="11.7204808"><ele>436.0</ele><time>2026-04-26T14:25:14.2Z</time></trkpt><trkpt lat="43.0682477" lon="11.7203837"><ele>436.0</ele><time>2026-04-26T14:25:15.205Z</time></trkpt><trkpt lat="43.0683241" lon="11.7202928"><ele>436.0</ele><time>2026-04-26T14:25:16.195Z</time></trkpt><trkpt lat="43.0684095" lon="11.7202055"><ele>436.0</ele><time>2026-04-26T14:25:17.185Z</time></trkpt><trkpt lat="43.0685046" lon="11.7201227"><ele>432.6</ele><time>2026-04-26T14:25:18.196Z</time></trkpt><trkpt lat="43.0686041" lon="11.7200448"><ele>429.20000000000005</ele><time>2026-04-26T14:25:19.188Z</time></trkpt><trkpt lat="43.0687026" lon="11.7199699"><ele>425.79999999999995</ele><time>2026-04-26T14:25:20.201Z</time></trkpt><trkpt lat="43.0688006" lon="11.719897"><ele>422.4</ele><time>2026-04-26T14:25:21.188Z</time></trkpt><trkpt lat="43.0688964" lon="11.7198273"><ele>419.0</ele><time>2026-04-26T14:25:22.178Z</time></trkpt><trkpt lat="43.0689904" lon="11.7197594"><ele>419.0</ele><time>2026-04-26T14:25:23.207Z</time></trkpt><trkpt lat="43.0690827" lon="11.7196953"><ele>419.0</ele><time>2026-04-26T14:25:24.186Z</time></trkpt><trkpt lat="43.0691743" lon="11.719632"><ele>419.0</ele><time>2026-04-26T14:25:25.204Z</time></trkpt><trkpt lat="43.0692676" lon="11.7195716"><ele>419.0</ele><time>2026-04-26T14:25:26.198Z</time></trkpt><trkpt lat="43.0693556" lon="11.7195158"><ele>419.0</ele><time>2026-04-26T14:25:27.18Z</time></trkpt><trkpt lat="43.0694364" lon="11.7194617"><ele>418.4285714285714</ele><time>2026-04-26T14:25:28.189Z</time></trkpt><trkpt lat="43.0695093" lon="11.7194199"><ele>417.85714285714283</ele><time>2026-04-26T14:25:29.199Z</time></trkpt><trkpt lat="43.0695772" lon="11.7193795"><ele>417.2857142857143</ele><time>2026-04-26T14:25:30.203Z</time></trkpt><trkpt lat="43.0696402" lon="11.7193397"><ele>416.71428571428567</ele><time>2026-04-26T14:25:31.204Z</time></trkpt><trkpt lat="43.0696979" lon="11.7192858"><ele>416.14285714285717</ele><time>2026-04-26T14:25:32.211Z</time></trkpt><trkpt lat="43.0697438" lon="11.7192106"><ele>415.57142857142856</ele><time>2026-04-26T14:25:33.192Z</time></trkpt><trkpt lat="43.0697914" lon="11.7191281"><ele>415.0</ele><time>2026-04-26T14:25:34.195Z</time></trkpt><trkpt lat="43.0698156" lon="11.7190114"><ele>413.6</ele><time>2026-04-26T14:25:35.186Z</time></trkpt><trkpt lat="43.0698395" lon="11.7188858"><ele>412.2</ele><time>2026-04-26T14:25:36.199Z</time></trkpt><trkpt lat="43.0698623" lon="11.7187595"><ele>410.79999999999995</ele><time>2026-04-26T14:25:37.207Z</time></trkpt><trkpt lat="43.0698846" lon="11.718633"><ele>409.4</ele><time>2026-04-26T14:25:38.198Z</time></trkpt><trkpt lat="43.0699067" lon="11.7185094"><ele>408.0</ele><time>2026-04-26T14:25:39.198Z</time></trkpt><trkpt lat="43.0699293" lon="11.7183869"><ele>405.5</ele><time>2026-04-26T14:25:40.2Z</time></trkpt><trkpt lat="43.0699509" lon="11.7182699"><ele>403.0</ele><time>2026-04-26T14:25:41.201Z</time></trkpt><trkpt lat="43.0699724" lon="11.7181562"><ele>400.5</ele><time>2026-04-26T14:25:42.178Z</time></trkpt><trkpt lat="43.0699957" lon="11.7180423"><ele>398.0</ele><time>2026-04-26T14:25:43.195Z</time></trkpt><trkpt lat="43.0700234" lon="11.7179285"><ele>395.5</ele><time>2026-04-26T14:25:44.189Z</time></trkpt><trkpt lat="43.0700541" lon="11.7178122"><ele>393.0</ele><time>2026-04-26T14:25:45.181Z</time></trkpt><trkpt lat="43.0700903" lon="11.7176973"><ele>391.2</ele><time>2026-04-26T14:25:46.193Z</time></trkpt><trkpt lat="43.070132" lon="11.7175815"><ele>389.4</ele><time>2026-04-26T14:25:47.183Z</time></trkpt><trkpt lat="43.0701787" lon="11.7174665"><ele>387.59999999999997</ele><time>2026-04-26T14:25:48.2Z</time></trkpt><trkpt lat="43.0702311" lon="11.7173517"><ele>385.79999999999995</ele><time>2026-04-26T14:25:49.201Z</time></trkpt><trkpt lat="43.070286" lon="11.7172354"><ele>384.0</ele><time>2026-04-26T14:25:50.197Z</time></trkpt><trkpt lat="43.0703391" lon="11.7171136"><ele>384.0</ele><time>2026-04-26T14:25:51.2Z</time></trkpt><trkpt lat="43.0703876" lon="11.7169827"><ele>384.0</ele><time>2026-04-26T14:25:52.207Z</time></trkpt><trkpt lat="43.0704323" lon="11.716846"><ele>384.0</ele><time>2026-04-26T14:25:53.197Z</time></trkpt><trkpt lat="43.070469" lon="11.7167076"><ele>384.0</ele><time>2026-04-26T14:25:54.209Z</time></trkpt><trkpt lat="43.070503" lon="11.7165709"><ele>384.0</ele><time>2026-04-26T14:25:55.204Z</time></trkpt><trkpt lat="43.0705355" lon="11.7164438"><ele>382.1666666666667</ele><time>2026-04-26T14:25:56.212Z</time></trkpt><trkpt lat="43.0705669" lon="11.7163214"><ele>380.3333333333333</ele><time>2026-04-26T14:25:57.2Z</time></trkpt><trkpt lat="43.0705969" lon="11.7162051"><ele>378.5</ele><time>2026-04-26T14:25:58.202Z</time></trkpt><trkpt lat="43.0706254" lon="11.7160914"><ele>376.66666666666663</ele><time>2026-04-26T14:25:59.189Z</time></trkpt><trkpt lat="43.0706507" lon="11.7159802"><ele>374.8333333333333</ele><time>2026-04-26T14:26:00.192Z</time></trkpt><trkpt lat="43.0706653" lon="11.7158717"><ele>373.0</ele><time>2026-04-26T14:26:01.195Z</time></trkpt><trkpt lat="43.0706682" lon="11.715763"><ele>372.0</ele><time>2026-04-26T14:26:02.203Z</time></trkpt><trkpt lat="43.0706549" lon="11.7156554"><ele>371.0</ele><time>2026-04-26T14:26:03.204Z</time></trkpt><trkpt lat="43.0706243" lon="11.7155532"><ele>370.0</ele><time>2026-04-26T14:26:04.189Z</time></trkpt><trkpt lat="43.0705775" lon="11.7154616"><ele>369.0</ele><time>2026-04-26T14:26:05.2Z</time></trkpt><trkpt lat="43.0705208" lon="11.7153829"><ele>368.0</ele><time>2026-04-26T14:26:06.204Z</time></trkpt><trkpt lat="43.0704542" lon="11.7153112"><ele>367.0</ele><time>2026-04-26T14:26:07.204Z</time></trkpt><trkpt lat="43.0703842" lon="11.7152408"><ele>365.40000000000003</ele><time>2026-04-26T14:26:08.185Z</time></trkpt><trkpt lat="43.070316" lon="11.7151662"><ele>363.8</ele><time>2026-04-26T14:26:09.189Z</time></trkpt><trkpt lat="43.070263" lon="11.7150702"><ele>362.2</ele><time>2026-04-26T14:26:10.205Z</time></trkpt><trkpt lat="43.0702247" lon="11.7149534"><ele>360.6</ele><time>2026-04-26T14:26:11.193Z</time></trkpt><trkpt lat="43.070207" lon="11.7148235"><ele>359.0</ele><time>2026-04-26T14:26:12.206Z</time></trkpt><trkpt lat="43.0702103" lon="11.7146868"><ele>359.0</ele><time>2026-04-26T14:26:13.187Z</time></trkpt><trkpt lat="43.0702282" lon="11.7145464"><ele>359.0</ele><time>2026-04-26T14:26:14.206Z</time></trkpt><trkpt lat="43.0702462" lon="11.7144068"><ele>359.0</ele><time>2026-04-26T14:26:15.195Z</time></trkpt><trkpt lat="43.0702597" lon="11.7142661"><ele>359.0</ele><time>2026-04-26T14:26:16.189Z</time></trkpt><trkpt lat="43.0702609" lon="11.7141253"><ele>359.0</ele><time>2026-04-26T14:26:17.189Z</time></trkpt><trkpt lat="43.0702515" lon="11.7139812"><ele>358.6</ele><time>2026-04-26T14:26:18.193Z</time></trkpt><trkpt lat="43.0702363" lon="11.7138323"><ele>358.2</ele><time>2026-04-26T14:26:19.199Z</time></trkpt><trkpt lat="43.0702216" lon="11.7136805"><ele>357.8</ele><time>2026-04-26T14:26:20.205Z</time></trkpt><trkpt lat="43.0702077" lon="11.7135287"><ele>357.40000000000003</ele><time>2026-04-26T14:26:21.185Z</time></trkpt><trkpt lat="43.0701943" lon="11.7133749"><ele>357.0</ele><time>2026-04-26T14:26:22.206Z</time></trkpt><trkpt lat="43.070182" lon="11.713221"><ele>355.6</ele><time>2026-04-26T14:26:23.199Z</time></trkpt><trkpt lat="43.0701706" lon="11.7130675"><ele>354.20000000000005</ele><time>2026-04-26T14:26:24.2Z</time></trkpt><trkpt lat="43.0701567" lon="11.7129149"><ele>352.8</ele><time>2026-04-26T14:26:25.205Z</time></trkpt><trkpt lat="43.0701436" lon="11.7127653"><ele>351.4</ele><time>2026-04-26T14:26:26.2Z</time></trkpt><trkpt lat="43.0701339" lon="11.7126259"><ele>350.0</ele><time>2026-04-26T14:26:27.203Z</time></trkpt><trkpt lat="43.0701342" lon="11.7124988"><ele>349.0</ele><time>2026-04-26T14:26:28.194Z</time></trkpt><trkpt lat="43.0701514" lon="11.7123824"><ele>348.0</ele><time>2026-04-26T14:26:29.191Z</time></trkpt><trkpt lat="43.0701804" lon="11.7122754"><ele>347.0</ele><time>2026-04-26T14:26:30.193Z</time></trkpt><trkpt lat="43.0702221" lon="11.7121856"><ele>346.0</ele><time>2026-04-26T14:26:31.202Z</time></trkpt><trkpt lat="43.0702777" lon="11.7121147"><ele>345.0</ele><time>2026-04-26T14:26:32.2Z</time></trkpt><trkpt lat="43.070346" lon="11.7120717"><ele>344.0</ele><time>2026-04-26T14:26:33.194Z</time></trkpt><trkpt lat="43.0704176" lon="11.7120322"><ele>344.0</ele><time>2026-04-26T14:26:34.196Z</time></trkpt><trkpt lat="43.0705013" lon="11.7120365"><ele>344.0</ele><time>2026-04-26T14:26:35.18Z</time></trkpt><trkpt lat="43.0705939" lon="11.7120755"><ele>344.0</ele><time>2026-04-26T14:26:36.191Z</time></trkpt><trkpt lat="43.0706912" lon="11.7121284"><ele>344.0</ele><time>2026-04-26T14:26:37.193Z</time></trkpt><trkpt lat="43.0707937" lon="11.7121872"><ele>344.0</ele><time>2026-04-26T14:26:38.198Z</time></trkpt><trkpt lat="43.0708962" lon="11.7122414"><ele>344.0</ele><time>2026-04-26T14:26:39.202Z</time></trkpt><trkpt lat="43.0709974" lon="11.7122937"><ele>344.0</ele><time>2026-04-26T14:26:40.186Z</time></trkpt><trkpt lat="43.0710961" lon="11.7123426"><ele>344.0</ele><time>2026-04-26T14:26:41.19Z</time></trkpt><trkpt lat="43.0711885" lon="11.7123819"><ele>344.0</ele><time>2026-04-26T14:26:42.187Z</time></trkpt><trkpt lat="43.0712813" lon="11.712391"><ele>344.0</ele><time>2026-04-26T14:26:43.192Z</time></trkpt><trkpt lat="43.0713663" lon="11.7123786"><ele>344.0</ele><time>2026-04-26T14:26:44.196Z</time></trkpt><trkpt lat="43.0714465" lon="11.7123632"><ele>344.0</ele><time>2026-04-26T14:26:45.202Z</time></trkpt><trkpt lat="43.071515" lon="11.7123075"><ele>344.0</ele><time>2026-04-26T14:26:46.188Z</time></trkpt><trkpt lat="43.0715677" lon="11.7122043"><ele>344.0</ele><time>2026-04-26T14:26:47.197Z</time></trkpt><trkpt lat="43.0716224" lon="11.7120775"><ele>344.0</ele><time>2026-04-26T14:26:48.186Z</time></trkpt><trkpt lat="43.0716771" lon="11.7119437"><ele>343.75</ele><time>2026-04-26T14:26:49.187Z</time></trkpt><trkpt lat="43.0717377" lon="11.7117978"><ele>343.5</ele><time>2026-04-26T14:26:50.201Z</time></trkpt><trkpt lat="43.071796" lon="11.7116539"><ele>343.25</ele><time>2026-04-26T14:26:51.194Z</time></trkpt><trkpt lat="43.0718531" lon="11.7115176"><ele>343.0</ele><time>2026-04-26T14:26:52.205Z</time></trkpt><trkpt lat="43.0719116" lon="11.7113814"><ele>343.0</ele><time>2026-04-26T14:26:53.198Z</time></trkpt><trkpt lat="43.0719707" lon="11.7112355"><ele>343.0</ele><time>2026-04-26T14:26:54.184Z</time></trkpt><trkpt lat="43.0720251" lon="11.7111007"><ele>343.0</ele><time>2026-04-26T14:26:55.199Z</time></trkpt><trkpt lat="43.0720693" lon="11.7109803"><ele>343.0</ele><time>2026-04-26T14:26:56.194Z</time></trkpt><trkpt lat="43.0720961" lon="11.7108618"><ele>343.0</ele><time>2026-04-26T14:26:57.193Z</time></trkpt><trkpt lat="43.0721" lon="11.7107395"><ele>343.2</ele><time>2026-04-26T14:26:58.198Z</time></trkpt><trkpt lat="43.0720803" lon="11.7106178"><ele>343.4</ele><time>2026-04-26T14:26:59.187Z</time></trkpt><trkpt lat="43.0720528" lon="11.7104924"><ele>343.59999999999997</ele><time>2026-04-26T14:27:00.187Z</time></trkpt><trkpt lat="43.0720229" lon="11.7103655"><ele>343.79999999999995</ele><time>2026-04-26T14:27:01.201Z</time></trkpt><trkpt lat="43.0719926" lon="11.710238"><ele>344.0</ele><time>2026-04-26T14:27:02.202Z</time></trkpt><trkpt lat="43.0719613" lon="11.7101125"><ele>343.6666666666667</ele><time>2026-04-26T14:27:03.184Z</time></trkpt><trkpt lat="43.0719293" lon="11.7099921"><ele>343.33333333333337</ele><time>2026-04-26T14:27:04.191Z</time></trkpt><trkpt lat="43.0718999" lon="11.7098814"><ele>343.0</ele><time>2026-04-26T14:27:05.201Z</time></trkpt><trkpt lat="43.0718728" lon="11.7097775"><ele>342.6666666666667</ele><time>2026-04-26T14:27:06.203Z</time></trkpt><trkpt lat="43.0718442" lon="11.7096745"><ele>342.3333333333333</ele><time>2026-04-26T14:27:07.202Z</time></trkpt><trkpt lat="43.0718153" lon="11.709568"><ele>342.0</ele><time>2026-04-26T14:27:08.188Z</time></trkpt><trkpt lat="43.0717861" lon="11.7094574"><ele>341.6</ele><time>2026-04-26T14:27:09.199Z</time></trkpt><trkpt lat="43.0717581" lon="11.7093425"><ele>341.20000000000005</ele><time>2026-04-26T14:27:10.2Z</time></trkpt><trkpt lat="43.0717291" lon="11.7092235"><ele>340.8</ele><time>2026-04-26T14:27:11.197Z</time></trkpt><trkpt lat="43.0716961" lon="11.7091"><ele>340.4</ele><time>2026-04-26T14:27:12.189Z</time></trkpt><trkpt lat="43.0716605" lon="11.7089733"><ele>340.0</ele><time>2026-04-26T14:27:13.194Z</time></trkpt><trkpt lat="43.0716234" lon="11.7088457"><ele>339.6</ele><time>2026-04-26T14:27:14.202Z</time></trkpt><trkpt lat="43.0715855" lon="11.7087172"><ele>339.2</ele><time>2026-04-26T14:27:15.191Z</time></trkpt><trkpt lat="43.0715467" lon="11.7085878"><ele>338.79999999999995</ele><time>2026-04-26T14:27:16.189Z</time></trkpt><trkpt lat="43.0715083" lon="11.7084562"><ele>338.4</ele><time>2026-04-26T14:27:17.188Z</time></trkpt><trkpt lat="43.0714715" lon="11.7083225"><ele>338.0</ele><time>2026-04-26T14:27:18.197Z</time></trkpt><trkpt lat="43.0714369" lon="11.7081852"><ele>337.79999999999995</ele><time>2026-04-26T14:27:19.204Z</time></trkpt><trkpt lat="43.0714058" lon="11.7080447"><ele>337.6</ele><time>2026-04-26T14:27:20.202Z</time></trkpt><trkpt lat="43.0713786" lon="11.7079019"><ele>337.4</ele><time>2026-04-26T14:27:21.203Z</time></trkpt><trkpt lat="43.0713548" lon="11.7077562"><ele>337.20000000000005</ele><time>2026-04-26T14:27:22.188Z</time></trkpt><trkpt lat="43.0713343" lon="11.7076094"><ele>337.0</ele><time>2026-04-26T14:27:23.194Z</time></trkpt><trkpt lat="43.0713136" lon="11.7074628"><ele>337.0</ele><time>2026-04-26T14:27:24.203Z</time></trkpt><trkpt lat="43.0712874" lon="11.7073152"><ele>337.0</ele><time>2026-04-26T14:27:25.2Z</time></trkpt><trkpt lat="43.0712644" lon="11.707168"><ele>337.0</ele><time>2026-04-26T14:27:26.202Z</time></trkpt><trkpt lat="43.0712235" lon="11.7070206"><ele>337.0</ele><time>2026-04-26T14:27:27.205Z</time></trkpt><trkpt lat="43.0711758" lon="11.7068753"><ele>336.5</ele><time>2026-04-26T14:27:28.19Z</time></trkpt><trkpt lat="43.0711229" lon="11.7067315"><ele>336.0</ele><time>2026-04-26T14:27:29.186Z</time></trkpt><trkpt lat="43.0710695" lon="11.7065894"><ele>335.5</ele><time>2026-04-26T14:27:30.184Z</time></trkpt><trkpt lat="43.0710122" lon="11.7064498"><ele>335.0</ele><time>2026-04-26T14:27:31.186Z</time></trkpt><trkpt lat="43.0709519" lon="11.7063134"><ele>335.0</ele><time>2026-04-26T14:27:32.206Z</time></trkpt><trkpt lat="43.0708946" lon="11.7061802"><ele>335.0</ele><time>2026-04-26T14:27:33.187Z</time></trkpt><trkpt lat="43.0708349" lon="11.7060487"><ele>335.0</ele><time>2026-04-26T14:27:34.192Z</time></trkpt><trkpt lat="43.0707733" lon="11.705915"><ele>335.0</ele><time>2026-04-26T14:27:35.199Z</time></trkpt><trkpt lat="43.0707073" lon="11.7057862"><ele>334.25</ele><time>2026-04-26T14:27:36.207Z</time></trkpt><trkpt lat="43.0706385" lon="11.7056604"><ele>333.5</ele><time>2026-04-26T14:27:37.182Z</time></trkpt><trkpt lat="43.0705656" lon="11.7055352"><ele>332.75</ele><time>2026-04-26T14:27:38.207Z</time></trkpt><trkpt lat="43.0704884" lon="11.7054102"><ele>332.0</ele><time>2026-04-26T14:27:39.201Z</time></trkpt><trkpt lat="43.0704073" lon="11.7052843"><ele>331.75</ele><time>2026-04-26T14:27:40.188Z</time></trkpt><trkpt lat="43.0703248" lon="11.7051601"><ele>331.5</ele><time>2026-04-26T14:27:41.192Z</time></trkpt><trkpt lat="43.0702409" lon="11.7050365"><ele>331.25</ele><time>2026-04-26T14:27:42.193Z</time></trkpt><trkpt lat="43.0701567" lon="11.7049144"><ele>331.0</ele><time>2026-04-26T14:27:43.203Z</time></trkpt><trkpt lat="43.0700743" lon="11.704795"><ele>331.0</ele><time>2026-04-26T14:27:44.194Z</time></trkpt><trkpt lat="43.0699951" lon="11.7046791"><ele>331.0</ele><time>2026-04-26T14:27:45.198Z</time></trkpt><trkpt lat="43.0699213" lon="11.7045684"><ele>331.0</ele><time>2026-04-26T14:27:46.198Z</time></trkpt><trkpt lat="43.0698493" lon="11.7044612"><ele>331.0</ele><time>2026-04-26T14:27:47.194Z</time></trkpt><trkpt lat="43.0697773" lon="11.704351"><ele>331.0</ele><time>2026-04-26T14:27:48.199Z</time></trkpt><trkpt lat="43.0697056" lon="11.704237"><ele>331.0</ele><time>2026-04-26T14:27:49.193Z</time></trkpt><trkpt lat="43.0696356" lon="11.7041184"><ele>331.0</ele><time>2026-04-26T14:27:50.206Z</time></trkpt><trkpt lat="43.0695688" lon="11.7039952"><ele>331.0</ele><time>2026-04-26T14:27:51.196Z</time></trkpt><trkpt lat="43.0695079" lon="11.7038663"><ele>331.0</ele><time>2026-04-26T14:27:52.204Z</time></trkpt><trkpt lat="43.0694452" lon="11.7037418"><ele>331.0</ele><time>2026-04-26T14:27:53.2Z</time></trkpt><trkpt lat="43.0693846" lon="11.7036107"><ele>331.0</ele><time>2026-04-26T14:27:54.204Z</time></trkpt><trkpt lat="43.0693337" lon="11.7034742"><ele>331.0</ele><time>2026-04-26T14:27:55.202Z</time></trkpt><trkpt lat="43.0692809" lon="11.7033378"><ele>331.0</ele><time>2026-04-26T14:27:56.179Z</time></trkpt><trkpt lat="43.0692215" lon="11.7032091"><ele>331.0</ele><time>2026-04-26T14:27:57.203Z</time></trkpt><trkpt lat="43.0691567" lon="11.7030825"><ele>331.0</ele><time>2026-04-26T14:27:58.203Z</time></trkpt><trkpt lat="43.0690892" lon="11.7029562"><ele>331.0</ele><time>2026-04-26T14:27:59.201Z</time></trkpt><trkpt lat="43.0690213" lon="11.702829"><ele>331.0</ele><time>2026-04-26T14:28:00.207Z</time></trkpt><trkpt lat="43.0689509" lon="11.7026985"><ele>331.0</ele><time>2026-04-26T14:28:01.198Z</time></trkpt><trkpt lat="43.068875" lon="11.7025631"><ele>331.0</ele><time>2026-04-26T14:28:02.202Z</time></trkpt><trkpt lat="43.0687991" lon="11.7024249"><ele>331.25</ele><time>2026-04-26T14:28:03.203Z</time></trkpt><trkpt lat="43.0687204" lon="11.7022765"><ele>331.5</ele><time>2026-04-26T14:28:04.194Z</time></trkpt><trkpt lat="43.0686473" lon="11.7021244"><ele>331.75</ele><time>2026-04-26T14:28:05.2Z</time></trkpt><trkpt lat="43.0685833" lon="11.7019754"><ele>332.0</ele><time>2026-04-26T14:28:06.199Z</time></trkpt><trkpt lat="43.0685295" lon="11.7018231"><ele>334.25</ele><time>2026-04-26T14:28:07.187Z</time></trkpt><trkpt lat="43.0684856" lon="11.7016658"><ele>336.5</ele><time>2026-04-26T14:28:08.188Z</time></trkpt><trkpt lat="43.0684479" lon="11.7015032"><ele>338.75</ele><time>2026-04-26T14:28:09.203Z</time></trkpt><trkpt lat="43.0684104" lon="11.7013348"><ele>341.0</ele><time>2026-04-26T14:28:10.188Z</time></trkpt><trkpt lat="43.0683721" lon="11.7011639"><ele>341.5</ele><time>2026-04-26T14:28:11.198Z</time></trkpt><trkpt lat="43.0683294" lon="11.7009949"><ele>342.0</ele><time>2026-04-26T14:28:12.187Z</time></trkpt><trkpt lat="43.0682798" lon="11.7008283"><ele>342.5</ele><time>2026-04-26T14:28:13.203Z</time></trkpt><trkpt lat="43.0682235" lon="11.7006659"><ele>343.0</ele><time>2026-04-26T14:28:14.212Z</time></trkpt><trkpt lat="43.0681638" lon="11.7005129"><ele>343.0</ele><time>2026-04-26T14:28:15.199Z</time></trkpt><trkpt lat="43.0681034" lon="11.7003691"><ele>343.0</ele><time>2026-04-26T14:28:16.186Z</time></trkpt><trkpt lat="43.068044" lon="11.7002288"><ele>343.0</ele><time>2026-04-26T14:28:17.206Z</time></trkpt><trkpt lat="43.0679867" lon="11.7000873"><ele>343.0</ele><time>2026-04-26T14:28:18.19Z</time></trkpt><trkpt lat="43.0679298" lon="11.6999436"><ele>345.25</ele><time>2026-04-26T14:28:19.206Z</time></trkpt><trkpt lat="43.0678701" lon="11.6997981"><ele>347.5</ele><time>2026-04-26T14:28:20.195Z</time></trkpt><trkpt lat="43.0678068" lon="11.6996542"><ele>349.75</ele><time>2026-04-26T14:28:21.199Z</time></trkpt><trkpt lat="43.0677382" lon="11.6995188"><ele>352.0</ele><time>2026-04-26T14:28:22.195Z</time></trkpt><trkpt lat="43.0676611" lon="11.699398"><ele>351.5</ele><time>2026-04-26T14:28:23.207Z</time></trkpt><trkpt lat="43.0675729" lon="11.6992938"><ele>351.0</ele><time>2026-04-26T14:28:24.198Z</time></trkpt><trkpt lat="43.06747" lon="11.6992018"><ele>350.5</ele><time>2026-04-26T14:28:25.2Z</time></trkpt><trkpt lat="43.0673544" lon="11.6991094"><ele>350.0</ele><time>2026-04-26T14:28:26.188Z</time></trkpt><trkpt lat="43.0672374" lon="11.6990156"><ele>350.0</ele><time>2026-04-26T14:28:27.187Z</time></trkpt><trkpt lat="43.0671262" lon="11.6989268"><ele>350.0</ele><time>2026-04-26T14:28:28.201Z</time></trkpt><trkpt lat="43.0670192" lon="11.6988418"><ele>350.0</ele><time>2026-04-26T14:28:29.192Z</time></trkpt><trkpt lat="43.0669124" lon="11.6987525"><ele>350.0</ele><time>2026-04-26T14:28:30.201Z</time></trkpt><trkpt lat="43.0668035" lon="11.6986623"><ele>351.0</ele><time>2026-04-26T14:28:31.195Z</time></trkpt><trkpt lat="43.0666903" lon="11.6985702"><ele>352.0</ele><time>2026-04-26T14:28:32.199Z</time></trkpt><trkpt lat="43.0665749" lon="11.6984793"><ele>353.0</ele><time>2026-04-26T14:28:33.185Z</time></trkpt><trkpt lat="43.066461" lon="11.6983887"><ele>354.0</ele><time>2026-04-26T14:28:34.205Z</time></trkpt><trkpt lat="43.0663466" lon="11.6982965"><ele>352.0</ele><time>2026-04-26T14:28:35.204Z</time></trkpt><trkpt lat="43.0662363" lon="11.6982068"><ele>350.0</ele><time>2026-04-26T14:28:36.199Z</time></trkpt><trkpt lat="43.0661329" lon="11.6981234"><ele>348.0</ele><time>2026-04-26T14:28:37.201Z</time></trkpt><trkpt lat="43.066035" lon="11.698044"><ele>346.0</ele><time>2026-04-26T14:28:38.195Z</time></trkpt><trkpt lat="43.0659425" lon="11.6979651"><ele>346.0</ele><time>2026-04-26T14:28:39.2Z</time></trkpt><trkpt lat="43.0658551" lon="11.6978817"><ele>346.0</ele><time>2026-04-26T14:28:40.2Z</time></trkpt><trkpt lat="43.0657739" lon="11.6977892"><ele>346.0</ele><time>2026-04-26T14:28:41.189Z</time></trkpt><trkpt lat="43.0657046" lon="11.6976781"><ele>346.0</ele><time>2026-04-26T14:28:42.186Z</time></trkpt><trkpt lat="43.0656516" lon="11.6975455"><ele>346.0</ele><time>2026-04-26T14:28:43.183Z</time></trkpt><trkpt lat="43.065617" lon="11.6974017"><ele>345.25</ele><time>2026-04-26T14:28:44.188Z</time></trkpt><trkpt lat="43.0655918" lon="11.6972522"><ele>344.5</ele><time>2026-04-26T14:28:45.199Z</time></trkpt><trkpt lat="43.0655691" lon="11.6970951"><ele>343.75</ele><time>2026-04-26T14:28:46.211Z</time></trkpt><trkpt lat="43.0655462" lon="11.6969263"><ele>343.0</ele><time>2026-04-26T14:28:47.183Z</time></trkpt><trkpt lat="43.0655237" lon="11.6967583"><ele>343.0</ele><time>2026-04-26T14:28:48.189Z</time></trkpt><trkpt lat="43.0655007" lon="11.6965939"><ele>343.0</ele><time>2026-04-26T14:28:49.185Z</time></trkpt><trkpt lat="43.065479" lon="11.6964336"><ele>343.0</ele><time>2026-04-26T14:28:50.196Z</time></trkpt><trkpt lat="43.0654556" lon="11.6962694"><ele>343.0</ele><time>2026-04-26T14:28:51.198Z</time></trkpt><trkpt lat="43.0654313" lon="11.6960951"><ele>344.25</ele><time>2026-04-26T14:28:52.2Z</time></trkpt><trkpt lat="43.065404" lon="11.695915"><ele>345.5</ele><time>2026-04-26T14:28:53.202Z</time></trkpt><trkpt lat="43.0653761" lon="11.6957357"><ele>346.75</ele><time>2026-04-26T14:28:54.191Z</time></trkpt><trkpt lat="43.0653482" lon="11.6955546"><ele>348.0</ele><time>2026-04-26T14:28:55.19Z</time></trkpt><trkpt lat="43.0653213" lon="11.6953743"><ele>348.25</ele><time>2026-04-26T14:28:56.201Z</time></trkpt><trkpt lat="43.065294" lon="11.6951901"><ele>348.5</ele><time>2026-04-26T14:28:57.197Z</time></trkpt><trkpt lat="43.0652645" lon="11.6950028"><ele>348.75</ele><time>2026-04-26T14:28:58.197Z</time></trkpt><trkpt lat="43.0652336" lon="11.6948146"><ele>349.0</ele><time>2026-04-26T14:28:59.208Z</time></trkpt><trkpt lat="43.0652046" lon="11.6946265"><ele>349.0</ele><time>2026-04-26T14:29:00.192Z</time></trkpt><trkpt lat="43.065177" lon="11.6944401"><ele>349.0</ele><time>2026-04-26T14:29:01.2Z</time></trkpt><trkpt lat="43.0651513" lon="11.6942615"><ele>349.0</ele><time>2026-04-26T14:29:02.196Z</time></trkpt><trkpt lat="43.0651318" lon="11.6940887"><ele>349.0</ele><time>2026-04-26T14:29:03.208Z</time></trkpt><trkpt lat="43.0651263" lon="11.6939196"><ele>350.25</ele><time>2026-04-26T14:29:04.207Z</time></trkpt><trkpt lat="43.0651328" lon="11.6937524"><ele>351.5</ele><time>2026-04-26T14:29:05.19Z</time></trkpt><trkpt lat="43.0651475" lon="11.6935817"><ele>352.75</ele><time>2026-04-26T14:29:06.204Z</time></trkpt><trkpt lat="43.0651662" lon="11.6934068"><ele>354.0</ele><time>2026-04-26T14:29:07.2Z</time></trkpt><trkpt lat="43.0651872" lon="11.6932267"><ele>354.5</ele><time>2026-04-26T14:29:08.21Z</time></trkpt><trkpt lat="43.0652105" lon="11.6930431"><ele>355.0</ele><time>2026-04-26T14:29:09.199Z</time></trkpt><trkpt lat="43.0652351" lon="11.6928573"><ele>355.5</ele><time>2026-04-26T14:29:10.199Z</time></trkpt><trkpt lat="43.06526" lon="11.6926671"><ele>356.0</ele><time>2026-04-26T14:29:11.194Z</time></trkpt><trkpt lat="43.0652835" lon="11.6924774"><ele>356.25</ele><time>2026-04-26T14:29:12.202Z</time></trkpt><trkpt lat="43.0653062" lon="11.6922895"><ele>356.5</ele><time>2026-04-26T14:29:13.188Z</time></trkpt><trkpt lat="43.0653285" lon="11.6921034"><ele>356.75</ele><time>2026-04-26T14:29:14.203Z</time></trkpt><trkpt lat="43.0653511" lon="11.6919185"><ele>357.0</ele><time>2026-04-26T14:29:15.194Z</time></trkpt><trkpt lat="43.0653737" lon="11.6917357"><ele>358.5</ele><time>2026-04-26T14:29:16.186Z</time></trkpt><trkpt lat="43.0653963" lon="11.6915555"><ele>360.0</ele><time>2026-04-26T14:29:17.196Z</time></trkpt><trkpt lat="43.0654183" lon="11.6913774"><ele>361.5</ele><time>2026-04-26T14:29:18.181Z</time></trkpt><trkpt lat="43.0654394" lon="11.6912011"><ele>363.0</ele><time>2026-04-26T14:29:19.207Z</time></trkpt><trkpt lat="43.0654574" lon="11.6910353"><ele>363.2</ele><time>2026-04-26T14:29:20.189Z</time></trkpt><trkpt lat="43.0654659" lon="11.6908856"><ele>363.4</ele><time>2026-04-26T14:29:21.2Z</time></trkpt><trkpt lat="43.0654606" lon="11.6907495"><ele>363.59999999999997</ele><time>2026-04-26T14:29:22.196Z</time></trkpt><trkpt lat="43.065441" lon="11.6906178"><ele>363.79999999999995</ele><time>2026-04-26T14:29:23.206Z</time></trkpt><trkpt lat="43.0654093" lon="11.6904838"><ele>364.0</ele><time>2026-04-26T14:29:24.202Z</time></trkpt><trkpt lat="43.0653755" lon="11.6903447"><ele>363.25</ele><time>2026-04-26T14:29:25.189Z</time></trkpt><trkpt lat="43.0653257" lon="11.6901944"><ele>362.5</ele><time>2026-04-26T14:29:26.188Z</time></trkpt><trkpt lat="43.0652808" lon="11.6900442"><ele>361.75</ele><time>2026-04-26T14:29:27.197Z</time></trkpt><trkpt lat="43.0652468" lon="11.6899001"><ele>361.0</ele><time>2026-04-26T14:29:28.202Z</time></trkpt><trkpt lat="43.0652291" lon="11.6897536"><ele>361.0</ele><time>2026-04-26T14:29:29.213Z</time></trkpt><trkpt lat="43.0652206" lon="11.6895931"><ele>361.0</ele><time>2026-04-26T14:29:30.203Z</time></trkpt><trkpt lat="43.0652219" lon="11.689426"><ele>361.0</ele><time>2026-04-26T14:29:31.205Z</time></trkpt><trkpt lat="43.0652304" lon="11.689253"><ele>361.0</ele><time>2026-04-26T14:29:32.185Z</time></trkpt><trkpt lat="43.0652431" lon="11.6890759"><ele>360.25</ele><time>2026-04-26T14:29:33.204Z</time></trkpt><trkpt lat="43.0652593" lon="11.6888972"><ele>359.5</ele><time>2026-04-26T14:29:34.195Z</time></trkpt><trkpt lat="43.0652794" lon="11.6887173"><ele>358.75</ele><time>2026-04-26T14:29:35.189Z</time></trkpt><trkpt lat="43.0653044" lon="11.6885407"><ele>358.0</ele><time>2026-04-26T14:29:36.197Z</time></trkpt><trkpt lat="43.0653332" lon="11.6883806"><ele>357.2</ele><time>2026-04-26T14:29:37.199Z</time></trkpt><trkpt lat="43.0653723" lon="11.6882443"><ele>356.4</ele><time>2026-04-26T14:29:38.203Z</time></trkpt><trkpt lat="43.06543" lon="11.6881301"><ele>355.59999999999997</ele><time>2026-04-26T14:29:39.19Z</time></trkpt><trkpt lat="43.0655" lon="11.6880331"><ele>354.79999999999995</ele><time>2026-04-26T14:29:40.193Z</time></trkpt><trkpt lat="43.0655717" lon="11.6879392"><ele>354.0</ele><time>2026-04-26T14:29:41.203Z</time></trkpt><trkpt lat="43.0656349" lon="11.6878395"><ele>354.79999999999995</ele><time>2026-04-26T14:29:42.201Z</time></trkpt><trkpt lat="43.0656872" lon="11.6877291"><ele>355.59999999999997</ele><time>2026-04-26T14:29:43.192Z</time></trkpt><trkpt lat="43.0657218" lon="11.6875977"><ele>356.4</ele><time>2026-04-26T14:29:44.188Z</time></trkpt><trkpt lat="43.0657473" lon="11.6874569"><ele>357.2</ele><time>2026-04-26T14:29:45.181Z</time></trkpt><trkpt lat="43.0657694" lon="11.6873106"><ele>358.0</ele><time>2026-04-26T14:29:46.203Z</time></trkpt><trkpt lat="43.0657895" lon="11.6871604"><ele>358.0</ele><time>2026-04-26T14:29:47.199Z</time></trkpt><trkpt lat="43.065809" lon="11.6870069"><ele>358.0</ele><time>2026-04-26T14:29:48.199Z</time></trkpt><trkpt lat="43.0658283" lon="11.686854"><ele>358.0</ele><time>2026-04-26T14:29:49.195Z</time></trkpt><trkpt lat="43.0658472" lon="11.6867025"><ele>358.0</ele><time>2026-04-26T14:29:50.192Z</time></trkpt><trkpt lat="43.0658671" lon="11.6865538"><ele>356.79999999999995</ele><time>2026-04-26T14:29:51.191Z</time></trkpt><trkpt lat="43.0658895" lon="11.6864081"><ele>355.6</ele><time>2026-04-26T14:29:52.186Z</time></trkpt><trkpt lat="43.0659184" lon="11.6862641"><ele>354.4</ele><time>2026-04-26T14:29:53.193Z</time></trkpt><trkpt lat="43.0659582" lon="11.6861225"><ele>353.20000000000005</ele><time>2026-04-26T14:29:54.19Z</time></trkpt><trkpt lat="43.0660065" lon="11.6859908"><ele>352.0</ele><time>2026-04-26T14:29:55.197Z</time></trkpt><trkpt lat="43.0660585" lon="11.685872"><ele>351.0</ele><time>2026-04-26T14:29:56.203Z</time></trkpt><trkpt lat="43.0661092" lon="11.6857651"><ele>350.0</ele><time>2026-04-26T14:29:57.2Z</time></trkpt><trkpt lat="43.0661549" lon="11.6856676"><ele>349.0</ele><time>2026-04-26T14:29:58.199Z</time></trkpt><trkpt lat="43.0661946" lon="11.6855764"><ele>348.0</ele><time>2026-04-26T14:29:59.191Z</time></trkpt><trkpt lat="43.0662295" lon="11.6854899"><ele>347.0</ele><time>2026-04-26T14:30:00.203Z</time></trkpt><trkpt lat="43.0662542" lon="11.6854043"><ele>346.0</ele><time>2026-04-26T14:30:01.198Z</time></trkpt><trkpt lat="43.0662645" lon="11.6853173"><ele>344.20000000000005</ele><time>2026-04-26T14:30:02.204Z</time></trkpt><trkpt lat="43.0662237" lon="11.6851564"><ele>342.40000000000003</ele><time>2026-04-26T14:30:04.191Z</time></trkpt><trkpt lat="43.0661271" lon="11.685033"><ele>340.6</ele><time>2026-04-26T14:30:06.202Z</time></trkpt><trkpt lat="43.06606" lon="11.6849858"><ele>338.8</ele><time>2026-04-26T14:30:07.201Z</time></trkpt><trkpt lat="43.0659954" lon="11.6849321"><ele>337.0</ele><time>2026-04-26T14:30:08.193Z</time></trkpt><trkpt lat="43.0659376" lon="11.6848557"><ele>337.0</ele><time>2026-04-26T14:30:09.194Z</time></trkpt><trkpt lat="43.0658919" lon="11.6847505"><ele>337.0</ele><time>2026-04-26T14:30:10.201Z</time></trkpt><trkpt lat="43.0658577" lon="11.6846157"><ele>337.0</ele><time>2026-04-26T14:30:11.189Z</time></trkpt><trkpt lat="43.0658257" lon="11.6844484"><ele>337.0</ele><time>2026-04-26T14:30:12.21Z</time></trkpt><trkpt lat="43.0657899" lon="11.6842752"><ele>333.5</ele><time>2026-04-26T14:30:13.197Z</time></trkpt><trkpt lat="43.0657416" lon="11.6840902"><ele>330.0</ele><time>2026-04-26T14:30:14.204Z</time></trkpt><trkpt lat="43.0656905" lon="11.6839134"><ele>326.5</ele><time>2026-04-26T14:30:15.201Z</time></trkpt><trkpt lat="43.0656395" lon="11.6837442"><ele>323.0</ele><time>2026-04-26T14:30:16.197Z</time></trkpt><trkpt lat="43.065586" lon="11.6835803"><ele>322.75</ele><time>2026-04-26T14:30:17.195Z</time></trkpt><trkpt lat="43.065529" lon="11.6834182"><ele>322.5</ele><time>2026-04-26T14:30:18.201Z</time></trkpt><trkpt lat="43.0654689" lon="11.6832563"><ele>322.25</ele><time>2026-04-26T14:30:19.191Z</time></trkpt><trkpt lat="43.0654089" lon="11.6830951"><ele>322.0</ele><time>2026-04-26T14:30:20.198Z</time></trkpt><trkpt lat="43.0653512" lon="11.6829376"><ele>322.0</ele><time>2026-04-26T14:30:21.198Z</time></trkpt><trkpt lat="43.0652971" lon="11.6827882"><ele>322.0</ele><time>2026-04-26T14:30:22.204Z</time></trkpt><trkpt lat="43.0652448" lon="11.6826446"><ele>322.0</ele><time>2026-04-26T14:30:23.199Z</time></trkpt><trkpt lat="43.0651923" lon="11.6825023"><ele>322.0</ele><time>2026-04-26T14:30:24.189Z</time></trkpt><trkpt lat="43.0651402" lon="11.6823608"><ele>321.6</ele><time>2026-04-26T14:30:25.202Z</time></trkpt><trkpt lat="43.0650899" lon="11.6822194"><ele>321.20000000000005</ele><time>2026-04-26T14:30:26.194Z</time></trkpt><trkpt lat="43.0650415" lon="11.6820787"><ele>320.8</ele><time>2026-04-26T14:30:27.205Z</time></trkpt><trkpt lat="43.0649938" lon="11.6819428"><ele>320.4</ele><time>2026-04-26T14:30:28.193Z</time></trkpt><trkpt lat="43.0649507" lon="11.6818218"><ele>320.0</ele><time>2026-04-26T14:30:29.19Z</time></trkpt><trkpt lat="43.0649119" lon="11.6817158"><ele>320.0</ele><time>2026-04-26T14:30:30.209Z</time></trkpt><trkpt lat="43.0648817" lon="11.6816314"><ele>320.0</ele><time>2026-04-26T14:30:31.205Z</time></trkpt><trkpt lat="43.0648379" lon="11.6814877"><ele>320.0</ele><time>2026-04-26T14:30:33.207Z</time></trkpt><trkpt lat="43.0648105" lon="11.6813595"><ele>320.0</ele><time>2026-04-26T14:30:35.208Z</time></trkpt><trkpt lat="43.0648386" lon="11.6812444"><ele>320.0</ele><time>2026-04-26T14:30:38.188Z</time></trkpt><trkpt lat="43.0649507" lon="11.6812081"><ele>320.0</ele><time>2026-04-26T14:30:40.187Z</time></trkpt><trkpt lat="43.0650266" lon="11.6812036"><ele>320.0</ele><time>2026-04-26T14:30:41.183Z</time></trkpt><trkpt lat="43.0651145" lon="11.6811942"><ele>320.0</ele><time>2026-04-26T14:30:42.197Z</time></trkpt><trkpt lat="43.0652128" lon="11.6811793"><ele>320.0</ele><time>2026-04-26T14:30:43.188Z</time></trkpt><trkpt lat="43.0653125" lon="11.6811626"><ele>320.0</ele><time>2026-04-26T14:30:44.199Z</time></trkpt><trkpt lat="43.0654136" lon="11.6811463"><ele>320.0</ele><time>2026-04-26T14:30:45.187Z</time></trkpt><trkpt lat="43.0655184" lon="11.6811329"><ele>320.0</ele><time>2026-04-26T14:30:46.185Z</time></trkpt><trkpt lat="43.0656259" lon="11.6811194"><ele>320.0</ele><time>2026-04-26T14:30:47.201Z</time></trkpt><trkpt lat="43.0657354" lon="11.6811068"><ele>320.0</ele><time>2026-04-26T14:30:48.207Z</time></trkpt><trkpt lat="43.0658427" lon="11.6810944"><ele>320.0</ele><time>2026-04-26T14:30:49.191Z</time></trkpt><trkpt lat="43.0659451" lon="11.6810697"><ele>320.6</ele><time>2026-04-26T14:30:50.202Z</time></trkpt><trkpt lat="43.066038" lon="11.6810171"><ele>321.2</ele><time>2026-04-26T14:30:51.199Z</time></trkpt><trkpt lat="43.0661128" lon="11.6809272"><ele>321.79999999999995</ele><time>2026-04-26T14:30:52.194Z</time></trkpt><trkpt lat="43.0661613" lon="11.6808048"><ele>322.4</ele><time>2026-04-26T14:30:53.193Z</time></trkpt><trkpt lat="43.066177" lon="11.6806612"><ele>323.0</ele><time>2026-04-26T14:30:54.201Z</time></trkpt><trkpt lat="43.0661911" lon="11.6805079"><ele>323.0</ele><time>2026-04-26T14:30:55.192Z</time></trkpt><trkpt lat="43.0661552" lon="11.6803344"><ele>323.0</ele><time>2026-04-26T14:30:56.199Z</time></trkpt><trkpt lat="43.0661174" lon="11.6801446"><ele>323.0</ele><time>2026-04-26T14:30:57.199Z</time></trkpt><trkpt lat="43.0660765" lon="11.6799461"><ele>323.0</ele><time>2026-04-26T14:30:58.202Z</time></trkpt><trkpt lat="43.0660242" lon="11.6797431"><ele>324.0</ele><time>2026-04-26T14:30:59.204Z</time></trkpt><trkpt lat="43.065954" lon="11.6795506"><ele>325.0</ele><time>2026-04-26T14:31:00.205Z</time></trkpt><trkpt lat="43.0658758" lon="11.6793698"><ele>326.0</ele><time>2026-04-26T14:31:01.19Z</time></trkpt><trkpt lat="43.0658091" lon="11.6791915"><ele>327.75</ele><time>2026-04-26T14:31:02.209Z</time></trkpt><trkpt lat="43.0657693" lon="11.6790123"><ele>329.5</ele><time>2026-04-26T14:31:03.186Z</time></trkpt><trkpt lat="43.0657668" lon="11.6788305"><ele>331.25</ele><time>2026-04-26T14:31:04.2Z</time></trkpt><trkpt lat="43.0657986" lon="11.678652"><ele>333.0</ele><time>2026-04-26T14:31:05.187Z</time></trkpt><trkpt lat="43.0658464" lon="11.6784768"><ele>333.25</ele><time>2026-04-26T14:31:06.2Z</time></trkpt><trkpt lat="43.0659046" lon="11.6783118"><ele>333.5</ele><time>2026-04-26T14:31:07.194Z</time></trkpt><trkpt lat="43.0659804" lon="11.6781657"><ele>333.75</ele><time>2026-04-26T14:31:08.199Z</time></trkpt><trkpt lat="43.0660764" lon="11.6780473"><ele>334.0</ele><time>2026-04-26T14:31:09.196Z</time></trkpt><trkpt lat="43.0661908" lon="11.677971"><ele>334.0</ele><time>2026-04-26T14:31:10.205Z</time></trkpt><trkpt lat="43.066316" lon="11.6779444"><ele>334.0</ele><time>2026-04-26T14:31:11.199Z</time></trkpt><trkpt lat="43.066444" lon="11.6779653"><ele>334.0</ele><time>2026-04-26T14:31:12.196Z</time></trkpt><trkpt lat="43.0665688" lon="11.6780297"><ele>334.0</ele><time>2026-04-26T14:31:13.195Z</time></trkpt><trkpt lat="43.0666906" lon="11.6781206"><ele>336.25</ele><time>2026-04-26T14:31:14.197Z</time></trkpt><trkpt lat="43.0668175" lon="11.6782155"><ele>338.5</ele><time>2026-04-26T14:31:15.187Z</time></trkpt><trkpt lat="43.0669491" lon="11.6783038"><ele>340.75</ele><time>2026-04-26T14:31:16.198Z</time></trkpt><trkpt lat="43.0670803" lon="11.678381"><ele>343.0</ele><time>2026-04-26T14:31:17.194Z</time></trkpt><trkpt lat="43.0672117" lon="11.6784443"><ele>343.0</ele><time>2026-04-26T14:31:18.199Z</time></trkpt><trkpt lat="43.0673459" lon="11.6784989"><ele>343.0</ele><time>2026-04-26T14:31:19.199Z</time></trkpt><trkpt lat="43.067478" lon="11.6785542"><ele>343.0</ele><time>2026-04-26T14:31:20.202Z</time></trkpt><trkpt lat="43.0676121" lon="11.6786029"><ele>343.0</ele><time>2026-04-26T14:31:21.201Z</time></trkpt><trkpt lat="43.0677483" lon="11.6786231"><ele>343.75</ele><time>2026-04-26T14:31:22.183Z</time></trkpt><trkpt lat="43.0678795" lon="11.6786092"><ele>344.5</ele><time>2026-04-26T14:31:23.187Z</time></trkpt><trkpt lat="43.0679992" lon="11.6785734"><ele>345.25</ele><time>2026-04-26T14:31:24.188Z</time></trkpt><trkpt lat="43.0681119" lon="11.6785322"><ele>346.0</ele><time>2026-04-26T14:31:25.197Z</time></trkpt><trkpt lat="43.0682153" lon="11.6784964"><ele>347.6</ele><time>2026-04-26T14:31:26.203Z</time></trkpt><trkpt lat="43.0683058" lon="11.6784756"><ele>349.20000000000005</ele><time>2026-04-26T14:31:27.189Z</time></trkpt><trkpt lat="43.0683795" lon="11.6784753"><ele>350.79999999999995</ele><time>2026-04-26T14:31:28.196Z</time></trkpt><trkpt lat="43.068478" lon="11.6785419"><ele>352.4</ele><time>2026-04-26T14:31:30.188Z</time></trkpt><trkpt lat="43.0685325" lon="11.6786763"><ele>354.0</ele><time>2026-04-26T14:31:32.196Z</time></trkpt><trkpt lat="43.0685229" lon="11.678838"><ele>355.4</ele><time>2026-04-26T14:31:34.2Z</time></trkpt><trkpt lat="43.0685018" lon="11.679004"><ele>356.79999999999995</ele><time>2026-04-26T14:31:36.187Z</time></trkpt><trkpt lat="43.0684791" lon="11.6791724"><ele>358.20000000000005</ele><time>2026-04-26T14:31:38.203Z</time></trkpt><trkpt lat="43.068466" lon="11.6792619"><ele>359.6</ele><time>2026-04-26T14:31:39.201Z</time></trkpt><trkpt lat="43.0684528" lon="11.6793648"><ele>361.0</ele><time>2026-04-26T14:31:40.204Z</time></trkpt><trkpt lat="43.0684449" lon="11.6794817"><ele>361.20000000000005</ele><time>2026-04-26T14:31:41.201Z</time></trkpt><trkpt lat="43.068449" lon="11.679607"><ele>361.40000000000003</ele><time>2026-04-26T14:31:42.21Z</time></trkpt><trkpt lat="43.0684769" lon="11.6797372"><ele>361.6</ele><time>2026-04-26T14:31:43.183Z</time></trkpt><trkpt lat="43.0685399" lon="11.6798578"><ele>361.8</ele><time>2026-04-26T14:31:44.196Z</time></trkpt><trkpt lat="43.0686339" lon="11.6799431"><ele>362.0</ele><time>2026-04-26T14:31:45.199Z</time></trkpt><trkpt lat="43.0687418" lon="11.6799688"><ele>362.0</ele><time>2026-04-26T14:31:46.196Z</time></trkpt><trkpt lat="43.0688489" lon="11.6799252"><ele>362.0</ele><time>2026-04-26T14:31:47.192Z</time></trkpt><trkpt lat="43.0689388" lon="11.6798166"><ele>362.0</ele><time>2026-04-26T14:31:48.199Z</time></trkpt><trkpt lat="43.0690044" lon="11.6796562"><ele>362.0</ele><time>2026-04-26T14:31:49.202Z</time></trkpt><trkpt lat="43.0690521" lon="11.679472"><ele>361.75</ele><time>2026-04-26T14:31:50.198Z</time></trkpt><trkpt lat="43.0691045" lon="11.6792828"><ele>361.5</ele><time>2026-04-26T14:31:51.201Z</time></trkpt><trkpt lat="43.0691845" lon="11.6791142"><ele>361.25</ele><time>2026-04-26T14:31:52.186Z</time></trkpt><trkpt lat="43.0693028" lon="11.6789776"><ele>361.0</ele><time>2026-04-26T14:31:53.189Z</time></trkpt><trkpt lat="43.0694533" lon="11.678885"><ele>364.3333333333333</ele><time>2026-04-26T14:31:54.195Z</time></trkpt><trkpt lat="43.0696291" lon="11.6788414"><ele>367.6666666666667</ele><time>2026-04-26T14:31:55.194Z</time></trkpt><trkpt lat="43.0698174" lon="11.6788227"><ele>371.0</ele><time>2026-04-26T14:31:56.198Z</time></trkpt><trkpt lat="43.070001" lon="11.6788027"><ele>374.0</ele><time>2026-04-26T14:31:57.202Z</time></trkpt><trkpt lat="43.0701812" lon="11.6787811"><ele>377.0</ele><time>2026-04-26T14:31:58.207Z</time></trkpt><trkpt lat="43.0703584" lon="11.6787622"><ele>380.0</ele><time>2026-04-26T14:31:59.183Z</time></trkpt><trkpt lat="43.0705323" lon="11.6787448"><ele>380.0</ele><time>2026-04-26T14:32:00.189Z</time></trkpt><trkpt lat="43.0707048" lon="11.6787254"><ele>380.0</ele><time>2026-04-26T14:32:01.189Z</time></trkpt><trkpt lat="43.0708763" lon="11.6787037"><ele>380.0</ele><time>2026-04-26T14:32:02.208Z</time></trkpt><trkpt lat="43.0710471" lon="11.6786832"><ele>382.33333333333337</ele><time>2026-04-26T14:32:03.199Z</time></trkpt><trkpt lat="43.0712166" lon="11.678665"><ele>384.6666666666667</ele><time>2026-04-26T14:32:04.185Z</time></trkpt><trkpt lat="43.0713839" lon="11.6786449"><ele>387.0</ele><time>2026-04-26T14:32:05.195Z</time></trkpt><trkpt lat="43.0715483" lon="11.6786242"><ele>386.5</ele><time>2026-04-26T14:32:06.183Z</time></trkpt><trkpt lat="43.0717038" lon="11.6786088"><ele>386.0</ele><time>2026-04-26T14:32:07.191Z</time></trkpt><trkpt lat="43.0718433" lon="11.6785884"><ele>385.5</ele><time>2026-04-26T14:32:08.186Z</time></trkpt><trkpt lat="43.0719651" lon="11.6785817"><ele>385.0</ele><time>2026-04-26T14:32:09.184Z</time></trkpt><trkpt lat="43.0720722" lon="11.6786123"><ele>387.0</ele><time>2026-04-26T14:32:10.19Z</time></trkpt><trkpt lat="43.0721547" lon="11.6786927"><ele>389.0</ele><time>2026-04-26T14:32:11.186Z</time></trkpt><trkpt lat="43.0721984" lon="11.6788152"><ele>391.0</ele><time>2026-04-26T14:32:12.198Z</time></trkpt><trkpt lat="43.0722035" lon="11.6789595"><ele>393.0</ele><time>2026-04-26T14:32:13.195Z</time></trkpt><trkpt lat="43.0721782" lon="11.6790994"><ele>395.0</ele><time>2026-04-26T14:32:14.196Z</time></trkpt><trkpt lat="43.0721399" lon="11.6792338"><ele>395.0</ele><time>2026-04-26T14:32:15.204Z</time></trkpt><trkpt lat="43.0721026" lon="11.6793673"><ele>395.0</ele><time>2026-04-26T14:32:16.205Z</time></trkpt><trkpt lat="43.0720716" lon="11.6794927"><ele>395.0</ele><time>2026-04-26T14:32:17.2Z</time></trkpt><trkpt lat="43.0720425" lon="11.6796051"><ele>395.0</ele><time>2026-04-26T14:32:18.2Z</time></trkpt><trkpt lat="43.0720151" lon="11.6797152"><ele>395.0</ele><time>2026-04-26T14:32:19.186Z</time></trkpt><trkpt lat="43.0719904" lon="11.6798259"><ele>395.66666666666663</ele><time>2026-04-26T14:32:20.197Z</time></trkpt><trkpt lat="43.0719775" lon="11.6799353"><ele>396.3333333333333</ele><time>2026-04-26T14:32:21.205Z</time></trkpt><trkpt lat="43.0719888" lon="11.6800477"><ele>397.0</ele><time>2026-04-26T14:32:22.195Z</time></trkpt><trkpt lat="43.0720294" lon="11.680149"><ele>397.66666666666663</ele><time>2026-04-26T14:32:23.201Z</time></trkpt><trkpt lat="43.0720922" lon="11.6802147"><ele>398.3333333333333</ele><time>2026-04-26T14:32:24.188Z</time></trkpt><trkpt lat="43.0721592" lon="11.6802384"><ele>399.0</ele><time>2026-04-26T14:32:25.197Z</time></trkpt><trkpt lat="43.07223" lon="11.6802253"><ele>399.0</ele><time>2026-04-26T14:32:26.189Z</time></trkpt><trkpt lat="43.0723039" lon="11.6801875"><ele>399.0</ele><time>2026-04-26T14:32:27.196Z</time></trkpt><trkpt lat="43.0723757" lon="11.6800989"><ele>399.0</ele><time>2026-04-26T14:32:28.197Z</time></trkpt><trkpt lat="43.0724438" lon="11.6799781"><ele>399.0</ele><time>2026-04-26T14:32:29.199Z</time></trkpt><trkpt lat="43.0725129" lon="11.6798291"><ele>399.0</ele><time>2026-04-26T14:32:30.199Z</time></trkpt><trkpt lat="43.072586" lon="11.6796543"><ele>401.0</ele><time>2026-04-26T14:32:31.191Z</time></trkpt><trkpt lat="43.072665" lon="11.6794797"><ele>403.0</ele><time>2026-04-26T14:32:32.202Z</time></trkpt><trkpt lat="43.0727558" lon="11.6792974"><ele>405.0</ele><time>2026-04-26T14:32:33.19Z</time></trkpt><trkpt lat="43.0728563" lon="11.6791153"><ele>405.0</ele><time>2026-04-26T14:32:34.196Z</time></trkpt><trkpt lat="43.0729693" lon="11.6789384"><ele>405.0</ele><time>2026-04-26T14:32:35.189Z</time></trkpt><trkpt lat="43.0730944" lon="11.6787758"><ele>405.0</ele><time>2026-04-26T14:32:36.203Z</time></trkpt><trkpt lat="43.0732231" lon="11.6786228"><ele>407.66666666666663</ele><time>2026-04-26T14:32:37.204Z</time></trkpt><trkpt lat="43.0733486" lon="11.6784723"><ele>410.3333333333333</ele><time>2026-04-26T14:32:38.186Z</time></trkpt><trkpt lat="43.0734604" lon="11.6783094"><ele>413.0</ele><time>2026-04-26T14:32:39.198Z</time></trkpt><trkpt lat="43.0735588" lon="11.6781326"><ele>413.0</ele><time>2026-04-26T14:32:40.204Z</time></trkpt><trkpt lat="43.0736442" lon="11.6779478"><ele>413.0</ele><time>2026-04-26T14:32:41.206Z</time></trkpt><trkpt lat="43.0737246" lon="11.6777605"><ele>413.0</ele><time>2026-04-26T14:32:42.184Z</time></trkpt><trkpt lat="43.0737982" lon="11.6775696"><ele>411.3333333333333</ele><time>2026-04-26T14:32:43.2Z</time></trkpt><trkpt lat="43.0738702" lon="11.6773818"><ele>409.66666666666663</ele><time>2026-04-26T14:32:44.18Z</time></trkpt><trkpt lat="43.0739377" lon="11.6771929"><ele>408.0</ele><time>2026-04-26T14:32:45.199Z</time></trkpt><trkpt lat="43.0739965" lon="11.6770042"><ele>407.25</ele><time>2026-04-26T14:32:46.195Z</time></trkpt><trkpt lat="43.0740493" lon="11.6768169"><ele>406.5</ele><time>2026-04-26T14:32:47.193Z</time></trkpt><trkpt lat="43.0741029" lon="11.6766318"><ele>405.75</ele><time>2026-04-26T14:32:48.205Z</time></trkpt><trkpt lat="43.074156" lon="11.6764532"><ele>405.0</ele><time>2026-04-26T14:32:49.193Z</time></trkpt><trkpt lat="43.0742127" lon="11.6762824"><ele>410.75</ele><time>2026-04-26T14:32:50.216Z</time></trkpt><trkpt lat="43.074278" lon="11.6761227"><ele>416.5</ele><time>2026-04-26T14:32:51.197Z</time></trkpt><trkpt lat="43.0743493" lon="11.6759729"><ele>422.25</ele><time>2026-04-26T14:32:52.203Z</time></trkpt><trkpt lat="43.0744222" lon="11.6758278"><ele>428.0</ele><time>2026-04-26T14:32:53.2Z</time></trkpt><trkpt lat="43.0744951" lon="11.6756844"><ele>428.0</ele><time>2026-04-26T14:32:54.203Z</time></trkpt><trkpt lat="43.0745696" lon="11.675544"><ele>428.0</ele><time>2026-04-26T14:32:55.203Z</time></trkpt><trkpt lat="43.0746535" lon="11.6754142"><ele>428.0</ele><time>2026-04-26T14:32:56.197Z</time></trkpt><trkpt lat="43.0747501" lon="11.6753054"><ele>428.0</ele><time>2026-04-26T14:32:57.187Z</time></trkpt><trkpt lat="43.0748598" lon="11.6752169"><ele>429.25</ele><time>2026-04-26T14:32:58.179Z</time></trkpt><trkpt lat="43.0749769" lon="11.675146"><ele>430.5</ele><time>2026-04-26T14:32:59.201Z</time></trkpt><trkpt lat="43.0750939" lon="11.6750799"><ele>431.75</ele><time>2026-04-26T14:33:00.195Z</time></trkpt><trkpt lat="43.0752031" lon="11.6750125"><ele>433.0</ele><time>2026-04-26T14:33:01.204Z</time></trkpt><trkpt lat="43.0753059" lon="11.6749413"><ele>433.0</ele><time>2026-04-26T14:33:02.188Z</time></trkpt><trkpt lat="43.0754007" lon="11.6748717"><ele>432.99999999999994</ele><time>2026-04-26T14:33:03.192Z</time></trkpt><trkpt lat="43.0754893" lon="11.6748039"><ele>432.99999999999994</ele><time>2026-04-26T14:33:04.191Z</time></trkpt><trkpt lat="43.0755732" lon="11.6747422"><ele>433.0</ele><time>2026-04-26T14:33:05.182Z</time></trkpt><trkpt lat="43.075658" lon="11.674675"><ele>433.0</ele><time>2026-04-26T14:33:06.184Z</time></trkpt><trkpt lat="43.0757398" lon="11.6746078"><ele>433.79999999999995</ele><time>2026-04-26T14:33:07.19Z</time></trkpt><trkpt lat="43.0758215" lon="11.674541"><ele>434.59999999999997</ele><time>2026-04-26T14:33:08.188Z</time></trkpt><trkpt lat="43.0758917" lon="11.6744835"><ele>435.40000000000003</ele><time>2026-04-26T14:33:09.196Z</time></trkpt><trkpt lat="43.0759846" lon="11.6744082"><ele>436.20000000000005</ele><time>2026-04-26T14:33:11.205Z</time></trkpt><trkpt lat="43.0760469" lon="11.6743563"><ele>437.0</ele><time>2026-04-26T14:33:13.188Z</time></trkpt><trkpt lat="43.0761394" lon="11.6742728"><ele>436.99999999999994</ele><time>2026-04-26T14:33:15.186Z</time></trkpt><trkpt lat="43.0761943" lon="11.6742242"><ele>437.0</ele><time>2026-04-26T14:33:16.201Z</time></trkpt><trkpt lat="43.0762523" lon="11.6741651"><ele>437.0</ele><time>2026-04-26T14:33:17.206Z</time></trkpt><trkpt lat="43.0763108" lon="11.674093"><ele>437.0</ele><time>2026-04-26T14:33:18.195Z</time></trkpt><trkpt lat="43.07637" lon="11.6740138"><ele>436.99999999999994</ele><time>2026-04-26T14:33:19.206Z</time></trkpt><trkpt lat="43.0764256" lon="11.6739285"><ele>437.0</ele><time>2026-04-26T14:33:20.201Z</time></trkpt><trkpt lat="43.0764752" lon="11.6738399"><ele>436.99999999999994</ele><time>2026-04-26T14:33:21.204Z</time></trkpt><trkpt lat="43.0765222" lon="11.6737513"><ele>437.0</ele><time>2026-04-26T14:33:22.2Z</time></trkpt><trkpt lat="43.0765664" lon="11.6736673"><ele>437.0</ele><time>2026-04-26T14:33:23.2Z</time></trkpt><trkpt lat="43.0766062" lon="11.6735889"><ele>437.0</ele><time>2026-04-26T14:33:24.192Z</time></trkpt><trkpt lat="43.0766411" lon="11.6735135"><ele>436.99999999999994</ele><time>2026-04-26T14:33:25.204Z</time></trkpt><trkpt lat="43.0767031" lon="11.6733908"><ele>437.0</ele><time>2026-04-26T14:33:27.201Z</time></trkpt><trkpt lat="43.0767722" lon="11.6732891"><ele>438.8</ele><time>2026-04-26T14:33:29.189Z</time></trkpt><trkpt lat="43.0768694" lon="11.6732561"><ele>440.6</ele><time>2026-04-26T14:33:31.196Z</time></trkpt><trkpt lat="43.0769477" lon="11.6733682"><ele>442.40000000000003</ele><time>2026-04-26T14:33:33.193Z</time></trkpt><trkpt lat="43.0769414" lon="11.6734701"><ele>444.20000000000005</ele><time>2026-04-26T14:33:34.19Z</time></trkpt><trkpt lat="43.0769301" lon="11.673592"><ele>446.0</ele><time>2026-04-26T14:33:35.197Z</time></trkpt><trkpt lat="43.0769299" lon="11.6737199"><ele>447.20000000000005</ele><time>2026-04-26T14:33:36.196Z</time></trkpt><trkpt lat="43.0769391" lon="11.6738462"><ele>448.40000000000003</ele><time>2026-04-26T14:33:37.198Z</time></trkpt><trkpt lat="43.0769506" lon="11.6739729"><ele>449.6</ele><time>2026-04-26T14:33:38.208Z</time></trkpt><trkpt lat="43.0769611" lon="11.6740962"><ele>450.8</ele><time>2026-04-26T14:33:39.202Z</time></trkpt><trkpt lat="43.0769596" lon="11.6742175"><ele>452.0</ele><time>2026-04-26T14:33:40.207Z</time></trkpt><trkpt lat="43.0769337" lon="11.6743367"><ele>453.8</ele><time>2026-04-26T14:33:41.205Z</time></trkpt><trkpt lat="43.0768944" lon="11.6744559"><ele>455.6</ele><time>2026-04-26T14:33:42.189Z</time></trkpt><trkpt lat="43.0768541" lon="11.6745777"><ele>457.40000000000003</ele><time>2026-04-26T14:33:43.192Z</time></trkpt><trkpt lat="43.0768179" lon="11.674695"><ele>459.20000000000005</ele><time>2026-04-26T14:33:44.186Z</time></trkpt><trkpt lat="43.076786" lon="11.6748092"><ele>461.0</ele><time>2026-04-26T14:33:45.19Z</time></trkpt><trkpt lat="43.0767562" lon="11.6749201"><ele>460.99999999999994</ele><time>2026-04-26T14:33:46.202Z</time></trkpt><trkpt lat="43.0767296" lon="11.6750293"><ele>461.0</ele><time>2026-04-26T14:33:47.184Z</time></trkpt><trkpt lat="43.076704" lon="11.6751382"><ele>461.0</ele><time>2026-04-26T14:33:48.203Z</time></trkpt><trkpt lat="43.0766764" lon="11.6752474"><ele>461.0</ele><time>2026-04-26T14:33:49.194Z</time></trkpt><trkpt lat="43.0766458" lon="11.675358"><ele>460.99999999999994</ele><time>2026-04-26T14:33:50.192Z</time></trkpt><trkpt lat="43.0766159" lon="11.6754783"><ele>461.0</ele><time>2026-04-26T14:33:51.197Z</time></trkpt><trkpt lat="43.0765825" lon="11.6756104"><ele>461.20000000000005</ele><time>2026-04-26T14:33:52.196Z</time></trkpt><trkpt lat="43.0765445" lon="11.6757568"><ele>461.40000000000003</ele><time>2026-04-26T14:33:53.198Z</time></trkpt><trkpt lat="43.0765055" lon="11.6759036"><ele>461.6</ele><time>2026-04-26T14:33:54.204Z</time></trkpt><trkpt lat="43.0764661" lon="11.6760462"><ele>461.8</ele><time>2026-04-26T14:33:55.188Z</time></trkpt><trkpt lat="43.0764293" lon="11.6761767"><ele>462.0</ele><time>2026-04-26T14:33:56.203Z</time></trkpt><trkpt lat="43.0763962" lon="11.6763004"><ele>462.0</ele><time>2026-04-26T14:33:57.184Z</time></trkpt><trkpt lat="43.0763669" lon="11.6764073"><ele>462.0</ele><time>2026-04-26T14:33:58.185Z</time></trkpt><trkpt lat="43.0763402" lon="11.67649"><ele>462.0</ele><time>2026-04-26T14:33:59.191Z</time></trkpt><trkpt lat="43.0762889" lon="11.6766337"><ele>462.0</ele><time>2026-04-26T14:34:01.196Z</time></trkpt><trkpt lat="43.0762575" lon="11.6767086"><ele>462.0</ele><time>2026-04-26T14:34:02.187Z</time></trkpt><trkpt lat="43.0762265" lon="11.6767842"><ele>462.0</ele><time>2026-04-26T14:34:03.2Z</time></trkpt><trkpt lat="43.0761967" lon="11.676861"><ele>463.1428571428571</ele><time>2026-04-26T14:34:04.204Z</time></trkpt><trkpt lat="43.0761709" lon="11.6769431"><ele>464.2857142857143</ele><time>2026-04-26T14:34:05.2Z</time></trkpt><trkpt lat="43.0761486" lon="11.6770316"><ele>465.42857142857144</ele><time>2026-04-26T14:34:06.189Z</time></trkpt><trkpt lat="43.0761272" lon="11.6771198"><ele>466.57142857142856</ele><time>2026-04-26T14:34:07.188Z</time></trkpt><trkpt lat="43.0761055" lon="11.677207"><ele>467.71428571428567</ele><time>2026-04-26T14:34:08.206Z</time></trkpt><trkpt lat="43.076087" lon="11.6772987"><ele>468.85714285714283</ele><time>2026-04-26T14:34:09.2Z</time></trkpt><trkpt lat="43.0760672" lon="11.6773967"><ele>470.0</ele><time>2026-04-26T14:34:10.194Z</time></trkpt><trkpt lat="43.0760473" lon="11.677501"><ele>469.99999999999994</ele><time>2026-04-26T14:34:11.199Z</time></trkpt><trkpt lat="43.0760285" lon="11.6776116"><ele>470.0</ele><time>2026-04-26T14:34:12.182Z</time></trkpt><trkpt lat="43.0760072" lon="11.6777192"><ele>470.0</ele><time>2026-04-26T14:34:13.187Z</time></trkpt><trkpt lat="43.0759889" lon="11.677835"><ele>470.0</ele><time>2026-04-26T14:34:14.184Z</time></trkpt><trkpt lat="43.075967" lon="11.6779545"><ele>469.99999999999994</ele><time>2026-04-26T14:34:15.181Z</time></trkpt><trkpt lat="43.0759492" lon="11.6780785"><ele>470.0</ele><time>2026-04-26T14:34:16.201Z</time></trkpt><trkpt lat="43.0759354" lon="11.6782018"><ele>471.4</ele><time>2026-04-26T14:34:17.183Z</time></trkpt><trkpt lat="43.0759208" lon="11.6783237"><ele>472.8</ele><time>2026-04-26T14:34:18.186Z</time></trkpt><trkpt lat="43.0759098" lon="11.6784486"><ele>474.20000000000005</ele><time>2026-04-26T14:34:19.203Z</time></trkpt><trkpt lat="43.0759203" lon="11.6785797"><ele>475.6</ele><time>2026-04-26T14:34:20.204Z</time></trkpt><trkpt lat="43.0759297" lon="11.6787041"><ele>477.0</ele><time>2026-04-26T14:34:21.199Z</time></trkpt><trkpt lat="43.0759379" lon="11.6788162"><ele>477.1666666666667</ele><time>2026-04-26T14:34:22.196Z</time></trkpt><trkpt lat="43.0759483" lon="11.6789055"><ele>477.33333333333337</ele><time>2026-04-26T14:34:23.182Z</time></trkpt><trkpt lat="43.0759686" lon="11.6790314"><ele>477.5</ele><time>2026-04-26T14:34:25.202Z</time></trkpt><trkpt lat="43.0759851" lon="11.6791194"><ele>477.6666666666667</ele><time>2026-04-26T14:34:27.203Z</time></trkpt><trkpt lat="43.0760033" lon="11.6792189"><ele>477.83333333333337</ele><time>2026-04-26T14:34:29.203Z</time></trkpt><trkpt lat="43.0760228" lon="11.6793351"><ele>478.0</ele><time>2026-04-26T14:34:31.185Z</time></trkpt><trkpt lat="43.0760495" lon="11.6794736"><ele>478.00000000000006</ele><time>2026-04-26T14:34:33.189Z</time></trkpt><trkpt lat="43.0760633" lon="11.6795853"><ele>478.0</ele><time>2026-04-26T14:34:35.202Z</time></trkpt><trkpt lat="43.0760702" lon="11.6796811"><ele>478.0</ele><time>2026-04-26T14:34:37.191Z</time></trkpt><trkpt lat="43.0760675" lon="11.6798004"><ele>478.0</ele><time>2026-04-26T14:34:39.187Z</time></trkpt><trkpt lat="43.0760539" lon="11.6799242"><ele>478.00000000000006</ele><time>2026-04-26T14:34:41.198Z</time></trkpt><trkpt lat="43.0760401" lon="11.680036"><ele>478.0</ele><time>2026-04-26T14:34:43.204Z</time></trkpt><trkpt lat="43.0760304" lon="11.6801393"><ele>478.00000000000006</ele><time>2026-04-26T14:34:45.188Z</time></trkpt><trkpt lat="43.0760157" lon="11.6802341"><ele>478.0</ele><time>2026-04-26T14:34:47.193Z</time></trkpt><trkpt lat="43.0760019" lon="11.6803432"><ele>478.0</ele><time>2026-04-26T14:34:49.185Z</time></trkpt><trkpt lat="43.0759798" lon="11.6804684"><ele>478.0</ele><time>2026-04-26T14:34:51.187Z</time></trkpt><trkpt lat="43.0759658" lon="11.6806234"><ele>478.00000000000006</ele><time>2026-04-26T14:34:53.185Z</time></trkpt><trkpt lat="43.0759708" lon="11.6807229"><ele>478.0</ele><time>2026-04-26T14:34:54.198Z</time></trkpt><trkpt lat="43.0759819" lon="11.6808329"><ele>478.00000000000006</ele><time>2026-04-26T14:34:55.196Z</time></trkpt><trkpt lat="43.0759995" lon="11.6809361"><ele>478.0</ele><time>2026-04-26T14:34:56.206Z</time></trkpt><trkpt lat="43.0760177" lon="11.6810306"><ele>478.0</ele><time>2026-04-26T14:34:57.191Z</time></trkpt><trkpt lat="43.076035" lon="11.681114"><ele>478.0</ele><time>2026-04-26T14:34:58.184Z</time></trkpt><trkpt lat="43.0760634" lon="11.6812473"><ele>478.00000000000006</ele><time>2026-04-26T14:35:00.193Z</time></trkpt><trkpt lat="43.0760875" lon="11.681384"><ele>478.0</ele><time>2026-04-26T14:35:02.185Z</time></trkpt><trkpt lat="43.0761258" lon="11.6815418"><ele>477.1666666666667</ele><time>2026-04-26T14:35:04.187Z</time></trkpt><trkpt lat="43.0761567" lon="11.6816235"><ele>476.33333333333337</ele><time>2026-04-26T14:35:05.2Z</time></trkpt><trkpt lat="43.0761966" lon="11.6817022"><ele>475.5</ele><time>2026-04-26T14:35:06.19Z</time></trkpt><trkpt lat="43.0762518" lon="11.6817668"><ele>474.66666666666663</ele><time>2026-04-26T14:35:07.203Z</time></trkpt><trkpt lat="43.0763216" lon="11.681809"><ele>473.8333333333333</ele><time>2026-04-26T14:35:08.196Z</time></trkpt><trkpt lat="43.0764019" lon="11.681834"><ele>473.0</ele><time>2026-04-26T14:35:09.206Z</time></trkpt><trkpt lat="43.0764857" lon="11.681844"><ele>472.99999999999994</ele><time>2026-04-26T14:35:10.197Z</time></trkpt><trkpt lat="43.076569" lon="11.6818425"><ele>473.0</ele><time>2026-04-26T14:35:11.192Z</time></trkpt><trkpt lat="43.0766502" lon="11.6818358"><ele>473.0</ele><time>2026-04-26T14:35:12.212Z</time></trkpt><trkpt lat="43.0767272" lon="11.6818272"><ele>473.0</ele><time>2026-04-26T14:35:13.187Z</time></trkpt><trkpt lat="43.0768002" lon="11.6818182"><ele>472.99999999999994</ele><time>2026-04-26T14:35:14.199Z</time></trkpt><trkpt lat="43.0768703" lon="11.6818062"><ele>473.0</ele><time>2026-04-26T14:35:15.19Z</time></trkpt><trkpt lat="43.0769375" lon="11.6817809"><ele>474.42857142857144</ele><time>2026-04-26T14:35:16.193Z</time></trkpt><trkpt lat="43.0770028" lon="11.6817541"><ele>475.85714285714283</ele><time>2026-04-26T14:35:17.197Z</time></trkpt><trkpt lat="43.077046" lon="11.6816834"><ele>477.2857142857143</ele><time>2026-04-26T14:35:18.198Z</time></trkpt><trkpt lat="43.0770792" lon="11.6815881"><ele>478.7142857142857</ele><time>2026-04-26T14:35:19.199Z</time></trkpt><trkpt lat="43.0770939" lon="11.6814804"><ele>480.1428571428571</ele><time>2026-04-26T14:35:20.185Z</time></trkpt><trkpt lat="43.0771055" lon="11.6813713"><ele>481.57142857142856</ele><time>2026-04-26T14:35:21.189Z</time></trkpt><trkpt lat="43.0771172" lon="11.6812699"><ele>483.0</ele><time>2026-04-26T14:35:22.197Z</time></trkpt><trkpt lat="43.0771283" lon="11.681172"><ele>484.6666666666667</ele><time>2026-04-26T14:35:23.185Z</time></trkpt><trkpt lat="43.0771421" lon="11.6810803"><ele>486.33333333333337</ele><time>2026-04-26T14:35:24.215Z</time></trkpt><trkpt lat="43.0771553" lon="11.6809948"><ele>488.0</ele><time>2026-04-26T14:35:25.199Z</time></trkpt><trkpt lat="43.0771847" lon="11.6808481"><ele>489.6666666666667</ele><time>2026-04-26T14:35:27.194Z</time></trkpt><trkpt lat="43.077211" lon="11.6807198"><ele>491.33333333333337</ele><time>2026-04-26T14:35:29.204Z</time></trkpt><trkpt lat="43.0772365" lon="11.6805943"><ele>493.0</ele><time>2026-04-26T14:35:31.206Z</time></trkpt><trkpt lat="43.0772638" lon="11.6804603"><ele>493.0</ele><time>2026-04-26T14:35:33.191Z</time></trkpt><trkpt lat="43.0772971" lon="11.6803293"><ele>492.99999999999994</ele><time>2026-04-26T14:35:35.196Z</time></trkpt><trkpt lat="43.0773243" lon="11.6802095"><ele>492.99999999999994</ele><time>2026-04-26T14:35:37.186Z</time></trkpt><trkpt lat="43.0773542" lon="11.680071"><ele>493.0</ele><time>2026-04-26T14:35:39.195Z</time></trkpt><trkpt lat="43.077392" lon="11.6799022"><ele>493.0</ele><time>2026-04-26T14:35:41.185Z</time></trkpt><trkpt lat="43.077411" lon="11.6798092"><ele>492.71428571428567</ele><time>2026-04-26T14:35:42.201Z</time></trkpt><trkpt lat="43.0774342" lon="11.6797167"><ele>492.42857142857144</ele><time>2026-04-26T14:35:43.204Z</time></trkpt><trkpt lat="43.0774596" lon="11.6796263"><ele>492.1428571428571</ele><time>2026-04-26T14:35:44.198Z</time></trkpt><trkpt lat="43.0774836" lon="11.679535"><ele>491.85714285714283</ele><time>2026-04-26T14:35:45.195Z</time></trkpt><trkpt lat="43.0775017" lon="11.6794407"><ele>491.57142857142856</ele><time>2026-04-26T14:35:46.191Z</time></trkpt><trkpt lat="43.0775143" lon="11.6793469"><ele>491.2857142857143</ele><time>2026-04-26T14:35:47.203Z</time></trkpt><trkpt lat="43.0775227" lon="11.679255"><ele>491.0</ele><time>2026-04-26T14:35:48.204Z</time></trkpt><trkpt lat="43.0775327" lon="11.6791121"><ele>491.0</ele><time>2026-04-26T14:35:50.2Z</time></trkpt><trkpt lat="43.077544" lon="11.6789916"><ele>491.0</ele><time>2026-04-26T14:35:52.207Z</time></trkpt><trkpt lat="43.0775523" lon="11.6788736"><ele>491.0</ele><time>2026-04-26T14:35:54.195Z</time></trkpt><trkpt lat="43.0776428" lon="11.678831"><ele>491.0</ele><time>2026-04-26T14:35:57.201Z</time></trkpt><trkpt lat="43.0777309" lon="11.6788306"><ele>491.0</ele><time>2026-04-26T14:35:59.193Z</time></trkpt><trkpt lat="43.077824" lon="11.6787724"><ele>491.0</ele><time>2026-04-26T14:36:01.203Z</time></trkpt><trkpt lat="43.0779007" lon="11.6786498"><ele>491.0</ele><time>2026-04-26T14:36:03.183Z</time></trkpt><trkpt lat="43.0779578" lon="11.6785008"><ele>491.0</ele><time>2026-04-26T14:36:05.201Z</time></trkpt><trkpt lat="43.0780104" lon="11.6783569"><ele>491.0</ele><time>2026-04-26T14:36:07.185Z</time></trkpt><trkpt lat="43.0780468" lon="11.678241"><ele>490.99999999999994</ele><time>2026-04-26T14:36:09.208Z</time></trkpt><trkpt lat="43.0780849" lon="11.6781354"><ele>491.0</ele><time>2026-04-26T14:36:11.193Z</time></trkpt><trkpt lat="43.0781225" lon="11.67806"><ele>491.0</ele><time>2026-04-26T14:36:13.196Z</time></trkpt><trkpt lat="43.078185" lon="11.6779881"><ele>491.0</ele><time>2026-04-26T14:36:36.2Z</time></trkpt><trkpt lat="43.0782621" lon="11.6779517"><ele>490.99999999999994</ele><time>2026-04-26T14:36:38.193Z</time></trkpt><trkpt lat="43.0783662" lon="11.6778919"><ele>491.0</ele><time>2026-04-26T14:36:40.191Z</time></trkpt><trkpt lat="43.0784303" lon="11.6778508"><ele>490.3333333333333</ele><time>2026-04-26T14:36:41.192Z</time></trkpt><trkpt lat="43.0785033" lon="11.6778004"><ele>489.66666666666663</ele><time>2026-04-26T14:36:42.206Z</time></trkpt><trkpt lat="43.0785793" lon="11.6777485"><ele>489.0</ele><time>2026-04-26T14:36:43.208Z</time></trkpt><trkpt lat="43.0786569" lon="11.6776968"><ele>488.33333333333337</ele><time>2026-04-26T14:36:44.207Z</time></trkpt><trkpt lat="43.0787375" lon="11.6776469"><ele>487.6666666666667</ele><time>2026-04-26T14:36:45.199Z</time></trkpt><trkpt lat="43.0788188" lon="11.6775984"><ele>487.0</ele><time>2026-04-26T14:36:46.202Z</time></trkpt><trkpt lat="43.0788977" lon="11.6775489"><ele>487.00000000000006</ele><time>2026-04-26T14:36:47.201Z</time></trkpt><trkpt lat="43.0789706" lon="11.6775004"><ele>487.0</ele><time>2026-04-26T14:36:48.204Z</time></trkpt><trkpt lat="43.079038" lon="11.6774544"><ele>487.0</ele><time>2026-04-26T14:36:49.19Z</time></trkpt><trkpt lat="43.0791008" lon="11.6774126"><ele>487.0</ele><time>2026-04-26T14:36:50.19Z</time></trkpt><trkpt lat="43.0791619" lon="11.6773779"><ele>487.00000000000006</ele><time>2026-04-26T14:36:51.19Z</time></trkpt><trkpt lat="43.0792719" lon="11.6773588"><ele>487.0</ele><time>2026-04-26T14:36:53.204Z</time></trkpt><trkpt lat="43.0793468" lon="11.6773451"><ele>486.7142857142857</ele><time>2026-04-26T14:36:55.205Z</time></trkpt><trkpt lat="43.0794029" lon="11.6772987"><ele>486.42857142857144</ele><time>2026-04-26T14:36:57.198Z</time></trkpt><trkpt lat="43.0794666" lon="11.6772439"><ele>486.14285714285717</ele><time>2026-04-26T14:37:00.187Z</time></trkpt><trkpt lat="43.0795373" lon="11.6771953"><ele>485.8571428571429</ele><time>2026-04-26T14:42:38.204Z</time></trkpt><trkpt lat="43.0796185" lon="11.6772269"><ele>485.57142857142856</ele><time>2026-04-26T14:42:41.195Z</time></trkpt><trkpt lat="43.0796698" lon="11.6771749"><ele>485.28571428571433</ele><time>2026-04-26T14:42:44.203Z</time></trkpt><trkpt lat="43.0796992" lon="11.677096"><ele>485.00000000000006</ele><time>2026-04-26T14:43:25.2Z</time></trkpt><trkpt lat="43.0797537" lon="11.6770075"><ele>485.0</ele><time>2026-04-26T14:43:29.197Z</time></trkpt><trkpt lat="43.0798656" lon="11.6769246"><ele>485.0</ele><time>2026-04-26T14:43:31.192Z</time></trkpt><trkpt lat="43.0799417" lon="11.6768745"><ele>485.0</ele><time>2026-04-26T14:43:32.203Z</time></trkpt><trkpt lat="43.0800268" lon="11.6768174"><ele>485.0</ele><time>2026-04-26T14:43:33.196Z</time></trkpt><trkpt lat="43.0801125" lon="11.6767624"><ele>485.0</ele><time>2026-04-26T14:43:34.202Z</time></trkpt><trkpt lat="43.0801979" lon="11.676708"><ele>485.0</ele><time>2026-04-26T14:43:35.203Z</time></trkpt><trkpt lat="43.0802805" lon="11.6766555"><ele>485.0</ele><time>2026-04-26T14:43:36.207Z</time></trkpt><trkpt lat="43.0803628" lon="11.676604"><ele>485.0</ele><time>2026-04-26T14:43:37.199Z</time></trkpt><trkpt lat="43.0804469" lon="11.6765549"><ele>485.0</ele><time>2026-04-26T14:43:38.203Z</time></trkpt><trkpt lat="43.0805306" lon="11.6765106"><ele>485.0</ele><time>2026-04-26T14:43:39.207Z</time></trkpt><trkpt lat="43.0806146" lon="11.6764741"><ele>485.0</ele><time>2026-04-26T14:43:40.192Z</time></trkpt><trkpt lat="43.080699" lon="11.6764462"><ele>485.0</ele><time>2026-04-26T14:43:41.203Z</time></trkpt><trkpt lat="43.0807876" lon="11.6764261"><ele>485.0</ele><time>2026-04-26T14:43:42.204Z</time></trkpt><trkpt lat="43.0808823" lon="11.6764099"><ele>485.0</ele><time>2026-04-26T14:43:43.193Z</time></trkpt><trkpt lat="43.0809813" lon="11.6763936"><ele>485.0</ele><time>2026-04-26T14:43:44.202Z</time></trkpt><trkpt lat="43.081083" lon="11.6763795"><ele>483.25</ele><time>2026-04-26T14:43:45.203Z</time></trkpt><trkpt lat="43.0811941" lon="11.6763672"><ele>481.5</ele><time>2026-04-26T14:43:46.189Z</time></trkpt><trkpt lat="43.0813333" lon="11.67635"><ele>479.75</ele><time>2026-04-26T14:43:47.207Z</time></trkpt><trkpt lat="43.0814947" lon="11.6763375"><ele>478.0</ele><time>2026-04-26T14:43:48.203Z</time></trkpt><trkpt lat="43.0816621" lon="11.6763265"><ele>475.33333333333337</ele><time>2026-04-26T14:43:49.203Z</time></trkpt><trkpt lat="43.0818366" lon="11.6763444"><ele>472.66666666666663</ele><time>2026-04-26T14:43:50.205Z</time></trkpt><trkpt lat="43.0820087" lon="11.6763642"><ele>470.0</ele><time>2026-04-26T14:43:51.2Z</time></trkpt><trkpt lat="43.0821741" lon="11.6763841"><ele>470.0</ele><time>2026-04-26T14:43:52.199Z</time></trkpt><trkpt lat="43.0823338" lon="11.6764038"><ele>470.0</ele><time>2026-04-26T14:43:53.203Z</time></trkpt><trkpt lat="43.0824878" lon="11.6764245"><ele>470.0</ele><time>2026-04-26T14:43:54.2Z</time></trkpt><trkpt lat="43.0826363" lon="11.6764482"><ele>467.75</ele><time>2026-04-26T14:43:55.188Z</time></trkpt><trkpt lat="43.0827778" lon="11.6764736"><ele>465.5</ele><time>2026-04-26T14:43:56.189Z</time></trkpt><trkpt lat="43.0829117" lon="11.6764979"><ele>463.25</ele><time>2026-04-26T14:43:57.209Z</time></trkpt><trkpt lat="43.0830402" lon="11.6765197"><ele>461.0</ele><time>2026-04-26T14:43:58.201Z</time></trkpt><trkpt lat="43.0831645" lon="11.6765408"><ele>459.75</ele><time>2026-04-26T14:43:59.208Z</time></trkpt><trkpt lat="43.083286" lon="11.6765605"><ele>458.5</ele><time>2026-04-26T14:44:00.194Z</time></trkpt><trkpt lat="43.0834069" lon="11.6765774"><ele>457.25</ele><time>2026-04-26T14:44:01.19Z</time></trkpt><trkpt lat="43.0835276" lon="11.6765933"><ele>456.0</ele><time>2026-04-26T14:44:02.206Z</time></trkpt><trkpt lat="43.0836483" lon="11.6766104"><ele>456.0</ele><time>2026-04-26T14:44:03.191Z</time></trkpt><trkpt lat="43.0837682" lon="11.6766257"><ele>456.0</ele><time>2026-04-26T14:44:04.193Z</time></trkpt><trkpt lat="43.0838861" lon="11.6766314"><ele>456.0</ele><time>2026-04-26T14:44:05.209Z</time></trkpt><trkpt lat="43.0840001" lon="11.6766165"><ele>456.0</ele><time>2026-04-26T14:44:06.204Z</time></trkpt><trkpt lat="43.0841071" lon="11.6765825"><ele>454.8</ele><time>2026-04-26T14:44:07.211Z</time></trkpt><trkpt lat="43.0842123" lon="11.6765533"><ele>453.6</ele><time>2026-04-26T14:44:08.193Z</time></trkpt><trkpt lat="43.0843181" lon="11.6765464"><ele>452.4</ele><time>2026-04-26T14:44:09.203Z</time></trkpt><trkpt lat="43.0844228" lon="11.6765671"><ele>451.2</ele><time>2026-04-26T14:44:10.193Z</time></trkpt><trkpt lat="43.0845232" lon="11.6766225"><ele>450.0</ele><time>2026-04-26T14:44:11.19Z</time></trkpt><trkpt lat="43.0846192" lon="11.6767149"><ele>450.0</ele><time>2026-04-26T14:44:12.207Z</time></trkpt><trkpt lat="43.0847095" lon="11.6768354"><ele>450.0</ele><time>2026-04-26T14:44:13.197Z</time></trkpt><trkpt lat="43.0847951" lon="11.6769739"><ele>450.0</ele><time>2026-04-26T14:44:14.206Z</time></trkpt><trkpt lat="43.0848768" lon="11.6771221"><ele>450.0</ele><time>2026-04-26T14:44:15.196Z</time></trkpt><trkpt lat="43.0849522" lon="11.677267"><ele>450.25</ele><time>2026-04-26T14:44:16.202Z</time></trkpt><trkpt lat="43.085023" lon="11.6774033"><ele>450.5</ele><time>2026-04-26T14:44:17.2Z</time></trkpt><trkpt lat="43.085095" lon="11.6775341"><ele>450.75</ele><time>2026-04-26T14:44:18.189Z</time></trkpt><trkpt lat="43.0851744" lon="11.6776584"><ele>451.0</ele><time>2026-04-26T14:44:19.207Z</time></trkpt><trkpt lat="43.0852641" lon="11.6777733"><ele>451.0</ele><time>2026-04-26T14:44:20.203Z</time></trkpt><trkpt lat="43.0853644" lon="11.6778785"><ele>451.0</ele><time>2026-04-26T14:44:21.19Z</time></trkpt><trkpt lat="43.085471" lon="11.6779784"><ele>451.0</ele><time>2026-04-26T14:44:22.206Z</time></trkpt><trkpt lat="43.0855742" lon="11.6780778"><ele>451.0</ele><time>2026-04-26T14:44:23.202Z</time></trkpt><trkpt lat="43.085681" lon="11.6781726"><ele>452.0</ele><time>2026-04-26T14:44:24.201Z</time></trkpt><trkpt lat="43.0857862" lon="11.6782669"><ele>453.0</ele><time>2026-04-26T14:44:25.214Z</time></trkpt><trkpt lat="43.0858881" lon="11.6783555"><ele>454.0</ele><time>2026-04-26T14:44:26.191Z</time></trkpt><trkpt lat="43.0859898" lon="11.6784432"><ele>455.0</ele><time>2026-04-26T14:44:27.202Z</time></trkpt><trkpt lat="43.0860917" lon="11.6785275"><ele>454.75</ele><time>2026-04-26T14:44:28.209Z</time></trkpt><trkpt lat="43.0861956" lon="11.6786108"><ele>454.5</ele><time>2026-04-26T14:44:29.199Z</time></trkpt><trkpt lat="43.0862979" lon="11.6786935"><ele>454.25</ele><time>2026-04-26T14:44:30.205Z</time></trkpt><trkpt lat="43.0864018" lon="11.6787817"><ele>454.0</ele><time>2026-04-26T14:44:31.192Z</time></trkpt><trkpt lat="43.0865053" lon="11.6788708"><ele>454.75</ele><time>2026-04-26T14:44:32.206Z</time></trkpt><trkpt lat="43.0866083" lon="11.6789611"><ele>455.5</ele><time>2026-04-26T14:44:33.186Z</time></trkpt><trkpt lat="43.086711" lon="11.6790527"><ele>456.25</ele><time>2026-04-26T14:44:34.198Z</time></trkpt><trkpt lat="43.0868145" lon="11.6791448"><ele>457.0</ele><time>2026-04-26T14:44:35.196Z</time></trkpt><trkpt lat="43.0869175" lon="11.6792399"><ele>457.0</ele><time>2026-04-26T14:44:36.207Z</time></trkpt><trkpt lat="43.087018" lon="11.6793446"><ele>457.0</ele><time>2026-04-26T14:44:37.209Z</time></trkpt><trkpt lat="43.0871128" lon="11.6794619"><ele>457.0</ele><time>2026-04-26T14:44:38.192Z</time></trkpt><trkpt lat="43.0872002" lon="11.6795924"><ele>457.0</ele><time>2026-04-26T14:44:39.206Z</time></trkpt><trkpt lat="43.0872803" lon="11.679733"><ele>457.0</ele><time>2026-04-26T14:44:40.2Z</time></trkpt><trkpt lat="43.0873546" lon="11.6798819"><ele>457.0</ele><time>2026-04-26T14:44:41.199Z</time></trkpt><trkpt lat="43.0874222" lon="11.6800406"><ele>457.0</ele><time>2026-04-26T14:44:42.207Z</time></trkpt><trkpt lat="43.087482" lon="11.6802106"><ele>457.0</ele><time>2026-04-26T14:44:43.208Z</time></trkpt><trkpt lat="43.087535" lon="11.6803915"><ele>457.0</ele><time>2026-04-26T14:44:44.188Z</time></trkpt><trkpt lat="43.0875829" lon="11.6805817"><ele>457.0</ele><time>2026-04-26T14:44:45.207Z</time></trkpt><trkpt lat="43.0876299" lon="11.6807799"><ele>457.0</ele><time>2026-04-26T14:44:46.184Z</time></trkpt><trkpt lat="43.0876791" lon="11.6809847"><ele>457.6666666666667</ele><time>2026-04-26T14:44:47.197Z</time></trkpt><trkpt lat="43.0877305" lon="11.6811973"><ele>458.33333333333337</ele><time>2026-04-26T14:44:48.199Z</time></trkpt><trkpt lat="43.0877833" lon="11.681414"><ele>459.0</ele><time>2026-04-26T14:44:49.212Z</time></trkpt><trkpt lat="43.0878372" lon="11.6816315"><ele>459.0</ele><time>2026-04-26T14:44:50.201Z</time></trkpt><trkpt lat="43.0878895" lon="11.6818471"><ele>459.0</ele><time>2026-04-26T14:44:51.205Z</time></trkpt><trkpt lat="43.0879409" lon="11.6820638"><ele>459.0</ele><time>2026-04-26T14:44:52.204Z</time></trkpt><trkpt lat="43.0879927" lon="11.6822805"><ele>459.0</ele><time>2026-04-26T14:44:53.209Z</time></trkpt><trkpt lat="43.0880453" lon="11.6824963"><ele>459.0</ele><time>2026-04-26T14:44:54.197Z</time></trkpt><trkpt lat="43.0880991" lon="11.6827117"><ele>459.0</ele><time>2026-04-26T14:44:55.203Z</time></trkpt><trkpt lat="43.0881528" lon="11.6829266"><ele>459.0</ele><time>2026-04-26T14:44:56.207Z</time></trkpt><trkpt lat="43.0882092" lon="11.6831401"><ele>459.0</ele><time>2026-04-26T14:44:57.21Z</time></trkpt><trkpt lat="43.0882725" lon="11.6833507"><ele>459.0</ele><time>2026-04-26T14:44:58.199Z</time></trkpt><trkpt lat="43.0883463" lon="11.683555"><ele>457.0</ele><time>2026-04-26T14:44:59.208Z</time></trkpt><trkpt lat="43.0884317" lon="11.6837511"><ele>455.0</ele><time>2026-04-26T14:45:00.207Z</time></trkpt><trkpt lat="43.0885302" lon="11.6839366"><ele>453.0</ele><time>2026-04-26T14:45:01.193Z</time></trkpt><trkpt lat="43.0886429" lon="11.6841082"><ele>453.0</ele><time>2026-04-26T14:45:02.188Z</time></trkpt><trkpt lat="43.0887669" lon="11.6842669"><ele>453.0</ele><time>2026-04-26T14:45:03.203Z</time></trkpt><trkpt lat="43.0888928" lon="11.6844147"><ele>453.0</ele><time>2026-04-26T14:45:04.189Z</time></trkpt><trkpt lat="43.0890171" lon="11.6845562"><ele>451.0</ele><time>2026-04-26T14:45:05.195Z</time></trkpt><trkpt lat="43.0891415" lon="11.6846953"><ele>449.0</ele><time>2026-04-26T14:45:06.191Z</time></trkpt><trkpt lat="43.0892661" lon="11.6848319"><ele>447.0</ele><time>2026-04-26T14:45:07.198Z</time></trkpt><trkpt lat="43.089391" lon="11.6849664"><ele>447.0</ele><time>2026-04-26T14:45:08.211Z</time></trkpt><trkpt lat="43.0895141" lon="11.6850991"><ele>447.0</ele><time>2026-04-26T14:45:09.208Z</time></trkpt><trkpt lat="43.0896346" lon="11.6852304"><ele>447.0</ele><time>2026-04-26T14:45:10.204Z</time></trkpt><trkpt lat="43.0897536" lon="11.6853595"><ele>446.25</ele><time>2026-04-26T14:45:11.211Z</time></trkpt><trkpt lat="43.0898711" lon="11.6854874"><ele>445.5</ele><time>2026-04-26T14:45:12.205Z</time></trkpt><trkpt lat="43.0899874" lon="11.6856144"><ele>444.75</ele><time>2026-04-26T14:45:13.209Z</time></trkpt><trkpt lat="43.0901027" lon="11.6857408"><ele>444.0</ele><time>2026-04-26T14:45:14.199Z</time></trkpt><trkpt lat="43.0902183" lon="11.6858653"><ele>443.75</ele><time>2026-04-26T14:45:15.207Z</time></trkpt><trkpt lat="43.090336" lon="11.685984"><ele>443.5</ele><time>2026-04-26T14:45:16.19Z</time></trkpt><trkpt lat="43.0904585" lon="11.6860886"><ele>443.25</ele><time>2026-04-26T14:45:17.208Z</time></trkpt><trkpt lat="43.0905874" lon="11.6861758"><ele>443.0</ele><time>2026-04-26T14:45:18.2Z</time></trkpt><trkpt lat="43.0907199" lon="11.6862545"><ele>442.5</ele><time>2026-04-26T14:45:19.205Z</time></trkpt><trkpt lat="43.0908498" lon="11.6863303"><ele>442.0</ele><time>2026-04-26T14:45:20.192Z</time></trkpt><trkpt lat="43.0909797" lon="11.6864042"><ele>441.5</ele><time>2026-04-26T14:45:21.189Z</time></trkpt><trkpt lat="43.0911114" lon="11.6864773"><ele>441.0</ele><time>2026-04-26T14:45:22.196Z</time></trkpt><trkpt lat="43.091243" lon="11.6865506"><ele>441.0</ele><time>2026-04-26T14:45:23.193Z</time></trkpt><trkpt lat="43.0913694" lon="11.6866242"><ele>441.0</ele><time>2026-04-26T14:45:24.209Z</time></trkpt><trkpt lat="43.0914885" lon="11.6867002"><ele>441.0</ele><time>2026-04-26T14:45:25.21Z</time></trkpt><trkpt lat="43.0915924" lon="11.6867911"><ele>441.0</ele><time>2026-04-26T14:45:26.205Z</time></trkpt><trkpt lat="43.0916722" lon="11.686907"><ele>439.75</ele><time>2026-04-26T14:45:27.206Z</time></trkpt><trkpt lat="43.0917248" lon="11.6870461"><ele>438.5</ele><time>2026-04-26T14:45:28.19Z</time></trkpt><trkpt lat="43.0917539" lon="11.6872013"><ele>437.25</ele><time>2026-04-26T14:45:29.211Z</time></trkpt><trkpt lat="43.0917812" lon="11.6873516"><ele>436.0</ele><time>2026-04-26T14:45:30.201Z</time></trkpt><trkpt lat="43.0918244" lon="11.6875043"><ele>436.0</ele><time>2026-04-26T14:45:31.207Z</time></trkpt><trkpt lat="43.0919025" lon="11.6876389"><ele>436.0</ele><time>2026-04-26T14:45:32.198Z</time></trkpt><trkpt lat="43.0920006" lon="11.687759"><ele>436.0</ele><time>2026-04-26T14:45:33.183Z</time></trkpt><trkpt lat="43.092112" lon="11.6878725"><ele>436.0</ele><time>2026-04-26T14:45:34.2Z</time></trkpt><trkpt lat="43.092228" lon="11.6879864"><ele>436.25</ele><time>2026-04-26T14:45:35.19Z</time></trkpt><trkpt lat="43.0923472" lon="11.6881039"><ele>436.5</ele><time>2026-04-26T14:45:36.207Z</time></trkpt><trkpt lat="43.0924727" lon="11.6882196"><ele>436.75</ele><time>2026-04-26T14:45:37.194Z</time></trkpt><trkpt lat="43.0926007" lon="11.6883288"><ele>437.0</ele><time>2026-04-26T14:45:38.191Z</time></trkpt><trkpt lat="43.0927316" lon="11.6884351"><ele>435.0</ele><time>2026-04-26T14:45:39.187Z</time></trkpt><trkpt lat="43.0928643" lon="11.6885369"><ele>433.0</ele><time>2026-04-26T14:45:40.187Z</time></trkpt><trkpt lat="43.0929996" lon="11.688633"><ele>431.0</ele><time>2026-04-26T14:45:41.202Z</time></trkpt><trkpt lat="43.0931356" lon="11.6887245"><ele>429.75</ele><time>2026-04-26T14:45:42.2Z</time></trkpt><trkpt lat="43.0932714" lon="11.6888071"><ele>428.5</ele><time>2026-04-26T14:45:43.198Z</time></trkpt><trkpt lat="43.0934072" lon="11.6888767"><ele>427.25</ele><time>2026-04-26T14:45:44.208Z</time></trkpt><trkpt lat="43.093545" lon="11.6889288"><ele>426.0</ele><time>2026-04-26T14:45:45.204Z</time></trkpt><trkpt lat="43.0936843" lon="11.6889636"><ele>426.0</ele><time>2026-04-26T14:45:46.189Z</time></trkpt><trkpt lat="43.0938257" lon="11.688986"><ele>426.0</ele><time>2026-04-26T14:45:47.199Z</time></trkpt><trkpt lat="43.0939678" lon="11.6890028"><ele>426.0</ele><time>2026-04-26T14:45:48.193Z</time></trkpt><trkpt lat="43.09411" lon="11.689022"><ele>426.0</ele><time>2026-04-26T14:45:49.193Z</time></trkpt><trkpt lat="43.0942511" lon="11.6890494"><ele>426.25</ele><time>2026-04-26T14:45:50.186Z</time></trkpt><trkpt lat="43.0943915" lon="11.6890855"><ele>426.5</ele><time>2026-04-26T14:45:51.193Z</time></trkpt><trkpt lat="43.0945287" lon="11.6891298"><ele>426.75</ele><time>2026-04-26T14:45:52.202Z</time></trkpt><trkpt lat="43.0946629" lon="11.6891844"><ele>427.0</ele><time>2026-04-26T14:45:53.19Z</time></trkpt><trkpt lat="43.0947949" lon="11.6892509"><ele>427.75</ele><time>2026-04-26T14:45:54.207Z</time></trkpt><trkpt lat="43.0949255" lon="11.6893285"><ele>428.5</ele><time>2026-04-26T14:45:55.203Z</time></trkpt><trkpt lat="43.0950555" lon="11.689418"><ele>429.25</ele><time>2026-04-26T14:45:56.19Z</time></trkpt><trkpt lat="43.0951836" lon="11.6895205"><ele>430.0</ele><time>2026-04-26T14:45:57.206Z</time></trkpt><trkpt lat="43.0953116" lon="11.6896343"><ele>427.33333333333337</ele><time>2026-04-26T14:45:58.213Z</time></trkpt><trkpt lat="43.0954396" lon="11.6897578"><ele>424.66666666666663</ele><time>2026-04-26T14:45:59.204Z</time></trkpt><trkpt lat="43.0955657" lon="11.689888"><ele>422.0</ele><time>2026-04-26T14:46:00.202Z</time></trkpt><trkpt lat="43.0956859" lon="11.6900181"><ele>421.75</ele><time>2026-04-26T14:46:01.19Z</time></trkpt><trkpt lat="43.0958018" lon="11.6901444"><ele>421.5</ele><time>2026-04-26T14:46:02.187Z</time></trkpt><trkpt lat="43.0959142" lon="11.690268"><ele>421.25</ele><time>2026-04-26T14:46:03.193Z</time></trkpt><trkpt lat="43.0960246" lon="11.6903893"><ele>421.0</ele><time>2026-04-26T14:46:04.196Z</time></trkpt><trkpt lat="43.0961321" lon="11.6905091"><ele>420.25</ele><time>2026-04-26T14:46:05.203Z</time></trkpt><trkpt lat="43.0962354" lon="11.6906308"><ele>419.5</ele><time>2026-04-26T14:46:06.202Z</time></trkpt><trkpt lat="43.0963308" lon="11.6907636"><ele>418.75</ele><time>2026-04-26T14:46:07.195Z</time></trkpt><trkpt lat="43.0964135" lon="11.6909159"><ele>418.0</ele><time>2026-04-26T14:46:08.217Z</time></trkpt><trkpt lat="43.0964776" lon="11.6910924"><ele>417.33333333333337</ele><time>2026-04-26T14:46:09.186Z</time></trkpt><trkpt lat="43.0965187" lon="11.691288"><ele>416.66666666666663</ele><time>2026-04-26T14:46:10.198Z</time></trkpt><trkpt lat="43.0965407" lon="11.6914947"><ele>416.0</ele><time>2026-04-26T14:46:11.206Z</time></trkpt><trkpt lat="43.0965533" lon="11.6917045"><ele>416.0</ele><time>2026-04-26T14:46:12.204Z</time></trkpt><trkpt lat="43.0965643" lon="11.6919138"><ele>416.0</ele><time>2026-04-26T14:46:13.189Z</time></trkpt><trkpt lat="43.0965759" lon="11.6921184"><ele>416.0</ele><time>2026-04-26T14:46:14.191Z</time></trkpt><trkpt lat="43.0965869" lon="11.6923162"><ele>416.0</ele><time>2026-04-26T14:46:15.198Z</time></trkpt><trkpt lat="43.0965985" lon="11.6925066"><ele>416.75</ele><time>2026-04-26T14:46:16.187Z</time></trkpt><trkpt lat="43.0966163" lon="11.692691"><ele>417.5</ele><time>2026-04-26T14:46:17.201Z</time></trkpt><trkpt lat="43.0966506" lon="11.6928689"><ele>418.25</ele><time>2026-04-26T14:46:18.21Z</time></trkpt><trkpt lat="43.09671" lon="11.6930348"><ele>419.0</ele><time>2026-04-26T14:46:19.187Z</time></trkpt><trkpt lat="43.0967958" lon="11.6931817"><ele>418.75</ele><time>2026-04-26T14:46:20.2Z</time></trkpt><trkpt lat="43.0968998" lon="11.6933128"><ele>418.5</ele><time>2026-04-26T14:46:21.205Z</time></trkpt><trkpt lat="43.0970133" lon="11.6934395"><ele>418.25</ele><time>2026-04-26T14:46:22.21Z</time></trkpt><trkpt lat="43.0971317" lon="11.6935718"><ele>418.0</ele><time>2026-04-26T14:46:23.189Z</time></trkpt><trkpt lat="43.0972552" lon="11.6937101"><ele>418.0</ele><time>2026-04-26T14:46:24.211Z</time></trkpt><trkpt lat="43.0973824" lon="11.6938533"><ele>418.0</ele><time>2026-04-26T14:46:25.201Z</time></trkpt><trkpt lat="43.0975125" lon="11.6939994"><ele>418.0</ele><time>2026-04-26T14:46:26.203Z</time></trkpt><trkpt lat="43.0976439" lon="11.6941472"><ele>419.33333333333337</ele><time>2026-04-26T14:46:27.203Z</time></trkpt><trkpt lat="43.097777" lon="11.6942963"><ele>420.66666666666663</ele><time>2026-04-26T14:46:28.206Z</time></trkpt><trkpt lat="43.0979114" lon="11.6944454"><ele>422.0</ele><time>2026-04-26T14:46:29.2Z</time></trkpt><trkpt lat="43.098048" lon="11.6945879"><ele>423.3333333333333</ele><time>2026-04-26T14:46:30.199Z</time></trkpt><trkpt lat="43.0981845" lon="11.6947396"><ele>424.66666666666663</ele><time>2026-04-26T14:46:31.193Z</time></trkpt><trkpt lat="43.0983235" lon="11.6948914"><ele>426.0</ele><time>2026-04-26T14:46:32.195Z</time></trkpt><trkpt lat="43.0984621" lon="11.6950445"><ele>426.33333333333337</ele><time>2026-04-26T14:46:33.206Z</time></trkpt><trkpt lat="43.0986004" lon="11.6951987"><ele>426.6666666666667</ele><time>2026-04-26T14:46:34.195Z</time></trkpt><trkpt lat="43.0987357" lon="11.6953537"><ele>427.0</ele><time>2026-04-26T14:46:35.192Z</time></trkpt><trkpt lat="43.0988716" lon="11.6955087"><ele>428.33333333333337</ele><time>2026-04-26T14:46:36.193Z</time></trkpt><trkpt lat="43.0990077" lon="11.6956612"><ele>429.66666666666663</ele><time>2026-04-26T14:46:37.201Z</time></trkpt><trkpt lat="43.0991417" lon="11.6958129"><ele>431.0</ele><time>2026-04-26T14:46:38.191Z</time></trkpt><trkpt lat="43.0992775" lon="11.695964"><ele>433.66666666666663</ele><time>2026-04-26T14:46:39.203Z</time></trkpt><trkpt lat="43.0994209" lon="11.6961063"><ele>436.33333333333337</ele><time>2026-04-26T14:46:40.198Z</time></trkpt><trkpt lat="43.0995792" lon="11.6962288"><ele>439.0</ele><time>2026-04-26T14:46:41.194Z</time></trkpt><trkpt lat="43.0997522" lon="11.6963208"><ele>441.6666666666667</ele><time>2026-04-26T14:46:42.2Z</time></trkpt><trkpt lat="43.0999338" lon="11.6963916"><ele>444.33333333333337</ele><time>2026-04-26T14:46:43.209Z</time></trkpt><trkpt lat="43.1001201" lon="11.6964526"><ele>447.0</ele><time>2026-04-26T14:46:44.213Z</time></trkpt><trkpt lat="43.1003083" lon="11.6965086"><ele>447.0</ele><time>2026-04-26T14:46:45.192Z</time></trkpt><trkpt lat="43.1004948" lon="11.6965572"><ele>447.0</ele><time>2026-04-26T14:46:46.201Z</time></trkpt><trkpt lat="43.1006763" lon="11.6966006"><ele>447.0</ele><time>2026-04-26T14:46:47.19Z</time></trkpt><trkpt lat="43.1008528" lon="11.6966433"><ele>448.33333333333337</ele><time>2026-04-26T14:46:48.189Z</time></trkpt><trkpt lat="43.1010229" lon="11.6966991"><ele>449.6666666666667</ele><time>2026-04-26T14:46:49.201Z</time></trkpt><trkpt lat="43.1011843" lon="11.6967817"><ele>451.0</ele><time>2026-04-26T14:46:50.201Z</time></trkpt><trkpt lat="43.1013359" lon="11.6968878"><ele>455.0</ele><time>2026-04-26T14:46:51.212Z</time></trkpt><trkpt lat="43.1014835" lon="11.6970063"><ele>459.0</ele><time>2026-04-26T14:46:52.195Z</time></trkpt><trkpt lat="43.1016267" lon="11.6971347"><ele>463.0</ele><time>2026-04-26T14:46:53.193Z</time></trkpt><trkpt lat="43.1017657" lon="11.6972736"><ele>463.6666666666667</ele><time>2026-04-26T14:46:54.191Z</time></trkpt><trkpt lat="43.1019023" lon="11.6974187"><ele>464.33333333333337</ele><time>2026-04-26T14:46:55.202Z</time></trkpt><trkpt lat="43.1020363" lon="11.6975699"><ele>465.0</ele><time>2026-04-26T14:46:56.205Z</time></trkpt><trkpt lat="43.1021635" lon="11.697732"><ele>464.33333333333337</ele><time>2026-04-26T14:46:57.192Z</time></trkpt><trkpt lat="43.1022787" lon="11.6979101"><ele>463.6666666666667</ele><time>2026-04-26T14:46:58.189Z</time></trkpt><trkpt lat="43.1023837" lon="11.6980995"><ele>463.0</ele><time>2026-04-26T14:46:59.193Z</time></trkpt><trkpt lat="43.1024842" lon="11.6982929"><ele>463.0</ele><time>2026-04-26T14:47:00.189Z</time></trkpt><trkpt lat="43.1025825" lon="11.6984859"><ele>463.0</ele><time>2026-04-26T14:47:01.208Z</time></trkpt><trkpt lat="43.1026779" lon="11.6986778"><ele>463.0</ele><time>2026-04-26T14:47:02.206Z</time></trkpt><trkpt lat="43.102772" lon="11.698868"><ele>467.33333333333337</ele><time>2026-04-26T14:47:03.195Z</time></trkpt><trkpt lat="43.102865" lon="11.6990577"><ele>471.66666666666663</ele><time>2026-04-26T14:47:04.188Z</time></trkpt><trkpt lat="43.1029545" lon="11.6992507"><ele>476.0</ele><time>2026-04-26T14:47:05.199Z</time></trkpt><trkpt lat="43.103037" lon="11.6994506"><ele>476.3333333333333</ele><time>2026-04-26T14:47:06.205Z</time></trkpt><trkpt lat="43.1031152" lon="11.6996563"><ele>476.66666666666663</ele><time>2026-04-26T14:47:07.19Z</time></trkpt><trkpt lat="43.1031982" lon="11.6998597"><ele>477.0</ele><time>2026-04-26T14:47:08.206Z</time></trkpt><trkpt lat="43.1032929" lon="11.7000524"><ele>473.0</ele><time>2026-04-26T14:47:09.206Z</time></trkpt><trkpt lat="43.1033952" lon="11.7002329"><ele>469.0</ele><time>2026-04-26T14:47:10.204Z</time></trkpt><trkpt lat="43.1034984" lon="11.700404"><ele>465.0</ele><time>2026-04-26T14:47:11.212Z</time></trkpt><trkpt lat="43.1035974" lon="11.7005671"><ele>465.0</ele><time>2026-04-26T14:47:12.209Z</time></trkpt><trkpt lat="43.1036893" lon="11.7007212"><ele>465.0</ele><time>2026-04-26T14:47:13.194Z</time></trkpt><trkpt lat="43.1037755" lon="11.7008718"><ele>465.0</ele><time>2026-04-26T14:47:14.202Z</time></trkpt><trkpt lat="43.1038557" lon="11.7010246"><ele>465.0</ele><time>2026-04-26T14:47:15.209Z</time></trkpt><trkpt lat="43.1039249" lon="11.7011834"><ele>465.8</ele><time>2026-04-26T14:47:16.192Z</time></trkpt><trkpt lat="43.103979" lon="11.7013427"><ele>466.6</ele><time>2026-04-26T14:47:17.206Z</time></trkpt><trkpt lat="43.1040217" lon="11.7014904"><ele>467.4</ele><time>2026-04-26T14:47:18.194Z</time></trkpt><trkpt lat="43.1040596" lon="11.7016244"><ele>468.2</ele><time>2026-04-26T14:47:19.191Z</time></trkpt><trkpt lat="43.1040937" lon="11.7017447"><ele>469.0</ele><time>2026-04-26T14:47:20.204Z</time></trkpt><trkpt lat="43.104122" lon="11.7018462"><ele>469.79999999999995</ele><time>2026-04-26T14:47:21.197Z</time></trkpt><trkpt lat="43.1041454" lon="11.7019357"><ele>470.59999999999997</ele><time>2026-04-26T14:47:22.205Z</time></trkpt><trkpt lat="43.1041798" lon="11.7020904"><ele>471.4</ele><time>2026-04-26T14:47:24.194Z</time></trkpt><trkpt lat="43.1042308" lon="11.7021939"><ele>472.2</ele><time>2026-04-26T14:47:26.195Z</time></trkpt><trkpt lat="43.104317" lon="11.7022065"><ele>473.0</ele><time>2026-04-26T14:47:28.201Z</time></trkpt><trkpt lat="43.1044175" lon="11.7021265"><ele>472.99999999999994</ele><time>2026-04-26T14:47:30.2Z</time></trkpt><trkpt lat="43.1044648" lon="11.7020688"><ele>473.0</ele><time>2026-04-26T14:47:31.208Z</time></trkpt><trkpt lat="43.1045131" lon="11.7020052"><ele>473.0</ele><time>2026-04-26T14:47:32.202Z</time></trkpt><trkpt lat="43.1045502" lon="11.7019257"><ele>473.0</ele><time>2026-04-26T14:47:33.206Z</time></trkpt><trkpt lat="43.1045758" lon="11.7018271"><ele>472.99999999999994</ele><time>2026-04-26T14:47:34.201Z</time></trkpt><trkpt lat="43.1045982" lon="11.7017092"><ele>473.0</ele><time>2026-04-26T14:47:35.208Z</time></trkpt><trkpt lat="43.1046151" lon="11.7015819"><ele>472.2</ele><time>2026-04-26T14:47:36.201Z</time></trkpt><trkpt lat="43.1046411" lon="11.7014504"><ele>471.4</ele><time>2026-04-26T14:47:37.208Z</time></trkpt><trkpt lat="43.1046652" lon="11.7013085"><ele>470.59999999999997</ele><time>2026-04-26T14:47:38.191Z</time></trkpt><trkpt lat="43.1046925" lon="11.7011598"><ele>469.79999999999995</ele><time>2026-04-26T14:47:39.202Z</time></trkpt><trkpt lat="43.104724" lon="11.7010006"><ele>469.0</ele><time>2026-04-26T14:47:40.19Z</time></trkpt><trkpt lat="43.1047558" lon="11.7008331"><ele>467.25</ele><time>2026-04-26T14:47:41.204Z</time></trkpt><trkpt lat="43.1047902" lon="11.7006614"><ele>465.5</ele><time>2026-04-26T14:47:42.198Z</time></trkpt><trkpt lat="43.1048274" lon="11.7004892"><ele>463.75</ele><time>2026-04-26T14:47:43.207Z</time></trkpt><trkpt lat="43.1048653" lon="11.7003148"><ele>462.0</ele><time>2026-04-26T14:47:44.194Z</time></trkpt><trkpt lat="43.1049033" lon="11.7001408"><ele>462.25</ele><time>2026-04-26T14:47:45.197Z</time></trkpt><trkpt lat="43.1049417" lon="11.699968"><ele>462.5</ele><time>2026-04-26T14:47:46.198Z</time></trkpt><trkpt lat="43.1049826" lon="11.6997977"><ele>462.75</ele><time>2026-04-26T14:47:47.195Z</time></trkpt><trkpt lat="43.1050206" lon="11.6996337"><ele>463.0</ele><time>2026-04-26T14:47:48.208Z</time></trkpt><trkpt lat="43.1050591" lon="11.6994737"><ele>462.75</ele><time>2026-04-26T14:47:49.199Z</time></trkpt><trkpt lat="43.105098" lon="11.6993178"><ele>462.5</ele><time>2026-04-26T14:47:50.207Z</time></trkpt><trkpt lat="43.1051337" lon="11.6991689"><ele>462.25</ele><time>2026-04-26T14:47:51.191Z</time></trkpt><trkpt lat="43.1051692" lon="11.6990242"><ele>462.0</ele><time>2026-04-26T14:47:52.198Z</time></trkpt><trkpt lat="43.1052031" lon="11.6988839"><ele>462.0</ele><time>2026-04-26T14:47:53.19Z</time></trkpt><trkpt lat="43.1052379" lon="11.6987442"><ele>462.00000000000006</ele><time>2026-04-26T14:47:54.2Z</time></trkpt><trkpt lat="43.1052726" lon="11.6986062"><ele>462.00000000000006</ele><time>2026-04-26T14:47:55.206Z</time></trkpt><trkpt lat="43.1053048" lon="11.6984703"><ele>462.0</ele><time>2026-04-26T14:47:56.191Z</time></trkpt><trkpt lat="43.1053382" lon="11.6983378"><ele>462.0</ele><time>2026-04-26T14:47:57.209Z</time></trkpt><trkpt lat="43.105365" lon="11.6982133"><ele>461.6666666666667</ele><time>2026-04-26T14:47:58.207Z</time></trkpt><trkpt lat="43.1053843" lon="11.6980965"><ele>461.33333333333337</ele><time>2026-04-26T14:47:59.2Z</time></trkpt><trkpt lat="43.1053952" lon="11.697988"><ele>461.0</ele><time>2026-04-26T14:48:00.208Z</time></trkpt><trkpt lat="43.1054046" lon="11.6978885"><ele>460.6666666666667</ele><time>2026-04-26T14:48:01.192Z</time></trkpt><trkpt lat="43.1054256" lon="11.6977948"><ele>460.33333333333337</ele><time>2026-04-26T14:48:02.208Z</time></trkpt><trkpt lat="43.1054463" lon="11.6977061"><ele>460.0</ele><time>2026-04-26T14:48:03.205Z</time></trkpt><trkpt lat="43.1054969" lon="11.6976315"><ele>460.6</ele><time>2026-04-26T14:48:04.191Z</time></trkpt><trkpt lat="43.1055697" lon="11.6975666"><ele>461.2</ele><time>2026-04-26T14:48:05.199Z</time></trkpt><trkpt lat="43.1056458" lon="11.6974978"><ele>461.79999999999995</ele><time>2026-04-26T14:48:06.203Z</time></trkpt><trkpt lat="43.1057285" lon="11.6974278"><ele>462.4</ele><time>2026-04-26T14:48:07.207Z</time></trkpt><trkpt lat="43.1058137" lon="11.6973609"><ele>463.0</ele><time>2026-04-26T14:48:08.207Z</time></trkpt><trkpt lat="43.1059019" lon="11.6973003"><ele>463.0</ele><time>2026-04-26T14:48:09.193Z</time></trkpt><trkpt lat="43.1059907" lon="11.6972498"><ele>462.99999999999994</ele><time>2026-04-26T14:48:10.212Z</time></trkpt><trkpt lat="43.1060838" lon="11.6972119"><ele>462.99999999999994</ele><time>2026-04-26T14:48:11.206Z</time></trkpt><trkpt lat="43.1061774" lon="11.6971874"><ele>463.0</ele><time>2026-04-26T14:48:12.201Z</time></trkpt><trkpt lat="43.1062713" lon="11.6971671"><ele>463.0</ele><time>2026-04-26T14:48:13.192Z</time></trkpt><trkpt lat="43.1063642" lon="11.6971483"><ele>463.0</ele><time>2026-04-26T14:48:14.202Z</time></trkpt><trkpt lat="43.1064596" lon="11.6971221"><ele>462.99999999999994</ele><time>2026-04-26T14:48:15.2Z</time></trkpt><trkpt lat="43.1065589" lon="11.6970908"><ele>462.99999999999994</ele><time>2026-04-26T14:48:16.191Z</time></trkpt><trkpt lat="43.1066635" lon="11.6970527"><ele>463.0</ele><time>2026-04-26T14:48:17.192Z</time></trkpt><trkpt lat="43.1067749" lon="11.6970078"><ele>463.0</ele><time>2026-04-26T14:48:18.194Z</time></trkpt><trkpt lat="43.1068908" lon="11.6969506"><ele>463.0</ele><time>2026-04-26T14:48:19.188Z</time></trkpt><trkpt lat="43.1070075" lon="11.696877"><ele>463.0</ele><time>2026-04-26T14:48:20.198Z</time></trkpt><trkpt lat="43.1071216" lon="11.6967837"><ele>463.0</ele><time>2026-04-26T14:48:21.204Z</time></trkpt><trkpt lat="43.1072298" lon="11.6966657"><ele>463.0</ele><time>2026-04-26T14:48:22.204Z</time></trkpt><trkpt lat="43.1073412" lon="11.6965228"><ele>463.33333333333337</ele><time>2026-04-26T14:48:23.203Z</time></trkpt><trkpt lat="43.1074684" lon="11.6963547"><ele>463.66666666666663</ele><time>2026-04-26T14:48:24.211Z</time></trkpt><trkpt lat="43.1075937" lon="11.6961907"><ele>464.0</ele><time>2026-04-26T14:48:25.203Z</time></trkpt><trkpt lat="43.1077149" lon="11.6960361"><ele>462.25</ele><time>2026-04-26T14:48:26.191Z</time></trkpt><trkpt lat="43.1078291" lon="11.6958909"><ele>460.5</ele><time>2026-04-26T14:48:27.196Z</time></trkpt><trkpt lat="43.1079391" lon="11.6957536"><ele>458.75</ele><time>2026-04-26T14:48:28.192Z</time></trkpt><trkpt lat="43.1080446" lon="11.6956235"><ele>457.0</ele><time>2026-04-26T14:48:29.206Z</time></trkpt><trkpt lat="43.1081468" lon="11.6954989"><ele>456.75</ele><time>2026-04-26T14:48:30.19Z</time></trkpt><trkpt lat="43.1082469" lon="11.6953737"><ele>456.5</ele><time>2026-04-26T14:48:31.201Z</time></trkpt><trkpt lat="43.1083439" lon="11.695249"><ele>456.25</ele><time>2026-04-26T14:48:32.191Z</time></trkpt><trkpt lat="43.1084394" lon="11.6951263"><ele>456.0</ele><time>2026-04-26T14:48:33.21Z</time></trkpt><trkpt lat="43.1085354" lon="11.695003"><ele>456.0</ele><time>2026-04-26T14:48:34.204Z</time></trkpt><trkpt lat="43.1086312" lon="11.6948813"><ele>456.0</ele><time>2026-04-26T14:48:35.204Z</time></trkpt><trkpt lat="43.1087284" lon="11.6947579"><ele>456.0</ele><time>2026-04-26T14:48:36.2Z</time></trkpt><trkpt lat="43.108826" lon="11.6946375"><ele>456.0</ele><time>2026-04-26T14:48:37.194Z</time></trkpt><trkpt lat="43.1089224" lon="11.6945217"><ele>453.75</ele><time>2026-04-26T14:48:38.205Z</time></trkpt><trkpt lat="43.1090159" lon="11.6944074"><ele>451.5</ele><time>2026-04-26T14:48:39.2Z</time></trkpt><trkpt lat="43.1091083" lon="11.6942968"><ele>449.25</ele><time>2026-04-26T14:48:40.192Z</time></trkpt><trkpt lat="43.1091981" lon="11.6941878"><ele>447.0</ele><time>2026-04-26T14:48:41.198Z</time></trkpt><trkpt lat="43.1092798" lon="11.6940803"><ele>446.6</ele><time>2026-04-26T14:48:42.202Z</time></trkpt><trkpt lat="43.1093549" lon="11.6939662"><ele>446.20000000000005</ele><time>2026-04-26T14:48:43.187Z</time></trkpt><trkpt lat="43.109419" lon="11.6938419"><ele>445.8</ele><time>2026-04-26T14:48:44.207Z</time></trkpt><trkpt lat="43.1094703" lon="11.6937057"><ele>445.4</ele><time>2026-04-26T14:48:45.208Z</time></trkpt><trkpt lat="43.109513" lon="11.6935609"><ele>445.0</ele><time>2026-04-26T14:48:46.194Z</time></trkpt><trkpt lat="43.1095543" lon="11.6934133"><ele>443.4</ele><time>2026-04-26T14:48:47.205Z</time></trkpt><trkpt lat="43.1095951" lon="11.6932704"><ele>441.8</ele><time>2026-04-26T14:48:48.202Z</time></trkpt><trkpt lat="43.109637" lon="11.6931322"><ele>440.20000000000005</ele><time>2026-04-26T14:48:49.187Z</time></trkpt><trkpt lat="43.109681" lon="11.6929998"><ele>438.6</ele><time>2026-04-26T14:48:50.187Z</time></trkpt><trkpt lat="43.1097261" lon="11.6928813"><ele>437.0</ele><time>2026-04-26T14:48:51.189Z</time></trkpt><trkpt lat="43.1097776" lon="11.6927752"><ele>437.20000000000005</ele><time>2026-04-26T14:48:52.2Z</time></trkpt><trkpt lat="43.1098433" lon="11.6926873"><ele>437.40000000000003</ele><time>2026-04-26T14:48:53.198Z</time></trkpt><trkpt lat="43.1099232" lon="11.6926203"><ele>437.59999999999997</ele><time>2026-04-26T14:48:54.196Z</time></trkpt><trkpt lat="43.1100141" lon="11.6925776"><ele>437.79999999999995</ele><time>2026-04-26T14:48:55.188Z</time></trkpt><trkpt lat="43.1101129" lon="11.6925631"><ele>438.0</ele><time>2026-04-26T14:48:56.186Z</time></trkpt><trkpt lat="43.1102144" lon="11.6925789"><ele>438.0</ele><time>2026-04-26T14:48:57.204Z</time></trkpt><trkpt lat="43.1103087" lon="11.6926225"><ele>437.99999999999994</ele><time>2026-04-26T14:48:58.19Z</time></trkpt><trkpt lat="43.1103932" lon="11.6926897"><ele>437.99999999999994</ele><time>2026-04-26T14:48:59.188Z</time></trkpt><trkpt lat="43.1104675" lon="11.6927803"><ele>438.0</ele><time>2026-04-26T14:49:00.191Z</time></trkpt><trkpt lat="43.1105308" lon="11.6928905"><ele>438.0</ele><time>2026-04-26T14:49:01.197Z</time></trkpt><trkpt lat="43.1105857" lon="11.6930146"><ele>439.2</ele><time>2026-04-26T14:49:02.207Z</time></trkpt><trkpt lat="43.1106345" lon="11.6931482"><ele>440.4</ele><time>2026-04-26T14:49:03.193Z</time></trkpt><trkpt lat="43.1106744" lon="11.693291"><ele>441.59999999999997</ele><time>2026-04-26T14:49:04.192Z</time></trkpt><trkpt lat="43.1107022" lon="11.6934388"><ele>442.79999999999995</ele><time>2026-04-26T14:49:05.206Z</time></trkpt><trkpt lat="43.1107133" lon="11.6935867"><ele>444.0</ele><time>2026-04-26T14:49:06.203Z</time></trkpt><trkpt lat="43.1107067" lon="11.6937344"><ele>444.0</ele><time>2026-04-26T14:49:07.201Z</time></trkpt><trkpt lat="43.1106814" lon="11.6938811"><ele>444.0</ele><time>2026-04-26T14:49:08.192Z</time></trkpt><trkpt lat="43.1106402" lon="11.6940261"><ele>444.0</ele><time>2026-04-26T14:49:09.199Z</time></trkpt><trkpt lat="43.1105913" lon="11.6941716"><ele>444.0</ele><time>2026-04-26T14:49:10.192Z</time></trkpt><trkpt lat="43.1105394" lon="11.6943171"><ele>442.2</ele><time>2026-04-26T14:49:11.195Z</time></trkpt><trkpt lat="43.1104849" lon="11.6944568"><ele>440.4</ele><time>2026-04-26T14:49:12.185Z</time></trkpt><trkpt lat="43.1104304" lon="11.6945914"><ele>438.6</ele><time>2026-04-26T14:49:13.187Z</time></trkpt><trkpt lat="43.1103785" lon="11.6947235"><ele>436.8</ele><time>2026-04-26T14:49:14.202Z</time></trkpt><trkpt lat="43.1103328" lon="11.6948478"><ele>435.0</ele><time>2026-04-26T14:49:15.193Z</time></trkpt><trkpt lat="43.1102974" lon="11.6949657"><ele>435.0</ele><time>2026-04-26T14:49:16.201Z</time></trkpt><trkpt lat="43.1102761" lon="11.6950783"><ele>435.0</ele><time>2026-04-26T14:49:17.207Z</time></trkpt><trkpt lat="43.1102748" lon="11.6951867"><ele>435.0</ele><time>2026-04-26T14:49:18.21Z</time></trkpt><trkpt lat="43.1102952" lon="11.6952958"><ele>435.0</ele><time>2026-04-26T14:49:19.189Z</time></trkpt><trkpt lat="43.1103357" lon="11.6954046"><ele>435.0</ele><time>2026-04-26T14:49:20.192Z</time></trkpt><trkpt lat="43.1103929" lon="11.6955128"><ele>435.0</ele><time>2026-04-26T14:49:21.185Z</time></trkpt><trkpt lat="43.110454" lon="11.6956181"><ele>434.6</ele><time>2026-04-26T14:49:22.206Z</time></trkpt><trkpt lat="43.1105107" lon="11.6957216"><ele>434.2</ele><time>2026-04-26T14:49:23.206Z</time></trkpt><trkpt lat="43.1105576" lon="11.6958285"><ele>433.79999999999995</ele><time>2026-04-26T14:49:24.198Z</time></trkpt><trkpt lat="43.1105847" lon="11.695944"><ele>433.4</ele><time>2026-04-26T14:49:25.202Z</time></trkpt><trkpt lat="43.1105879" lon="11.6960688"><ele>433.0</ele><time>2026-04-26T14:49:26.198Z</time></trkpt><trkpt lat="43.1105859" lon="11.696189"><ele>433.0</ele><time>2026-04-26T14:49:27.209Z</time></trkpt><trkpt lat="43.1105428" lon="11.6963099"><ele>432.99999999999994</ele><time>2026-04-26T14:49:28.194Z</time></trkpt><trkpt lat="43.1105073" lon="11.6964272"><ele>432.99999999999994</ele><time>2026-04-26T14:49:29.2Z</time></trkpt><trkpt lat="43.110482" lon="11.6965419"><ele>433.0</ele><time>2026-04-26T14:49:30.19Z</time></trkpt><trkpt lat="43.1104853" lon="11.6966595"><ele>433.0</ele><time>2026-04-26T14:49:31.188Z</time></trkpt><trkpt lat="43.1105274" lon="11.6967679"><ele>433.00000000000006</ele><time>2026-04-26T14:49:32.194Z</time></trkpt><trkpt lat="43.1105719" lon="11.6968729"><ele>433.0</ele><time>2026-04-26T14:49:33.199Z</time></trkpt><trkpt lat="43.1106426" lon="11.6969519"><ele>433.0</ele><time>2026-04-26T14:49:34.189Z</time></trkpt><trkpt lat="43.110727" lon="11.6969886"><ele>433.0</ele><time>2026-04-26T14:49:35.211Z</time></trkpt><trkpt lat="43.1108141" lon="11.6969882"><ele>433.00000000000006</ele><time>2026-04-26T14:49:36.188Z</time></trkpt><trkpt lat="43.1108914" lon="11.6969558"><ele>433.0</ele><time>2026-04-26T14:49:37.193Z</time></trkpt><trkpt lat="43.1109672" lon="11.696884"><ele>429.79999999999995</ele><time>2026-04-26T14:49:38.204Z</time></trkpt><trkpt lat="43.1110367" lon="11.6967828"><ele>426.59999999999997</ele><time>2026-04-26T14:49:39.2Z</time></trkpt><trkpt lat="43.1111052" lon="11.6966799"><ele>423.4</ele><time>2026-04-26T14:49:40.207Z</time></trkpt><trkpt lat="43.1111706" lon="11.6965781"><ele>420.20000000000005</ele><time>2026-04-26T14:49:41.206Z</time></trkpt><trkpt lat="43.1112396" lon="11.6964702"><ele>417.0</ele><time>2026-04-26T14:49:42.203Z</time></trkpt><trkpt lat="43.1113099" lon="11.6963542"><ele>417.0</ele><time>2026-04-26T14:49:43.204Z</time></trkpt><trkpt lat="43.1113778" lon="11.6962352"><ele>417.0</ele><time>2026-04-26T14:49:44.201Z</time></trkpt><trkpt lat="43.1114438" lon="11.6961171"><ele>417.0</ele><time>2026-04-26T14:49:45.21Z</time></trkpt><trkpt lat="43.1115097" lon="11.6960074"><ele>417.0</ele><time>2026-04-26T14:49:46.195Z</time></trkpt><trkpt lat="43.1115853" lon="11.6959065"><ele>417.0</ele><time>2026-04-26T14:49:47.205Z</time></trkpt><trkpt lat="43.1116685" lon="11.6958189"><ele>414.6</ele><time>2026-04-26T14:49:48.204Z</time></trkpt><trkpt lat="43.111762" lon="11.6957471"><ele>412.20000000000005</ele><time>2026-04-26T14:49:49.212Z</time></trkpt><trkpt lat="43.111861" lon="11.6956888"><ele>409.8</ele><time>2026-04-26T14:49:50.196Z</time></trkpt><trkpt lat="43.1119626" lon="11.6956362"><ele>407.4</ele><time>2026-04-26T14:49:51.183Z</time></trkpt><trkpt lat="43.1120606" lon="11.695591"><ele>405.0</ele><time>2026-04-26T14:49:52.199Z</time></trkpt><trkpt lat="43.1121465" lon="11.6955424"><ele>405.0</ele><time>2026-04-26T14:49:53.189Z</time></trkpt><trkpt lat="43.1122174" lon="11.6954736"><ele>405.0</ele><time>2026-04-26T14:49:54.195Z</time></trkpt><trkpt lat="43.1122708" lon="11.6953811"><ele>405.0</ele><time>2026-04-26T14:49:55.202Z</time></trkpt><trkpt lat="43.1123055" lon="11.6952671"><ele>405.0</ele><time>2026-04-26T14:49:56.186Z</time></trkpt><trkpt lat="43.1123259" lon="11.6951293"><ele>405.0</ele><time>2026-04-26T14:49:57.203Z</time></trkpt><trkpt lat="43.1123442" lon="11.6949728"><ele>405.0</ele><time>2026-04-26T14:49:58.194Z</time></trkpt><trkpt lat="43.1123687" lon="11.6948328"><ele>405.0</ele><time>2026-04-26T14:49:59.183Z</time></trkpt><trkpt lat="43.1124061" lon="11.6947045"><ele>405.0</ele><time>2026-04-26T14:50:00.188Z</time></trkpt><trkpt lat="43.112456" lon="11.6945786"><ele>405.0</ele><time>2026-04-26T14:50:01.196Z</time></trkpt><trkpt lat="43.1125163" lon="11.6944523"><ele>405.0</ele><time>2026-04-26T14:50:02.189Z</time></trkpt><trkpt lat="43.1125761" lon="11.6943271"><ele>405.0</ele><time>2026-04-26T14:50:03.199Z</time></trkpt><trkpt lat="43.1126402" lon="11.694205"><ele>405.0</ele><time>2026-04-26T14:50:04.183Z</time></trkpt><trkpt lat="43.1127019" lon="11.6940869"><ele>405.0</ele><time>2026-04-26T14:50:05.201Z</time></trkpt><trkpt lat="43.1127623" lon="11.6939726"><ele>405.0</ele><time>2026-04-26T14:50:06.204Z</time></trkpt><trkpt lat="43.1128211" lon="11.6938623"><ele>405.0</ele><time>2026-04-26T14:50:07.203Z</time></trkpt><trkpt lat="43.1128743" lon="11.6937572"><ele>405.0</ele><time>2026-04-26T14:50:08.207Z</time></trkpt><trkpt lat="43.1129171" lon="11.6936517"><ele>405.0</ele><time>2026-04-26T14:50:09.201Z</time></trkpt><trkpt lat="43.1129487" lon="11.6935395"><ele>405.0</ele><time>2026-04-26T14:50:10.194Z</time></trkpt><trkpt lat="43.1129704" lon="11.6934161"><ele>405.0</ele><time>2026-04-26T14:50:11.195Z</time></trkpt><trkpt lat="43.1129838" lon="11.693281"><ele>405.0</ele><time>2026-04-26T14:50:12.204Z</time></trkpt><trkpt lat="43.1129937" lon="11.6931382"><ele>404.4</ele><time>2026-04-26T14:50:13.19Z</time></trkpt><trkpt lat="43.1130038" lon="11.6929942"><ele>403.8</ele><time>2026-04-26T14:50:14.201Z</time></trkpt><trkpt lat="43.1130185" lon="11.6928532"><ele>403.20000000000005</ele><time>2026-04-26T14:50:15.206Z</time></trkpt><trkpt lat="43.1130445" lon="11.6927185"><ele>402.6</ele><time>2026-04-26T14:50:16.192Z</time></trkpt><trkpt lat="43.1130873" lon="11.6925903"><ele>402.0</ele><time>2026-04-26T14:50:17.187Z</time></trkpt><trkpt lat="43.1131449" lon="11.692468"><ele>401.20000000000005</ele><time>2026-04-26T14:50:18.202Z</time></trkpt><trkpt lat="43.1132132" lon="11.6923547"><ele>400.4</ele><time>2026-04-26T14:50:19.207Z</time></trkpt><trkpt lat="43.1132872" lon="11.6922455"><ele>399.6</ele><time>2026-04-26T14:50:20.212Z</time></trkpt><trkpt lat="43.113363" lon="11.6921371"><ele>398.79999999999995</ele><time>2026-04-26T14:50:21.208Z</time></trkpt><trkpt lat="43.1134358" lon="11.6920232"><ele>398.0</ele><time>2026-04-26T14:50:22.205Z</time></trkpt><trkpt lat="43.1135007" lon="11.6919007"><ele>400.25</ele><time>2026-04-26T14:50:23.206Z</time></trkpt><trkpt lat="43.1135564" lon="11.6917654"><ele>402.5</ele><time>2026-04-26T14:50:24.201Z</time></trkpt><trkpt lat="43.1136025" lon="11.6916151"><ele>404.75</ele><time>2026-04-26T14:50:25.209Z</time></trkpt><trkpt lat="43.1136413" lon="11.6914532"><ele>407.0</ele><time>2026-04-26T14:50:26.207Z</time></trkpt><trkpt lat="43.1136743" lon="11.6912796"><ele>407.0</ele><time>2026-04-26T14:50:27.189Z</time></trkpt><trkpt lat="43.1137058" lon="11.6911045"><ele>407.0</ele><time>2026-04-26T14:50:28.183Z</time></trkpt><trkpt lat="43.1137351" lon="11.6909264"><ele>407.0</ele><time>2026-04-26T14:50:29.194Z</time></trkpt><trkpt lat="43.1137642" lon="11.6907483"><ele>407.0</ele><time>2026-04-26T14:50:30.191Z</time></trkpt><trkpt lat="43.1137932" lon="11.690573"><ele>405.75</ele><time>2026-04-26T14:50:31.191Z</time></trkpt><trkpt lat="43.1138206" lon="11.6904012"><ele>404.5</ele><time>2026-04-26T14:50:32.198Z</time></trkpt><trkpt lat="43.1138462" lon="11.6902377"><ele>403.25</ele><time>2026-04-26T14:50:33.208Z</time></trkpt><trkpt lat="43.1138703" lon="11.6900825"><ele>402.0</ele><time>2026-04-26T14:50:34.196Z</time></trkpt><trkpt lat="43.1138946" lon="11.6899339"><ele>401.20000000000005</ele><time>2026-04-26T14:50:35.189Z</time></trkpt><trkpt lat="43.1139173" lon="11.6897904"><ele>400.4</ele><time>2026-04-26T14:50:36.191Z</time></trkpt><trkpt lat="43.1139402" lon="11.68965"><ele>399.6</ele><time>2026-04-26T14:50:37.189Z</time></trkpt><trkpt lat="43.1139636" lon="11.6895165"><ele>398.79999999999995</ele><time>2026-04-26T14:50:38.205Z</time></trkpt><trkpt lat="43.1139852" lon="11.6893865"><ele>398.0</ele><time>2026-04-26T14:50:39.199Z</time></trkpt><trkpt lat="43.1140052" lon="11.6892555"><ele>397.59999999999997</ele><time>2026-04-26T14:50:40.204Z</time></trkpt><trkpt lat="43.1140278" lon="11.6891209"><ele>397.2</ele><time>2026-04-26T14:50:41.206Z</time></trkpt><trkpt lat="43.1140546" lon="11.6889816"><ele>396.8</ele><time>2026-04-26T14:50:42.184Z</time></trkpt><trkpt lat="43.1140818" lon="11.6888431"><ele>396.4</ele><time>2026-04-26T14:50:43.204Z</time></trkpt><trkpt lat="43.1141233" lon="11.6887084"><ele>396.0</ele><time>2026-04-26T14:50:44.188Z</time></trkpt><trkpt lat="43.1141761" lon="11.6885845"><ele>397.6</ele><time>2026-04-26T14:50:45.207Z</time></trkpt><trkpt lat="43.1142436" lon="11.6884802"><ele>399.20000000000005</ele><time>2026-04-26T14:50:46.189Z</time></trkpt><trkpt lat="43.1143264" lon="11.6883993"><ele>400.79999999999995</ele><time>2026-04-26T14:50:47.202Z</time></trkpt><trkpt lat="43.1144201" lon="11.6883397"><ele>402.4</ele><time>2026-04-26T14:50:48.19Z</time></trkpt><trkpt lat="43.1145236" lon="11.6882975"><ele>404.0</ele><time>2026-04-26T14:50:49.198Z</time></trkpt><trkpt lat="43.1146352" lon="11.6882659"><ele>404.0</ele><time>2026-04-26T14:50:50.2Z</time></trkpt><trkpt lat="43.114752" lon="11.6882396"><ele>404.0</ele><time>2026-04-26T14:50:51.2Z</time></trkpt><trkpt lat="43.1148687" lon="11.6882187"><ele>404.0</ele><time>2026-04-26T14:50:52.204Z</time></trkpt><trkpt lat="43.1149834" lon="11.6881994"><ele>404.0</ele><time>2026-04-26T14:50:53.197Z</time></trkpt><trkpt lat="43.1150916" lon="11.6881752"><ele>405.6</ele><time>2026-04-26T14:50:54.205Z</time></trkpt><trkpt lat="43.1151986" lon="11.6881509"><ele>407.2</ele><time>2026-04-26T14:50:55.191Z</time></trkpt><trkpt lat="43.1152923" lon="11.6880876"><ele>408.8</ele><time>2026-04-26T14:50:56.195Z</time></trkpt><trkpt lat="43.1153812" lon="11.688001"><ele>410.40000000000003</ele><time>2026-04-26T14:50:57.201Z</time></trkpt><trkpt lat="43.1154642" lon="11.6878968"><ele>412.0</ele><time>2026-04-26T14:50:58.191Z</time></trkpt><trkpt lat="43.1155446" lon="11.687791"><ele>412.40000000000003</ele><time>2026-04-26T14:50:59.191Z</time></trkpt><trkpt lat="43.1156262" lon="11.6876946"><ele>412.8</ele><time>2026-04-26T14:51:00.202Z</time></trkpt><trkpt lat="43.1157039" lon="11.6876031"><ele>413.2</ele><time>2026-04-26T14:51:01.203Z</time></trkpt><trkpt lat="43.1157945" lon="11.6875449"><ele>413.6</ele><time>2026-04-26T14:51:02.186Z</time></trkpt><trkpt lat="43.1158928" lon="11.6875111"><ele>414.0</ele><time>2026-04-26T14:51:03.206Z</time></trkpt><trkpt lat="43.1159958" lon="11.6874817"><ele>414.0</ele><time>2026-04-26T14:51:04.19Z</time></trkpt><trkpt lat="43.1161117" lon="11.6874926"><ele>414.0</ele><time>2026-04-26T14:51:05.195Z</time></trkpt><trkpt lat="43.1162338" lon="11.6875109"><ele>414.0</ele><time>2026-04-26T14:51:06.199Z</time></trkpt><trkpt lat="43.1163525" lon="11.6875312"><ele>414.0</ele><time>2026-04-26T14:51:07.188Z</time></trkpt><trkpt lat="43.1164673" lon="11.687553"><ele>415.2</ele><time>2026-04-26T14:51:08.193Z</time></trkpt><trkpt lat="43.1165748" lon="11.6875656"><ele>416.4</ele><time>2026-04-26T14:51:09.185Z</time></trkpt><trkpt lat="43.1166759" lon="11.6875609"><ele>417.6</ele><time>2026-04-26T14:51:10.19Z</time></trkpt><trkpt lat="43.1167773" lon="11.6875539"><ele>418.8</ele><time>2026-04-26T14:51:11.197Z</time></trkpt><trkpt lat="43.1168699" lon="11.6874921"><ele>420.0</ele><time>2026-04-26T14:51:12.204Z</time></trkpt><trkpt lat="43.1169551" lon="11.6874015"><ele>420.0</ele><time>2026-04-26T14:51:13.201Z</time></trkpt><trkpt lat="43.1170311" lon="11.687289"><ele>420.0</ele><time>2026-04-26T14:51:14.197Z</time></trkpt><trkpt lat="43.1171054" lon="11.6871687"><ele>420.0</ele><time>2026-04-26T14:51:15.188Z</time></trkpt><trkpt lat="43.1171865" lon="11.6870593"><ele>420.0</ele><time>2026-04-26T14:51:16.197Z</time></trkpt><trkpt lat="43.1172798" lon="11.6869726"><ele>419.75</ele><time>2026-04-26T14:51:17.199Z</time></trkpt><trkpt lat="43.1173834" lon="11.6869113"><ele>419.5</ele><time>2026-04-26T14:51:18.198Z</time></trkpt><trkpt lat="43.1174975" lon="11.6868687"><ele>419.25</ele><time>2026-04-26T14:51:19.185Z</time></trkpt><trkpt lat="43.1176178" lon="11.6868325"><ele>419.0</ele><time>2026-04-26T14:51:20.188Z</time></trkpt><trkpt lat="43.117737" lon="11.6867918"><ele>419.0</ele><time>2026-04-26T14:51:21.198Z</time></trkpt><trkpt lat="43.1178535" lon="11.6867452"><ele>419.0</ele><time>2026-04-26T14:51:22.189Z</time></trkpt><trkpt lat="43.1179642" lon="11.6866893"><ele>419.0</ele><time>2026-04-26T14:51:23.193Z</time></trkpt><trkpt lat="43.118067" lon="11.6866171"><ele>419.0</ele><time>2026-04-26T14:51:24.187Z</time></trkpt><trkpt lat="43.118162" lon="11.6865302"><ele>420.25</ele><time>2026-04-26T14:51:25.198Z</time></trkpt><trkpt lat="43.1182558" lon="11.6864279"><ele>421.5</ele><time>2026-04-26T14:51:26.193Z</time></trkpt><trkpt lat="43.1183514" lon="11.6863162"><ele>422.75</ele><time>2026-04-26T14:51:27.204Z</time></trkpt><trkpt lat="43.1184495" lon="11.6862024"><ele>424.0</ele><time>2026-04-26T14:51:28.193Z</time></trkpt><trkpt lat="43.1185445" lon="11.6860937"><ele>422.0</ele><time>2026-04-26T14:51:29.205Z</time></trkpt><trkpt lat="43.1186343" lon="11.6859913"><ele>420.0</ele><time>2026-04-26T14:51:30.194Z</time></trkpt><trkpt lat="43.1187169" lon="11.6859025"><ele>418.0</ele><time>2026-04-26T14:51:31.194Z</time></trkpt><trkpt lat="43.1187919" lon="11.6858192"><ele>416.0</ele><time>2026-04-26T14:51:32.198Z</time></trkpt><trkpt lat="43.1188603" lon="11.6857389"><ele>414.0</ele><time>2026-04-26T14:51:33.197Z</time></trkpt><trkpt lat="43.1189227" lon="11.6856476"><ele>414.0</ele><time>2026-04-26T14:51:34.198Z</time></trkpt><trkpt lat="43.1189754" lon="11.6855411"><ele>414.0</ele><time>2026-04-26T14:51:35.195Z</time></trkpt><trkpt lat="43.1190142" lon="11.6854197"><ele>414.0</ele><time>2026-04-26T14:51:36.187Z</time></trkpt><trkpt lat="43.1190367" lon="11.6852841"><ele>414.0</ele><time>2026-04-26T14:51:37.184Z</time></trkpt><trkpt lat="43.1190416" lon="11.6851412"><ele>414.0</ele><time>2026-04-26T14:51:38.186Z</time></trkpt><trkpt lat="43.1190335" lon="11.6850018"><ele>413.5</ele><time>2026-04-26T14:51:39.201Z</time></trkpt><trkpt lat="43.119022" lon="11.6848731"><ele>413.0</ele><time>2026-04-26T14:51:40.195Z</time></trkpt><trkpt lat="43.1190149" lon="11.6847594"><ele>412.5</ele><time>2026-04-26T14:51:41.2Z</time></trkpt><trkpt lat="43.1190134" lon="11.6846588"><ele>412.0</ele><time>2026-04-26T14:51:42.199Z</time></trkpt><trkpt lat="43.1190261" lon="11.6845667"><ele>411.5</ele><time>2026-04-26T14:51:43.2Z</time></trkpt><trkpt lat="43.1190612" lon="11.6844938"><ele>411.0</ele><time>2026-04-26T14:51:44.204Z</time></trkpt><trkpt lat="43.1191184" lon="11.6844467"><ele>410.7142857142857</ele><time>2026-04-26T14:51:45.196Z</time></trkpt><trkpt lat="43.1191845" lon="11.6844248"><ele>410.42857142857144</ele><time>2026-04-26T14:51:46.21Z</time></trkpt><trkpt lat="43.1192506" lon="11.684408"><ele>410.1428571428571</ele><time>2026-04-26T14:51:47.192Z</time></trkpt><trkpt lat="43.1193109" lon="11.6843736"><ele>409.8571428571429</ele><time>2026-04-26T14:51:48.205Z</time></trkpt><trkpt lat="43.1193717" lon="11.6843401"><ele>409.5714285714286</ele><time>2026-04-26T14:51:49.187Z</time></trkpt><trkpt lat="43.11941" lon="11.6842629"><ele>409.2857142857143</ele><time>2026-04-26T14:51:50.182Z</time></trkpt><trkpt lat="43.1194348" lon="11.6841671"><ele>409.0</ele><time>2026-04-26T14:51:51.188Z</time></trkpt><trkpt lat="43.11946" lon="11.6840665"><ele>409.0</ele><time>2026-04-26T14:51:52.194Z</time></trkpt><trkpt lat="43.1194672" lon="11.6839501"><ele>409.0</ele><time>2026-04-26T14:51:53.194Z</time></trkpt><trkpt lat="43.1194641" lon="11.6838221"><ele>409.0</ele><time>2026-04-26T14:51:54.19Z</time></trkpt><trkpt lat="43.1194616" lon="11.6836823"><ele>409.0</ele><time>2026-04-26T14:51:55.184Z</time></trkpt><trkpt lat="43.1194633" lon="11.6835319"><ele>409.0</ele><time>2026-04-26T14:51:56.198Z</time></trkpt><trkpt lat="43.1194661" lon="11.6833801"><ele>407.0</ele><time>2026-04-26T14:51:57.2Z</time></trkpt><trkpt lat="43.1194653" lon="11.6832304"><ele>405.0</ele><time>2026-04-26T14:51:58.19Z</time></trkpt><trkpt lat="43.1194646" lon="11.6830717"><ele>403.0</ele><time>2026-04-26T14:51:59.194Z</time></trkpt><trkpt lat="43.1194621" lon="11.6829092"><ele>401.0</ele><time>2026-04-26T14:52:00.196Z</time></trkpt><trkpt lat="43.1194555" lon="11.6827447"><ele>399.25</ele><time>2026-04-26T14:52:01.206Z</time></trkpt><trkpt lat="43.1194507" lon="11.6825767"><ele>397.5</ele><time>2026-04-26T14:52:02.213Z</time></trkpt><trkpt lat="43.119446" lon="11.6824036"><ele>395.75</ele><time>2026-04-26T14:52:03.188Z</time></trkpt><trkpt lat="43.1194399" lon="11.6822358"><ele>394.0</ele><time>2026-04-26T14:52:04.202Z</time></trkpt><trkpt lat="43.1194334" lon="11.6820713"><ele>393.4</ele><time>2026-04-26T14:52:05.205Z</time></trkpt><trkpt lat="43.119427" lon="11.6819162"><ele>392.79999999999995</ele><time>2026-04-26T14:52:06.194Z</time></trkpt><trkpt lat="43.11942" lon="11.6817716"><ele>392.20000000000005</ele><time>2026-04-26T14:52:07.204Z</time></trkpt><trkpt lat="43.1194158" lon="11.6816403"><ele>391.6</ele><time>2026-04-26T14:52:08.198Z</time></trkpt><trkpt lat="43.1194111" lon="11.6815154"><ele>391.0</ele><time>2026-04-26T14:52:09.188Z</time></trkpt><trkpt lat="43.1194002" lon="11.6813981"><ele>391.0</ele><time>2026-04-26T14:52:10.202Z</time></trkpt><trkpt lat="43.1193848" lon="11.6812773"><ele>391.0</ele><time>2026-04-26T14:52:11.199Z</time></trkpt><trkpt lat="43.1193627" lon="11.681151"><ele>391.0</ele><time>2026-04-26T14:52:12.209Z</time></trkpt><trkpt lat="43.1193391" lon="11.6810214"><ele>391.0</ele><time>2026-04-26T14:52:13.188Z</time></trkpt><trkpt lat="43.1192944" lon="11.680896"><ele>391.0</ele><time>2026-04-26T14:52:14.186Z</time></trkpt><trkpt lat="43.1192343" lon="11.6807798"><ele>391.75</ele><time>2026-04-26T14:52:15.201Z</time></trkpt><trkpt lat="43.11916" lon="11.6806785"><ele>392.5</ele><time>2026-04-26T14:52:16.208Z</time></trkpt><trkpt lat="43.1190703" lon="11.6805936"><ele>393.25</ele><time>2026-04-26T14:52:17.2Z</time></trkpt><trkpt lat="43.1189682" lon="11.6805178"><ele>394.0</ele><time>2026-04-26T14:52:18.19Z</time></trkpt><trkpt lat="43.1188571" lon="11.6804494"><ele>393.75</ele><time>2026-04-26T14:52:19.2Z</time></trkpt><trkpt lat="43.1187389" lon="11.6803917"><ele>393.5</ele><time>2026-04-26T14:52:20.201Z</time></trkpt><trkpt lat="43.1186201" lon="11.6803375"><ele>393.25</ele><time>2026-04-26T14:52:21.198Z</time></trkpt><trkpt lat="43.1185046" lon="11.6802821"><ele>393.0</ele><time>2026-04-26T14:52:22.197Z</time></trkpt><trkpt lat="43.1183958" lon="11.6802243"><ele>393.0</ele><time>2026-04-26T14:52:23.208Z</time></trkpt><trkpt lat="43.1182903" lon="11.6801629"><ele>393.0</ele><time>2026-04-26T14:52:24.202Z</time></trkpt><trkpt lat="43.1181867" lon="11.6800925"><ele>393.0</ele><time>2026-04-26T14:52:25.206Z</time></trkpt><trkpt lat="43.118091" lon="11.6800114"><ele>393.0</ele><time>2026-04-26T14:52:26.188Z</time></trkpt><trkpt lat="43.118004" lon="11.6799223"><ele>390.4</ele><time>2026-04-26T14:52:27.201Z</time></trkpt><trkpt lat="43.11792" lon="11.6798333"><ele>387.79999999999995</ele><time>2026-04-26T14:52:28.188Z</time></trkpt><trkpt lat="43.1178323" lon="11.6797471"><ele>385.2</ele><time>2026-04-26T14:52:29.187Z</time></trkpt><trkpt lat="43.1177424" lon="11.6796595"><ele>382.6</ele><time>2026-04-26T14:52:30.195Z</time></trkpt><trkpt lat="43.1176429" lon="11.6795769"><ele>380.0</ele><time>2026-04-26T14:52:31.209Z</time></trkpt><trkpt lat="43.1175356" lon="11.679496"><ele>381.0</ele><time>2026-04-26T14:52:32.202Z</time></trkpt><trkpt lat="43.117424" lon="11.6794114"><ele>382.0</ele><time>2026-04-26T14:52:33.188Z</time></trkpt><trkpt lat="43.1173048" lon="11.6793224"><ele>383.0</ele><time>2026-04-26T14:52:34.199Z</time></trkpt><trkpt lat="43.1171858" lon="11.6792304"><ele>384.0</ele><time>2026-04-26T14:52:35.19Z</time></trkpt><trkpt lat="43.1170659" lon="11.6791375"><ele>381.5</ele><time>2026-04-26T14:52:36.188Z</time></trkpt><trkpt lat="43.1169453" lon="11.679046"><ele>379.0</ele><time>2026-04-26T14:52:37.185Z</time></trkpt><trkpt lat="43.1168275" lon="11.6789567"><ele>376.5</ele><time>2026-04-26T14:52:38.199Z</time></trkpt><trkpt lat="43.1167153" lon="11.6788704"><ele>374.0</ele><time>2026-04-26T14:52:39.194Z</time></trkpt><trkpt lat="43.1166062" lon="11.6787865"><ele>372.5</ele><time>2026-04-26T14:52:40.196Z</time></trkpt><trkpt lat="43.1164988" lon="11.6787022"><ele>371.0</ele><time>2026-04-26T14:52:41.199Z</time></trkpt><trkpt lat="43.1163979" lon="11.6786138"><ele>369.5</ele><time>2026-04-26T14:52:42.191Z</time></trkpt><trkpt lat="43.1163062" lon="11.6785163"><ele>368.0</ele><time>2026-04-26T14:52:43.203Z</time></trkpt><trkpt lat="43.11623" lon="11.6784168"><ele>368.0</ele><time>2026-04-26T14:52:44.206Z</time></trkpt><trkpt lat="43.1161684" lon="11.6783066"><ele>368.0</ele><time>2026-04-26T14:52:45.19Z</time></trkpt><trkpt lat="43.1161263" lon="11.6781833"><ele>368.0</ele><time>2026-04-26T14:52:46.19Z</time></trkpt><trkpt lat="43.1161049" lon="11.6780509"><ele>368.0</ele><time>2026-04-26T14:52:47.201Z</time></trkpt><trkpt lat="43.1161027" lon="11.6779098"><ele>368.0</ele><time>2026-04-26T14:52:48.188Z</time></trkpt><trkpt lat="43.1161145" lon="11.6777609"><ele>367.75</ele><time>2026-04-26T14:52:49.188Z</time></trkpt><trkpt lat="43.1161347" lon="11.6776079"><ele>367.5</ele><time>2026-04-26T14:52:50.191Z</time></trkpt><trkpt lat="43.116161" lon="11.6774524"><ele>367.25</ele><time>2026-04-26T14:52:51.21Z</time></trkpt><trkpt lat="43.116193" lon="11.6772929"><ele>367.0</ele><time>2026-04-26T14:52:52.204Z</time></trkpt><trkpt lat="43.1162301" lon="11.6771289"><ele>367.0</ele><time>2026-04-26T14:52:53.204Z</time></trkpt><trkpt lat="43.1162701" lon="11.6769601"><ele>367.0</ele><time>2026-04-26T14:52:54.204Z</time></trkpt><trkpt lat="43.1163101" lon="11.6767917"><ele>367.0</ele><time>2026-04-26T14:52:55.202Z</time></trkpt><trkpt lat="43.116351" lon="11.6766168"><ele>367.0</ele><time>2026-04-26T14:52:56.201Z</time></trkpt><trkpt lat="43.1163917" lon="11.6764399"><ele>366.5</ele><time>2026-04-26T14:52:57.188Z</time></trkpt><trkpt lat="43.1164361" lon="11.6762614"><ele>366.0</ele><time>2026-04-26T14:52:58.204Z</time></trkpt><trkpt lat="43.1164812" lon="11.6760855"><ele>365.5</ele><time>2026-04-26T14:52:59.195Z</time></trkpt><trkpt lat="43.1165276" lon="11.6759098"><ele>365.0</ele><time>2026-04-26T14:53:00.2Z</time></trkpt><trkpt lat="43.1165745" lon="11.6757356"><ele>365.5</ele><time>2026-04-26T14:53:01.206Z</time></trkpt><trkpt lat="43.1166209" lon="11.6755621"><ele>366.0</ele><time>2026-04-26T14:53:02.189Z</time></trkpt><trkpt lat="43.1166663" lon="11.6753888"><ele>366.5</ele><time>2026-04-26T14:53:03.205Z</time></trkpt><trkpt lat="43.1167126" lon="11.6752155"><ele>367.0</ele><time>2026-04-26T14:53:04.204Z</time></trkpt><trkpt lat="43.1167591" lon="11.6750408"><ele>367.0</ele><time>2026-04-26T14:53:05.191Z</time></trkpt><trkpt lat="43.1168045" lon="11.6748649"><ele>367.0</ele><time>2026-04-26T14:53:06.189Z</time></trkpt><trkpt lat="43.1168482" lon="11.6746897"><ele>367.0</ele><time>2026-04-26T14:53:07.201Z</time></trkpt><trkpt lat="43.1168919" lon="11.6745145"><ele>367.0</ele><time>2026-04-26T14:53:08.198Z</time></trkpt><trkpt lat="43.1169366" lon="11.6743399"><ele>366.75</ele><time>2026-04-26T14:53:09.206Z</time></trkpt><trkpt lat="43.1169814" lon="11.674167"><ele>366.5</ele><time>2026-04-26T14:53:10.193Z</time></trkpt><trkpt lat="43.1170284" lon="11.6739885"><ele>366.25</ele><time>2026-04-26T14:53:11.201Z</time></trkpt><trkpt lat="43.1170758" lon="11.6738109"><ele>366.0</ele><time>2026-04-26T14:53:12.206Z</time></trkpt><trkpt lat="43.1171222" lon="11.6736371"><ele>366.0</ele><time>2026-04-26T14:53:13.191Z</time></trkpt><trkpt lat="43.117165" lon="11.6734706"><ele>366.0</ele><time>2026-04-26T14:53:14.205Z</time></trkpt><trkpt lat="43.1172061" lon="11.673314"><ele>366.0</ele><time>2026-04-26T14:53:15.21Z</time></trkpt><trkpt lat="43.1172454" lon="11.6731645"><ele>366.0</ele><time>2026-04-26T14:53:16.208Z</time></trkpt><trkpt lat="43.1172798" lon="11.6730234"><ele>366.0</ele><time>2026-04-26T14:53:17.207Z</time></trkpt><trkpt lat="43.1173052" lon="11.6728893"><ele>366.0</ele><time>2026-04-26T14:53:18.213Z</time></trkpt><trkpt lat="43.1173135" lon="11.6727581"><ele>366.0</ele><time>2026-04-26T14:53:19.187Z</time></trkpt><trkpt lat="43.1173031" lon="11.6726246"><ele>366.0</ele><time>2026-04-26T14:53:20.203Z</time></trkpt><trkpt lat="43.1172818" lon="11.6724964"><ele>366.0</ele><time>2026-04-26T14:53:21.196Z</time></trkpt><trkpt lat="43.1172544" lon="11.6723764"><ele>366.1666666666667</ele><time>2026-04-26T14:53:22.199Z</time></trkpt><trkpt lat="43.1172193" lon="11.6722649"><ele>366.3333333333333</ele><time>2026-04-26T14:53:23.206Z</time></trkpt><trkpt lat="43.1171769" lon="11.6721576"><ele>366.5</ele><time>2026-04-26T14:53:24.19Z</time></trkpt><trkpt lat="43.1171284" lon="11.6720554"><ele>366.66666666666663</ele><time>2026-04-26T14:53:25.194Z</time></trkpt><trkpt lat="43.1170701" lon="11.6719618"><ele>366.8333333333333</ele><time>2026-04-26T14:53:26.189Z</time></trkpt><trkpt lat="43.117012" lon="11.6718701"><ele>367.0</ele><time>2026-04-26T14:53:27.19Z</time></trkpt><trkpt lat="43.1169267" lon="11.67181"><ele>367.0</ele><time>2026-04-26T14:53:28.206Z</time></trkpt><trkpt lat="43.1168291" lon="11.6717607"><ele>367.0</ele><time>2026-04-26T14:53:29.202Z</time></trkpt><trkpt lat="43.1167258" lon="11.6717097"><ele>367.0</ele><time>2026-04-26T14:53:30.203Z</time></trkpt><trkpt lat="43.1166048" lon="11.6716605"><ele>367.0</ele><time>2026-04-26T14:53:31.199Z</time></trkpt><trkpt lat="43.1164721" lon="11.6716087"><ele>367.0</ele><time>2026-04-26T14:53:32.2Z</time></trkpt><trkpt lat="43.1163407" lon="11.6715579"><ele>367.0</ele><time>2026-04-26T14:53:33.202Z</time></trkpt><trkpt lat="43.1162184" lon="11.6715054"><ele>367.0</ele><time>2026-04-26T14:53:34.205Z</time></trkpt><trkpt lat="43.1161072" lon="11.6714502"><ele>367.0</ele><time>2026-04-26T14:53:35.204Z</time></trkpt><trkpt lat="43.116013" lon="11.6713913"><ele>367.0</ele><time>2026-04-26T14:53:36.199Z</time></trkpt><trkpt lat="43.1159271" lon="11.671326"><ele>367.0</ele><time>2026-04-26T14:53:37.213Z</time></trkpt><trkpt lat="43.1158435" lon="11.6712427"><ele>367.0</ele><time>2026-04-26T14:53:38.2Z</time></trkpt><trkpt lat="43.1157621" lon="11.6711413"><ele>367.0</ele><time>2026-04-26T14:53:39.204Z</time></trkpt><trkpt lat="43.1156788" lon="11.6710289"><ele>367.0</ele><time>2026-04-26T14:53:40.202Z</time></trkpt><trkpt lat="43.1155895" lon="11.6709134"><ele>366.75</ele><time>2026-04-26T14:53:41.201Z</time></trkpt><trkpt lat="43.1154911" lon="11.6708076"><ele>366.5</ele><time>2026-04-26T14:53:42.205Z</time></trkpt><trkpt lat="43.1153821" lon="11.6707188"><ele>366.25</ele><time>2026-04-26T14:53:43.204Z</time></trkpt><trkpt lat="43.115262" lon="11.6706456"><ele>366.0</ele><time>2026-04-26T14:53:44.198Z</time></trkpt><trkpt lat="43.1151308" lon="11.6705827"><ele>366.0</ele><time>2026-04-26T14:53:45.188Z</time></trkpt><trkpt lat="43.1149943" lon="11.6705224"><ele>366.0</ele><time>2026-04-26T14:53:46.208Z</time></trkpt><trkpt lat="43.1148576" lon="11.6704617"><ele>366.0</ele><time>2026-04-26T14:53:47.203Z</time></trkpt><trkpt lat="43.1147178" lon="11.6704004"><ele>366.0</ele><time>2026-04-26T14:53:48.189Z</time></trkpt><trkpt lat="43.114578" lon="11.6703376"><ele>366.25</ele><time>2026-04-26T14:53:49.188Z</time></trkpt><trkpt lat="43.1144371" lon="11.6702759"><ele>366.5</ele><time>2026-04-26T14:53:50.195Z</time></trkpt><trkpt lat="43.1142981" lon="11.6702156"><ele>366.75</ele><time>2026-04-26T14:53:51.204Z</time></trkpt><trkpt lat="43.1141578" lon="11.6701603"><ele>367.0</ele><time>2026-04-26T14:53:52.189Z</time></trkpt><trkpt lat="43.1140196" lon="11.6701083"><ele>367.25</ele><time>2026-04-26T14:53:53.191Z</time></trkpt><trkpt lat="43.1138812" lon="11.6700679"><ele>367.5</ele><time>2026-04-26T14:53:54.204Z</time></trkpt><trkpt lat="43.1137542" lon="11.6700325"><ele>367.75</ele><time>2026-04-26T14:53:55.2Z</time></trkpt><trkpt lat="43.1136387" lon="11.669998"><ele>368.0</ele><time>2026-04-26T14:53:56.192Z</time></trkpt><trkpt lat="43.1135285" lon="11.6699649"><ele>368.0</ele><time>2026-04-26T14:53:57.202Z</time></trkpt><trkpt lat="43.1134197" lon="11.6699345"><ele>368.0</ele><time>2026-04-26T14:53:58.203Z</time></trkpt><trkpt lat="43.1133149" lon="11.6699058"><ele>368.0</ele><time>2026-04-26T14:53:59.194Z</time></trkpt><trkpt lat="43.1132087" lon="11.6698838"><ele>368.0</ele><time>2026-04-26T14:54:00.197Z</time></trkpt><trkpt lat="43.1131031" lon="11.6698743"><ele>368.0</ele><time>2026-04-26T14:54:01.197Z</time></trkpt><trkpt lat="43.1129967" lon="11.6698653"><ele>366.59999999999997</ele><time>2026-04-26T14:54:02.203Z</time></trkpt><trkpt lat="43.11289" lon="11.6698759"><ele>365.2</ele><time>2026-04-26T14:54:03.194Z</time></trkpt><trkpt lat="43.1127907" lon="11.6699078"><ele>363.8</ele><time>2026-04-26T14:54:04.201Z</time></trkpt><trkpt lat="43.1127033" lon="11.6699376"><ele>362.4</ele><time>2026-04-26T14:54:05.202Z</time></trkpt><trkpt lat="43.1126185" lon="11.669965"><ele>361.0</ele><time>2026-04-26T14:54:06.192Z</time></trkpt><trkpt lat="43.1125365" lon="11.6699509"><ele>361.0</ele><time>2026-04-26T14:54:07.2Z</time></trkpt><trkpt lat="43.1124592" lon="11.6699331"><ele>361.0</ele><time>2026-04-26T14:54:08.196Z</time></trkpt><trkpt lat="43.1123936" lon="11.66986"><ele>361.0</ele><time>2026-04-26T14:54:09.195Z</time></trkpt><trkpt lat="43.1123415" lon="11.6697496"><ele>361.0</ele><time>2026-04-26T14:54:10.198Z</time></trkpt><trkpt lat="43.1123018" lon="11.6696212"><ele>361.0</ele><time>2026-04-26T14:54:11.202Z</time></trkpt><trkpt lat="43.1122625" lon="11.6694942"><ele>359.6</ele><time>2026-04-26T14:54:12.198Z</time></trkpt><trkpt lat="43.1122255" lon="11.6693714"><ele>358.20000000000005</ele><time>2026-04-26T14:54:13.192Z</time></trkpt><trkpt lat="43.1121936" lon="11.6692489"><ele>356.79999999999995</ele><time>2026-04-26T14:54:14.194Z</time></trkpt><trkpt lat="43.112192" lon="11.669114"><ele>355.4</ele><time>2026-04-26T14:54:15.202Z</time></trkpt><trkpt lat="43.1121907" lon="11.6689805"><ele>354.0</ele><time>2026-04-26T14:54:16.192Z</time></trkpt><trkpt lat="43.1122038" lon="11.6688524"><ele>354.0</ele><time>2026-04-26T14:54:17.197Z</time></trkpt><trkpt lat="43.1122114" lon="11.6687499"><ele>354.0</ele><time>2026-04-26T14:54:18.207Z</time></trkpt><trkpt lat="43.112214" lon="11.6686616"><ele>354.0</ele><time>2026-04-26T14:54:19.191Z</time></trkpt><trkpt lat="43.112194" lon="11.668578"><ele>354.0</ele><time>2026-04-26T14:54:20.19Z</time></trkpt><trkpt lat="43.1121499" lon="11.6685001"><ele>354.0</ele><time>2026-04-26T14:54:21.196Z</time></trkpt><trkpt lat="43.1120813" lon="11.6684295"><ele>354.0</ele><time>2026-04-26T14:54:22.2Z</time></trkpt><trkpt lat="43.111989" lon="11.6683575"><ele>354.0</ele><time>2026-04-26T14:54:23.204Z</time></trkpt><trkpt lat="43.1118905" lon="11.668283"><ele>354.0</ele><time>2026-04-26T14:54:24.192Z</time></trkpt><trkpt lat="43.1117949" lon="11.6682071"><ele>354.0</ele><time>2026-04-26T14:54:25.204Z</time></trkpt><trkpt lat="43.1117016" lon="11.6681345"><ele>354.0</ele><time>2026-04-26T14:54:26.184Z</time></trkpt><trkpt lat="43.1116099" lon="11.6680608"><ele>354.0</ele><time>2026-04-26T14:54:27.204Z</time></trkpt><trkpt lat="43.1115186" lon="11.6679854"><ele>354.0</ele><time>2026-04-26T14:54:28.193Z</time></trkpt><trkpt lat="43.1114238" lon="11.6679028"><ele>354.0</ele><time>2026-04-26T14:54:29.203Z</time></trkpt><trkpt lat="43.1113308" lon="11.667797"><ele>354.0</ele><time>2026-04-26T14:54:30.198Z</time></trkpt><trkpt lat="43.1112391" lon="11.6676795"><ele>354.0</ele><time>2026-04-26T14:54:31.2Z</time></trkpt><trkpt lat="43.111152" lon="11.6675692"><ele>355.8333333333333</ele><time>2026-04-26T14:54:32.2Z</time></trkpt><trkpt lat="43.1110715" lon="11.6674691"><ele>357.6666666666667</ele><time>2026-04-26T14:54:33.197Z</time></trkpt><trkpt lat="43.1110034" lon="11.6673836"><ele>359.5</ele><time>2026-04-26T14:54:34.194Z</time></trkpt><trkpt lat="43.1109417" lon="11.6673104"><ele>361.33333333333337</ele><time>2026-04-26T14:54:35.201Z</time></trkpt><trkpt lat="43.1108773" lon="11.6672592"><ele>363.1666666666667</ele><time>2026-04-26T14:54:36.198Z</time></trkpt><trkpt lat="43.1108139" lon="11.6672133"><ele>365.0</ele><time>2026-04-26T14:54:37.191Z</time></trkpt><trkpt lat="43.1107375" lon="11.6672248"><ele>365.2</ele><time>2026-04-26T14:54:38.197Z</time></trkpt><trkpt lat="43.1106614" lon="11.6672806"><ele>365.4</ele><time>2026-04-26T14:54:39.195Z</time></trkpt><trkpt lat="43.1105801" lon="11.667371"><ele>365.6</ele><time>2026-04-26T14:54:40.186Z</time></trkpt><trkpt lat="43.1104985" lon="11.6674748"><ele>365.8</ele><time>2026-04-26T14:54:41.199Z</time></trkpt><trkpt lat="43.1104188" lon="11.6675692"><ele>366.0</ele><time>2026-04-26T14:54:42.2Z</time></trkpt><trkpt lat="43.1103424" lon="11.6676569"><ele>366.0</ele><time>2026-04-26T14:54:43.19Z</time></trkpt><trkpt lat="43.1102709" lon="11.6677281"><ele>366.0</ele><time>2026-04-26T14:54:44.203Z</time></trkpt><trkpt lat="43.110195" lon="11.6677847"><ele>366.0</ele><time>2026-04-26T14:54:45.201Z</time></trkpt><trkpt lat="43.1101137" lon="11.6678306"><ele>366.0</ele><time>2026-04-26T14:54:46.2Z</time></trkpt><trkpt lat="43.1100215" lon="11.6678454"><ele>366.0</ele><time>2026-04-26T14:54:47.199Z</time></trkpt><trkpt lat="43.1099296" lon="11.6678574"><ele>366.0</ele><time>2026-04-26T14:54:48.186Z</time></trkpt><trkpt lat="43.1098342" lon="11.6678436"><ele>364.4</ele><time>2026-04-26T14:54:49.186Z</time></trkpt><trkpt lat="43.109737" lon="11.6677939"><ele>362.8</ele><time>2026-04-26T14:54:50.207Z</time></trkpt><trkpt lat="43.1096438" lon="11.6677405"><ele>361.2</ele><time>2026-04-26T14:54:51.199Z</time></trkpt><trkpt lat="43.1095429" lon="11.6676756"><ele>359.59999999999997</ele><time>2026-04-26T14:54:52.207Z</time></trkpt><trkpt lat="43.1094437" lon="11.6676122"><ele>358.0</ele><time>2026-04-26T14:54:53.204Z</time></trkpt><trkpt lat="43.1093452" lon="11.6675481"><ele>358.0</ele><time>2026-04-26T14:54:54.191Z</time></trkpt><trkpt lat="43.1092446" lon="11.6674854"><ele>358.0</ele><time>2026-04-26T14:54:55.192Z</time></trkpt><trkpt lat="43.1091426" lon="11.6674243"><ele>358.0</ele><time>2026-04-26T14:54:56.199Z</time></trkpt><trkpt lat="43.1090381" lon="11.6673666"><ele>358.0</ele><time>2026-04-26T14:54:57.202Z</time></trkpt><trkpt lat="43.1089312" lon="11.6673092"><ele>358.0</ele><time>2026-04-26T14:54:58.201Z</time></trkpt><trkpt lat="43.1088263" lon="11.6672431"><ele>357.79999999999995</ele><time>2026-04-26T14:54:59.208Z</time></trkpt><trkpt lat="43.1087335" lon="11.6671839"><ele>357.6</ele><time>2026-04-26T14:55:00.206Z</time></trkpt><trkpt lat="43.1086429" lon="11.6671195"><ele>357.4</ele><time>2026-04-26T14:55:01.201Z</time></trkpt><trkpt lat="43.108552" lon="11.6670532"><ele>357.20000000000005</ele><time>2026-04-26T14:55:02.203Z</time></trkpt><trkpt lat="43.1084641" lon="11.6669847"><ele>357.0</ele><time>2026-04-26T14:55:03.201Z</time></trkpt><trkpt lat="43.1083789" lon="11.666906"><ele>357.0</ele><time>2026-04-26T14:55:04.204Z</time></trkpt><trkpt lat="43.1083009" lon="11.6668112"><ele>357.0</ele><time>2026-04-26T14:55:05.198Z</time></trkpt><trkpt lat="43.1082301" lon="11.666713"><ele>357.0</ele><time>2026-04-26T14:55:06.186Z</time></trkpt><trkpt lat="43.1081659" lon="11.6666176"><ele>357.0</ele><time>2026-04-26T14:55:07.206Z</time></trkpt><trkpt lat="43.1080951" lon="11.6665191"><ele>357.0</ele><time>2026-04-26T14:55:08.199Z</time></trkpt><trkpt lat="43.1080286" lon="11.6664274"><ele>356.57142857142856</ele><time>2026-04-26T14:55:09.196Z</time></trkpt><trkpt lat="43.1079706" lon="11.666352"><ele>356.1428571428571</ele><time>2026-04-26T14:55:10.206Z</time></trkpt><trkpt lat="43.1079209" lon="11.6662809"><ele>355.7142857142857</ele><time>2026-04-26T14:55:11.191Z</time></trkpt><trkpt lat="43.107873" lon="11.666216"><ele>355.2857142857143</ele><time>2026-04-26T14:55:12.206Z</time></trkpt><trkpt lat="43.1078263" lon="11.6661503"><ele>354.85714285714283</ele><time>2026-04-26T14:55:13.197Z</time></trkpt><trkpt lat="43.1077777" lon="11.6660743"><ele>354.42857142857144</ele><time>2026-04-26T14:55:14.206Z</time></trkpt><trkpt lat="43.107722" lon="11.6659921"><ele>354.0</ele><time>2026-04-26T14:55:15.207Z</time></trkpt><trkpt lat="43.1076603" lon="11.6659035"><ele>354.0</ele><time>2026-04-26T14:55:16.206Z</time></trkpt><trkpt lat="43.107596" lon="11.6658116"><ele>354.0</ele><time>2026-04-26T14:55:17.202Z</time></trkpt><trkpt lat="43.1075268" lon="11.6657064"><ele>354.0</ele><time>2026-04-26T14:55:18.182Z</time></trkpt><trkpt lat="43.1074517" lon="11.6655979"><ele>354.0</ele><time>2026-04-26T14:55:19.19Z</time></trkpt><trkpt lat="43.1073768" lon="11.6654892"><ele>354.0</ele><time>2026-04-26T14:55:20.206Z</time></trkpt><trkpt lat="43.1072997" lon="11.6653772"><ele>353.2</ele><time>2026-04-26T14:55:21.205Z</time></trkpt><trkpt lat="43.1072218" lon="11.6652657"><ele>352.4</ele><time>2026-04-26T14:55:22.208Z</time></trkpt><trkpt lat="43.1071433" lon="11.6651522"><ele>351.6</ele><time>2026-04-26T14:55:23.184Z</time></trkpt><trkpt lat="43.1070634" lon="11.6650388"><ele>350.8</ele><time>2026-04-26T14:55:24.2Z</time></trkpt><trkpt lat="43.1069915" lon="11.664935"><ele>350.0</ele><time>2026-04-26T14:55:25.212Z</time></trkpt><trkpt lat="43.1069214" lon="11.6648307"><ele>350.0</ele><time>2026-04-26T14:55:26.189Z</time></trkpt><trkpt lat="43.1068562" lon="11.6647291"><ele>350.0</ele><time>2026-04-26T14:55:27.196Z</time></trkpt><trkpt lat="43.1067884" lon="11.6646253"><ele>350.0</ele><time>2026-04-26T14:55:28.211Z</time></trkpt><trkpt lat="43.1067191" lon="11.664517"><ele>350.0</ele><time>2026-04-26T14:55:29.202Z</time></trkpt><trkpt lat="43.1066511" lon="11.6644104"><ele>350.0</ele><time>2026-04-26T14:55:30.208Z</time></trkpt><trkpt lat="43.1065823" lon="11.6642993"><ele>349.0</ele><time>2026-04-26T14:55:31.204Z</time></trkpt><trkpt lat="43.1065115" lon="11.6641813"><ele>348.0</ele><time>2026-04-26T14:55:32.196Z</time></trkpt><trkpt lat="43.1064427" lon="11.6640625"><ele>347.0</ele><time>2026-04-26T14:55:33.203Z</time></trkpt><trkpt lat="43.1063759" lon="11.6639524"><ele>346.0</ele><time>2026-04-26T14:55:34.191Z</time></trkpt><trkpt lat="43.1063121" lon="11.6638442"><ele>345.0</ele><time>2026-04-26T14:55:35.205Z</time></trkpt><trkpt lat="43.1062433" lon="11.6637447"><ele>345.0</ele><time>2026-04-26T14:55:36.209Z</time></trkpt><trkpt lat="43.1061664" lon="11.6636507"><ele>345.0</ele><time>2026-04-26T14:55:37.199Z</time></trkpt><trkpt lat="43.1060868" lon="11.6635745"><ele>345.0</ele><time>2026-04-26T14:55:38.204Z</time></trkpt><trkpt lat="43.1060125" lon="11.6635039"><ele>345.0</ele><time>2026-04-26T14:55:39.202Z</time></trkpt><trkpt lat="43.1059446" lon="11.6634434"><ele>345.0</ele><time>2026-04-26T14:55:40.189Z</time></trkpt><trkpt lat="43.1058947" lon="11.6633602"><ele>345.2</ele><time>2026-04-26T14:55:41.193Z</time></trkpt><trkpt lat="43.1058684" lon="11.6632569"><ele>345.4</ele><time>2026-04-26T14:55:42.208Z</time></trkpt><trkpt lat="43.1058649" lon="11.6631375"><ele>345.6</ele><time>2026-04-26T14:55:43.208Z</time></trkpt><trkpt lat="43.1058804" lon="11.6630093"><ele>345.8</ele><time>2026-04-26T14:55:44.209Z</time></trkpt><trkpt lat="43.1058966" lon="11.6628829"><ele>346.0</ele><time>2026-04-26T14:55:45.199Z</time></trkpt><trkpt lat="43.1058996" lon="11.6627505"><ele>346.0</ele><time>2026-04-26T14:55:46.201Z</time></trkpt><trkpt lat="43.1059008" lon="11.6626145"><ele>346.0</ele><time>2026-04-26T14:55:47.207Z</time></trkpt><trkpt lat="43.1058788" lon="11.6624765"><ele>346.0</ele><time>2026-04-26T14:55:48.201Z</time></trkpt><trkpt lat="43.1058521" lon="11.662343"><ele>346.0</ele><time>2026-04-26T14:55:49.213Z</time></trkpt><trkpt lat="43.1058258" lon="11.6622138"><ele>346.0</ele><time>2026-04-26T14:55:50.197Z</time></trkpt><trkpt lat="43.105796" lon="11.6620793"><ele>345.25</ele><time>2026-04-26T14:55:51.201Z</time></trkpt><trkpt lat="43.1057605" lon="11.6619425"><ele>344.5</ele><time>2026-04-26T14:55:52.2Z</time></trkpt><trkpt lat="43.1057236" lon="11.6617838"><ele>343.75</ele><time>2026-04-26T14:55:53.192Z</time></trkpt><trkpt lat="43.105689" lon="11.6616335"><ele>343.0</ele><time>2026-04-26T14:55:54.196Z</time></trkpt><trkpt lat="43.1056571" lon="11.6614935"><ele>342.2</ele><time>2026-04-26T14:55:55.208Z</time></trkpt><trkpt lat="43.105627" lon="11.6613557"><ele>341.4</ele><time>2026-04-26T14:55:56.192Z</time></trkpt><trkpt lat="43.1055972" lon="11.661219"><ele>340.59999999999997</ele><time>2026-04-26T14:55:57.189Z</time></trkpt><trkpt lat="43.1055667" lon="11.661083"><ele>339.79999999999995</ele><time>2026-04-26T14:55:58.195Z</time></trkpt><trkpt lat="43.1055381" lon="11.6609466"><ele>339.0</ele><time>2026-04-26T14:55:59.204Z</time></trkpt><trkpt lat="43.105511" lon="11.6608135"><ele>338.8333333333333</ele><time>2026-04-26T14:56:00.206Z</time></trkpt><trkpt lat="43.1054896" lon="11.660688"><ele>338.6666666666667</ele><time>2026-04-26T14:56:01.193Z</time></trkpt><trkpt lat="43.1054737" lon="11.6605619"><ele>338.5</ele><time>2026-04-26T14:56:02.213Z</time></trkpt><trkpt lat="43.1054794" lon="11.6604501"><ele>338.33333333333337</ele><time>2026-04-26T14:56:03.19Z</time></trkpt><trkpt lat="43.1054893" lon="11.660355"><ele>338.1666666666667</ele><time>2026-04-26T14:56:04.202Z</time></trkpt><trkpt lat="43.1055189" lon="11.660227"><ele>338.0</ele><time>2026-04-26T14:56:06.204Z</time></trkpt><trkpt lat="43.1055316" lon="11.6601342"><ele>337.83333333333337</ele><time>2026-04-26T14:56:08.196Z</time></trkpt><trkpt lat="43.1055395" lon="11.660046"><ele>337.6666666666667</ele><time>2026-04-26T14:56:33.196Z</time></trkpt><trkpt lat="43.1055795" lon="11.6599444"><ele>337.5</ele><time>2026-04-26T14:56:36.206Z</time></trkpt><trkpt lat="43.105643" lon="11.6599189"><ele>337.3333333333333</ele><time>2026-04-26T14:56:37.198Z</time></trkpt><trkpt lat="43.105714" lon="11.6598972"><ele>337.16666666666663</ele><time>2026-04-26T14:56:38.191Z</time></trkpt><trkpt lat="43.1057971" lon="11.6598743"><ele>337.0</ele><time>2026-04-26T14:56:39.208Z</time></trkpt><trkpt lat="43.1058919" lon="11.6598499"><ele>337.40000000000003</ele><time>2026-04-26T14:56:40.205Z</time></trkpt><trkpt lat="43.1059865" lon="11.6598262"><ele>337.8</ele><time>2026-04-26T14:56:41.188Z</time></trkpt><trkpt lat="43.1060841" lon="11.6598185"><ele>338.2</ele><time>2026-04-26T14:56:42.198Z</time></trkpt><trkpt lat="43.1061891" lon="11.6598267"><ele>338.6</ele><time>2026-04-26T14:56:43.204Z</time></trkpt><trkpt lat="43.106304" lon="11.6598493"><ele>339.0</ele><time>2026-04-26T14:56:44.211Z</time></trkpt><trkpt lat="43.1064254" lon="11.6598789"><ele>339.0</ele><time>2026-04-26T14:56:45.209Z</time></trkpt><trkpt lat="43.1065524" lon="11.6599119"><ele>339.0</ele><time>2026-04-26T14:56:46.205Z</time></trkpt><trkpt lat="43.1066846" lon="11.6599419"><ele>339.0</ele><time>2026-04-26T14:56:47.201Z</time></trkpt><trkpt lat="43.1068212" lon="11.6599636"><ele>339.0</ele><time>2026-04-26T14:56:48.192Z</time></trkpt><trkpt lat="43.1069681" lon="11.6599799"><ele>341.0</ele><time>2026-04-26T14:56:49.199Z</time></trkpt><trkpt lat="43.1071251" lon="11.6599914"><ele>343.0</ele><time>2026-04-26T14:56:50.207Z</time></trkpt><trkpt lat="43.1072854" lon="11.6600021"><ele>345.0</ele><time>2026-04-26T14:56:51.202Z</time></trkpt><trkpt lat="43.1074619" lon="11.6600052"><ele>347.6666666666667</ele><time>2026-04-26T14:56:52.204Z</time></trkpt><trkpt lat="43.1076327" lon="11.6599806"><ele>350.33333333333337</ele><time>2026-04-26T14:56:53.21Z</time></trkpt><trkpt lat="43.1078027" lon="11.6599556"><ele>353.0</ele><time>2026-04-26T14:56:54.203Z</time></trkpt><trkpt lat="43.1079649" lon="11.6599276"><ele>353.0</ele><time>2026-04-26T14:56:55.2Z</time></trkpt><trkpt lat="43.1081171" lon="11.6599216"><ele>353.0</ele><time>2026-04-26T14:56:56.205Z</time></trkpt><trkpt lat="43.1082627" lon="11.6599369"><ele>353.0</ele><time>2026-04-26T14:56:57.19Z</time></trkpt><trkpt lat="43.1084042" lon="11.6599709"><ele>353.0</ele><time>2026-04-26T14:56:58.206Z</time></trkpt><trkpt lat="43.1085436" lon="11.6600225"><ele>354.75</ele><time>2026-04-26T14:56:59.209Z</time></trkpt><trkpt lat="43.108683" lon="11.6600785"><ele>356.5</ele><time>2026-04-26T14:57:00.213Z</time></trkpt><trkpt lat="43.1088277" lon="11.6601101"><ele>358.25</ele><time>2026-04-26T14:57:01.205Z</time></trkpt><trkpt lat="43.1089756" lon="11.6600946"><ele>360.0</ele><time>2026-04-26T14:57:02.211Z</time></trkpt><trkpt lat="43.1091201" lon="11.6600757"><ele>360.6666666666667</ele><time>2026-04-26T14:57:03.19Z</time></trkpt><trkpt lat="43.1092653" lon="11.6599805"><ele>361.33333333333337</ele><time>2026-04-26T14:57:04.199Z</time></trkpt><trkpt lat="43.1094185" lon="11.6598773"><ele>362.0</ele><time>2026-04-26T14:57:05.202Z</time></trkpt><trkpt lat="43.109582" lon="11.6597737"><ele>362.0</ele><time>2026-04-26T14:57:06.2Z</time></trkpt><trkpt lat="43.1097471" lon="11.6596664"><ele>362.0</ele><time>2026-04-26T14:57:07.204Z</time></trkpt><trkpt lat="43.1099115" lon="11.6595644"><ele>362.0</ele><time>2026-04-26T14:57:08.189Z</time></trkpt><trkpt lat="43.1100693" lon="11.6594612"><ele>365.6666666666667</ele><time>2026-04-26T14:57:09.193Z</time></trkpt><trkpt lat="43.1102152" lon="11.6593627"><ele>369.3333333333333</ele><time>2026-04-26T14:57:10.198Z</time></trkpt><trkpt lat="43.1103545" lon="11.6592803"><ele>373.0</ele><time>2026-04-26T14:57:11.2Z</time></trkpt><trkpt lat="43.1104939" lon="11.6592248"><ele>373.0</ele><time>2026-04-26T14:57:12.201Z</time></trkpt><trkpt lat="43.1106353" lon="11.6591845"><ele>373.0</ele><time>2026-04-26T14:57:13.2Z</time></trkpt><trkpt lat="43.1107764" lon="11.659225"><ele>373.0</ele><time>2026-04-26T14:57:14.204Z</time></trkpt><trkpt lat="43.1109184" lon="11.6593031"><ele>373.0</ele><time>2026-04-26T14:57:15.199Z</time></trkpt><trkpt lat="43.1110589" lon="11.6594052"><ele>373.0</ele><time>2026-04-26T14:57:16.211Z</time></trkpt><trkpt lat="43.1112059" lon="11.6595"><ele>373.0</ele><time>2026-04-26T14:57:17.192Z</time></trkpt><trkpt lat="43.1113689" lon="11.6595586"><ele>373.0</ele><time>2026-04-26T14:57:18.205Z</time></trkpt><trkpt lat="43.1115432" lon="11.659596"><ele>373.0</ele><time>2026-04-26T14:57:19.206Z</time></trkpt><trkpt lat="43.1117209" lon="11.6596257"><ele>373.0</ele><time>2026-04-26T14:57:20.203Z</time></trkpt><trkpt lat="43.111894" lon="11.6596641"><ele>373.0</ele><time>2026-04-26T14:57:21.207Z</time></trkpt><trkpt lat="43.1120605" lon="11.6596952"><ele>373.0</ele><time>2026-04-26T14:57:22.194Z</time></trkpt><trkpt lat="43.1122197" lon="11.6597228"><ele>373.0</ele><time>2026-04-26T14:57:23.203Z</time></trkpt><trkpt lat="43.1123656" lon="11.6597581"><ele>373.0</ele><time>2026-04-26T14:57:24.198Z</time></trkpt><trkpt lat="43.1125091" lon="11.6597957"><ele>373.25</ele><time>2026-04-26T14:57:25.21Z</time></trkpt><trkpt lat="43.1126497" lon="11.6598358"><ele>373.5</ele><time>2026-04-26T14:57:26.202Z</time></trkpt><trkpt lat="43.1127854" lon="11.6598811"><ele>373.75</ele><time>2026-04-26T14:57:27.199Z</time></trkpt><trkpt lat="43.1129158" lon="11.6599261"><ele>374.0</ele><time>2026-04-26T14:57:28.188Z</time></trkpt><trkpt lat="43.1130457" lon="11.6599678"><ele>374.0</ele><time>2026-04-26T14:57:29.208Z</time></trkpt><trkpt lat="43.1131719" lon="11.6600035"><ele>374.0</ele><time>2026-04-26T14:57:30.202Z</time></trkpt><trkpt lat="43.1133134" lon="11.6600112"><ele>374.0</ele><time>2026-04-26T14:57:31.196Z</time></trkpt><trkpt lat="43.1134625" lon="11.660019"><ele>374.0</ele><time>2026-04-26T14:57:32.213Z</time></trkpt><trkpt lat="43.113611" lon="11.6600109"><ele>376.33333333333337</ele><time>2026-04-26T14:57:33.2Z</time></trkpt><trkpt lat="43.113764" lon="11.660004"><ele>378.6666666666667</ele><time>2026-04-26T14:57:34.213Z</time></trkpt><trkpt lat="43.1139188" lon="11.6599943"><ele>381.0</ele><time>2026-04-26T14:57:35.203Z</time></trkpt><trkpt lat="43.1140739" lon="11.659983"><ele>383.33333333333337</ele><time>2026-04-26T14:57:36.206Z</time></trkpt><trkpt lat="43.1142298" lon="11.6599684"><ele>385.6666666666667</ele><time>2026-04-26T14:57:37.199Z</time></trkpt><trkpt lat="43.1143867" lon="11.6599546"><ele>388.0</ele><time>2026-04-26T14:57:38.204Z</time></trkpt><trkpt lat="43.1145376" lon="11.6599425"><ele>388.0</ele><time>2026-04-26T14:57:39.204Z</time></trkpt><trkpt lat="43.1146748" lon="11.6599306"><ele>388.0</ele><time>2026-04-26T14:57:40.209Z</time></trkpt><trkpt lat="43.1148047" lon="11.6599197"><ele>388.0</ele><time>2026-04-26T14:57:41.208Z</time></trkpt><trkpt lat="43.1149321" lon="11.6599088"><ele>388.0</ele><time>2026-04-26T14:57:42.21Z</time></trkpt><trkpt lat="43.1150594" lon="11.6598977"><ele>389.5</ele><time>2026-04-26T14:57:43.198Z</time></trkpt><trkpt lat="43.1151889" lon="11.6598815"><ele>391.0</ele><time>2026-04-26T14:57:44.211Z</time></trkpt><trkpt lat="43.1153222" lon="11.6598538"><ele>392.5</ele><time>2026-04-26T14:57:45.188Z</time></trkpt><trkpt lat="43.1154594" lon="11.6598069"><ele>394.0</ele><time>2026-04-26T14:57:46.205Z</time></trkpt><trkpt lat="43.1155986" lon="11.6597406"><ele>393.33333333333337</ele><time>2026-04-26T14:57:47.197Z</time></trkpt><trkpt lat="43.1157438" lon="11.6596667"><ele>392.66666666666663</ele><time>2026-04-26T14:57:48.204Z</time></trkpt><trkpt lat="43.1158945" lon="11.6595907"><ele>392.0</ele><time>2026-04-26T14:57:49.207Z</time></trkpt><trkpt lat="43.1160485" lon="11.6595138"><ele>395.0</ele><time>2026-04-26T14:57:50.196Z</time></trkpt><trkpt lat="43.1162053" lon="11.6594357"><ele>398.0</ele><time>2026-04-26T14:57:51.199Z</time></trkpt><trkpt lat="43.1163603" lon="11.6593589"><ele>401.0</ele><time>2026-04-26T14:57:52.189Z</time></trkpt><trkpt lat="43.1165121" lon="11.659283"><ele>400.66666666666663</ele><time>2026-04-26T14:57:53.204Z</time></trkpt><trkpt lat="43.1166606" lon="11.6592074"><ele>400.33333333333337</ele><time>2026-04-26T14:57:54.2Z</time></trkpt><trkpt lat="43.1168057" lon="11.6591331"><ele>400.0</ele><time>2026-04-26T14:57:55.195Z</time></trkpt><trkpt lat="43.1169495" lon="11.6590607"><ele>400.0</ele><time>2026-04-26T14:57:56.206Z</time></trkpt><trkpt lat="43.1170928" lon="11.6589923"><ele>400.0</ele><time>2026-04-26T14:57:57.2Z</time></trkpt><trkpt lat="43.1172351" lon="11.6589239"><ele>400.0</ele><time>2026-04-26T14:57:58.206Z</time></trkpt><trkpt lat="43.1173776" lon="11.6588543"><ele>400.33333333333337</ele><time>2026-04-26T14:57:59.206Z</time></trkpt><trkpt lat="43.1175203" lon="11.6587824"><ele>400.66666666666663</ele><time>2026-04-26T14:58:00.202Z</time></trkpt><trkpt lat="43.1176623" lon="11.6587084"><ele>401.0</ele><time>2026-04-26T14:58:01.201Z</time></trkpt><trkpt lat="43.1178025" lon="11.658636"><ele>401.75</ele><time>2026-04-26T14:58:02.204Z</time></trkpt><trkpt lat="43.1179439" lon="11.6585565"><ele>402.5</ele><time>2026-04-26T14:58:03.201Z</time></trkpt><trkpt lat="43.1180766" lon="11.6584825"><ele>403.25</ele><time>2026-04-26T14:58:04.209Z</time></trkpt><trkpt lat="43.1182075" lon="11.6584126"><ele>404.0</ele><time>2026-04-26T14:58:05.195Z</time></trkpt><trkpt lat="43.1183412" lon="11.6583411"><ele>405.5</ele><time>2026-04-26T14:58:06.207Z</time></trkpt><trkpt lat="43.1184767" lon="11.6582641"><ele>407.0</ele><time>2026-04-26T14:58:07.205Z</time></trkpt><trkpt lat="43.1186161" lon="11.6581908"><ele>408.5</ele><time>2026-04-26T14:58:08.192Z</time></trkpt><trkpt lat="43.1187572" lon="11.658123"><ele>410.0</ele><time>2026-04-26T14:58:09.193Z</time></trkpt><trkpt lat="43.1189011" lon="11.6580553"><ele>410.0</ele><time>2026-04-26T14:58:10.198Z</time></trkpt><trkpt lat="43.1190432" lon="11.6579949"><ele>410.0</ele><time>2026-04-26T14:58:11.211Z</time></trkpt><trkpt lat="43.1191838" lon="11.6579282"><ele>410.0</ele><time>2026-04-26T14:58:12.207Z</time></trkpt><trkpt lat="43.1193212" lon="11.6578582"><ele>410.0</ele><time>2026-04-26T14:58:13.21Z</time></trkpt><trkpt lat="43.1194553" lon="11.6577896"><ele>410.66666666666663</ele><time>2026-04-26T14:58:14.198Z</time></trkpt><trkpt lat="43.1195923" lon="11.6577181"><ele>411.33333333333337</ele><time>2026-04-26T14:58:15.211Z</time></trkpt><trkpt lat="43.1197351" lon="11.6576469"><ele>412.0</ele><time>2026-04-26T14:58:16.191Z</time></trkpt><trkpt lat="43.1198821" lon="11.657573"><ele>411.33333333333337</ele><time>2026-04-26T14:58:17.201Z</time></trkpt><trkpt lat="43.1200305" lon="11.6575047"><ele>410.66666666666663</ele><time>2026-04-26T14:58:18.212Z</time></trkpt><trkpt lat="43.120187" lon="11.6574331"><ele>410.0</ele><time>2026-04-26T14:58:19.206Z</time></trkpt><trkpt lat="43.1203426" lon="11.6573591"><ele>410.0</ele><time>2026-04-26T14:58:20.211Z</time></trkpt><trkpt lat="43.1204973" lon="11.6572819"><ele>410.0</ele><time>2026-04-26T14:58:21.201Z</time></trkpt><trkpt lat="43.1206455" lon="11.6572028"><ele>410.0</ele><time>2026-04-26T14:58:22.192Z</time></trkpt><trkpt lat="43.1207815" lon="11.6571322"><ele>410.25</ele><time>2026-04-26T14:58:23.197Z</time></trkpt><trkpt lat="43.1209162" lon="11.6570653"><ele>410.5</ele><time>2026-04-26T14:58:24.195Z</time></trkpt><trkpt lat="43.1210513" lon="11.6569981"><ele>410.75</ele><time>2026-04-26T14:58:25.208Z</time></trkpt><trkpt lat="43.1211791" lon="11.6569308"><ele>411.0</ele><time>2026-04-26T14:58:26.191Z</time></trkpt><trkpt lat="43.1213093" lon="11.6568695"><ele>411.0</ele><time>2026-04-26T14:58:27.19Z</time></trkpt><trkpt lat="43.1214464" lon="11.6568145"><ele>411.0</ele><time>2026-04-26T14:58:28.199Z</time></trkpt><trkpt lat="43.1215861" lon="11.6567677"><ele>411.0</ele><time>2026-04-26T14:58:29.204Z</time></trkpt><trkpt lat="43.1217266" lon="11.6567302"><ele>411.0</ele><time>2026-04-26T14:58:30.202Z</time></trkpt><trkpt lat="43.1218722" lon="11.6567176"><ele>411.66666666666663</ele><time>2026-04-26T14:58:31.208Z</time></trkpt><trkpt lat="43.122023" lon="11.6567103"><ele>412.3333333333333</ele><time>2026-04-26T14:58:32.197Z</time></trkpt><trkpt lat="43.1221789" lon="11.6567309"><ele>413.0</ele><time>2026-04-26T14:58:33.207Z</time></trkpt><trkpt lat="43.1223346" lon="11.6567622"><ele>412.0</ele><time>2026-04-26T14:58:34.195Z</time></trkpt><trkpt lat="43.1224877" lon="11.6568077"><ele>411.0</ele><time>2026-04-26T14:58:35.197Z</time></trkpt><trkpt lat="43.1226357" lon="11.6568754"><ele>410.0</ele><time>2026-04-26T14:58:36.194Z</time></trkpt><trkpt lat="43.122778" lon="11.6569447"><ele>408.5</ele><time>2026-04-26T14:58:37.189Z</time></trkpt><trkpt lat="43.1229202" lon="11.6570117"><ele>407.0</ele><time>2026-04-26T14:58:38.202Z</time></trkpt><trkpt lat="43.1230609" lon="11.6570765"><ele>405.5</ele><time>2026-04-26T14:58:39.205Z</time></trkpt><trkpt lat="43.123203" lon="11.6571364"><ele>404.0</ele><time>2026-04-26T14:58:40.193Z</time></trkpt><trkpt lat="43.123346" lon="11.6571852"><ele>404.0</ele><time>2026-04-26T14:58:41.201Z</time></trkpt><trkpt lat="43.1234899" lon="11.6572194"><ele>404.0</ele><time>2026-04-26T14:58:42.192Z</time></trkpt><trkpt lat="43.1236343" lon="11.6572425"><ele>404.0</ele><time>2026-04-26T14:58:43.194Z</time></trkpt><trkpt lat="43.1237762" lon="11.65726"><ele>404.0</ele><time>2026-04-26T14:58:44.203Z</time></trkpt><trkpt lat="43.1239182" lon="11.6572709"><ele>404.0</ele><time>2026-04-26T14:58:45.206Z</time></trkpt><trkpt lat="43.1240591" lon="11.6572697"><ele>404.0</ele><time>2026-04-26T14:58:46.203Z</time></trkpt><trkpt lat="43.1241986" lon="11.6572591"><ele>404.0</ele><time>2026-04-26T14:58:47.193Z</time></trkpt><trkpt lat="43.1243354" lon="11.6572411"><ele>404.0</ele><time>2026-04-26T14:58:48.193Z</time></trkpt><trkpt lat="43.1244646" lon="11.65722"><ele>403.5</ele><time>2026-04-26T14:58:49.195Z</time></trkpt><trkpt lat="43.124588" lon="11.6571959"><ele>403.0</ele><time>2026-04-26T14:58:50.197Z</time></trkpt><trkpt lat="43.1247095" lon="11.6571638"><ele>402.5</ele><time>2026-04-26T14:58:51.2Z</time></trkpt><trkpt lat="43.1248304" lon="11.6571199"><ele>402.0</ele><time>2026-04-26T14:58:52.184Z</time></trkpt><trkpt lat="43.1249512" lon="11.6570616"><ele>401.0</ele><time>2026-04-26T14:58:53.198Z</time></trkpt><trkpt lat="43.1250679" lon="11.6569879"><ele>400.0</ele><time>2026-04-26T14:58:54.204Z</time></trkpt><trkpt lat="43.1251784" lon="11.6568989"><ele>399.0</ele><time>2026-04-26T14:58:55.21Z</time></trkpt><trkpt lat="43.1252848" lon="11.6567995"><ele>398.0</ele><time>2026-04-26T14:58:56.199Z</time></trkpt><trkpt lat="43.1253887" lon="11.6566974"><ele>398.25</ele><time>2026-04-26T14:58:57.202Z</time></trkpt><trkpt lat="43.1254901" lon="11.6565949"><ele>398.5</ele><time>2026-04-26T14:58:58.187Z</time></trkpt><trkpt lat="43.1255891" lon="11.6564837"><ele>398.75</ele><time>2026-04-26T14:58:59.199Z</time></trkpt><trkpt lat="43.1256847" lon="11.6563619"><ele>399.0</ele><time>2026-04-26T14:59:00.188Z</time></trkpt><trkpt lat="43.1257754" lon="11.6562277"><ele>400.0</ele><time>2026-04-26T14:59:01.184Z</time></trkpt><trkpt lat="43.1258622" lon="11.6560798"><ele>401.0</ele><time>2026-04-26T14:59:02.201Z</time></trkpt><trkpt lat="43.1259499" lon="11.6559247"><ele>402.0</ele><time>2026-04-26T14:59:03.198Z</time></trkpt><trkpt lat="43.1260389" lon="11.6557782"><ele>403.0</ele><time>2026-04-26T14:59:04.184Z</time></trkpt><trkpt lat="43.1261286" lon="11.6556333"><ele>403.0</ele><time>2026-04-26T14:59:05.203Z</time></trkpt><trkpt lat="43.1262057" lon="11.6555057"><ele>403.0</ele><time>2026-04-26T14:59:06.197Z</time></trkpt><trkpt lat="43.1262839" lon="11.655374"><ele>403.0</ele><time>2026-04-26T14:59:07.2Z</time></trkpt><trkpt lat="43.1263702" lon="11.6552541"><ele>403.0</ele><time>2026-04-26T14:59:08.205Z</time></trkpt><trkpt lat="43.1264591" lon="11.6551425"><ele>401.5</ele><time>2026-04-26T14:59:09.2Z</time></trkpt><trkpt lat="43.1265627" lon="11.6550573"><ele>400.0</ele><time>2026-04-26T14:59:10.202Z</time></trkpt><trkpt lat="43.1266755" lon="11.6549781"><ele>398.5</ele><time>2026-04-26T14:59:11.189Z</time></trkpt><trkpt lat="43.1267871" lon="11.6549077"><ele>397.0</ele><time>2026-04-26T14:59:12.199Z</time></trkpt><trkpt lat="43.1268891" lon="11.6548384"><ele>397.0</ele><time>2026-04-26T14:59:13.196Z</time></trkpt><trkpt lat="43.1269928" lon="11.6547624"><ele>397.0</ele><time>2026-04-26T14:59:14.2Z</time></trkpt><trkpt lat="43.1271016" lon="11.6546861"><ele>397.0</ele><time>2026-04-26T14:59:15.204Z</time></trkpt><trkpt lat="43.1272101" lon="11.6546169"><ele>397.0</ele><time>2026-04-26T14:59:16.198Z</time></trkpt><trkpt lat="43.1273155" lon="11.6545487"><ele>395.5</ele><time>2026-04-26T14:59:17.199Z</time></trkpt><trkpt lat="43.1274221" lon="11.6544797"><ele>394.0</ele><time>2026-04-26T14:59:18.188Z</time></trkpt><trkpt lat="43.1275289" lon="11.6544132"><ele>392.5</ele><time>2026-04-26T14:59:19.186Z</time></trkpt><trkpt lat="43.1276351" lon="11.654351"><ele>391.0</ele><time>2026-04-26T14:59:20.204Z</time></trkpt><trkpt lat="43.1277435" lon="11.6542864"><ele>391.0</ele><time>2026-04-26T14:59:21.201Z</time></trkpt><trkpt lat="43.1278633" lon="11.654236"><ele>391.0</ele><time>2026-04-26T14:59:22.2Z</time></trkpt><trkpt lat="43.1279886" lon="11.6541849"><ele>391.0</ele><time>2026-04-26T14:59:23.206Z</time></trkpt><trkpt lat="43.1281205" lon="11.6541347"><ele>391.0</ele><time>2026-04-26T14:59:24.2Z</time></trkpt><trkpt lat="43.1282508" lon="11.6540855"><ele>388.75</ele><time>2026-04-26T14:59:25.194Z</time></trkpt><trkpt lat="43.128384" lon="11.6540383"><ele>386.5</ele><time>2026-04-26T14:59:26.185Z</time></trkpt><trkpt lat="43.1285141" lon="11.6539871"><ele>384.25</ele><time>2026-04-26T14:59:27.191Z</time></trkpt><trkpt lat="43.1286417" lon="11.6539393"><ele>382.0</ele><time>2026-04-26T14:59:28.195Z</time></trkpt><trkpt lat="43.1287656" lon="11.6538914"><ele>382.0</ele><time>2026-04-26T14:59:29.186Z</time></trkpt><trkpt lat="43.1288848" lon="11.6538411"><ele>382.0</ele><time>2026-04-26T14:59:30.205Z</time></trkpt><trkpt lat="43.129001" lon="11.6537897"><ele>382.0</ele><time>2026-04-26T14:59:31.204Z</time></trkpt><trkpt lat="43.1291105" lon="11.6537271"><ele>382.0</ele><time>2026-04-26T14:59:32.201Z</time></trkpt><trkpt lat="43.1292154" lon="11.6536308"><ele>381.25</ele><time>2026-04-26T14:59:33.195Z</time></trkpt><trkpt lat="43.1293195" lon="11.6535132"><ele>380.5</ele><time>2026-04-26T14:59:34.19Z</time></trkpt><trkpt lat="43.1294213" lon="11.6533868"><ele>379.75</ele><time>2026-04-26T14:59:35.2Z</time></trkpt><trkpt lat="43.1295257" lon="11.6532627"><ele>379.0</ele><time>2026-04-26T14:59:36.192Z</time></trkpt><trkpt lat="43.1296347" lon="11.6531608"><ele>379.0</ele><time>2026-04-26T14:59:37.191Z</time></trkpt><trkpt lat="43.1297527" lon="11.6530837"><ele>379.0</ele><time>2026-04-26T14:59:38.203Z</time></trkpt><trkpt lat="43.1298777" lon="11.6530418"><ele>379.0</ele><time>2026-04-26T14:59:39.206Z</time></trkpt><trkpt lat="43.1300058" lon="11.653033"><ele>379.0</ele><time>2026-04-26T14:59:40.203Z</time></trkpt><trkpt lat="43.1301346" lon="11.6530595"><ele>375.0</ele><time>2026-04-26T14:59:41.206Z</time></trkpt><trkpt lat="43.1302583" lon="11.6531195"><ele>371.0</ele><time>2026-04-26T14:59:42.202Z</time></trkpt><trkpt lat="43.1303727" lon="11.6532101"><ele>367.0</ele><time>2026-04-26T14:59:43.202Z</time></trkpt><trkpt lat="43.1304759" lon="11.6533289"><ele>363.0</ele><time>2026-04-26T14:59:44.201Z</time></trkpt><trkpt lat="43.1305636" lon="11.6534746"><ele>363.0</ele><time>2026-04-26T14:59:45.205Z</time></trkpt><trkpt lat="43.1306302" lon="11.653644"><ele>363.0</ele><time>2026-04-26T14:59:46.202Z</time></trkpt><trkpt lat="43.1306761" lon="11.6538259"><ele>363.0</ele><time>2026-04-26T14:59:47.19Z</time></trkpt><trkpt lat="43.1307075" lon="11.6540134"><ele>363.0</ele><time>2026-04-26T14:59:48.2Z</time></trkpt><trkpt lat="43.1307308" lon="11.6541998"><ele>360.0</ele><time>2026-04-26T14:59:49.203Z</time></trkpt><trkpt lat="43.1307499" lon="11.6543841"><ele>357.0</ele><time>2026-04-26T14:59:50.184Z</time></trkpt><trkpt lat="43.1307685" lon="11.6545635"><ele>354.0</ele><time>2026-04-26T14:59:51.209Z</time></trkpt><trkpt lat="43.1307874" lon="11.6547391"><ele>351.0</ele><time>2026-04-26T14:59:52.195Z</time></trkpt><trkpt lat="43.130806" lon="11.6549125"><ele>350.75</ele><time>2026-04-26T14:59:53.189Z</time></trkpt><trkpt lat="43.1308236" lon="11.6550842"><ele>350.5</ele><time>2026-04-26T14:59:54.205Z</time></trkpt><trkpt lat="43.1308419" lon="11.6552523"><ele>350.25</ele><time>2026-04-26T14:59:55.201Z</time></trkpt><trkpt lat="43.1308725" lon="11.6554176"><ele>350.0</ele><time>2026-04-26T14:59:56.195Z</time></trkpt><trkpt lat="43.1309309" lon="11.6555737"><ele>350.0</ele><time>2026-04-26T14:59:57.19Z</time></trkpt><trkpt lat="43.1310239" lon="11.655702"><ele>350.0</ele><time>2026-04-26T14:59:58.199Z</time></trkpt><trkpt lat="43.131141" lon="11.655789"><ele>350.0</ele><time>2026-04-26T14:59:59.2Z</time></trkpt><trkpt lat="43.1312717" lon="11.655829"><ele>350.0</ele><time>2026-04-26T15:00:00.205Z</time></trkpt><trkpt lat="43.1314064" lon="11.6558491"><ele>350.0</ele><time>2026-04-26T15:00:01.202Z</time></trkpt><trkpt lat="43.1315485" lon="11.6558289"><ele>350.0</ele><time>2026-04-26T15:00:02.184Z</time></trkpt><trkpt lat="43.131689" lon="11.6558067"><ele>350.0</ele><time>2026-04-26T15:00:03.201Z</time></trkpt><trkpt lat="43.1318435" lon="11.6557887"><ele>350.0</ele><time>2026-04-26T15:00:04.189Z</time></trkpt><trkpt lat="43.1320074" lon="11.6557678"><ele>346.33333333333337</ele><time>2026-04-26T15:00:05.201Z</time></trkpt><trkpt lat="43.1321728" lon="11.6557399"><ele>342.6666666666667</ele><time>2026-04-26T15:00:06.195Z</time></trkpt><trkpt lat="43.1323296" lon="11.6557181"><ele>339.0</ele><time>2026-04-26T15:00:07.196Z</time></trkpt><trkpt lat="43.1324838" lon="11.6556931"><ele>335.0</ele><time>2026-04-26T15:00:08.193Z</time></trkpt><trkpt lat="43.1326352" lon="11.6556602"><ele>331.0</ele><time>2026-04-26T15:00:09.188Z</time></trkpt><trkpt lat="43.1327824" lon="11.6556182"><ele>327.0</ele><time>2026-04-26T15:00:10.188Z</time></trkpt><trkpt lat="43.132928" lon="11.6555733"><ele>327.0</ele><time>2026-04-26T15:00:11.202Z</time></trkpt><trkpt lat="43.1330717" lon="11.6555292"><ele>327.0</ele><time>2026-04-26T15:00:12.194Z</time></trkpt><trkpt lat="43.1332185" lon="11.655499"><ele>327.0</ele><time>2026-04-26T15:00:13.196Z</time></trkpt><trkpt lat="43.133371" lon="11.6554962"><ele>327.0</ele><time>2026-04-26T15:00:14.2Z</time></trkpt><trkpt lat="43.1335241" lon="11.6555226"><ele>323.5</ele><time>2026-04-26T15:00:15.195Z</time></trkpt><trkpt lat="43.133672" lon="11.6555683"><ele>320.0</ele><time>2026-04-26T15:00:16.207Z</time></trkpt><trkpt lat="43.1338116" lon="11.6556202"><ele>316.5</ele><time>2026-04-26T15:00:17.191Z</time></trkpt><trkpt lat="43.1339402" lon="11.6556591"><ele>313.0</ele><time>2026-04-26T15:00:18.182Z</time></trkpt><trkpt lat="43.1340643" lon="11.6556857"><ele>312.0</ele><time>2026-04-26T15:00:19.197Z</time></trkpt><trkpt lat="43.1341799" lon="11.6556387"><ele>311.0</ele><time>2026-04-26T15:00:20.203Z</time></trkpt><trkpt lat="43.1342865" lon="11.6555463"><ele>310.0</ele><time>2026-04-26T15:00:21.204Z</time></trkpt><trkpt lat="43.1343757" lon="11.655409"><ele>309.0</ele><time>2026-04-26T15:00:22.203Z</time></trkpt><trkpt lat="43.1344564" lon="11.655262"><ele>309.0</ele><time>2026-04-26T15:00:23.197Z</time></trkpt><trkpt lat="43.1345291" lon="11.655105"><ele>309.0</ele><time>2026-04-26T15:00:24.189Z</time></trkpt><trkpt lat="43.134625" lon="11.6549686"><ele>309.0</ele><time>2026-04-26T15:00:25.19Z</time></trkpt><trkpt lat="43.1347498" lon="11.6548645"><ele>309.0</ele><time>2026-04-26T15:00:26.202Z</time></trkpt><trkpt lat="43.1348837" lon="11.6547604"><ele>308.3333333333333</ele><time>2026-04-26T15:00:27.187Z</time></trkpt><trkpt lat="43.1350372" lon="11.6546902"><ele>307.66666666666663</ele><time>2026-04-26T15:00:28.198Z</time></trkpt><trkpt lat="43.1351871" lon="11.6546214"><ele>307.0</ele><time>2026-04-26T15:00:29.192Z</time></trkpt><trkpt lat="43.1353333" lon="11.6545517"><ele>307.0</ele><time>2026-04-26T15:00:30.198Z</time></trkpt><trkpt lat="43.1354746" lon="11.6544926"><ele>307.0</ele><time>2026-04-26T15:00:31.19Z</time></trkpt><trkpt lat="43.1356105" lon="11.6544456"><ele>307.0</ele><time>2026-04-26T15:00:32.186Z</time></trkpt><trkpt lat="43.1357415" lon="11.6544173"><ele>307.0</ele><time>2026-04-26T15:00:33.194Z</time></trkpt><trkpt lat="43.135877" lon="11.6544121"><ele>307.75</ele><time>2026-04-26T15:00:34.207Z</time></trkpt><trkpt lat="43.1360091" lon="11.6544412"><ele>308.5</ele><time>2026-04-26T15:00:35.194Z</time></trkpt><trkpt lat="43.1361285" lon="11.6545135"><ele>309.25</ele><time>2026-04-26T15:00:36.203Z</time></trkpt><trkpt lat="43.1362185" lon="11.6546301"><ele>310.0</ele><time>2026-04-26T15:00:37.196Z</time></trkpt><trkpt lat="43.1362815" lon="11.6547823"><ele>311.75</ele><time>2026-04-26T15:00:38.192Z</time></trkpt><trkpt lat="43.1363285" lon="11.6549431"><ele>313.5</ele><time>2026-04-26T15:00:39.201Z</time></trkpt><trkpt lat="43.1363661" lon="11.6551004"><ele>315.25</ele><time>2026-04-26T15:00:40.208Z</time></trkpt><trkpt lat="43.1364042" lon="11.6552408"><ele>317.0</ele><time>2026-04-26T15:00:41.196Z</time></trkpt><trkpt lat="43.1364505" lon="11.6553684"><ele>317.0</ele><time>2026-04-26T15:00:42.209Z</time></trkpt><trkpt lat="43.1365093" lon="11.6554778"><ele>317.0</ele><time>2026-04-26T15:00:43.193Z</time></trkpt><trkpt lat="43.1365852" lon="11.6555643"><ele>317.0</ele><time>2026-04-26T15:00:44.198Z</time></trkpt><trkpt lat="43.1366773" lon="11.6556162"><ele>317.0</ele><time>2026-04-26T15:00:45.207Z</time></trkpt><trkpt lat="43.1367804" lon="11.6556138"><ele>317.0</ele><time>2026-04-26T15:00:46.206Z</time></trkpt><trkpt lat="43.1368857" lon="11.6555589"><ele>317.6</ele><time>2026-04-26T15:00:47.187Z</time></trkpt><trkpt lat="43.1369843" lon="11.6554785"><ele>318.2</ele><time>2026-04-26T15:00:48.201Z</time></trkpt><trkpt lat="43.1370785" lon="11.6553992"><ele>318.8</ele><time>2026-04-26T15:00:49.192Z</time></trkpt><trkpt lat="43.1371639" lon="11.6553263"><ele>319.4</ele><time>2026-04-26T15:00:50.203Z</time></trkpt><trkpt lat="43.1372425" lon="11.6552518"><ele>320.0</ele><time>2026-04-26T15:00:51.199Z</time></trkpt><trkpt lat="43.1373193" lon="11.6551744"><ele>322.8</ele><time>2026-04-26T15:00:52.199Z</time></trkpt><trkpt lat="43.1373942" lon="11.6550921"><ele>325.6</ele><time>2026-04-26T15:00:53.192Z</time></trkpt><trkpt lat="43.13747" lon="11.6550147"><ele>328.4</ele><time>2026-04-26T15:00:54.208Z</time></trkpt><trkpt lat="43.1375506" lon="11.6549536"><ele>331.2</ele><time>2026-04-26T15:00:55.193Z</time></trkpt><trkpt lat="43.1376427" lon="11.6549264"><ele>334.0</ele><time>2026-04-26T15:00:56.202Z</time></trkpt><trkpt lat="43.1377356" lon="11.6549399"><ele>334.0</ele><time>2026-04-26T15:00:57.205Z</time></trkpt><trkpt lat="43.1378093" lon="11.6550017"><ele>334.0</ele><time>2026-04-26T15:00:58.2Z</time></trkpt><trkpt lat="43.1378556" lon="11.6551053"><ele>334.0</ele><time>2026-04-26T15:00:59.198Z</time></trkpt><trkpt lat="43.1378733" lon="11.655234"><ele>334.0</ele><time>2026-04-26T15:01:00.19Z</time></trkpt><trkpt lat="43.1378572" lon="11.6553749"><ele>334.0</ele><time>2026-04-26T15:01:01.197Z</time></trkpt><trkpt lat="43.1378198" lon="11.655528"><ele>335.4</ele><time>2026-04-26T15:01:02.199Z</time></trkpt><trkpt lat="43.1377635" lon="11.6556679"><ele>336.79999999999995</ele><time>2026-04-26T15:01:03.204Z</time></trkpt><trkpt lat="43.1377205" lon="11.6558044"><ele>338.20000000000005</ele><time>2026-04-26T15:01:04.196Z</time></trkpt><trkpt lat="43.1376844" lon="11.6559255"><ele>339.6</ele><time>2026-04-26T15:01:05.196Z</time></trkpt><trkpt lat="43.137656" lon="11.6560407"><ele>341.0</ele><time>2026-04-26T15:01:06.206Z</time></trkpt><trkpt lat="43.1376343" lon="11.6561581"><ele>342.0</ele><time>2026-04-26T15:01:07.208Z</time></trkpt><trkpt lat="43.1376237" lon="11.6562836"><ele>343.0</ele><time>2026-04-26T15:01:08.196Z</time></trkpt><trkpt lat="43.1376306" lon="11.6564151"><ele>344.0</ele><time>2026-04-26T15:01:09.197Z</time></trkpt><trkpt lat="43.1376627" lon="11.6565464"><ele>345.0</ele><time>2026-04-26T15:01:10.208Z</time></trkpt><trkpt lat="43.1377205" lon="11.6566718"><ele>346.0</ele><time>2026-04-26T15:01:11.182Z</time></trkpt><trkpt lat="43.1377819" lon="11.6567993"><ele>346.0</ele><time>2026-04-26T15:01:12.215Z</time></trkpt><trkpt lat="43.1378541" lon="11.6569057"><ele>346.0</ele><time>2026-04-26T15:01:13.208Z</time></trkpt><trkpt lat="43.1379198" lon="11.6570108"><ele>346.0</ele><time>2026-04-26T15:01:14.2Z</time></trkpt><trkpt lat="43.1379805" lon="11.6571187"><ele>346.0</ele><time>2026-04-26T15:01:15.194Z</time></trkpt><trkpt lat="43.1380328" lon="11.6572341"><ele>346.0</ele><time>2026-04-26T15:01:16.195Z</time></trkpt><trkpt lat="43.1380681" lon="11.6573587"><ele>345.66666666666663</ele><time>2026-04-26T15:01:17.195Z</time></trkpt><trkpt lat="43.1380753" lon="11.65749"><ele>345.3333333333333</ele><time>2026-04-26T15:01:18.197Z</time></trkpt><trkpt lat="43.1380499" lon="11.6576139"><ele>345.0</ele><time>2026-04-26T15:01:19.2Z</time></trkpt><trkpt lat="43.1380016" lon="11.6577178"><ele>344.6666666666667</ele><time>2026-04-26T15:01:20.205Z</time></trkpt><trkpt lat="43.1379578" lon="11.6578047"><ele>344.33333333333337</ele><time>2026-04-26T15:01:21.189Z</time></trkpt><trkpt lat="43.1379168" lon="11.6578979"><ele>344.0</ele><time>2026-04-26T15:01:22.208Z</time></trkpt><trkpt lat="43.1379049" lon="11.6580265"><ele>343.5</ele><time>2026-04-26T15:01:23.2Z</time></trkpt><trkpt lat="43.1379506" lon="11.6581656"><ele>343.0</ele><time>2026-04-26T15:01:24.202Z</time></trkpt><trkpt lat="43.1380029" lon="11.6583032"><ele>342.5</ele><time>2026-04-26T15:01:25.197Z</time></trkpt><trkpt lat="43.13813" lon="11.6583725"><ele>342.0</ele><time>2026-04-26T15:01:26.2Z</time></trkpt><trkpt lat="43.1382514" lon="11.6584401"><ele>345.25</ele><time>2026-04-26T15:01:27.202Z</time></trkpt><trkpt lat="43.1383627" lon="11.6585115"><ele>348.5</ele><time>2026-04-26T15:01:28.206Z</time></trkpt><trkpt lat="43.1384743" lon="11.6585837"><ele>351.75</ele><time>2026-04-26T15:01:29.202Z</time></trkpt><trkpt lat="43.138584" lon="11.6586516"><ele>355.0</ele><time>2026-04-26T15:01:30.198Z</time></trkpt><trkpt lat="43.1386915" lon="11.6587175"><ele>355.0</ele><time>2026-04-26T15:01:31.203Z</time></trkpt><trkpt lat="43.1387965" lon="11.6587816"><ele>355.0</ele><time>2026-04-26T15:01:32.207Z</time></trkpt><trkpt lat="43.1388991" lon="11.6588487"><ele>355.0</ele><time>2026-04-26T15:01:33.2Z</time></trkpt><trkpt lat="43.1390015" lon="11.6589177"><ele>355.0</ele><time>2026-04-26T15:01:34.201Z</time></trkpt><trkpt lat="43.1391032" lon="11.6589937"><ele>359.5</ele><time>2026-04-26T15:01:35.212Z</time></trkpt><trkpt lat="43.1391989" lon="11.6590838"><ele>364.0</ele><time>2026-04-26T15:01:36.204Z</time></trkpt><trkpt lat="43.1392828" lon="11.6591958"><ele>368.5</ele><time>2026-04-26T15:01:37.215Z</time></trkpt><trkpt lat="43.1393495" lon="11.6593294"><ele>373.0</ele><time>2026-04-26T15:01:38.209Z</time></trkpt><trkpt lat="43.1393969" lon="11.6594805"><ele>373.2</ele><time>2026-04-26T15:01:39.201Z</time></trkpt><trkpt lat="43.1394242" lon="11.6596406"><ele>373.4</ele><time>2026-04-26T15:01:40.192Z</time></trkpt><trkpt lat="43.139433" lon="11.6597987"><ele>373.59999999999997</ele><time>2026-04-26T15:01:41.189Z</time></trkpt><trkpt lat="43.1394317" lon="11.6599384"><ele>373.79999999999995</ele><time>2026-04-26T15:01:42.207Z</time></trkpt><trkpt lat="43.1394302" lon="11.6600617"><ele>374.0</ele><time>2026-04-26T15:01:43.208Z</time></trkpt><trkpt lat="43.1394301" lon="11.6601627"><ele>374.4</ele><time>2026-04-26T15:01:44.203Z</time></trkpt><trkpt lat="43.1394309" lon="11.6603098"><ele>374.79999999999995</ele><time>2026-04-26T15:01:46.186Z</time></trkpt><trkpt lat="43.1394344" lon="11.6604388"><ele>375.20000000000005</ele><time>2026-04-26T15:01:48.192Z</time></trkpt><trkpt lat="43.1394895" lon="11.6605168"><ele>375.6</ele><time>2026-04-26T15:01:50.203Z</time></trkpt><trkpt lat="43.1395986" lon="11.6605301"><ele>376.0</ele><time>2026-04-26T15:01:52.199Z</time></trkpt><trkpt lat="43.1396683" lon="11.6605603"><ele>376.0</ele><time>2026-04-26T15:01:53.189Z</time></trkpt><trkpt lat="43.1397432" lon="11.6606023"><ele>376.0</ele><time>2026-04-26T15:01:54.204Z</time></trkpt><trkpt lat="43.1398232" lon="11.6606465"><ele>376.0</ele><time>2026-04-26T15:01:55.204Z</time></trkpt><trkpt lat="43.139909" lon="11.660689"><ele>376.0</ele><time>2026-04-26T15:01:56.194Z</time></trkpt><trkpt lat="43.1399978" lon="11.66073"><ele>376.0</ele><time>2026-04-26T15:01:57.207Z</time></trkpt><trkpt lat="43.1400813" lon="11.6607704"><ele>376.0</ele><time>2026-04-26T15:01:58.199Z</time></trkpt><trkpt lat="43.1401552" lon="11.660807"><ele>378.8333333333333</ele><time>2026-04-26T15:01:59.193Z</time></trkpt><trkpt lat="43.140219" lon="11.6608426"><ele>381.66666666666663</ele><time>2026-04-26T15:02:00.2Z</time></trkpt><trkpt lat="43.1403287" lon="11.6609319"><ele>384.5</ele><time>2026-04-26T15:02:02.203Z</time></trkpt><trkpt lat="43.1403532" lon="11.6610233"><ele>387.3333333333333</ele><time>2026-04-26T15:02:03.195Z</time></trkpt><trkpt lat="43.1403732" lon="11.6611227"><ele>390.1666666666667</ele><time>2026-04-26T15:02:04.193Z</time></trkpt><trkpt lat="43.1403571" lon="11.6612419"><ele>393.0</ele><time>2026-04-26T15:02:05.197Z</time></trkpt><trkpt lat="43.1403349" lon="11.6613608"><ele>393.8333333333333</ele><time>2026-04-26T15:02:06.206Z</time></trkpt><trkpt lat="43.1403112" lon="11.6614801"><ele>394.66666666666663</ele><time>2026-04-26T15:02:07.192Z</time></trkpt><trkpt lat="43.1403173" lon="11.6615861"><ele>395.5</ele><time>2026-04-26T15:02:08.204Z</time></trkpt><trkpt lat="43.1403245" lon="11.6616946"><ele>396.3333333333333</ele><time>2026-04-26T15:02:09.19Z</time></trkpt><trkpt lat="43.1403557" lon="11.6617927"><ele>397.16666666666663</ele><time>2026-04-26T15:02:10.201Z</time></trkpt><trkpt lat="43.1403977" lon="11.6618899"><ele>398.0</ele><time>2026-04-26T15:02:11.203Z</time></trkpt><trkpt lat="43.1404434" lon="11.6619834"><ele>398.66666666666663</ele><time>2026-04-26T15:02:12.191Z</time></trkpt><trkpt lat="43.1404892" lon="11.6620766"><ele>399.3333333333333</ele><time>2026-04-26T15:02:13.205Z</time></trkpt><trkpt lat="43.140532" lon="11.6621692"><ele>400.0</ele><time>2026-04-26T15:02:14.207Z</time></trkpt><trkpt lat="43.1405755" lon="11.6622634"><ele>400.66666666666663</ele><time>2026-04-26T15:02:15.205Z</time></trkpt><trkpt lat="43.1406157" lon="11.66235"><ele>401.3333333333333</ele><time>2026-04-26T15:02:16.204Z</time></trkpt><trkpt lat="43.1406589" lon="11.66244"><ele>402.0</ele><time>2026-04-26T15:02:17.195Z</time></trkpt><trkpt lat="43.1406991" lon="11.6625267"><ele>406.8</ele><time>2026-04-26T15:02:18.189Z</time></trkpt><trkpt lat="43.1407369" lon="11.6626152"><ele>411.6</ele><time>2026-04-26T15:02:19.197Z</time></trkpt><trkpt lat="43.1407701" lon="11.6627016"><ele>416.40000000000003</ele><time>2026-04-26T15:02:20.206Z</time></trkpt><trkpt lat="43.1408027" lon="11.6627835"><ele>421.20000000000005</ele><time>2026-04-26T15:02:21.2Z</time></trkpt><trkpt lat="43.1408627" lon="11.66293"><ele>426.0</ele><time>2026-04-26T15:02:23.207Z</time></trkpt><trkpt lat="43.1409189" lon="11.6630728"><ele>427.0</ele><time>2026-04-26T15:02:25.198Z</time></trkpt><trkpt lat="43.1409498" lon="11.6631488"><ele>428.0</ele><time>2026-04-26T15:02:26.202Z</time></trkpt><trkpt lat="43.1409648" lon="11.6632364"><ele>429.0</ele><time>2026-04-26T15:02:27.206Z</time></trkpt><trkpt lat="43.1409627" lon="11.6633331"><ele>430.0</ele><time>2026-04-26T15:02:28.204Z</time></trkpt><trkpt lat="43.1409526" lon="11.6634248"><ele>431.0</ele><time>2026-04-26T15:02:29.2Z</time></trkpt><trkpt lat="43.1409415" lon="11.6635855"><ele>432.0</ele><time>2026-04-26T15:02:31.199Z</time></trkpt><trkpt lat="43.1409621" lon="11.6637331"><ele>434.20000000000005</ele><time>2026-04-26T15:02:33.19Z</time></trkpt><trkpt lat="43.1410503" lon="11.6638198"><ele>436.40000000000003</ele><time>2026-04-26T15:02:35.194Z</time></trkpt><trkpt lat="43.1411246" lon="11.6638835"><ele>438.59999999999997</ele><time>2026-04-26T15:02:37.184Z</time></trkpt><trkpt lat="43.1411988" lon="11.6639243"><ele>440.79999999999995</ele><time>2026-04-26T15:02:40.198Z</time></trkpt><trkpt lat="43.1412801" lon="11.6638393"><ele>443.0</ele><time>2026-04-26T15:02:43.209Z</time></trkpt><trkpt lat="43.141318" lon="11.6636716"><ele>441.49999999999994</ele><time>2026-04-26T15:02:45.2Z</time></trkpt><trkpt lat="43.1413522" lon="11.6635827"><ele>440.0</ele><time>2026-04-26T15:02:46.192Z</time></trkpt><trkpt lat="43.1413957" lon="11.6634975"><ele>438.5</ele><time>2026-04-26T15:02:47.192Z</time></trkpt><trkpt lat="43.1414399" lon="11.6634106"><ele>437.0</ele><time>2026-04-26T15:02:48.204Z</time></trkpt><trkpt lat="43.1414833" lon="11.6633254"><ele>435.49999999999994</ele><time>2026-04-26T15:02:49.204Z</time></trkpt><trkpt lat="43.1415222" lon="11.6632302"><ele>434.0</ele><time>2026-04-26T15:02:50.199Z</time></trkpt><trkpt lat="43.1415633" lon="11.6631384"><ele>433.99999999999994</ele><time>2026-04-26T15:02:51.184Z</time></trkpt><trkpt lat="43.141613" lon="11.6630541"><ele>434.0</ele><time>2026-04-26T15:02:52.199Z</time></trkpt><trkpt lat="43.1416665" lon="11.6629523"><ele>434.0</ele><time>2026-04-26T15:02:53.186Z</time></trkpt><trkpt lat="43.1417199" lon="11.6628608"><ele>434.0</ele><time>2026-04-26T15:02:54.201Z</time></trkpt><trkpt lat="43.1417715" lon="11.6627643"><ele>433.99999999999994</ele><time>2026-04-26T15:02:55.184Z</time></trkpt><trkpt lat="43.1418162" lon="11.6626753"><ele>434.0</ele><time>2026-04-26T15:02:56.196Z</time></trkpt><trkpt lat="43.141862" lon="11.662587"><ele>434.66666666666663</ele><time>2026-04-26T15:02:57.201Z</time></trkpt><trkpt lat="43.1419087" lon="11.6624998"><ele>435.3333333333333</ele><time>2026-04-26T15:02:58.2Z</time></trkpt><trkpt lat="43.1419603" lon="11.662403"><ele>436.0</ele><time>2026-04-26T15:02:59.202Z</time></trkpt><trkpt lat="43.1420054" lon="11.6622984"><ele>436.66666666666663</ele><time>2026-04-26T15:03:00.182Z</time></trkpt><trkpt lat="43.1420431" lon="11.6621867"><ele>437.3333333333333</ele><time>2026-04-26T15:03:01.191Z</time></trkpt><trkpt lat="43.1420789" lon="11.6620755"><ele>438.0</ele><time>2026-04-26T15:03:02.193Z</time></trkpt><trkpt lat="43.1421141" lon="11.6619608"><ele>437.79999999999995</ele><time>2026-04-26T15:03:03.202Z</time></trkpt><trkpt lat="43.1421397" lon="11.6618431"><ele>437.59999999999997</ele><time>2026-04-26T15:03:04.198Z</time></trkpt><trkpt lat="43.1421651" lon="11.6617231"><ele>437.40000000000003</ele><time>2026-04-26T15:03:05.203Z</time></trkpt><trkpt lat="43.1421877" lon="11.6616046"><ele>437.20000000000005</ele><time>2026-04-26T15:03:06.199Z</time></trkpt><trkpt lat="43.1422083" lon="11.6614768"><ele>437.0</ele><time>2026-04-26T15:03:07.201Z</time></trkpt><trkpt lat="43.1422216" lon="11.6613409"><ele>437.0</ele><time>2026-04-26T15:03:08.199Z</time></trkpt><trkpt lat="43.1422338" lon="11.6612052"><ele>437.00000000000006</ele><time>2026-04-26T15:03:09.194Z</time></trkpt><trkpt lat="43.1422375" lon="11.661067"><ele>437.00000000000006</ele><time>2026-04-26T15:03:10.194Z</time></trkpt><trkpt lat="43.1422426" lon="11.6609289"><ele>437.0</ele><time>2026-04-26T15:03:11.187Z</time></trkpt><trkpt lat="43.1422528" lon="11.6607807"><ele>437.0</ele><time>2026-04-26T15:03:12.196Z</time></trkpt><trkpt lat="43.1422629" lon="11.6606352"><ele>436.6</ele><time>2026-04-26T15:03:13.197Z</time></trkpt><trkpt lat="43.1422948" lon="11.6604955"><ele>436.20000000000005</ele><time>2026-04-26T15:03:14.194Z</time></trkpt><trkpt lat="43.1423412" lon="11.6603629"><ele>435.8</ele><time>2026-04-26T15:03:15.203Z</time></trkpt><trkpt lat="43.1423931" lon="11.6602368"><ele>435.4</ele><time>2026-04-26T15:03:16.203Z</time></trkpt><trkpt lat="43.1424461" lon="11.6601088"><ele>435.0</ele><time>2026-04-26T15:03:17.21Z</time></trkpt><trkpt lat="43.1425034" lon="11.6599863"><ele>433.8</ele><time>2026-04-26T15:03:18.203Z</time></trkpt><trkpt lat="43.1425598" lon="11.6598608"><ele>432.6</ele><time>2026-04-26T15:03:19.205Z</time></trkpt><trkpt lat="43.1426116" lon="11.6597293"><ele>431.4</ele><time>2026-04-26T15:03:20.197Z</time></trkpt><trkpt lat="43.1426533" lon="11.6595861"><ele>430.2</ele><time>2026-04-26T15:03:21.213Z</time></trkpt><trkpt lat="43.1426849" lon="11.6594328"><ele>429.0</ele><time>2026-04-26T15:03:22.214Z</time></trkpt><trkpt lat="43.142708" lon="11.6592747"><ele>429.0</ele><time>2026-04-26T15:03:23.204Z</time></trkpt><trkpt lat="43.1427232" lon="11.659114"><ele>429.0</ele><time>2026-04-26T15:03:24.204Z</time></trkpt><trkpt lat="43.1427332" lon="11.6589517"><ele>429.0</ele><time>2026-04-26T15:03:25.193Z</time></trkpt><trkpt lat="43.1427421" lon="11.6587867"><ele>429.0</ele><time>2026-04-26T15:03:26.198Z</time></trkpt><trkpt lat="43.1427521" lon="11.6586187"><ele>427.5</ele><time>2026-04-26T15:03:27.202Z</time></trkpt><trkpt lat="43.1427649" lon="11.6584488"><ele>426.0</ele><time>2026-04-26T15:03:28.199Z</time></trkpt><trkpt lat="43.1427792" lon="11.6582785"><ele>424.5</ele><time>2026-04-26T15:03:29.192Z</time></trkpt><trkpt lat="43.142794" lon="11.6581097"><ele>423.0</ele><time>2026-04-26T15:03:30.213Z</time></trkpt><trkpt lat="43.1428308" lon="11.6579457"><ele>423.0</ele><time>2026-04-26T15:03:31.199Z</time></trkpt><trkpt lat="43.1428772" lon="11.6577862"><ele>423.0</ele><time>2026-04-26T15:03:32.2Z</time></trkpt><trkpt lat="43.1429281" lon="11.65763"><ele>423.0</ele><time>2026-04-26T15:03:33.195Z</time></trkpt><trkpt lat="43.1429813" lon="11.6574811"><ele>423.0</ele><time>2026-04-26T15:03:34.202Z</time></trkpt><trkpt lat="43.1430376" lon="11.6573461"><ele>421.59999999999997</ele><time>2026-04-26T15:03:35.202Z</time></trkpt><trkpt lat="43.1431013" lon="11.6572323"><ele>420.2</ele><time>2026-04-26T15:03:36.207Z</time></trkpt><trkpt lat="43.1431741" lon="11.6571464"><ele>418.8</ele><time>2026-04-26T15:03:37.186Z</time></trkpt><trkpt lat="43.1432604" lon="11.6570931"><ele>417.4</ele><time>2026-04-26T15:03:38.195Z</time></trkpt><trkpt lat="43.1433573" lon="11.6570777"><ele>416.0</ele><time>2026-04-26T15:03:39.202Z</time></trkpt><trkpt lat="43.1434548" lon="11.657065"><ele>414.25</ele><time>2026-04-26T15:03:40.197Z</time></trkpt><trkpt lat="43.1435626" lon="11.6570792"><ele>412.5</ele><time>2026-04-26T15:03:41.185Z</time></trkpt><trkpt lat="43.1436745" lon="11.6570882"><ele>410.75</ele><time>2026-04-26T15:03:42.197Z</time></trkpt><trkpt lat="43.1437931" lon="11.6570725"><ele>409.0</ele><time>2026-04-26T15:03:43.206Z</time></trkpt><trkpt lat="43.143909" lon="11.6570173"><ele>410.0</ele><time>2026-04-26T15:03:44.202Z</time></trkpt><trkpt lat="43.1440164" lon="11.6569475"><ele>411.0</ele><time>2026-04-26T15:03:45.198Z</time></trkpt><trkpt lat="43.1441199" lon="11.6568687"><ele>412.0</ele><time>2026-04-26T15:03:46.198Z</time></trkpt><trkpt lat="43.1442204" lon="11.6567868"><ele>413.0</ele><time>2026-04-26T15:03:47.193Z</time></trkpt><trkpt lat="43.1443264" lon="11.6567143"><ele>413.0</ele><time>2026-04-26T15:03:48.208Z</time></trkpt><trkpt lat="43.1444344" lon="11.6566677"><ele>413.0</ele><time>2026-04-26T15:03:49.206Z</time></trkpt><trkpt lat="43.1445459" lon="11.6566415"><ele>413.0</ele><time>2026-04-26T15:03:50.202Z</time></trkpt><trkpt lat="43.1446582" lon="11.6566133"><ele>413.0</ele><time>2026-04-26T15:03:51.186Z</time></trkpt><trkpt lat="43.1447689" lon="11.656577"><ele>413.0</ele><time>2026-04-26T15:03:52.2Z</time></trkpt><trkpt lat="43.1448632" lon="11.656513"><ele>413.0</ele><time>2026-04-26T15:03:53.185Z</time></trkpt><trkpt lat="43.1449419" lon="11.6564156"><ele>413.0</ele><time>2026-04-26T15:03:54.19Z</time></trkpt><trkpt lat="43.1450161" lon="11.6563176"><ele>413.0</ele><time>2026-04-26T15:03:55.202Z</time></trkpt><trkpt lat="43.1450698" lon="11.656198"><ele>413.0</ele><time>2026-04-26T15:03:56.207Z</time></trkpt><trkpt lat="43.1451249" lon="11.6560808"><ele>412.79999999999995</ele><time>2026-04-26T15:03:57.195Z</time></trkpt><trkpt lat="43.1452024" lon="11.6559838"><ele>412.6</ele><time>2026-04-26T15:03:58.191Z</time></trkpt><trkpt lat="43.1452974" lon="11.6559108"><ele>412.4</ele><time>2026-04-26T15:03:59.205Z</time></trkpt><trkpt lat="43.1454029" lon="11.6558761"><ele>412.20000000000005</ele><time>2026-04-26T15:04:00.195Z</time></trkpt><trkpt lat="43.1455065" lon="11.6558434"><ele>412.0</ele><time>2026-04-26T15:04:01.198Z</time></trkpt><trkpt lat="43.1456231" lon="11.6558821"><ele>409.75</ele><time>2026-04-26T15:04:02.206Z</time></trkpt><trkpt lat="43.1457465" lon="11.6559286"><ele>407.5</ele><time>2026-04-26T15:04:03.192Z</time></trkpt><trkpt lat="43.1458696" lon="11.655979"><ele>405.25</ele><time>2026-04-26T15:04:04.202Z</time></trkpt><trkpt lat="43.1459932" lon="11.6560257"><ele>403.0</ele><time>2026-04-26T15:04:05.202Z</time></trkpt><trkpt lat="43.1461135" lon="11.6560792"><ele>399.25</ele><time>2026-04-26T15:04:06.198Z</time></trkpt><trkpt lat="43.1462291" lon="11.6561312"><ele>395.5</ele><time>2026-04-26T15:04:07.205Z</time></trkpt><trkpt lat="43.1463408" lon="11.6561827"><ele>391.75</ele><time>2026-04-26T15:04:08.201Z</time></trkpt><trkpt lat="43.1464519" lon="11.6562337"><ele>388.0</ele><time>2026-04-26T15:04:09.199Z</time></trkpt><trkpt lat="43.1465626" lon="11.6562832"><ele>387.59999999999997</ele><time>2026-04-26T15:04:10.201Z</time></trkpt><trkpt lat="43.146671" lon="11.6563289"><ele>387.2</ele><time>2026-04-26T15:04:11.201Z</time></trkpt><trkpt lat="43.1467799" lon="11.6563158"><ele>386.8</ele><time>2026-04-26T15:04:12.199Z</time></trkpt><trkpt lat="43.1468689" lon="11.6562597"><ele>386.4</ele><time>2026-04-26T15:04:13.206Z</time></trkpt><trkpt lat="43.1469563" lon="11.6562386"><ele>386.0</ele><time>2026-04-26T15:04:14.206Z</time></trkpt><trkpt lat="43.1470104" lon="11.6561471"><ele>388.5</ele><time>2026-04-26T15:04:15.205Z</time></trkpt><trkpt lat="43.1470108" lon="11.6559957"><ele>391.0</ele><time>2026-04-26T15:04:16.194Z</time></trkpt><trkpt lat="43.1469612" lon="11.6558351"><ele>393.5</ele><time>2026-04-26T15:04:17.206Z</time></trkpt><trkpt lat="43.1468785" lon="11.6556836"><ele>396.0</ele><time>2026-04-26T15:04:18.189Z</time></trkpt><trkpt lat="43.1468075" lon="11.6555411"><ele>396.0</ele><time>2026-04-26T15:04:19.199Z</time></trkpt><trkpt lat="43.1467452" lon="11.6554113"><ele>396.0</ele><time>2026-04-26T15:04:20.195Z</time></trkpt><trkpt lat="43.1466891" lon="11.6552842"><ele>396.0</ele><time>2026-04-26T15:04:21.191Z</time></trkpt><trkpt lat="43.1466482" lon="11.6551477"><ele>396.0</ele><time>2026-04-26T15:04:22.2Z</time></trkpt><trkpt lat="43.1466432" lon="11.6550066"><ele>396.0</ele><time>2026-04-26T15:04:23.193Z</time></trkpt><trkpt lat="43.1466878" lon="11.6548754"><ele>395.20000000000005</ele><time>2026-04-26T15:04:24.191Z</time></trkpt><trkpt lat="43.146772" lon="11.654772"><ele>394.40000000000003</ele><time>2026-04-26T15:04:25.202Z</time></trkpt><trkpt lat="43.1468788" lon="11.6547059"><ele>393.6</ele><time>2026-04-26T15:04:26.192Z</time></trkpt><trkpt lat="43.1469816" lon="11.6546646"><ele>392.8</ele><time>2026-04-26T15:04:27.195Z</time></trkpt><trkpt lat="43.1470786" lon="11.6546269"><ele>392.0</ele><time>2026-04-26T15:04:28.196Z</time></trkpt><trkpt lat="43.147172" lon="11.6545854"><ele>392.0</ele><time>2026-04-26T15:04:29.201Z</time></trkpt><trkpt lat="43.1472629" lon="11.6545413"><ele>392.0</ele><time>2026-04-26T15:04:30.203Z</time></trkpt><trkpt lat="43.147335" lon="11.6544599"><ele>392.0</ele><time>2026-04-26T15:04:31.205Z</time></trkpt><trkpt lat="43.1473772" lon="11.6543546"><ele>392.0</ele><time>2026-04-26T15:04:32.193Z</time></trkpt><trkpt lat="43.1473835" lon="11.6542366"><ele>392.0</ele><time>2026-04-26T15:04:33.211Z</time></trkpt><trkpt lat="43.1473523" lon="11.6541231"><ele>392.6</ele><time>2026-04-26T15:04:34.196Z</time></trkpt><trkpt lat="43.1473184" lon="11.6540114"><ele>393.20000000000005</ele><time>2026-04-26T15:04:35.19Z</time></trkpt><trkpt lat="43.1472538" lon="11.6539153"><ele>393.8</ele><time>2026-04-26T15:04:36.198Z</time></trkpt><trkpt lat="43.1471823" lon="11.6538396"><ele>394.4</ele><time>2026-04-26T15:04:37.203Z</time></trkpt><trkpt lat="43.1471138" lon="11.6537608"><ele>395.0</ele><time>2026-04-26T15:04:38.186Z</time></trkpt><trkpt lat="43.1470444" lon="11.6536764"><ele>393.8</ele><time>2026-04-26T15:04:39.201Z</time></trkpt><trkpt lat="43.1469834" lon="11.6535826"><ele>392.6</ele><time>2026-04-26T15:04:40.195Z</time></trkpt><trkpt lat="43.1469247" lon="11.6534895"><ele>391.4</ele><time>2026-04-26T15:04:41.192Z</time></trkpt><trkpt lat="43.1469092" lon="11.653363"><ele>390.2</ele><time>2026-04-26T15:04:42.183Z</time></trkpt><trkpt lat="43.1469393" lon="11.6532294"><ele>389.0</ele><time>2026-04-26T15:04:43.19Z</time></trkpt><trkpt lat="43.1470026" lon="11.6531349"><ele>389.0</ele><time>2026-04-26T15:04:44.192Z</time></trkpt><trkpt lat="43.1471189" lon="11.6531116"><ele>389.0</ele><time>2026-04-26T15:04:45.201Z</time></trkpt><trkpt lat="43.147231" lon="11.653095"><ele>389.0</ele><time>2026-04-26T15:04:46.196Z</time></trkpt><trkpt lat="43.1473467" lon="11.6531132"><ele>389.0</ele><time>2026-04-26T15:04:47.198Z</time></trkpt><trkpt lat="43.1474597" lon="11.6531196"><ele>386.25</ele><time>2026-04-26T15:04:48.183Z</time></trkpt><trkpt lat="43.1475731" lon="11.6531135"><ele>383.5</ele><time>2026-04-26T15:04:49.201Z</time></trkpt><trkpt lat="43.1476924" lon="11.6531048"><ele>380.75</ele><time>2026-04-26T15:04:50.206Z</time></trkpt><trkpt lat="43.14781" lon="11.6530967"><ele>378.0</ele><time>2026-04-26T15:04:51.197Z</time></trkpt><trkpt lat="43.1479285" lon="11.6530958"><ele>378.0</ele><time>2026-04-26T15:04:52.187Z</time></trkpt><trkpt lat="43.1480471" lon="11.6530998"><ele>378.0</ele><time>2026-04-26T15:04:53.205Z</time></trkpt><trkpt lat="43.1481687" lon="11.6531069"><ele>378.0</ele><time>2026-04-26T15:04:54.193Z</time></trkpt><trkpt lat="43.1482847" lon="11.6531274"><ele>378.0</ele><time>2026-04-26T15:04:55.188Z</time></trkpt><trkpt lat="43.1483981" lon="11.6531534"><ele>375.5</ele><time>2026-04-26T15:04:56.196Z</time></trkpt><trkpt lat="43.1485065" lon="11.6531706"><ele>373.0</ele><time>2026-04-26T15:04:57.202Z</time></trkpt><trkpt lat="43.1486238" lon="11.653165"><ele>370.5</ele><time>2026-04-26T15:04:58.199Z</time></trkpt><trkpt lat="43.1487417" lon="11.653118"><ele>368.0</ele><time>2026-04-26T15:04:59.199Z</time></trkpt><trkpt lat="43.1488534" lon="11.6530667"><ele>368.0</ele><time>2026-04-26T15:05:00.206Z</time></trkpt><trkpt lat="43.1489636" lon="11.6530188"><ele>368.0</ele><time>2026-04-26T15:05:01.195Z</time></trkpt><trkpt lat="43.1490596" lon="11.6529684"><ele>368.0</ele><time>2026-04-26T15:05:02.196Z</time></trkpt><trkpt lat="43.1491234" lon="11.6528475"><ele>368.0</ele><time>2026-04-26T15:05:03.194Z</time></trkpt><trkpt lat="43.14918" lon="11.6527286"><ele>368.0</ele><time>2026-04-26T15:05:04.205Z</time></trkpt><trkpt lat="43.1491792" lon="11.6525792"><ele>365.79999999999995</ele><time>2026-04-26T15:05:05.199Z</time></trkpt><trkpt lat="43.1491714" lon="11.6524362"><ele>363.6</ele><time>2026-04-26T15:05:06.208Z</time></trkpt><trkpt lat="43.1491608" lon="11.6522914"><ele>361.4</ele><time>2026-04-26T15:05:07.187Z</time></trkpt><trkpt lat="43.1491489" lon="11.6521574"><ele>359.20000000000005</ele><time>2026-04-26T15:05:08.207Z</time></trkpt><trkpt lat="43.1491402" lon="11.652041"><ele>357.0</ele><time>2026-04-26T15:05:09.187Z</time></trkpt><trkpt lat="43.1491583" lon="11.6519463"><ele>357.0</ele><time>2026-04-26T15:05:10.183Z</time></trkpt><trkpt lat="43.1492607" lon="11.6518881"><ele>357.0</ele><time>2026-04-26T15:05:12.2Z</time></trkpt><trkpt lat="43.1493448" lon="11.6519695"><ele>357.0</ele><time>2026-04-26T15:05:14.198Z</time></trkpt><trkpt lat="43.1493437" lon="11.6521022"><ele>357.0</ele><time>2026-04-26T15:05:15.197Z</time></trkpt><trkpt lat="43.1493534" lon="11.6522494"><ele>357.0</ele><time>2026-04-26T15:05:16.194Z</time></trkpt><trkpt lat="43.1493774" lon="11.6524041"><ele>357.0</ele><time>2026-04-26T15:05:17.196Z</time></trkpt><trkpt lat="43.1494224" lon="11.6525515"><ele>357.0</ele><time>2026-04-26T15:05:18.191Z</time></trkpt><trkpt lat="43.149472" lon="11.6526936"><ele>357.0</ele><time>2026-04-26T15:05:19.194Z</time></trkpt><trkpt lat="43.1495003" lon="11.6528315"><ele>357.0</ele><time>2026-04-26T15:05:20.185Z</time></trkpt><trkpt lat="43.1495033" lon="11.6529795"><ele>357.0</ele><time>2026-04-26T15:05:21.195Z</time></trkpt><trkpt lat="43.1494838" lon="11.6531089"><ele>355.8</ele><time>2026-04-26T15:05:22.209Z</time></trkpt><trkpt lat="43.1494502" lon="11.6532181"><ele>354.6</ele><time>2026-04-26T15:05:23.191Z</time></trkpt><trkpt lat="43.1494196" lon="11.6533184"><ele>353.40000000000003</ele><time>2026-04-26T15:05:24.204Z</time></trkpt><trkpt lat="43.149424" lon="11.6534602"><ele>352.20000000000005</ele><time>2026-04-26T15:05:26.198Z</time></trkpt><trkpt lat="43.1495266" lon="11.6534883"><ele>351.0</ele><time>2026-04-26T15:05:28.193Z</time></trkpt><trkpt lat="43.1495961" lon="11.6534141"><ele>351.0</ele><time>2026-04-26T15:05:29.197Z</time></trkpt><trkpt lat="43.1496638" lon="11.6533018"><ele>351.0</ele><time>2026-04-26T15:05:30.207Z</time></trkpt><trkpt lat="43.1497225" lon="11.6531964"><ele>351.0</ele><time>2026-04-26T15:05:31.193Z</time></trkpt><trkpt lat="43.1497909" lon="11.653126"><ele>351.0</ele><time>2026-04-26T15:05:32.204Z</time></trkpt><trkpt lat="43.1498727" lon="11.6530997"><ele>351.0</ele><time>2026-04-26T15:05:33.19Z</time></trkpt><trkpt lat="43.1499651" lon="11.6531221"><ele>346.6</ele><time>2026-04-26T15:05:34.199Z</time></trkpt><trkpt lat="43.1500562" lon="11.6531499"><ele>342.20000000000005</ele><time>2026-04-26T15:05:35.202Z</time></trkpt><trkpt lat="43.1501466" lon="11.6532169"><ele>337.79999999999995</ele><time>2026-04-26T15:05:36.191Z</time></trkpt><trkpt lat="43.1502263" lon="11.6532759"><ele>333.4</ele><time>2026-04-26T15:05:37.204Z</time></trkpt><trkpt lat="43.1503099" lon="11.6533128"><ele>329.0</ele><time>2026-04-26T15:05:38.199Z</time></trkpt><trkpt lat="43.1504121" lon="11.6532891"><ele>329.0</ele><time>2026-04-26T15:05:39.2Z</time></trkpt><trkpt lat="43.150515" lon="11.6532144"><ele>329.0</ele><time>2026-04-26T15:05:40.205Z</time></trkpt><trkpt lat="43.1506038" lon="11.6531046"><ele>329.0</ele><time>2026-04-26T15:05:41.206Z</time></trkpt><trkpt lat="43.1506935" lon="11.6529834"><ele>329.0</ele><time>2026-04-26T15:05:42.192Z</time></trkpt><trkpt lat="43.1507866" lon="11.6528709"><ele>327.0</ele><time>2026-04-26T15:05:43.202Z</time></trkpt><trkpt lat="43.150872" lon="11.6527579"><ele>325.0</ele><time>2026-04-26T15:05:44.202Z</time></trkpt><trkpt lat="43.15094" lon="11.6526299"><ele>323.0</ele><time>2026-04-26T15:05:45.193Z</time></trkpt><trkpt lat="43.1509777" lon="11.65247"><ele>321.0</ele><time>2026-04-26T15:05:46.194Z</time></trkpt><trkpt lat="43.1509928" lon="11.6523002"><ele>321.0</ele><time>2026-04-26T15:05:47.205Z</time></trkpt><trkpt lat="43.1509841" lon="11.6521271"><ele>321.0</ele><time>2026-04-26T15:05:48.194Z</time></trkpt><trkpt lat="43.1509621" lon="11.6519587"><ele>321.0</ele><time>2026-04-26T15:05:49.194Z</time></trkpt><trkpt lat="43.1509367" lon="11.6517927"><ele>321.0</ele><time>2026-04-26T15:05:50.201Z</time></trkpt><trkpt lat="43.1509011" lon="11.6516231"><ele>322.0</ele><time>2026-04-26T15:05:51.193Z</time></trkpt><trkpt lat="43.1508653" lon="11.6514526"><ele>323.0</ele><time>2026-04-26T15:05:52.213Z</time></trkpt><trkpt lat="43.1508374" lon="11.651276"><ele>324.0</ele><time>2026-04-26T15:05:53.209Z</time></trkpt><trkpt lat="43.1508118" lon="11.6510952"><ele>325.0</ele><time>2026-04-26T15:05:54.206Z</time></trkpt><trkpt lat="43.1508021" lon="11.6509096"><ele>325.25</ele><time>2026-04-26T15:05:55.205Z</time></trkpt><trkpt lat="43.150815" lon="11.6507356"><ele>325.5</ele><time>2026-04-26T15:05:56.208Z</time></trkpt><trkpt lat="43.1508387" lon="11.6505626"><ele>325.75</ele><time>2026-04-26T15:05:57.197Z</time></trkpt><trkpt lat="43.150872" lon="11.650404"><ele>326.0</ele><time>2026-04-26T15:05:58.21Z</time></trkpt><trkpt lat="43.1509245" lon="11.6502559"><ele>326.0</ele><time>2026-04-26T15:05:59.205Z</time></trkpt><trkpt lat="43.1509891" lon="11.650118"><ele>326.0</ele><time>2026-04-26T15:06:00.206Z</time></trkpt><trkpt lat="43.1510606" lon="11.6499784"><ele>326.0</ele><time>2026-04-26T15:06:01.201Z</time></trkpt><trkpt lat="43.1511316" lon="11.6498416"><ele>326.0</ele><time>2026-04-26T15:06:02.206Z</time></trkpt><trkpt lat="43.1512036" lon="11.6497017"><ele>326.0</ele><time>2026-04-26T15:06:03.208Z</time></trkpt><trkpt lat="43.151272" lon="11.6495628"><ele>326.0</ele><time>2026-04-26T15:06:04.206Z</time></trkpt><trkpt lat="43.151346" lon="11.6494284"><ele>326.0</ele><time>2026-04-26T15:06:05.201Z</time></trkpt><trkpt lat="43.151429" lon="11.6493109"><ele>326.0</ele><time>2026-04-26T15:06:06.191Z</time></trkpt><trkpt lat="43.1515284" lon="11.6492153"><ele>328.5</ele><time>2026-04-26T15:06:07.186Z</time></trkpt><trkpt lat="43.1516435" lon="11.6491534"><ele>331.0</ele><time>2026-04-26T15:06:08.206Z</time></trkpt><trkpt lat="43.1517598" lon="11.649096"><ele>333.5</ele><time>2026-04-26T15:06:09.21Z</time></trkpt><trkpt lat="43.1518927" lon="11.6491344"><ele>336.0</ele><time>2026-04-26T15:06:10.202Z</time></trkpt><trkpt lat="43.1520157" lon="11.6492202"><ele>336.0</ele><time>2026-04-26T15:06:11.2Z</time></trkpt><trkpt lat="43.1521256" lon="11.6493509"><ele>336.0</ele><time>2026-04-26T15:06:12.194Z</time></trkpt><trkpt lat="43.1522393" lon="11.6494872"><ele>336.0</ele><time>2026-04-26T15:06:13.197Z</time></trkpt><trkpt lat="43.1523379" lon="11.6496507"><ele>343.3333333333333</ele><time>2026-04-26T15:06:14.2Z</time></trkpt><trkpt lat="43.1524387" lon="11.6498063"><ele>350.66666666666663</ele><time>2026-04-26T15:06:15.202Z</time></trkpt><trkpt lat="43.1525562" lon="11.6499515"><ele>358.0</ele><time>2026-04-26T15:06:16.209Z</time></trkpt><trkpt lat="43.1526806" lon="11.6500578"><ele>358.0</ele><time>2026-04-26T15:06:17.207Z</time></trkpt><trkpt lat="43.1528055" lon="11.6501364"><ele>358.0</ele><time>2026-04-26T15:06:18.207Z</time></trkpt><trkpt lat="43.1529276" lon="11.6501972"><ele>358.0</ele><time>2026-04-26T15:06:19.193Z</time></trkpt><trkpt lat="43.153051" lon="11.6502463"><ele>358.0</ele><time>2026-04-26T15:06:20.202Z</time></trkpt><trkpt lat="43.1531631" lon="11.6502805"><ele>359.59999999999997</ele><time>2026-04-26T15:06:21.202Z</time></trkpt><trkpt lat="43.1532741" lon="11.6503073"><ele>361.2</ele><time>2026-04-26T15:06:22.192Z</time></trkpt><trkpt lat="43.1533856" lon="11.6503255"><ele>362.8</ele><time>2026-04-26T15:06:23.213Z</time></trkpt><trkpt lat="43.1534946" lon="11.6503332"><ele>364.4</ele><time>2026-04-26T15:06:24.207Z</time></trkpt><trkpt lat="43.1535946" lon="11.6503391"><ele>366.0</ele><time>2026-04-26T15:06:25.201Z</time></trkpt><trkpt lat="43.1536815" lon="11.6503404"><ele>366.0</ele><time>2026-04-26T15:06:26.199Z</time></trkpt><trkpt lat="43.153766" lon="11.650339"><ele>366.0</ele><time>2026-04-26T15:06:27.189Z</time></trkpt><trkpt lat="43.1538519" lon="11.650336"><ele>366.0</ele><time>2026-04-26T15:06:28.195Z</time></trkpt><trkpt lat="43.1539363" lon="11.6503338"><ele>366.0</ele><time>2026-04-26T15:06:29.197Z</time></trkpt><trkpt lat="43.1540143" lon="11.6503322"><ele>366.0</ele><time>2026-04-26T15:06:30.203Z</time></trkpt><trkpt lat="43.1540827" lon="11.6503198"><ele>366.0</ele><time>2026-04-26T15:06:31.188Z</time></trkpt><trkpt lat="43.154197" lon="11.6502898"><ele>366.6</ele><time>2026-04-26T15:06:33.204Z</time></trkpt><trkpt lat="43.1543035" lon="11.6503068"><ele>367.20000000000005</ele><time>2026-04-26T15:06:35.199Z</time></trkpt><trkpt lat="43.1543648" lon="11.6503551"><ele>367.79999999999995</ele><time>2026-04-26T15:06:36.191Z</time></trkpt><trkpt lat="43.1544275" lon="11.6504358"><ele>368.4</ele><time>2026-04-26T15:06:37.207Z</time></trkpt><trkpt lat="43.1544979" lon="11.6505552"><ele>369.0</ele><time>2026-04-26T15:06:38.196Z</time></trkpt><trkpt lat="43.1545794" lon="11.6507023"><ele>369.0</ele><time>2026-04-26T15:06:39.201Z</time></trkpt><trkpt lat="43.1546638" lon="11.6508512"><ele>369.0</ele><time>2026-04-26T15:06:40.198Z</time></trkpt><trkpt lat="43.1547402" lon="11.650989"><ele>369.0</ele><time>2026-04-26T15:06:41.207Z</time></trkpt><trkpt lat="43.1548093" lon="11.6511163"><ele>369.0</ele><time>2026-04-26T15:06:42.203Z</time></trkpt><trkpt lat="43.1548769" lon="11.6512398"><ele>371.2</ele><time>2026-04-26T15:06:43.208Z</time></trkpt><trkpt lat="43.1549432" lon="11.6513612"><ele>373.4</ele><time>2026-04-26T15:06:44.196Z</time></trkpt><trkpt lat="43.1550109" lon="11.6514832"><ele>375.6</ele><time>2026-04-26T15:06:45.192Z</time></trkpt><trkpt lat="43.1550782" lon="11.6516054"><ele>377.8</ele><time>2026-04-26T15:06:46.198Z</time></trkpt><trkpt lat="43.1551468" lon="11.6517311"><ele>380.0</ele><time>2026-04-26T15:06:47.184Z</time></trkpt><trkpt lat="43.1552218" lon="11.6518613"><ele>379.0</ele><time>2026-04-26T15:06:48.198Z</time></trkpt><trkpt lat="43.155305" lon="11.6520032"><ele>378.0</ele><time>2026-04-26T15:06:49.186Z</time></trkpt><trkpt lat="43.1553919" lon="11.6521536"><ele>377.0</ele><time>2026-04-26T15:06:50.19Z</time></trkpt><trkpt lat="43.1554813" lon="11.6523075"><ele>376.0</ele><time>2026-04-26T15:06:51.209Z</time></trkpt><trkpt lat="43.1555701" lon="11.6524604"><ele>376.0</ele><time>2026-04-26T15:06:52.198Z</time></trkpt><trkpt lat="43.1556588" lon="11.6526118"><ele>376.0</ele><time>2026-04-26T15:06:53.214Z</time></trkpt><trkpt lat="43.155748" lon="11.6527658"><ele>376.0</ele><time>2026-04-26T15:06:54.204Z</time></trkpt><trkpt lat="43.1558394" lon="11.6529265"><ele>376.0</ele><time>2026-04-26T15:06:55.199Z</time></trkpt><trkpt lat="43.1559329" lon="11.6530917"><ele>377.3333333333333</ele><time>2026-04-26T15:06:56.212Z</time></trkpt><trkpt lat="43.1560302" lon="11.6532595"><ele>378.6666666666667</ele><time>2026-04-26T15:06:57.204Z</time></trkpt><trkpt lat="43.1561281" lon="11.6534274"><ele>380.0</ele><time>2026-04-26T15:06:58.189Z</time></trkpt><trkpt lat="43.1562257" lon="11.6535938"><ele>378.25</ele><time>2026-04-26T15:06:59.208Z</time></trkpt><trkpt lat="43.1563178" lon="11.6537533"><ele>376.5</ele><time>2026-04-26T15:07:00.205Z</time></trkpt><trkpt lat="43.1564059" lon="11.6539095"><ele>374.75</ele><time>2026-04-26T15:07:01.19Z</time></trkpt><trkpt lat="43.1564935" lon="11.654068"><ele>373.0</ele><time>2026-04-26T15:07:02.199Z</time></trkpt><trkpt lat="43.1565823" lon="11.6542271"><ele>375.5</ele><time>2026-04-26T15:07:03.21Z</time></trkpt><trkpt lat="43.1566765" lon="11.6543798"><ele>378.0</ele><time>2026-04-26T15:07:04.2Z</time></trkpt><trkpt lat="43.1567849" lon="11.6545185"><ele>380.5</ele><time>2026-04-26T15:07:05.202Z</time></trkpt><trkpt lat="43.1569098" lon="11.6546362"><ele>383.0</ele><time>2026-04-26T15:07:06.188Z</time></trkpt><trkpt lat="43.1570494" lon="11.6547279"><ele>383.0</ele><time>2026-04-26T15:07:07.192Z</time></trkpt><trkpt lat="43.1571965" lon="11.6548084"><ele>383.0</ele><time>2026-04-26T15:07:08.19Z</time></trkpt><trkpt lat="43.1573457" lon="11.6548857"><ele>383.0</ele><time>2026-04-26T15:07:09.207Z</time></trkpt><trkpt lat="43.1574957" lon="11.6549598"><ele>385.6666666666667</ele><time>2026-04-26T15:07:10.186Z</time></trkpt><trkpt lat="43.1576451" lon="11.6550351"><ele>388.33333333333337</ele><time>2026-04-26T15:07:11.199Z</time></trkpt><trkpt lat="43.157792" lon="11.655114"><ele>391.0</ele><time>2026-04-26T15:07:12.203Z</time></trkpt><trkpt lat="43.1579363" lon="11.6551959"><ele>389.6666666666667</ele><time>2026-04-26T15:07:13.21Z</time></trkpt><trkpt lat="43.1580756" lon="11.6552873"><ele>388.33333333333337</ele><time>2026-04-26T15:07:14.187Z</time></trkpt><trkpt lat="43.158209" lon="11.655395"><ele>387.0</ele><time>2026-04-26T15:07:15.191Z</time></trkpt><trkpt lat="43.1583346" lon="11.6555177"><ele>387.0</ele><time>2026-04-26T15:07:16.198Z</time></trkpt><trkpt lat="43.1584571" lon="11.6556456"><ele>387.0</ele><time>2026-04-26T15:07:17.198Z</time></trkpt><trkpt lat="43.1585794" lon="11.6557728"><ele>387.0</ele><time>2026-04-26T15:07:18.205Z</time></trkpt><trkpt lat="43.1587032" lon="11.6559005"><ele>387.0</ele><time>2026-04-26T15:07:19.198Z</time></trkpt><trkpt lat="43.1588261" lon="11.6560273"><ele>387.0</ele><time>2026-04-26T15:07:20.201Z</time></trkpt><trkpt lat="43.1589485" lon="11.6561506"><ele>387.0</ele><time>2026-04-26T15:07:21.201Z</time></trkpt><trkpt lat="43.1590692" lon="11.6562672"><ele>389.0</ele><time>2026-04-26T15:07:22.205Z</time></trkpt><trkpt lat="43.1591887" lon="11.6563721"><ele>391.0</ele><time>2026-04-26T15:07:23.203Z</time></trkpt><trkpt lat="43.1593073" lon="11.6564631"><ele>393.0</ele><time>2026-04-26T15:07:24.199Z</time></trkpt><trkpt lat="43.1594283" lon="11.6565415"><ele>395.0</ele><time>2026-04-26T15:07:25.196Z</time></trkpt><trkpt lat="43.1595523" lon="11.6566125"><ele>395.0</ele><time>2026-04-26T15:07:26.202Z</time></trkpt><trkpt lat="43.1596831" lon="11.6566755"><ele>395.0</ele><time>2026-04-26T15:07:27.206Z</time></trkpt><trkpt lat="43.1598234" lon="11.6567226"><ele>395.0</ele><time>2026-04-26T15:07:28.2Z</time></trkpt><trkpt lat="43.1599708" lon="11.6567539"><ele>395.0</ele><time>2026-04-26T15:07:29.205Z</time></trkpt><trkpt lat="43.1601197" lon="11.6567761"><ele>396.3333333333333</ele><time>2026-04-26T15:07:30.202Z</time></trkpt><trkpt lat="43.1602716" lon="11.6568139"><ele>397.66666666666663</ele><time>2026-04-26T15:07:31.193Z</time></trkpt><trkpt lat="43.1604252" lon="11.6568478"><ele>399.0</ele><time>2026-04-26T15:07:32.201Z</time></trkpt><trkpt lat="43.1605757" lon="11.6568797"><ele>399.0</ele><time>2026-04-26T15:07:33.208Z</time></trkpt><trkpt lat="43.1607153" lon="11.6568759"><ele>399.0</ele><time>2026-04-26T15:07:34.196Z</time></trkpt><trkpt lat="43.1608536" lon="11.6568479"><ele>399.0</ele><time>2026-04-26T15:07:35.209Z</time></trkpt><trkpt lat="43.1609864" lon="11.6568126"><ele>399.0</ele><time>2026-04-26T15:07:36.194Z</time></trkpt><trkpt lat="43.1611188" lon="11.6567932"><ele>399.0</ele><time>2026-04-26T15:07:37.194Z</time></trkpt><trkpt lat="43.1612493" lon="11.656808"><ele>399.0</ele><time>2026-04-26T15:07:38.204Z</time></trkpt><trkpt lat="43.1613726" lon="11.656864"><ele>399.0</ele><time>2026-04-26T15:07:39.207Z</time></trkpt><trkpt lat="43.1614954" lon="11.6569404"><ele>399.0</ele><time>2026-04-26T15:07:40.194Z</time></trkpt><trkpt lat="43.1615909" lon="11.657088"><ele>403.66666666666663</ele><time>2026-04-26T15:07:41.198Z</time></trkpt><trkpt lat="43.1616803" lon="11.6572432"><ele>408.3333333333333</ele><time>2026-04-26T15:07:42.205Z</time></trkpt><trkpt lat="43.1617654" lon="11.6574159"><ele>413.0</ele><time>2026-04-26T15:07:43.202Z</time></trkpt><trkpt lat="43.1618473" lon="11.6575954"><ele>413.0</ele><time>2026-04-26T15:07:44.2Z</time></trkpt><trkpt lat="43.1619161" lon="11.6577738"><ele>413.0</ele><time>2026-04-26T15:07:45.205Z</time></trkpt><trkpt lat="43.1619852" lon="11.6579513"><ele>413.0</ele><time>2026-04-26T15:07:46.205Z</time></trkpt><trkpt lat="43.1620479" lon="11.6581214"><ele>413.0</ele><time>2026-04-26T15:07:47.203Z</time></trkpt><trkpt lat="43.1621059" lon="11.6582862"><ele>416.59999999999997</ele><time>2026-04-26T15:07:48.186Z</time></trkpt><trkpt lat="43.1621592" lon="11.6584379"><ele>420.2</ele><time>2026-04-26T15:07:49.201Z</time></trkpt><trkpt lat="43.1622112" lon="11.658576"><ele>423.8</ele><time>2026-04-26T15:07:50.19Z</time></trkpt><trkpt lat="43.1622659" lon="11.6587038"><ele>427.4</ele><time>2026-04-26T15:07:51.192Z</time></trkpt><trkpt lat="43.162338" lon="11.6588064"><ele>431.0</ele><time>2026-04-26T15:07:52.188Z</time></trkpt><trkpt lat="43.1624315" lon="11.6588697"><ele>431.5</ele><time>2026-04-26T15:07:53.194Z</time></trkpt><trkpt lat="43.1625388" lon="11.6588857"><ele>432.0</ele><time>2026-04-26T15:07:54.205Z</time></trkpt><trkpt lat="43.1626427" lon="11.6588532"><ele>432.5</ele><time>2026-04-26T15:07:55.195Z</time></trkpt><trkpt lat="43.1627357" lon="11.6587674"><ele>433.0</ele><time>2026-04-26T15:07:56.191Z</time></trkpt><trkpt lat="43.1628214" lon="11.65864"><ele>426.33333333333337</ele><time>2026-04-26T15:07:57.202Z</time></trkpt><trkpt lat="43.1629204" lon="11.6585023"><ele>419.66666666666663</ele><time>2026-04-26T15:07:58.19Z</time></trkpt><trkpt lat="43.1630453" lon="11.6583779"><ele>413.0</ele><time>2026-04-26T15:07:59.201Z</time></trkpt><trkpt lat="43.1631816" lon="11.6582679"><ele>417.0</ele><time>2026-04-26T15:08:00.197Z</time></trkpt><trkpt lat="43.1633238" lon="11.6581786"><ele>421.0</ele><time>2026-04-26T15:08:01.201Z</time></trkpt><trkpt lat="43.1634633" lon="11.6580944"><ele>425.0</ele><time>2026-04-26T15:08:02.197Z</time></trkpt><trkpt lat="43.1636354" lon="11.6581002"><ele>425.0</ele><time>2026-04-26T15:08:03.207Z</time></trkpt><trkpt lat="43.1638123" lon="11.6581138"><ele>425.0</ele><time>2026-04-26T15:08:04.203Z</time></trkpt><trkpt lat="43.1639801" lon="11.6581354"><ele>425.0</ele><time>2026-04-26T15:08:05.191Z</time></trkpt><trkpt lat="43.1641272" lon="11.6581442"><ele>425.75</ele><time>2026-04-26T15:08:06.201Z</time></trkpt><trkpt lat="43.1642663" lon="11.6581523"><ele>426.5</ele><time>2026-04-26T15:08:07.198Z</time></trkpt><trkpt lat="43.1644102" lon="11.6581602"><ele>427.25</ele><time>2026-04-26T15:08:08.201Z</time></trkpt><trkpt lat="43.1645492" lon="11.6581776"><ele>428.0</ele><time>2026-04-26T15:08:09.198Z</time></trkpt><trkpt lat="43.1646779" lon="11.658185"><ele>428.0</ele><time>2026-04-26T15:08:10.205Z</time></trkpt><trkpt lat="43.1647976" lon="11.658191"><ele>427.99999999999994</ele><time>2026-04-26T15:08:11.203Z</time></trkpt><trkpt lat="43.1649111" lon="11.6581965"><ele>427.99999999999994</ele><time>2026-04-26T15:08:12.206Z</time></trkpt><trkpt lat="43.1650214" lon="11.6582049"><ele>428.0</ele><time>2026-04-26T15:08:13.204Z</time></trkpt><trkpt lat="43.1651252" lon="11.6582124"><ele>428.0</ele><time>2026-04-26T15:08:14.205Z</time></trkpt><trkpt lat="43.1652291" lon="11.6582247"><ele>427.0</ele><time>2026-04-26T15:08:15.208Z</time></trkpt><trkpt lat="43.1653365" lon="11.6582589"><ele>426.0</ele><time>2026-04-26T15:08:16.19Z</time></trkpt><trkpt lat="43.1654434" lon="11.658324"><ele>425.0</ele><time>2026-04-26T15:08:17.206Z</time></trkpt><trkpt lat="43.1655477" lon="11.6584138"><ele>424.0</ele><time>2026-04-26T15:08:18.204Z</time></trkpt><trkpt lat="43.1656525" lon="11.6585151"><ele>425.25</ele><time>2026-04-26T15:08:19.2Z</time></trkpt><trkpt lat="43.1657568" lon="11.6586205"><ele>426.5</ele><time>2026-04-26T15:08:20.198Z</time></trkpt><trkpt lat="43.1658599" lon="11.6587226"><ele>427.75</ele><time>2026-04-26T15:08:21.195Z</time></trkpt><trkpt lat="43.1659595" lon="11.658825"><ele>429.0</ele><time>2026-04-26T15:08:22.208Z</time></trkpt><trkpt lat="43.1660517" lon="11.6589372"><ele>429.0</ele><time>2026-04-26T15:08:23.197Z</time></trkpt><trkpt lat="43.1661326" lon="11.6590639"><ele>429.0</ele><time>2026-04-26T15:08:24.199Z</time></trkpt><trkpt lat="43.1662026" lon="11.6592003"><ele>429.0</ele><time>2026-04-26T15:08:25.208Z</time></trkpt><trkpt lat="43.1662655" lon="11.6593363"><ele>429.0</ele><time>2026-04-26T15:08:26.202Z</time></trkpt><trkpt lat="43.1663284" lon="11.6594699"><ele>431.0</ele><time>2026-04-26T15:08:27.198Z</time></trkpt><trkpt lat="43.1663902" lon="11.6596018"><ele>433.0</ele><time>2026-04-26T15:08:28.205Z</time></trkpt><trkpt lat="43.1664508" lon="11.6597339"><ele>435.0</ele><time>2026-04-26T15:08:29.201Z</time></trkpt><trkpt lat="43.1665105" lon="11.6598662"><ele>437.0</ele><time>2026-04-26T15:08:30.197Z</time></trkpt><trkpt lat="43.1665727" lon="11.6600045"><ele>436.0</ele><time>2026-04-26T15:08:31.201Z</time></trkpt><trkpt lat="43.1666358" lon="11.660144"><ele>435.0</ele><time>2026-04-26T15:08:32.211Z</time></trkpt><trkpt lat="43.1666958" lon="11.6602811"><ele>434.0</ele><time>2026-04-26T15:08:33.205Z</time></trkpt><trkpt lat="43.1667526" lon="11.6604136"><ele>433.0</ele><time>2026-04-26T15:08:34.211Z</time></trkpt><trkpt lat="43.1668057" lon="11.6605417"><ele>433.0</ele><time>2026-04-26T15:08:35.206Z</time></trkpt><trkpt lat="43.1668487" lon="11.6606735"><ele>432.99999999999994</ele><time>2026-04-26T15:08:36.211Z</time></trkpt><trkpt lat="43.1668931" lon="11.6608037"><ele>432.99999999999994</ele><time>2026-04-26T15:08:37.193Z</time></trkpt><trkpt lat="43.1668931" lon="11.6609528"><ele>433.0</ele><time>2026-04-26T15:08:38.2Z</time></trkpt><trkpt lat="43.1668844" lon="11.6610977"><ele>433.0</ele><time>2026-04-26T15:08:39.196Z</time></trkpt><trkpt lat="43.1668708" lon="11.6612373"><ele>432.59999999999997</ele><time>2026-04-26T15:08:40.192Z</time></trkpt><trkpt lat="43.1668591" lon="11.6613742"><ele>432.19999999999993</ele><time>2026-04-26T15:08:41.21Z</time></trkpt><trkpt lat="43.1668454" lon="11.6615055"><ele>431.8</ele><time>2026-04-26T15:08:42.195Z</time></trkpt><trkpt lat="43.1668317" lon="11.661635"><ele>431.4</ele><time>2026-04-26T15:08:43.207Z</time></trkpt><trkpt lat="43.1668176" lon="11.6617656"><ele>431.0</ele><time>2026-04-26T15:08:44.195Z</time></trkpt><trkpt lat="43.1668074" lon="11.6618966"><ele>431.4</ele><time>2026-04-26T15:08:45.211Z</time></trkpt><trkpt lat="43.1668064" lon="11.6620323"><ele>431.8</ele><time>2026-04-26T15:08:46.199Z</time></trkpt><trkpt lat="43.1668229" lon="11.6621694"><ele>432.19999999999993</ele><time>2026-04-26T15:08:47.207Z</time></trkpt><trkpt lat="43.1668532" lon="11.6623077"><ele>432.59999999999997</ele><time>2026-04-26T15:08:48.211Z</time></trkpt><trkpt lat="43.1668982" lon="11.6624443"><ele>433.0</ele><time>2026-04-26T15:08:49.206Z</time></trkpt><trkpt lat="43.1669577" lon="11.6625753"><ele>433.0</ele><time>2026-04-26T15:08:50.206Z</time></trkpt><trkpt lat="43.1670246" lon="11.662702"><ele>432.99999999999994</ele><time>2026-04-26T15:08:51.194Z</time></trkpt><trkpt lat="43.1670919" lon="11.6628264"><ele>432.99999999999994</ele><time>2026-04-26T15:08:52.208Z</time></trkpt><trkpt lat="43.1671563" lon="11.6629427"><ele>433.0</ele><time>2026-04-26T15:08:53.207Z</time></trkpt><trkpt lat="43.1672193" lon="11.6630571"><ele>433.0</ele><time>2026-04-26T15:08:54.204Z</time></trkpt><trkpt lat="43.1672803" lon="11.6631697"><ele>432.83333333333337</ele><time>2026-04-26T15:08:55.201Z</time></trkpt><trkpt lat="43.1673377" lon="11.6632727"><ele>432.6666666666667</ele><time>2026-04-26T15:08:56.204Z</time></trkpt><trkpt lat="43.1673909" lon="11.6633653"><ele>432.5</ele><time>2026-04-26T15:08:57.2Z</time></trkpt><trkpt lat="43.1674391" lon="11.6634512"><ele>432.33333333333337</ele><time>2026-04-26T15:08:58.2Z</time></trkpt><trkpt lat="43.1674828" lon="11.6635288"><ele>432.1666666666667</ele><time>2026-04-26T15:08:59.2Z</time></trkpt><trkpt lat="43.1675217" lon="11.6636001"><ele>432.0</ele><time>2026-04-26T15:09:00.209Z</time></trkpt><trkpt lat="43.1675896" lon="11.6637269"><ele>432.0</ele><time>2026-04-26T15:09:02.2Z</time></trkpt><trkpt lat="43.1676285" lon="11.6638053"><ele>432.0</ele><time>2026-04-26T15:09:04.189Z</time></trkpt><trkpt lat="43.1676765" lon="11.663887"><ele>432.0</ele><time>2026-04-26T15:09:09.21Z</time></trkpt><trkpt lat="43.1677326" lon="11.6639816"><ele>432.0</ele><time>2026-04-26T15:09:11.195Z</time></trkpt><trkpt lat="43.1677717" lon="11.6640542"><ele>432.0</ele><time>2026-04-26T15:09:12.201Z</time></trkpt><trkpt lat="43.1678208" lon="11.6641475"><ele>432.0</ele><time>2026-04-26T15:09:13.2Z</time></trkpt><trkpt lat="43.1678791" lon="11.6642632"><ele>432.0</ele><time>2026-04-26T15:09:14.193Z</time></trkpt><trkpt lat="43.1679392" lon="11.6643955"><ele>432.0</ele><time>2026-04-26T15:09:15.196Z</time></trkpt><trkpt lat="43.1679991" lon="11.6645455"><ele>432.0</ele><time>2026-04-26T15:09:16.208Z</time></trkpt><trkpt lat="43.1680577" lon="11.6647041"><ele>432.0</ele><time>2026-04-26T15:09:17.188Z</time></trkpt><trkpt lat="43.1681194" lon="11.6648717"><ele>432.75</ele><time>2026-04-26T15:09:18.204Z</time></trkpt><trkpt lat="43.1681839" lon="11.665047"><ele>433.5</ele><time>2026-04-26T15:09:19.194Z</time></trkpt><trkpt lat="43.1682516" lon="11.6652261"><ele>434.25</ele><time>2026-04-26T15:09:20.192Z</time></trkpt><trkpt lat="43.1683256" lon="11.6654037"><ele>435.0</ele><time>2026-04-26T15:09:21.204Z</time></trkpt><trkpt lat="43.1684161" lon="11.6655706"><ele>430.0</ele><time>2026-04-26T15:09:22.203Z</time></trkpt><trkpt lat="43.1685376" lon="11.6657107"><ele>425.0</ele><time>2026-04-26T15:09:23.207Z</time></trkpt><trkpt lat="43.1686981" lon="11.6658163"><ele>420.0</ele><time>2026-04-26T15:09:24.205Z</time></trkpt><trkpt lat="43.16888" lon="11.6659037"><ele>420.0</ele><time>2026-04-26T15:09:25.209Z</time></trkpt><trkpt lat="43.1690612" lon="11.6659867"><ele>420.0</ele><time>2026-04-26T15:09:26.206Z</time></trkpt><trkpt lat="43.1692327" lon="11.6660662"><ele>420.0</ele><time>2026-04-26T15:09:27.197Z</time></trkpt><trkpt lat="43.1693975" lon="11.6661448"><ele>420.0</ele><time>2026-04-26T15:09:28.208Z</time></trkpt><trkpt lat="43.1695582" lon="11.6662221"><ele>420.0</ele><time>2026-04-26T15:09:29.202Z</time></trkpt><trkpt lat="43.1697178" lon="11.6662976"><ele>420.0</ele><time>2026-04-26T15:09:30.205Z</time></trkpt><trkpt lat="43.1698797" lon="11.6663741"><ele>417.66666666666663</ele><time>2026-04-26T15:09:31.207Z</time></trkpt><trkpt lat="43.1700445" lon="11.6664508"><ele>415.3333333333333</ele><time>2026-04-26T15:09:32.203Z</time></trkpt><trkpt lat="43.1702114" lon="11.6665279"><ele>413.0</ele><time>2026-04-26T15:09:33.203Z</time></trkpt><trkpt lat="43.170383" lon="11.6665868"><ele>413.0</ele><time>2026-04-26T15:09:34.21Z</time></trkpt><trkpt lat="43.170558" lon="11.6666203"><ele>413.0</ele><time>2026-04-26T15:09:35.204Z</time></trkpt><trkpt lat="43.1707417" lon="11.6666433"><ele>413.0</ele><time>2026-04-26T15:09:36.2Z</time></trkpt><trkpt lat="43.1709294" lon="11.6666639"><ele>409.66666666666663</ele><time>2026-04-26T15:09:37.19Z</time></trkpt><trkpt lat="43.1711103" lon="11.6666912"><ele>406.33333333333337</ele><time>2026-04-26T15:09:38.189Z</time></trkpt><trkpt lat="43.1712768" lon="11.6667055"><ele>403.0</ele><time>2026-04-26T15:09:39.207Z</time></trkpt><trkpt lat="43.1714325" lon="11.6666871"><ele>404.33333333333337</ele><time>2026-04-26T15:09:40.192Z</time></trkpt><trkpt lat="43.1715731" lon="11.6666159"><ele>405.66666666666663</ele><time>2026-04-26T15:09:41.205Z</time></trkpt><trkpt lat="43.1716947" lon="11.6664827"><ele>407.0</ele><time>2026-04-26T15:09:42.202Z</time></trkpt><trkpt lat="43.1717983" lon="11.6663167"><ele>407.0</ele><time>2026-04-26T15:09:43.191Z</time></trkpt><trkpt lat="43.1719054" lon="11.6661635"><ele>407.0</ele><time>2026-04-26T15:09:44.208Z</time></trkpt><trkpt lat="43.172034" lon="11.6660488"><ele>407.0</ele><time>2026-04-26T15:09:45.207Z</time></trkpt><trkpt lat="43.1721861" lon="11.6659807"><ele>407.66666666666663</ele><time>2026-04-26T15:09:46.203Z</time></trkpt><trkpt lat="43.1723529" lon="11.6659469"><ele>408.33333333333337</ele><time>2026-04-26T15:09:47.198Z</time></trkpt><trkpt lat="43.1725266" lon="11.6659208"><ele>409.0</ele><time>2026-04-26T15:09:48.202Z</time></trkpt><trkpt lat="43.1727011" lon="11.6658897"><ele>409.0</ele><time>2026-04-26T15:09:49.205Z</time></trkpt><trkpt lat="43.1728724" lon="11.6658665"><ele>409.0</ele><time>2026-04-26T15:09:50.194Z</time></trkpt><trkpt lat="43.1730442" lon="11.665873"><ele>409.0</ele><time>2026-04-26T15:09:51.193Z</time></trkpt><trkpt lat="43.1732174" lon="11.6659158"><ele>410.6666666666667</ele><time>2026-04-26T15:09:52.208Z</time></trkpt><trkpt lat="43.173389" lon="11.6659799"><ele>412.33333333333337</ele><time>2026-04-26T15:09:53.19Z</time></trkpt><trkpt lat="43.1735544" lon="11.6660555"><ele>414.0</ele><time>2026-04-26T15:09:54.207Z</time></trkpt><trkpt lat="43.1737123" lon="11.6661406"><ele>418.0</ele><time>2026-04-26T15:09:55.207Z</time></trkpt><trkpt lat="43.1738618" lon="11.6662332"><ele>422.0</ele><time>2026-04-26T15:09:56.204Z</time></trkpt><trkpt lat="43.1739991" lon="11.666341"><ele>426.0</ele><time>2026-04-26T15:09:57.2Z</time></trkpt><trkpt lat="43.1741129" lon="11.6664576"><ele>427.5</ele><time>2026-04-26T15:09:58.202Z</time></trkpt><trkpt lat="43.1742189" lon="11.6665691"><ele>429.0</ele><time>2026-04-26T15:09:59.195Z</time></trkpt><trkpt lat="43.1743278" lon="11.6666323"><ele>430.5</ele><time>2026-04-26T15:10:00.207Z</time></trkpt><trkpt lat="43.1744451" lon="11.6666353"><ele>432.0</ele><time>2026-04-26T15:10:01.208Z</time></trkpt><trkpt lat="43.1745543" lon="11.6665776"><ele>432.0</ele><time>2026-04-26T15:10:02.204Z</time></trkpt><trkpt lat="43.1746421" lon="11.6664583"><ele>432.0</ele><time>2026-04-26T15:10:03.201Z</time></trkpt><trkpt lat="43.1746984" lon="11.6662974"><ele>432.0</ele><time>2026-04-26T15:10:04.193Z</time></trkpt><trkpt lat="43.1747386" lon="11.6661335"><ele>432.0</ele><time>2026-04-26T15:10:05.209Z</time></trkpt><trkpt lat="43.1747766" lon="11.6659857"><ele>432.8</ele><time>2026-04-26T15:10:06.205Z</time></trkpt><trkpt lat="43.1748118" lon="11.6658474"><ele>433.6</ele><time>2026-04-26T15:10:07.205Z</time></trkpt><trkpt lat="43.1748552" lon="11.6657165"><ele>434.40000000000003</ele><time>2026-04-26T15:10:08.191Z</time></trkpt><trkpt lat="43.1749205" lon="11.6655991"><ele>435.20000000000005</ele><time>2026-04-26T15:10:09.197Z</time></trkpt><trkpt lat="43.1750101" lon="11.6655091"><ele>436.0</ele><time>2026-04-26T15:10:10.191Z</time></trkpt><trkpt lat="43.1751204" lon="11.6654596"><ele>436.0</ele><time>2026-04-26T15:10:11.211Z</time></trkpt><trkpt lat="43.1752421" lon="11.6654572"><ele>436.0</ele><time>2026-04-26T15:10:12.205Z</time></trkpt><trkpt lat="43.175365" lon="11.6655137"><ele>436.0</ele><time>2026-04-26T15:10:13.206Z</time></trkpt><trkpt lat="43.1754773" lon="11.6656298"><ele>436.0</ele><time>2026-04-26T15:10:14.205Z</time></trkpt><trkpt lat="43.1755817" lon="11.6657797"><ele>436.0</ele><time>2026-04-26T15:10:15.202Z</time></trkpt><trkpt lat="43.1756806" lon="11.6659273"><ele>436.0</ele><time>2026-04-26T15:10:16.206Z</time></trkpt><trkpt lat="43.1757751" lon="11.6660658"><ele>436.0</ele><time>2026-04-26T15:10:17.195Z</time></trkpt><trkpt lat="43.1758645" lon="11.666196"><ele>436.0</ele><time>2026-04-26T15:10:18.207Z</time></trkpt><trkpt lat="43.1759488" lon="11.6663185"><ele>440.0</ele><time>2026-04-26T15:10:19.194Z</time></trkpt><trkpt lat="43.1760295" lon="11.6664371"><ele>444.0</ele><time>2026-04-26T15:10:20.204Z</time></trkpt><trkpt lat="43.1761063" lon="11.6665596"><ele>448.0</ele><time>2026-04-26T15:10:21.197Z</time></trkpt><trkpt lat="43.1761785" lon="11.6666921"><ele>452.0</ele><time>2026-04-26T15:10:22.21Z</time></trkpt><trkpt lat="43.1762445" lon="11.6668347"><ele>453.6</ele><time>2026-04-26T15:10:23.212Z</time></trkpt><trkpt lat="43.1763025" lon="11.6669763"><ele>455.20000000000005</ele><time>2026-04-26T15:10:24.207Z</time></trkpt><trkpt lat="43.1763572" lon="11.667111"><ele>456.8</ele><time>2026-04-26T15:10:25.192Z</time></trkpt><trkpt lat="43.1764111" lon="11.6672384"><ele>458.4</ele><time>2026-04-26T15:10:26.195Z</time></trkpt><trkpt lat="43.1764643" lon="11.6673638"><ele>460.0</ele><time>2026-04-26T15:10:27.212Z</time></trkpt><trkpt lat="43.1765175" lon="11.6674893"><ele>461.2</ele><time>2026-04-26T15:10:28.208Z</time></trkpt><trkpt lat="43.1765718" lon="11.6676128"><ele>462.4</ele><time>2026-04-26T15:10:29.203Z</time></trkpt><trkpt lat="43.1766236" lon="11.6677316"><ele>463.6</ele><time>2026-04-26T15:10:30.202Z</time></trkpt><trkpt lat="43.1766789" lon="11.6678469"><ele>464.8</ele><time>2026-04-26T15:10:31.2Z</time></trkpt><trkpt lat="43.1767363" lon="11.6679547"><ele>466.0</ele><time>2026-04-26T15:10:32.206Z</time></trkpt><trkpt lat="43.1767837" lon="11.6680522"><ele>466.83333333333337</ele><time>2026-04-26T15:10:33.203Z</time></trkpt><trkpt lat="43.1768177" lon="11.6681383"><ele>467.6666666666667</ele><time>2026-04-26T15:10:34.204Z</time></trkpt><trkpt lat="43.1768642" lon="11.668278"><ele>468.5</ele><time>2026-04-26T15:10:36.195Z</time></trkpt><trkpt lat="43.1769339" lon="11.6683344"><ele>469.33333333333337</ele><time>2026-04-26T15:10:38.203Z</time></trkpt><trkpt lat="43.1770019" lon="11.6683004"><ele>470.1666666666667</ele><time>2026-04-26T15:10:40.191Z</time></trkpt><trkpt lat="43.1770109" lon="11.6682022"><ele>471.0</ele><time>2026-04-26T15:10:42.201Z</time></trkpt><trkpt lat="43.1769682" lon="11.6680596"><ele>471.0</ele><time>2026-04-26T15:10:44.202Z</time></trkpt><trkpt lat="43.1769238" lon="11.6679554"><ele>471.0</ele><time>2026-04-26T15:10:45.192Z</time></trkpt><trkpt lat="43.1768734" lon="11.6678619"><ele>471.0</ele><time>2026-04-26T15:10:46.208Z</time></trkpt><trkpt lat="43.1768245" lon="11.6677709"><ele>471.0</ele><time>2026-04-26T15:10:47.193Z</time></trkpt><trkpt lat="43.176773" lon="11.6676818"><ele>471.0</ele><time>2026-04-26T15:10:48.191Z</time></trkpt><trkpt lat="43.1767256" lon="11.6675875"><ele>471.0</ele><time>2026-04-26T15:10:49.201Z</time></trkpt><trkpt lat="43.1766953" lon="11.6674887"><ele>470.5</ele><time>2026-04-26T15:10:50.192Z</time></trkpt><trkpt lat="43.1766834" lon="11.6673967"><ele>470.0</ele><time>2026-04-26T15:10:51.208Z</time></trkpt><trkpt lat="43.1766875" lon="11.6673104"><ele>469.5</ele><time>2026-04-26T15:10:52.198Z</time></trkpt><trkpt lat="43.1767253" lon="11.6671524"><ele>469.0</ele><time>2026-04-26T15:10:54.203Z</time></trkpt><trkpt lat="43.1767551" lon="11.6670747"><ele>468.5</ele><time>2026-04-26T15:10:55.199Z</time></trkpt><trkpt lat="43.1767794" lon="11.6669892"><ele>468.0</ele><time>2026-04-26T15:10:56.192Z</time></trkpt><trkpt lat="43.1768018" lon="11.6669019"><ele>468.0</ele><time>2026-04-26T15:10:57.2Z</time></trkpt><trkpt lat="43.1768103" lon="11.6667761"><ele>468.0</ele><time>2026-04-26T15:10:58.207Z</time></trkpt><trkpt lat="43.1768118" lon="11.666648"><ele>468.0</ele><time>2026-04-26T15:10:59.206Z</time></trkpt><trkpt lat="43.1768076" lon="11.6665321"><ele>468.0</ele><time>2026-04-26T15:11:00.19Z</time></trkpt><trkpt lat="43.1768011" lon="11.6664306"><ele>468.0</ele><time>2026-04-26T15:11:01.207Z</time></trkpt><trkpt lat="43.176795" lon="11.6663341"><ele>468.0</ele><time>2026-04-26T15:11:02.205Z</time></trkpt><trkpt lat="43.1767947" lon="11.6662409"><ele>468.0</ele><time>2026-04-26T15:11:03.21Z</time></trkpt><trkpt lat="43.1768004" lon="11.6661488"><ele>468.00000000000006</ele><time>2026-04-26T15:11:04.205Z</time></trkpt><trkpt lat="43.176808" lon="11.66606"><ele>468.0</ele><time>2026-04-26T15:11:05.204Z</time></trkpt><trkpt lat="43.1768279" lon="11.6659731"><ele>468.0</ele><time>2026-04-26T15:11:06.205Z</time></trkpt><trkpt lat="43.1768585" lon="11.6658943"><ele>468.00000000000006</ele><time>2026-04-26T15:11:07.208Z</time></trkpt><trkpt lat="43.1769027" lon="11.6658234"><ele>468.0</ele><time>2026-04-26T15:11:08.203Z</time></trkpt><trkpt lat="43.1769527" lon="11.6657634"><ele>468.0</ele><time>2026-04-26T15:11:09.204Z</time></trkpt><trkpt lat="43.1770076" lon="11.6657014"><ele>467.5</ele><time>2026-04-26T15:11:10.201Z</time></trkpt><trkpt lat="43.1770684" lon="11.6656383"><ele>467.0</ele><time>2026-04-26T15:11:11.194Z</time></trkpt><trkpt lat="43.1771339" lon="11.6655694"><ele>466.5</ele><time>2026-04-26T15:11:12.213Z</time></trkpt><trkpt lat="43.1772012" lon="11.6655029"><ele>466.0</ele><time>2026-04-26T15:11:13.192Z</time></trkpt><trkpt lat="43.1772693" lon="11.6654373"><ele>465.5</ele><time>2026-04-26T15:11:14.192Z</time></trkpt><trkpt lat="43.1773399" lon="11.6653715"><ele>465.0</ele><time>2026-04-26T15:11:15.207Z</time></trkpt><trkpt lat="43.1774124" lon="11.6653106"><ele>467.1666666666667</ele><time>2026-04-26T15:11:16.213Z</time></trkpt><trkpt lat="43.1774828" lon="11.6652485"><ele>469.33333333333337</ele><time>2026-04-26T15:11:17.224Z</time></trkpt><trkpt lat="43.1775466" lon="11.6651916"><ele>471.5</ele><time>2026-04-26T15:11:18.205Z</time></trkpt><trkpt lat="43.1776129" lon="11.6650603"><ele>473.6666666666667</ele><time>2026-04-26T15:11:20.193Z</time></trkpt><trkpt lat="43.1775956" lon="11.6649722"><ele>475.83333333333337</ele><time>2026-04-26T15:11:21.21Z</time></trkpt><trkpt lat="43.1775665" lon="11.6648548"><ele>478.0</ele><time>2026-04-26T15:11:22.2Z</time></trkpt><trkpt lat="43.1775392" lon="11.6647402"><ele>478.00000000000006</ele><time>2026-04-26T15:11:23.195Z</time></trkpt><trkpt lat="43.1775171" lon="11.6646373"><ele>478.0</ele><time>2026-04-26T15:11:24.19Z</time></trkpt><trkpt lat="43.1775003" lon="11.6645457"><ele>478.0</ele><time>2026-04-26T15:11:25.21Z</time></trkpt><trkpt lat="43.1774936" lon="11.6644526"><ele>478.0</ele><time>2026-04-26T15:11:26.207Z</time></trkpt><trkpt lat="43.1774943" lon="11.6643639"><ele>478.00000000000006</ele><time>2026-04-26T15:11:27.192Z</time></trkpt><trkpt lat="43.1774938" lon="11.6641983"><ele>478.0</ele><time>2026-04-26T15:11:29.209Z</time></trkpt><trkpt lat="43.1774655" lon="11.6640433"><ele>478.2</ele><time>2026-04-26T15:11:31.212Z</time></trkpt><trkpt lat="43.1774331" lon="11.6639038"><ele>478.4</ele><time>2026-04-26T15:11:33.195Z</time></trkpt><trkpt lat="43.1774428" lon="11.6637503"><ele>478.59999999999997</ele><time>2026-04-26T15:11:35.202Z</time></trkpt><trkpt lat="43.1774763" lon="11.6636043"><ele>478.79999999999995</ele><time>2026-04-26T15:11:37.209Z</time></trkpt><trkpt lat="43.1775248" lon="11.6634654"><ele>479.0</ele><time>2026-04-26T15:11:39.208Z</time></trkpt><trkpt lat="43.1775618" lon="11.6633885"><ele>478.3333333333333</ele><time>2026-04-26T15:11:40.204Z</time></trkpt><trkpt lat="43.177599" lon="11.6633139"><ele>477.66666666666663</ele><time>2026-04-26T15:11:41.204Z</time></trkpt><trkpt lat="43.1776384" lon="11.6632391"><ele>477.0</ele><time>2026-04-26T15:11:42.194Z</time></trkpt><trkpt lat="43.1776718" lon="11.6631637"><ele>476.33333333333337</ele><time>2026-04-26T15:11:43.202Z</time></trkpt><trkpt lat="43.1777086" lon="11.6630036"><ele>475.6666666666667</ele><time>2026-04-26T15:11:45.204Z</time></trkpt><trkpt lat="43.1777059" lon="11.6629123"><ele>475.0</ele><time>2026-04-26T15:11:46.185Z</time></trkpt><trkpt lat="43.1776982" lon="11.662809"><ele>474.0</ele><time>2026-04-26T15:11:47.198Z</time></trkpt><trkpt lat="43.1776885" lon="11.6627137"><ele>473.00000000000006</ele><time>2026-04-26T15:11:48.199Z</time></trkpt><trkpt lat="43.177666" lon="11.6626155"><ele>472.0</ele><time>2026-04-26T15:11:49.204Z</time></trkpt><trkpt lat="43.1776411" lon="11.6625189"><ele>471.0</ele><time>2026-04-26T15:11:50.188Z</time></trkpt><trkpt lat="43.1776141" lon="11.6624274"><ele>470.00000000000006</ele><time>2026-04-26T15:11:51.208Z</time></trkpt><trkpt lat="43.1775949" lon="11.6623382"><ele>469.0</ele><time>2026-04-26T15:11:52.206Z</time></trkpt><trkpt lat="43.1775819" lon="11.6622501"><ele>468.0</ele><time>2026-04-26T15:11:53.19Z</time></trkpt><trkpt lat="43.177568" lon="11.6621651"><ele>468.0</ele><time>2026-04-26T15:11:54.188Z</time></trkpt><trkpt lat="43.1775449" lon="11.6620085"><ele>467.99999999999994</ele><time>2026-04-26T15:11:56.193Z</time></trkpt><trkpt lat="43.1775493" lon="11.6618275"><ele>467.99999999999994</ele><time>2026-04-26T15:11:58.191Z</time></trkpt><trkpt lat="43.1775566" lon="11.6617235"><ele>468.0</ele><time>2026-04-26T15:11:59.205Z</time></trkpt><trkpt lat="43.1775656" lon="11.6616199"><ele>468.0</ele><time>2026-04-26T15:12:00.203Z</time></trkpt><trkpt lat="43.1775754" lon="11.6615207"><ele>466.0</ele><time>2026-04-26T15:12:01.205Z</time></trkpt><trkpt lat="43.1775869" lon="11.6614275"><ele>463.99999999999994</ele><time>2026-04-26T15:12:02.208Z</time></trkpt><trkpt lat="43.1775999" lon="11.6613364"><ele>461.99999999999994</ele><time>2026-04-26T15:12:03.191Z</time></trkpt><trkpt lat="43.1776171" lon="11.6612501"><ele>460.0</ele><time>2026-04-26T15:12:04.208Z</time></trkpt><trkpt lat="43.1776797" lon="11.6611108"><ele>458.0</ele><time>2026-04-26T15:12:06.216Z</time></trkpt><trkpt lat="43.1777738" lon="11.6609847"><ele>457.2857142857143</ele><time>2026-04-26T15:12:08.206Z</time></trkpt><trkpt lat="43.1778301" lon="11.6609287"><ele>456.57142857142856</ele><time>2026-04-26T15:12:09.206Z</time></trkpt><trkpt lat="43.1778807" lon="11.6608495"><ele>455.85714285714283</ele><time>2026-04-26T15:12:10.198Z</time></trkpt><trkpt lat="43.1779349" lon="11.6607735"><ele>455.1428571428571</ele><time>2026-04-26T15:12:11.191Z</time></trkpt><trkpt lat="43.1779837" lon="11.660705"><ele>454.42857142857144</ele><time>2026-04-26T15:12:12.202Z</time></trkpt><trkpt lat="43.1780312" lon="11.6606345"><ele>453.71428571428567</ele><time>2026-04-26T15:12:13.209Z</time></trkpt><trkpt lat="43.1780577" lon="11.6605407"><ele>452.99999999999994</ele><time>2026-04-26T15:12:14.202Z</time></trkpt><trkpt lat="43.1780803" lon="11.660446"><ele>452.99999999999994</ele><time>2026-04-26T15:12:15.204Z</time></trkpt><trkpt lat="43.1780987" lon="11.6603495"><ele>453.0</ele><time>2026-04-26T15:12:16.193Z</time></trkpt><trkpt lat="43.1781159" lon="11.6602507"><ele>452.99999999999994</ele><time>2026-04-26T15:12:17.189Z</time></trkpt><trkpt lat="43.1781119" lon="11.6601553"><ele>452.99999999999994</ele><time>2026-04-26T15:12:18.195Z</time></trkpt><trkpt lat="43.1781081" lon="11.6600566"><ele>453.0</ele><time>2026-04-26T15:12:19.205Z</time></trkpt><trkpt lat="43.1781028" lon="11.6599669"><ele>452.99999999999994</ele><time>2026-04-26T15:12:20.202Z</time></trkpt><trkpt lat="43.1781" lon="11.6598704"><ele>452.99999999999994</ele><time>2026-04-26T15:12:21.195Z</time></trkpt><trkpt lat="43.1781056" lon="11.659772"><ele>452.3333333333333</ele><time>2026-04-26T15:12:22.2Z</time></trkpt><trkpt lat="43.1781073" lon="11.6596694"><ele>451.66666666666663</ele><time>2026-04-26T15:12:23.2Z</time></trkpt><trkpt lat="43.1780988" lon="11.6595644"><ele>451.0</ele><time>2026-04-26T15:12:24.203Z</time></trkpt><trkpt lat="43.178088" lon="11.6594586"><ele>450.3333333333333</ele><time>2026-04-26T15:12:25.198Z</time></trkpt><trkpt lat="43.1780661" lon="11.659354"><ele>449.66666666666663</ele><time>2026-04-26T15:12:26.213Z</time></trkpt><trkpt lat="43.1780532" lon="11.6592487"><ele>449.0</ele><time>2026-04-26T15:12:27.205Z</time></trkpt><trkpt lat="43.1780445" lon="11.6591457"><ele>447.8333333333333</ele><time>2026-04-26T15:12:28.197Z</time></trkpt><trkpt lat="43.178034" lon="11.6590372"><ele>446.66666666666663</ele><time>2026-04-26T15:12:29.191Z</time></trkpt><trkpt lat="43.1780233" lon="11.6589256"><ele>445.5</ele><time>2026-04-26T15:12:30.206Z</time></trkpt><trkpt lat="43.1780132" lon="11.6588193"><ele>444.33333333333337</ele><time>2026-04-26T15:12:31.196Z</time></trkpt><trkpt lat="43.1780039" lon="11.6587211"><ele>443.1666666666667</ele><time>2026-04-26T15:12:32.198Z</time></trkpt><trkpt lat="43.1779951" lon="11.6586309"><ele>442.0</ele><time>2026-04-26T15:12:33.198Z</time></trkpt><trkpt lat="43.177985" lon="11.6584824"><ele>440.8</ele><time>2026-04-26T15:12:35.204Z</time></trkpt><trkpt lat="43.1780248" lon="11.6583362"><ele>439.6</ele><time>2026-04-26T15:12:37.209Z</time></trkpt><trkpt lat="43.1780853" lon="11.6582483"><ele>438.40000000000003</ele><time>2026-04-26T15:12:39.193Z</time></trkpt><trkpt lat="43.1781922" lon="11.658211"><ele>437.20000000000005</ele><time>2026-04-26T15:12:41.212Z</time></trkpt><trkpt lat="43.1782904" lon="11.6581386"><ele>436.0</ele><time>2026-04-26T15:12:43.205Z</time></trkpt><trkpt lat="43.1783195" lon="11.6580598"><ele>436.0</ele><time>2026-04-26T15:12:44.209Z</time></trkpt><trkpt lat="43.1783873" lon="11.6579216"><ele>436.0</ele><time>2026-04-26T15:12:46.206Z</time></trkpt><trkpt lat="43.1784814" lon="11.6578336"><ele>436.0</ele><time>2026-04-26T15:12:48.21Z</time></trkpt><trkpt lat="43.1785888" lon="11.6577884"><ele>436.0</ele><time>2026-04-26T15:12:50.207Z</time></trkpt><trkpt lat="43.1786896" lon="11.6577594"><ele>433.8</ele><time>2026-04-26T15:12:52.196Z</time></trkpt><trkpt lat="43.1787697" lon="11.6576915"><ele>431.6</ele><time>2026-04-26T15:12:54.198Z</time></trkpt><trkpt lat="43.1788012" lon="11.6575312"><ele>429.4</ele><time>2026-04-26T15:12:56.201Z</time></trkpt><trkpt lat="43.1788129" lon="11.6574057"><ele>427.2</ele><time>2026-04-26T15:12:57.204Z</time></trkpt><trkpt lat="43.1788386" lon="11.6572814"><ele>425.0</ele><time>2026-04-26T15:12:58.201Z</time></trkpt><trkpt lat="43.1788681" lon="11.6571804"><ele>424.99999999999994</ele><time>2026-04-26T15:12:59.205Z</time></trkpt><trkpt lat="43.1788981" lon="11.657097"><ele>425.0</ele><time>2026-04-26T15:13:00.196Z</time></trkpt><trkpt lat="43.1789435" lon="11.657012"><ele>425.0</ele><time>2026-04-26T15:13:01.207Z</time></trkpt><trkpt lat="43.1789947" lon="11.6569341"><ele>425.0</ele><time>2026-04-26T15:13:02.196Z</time></trkpt><trkpt lat="43.1790483" lon="11.6568587"><ele>424.99999999999994</ele><time>2026-04-26T15:13:03.212Z</time></trkpt><trkpt lat="43.1791025" lon="11.6567816"><ele>425.0</ele><time>2026-04-26T15:13:04.196Z</time></trkpt><trkpt lat="43.1791595" lon="11.6567035"><ele>424.85714285714283</ele><time>2026-04-26T15:13:05.201Z</time></trkpt><trkpt lat="43.1792105" lon="11.656619"><ele>424.71428571428567</ele><time>2026-04-26T15:13:06.197Z</time></trkpt><trkpt lat="43.1792569" lon="11.6565356"><ele>424.57142857142856</ele><time>2026-04-26T15:13:07.192Z</time></trkpt><trkpt lat="43.1793006" lon="11.6564578"><ele>424.42857142857144</ele><time>2026-04-26T15:13:08.203Z</time></trkpt><trkpt lat="43.1793378" lon="11.656378"><ele>424.2857142857143</ele><time>2026-04-26T15:13:09.206Z</time></trkpt><trkpt lat="43.179372" lon="11.6562895"><ele>424.14285714285717</ele><time>2026-04-26T15:13:10.195Z</time></trkpt><trkpt lat="43.1794039" lon="11.6561956"><ele>424.0</ele><time>2026-04-26T15:13:11.199Z</time></trkpt><trkpt lat="43.1794306" lon="11.6561034"><ele>421.79999999999995</ele><time>2026-04-26T15:13:12.214Z</time></trkpt><trkpt lat="43.1794565" lon="11.6560195"><ele>419.59999999999997</ele><time>2026-04-26T15:13:13.208Z</time></trkpt><trkpt lat="43.1795095" lon="11.6558841"><ele>417.4</ele><time>2026-04-26T15:13:15.194Z</time></trkpt><trkpt lat="43.1795645" lon="11.6557596"><ele>415.2</ele><time>2026-04-26T15:13:17.206Z</time></trkpt><trkpt lat="43.1796426" lon="11.655628"><ele>413.0</ele><time>2026-04-26T15:13:19.2Z</time></trkpt><trkpt lat="43.1796895" lon="11.6555592"><ele>412.99999999999994</ele><time>2026-04-26T15:13:20.208Z</time></trkpt><trkpt lat="43.1797338" lon="11.6554969"><ele>413.0</ele><time>2026-04-26T15:13:21.196Z</time></trkpt><trkpt lat="43.1797957" lon="11.6554314"><ele>413.0</ele><time>2026-04-26T15:13:22.209Z</time></trkpt><trkpt lat="43.1798522" lon="11.6553754"><ele>413.0</ele><time>2026-04-26T15:13:23.187Z</time></trkpt><trkpt lat="43.1799563" lon="11.6553138"><ele>412.99999999999994</ele><time>2026-04-26T15:13:25.199Z</time></trkpt><trkpt lat="43.1800389" lon="11.655264"><ele>413.0</ele><time>2026-04-26T15:13:27.214Z</time></trkpt><trkpt lat="43.1801041" lon="11.6552323"><ele>413.49999999999994</ele><time>2026-04-26T15:13:29.188Z</time></trkpt><trkpt lat="43.1801869" lon="11.6552074"><ele>414.0</ele><time>2026-04-26T15:13:31.207Z</time></trkpt><trkpt lat="43.1802559" lon="11.6551958"><ele>414.5</ele><time>2026-04-26T15:13:32.207Z</time></trkpt><trkpt lat="43.1803221" lon="11.6551853"><ele>415.0</ele><time>2026-04-26T15:13:33.205Z</time></trkpt><trkpt lat="43.1804355" lon="11.6551573"><ele>415.49999999999994</ele><time>2026-04-26T15:13:35.192Z</time></trkpt><trkpt lat="43.1805458" lon="11.655127"><ele>416.0</ele><time>2026-04-26T15:13:37.194Z</time></trkpt><trkpt lat="43.1806571" lon="11.6551045"><ele>416.66666666666663</ele><time>2026-04-26T15:13:39.19Z</time></trkpt><trkpt lat="43.1807806" lon="11.6550788"><ele>417.3333333333333</ele><time>2026-04-26T15:13:41.195Z</time></trkpt><trkpt lat="43.1808456" lon="11.6550641"><ele>418.0</ele><time>2026-04-26T15:13:42.192Z</time></trkpt><trkpt lat="43.180909" lon="11.6550481"><ele>418.66666666666663</ele><time>2026-04-26T15:13:43.2Z</time></trkpt><trkpt lat="43.180971" lon="11.6550308"><ele>419.3333333333333</ele><time>2026-04-26T15:13:44.195Z</time></trkpt><trkpt lat="43.1810777" lon="11.6549969"><ele>420.0</ele><time>2026-04-26T15:13:46.202Z</time></trkpt><trkpt lat="43.1811529" lon="11.6549496"><ele>420.0</ele><time>2026-04-26T15:13:48.192Z</time></trkpt><trkpt lat="43.1812089" lon="11.6549055"><ele>420.0</ele><time>2026-04-26T15:13:50.189Z</time></trkpt><trkpt lat="43.1812733" lon="11.6548399"><ele>420.0</ele><time>2026-04-26T15:13:52.204Z</time></trkpt><trkpt lat="43.1813385" lon="11.6547683"><ele>420.0</ele><time>2026-04-26T15:13:54.207Z</time></trkpt><trkpt lat="43.1813812" lon="11.6546931"><ele>420.0</ele><time>2026-04-26T15:13:56.19Z</time></trkpt><trkpt lat="43.1814042" lon="11.6546057"><ele>420.0</ele><time>2026-04-26T15:13:58.196Z</time></trkpt><trkpt lat="43.1813714" lon="11.654496"><ele>418.4</ele><time>2026-04-26T15:14:00.2Z</time></trkpt><trkpt lat="43.1813414" lon="11.6543871"><ele>416.8</ele><time>2026-04-26T15:14:02.2Z</time></trkpt><trkpt lat="43.1813446" lon="11.6542828"><ele>415.20000000000005</ele><time>2026-04-26T15:14:04.189Z</time></trkpt><trkpt lat="43.1813883" lon="11.6541839"><ele>413.6</ele><time>2026-04-26T15:14:06.207Z</time></trkpt><trkpt lat="43.1814913" lon="11.6541259"><ele>412.0</ele><time>2026-04-26T15:14:08.208Z</time></trkpt><trkpt lat="43.1815984" lon="11.6540994"><ele>412.0</ele><time>2026-04-26T15:14:10.209Z</time></trkpt><trkpt lat="43.181709" lon="11.6541154"><ele>412.0</ele><time>2026-04-26T15:14:12.207Z</time></trkpt><trkpt lat="43.1818091" lon="11.6541156"><ele>412.0</ele><time>2026-04-26T15:14:14.209Z</time></trkpt><trkpt lat="43.1819064" lon="11.654077"><ele>412.0</ele><time>2026-04-26T15:14:16.212Z</time></trkpt><trkpt lat="43.1820022" lon="11.6539639"><ele>412.0</ele><time>2026-04-26T15:14:18.206Z</time></trkpt><trkpt lat="43.1820591" lon="11.6539038"><ele>411.99999999999994</ele><time>2026-04-26T15:14:19.208Z</time></trkpt><trkpt lat="43.182117" lon="11.6538409"><ele>412.0</ele><time>2026-04-26T15:14:20.21Z</time></trkpt><trkpt lat="43.1821754" lon="11.6537795"><ele>412.0</ele><time>2026-04-26T15:14:21.211Z</time></trkpt><trkpt lat="43.1822293" lon="11.6537115"><ele>412.0</ele><time>2026-04-26T15:14:22.207Z</time></trkpt><trkpt lat="43.1822699" lon="11.6536339"><ele>412.0</ele><time>2026-04-26T15:14:23.21Z</time></trkpt><trkpt lat="43.1822994" lon="11.6535503"><ele>411.99999999999994</ele><time>2026-04-26T15:14:24.205Z</time></trkpt><trkpt lat="43.182321" lon="11.6534653"><ele>412.0</ele><time>2026-04-26T15:14:25.196Z</time></trkpt><trkpt lat="43.1823337" lon="11.6533771"><ele>410.50000000000006</ele><time>2026-04-26T15:14:26.205Z</time></trkpt><trkpt lat="43.1823369" lon="11.6532851"><ele>409.0</ele><time>2026-04-26T15:14:27.196Z</time></trkpt><trkpt lat="43.1823393" lon="11.6531906"><ele>407.5</ele><time>2026-04-26T15:14:28.193Z</time></trkpt><trkpt lat="43.1823339" lon="11.6530866"><ele>406.0</ele><time>2026-04-26T15:14:29.204Z</time></trkpt><trkpt lat="43.1823291" lon="11.6529712"><ele>404.50000000000006</ele><time>2026-04-26T15:14:30.205Z</time></trkpt><trkpt lat="43.1823257" lon="11.6528467"><ele>403.0</ele><time>2026-04-26T15:14:31.204Z</time></trkpt><trkpt lat="43.1823222" lon="11.6527213"><ele>401.83333333333337</ele><time>2026-04-26T15:14:32.197Z</time></trkpt><trkpt lat="43.18232" lon="11.6525983"><ele>400.6666666666667</ele><time>2026-04-26T15:14:33.199Z</time></trkpt><trkpt lat="43.1823183" lon="11.6524805"><ele>399.5</ele><time>2026-04-26T15:14:34.194Z</time></trkpt><trkpt lat="43.1823189" lon="11.6523636"><ele>398.33333333333337</ele><time>2026-04-26T15:14:35.209Z</time></trkpt><trkpt lat="43.1823175" lon="11.652245"><ele>397.1666666666667</ele><time>2026-04-26T15:14:36.197Z</time></trkpt><trkpt lat="43.1823144" lon="11.6521227"><ele>396.0</ele><time>2026-04-26T15:14:37.208Z</time></trkpt><trkpt lat="43.1823105" lon="11.6519975"><ele>395.3333333333333</ele><time>2026-04-26T15:14:38.207Z</time></trkpt><trkpt lat="43.1823087" lon="11.651872"><ele>394.66666666666663</ele><time>2026-04-26T15:14:39.212Z</time></trkpt><trkpt lat="43.1823092" lon="11.6517541"><ele>394.0</ele><time>2026-04-26T15:14:40.189Z</time></trkpt><trkpt lat="43.1823149" lon="11.6516407"><ele>393.3333333333333</ele><time>2026-04-26T15:14:41.203Z</time></trkpt><trkpt lat="43.1823264" lon="11.6515268"><ele>392.66666666666663</ele><time>2026-04-26T15:14:42.207Z</time></trkpt><trkpt lat="43.1823485" lon="11.651415"><ele>392.0</ele><time>2026-04-26T15:14:43.21Z</time></trkpt><trkpt lat="43.1823822" lon="11.6513063"><ele>392.85714285714283</ele><time>2026-04-26T15:14:44.194Z</time></trkpt><trkpt lat="43.1824217" lon="11.6512042"><ele>393.7142857142857</ele><time>2026-04-26T15:14:45.204Z</time></trkpt><trkpt lat="43.1824639" lon="11.6511083"><ele>394.57142857142856</ele><time>2026-04-26T15:14:46.205Z</time></trkpt><trkpt lat="43.1825086" lon="11.6510245"><ele>395.42857142857144</ele><time>2026-04-26T15:14:47.212Z</time></trkpt><trkpt lat="43.182557" lon="11.6509598"><ele>396.2857142857143</ele><time>2026-04-26T15:14:48.211Z</time></trkpt><trkpt lat="43.1826154" lon="11.6509224"><ele>397.1428571428571</ele><time>2026-04-26T15:14:49.191Z</time></trkpt><trkpt lat="43.182684" lon="11.6509178"><ele>398.0</ele><time>2026-04-26T15:14:50.208Z</time></trkpt><trkpt lat="43.1827619" lon="11.650947"><ele>398.0</ele><time>2026-04-26T15:14:51.206Z</time></trkpt><trkpt lat="43.1828493" lon="11.6509804"><ele>398.0</ele><time>2026-04-26T15:14:52.197Z</time></trkpt><trkpt lat="43.1829401" lon="11.651035"><ele>398.0</ele><time>2026-04-26T15:14:53.188Z</time></trkpt><trkpt lat="43.1830367" lon="11.6510759"><ele>398.0</ele><time>2026-04-26T15:14:54.204Z</time></trkpt><trkpt lat="43.1831258" lon="11.6511062"><ele>398.0</ele><time>2026-04-26T15:14:55.21Z</time></trkpt><trkpt lat="43.1832112" lon="11.6511252"><ele>397.66666666666663</ele><time>2026-04-26T15:14:56.193Z</time></trkpt><trkpt lat="43.1832829" lon="11.6511365"><ele>397.3333333333333</ele><time>2026-04-26T15:14:57.21Z</time></trkpt><trkpt lat="43.1833836" lon="11.6511313"><ele>397.0</ele><time>2026-04-26T15:14:59.206Z</time></trkpt><trkpt lat="43.1834646" lon="11.6511133"><ele>396.66666666666663</ele><time>2026-04-26T15:15:01.194Z</time></trkpt><trkpt lat="43.1835406" lon="11.6510962"><ele>396.3333333333333</ele><time>2026-04-26T15:15:03.214Z</time></trkpt><trkpt lat="43.1836054" lon="11.6510688"><ele>396.0</ele><time>2026-04-26T15:15:05.211Z</time></trkpt><trkpt lat="43.1836889" lon="11.6510214"><ele>396.0</ele><time>2026-04-26T15:15:07.192Z</time></trkpt><trkpt lat="43.1837512" lon="11.6509822"><ele>396.0</ele><time>2026-04-26T15:15:08.197Z</time></trkpt><trkpt lat="43.1838231" lon="11.650937"><ele>396.0</ele><time>2026-04-26T15:15:09.208Z</time></trkpt><trkpt lat="43.1838974" lon="11.650891"><ele>396.0</ele><time>2026-04-26T15:15:10.208Z</time></trkpt><trkpt lat="43.1839713" lon="11.6508449"><ele>396.0</ele><time>2026-04-26T15:15:11.205Z</time></trkpt><trkpt lat="43.1840475" lon="11.650794"><ele>396.0</ele><time>2026-04-26T15:15:12.2Z</time></trkpt><trkpt lat="43.1841288" lon="11.6507416"><ele>396.20000000000005</ele><time>2026-04-26T15:15:13.194Z</time></trkpt><trkpt lat="43.1842154" lon="11.6506849"><ele>396.40000000000003</ele><time>2026-04-26T15:15:14.213Z</time></trkpt><trkpt lat="43.184305" lon="11.6506269"><ele>396.6</ele><time>2026-04-26T15:15:15.202Z</time></trkpt><trkpt lat="43.1843951" lon="11.6505691"><ele>396.8</ele><time>2026-04-26T15:15:16.204Z</time></trkpt><trkpt lat="43.1844785" lon="11.6505156"><ele>397.0</ele><time>2026-04-26T15:15:17.209Z</time></trkpt><trkpt lat="43.1845556" lon="11.6504625"><ele>397.0</ele><time>2026-04-26T15:15:18.201Z</time></trkpt><trkpt lat="43.1846263" lon="11.650397"><ele>397.0</ele><time>2026-04-26T15:15:19.205Z</time></trkpt><trkpt lat="43.1846919" lon="11.6503097"><ele>397.0</ele><time>2026-04-26T15:15:20.21Z</time></trkpt><trkpt lat="43.184752" lon="11.6502002"><ele>397.0</ele><time>2026-04-26T15:15:21.211Z</time></trkpt><trkpt lat="43.1848066" lon="11.6500718"><ele>397.0</ele><time>2026-04-26T15:15:22.194Z</time></trkpt><trkpt lat="43.1848604" lon="11.6499327"><ele>394.0</ele><time>2026-04-26T15:15:23.209Z</time></trkpt><trkpt lat="43.1849161" lon="11.649786"><ele>391.0</ele><time>2026-04-26T15:15:24.206Z</time></trkpt><trkpt lat="43.1849838" lon="11.6496142"><ele>388.0</ele><time>2026-04-26T15:15:25.202Z</time></trkpt><trkpt lat="43.1850524" lon="11.6494224"><ele>385.0</ele><time>2026-04-26T15:15:26.2Z</time></trkpt><trkpt lat="43.185117" lon="11.6492418"><ele>384.5</ele><time>2026-04-26T15:15:27.203Z</time></trkpt><trkpt lat="43.1851775" lon="11.6490752"><ele>384.0</ele><time>2026-04-26T15:15:28.2Z</time></trkpt><trkpt lat="43.1852351" lon="11.648922"><ele>383.5</ele><time>2026-04-26T15:15:29.195Z</time></trkpt><trkpt lat="43.1852925" lon="11.6487717"><ele>383.0</ele><time>2026-04-26T15:15:30.204Z</time></trkpt><trkpt lat="43.1853414" lon="11.6486274"><ele>382.79999999999995</ele><time>2026-04-26T15:15:31.193Z</time></trkpt><trkpt lat="43.1853779" lon="11.6484868"><ele>382.6</ele><time>2026-04-26T15:15:32.199Z</time></trkpt><trkpt lat="43.1854138" lon="11.6483447"><ele>382.4</ele><time>2026-04-26T15:15:33.191Z</time></trkpt><trkpt lat="43.1854254" lon="11.6481965"><ele>382.20000000000005</ele><time>2026-04-26T15:15:34.189Z</time></trkpt><trkpt lat="43.1854354" lon="11.6480445"><ele>382.0</ele><time>2026-04-26T15:15:35.202Z</time></trkpt><trkpt lat="43.1854282" lon="11.6478861"><ele>381.8</ele><time>2026-04-26T15:15:36.203Z</time></trkpt><trkpt lat="43.1854208" lon="11.6477192"><ele>381.6</ele><time>2026-04-26T15:15:37.196Z</time></trkpt><trkpt lat="43.1854143" lon="11.6475562"><ele>381.40000000000003</ele><time>2026-04-26T15:15:38.195Z</time></trkpt><trkpt lat="43.1854061" lon="11.6474117"><ele>381.20000000000005</ele><time>2026-04-26T15:15:39.19Z</time></trkpt><trkpt lat="43.1853975" lon="11.647284"><ele>381.0</ele><time>2026-04-26T15:15:40.208Z</time></trkpt><trkpt lat="43.1853879" lon="11.6471648"><ele>381.0</ele><time>2026-04-26T15:15:41.205Z</time></trkpt><trkpt lat="43.1853765" lon="11.6470484"><ele>381.0</ele><time>2026-04-26T15:15:42.204Z</time></trkpt><trkpt lat="43.1853618" lon="11.6469384"><ele>381.0</ele><time>2026-04-26T15:15:43.205Z</time></trkpt><trkpt lat="43.1853516" lon="11.6468354"><ele>381.0</ele><time>2026-04-26T15:15:44.206Z</time></trkpt><trkpt lat="43.185351" lon="11.6467413"><ele>381.0</ele><time>2026-04-26T15:15:45.212Z</time></trkpt><trkpt lat="43.1853655" lon="11.646645"><ele>381.0</ele><time>2026-04-26T15:15:46.192Z</time></trkpt><trkpt lat="43.1853938" lon="11.6465453"><ele>382.20000000000005</ele><time>2026-04-26T15:15:47.207Z</time></trkpt><trkpt lat="43.1854313" lon="11.6464587"><ele>383.40000000000003</ele><time>2026-04-26T15:15:48.204Z</time></trkpt><trkpt lat="43.1854815" lon="11.6463694"><ele>384.6</ele><time>2026-04-26T15:15:49.194Z</time></trkpt><trkpt lat="43.185545" lon="11.6462724"><ele>385.8</ele><time>2026-04-26T15:15:50.199Z</time></trkpt><trkpt lat="43.1856158" lon="11.6461649"><ele>387.0</ele><time>2026-04-26T15:15:51.206Z</time></trkpt><trkpt lat="43.1856905" lon="11.6460476"><ele>387.75</ele><time>2026-04-26T15:15:52.192Z</time></trkpt><trkpt lat="43.1857658" lon="11.6459236"><ele>388.5</ele><time>2026-04-26T15:15:53.204Z</time></trkpt><trkpt lat="43.1858442" lon="11.6457954"><ele>389.25</ele><time>2026-04-26T15:15:54.201Z</time></trkpt><trkpt lat="43.1859264" lon="11.645665"><ele>390.0</ele><time>2026-04-26T15:15:55.212Z</time></trkpt><trkpt lat="43.1860111" lon="11.6455329"><ele>390.0</ele><time>2026-04-26T15:15:56.207Z</time></trkpt><trkpt lat="43.1860992" lon="11.6453994"><ele>390.0</ele><time>2026-04-26T15:15:57.209Z</time></trkpt><trkpt lat="43.1861885" lon="11.6452647"><ele>390.0</ele><time>2026-04-26T15:15:58.198Z</time></trkpt><trkpt lat="43.186278" lon="11.6451301"><ele>390.0</ele><time>2026-04-26T15:15:59.194Z</time></trkpt><trkpt lat="43.1863645" lon="11.6449977"><ele>389.25</ele><time>2026-04-26T15:16:00.202Z</time></trkpt><trkpt lat="43.1864455" lon="11.6448707"><ele>388.5</ele><time>2026-04-26T15:16:01.193Z</time></trkpt><trkpt lat="43.1865231" lon="11.6447521"><ele>387.75</ele><time>2026-04-26T15:16:02.217Z</time></trkpt><trkpt lat="43.1865999" lon="11.6446387"><ele>387.0</ele><time>2026-04-26T15:16:03.208Z</time></trkpt><trkpt lat="43.1866795" lon="11.6445303"><ele>385.6</ele><time>2026-04-26T15:16:04.203Z</time></trkpt><trkpt lat="43.1867623" lon="11.6444281"><ele>384.20000000000005</ele><time>2026-04-26T15:16:05.209Z</time></trkpt><trkpt lat="43.186848" lon="11.644332"><ele>382.8</ele><time>2026-04-26T15:16:06.199Z</time></trkpt><trkpt lat="43.1869341" lon="11.6442479"><ele>381.4</ele><time>2026-04-26T15:16:07.201Z</time></trkpt><trkpt lat="43.1870191" lon="11.6441727"><ele>380.0</ele><time>2026-04-26T15:16:08.195Z</time></trkpt><trkpt lat="43.1871007" lon="11.6441018"><ele>380.0</ele><time>2026-04-26T15:16:09.212Z</time></trkpt><trkpt lat="43.1871783" lon="11.6440365"><ele>380.0</ele><time>2026-04-26T15:16:10.204Z</time></trkpt><trkpt lat="43.1872502" lon="11.6439751"><ele>380.0</ele><time>2026-04-26T15:16:11.206Z</time></trkpt><trkpt lat="43.1873183" lon="11.6439167"><ele>380.0</ele><time>2026-04-26T15:16:12.207Z</time></trkpt><trkpt lat="43.1873806" lon="11.6438579"><ele>380.0</ele><time>2026-04-26T15:16:13.189Z</time></trkpt><trkpt lat="43.1874368" lon="11.6438043"><ele>380.0</ele><time>2026-04-26T15:16:14.193Z</time></trkpt><trkpt lat="43.1875228" lon="11.643734"><ele>380.2</ele><time>2026-04-26T15:16:16.207Z</time></trkpt><trkpt lat="43.1875954" lon="11.6437157"><ele>380.4</ele><time>2026-04-26T15:16:18.209Z</time></trkpt><trkpt lat="43.1876694" lon="11.6438624"><ele>380.6</ele><time>2026-04-26T15:16:20.2Z</time></trkpt><trkpt lat="43.1876987" lon="11.6439746"><ele>380.8</ele><time>2026-04-26T15:16:21.209Z</time></trkpt><trkpt lat="43.1877238" lon="11.6441167"><ele>381.0</ele><time>2026-04-26T15:16:22.205Z</time></trkpt><trkpt lat="43.187754" lon="11.6442702"><ele>381.0</ele><time>2026-04-26T15:16:23.19Z</time></trkpt><trkpt lat="43.1877789" lon="11.6444304"><ele>381.0</ele><time>2026-04-26T15:16:24.192Z</time></trkpt><trkpt lat="43.1878012" lon="11.6445874"><ele>381.0</ele><time>2026-04-26T15:16:25.207Z</time></trkpt><trkpt lat="43.1878278" lon="11.6447414"><ele>381.0</ele><time>2026-04-26T15:16:26.203Z</time></trkpt><trkpt lat="43.1878616" lon="11.6448955"><ele>380.75</ele><time>2026-04-26T15:16:27.203Z</time></trkpt><trkpt lat="43.1878942" lon="11.64505"><ele>380.5</ele><time>2026-04-26T15:16:28.189Z</time></trkpt><trkpt lat="43.1879153" lon="11.6452103"><ele>380.25</ele><time>2026-04-26T15:16:29.189Z</time></trkpt><trkpt lat="43.1879354" lon="11.6453703"><ele>380.0</ele><time>2026-04-26T15:16:30.206Z</time></trkpt><trkpt lat="43.1879175" lon="11.6455265"><ele>380.0</ele><time>2026-04-26T15:16:31.205Z</time></trkpt><trkpt lat="43.1878783" lon="11.6456715"><ele>380.0</ele><time>2026-04-26T15:16:32.197Z</time></trkpt><trkpt lat="43.187819" lon="11.6458046"><ele>380.0</ele><time>2026-04-26T15:16:33.2Z</time></trkpt><trkpt lat="43.1877581" lon="11.6459352"><ele>380.0</ele><time>2026-04-26T15:16:34.199Z</time></trkpt><trkpt lat="43.1876639" lon="11.6460352"><ele>379.25</ele><time>2026-04-26T15:16:35.197Z</time></trkpt><trkpt lat="43.1875694" lon="11.646137"><ele>378.5</ele><time>2026-04-26T15:16:36.197Z</time></trkpt><trkpt lat="43.187487" lon="11.6462583"><ele>377.75</ele><time>2026-04-26T15:16:37.204Z</time></trkpt><trkpt lat="43.1874262" lon="11.6464"><ele>377.0</ele><time>2026-04-26T15:16:38.188Z</time></trkpt><trkpt lat="43.1873917" lon="11.6465571"><ele>377.0</ele><time>2026-04-26T15:16:39.209Z</time></trkpt><trkpt lat="43.1873583" lon="11.646713"><ele>377.0</ele><time>2026-04-26T15:16:40.201Z</time></trkpt><trkpt lat="43.1873957" lon="11.6468634"><ele>377.0</ele><time>2026-04-26T15:16:41.196Z</time></trkpt><trkpt lat="43.187471" lon="11.6469939"><ele>377.0</ele><time>2026-04-26T15:16:42.19Z</time></trkpt><trkpt lat="43.18755" lon="11.6471235"><ele>378.5</ele><time>2026-04-26T15:16:43.198Z</time></trkpt><trkpt lat="43.1876726" lon="11.647221"><ele>380.0</ele><time>2026-04-26T15:16:44.195Z</time></trkpt><trkpt lat="43.1878003" lon="11.6473286"><ele>381.5</ele><time>2026-04-26T15:16:45.187Z</time></trkpt><trkpt lat="43.1879253" lon="11.6474535"><ele>383.0</ele><time>2026-04-26T15:16:46.198Z</time></trkpt><trkpt lat="43.1880448" lon="11.6475897"><ele>383.0</ele><time>2026-04-26T15:16:47.192Z</time></trkpt><trkpt lat="43.1881577" lon="11.6477279"><ele>383.0</ele><time>2026-04-26T15:16:48.208Z</time></trkpt><trkpt lat="43.1882633" lon="11.6478671"><ele>383.0</ele><time>2026-04-26T15:16:49.191Z</time></trkpt><trkpt lat="43.1883676" lon="11.6480062"><ele>383.0</ele><time>2026-04-26T15:16:50.208Z</time></trkpt><trkpt lat="43.188445" lon="11.6481706"><ele>380.25</ele><time>2026-04-26T15:16:51.197Z</time></trkpt><trkpt lat="43.188497" lon="11.6483529"><ele>377.5</ele><time>2026-04-26T15:16:52.2Z</time></trkpt><trkpt lat="43.1885152" lon="11.6485415"><ele>374.75</ele><time>2026-04-26T15:16:53.203Z</time></trkpt><trkpt lat="43.1885153" lon="11.6487228"><ele>372.0</ele><time>2026-04-26T15:16:54.201Z</time></trkpt><trkpt lat="43.1885235" lon="11.6489003"><ele>371.25</ele><time>2026-04-26T15:16:55.203Z</time></trkpt><trkpt lat="43.1885507" lon="11.6490781"><ele>370.5</ele><time>2026-04-26T15:16:56.201Z</time></trkpt><trkpt lat="43.1885794" lon="11.6492596"><ele>369.75</ele><time>2026-04-26T15:16:57.186Z</time></trkpt><trkpt lat="43.1885954" lon="11.6494496"><ele>369.0</ele><time>2026-04-26T15:16:58.206Z</time></trkpt><trkpt lat="43.1885992" lon="11.6496448"><ele>367.5</ele><time>2026-04-26T15:16:59.196Z</time></trkpt><trkpt lat="43.1885956" lon="11.6498447"><ele>366.0</ele><time>2026-04-26T15:17:00.202Z</time></trkpt><trkpt lat="43.1885909" lon="11.6500419"><ele>364.5</ele><time>2026-04-26T15:17:01.195Z</time></trkpt><trkpt lat="43.1885791" lon="11.6502365"><ele>363.0</ele><time>2026-04-26T15:17:02.198Z</time></trkpt><trkpt lat="43.1885662" lon="11.6504266"><ele>361.0</ele><time>2026-04-26T15:17:03.206Z</time></trkpt><trkpt lat="43.1885042" lon="11.6505911"><ele>359.0</ele><time>2026-04-26T15:17:04.205Z</time></trkpt><trkpt lat="43.1884166" lon="11.6507287"><ele>357.0</ele><time>2026-04-26T15:17:05.198Z</time></trkpt><trkpt lat="43.1883219" lon="11.6508367"><ele>355.0</ele><time>2026-04-26T15:17:06.204Z</time></trkpt><trkpt lat="43.1882467" lon="11.6509418"><ele>355.0</ele><time>2026-04-26T15:17:07.202Z</time></trkpt><trkpt lat="43.1882001" lon="11.6510662"><ele>355.0</ele><time>2026-04-26T15:17:08.192Z</time></trkpt><trkpt lat="43.1881902" lon="11.651211"><ele>355.0</ele><time>2026-04-26T15:17:09.194Z</time></trkpt><trkpt lat="43.1882289" lon="11.6513599"><ele>355.0</ele><time>2026-04-26T15:17:10.201Z</time></trkpt><trkpt lat="43.1882954" lon="11.6515094"><ele>354.75</ele><time>2026-04-26T15:17:11.202Z</time></trkpt><trkpt lat="43.1883605" lon="11.6516526"><ele>354.5</ele><time>2026-04-26T15:17:12.201Z</time></trkpt><trkpt lat="43.1884252" lon="11.651795"><ele>354.25</ele><time>2026-04-26T15:17:13.204Z</time></trkpt><trkpt lat="43.1884428" lon="11.6519492"><ele>354.0</ele><time>2026-04-26T15:17:14.194Z</time></trkpt><trkpt lat="43.188457" lon="11.6520984"><ele>353.5</ele><time>2026-04-26T15:17:15.192Z</time></trkpt><trkpt lat="43.1883995" lon="11.6522502"><ele>353.0</ele><time>2026-04-26T15:17:16.206Z</time></trkpt><trkpt lat="43.1883209" lon="11.6523893"><ele>352.5</ele><time>2026-04-26T15:17:17.199Z</time></trkpt><trkpt lat="43.1882425" lon="11.6525239"><ele>352.0</ele><time>2026-04-26T15:17:18.205Z</time></trkpt><trkpt lat="43.1881697" lon="11.6526552"><ele>357.0</ele><time>2026-04-26T15:17:19.203Z</time></trkpt><trkpt lat="43.1881076" lon="11.6527848"><ele>362.0</ele><time>2026-04-26T15:17:20.2Z</time></trkpt><trkpt lat="43.1880623" lon="11.6529222"><ele>367.0</ele><time>2026-04-26T15:17:21.204Z</time></trkpt><trkpt lat="43.1880443" lon="11.6530737"><ele>372.0</ele><time>2026-04-26T15:17:22.202Z</time></trkpt><trkpt lat="43.1880486" lon="11.6532327"><ele>372.0</ele><time>2026-04-26T15:17:23.193Z</time></trkpt><trkpt lat="43.1880638" lon="11.6533882"><ele>372.0</ele><time>2026-04-26T15:17:24.198Z</time></trkpt><trkpt lat="43.1880813" lon="11.6535436"><ele>372.0</ele><time>2026-04-26T15:17:25.21Z</time></trkpt><trkpt lat="43.1880985" lon="11.653695"><ele>372.0</ele><time>2026-04-26T15:17:26.205Z</time></trkpt><trkpt lat="43.1881117" lon="11.6538447"><ele>369.5</ele><time>2026-04-26T15:17:27.192Z</time></trkpt><trkpt lat="43.1881141" lon="11.6539988"><ele>367.0</ele><time>2026-04-26T15:17:28.205Z</time></trkpt><trkpt lat="43.1880937" lon="11.6541565"><ele>364.5</ele><time>2026-04-26T15:17:29.207Z</time></trkpt><trkpt lat="43.1880716" lon="11.6543233"><ele>362.0</ele><time>2026-04-26T15:17:30.198Z</time></trkpt><trkpt lat="43.1880059" lon="11.6544812"><ele>360.5</ele><time>2026-04-26T15:17:31.19Z</time></trkpt><trkpt lat="43.1879101" lon="11.6546191"><ele>359.0</ele><time>2026-04-26T15:17:32.2Z</time></trkpt><trkpt lat="43.1878263" lon="11.6547573"><ele>357.5</ele><time>2026-04-26T15:17:33.19Z</time></trkpt><trkpt lat="43.1877671" lon="11.6549169"><ele>356.0</ele><time>2026-04-26T15:17:34.202Z</time></trkpt><trkpt lat="43.1877467" lon="11.6550865"><ele>356.0</ele><time>2026-04-26T15:17:35.2Z</time></trkpt><trkpt lat="43.1877627" lon="11.6552568"><ele>356.0</ele><time>2026-04-26T15:17:36.207Z</time></trkpt><trkpt lat="43.1878141" lon="11.6554102"><ele>356.0</ele><time>2026-04-26T15:17:37.203Z</time></trkpt><trkpt lat="43.1878821" lon="11.6555531"><ele>356.0</ele><time>2026-04-26T15:17:38.215Z</time></trkpt><trkpt lat="43.1879446" lon="11.6556923"><ele>356.0</ele><time>2026-04-26T15:17:39.204Z</time></trkpt><trkpt lat="43.1880041" lon="11.6558274"><ele>356.0</ele><time>2026-04-26T15:17:40.199Z</time></trkpt><trkpt lat="43.1880396" lon="11.655976"><ele>356.0</ele><time>2026-04-26T15:17:41.202Z</time></trkpt><trkpt lat="43.1880421" lon="11.6561563"><ele>356.0</ele><time>2026-04-26T15:17:42.207Z</time></trkpt><trkpt lat="43.1880083" lon="11.6563667"><ele>355.0</ele><time>2026-04-26T15:17:43.188Z</time></trkpt><trkpt lat="43.187966" lon="11.6565693"><ele>354.0</ele><time>2026-04-26T15:17:44.196Z</time></trkpt><trkpt lat="43.18792" lon="11.6567842"><ele>353.0</ele><time>2026-04-26T15:17:45.199Z</time></trkpt><trkpt lat="43.1878868" lon="11.6569917"><ele>353.0</ele><time>2026-04-26T15:17:46.198Z</time></trkpt><trkpt lat="43.1878627" lon="11.6571932"><ele>353.0</ele><time>2026-04-26T15:17:47.197Z</time></trkpt><trkpt lat="43.187849" lon="11.6573838"><ele>353.0</ele><time>2026-04-26T15:17:48.204Z</time></trkpt><trkpt lat="43.1878461" lon="11.6575657"><ele>353.0</ele><time>2026-04-26T15:17:49.192Z</time></trkpt><trkpt lat="43.1878634" lon="11.6577498"><ele>353.0</ele><time>2026-04-26T15:17:50.191Z</time></trkpt><trkpt lat="43.1879042" lon="11.6579365"><ele>353.0</ele><time>2026-04-26T15:17:51.206Z</time></trkpt><trkpt lat="43.1879551" lon="11.6581233"><ele>353.0</ele><time>2026-04-26T15:17:52.207Z</time></trkpt><trkpt lat="43.1880102" lon="11.658319"><ele>353.0</ele><time>2026-04-26T15:17:53.203Z</time></trkpt><trkpt lat="43.1880594" lon="11.6585249"><ele>354.33333333333337</ele><time>2026-04-26T15:17:54.208Z</time></trkpt><trkpt lat="43.1880951" lon="11.6587474"><ele>355.6666666666667</ele><time>2026-04-26T15:17:55.209Z</time></trkpt><trkpt lat="43.1881138" lon="11.6589861"><ele>357.0</ele><time>2026-04-26T15:17:56.204Z</time></trkpt><trkpt lat="43.1881308" lon="11.6592231"><ele>359.6666666666667</ele><time>2026-04-26T15:17:57.204Z</time></trkpt><trkpt lat="43.1881208" lon="11.659469"><ele>362.33333333333337</ele><time>2026-04-26T15:17:58.203Z</time></trkpt><trkpt lat="43.1880901" lon="11.6597052"><ele>365.0</ele><time>2026-04-26T15:17:59.209Z</time></trkpt><trkpt lat="43.1880415" lon="11.6599292"><ele>365.0</ele><time>2026-04-26T15:18:00.194Z</time></trkpt><trkpt lat="43.1879925" lon="11.6601434"><ele>365.0</ele><time>2026-04-26T15:18:01.2Z</time></trkpt><trkpt lat="43.1879452" lon="11.6603533"><ele>365.0</ele><time>2026-04-26T15:18:02.2Z</time></trkpt><trkpt lat="43.1879268" lon="11.6605636"><ele>367.0</ele><time>2026-04-26T15:18:03.203Z</time></trkpt><trkpt lat="43.1879166" lon="11.6607771"><ele>369.0</ele><time>2026-04-26T15:18:04.194Z</time></trkpt><trkpt lat="43.1879085" lon="11.6609832"><ele>371.0</ele><time>2026-04-26T15:18:05.209Z</time></trkpt><trkpt lat="43.1879031" lon="11.6611897"><ele>372.75</ele><time>2026-04-26T15:18:06.191Z</time></trkpt><trkpt lat="43.1879013" lon="11.6613916"><ele>374.5</ele><time>2026-04-26T15:18:07.206Z</time></trkpt><trkpt lat="43.1879055" lon="11.6615952"><ele>376.25</ele><time>2026-04-26T15:18:08.207Z</time></trkpt><trkpt lat="43.1879143" lon="11.6617937"><ele>378.0</ele><time>2026-04-26T15:18:09.192Z</time></trkpt><trkpt lat="43.187946" lon="11.6619903"><ele>379.5</ele><time>2026-04-26T15:18:10.201Z</time></trkpt><trkpt lat="43.1879747" lon="11.6621772"><ele>381.0</ele><time>2026-04-26T15:18:11.193Z</time></trkpt><trkpt lat="43.1879943" lon="11.662364"><ele>382.5</ele><time>2026-04-26T15:18:12.197Z</time></trkpt><trkpt lat="43.1879916" lon="11.6625535"><ele>384.0</ele><time>2026-04-26T15:18:13.194Z</time></trkpt><trkpt lat="43.1879791" lon="11.6627388"><ele>386.0</ele><time>2026-04-26T15:18:14.207Z</time></trkpt><trkpt lat="43.187962" lon="11.6629263"><ele>388.0</ele><time>2026-04-26T15:18:15.205Z</time></trkpt><trkpt lat="43.1879421" lon="11.663112"><ele>390.0</ele><time>2026-04-26T15:18:16.214Z</time></trkpt><trkpt lat="43.1879146" lon="11.6632957"><ele>392.0</ele><time>2026-04-26T15:18:17.198Z</time></trkpt><trkpt lat="43.1878755" lon="11.6634773"><ele>393.25</ele><time>2026-04-26T15:18:18.195Z</time></trkpt><trkpt lat="43.1878351" lon="11.6636573"><ele>394.5</ele><time>2026-04-26T15:18:19.201Z</time></trkpt><trkpt lat="43.1877992" lon="11.6638392"><ele>395.75</ele><time>2026-04-26T15:18:20.204Z</time></trkpt><trkpt lat="43.1877679" lon="11.6640263"><ele>397.0</ele><time>2026-04-26T15:18:21.198Z</time></trkpt><trkpt lat="43.187732" lon="11.6642162"><ele>397.0</ele><time>2026-04-26T15:18:22.206Z</time></trkpt><trkpt lat="43.1877253" lon="11.6644112"><ele>397.0</ele><time>2026-04-26T15:18:23.202Z</time></trkpt><trkpt lat="43.1877293" lon="11.6646136"><ele>397.0</ele><time>2026-04-26T15:18:24.204Z</time></trkpt><trkpt lat="43.1877344" lon="11.6648138"><ele>397.0</ele><time>2026-04-26T15:18:25.204Z</time></trkpt><trkpt lat="43.1877489" lon="11.6650108"><ele>398.75</ele><time>2026-04-26T15:18:26.194Z</time></trkpt><trkpt lat="43.1877423" lon="11.6652138"><ele>400.5</ele><time>2026-04-26T15:18:27.197Z</time></trkpt><trkpt lat="43.1877437" lon="11.6654088"><ele>402.25</ele><time>2026-04-26T15:18:28.208Z</time></trkpt><trkpt lat="43.187751" lon="11.6656019"><ele>404.0</ele><time>2026-04-26T15:18:29.205Z</time></trkpt><trkpt lat="43.1877631" lon="11.6657826"><ele>405.25</ele><time>2026-04-26T15:18:30.206Z</time></trkpt><trkpt lat="43.1877766" lon="11.6659612"><ele>406.5</ele><time>2026-04-26T15:18:31.193Z</time></trkpt><trkpt lat="43.187788" lon="11.6661344"><ele>407.75</ele><time>2026-04-26T15:18:32.208Z</time></trkpt><trkpt lat="43.1877971" lon="11.6663017"><ele>409.0</ele><time>2026-04-26T15:18:33.202Z</time></trkpt><trkpt lat="43.1878051" lon="11.6664637"><ele>410.4</ele><time>2026-04-26T15:18:34.191Z</time></trkpt><trkpt lat="43.1878128" lon="11.6666223"><ele>411.79999999999995</ele><time>2026-04-26T15:18:35.201Z</time></trkpt><trkpt lat="43.1878219" lon="11.6667734"><ele>413.20000000000005</ele><time>2026-04-26T15:18:36.196Z</time></trkpt><trkpt lat="43.1878314" lon="11.6669166"><ele>414.6</ele><time>2026-04-26T15:18:37.209Z</time></trkpt><trkpt lat="43.1878386" lon="11.6670494"><ele>416.0</ele><time>2026-04-26T15:18:38.208Z</time></trkpt><trkpt lat="43.1878498" lon="11.6671725"><ele>417.66666666666663</ele><time>2026-04-26T15:18:39.191Z</time></trkpt><trkpt lat="43.187857" lon="11.667288"><ele>419.3333333333333</ele><time>2026-04-26T15:18:40.202Z</time></trkpt><trkpt lat="43.1878543" lon="11.6674115"><ele>421.0</ele><time>2026-04-26T15:18:41.198Z</time></trkpt><trkpt lat="43.1878389" lon="11.6675297"><ele>422.66666666666663</ele><time>2026-04-26T15:18:42.207Z</time></trkpt><trkpt lat="43.1878205" lon="11.6676389"><ele>424.3333333333333</ele><time>2026-04-26T15:18:43.193Z</time></trkpt><trkpt lat="43.187803" lon="11.6677371"><ele>426.0</ele><time>2026-04-26T15:18:44.199Z</time></trkpt><trkpt lat="43.1877873" lon="11.6678281"><ele>427.3333333333333</ele><time>2026-04-26T15:18:45.206Z</time></trkpt><trkpt lat="43.1877703" lon="11.6679127"><ele>428.66666666666663</ele><time>2026-04-26T15:18:46.189Z</time></trkpt><trkpt lat="43.1877345" lon="11.6680518"><ele>430.0</ele><time>2026-04-26T15:18:48.201Z</time></trkpt><trkpt lat="43.187717" lon="11.6681359"><ele>431.3333333333333</ele><time>2026-04-26T15:18:50.206Z</time></trkpt><trkpt lat="43.1877333" lon="11.6682225"><ele>432.66666666666663</ele><time>2026-04-26T15:18:52.187Z</time></trkpt><trkpt lat="43.1878022" lon="11.6683403"><ele>434.0</ele><time>2026-04-26T15:18:54.192Z</time></trkpt><trkpt lat="43.1879178" lon="11.6683941"><ele>433.99999999999994</ele><time>2026-04-26T15:18:56.198Z</time></trkpt><trkpt lat="43.1879879" lon="11.6684038"><ele>434.0</ele><time>2026-04-26T15:18:57.191Z</time></trkpt><trkpt lat="43.18806" lon="11.6684097"><ele>434.0</ele><time>2026-04-26T15:18:58.195Z</time></trkpt><trkpt lat="43.1881379" lon="11.6684177"><ele>434.0</ele><time>2026-04-26T15:18:59.189Z</time></trkpt><trkpt lat="43.1882091" lon="11.6684268"><ele>433.99999999999994</ele><time>2026-04-26T15:19:00.194Z</time></trkpt><trkpt lat="43.1882765" lon="11.6684335"><ele>434.0</ele><time>2026-04-26T15:19:01.201Z</time></trkpt><trkpt lat="43.1883908" lon="11.668451"><ele>436.0</ele><time>2026-04-26T15:19:03.189Z</time></trkpt><trkpt lat="43.1884742" lon="11.6684642"><ele>438.0</ele><time>2026-04-26T15:19:05.207Z</time></trkpt><trkpt lat="43.1885515" lon="11.6684812"><ele>440.0</ele><time>2026-04-26T15:19:07.2Z</time></trkpt><trkpt lat="43.1886566" lon="11.6684519"><ele>442.0</ele><time>2026-04-26T15:19:09.192Z</time></trkpt><trkpt lat="43.1887428" lon="11.6683504"><ele>444.0</ele><time>2026-04-26T15:19:11.197Z</time></trkpt><trkpt lat="43.1887771" lon="11.6681965"><ele>444.0</ele><time>2026-04-26T15:19:13.204Z</time></trkpt><trkpt lat="43.1888083" lon="11.6680588"><ele>444.0</ele><time>2026-04-26T15:19:15.205Z</time></trkpt><trkpt lat="43.1888478" lon="11.667954"><ele>444.0</ele><time>2026-04-26T15:19:17.196Z</time></trkpt><trkpt lat="43.1888949" lon="11.6678908"><ele>444.0</ele><time>2026-04-26T15:19:19.2Z</time></trkpt><trkpt lat="43.1889618" lon="11.6678258"><ele>444.0</ele><time>2026-04-26T15:19:21.186Z</time></trkpt><trkpt lat="43.1890352" lon="11.6677696"><ele>444.0</ele><time>2026-04-26T15:19:23.192Z</time></trkpt><trkpt lat="43.1890883" lon="11.6677198"><ele>444.2857142857143</ele><time>2026-04-26T15:19:25.187Z</time></trkpt><trkpt lat="43.1891266" lon="11.6676436"><ele>444.5714285714286</ele><time>2026-04-26T15:19:27.2Z</time></trkpt><trkpt lat="43.1891317" lon="11.667539"><ele>444.8571428571429</ele><time>2026-04-26T15:19:30.187Z</time></trkpt><trkpt lat="43.1890739" lon="11.667453"><ele>445.1428571428571</ele><time>2026-04-26T15:19:34.212Z</time></trkpt><trkpt lat="43.1890098" lon="11.6674529"><ele>445.42857142857144</ele><time>2026-04-26T15:43:27.192Z</time></trkpt><trkpt lat="43.1889443" lon="11.6674616"><ele>445.7142857142857</ele><time>2026-04-26T15:43:30.208Z</time></trkpt><trkpt lat="43.1888922" lon="11.6675288"><ele>446.0</ele><time>2026-04-26T15:43:32.205Z</time></trkpt><trkpt lat="43.1888417" lon="11.6676129"><ele>445.99999999999994</ele><time>2026-04-26T15:43:34.191Z</time></trkpt><trkpt lat="43.1888288" lon="11.6677201"><ele>446.0</ele><time>2026-04-26T15:43:36.201Z</time></trkpt><trkpt lat="43.1888399" lon="11.6678509"><ele>446.0</ele><time>2026-04-26T15:43:38.192Z</time></trkpt><trkpt lat="43.1888367" lon="11.6680059"><ele>446.0</ele><time>2026-04-26T15:43:40.201Z</time></trkpt><trkpt lat="43.1888287" lon="11.6680917"><ele>445.99999999999994</ele><time>2026-04-26T15:43:41.205Z</time></trkpt><trkpt lat="43.1888068" lon="11.6681831"><ele>446.0</ele><time>2026-04-26T15:43:43.203Z</time></trkpt><trkpt lat="43.1887511" lon="11.6682277"><ele>445.66666666666663</ele><time>2026-04-26T15:44:06.198Z</time></trkpt><trkpt lat="43.1887152" lon="11.6683468"><ele>445.3333333333333</ele><time>2026-04-26T15:44:10.204Z</time></trkpt><trkpt lat="43.1886678" lon="11.6684155"><ele>445.0</ele><time>2026-04-26T15:44:13.202Z</time></trkpt><trkpt lat="43.1886228" lon="11.668476"><ele>444.66666666666663</ele><time>2026-04-26T15:44:43.194Z</time></trkpt><trkpt lat="43.1885507" lon="11.6685123"><ele>444.3333333333333</ele><time>2026-04-26T15:44:45.206Z</time></trkpt><trkpt lat="43.1884207" lon="11.6684947"><ele>444.0</ele><time>2026-04-26T15:44:47.212Z</time></trkpt><trkpt lat="43.1883435" lon="11.6684774"><ele>444.0</ele><time>2026-04-26T15:44:48.204Z</time></trkpt><trkpt lat="43.1882479" lon="11.6684568"><ele>444.0</ele><time>2026-04-26T15:44:49.199Z</time></trkpt><trkpt lat="43.18815" lon="11.6684436"><ele>444.0</ele><time>2026-04-26T15:44:50.193Z</time></trkpt><trkpt lat="43.1880589" lon="11.66843"><ele>444.0</ele><time>2026-04-26T15:44:51.191Z</time></trkpt><trkpt lat="43.1879755" lon="11.668416"><ele>444.0</ele><time>2026-04-26T15:44:52.192Z</time></trkpt><trkpt lat="43.1879023" lon="11.6684004"><ele>444.0</ele><time>2026-04-26T15:44:53.204Z</time></trkpt><trkpt lat="43.187828" lon="11.6683807"><ele>442.0</ele><time>2026-04-26T15:44:54.19Z</time></trkpt><trkpt lat="43.1877726" lon="11.6683178"><ele>440.0</ele><time>2026-04-26T15:44:55.204Z</time></trkpt><trkpt lat="43.1877446" lon="11.6681707"><ele>438.0</ele><time>2026-04-26T15:44:57.202Z</time></trkpt><trkpt lat="43.1877759" lon="11.6680209"><ele>436.0</ele><time>2026-04-26T15:44:59.192Z</time></trkpt><trkpt lat="43.1877997" lon="11.6678775"><ele>434.0</ele><time>2026-04-26T15:45:01.201Z</time></trkpt><trkpt lat="43.1878261" lon="11.66772"><ele>432.66666666666663</ele><time>2026-04-26T15:45:03.192Z</time></trkpt><trkpt lat="43.1878581" lon="11.6675514"><ele>431.3333333333333</ele><time>2026-04-26T15:45:05.192Z</time></trkpt><trkpt lat="43.1878701" lon="11.6674582"><ele>430.0</ele><time>2026-04-26T15:45:06.204Z</time></trkpt><trkpt lat="43.1878816" lon="11.6673598"><ele>428.66666666666663</ele><time>2026-04-26T15:45:07.202Z</time></trkpt><trkpt lat="43.1878764" lon="11.6672537"><ele>427.3333333333333</ele><time>2026-04-26T15:45:08.206Z</time></trkpt><trkpt lat="43.1878664" lon="11.6671478"><ele>426.0</ele><time>2026-04-26T15:45:09.2Z</time></trkpt><trkpt lat="43.1878567" lon="11.6670352"><ele>424.0</ele><time>2026-04-26T15:45:10.207Z</time></trkpt><trkpt lat="43.1878496" lon="11.6669111"><ele>422.0</ele><time>2026-04-26T15:45:11.206Z</time></trkpt><trkpt lat="43.1878445" lon="11.6667843"><ele>420.0</ele><time>2026-04-26T15:45:12.205Z</time></trkpt><trkpt lat="43.1878348" lon="11.6666527"><ele>418.0</ele><time>2026-04-26T15:45:13.193Z</time></trkpt><trkpt lat="43.1878254" lon="11.6665121"><ele>416.0</ele><time>2026-04-26T15:45:14.205Z</time></trkpt><trkpt lat="43.1878156" lon="11.6663696"><ele>416.0</ele><time>2026-04-26T15:45:15.207Z</time></trkpt><trkpt lat="43.1878047" lon="11.6662268"><ele>416.0</ele><time>2026-04-26T15:45:16.205Z</time></trkpt><trkpt lat="43.1877953" lon="11.6660786"><ele>416.0</ele><time>2026-04-26T15:45:17.201Z</time></trkpt><trkpt lat="43.1877831" lon="11.6659198"><ele>416.0</ele><time>2026-04-26T15:45:18.205Z</time></trkpt><trkpt lat="43.1877704" lon="11.6657608"><ele>416.0</ele><time>2026-04-26T15:45:19.205Z</time></trkpt><trkpt lat="43.1877603" lon="11.665604"><ele>414.6</ele><time>2026-04-26T15:45:20.205Z</time></trkpt><trkpt lat="43.1877585" lon="11.6654503"><ele>413.20000000000005</ele><time>2026-04-26T15:45:21.206Z</time></trkpt><trkpt lat="43.1877621" lon="11.665301"><ele>411.79999999999995</ele><time>2026-04-26T15:45:22.205Z</time></trkpt><trkpt lat="43.1877633" lon="11.6651576"><ele>410.4</ele><time>2026-04-26T15:45:23.207Z</time></trkpt><trkpt lat="43.1877618" lon="11.6650131"><ele>409.0</ele><time>2026-04-26T15:45:24.19Z</time></trkpt><trkpt lat="43.187754" lon="11.6648668"><ele>407.75</ele><time>2026-04-26T15:45:25.205Z</time></trkpt><trkpt lat="43.187744" lon="11.6647172"><ele>406.5</ele><time>2026-04-26T15:45:26.204Z</time></trkpt><trkpt lat="43.1877347" lon="11.6645651"><ele>405.25</ele><time>2026-04-26T15:45:27.203Z</time></trkpt><trkpt lat="43.1877279" lon="11.6644102"><ele>404.0</ele><time>2026-04-26T15:45:28.203Z</time></trkpt><trkpt lat="43.1877297" lon="11.6642502"><ele>402.25</ele><time>2026-04-26T15:45:29.194Z</time></trkpt><trkpt lat="43.1877311" lon="11.6640894"><ele>400.5</ele><time>2026-04-26T15:45:30.193Z</time></trkpt><trkpt lat="43.1877492" lon="11.6639209"><ele>398.75</ele><time>2026-04-26T15:45:31.196Z</time></trkpt><trkpt lat="43.1877857" lon="11.6637468"><ele>397.0</ele><time>2026-04-26T15:45:32.208Z</time></trkpt><trkpt lat="43.1878226" lon="11.6635713"><ele>395.75</ele><time>2026-04-26T15:45:33.206Z</time></trkpt><trkpt lat="43.1878659" lon="11.6633932"><ele>394.5</ele><time>2026-04-26T15:45:34.21Z</time></trkpt><trkpt lat="43.1879035" lon="11.6632168"><ele>393.25</ele><time>2026-04-26T15:45:35.207Z</time></trkpt><trkpt lat="43.1879335" lon="11.6630412"><ele>392.0</ele><time>2026-04-26T15:45:36.191Z</time></trkpt><trkpt lat="43.1879536" lon="11.6628667"><ele>390.0</ele><time>2026-04-26T15:45:37.2Z</time></trkpt><trkpt lat="43.1879661" lon="11.6626899"><ele>388.0</ele><time>2026-04-26T15:45:38.194Z</time></trkpt><trkpt lat="43.1879718" lon="11.662508"><ele>386.0</ele><time>2026-04-26T15:45:39.195Z</time></trkpt><trkpt lat="43.1879661" lon="11.6623245"><ele>384.0</ele><time>2026-04-26T15:45:40.206Z</time></trkpt><trkpt lat="43.1879443" lon="11.6621368"><ele>382.5</ele><time>2026-04-26T15:45:41.208Z</time></trkpt><trkpt lat="43.1879224" lon="11.6619462"><ele>381.0</ele><time>2026-04-26T15:45:42.209Z</time></trkpt><trkpt lat="43.1878977" lon="11.6617561"><ele>379.5</ele><time>2026-04-26T15:45:43.211Z</time></trkpt><trkpt lat="43.1878822" lon="11.6615573"><ele>378.0</ele><time>2026-04-26T15:45:44.207Z</time></trkpt><trkpt lat="43.1878779" lon="11.6613622"><ele>378.0</ele><time>2026-04-26T15:45:45.207Z</time></trkpt><trkpt lat="43.187882" lon="11.6611726"><ele>378.0</ele><time>2026-04-26T15:45:46.207Z</time></trkpt><trkpt lat="43.1878882" lon="11.6609852"><ele>378.0</ele><time>2026-04-26T15:45:47.209Z</time></trkpt><trkpt lat="43.1878931" lon="11.6608"><ele>378.0</ele><time>2026-04-26T15:45:48.187Z</time></trkpt><trkpt lat="43.1878967" lon="11.6606171"><ele>376.25</ele><time>2026-04-26T15:45:49.21Z</time></trkpt><trkpt lat="43.1879081" lon="11.6604319"><ele>374.5</ele><time>2026-04-26T15:45:50.206Z</time></trkpt><trkpt lat="43.1879331" lon="11.6602494"><ele>372.75</ele><time>2026-04-26T15:45:51.207Z</time></trkpt><trkpt lat="43.1879674" lon="11.6600707"><ele>371.0</ele><time>2026-04-26T15:45:52.211Z</time></trkpt><trkpt lat="43.1880049" lon="11.6598922"><ele>369.5</ele><time>2026-04-26T15:45:53.203Z</time></trkpt><trkpt lat="43.1880398" lon="11.6597136"><ele>368.0</ele><time>2026-04-26T15:45:54.204Z</time></trkpt><trkpt lat="43.1880646" lon="11.6595318"><ele>366.5</ele><time>2026-04-26T15:45:55.199Z</time></trkpt><trkpt lat="43.1880751" lon="11.6593467"><ele>365.0</ele><time>2026-04-26T15:45:56.208Z</time></trkpt><trkpt lat="43.1880752" lon="11.6591647"><ele>363.0</ele><time>2026-04-26T15:45:57.207Z</time></trkpt><trkpt lat="43.1880674" lon="11.6589828"><ele>361.0</ele><time>2026-04-26T15:45:58.211Z</time></trkpt><trkpt lat="43.1880537" lon="11.6587977"><ele>359.0</ele><time>2026-04-26T15:45:59.209Z</time></trkpt><trkpt lat="43.1880287" lon="11.6586057"><ele>357.0</ele><time>2026-04-26T15:46:00.208Z</time></trkpt><trkpt lat="43.1880007" lon="11.6584099"><ele>355.6666666666667</ele><time>2026-04-26T15:46:01.203Z</time></trkpt><trkpt lat="43.1879409" lon="11.6582065"><ele>354.33333333333337</ele><time>2026-04-26T15:46:02.192Z</time></trkpt><trkpt lat="43.187881" lon="11.658011"><ele>353.0</ele><time>2026-04-26T15:46:03.188Z</time></trkpt><trkpt lat="43.1878284" lon="11.6578121"><ele>353.0</ele><time>2026-04-26T15:46:04.209Z</time></trkpt><trkpt lat="43.1878014" lon="11.6576038"><ele>353.0</ele><time>2026-04-26T15:46:05.196Z</time></trkpt><trkpt lat="43.1878014" lon="11.6573893"><ele>353.0</ele><time>2026-04-26T15:46:06.201Z</time></trkpt><trkpt lat="43.187815" lon="11.6571719"><ele>353.0</ele><time>2026-04-26T15:46:07.2Z</time></trkpt><trkpt lat="43.1878401" lon="11.6569541"><ele>353.0</ele><time>2026-04-26T15:46:08.196Z</time></trkpt><trkpt lat="43.1878725" lon="11.6567365"><ele>353.0</ele><time>2026-04-26T15:46:09.201Z</time></trkpt><trkpt lat="43.1879088" lon="11.6565162"><ele>352.5</ele><time>2026-04-26T15:46:10.209Z</time></trkpt><trkpt lat="43.1879394" lon="11.6562991"><ele>352.0</ele><time>2026-04-26T15:46:11.206Z</time></trkpt><trkpt lat="43.1879672" lon="11.6560942"><ele>351.5</ele><time>2026-04-26T15:46:12.203Z</time></trkpt><trkpt lat="43.18797" lon="11.6559087"><ele>351.0</ele><time>2026-04-26T15:46:13.205Z</time></trkpt><trkpt lat="43.187935" lon="11.6557373"><ele>352.25</ele><time>2026-04-26T15:46:14.202Z</time></trkpt><trkpt lat="43.1878514" lon="11.6555957"><ele>353.5</ele><time>2026-04-26T15:46:15.21Z</time></trkpt><trkpt lat="43.187774" lon="11.6554653"><ele>354.75</ele><time>2026-04-26T15:46:16.21Z</time></trkpt><trkpt lat="43.1877085" lon="11.6553311"><ele>356.0</ele><time>2026-04-26T15:46:17.203Z</time></trkpt><trkpt lat="43.1876646" lon="11.6551909"><ele>356.0</ele><time>2026-04-26T15:46:18.218Z</time></trkpt><trkpt lat="43.1876568" lon="11.6550419"><ele>356.0</ele><time>2026-04-26T15:46:19.201Z</time></trkpt><trkpt lat="43.187678" lon="11.6548955"><ele>356.0</ele><time>2026-04-26T15:46:20.197Z</time></trkpt><trkpt lat="43.1877004" lon="11.6547451"><ele>356.0</ele><time>2026-04-26T15:46:21.201Z</time></trkpt><trkpt lat="43.1877826" lon="11.6546098"><ele>356.0</ele><time>2026-04-26T15:46:22.203Z</time></trkpt><trkpt lat="43.1878672" lon="11.6544774"><ele>356.0</ele><time>2026-04-26T15:46:23.201Z</time></trkpt><trkpt lat="43.1879426" lon="11.6543498"><ele>356.0</ele><time>2026-04-26T15:46:24.213Z</time></trkpt><trkpt lat="43.1880069" lon="11.6542093"><ele>356.0</ele><time>2026-04-26T15:46:25.189Z</time></trkpt><trkpt lat="43.1880441" lon="11.6540509"><ele>357.5</ele><time>2026-04-26T15:46:26.2Z</time></trkpt><trkpt lat="43.1880481" lon="11.653875"><ele>359.0</ele><time>2026-04-26T15:46:27.208Z</time></trkpt><trkpt lat="43.1880272" lon="11.6536913"><ele>360.5</ele><time>2026-04-26T15:46:28.198Z</time></trkpt><trkpt lat="43.1880033" lon="11.6535083"><ele>362.0</ele><time>2026-04-26T15:46:29.19Z</time></trkpt><trkpt lat="43.1879855" lon="11.6533355"><ele>364.5</ele><time>2026-04-26T15:46:30.204Z</time></trkpt><trkpt lat="43.1879716" lon="11.6531486"><ele>367.0</ele><time>2026-04-26T15:46:31.196Z</time></trkpt><trkpt lat="43.1879822" lon="11.6529635"><ele>369.5</ele><time>2026-04-26T15:46:32.199Z</time></trkpt><trkpt lat="43.1880094" lon="11.6528106"><ele>372.0</ele><time>2026-04-26T15:46:33.202Z</time></trkpt><trkpt lat="43.1880767" lon="11.6526805"><ele>373.0</ele><time>2026-04-26T15:46:34.186Z</time></trkpt><trkpt lat="43.1881623" lon="11.6525438"><ele>374.0</ele><time>2026-04-26T15:46:35.197Z</time></trkpt><trkpt lat="43.1882298" lon="11.652403"><ele>375.0</ele><time>2026-04-26T15:46:36.193Z</time></trkpt><trkpt lat="43.1882918" lon="11.652268"><ele>376.0</ele><time>2026-04-26T15:46:37.204Z</time></trkpt><trkpt lat="43.1883607" lon="11.6521437"><ele>371.6</ele><time>2026-04-26T15:46:38.206Z</time></trkpt><trkpt lat="43.1883967" lon="11.6520002"><ele>367.20000000000005</ele><time>2026-04-26T15:46:39.209Z</time></trkpt><trkpt lat="43.188414" lon="11.6518648"><ele>362.79999999999995</ele><time>2026-04-26T15:46:40.199Z</time></trkpt><trkpt lat="43.1883739" lon="11.6517239"><ele>358.4</ele><time>2026-04-26T15:46:41.207Z</time></trkpt><trkpt lat="43.1883269" lon="11.6515895"><ele>354.0</ele><time>2026-04-26T15:46:42.195Z</time></trkpt><trkpt lat="43.1882549" lon="11.6514758"><ele>354.0</ele><time>2026-04-26T15:46:43.2Z</time></trkpt><trkpt lat="43.1881883" lon="11.6513593"><ele>354.0</ele><time>2026-04-26T15:46:44.207Z</time></trkpt><trkpt lat="43.1881496" lon="11.6512295"><ele>354.0</ele><time>2026-04-26T15:46:45.202Z</time></trkpt><trkpt lat="43.1881595" lon="11.6510825"><ele>354.0</ele><time>2026-04-26T15:46:46.193Z</time></trkpt><trkpt lat="43.188215" lon="11.6509532"><ele>354.0</ele><time>2026-04-26T15:46:47.198Z</time></trkpt><trkpt lat="43.1882912" lon="11.6508421"><ele>354.25</ele><time>2026-04-26T15:46:48.189Z</time></trkpt><trkpt lat="43.1883798" lon="11.6507273"><ele>354.5</ele><time>2026-04-26T15:46:49.196Z</time></trkpt><trkpt lat="43.1884621" lon="11.6506001"><ele>354.75</ele><time>2026-04-26T15:46:50.212Z</time></trkpt><trkpt lat="43.18854" lon="11.6504634"><ele>355.0</ele><time>2026-04-26T15:46:51.191Z</time></trkpt><trkpt lat="43.1885756" lon="11.6502774"><ele>357.0</ele><time>2026-04-26T15:46:52.205Z</time></trkpt><trkpt lat="43.1885915" lon="11.6500838"><ele>359.0</ele><time>2026-04-26T15:46:53.201Z</time></trkpt><trkpt lat="43.188597" lon="11.6498784"><ele>361.0</ele><time>2026-04-26T15:46:54.2Z</time></trkpt><trkpt lat="43.1886018" lon="11.6496665"><ele>363.0</ele><time>2026-04-26T15:46:55.19Z</time></trkpt><trkpt lat="43.1885977" lon="11.6494658"><ele>364.5</ele><time>2026-04-26T15:46:56.216Z</time></trkpt><trkpt lat="43.1885808" lon="11.6492764"><ele>366.0</ele><time>2026-04-26T15:46:57.205Z</time></trkpt><trkpt lat="43.1885648" lon="11.6490936"><ele>367.5</ele><time>2026-04-26T15:46:58.2Z</time></trkpt><trkpt lat="43.1885389" lon="11.6489161"><ele>369.0</ele><time>2026-04-26T15:46:59.201Z</time></trkpt><trkpt lat="43.1885425" lon="11.6487563"><ele>369.75</ele><time>2026-04-26T15:47:00.201Z</time></trkpt><trkpt lat="43.1885491" lon="11.6485959"><ele>370.5</ele><time>2026-04-26T15:47:01.202Z</time></trkpt><trkpt lat="43.1885472" lon="11.6484416"><ele>371.25</ele><time>2026-04-26T15:47:02.202Z</time></trkpt><trkpt lat="43.1885203" lon="11.6482916"><ele>372.0</ele><time>2026-04-26T15:47:03.207Z</time></trkpt><trkpt lat="43.1884648" lon="11.6481441"><ele>372.0</ele><time>2026-04-26T15:47:04.191Z</time></trkpt><trkpt lat="43.1883865" lon="11.6480021"><ele>372.0</ele><time>2026-04-26T15:47:05.201Z</time></trkpt><trkpt lat="43.1882936" lon="11.6478601"><ele>372.0</ele><time>2026-04-26T15:47:06.209Z</time></trkpt><trkpt lat="43.1881907" lon="11.6477196"><ele>372.0</ele><time>2026-04-26T15:47:07.206Z</time></trkpt><trkpt lat="43.1880827" lon="11.6475814"><ele>374.75</ele><time>2026-04-26T15:47:08.197Z</time></trkpt><trkpt lat="43.1879682" lon="11.6474511"><ele>377.5</ele><time>2026-04-26T15:47:09.207Z</time></trkpt><trkpt lat="43.1878482" lon="11.6473366"><ele>380.25</ele><time>2026-04-26T15:47:10.201Z</time></trkpt><trkpt lat="43.1877273" lon="11.6472349"><ele>383.0</ele><time>2026-04-26T15:47:11.204Z</time></trkpt><trkpt lat="43.1876155" lon="11.647139"><ele>383.0</ele><time>2026-04-26T15:47:12.192Z</time></trkpt><trkpt lat="43.1875177" lon="11.6470445"><ele>383.0</ele><time>2026-04-26T15:47:13.19Z</time></trkpt><trkpt lat="43.1874376" lon="11.6469389"><ele>383.0</ele><time>2026-04-26T15:47:14.2Z</time></trkpt><trkpt lat="43.1873643" lon="11.6468263"><ele>383.0</ele><time>2026-04-26T15:47:15.201Z</time></trkpt><trkpt lat="43.1873396" lon="11.6466735"><ele>382.25</ele><time>2026-04-26T15:47:16.203Z</time></trkpt><trkpt lat="43.1873624" lon="11.6464764"><ele>381.5</ele><time>2026-04-26T15:47:17.218Z</time></trkpt><trkpt lat="43.18744" lon="11.6463121"><ele>380.75</ele><time>2026-04-26T15:47:18.208Z</time></trkpt><trkpt lat="43.187511" lon="11.6461418"><ele>380.0</ele><time>2026-04-26T15:47:19.203Z</time></trkpt><trkpt lat="43.1876282" lon="11.6460214"><ele>380.0</ele><time>2026-04-26T15:47:20.209Z</time></trkpt><trkpt lat="43.1877399" lon="11.6458985"><ele>380.0</ele><time>2026-04-26T15:47:21.198Z</time></trkpt><trkpt lat="43.1878306" lon="11.6457545"><ele>380.0</ele><time>2026-04-26T15:47:22.206Z</time></trkpt><trkpt lat="43.1878921" lon="11.645584"><ele>380.0</ele><time>2026-04-26T15:47:23.211Z</time></trkpt><trkpt lat="43.1879467" lon="11.6454194"><ele>380.75</ele><time>2026-04-26T15:47:24.21Z</time></trkpt><trkpt lat="43.187966" lon="11.6452568"><ele>381.5</ele><time>2026-04-26T15:47:25.213Z</time></trkpt><trkpt lat="43.1879233" lon="11.6450773"><ele>382.25</ele><time>2026-04-26T15:47:26.208Z</time></trkpt><trkpt lat="43.1878808" lon="11.6448827"><ele>383.0</ele><time>2026-04-26T15:47:27.194Z</time></trkpt><trkpt lat="43.1878462" lon="11.644686"><ele>383.0</ele><time>2026-04-26T15:47:28.203Z</time></trkpt><trkpt lat="43.1878135" lon="11.6444915"><ele>383.0</ele><time>2026-04-26T15:47:29.209Z</time></trkpt><trkpt lat="43.1877795" lon="11.644291"><ele>383.0</ele><time>2026-04-26T15:47:30.202Z</time></trkpt><trkpt lat="43.1877394" lon="11.6441127"><ele>383.0</ele><time>2026-04-26T15:47:31.213Z</time></trkpt><trkpt lat="43.1877006" lon="11.6439527"><ele>382.59999999999997</ele><time>2026-04-26T15:47:32.201Z</time></trkpt><trkpt lat="43.1876729" lon="11.6438176"><ele>382.2</ele><time>2026-04-26T15:47:33.211Z</time></trkpt><trkpt lat="43.187654" lon="11.6436978"><ele>381.8</ele><time>2026-04-26T15:47:34.207Z</time></trkpt><trkpt lat="43.1876552" lon="11.6435788"><ele>381.4</ele><time>2026-04-26T15:47:35.208Z</time></trkpt><trkpt lat="43.1876765" lon="11.643449"><ele>381.0</ele><time>2026-04-26T15:47:36.191Z</time></trkpt><trkpt lat="43.1877176" lon="11.6433162"><ele>380.0</ele><time>2026-04-26T15:47:37.213Z</time></trkpt><trkpt lat="43.1877651" lon="11.643184"><ele>379.0</ele><time>2026-04-26T15:47:38.2Z</time></trkpt><trkpt lat="43.187813" lon="11.6430556"><ele>378.0</ele><time>2026-04-26T15:47:39.214Z</time></trkpt><trkpt lat="43.1878617" lon="11.6429265"><ele>377.0</ele><time>2026-04-26T15:47:40.201Z</time></trkpt><trkpt lat="43.1879098" lon="11.642808"><ele>376.0</ele><time>2026-04-26T15:47:41.194Z</time></trkpt><trkpt lat="43.187967" lon="11.6427016"><ele>375.4</ele><time>2026-04-26T15:47:42.214Z</time></trkpt><trkpt lat="43.1880391" lon="11.642624"><ele>374.8</ele><time>2026-04-26T15:47:43.196Z</time></trkpt><trkpt lat="43.1881247" lon="11.6425819"><ele>374.2</ele><time>2026-04-26T15:47:44.212Z</time></trkpt><trkpt lat="43.1882171" lon="11.642584"><ele>373.59999999999997</ele><time>2026-04-26T15:47:45.19Z</time></trkpt><trkpt lat="43.188316" lon="11.6426032"><ele>373.0</ele><time>2026-04-26T15:47:46.19Z</time></trkpt><trkpt lat="43.1884039" lon="11.6426887"><ele>373.2</ele><time>2026-04-26T15:47:47.203Z</time></trkpt><trkpt lat="43.1884902" lon="11.6427753"><ele>373.4</ele><time>2026-04-26T15:47:48.195Z</time></trkpt><trkpt lat="43.1885863" lon="11.6428401"><ele>373.59999999999997</ele><time>2026-04-26T15:47:49.204Z</time></trkpt><trkpt lat="43.1886919" lon="11.6428722"><ele>373.79999999999995</ele><time>2026-04-26T15:47:50.191Z</time></trkpt><trkpt lat="43.1888043" lon="11.6428619"><ele>374.0</ele><time>2026-04-26T15:47:51.184Z</time></trkpt><trkpt lat="43.1889163" lon="11.6428189"><ele>378.0</ele><time>2026-04-26T15:47:52.196Z</time></trkpt><trkpt lat="43.189026" lon="11.6427534"><ele>382.0</ele><time>2026-04-26T15:47:53.197Z</time></trkpt><trkpt lat="43.189133" lon="11.6426878"><ele>386.0</ele><time>2026-04-26T15:47:54.187Z</time></trkpt><trkpt lat="43.1892342" lon="11.6426077"><ele>390.0</ele><time>2026-04-26T15:47:55.187Z</time></trkpt><trkpt lat="43.189338" lon="11.6425435"><ele>390.0</ele><time>2026-04-26T15:47:56.203Z</time></trkpt><trkpt lat="43.1894394" lon="11.6424814"><ele>390.0</ele><time>2026-04-26T15:47:57.204Z</time></trkpt><trkpt lat="43.1895477" lon="11.642447"><ele>390.0</ele><time>2026-04-26T15:47:58.193Z</time></trkpt><trkpt lat="43.189651" lon="11.6424559"><ele>390.0</ele><time>2026-04-26T15:47:59.205Z</time></trkpt><trkpt lat="43.1897656" lon="11.642477"><ele>390.0</ele><time>2026-04-26T15:48:00.209Z</time></trkpt><trkpt lat="43.1898737" lon="11.6424915"><ele>389.6</ele><time>2026-04-26T15:48:01.205Z</time></trkpt><trkpt lat="43.1899888" lon="11.6424681"><ele>389.2</ele><time>2026-04-26T15:48:02.186Z</time></trkpt><trkpt lat="43.1900887" lon="11.6424167"><ele>388.79999999999995</ele><time>2026-04-26T15:48:03.192Z</time></trkpt><trkpt lat="43.19018" lon="11.6423578"><ele>388.4</ele><time>2026-04-26T15:48:04.204Z</time></trkpt><trkpt lat="43.1902556" lon="11.6422314"><ele>388.0</ele><time>2026-04-26T15:48:05.194Z</time></trkpt><trkpt lat="43.1903243" lon="11.6421118"><ele>388.0</ele><time>2026-04-26T15:48:06.187Z</time></trkpt><trkpt lat="43.1903983" lon="11.64199"><ele>388.0</ele><time>2026-04-26T15:48:07.209Z</time></trkpt><trkpt lat="43.1904756" lon="11.6418663"><ele>388.0</ele><time>2026-04-26T15:48:08.205Z</time></trkpt><trkpt lat="43.1905528" lon="11.64174"><ele>388.0</ele><time>2026-04-26T15:48:09.193Z</time></trkpt><trkpt lat="43.1906305" lon="11.6416141"><ele>388.0</ele><time>2026-04-26T15:48:10.193Z</time></trkpt><trkpt lat="43.1907039" lon="11.6414908"><ele>388.0</ele><time>2026-04-26T15:48:11.194Z</time></trkpt><trkpt lat="43.1907746" lon="11.6413652"><ele>388.0</ele><time>2026-04-26T15:48:12.199Z</time></trkpt><trkpt lat="43.190838" lon="11.6412298"><ele>388.0</ele><time>2026-04-26T15:48:13.208Z</time></trkpt><trkpt lat="43.1908693" lon="11.641083"><ele>388.0</ele><time>2026-04-26T15:48:14.189Z</time></trkpt><trkpt lat="43.1908504" lon="11.6408759"><ele>388.0</ele><time>2026-04-26T15:48:15.206Z</time></trkpt><trkpt lat="43.1908242" lon="11.6406649"><ele>388.0</ele><time>2026-04-26T15:48:16.191Z</time></trkpt><trkpt lat="43.1908075" lon="11.6404504"><ele>387.33333333333337</ele><time>2026-04-26T15:48:17.192Z</time></trkpt><trkpt lat="43.1908007" lon="11.6402302"><ele>386.66666666666663</ele><time>2026-04-26T15:48:18.213Z</time></trkpt><trkpt lat="43.1908037" lon="11.6400045"><ele>386.0</ele><time>2026-04-26T15:48:19.207Z</time></trkpt><trkpt lat="43.1908249" lon="11.6397846"><ele>386.0</ele><time>2026-04-26T15:48:20.195Z</time></trkpt><trkpt lat="43.1908698" lon="11.6395678"><ele>386.0</ele><time>2026-04-26T15:48:21.19Z</time></trkpt><trkpt lat="43.190939" lon="11.6393623"><ele>386.0</ele><time>2026-04-26T15:48:22.207Z</time></trkpt><trkpt lat="43.1910237" lon="11.6391661"><ele>386.3333333333333</ele><time>2026-04-26T15:48:23.2Z</time></trkpt><trkpt lat="43.1911093" lon="11.6389716"><ele>386.66666666666663</ele><time>2026-04-26T15:48:24.191Z</time></trkpt><trkpt lat="43.1911947" lon="11.6387772"><ele>387.0</ele><time>2026-04-26T15:48:25.194Z</time></trkpt><trkpt lat="43.19127" lon="11.6385841"><ele>387.75</ele><time>2026-04-26T15:48:26.204Z</time></trkpt><trkpt lat="43.1913369" lon="11.6383958"><ele>388.5</ele><time>2026-04-26T15:48:27.197Z</time></trkpt><trkpt lat="43.1913973" lon="11.6382189"><ele>389.25</ele><time>2026-04-26T15:48:28.201Z</time></trkpt><trkpt lat="43.1914494" lon="11.6380573"><ele>390.0</ele><time>2026-04-26T15:48:29.192Z</time></trkpt><trkpt lat="43.1914907" lon="11.6378987"><ele>389.75</ele><time>2026-04-26T15:48:30.207Z</time></trkpt><trkpt lat="43.1914803" lon="11.6377361"><ele>389.5</ele><time>2026-04-26T15:48:31.198Z</time></trkpt><trkpt lat="43.1914255" lon="11.6375637"><ele>389.25</ele><time>2026-04-26T15:48:32.199Z</time></trkpt><trkpt lat="43.1913516" lon="11.6373773"><ele>389.0</ele><time>2026-04-26T15:48:33.191Z</time></trkpt><trkpt lat="43.1912755" lon="11.6371813"><ele>389.0</ele><time>2026-04-26T15:48:34.189Z</time></trkpt><trkpt lat="43.1912017" lon="11.6369843"><ele>389.0</ele><time>2026-04-26T15:48:35.203Z</time></trkpt><trkpt lat="43.1911271" lon="11.6367813"><ele>389.0</ele><time>2026-04-26T15:48:36.186Z</time></trkpt><trkpt lat="43.1910523" lon="11.6365821"><ele>388.66666666666663</ele><time>2026-04-26T15:48:37.213Z</time></trkpt><trkpt lat="43.190977" lon="11.6363827"><ele>388.33333333333337</ele><time>2026-04-26T15:48:38.196Z</time></trkpt><trkpt lat="43.1908993" lon="11.6361825"><ele>388.0</ele><time>2026-04-26T15:48:39.206Z</time></trkpt><trkpt lat="43.1908209" lon="11.6359849"><ele>387.6666666666667</ele><time>2026-04-26T15:48:40.211Z</time></trkpt><trkpt lat="43.1907441" lon="11.63579"><ele>387.33333333333337</ele><time>2026-04-26T15:48:41.206Z</time></trkpt><trkpt lat="43.1906701" lon="11.6355971"><ele>387.0</ele><time>2026-04-26T15:48:42.206Z</time></trkpt><trkpt lat="43.1905964" lon="11.6354036"><ele>386.0</ele><time>2026-04-26T15:48:43.187Z</time></trkpt><trkpt lat="43.1905237" lon="11.6352118"><ele>385.0</ele><time>2026-04-26T15:48:44.206Z</time></trkpt><trkpt lat="43.1904527" lon="11.6350217"><ele>384.0</ele><time>2026-04-26T15:48:45.208Z</time></trkpt><trkpt lat="43.190381" lon="11.634834"><ele>384.0</ele><time>2026-04-26T15:48:46.202Z</time></trkpt><trkpt lat="43.1903107" lon="11.6346482"><ele>384.0</ele><time>2026-04-26T15:48:47.211Z</time></trkpt><trkpt lat="43.1902391" lon="11.6344692"><ele>384.0</ele><time>2026-04-26T15:48:48.194Z</time></trkpt><trkpt lat="43.1901687" lon="11.6342843"><ele>383.3333333333333</ele><time>2026-04-26T15:48:49.209Z</time></trkpt><trkpt lat="43.1900966" lon="11.6340954"><ele>382.66666666666663</ele><time>2026-04-26T15:48:50.195Z</time></trkpt><trkpt lat="43.1900287" lon="11.6339109"><ele>382.0</ele><time>2026-04-26T15:48:51.213Z</time></trkpt><trkpt lat="43.1899569" lon="11.6337296"><ele>381.5</ele><time>2026-04-26T15:48:52.204Z</time></trkpt><trkpt lat="43.1898751" lon="11.6335601"><ele>381.0</ele><time>2026-04-26T15:48:53.206Z</time></trkpt><trkpt lat="43.1897834" lon="11.6334024"><ele>380.5</ele><time>2026-04-26T15:48:54.212Z</time></trkpt><trkpt lat="43.1896811" lon="11.6332578"><ele>380.0</ele><time>2026-04-26T15:48:55.2Z</time></trkpt><trkpt lat="43.189578" lon="11.6331126"><ele>379.0</ele><time>2026-04-26T15:48:56.197Z</time></trkpt><trkpt lat="43.1894825" lon="11.6329551"><ele>378.0</ele><time>2026-04-26T15:48:57.198Z</time></trkpt><trkpt lat="43.1894005" lon="11.6327763"><ele>377.0</ele><time>2026-04-26T15:48:58.204Z</time></trkpt><trkpt lat="43.189327" lon="11.6325815"><ele>375.33333333333337</ele><time>2026-04-26T15:48:59.211Z</time></trkpt><trkpt lat="43.1892508" lon="11.6323797"><ele>373.6666666666667</ele><time>2026-04-26T15:49:00.204Z</time></trkpt><trkpt lat="43.1891702" lon="11.6321778"><ele>372.0</ele><time>2026-04-26T15:49:01.212Z</time></trkpt><trkpt lat="43.1890599" lon="11.6319798"><ele>369.0</ele><time>2026-04-26T15:49:02.194Z</time></trkpt><trkpt lat="43.1889421" lon="11.6317715"><ele>366.0</ele><time>2026-04-26T15:49:03.206Z</time></trkpt><trkpt lat="43.1888302" lon="11.6315448"><ele>363.0</ele><time>2026-04-26T15:49:04.213Z</time></trkpt><trkpt lat="43.1887318" lon="11.6312948"><ele>363.0</ele><time>2026-04-26T15:49:05.191Z</time></trkpt><trkpt lat="43.1886494" lon="11.63105"><ele>363.0</ele><time>2026-04-26T15:49:06.204Z</time></trkpt><trkpt lat="43.1885721" lon="11.6308288"><ele>363.0</ele><time>2026-04-26T15:49:07.194Z</time></trkpt><trkpt lat="43.1884897" lon="11.6306272"><ele>363.0</ele><time>2026-04-26T15:49:08.207Z</time></trkpt><trkpt lat="43.1884047" lon="11.6304382"><ele>363.0</ele><time>2026-04-26T15:49:09.194Z</time></trkpt><trkpt lat="43.1883198" lon="11.6302598"><ele>363.0</ele><time>2026-04-26T15:49:10.207Z</time></trkpt><trkpt lat="43.1882328" lon="11.630099"><ele>362.75</ele><time>2026-04-26T15:49:11.203Z</time></trkpt><trkpt lat="43.1881389" lon="11.6299533"><ele>362.5</ele><time>2026-04-26T15:49:12.191Z</time></trkpt><trkpt lat="43.188038" lon="11.6298204"><ele>362.25</ele><time>2026-04-26T15:49:13.203Z</time></trkpt><trkpt lat="43.1879347" lon="11.629695"><ele>362.0</ele><time>2026-04-26T15:49:14.208Z</time></trkpt><trkpt lat="43.1878321" lon="11.6295679"><ele>363.75</ele><time>2026-04-26T15:49:15.211Z</time></trkpt><trkpt lat="43.1877329" lon="11.6294365"><ele>365.5</ele><time>2026-04-26T15:49:16.199Z</time></trkpt><trkpt lat="43.1876354" lon="11.6293009"><ele>367.25</ele><time>2026-04-26T15:49:17.196Z</time></trkpt><trkpt lat="43.1875377" lon="11.6291629"><ele>369.0</ele><time>2026-04-26T15:49:18.21Z</time></trkpt><trkpt lat="43.1874384" lon="11.6290254"><ele>367.75</ele><time>2026-04-26T15:49:19.195Z</time></trkpt><trkpt lat="43.1873436" lon="11.6288782"><ele>366.5</ele><time>2026-04-26T15:49:20.19Z</time></trkpt><trkpt lat="43.1872583" lon="11.6287192"><ele>365.25</ele><time>2026-04-26T15:49:21.197Z</time></trkpt><trkpt lat="43.1871819" lon="11.6285489"><ele>364.0</ele><time>2026-04-26T15:49:22.204Z</time></trkpt><trkpt lat="43.187117" lon="11.6283712"><ele>364.0</ele><time>2026-04-26T15:49:23.194Z</time></trkpt><trkpt lat="43.1870612" lon="11.628191"><ele>364.0</ele><time>2026-04-26T15:49:24.205Z</time></trkpt><trkpt lat="43.1870053" lon="11.6280106"><ele>364.0</ele><time>2026-04-26T15:49:25.203Z</time></trkpt><trkpt lat="43.1869428" lon="11.6278344"><ele>364.0</ele><time>2026-04-26T15:49:26.209Z</time></trkpt><trkpt lat="43.1868647" lon="11.6276698"><ele>363.75</ele><time>2026-04-26T15:49:27.205Z</time></trkpt><trkpt lat="43.1867675" lon="11.6275227"><ele>363.5</ele><time>2026-04-26T15:49:28.203Z</time></trkpt><trkpt lat="43.1866646" lon="11.6273723"><ele>363.25</ele><time>2026-04-26T15:49:29.194Z</time></trkpt><trkpt lat="43.1865664" lon="11.6272143"><ele>363.0</ele><time>2026-04-26T15:49:30.2Z</time></trkpt><trkpt lat="43.1865083" lon="11.626997"><ele>361.6666666666667</ele><time>2026-04-26T15:49:31.193Z</time></trkpt><trkpt lat="43.1864632" lon="11.6267673"><ele>360.33333333333337</ele><time>2026-04-26T15:49:32.206Z</time></trkpt><trkpt lat="43.1864173" lon="11.6265363"><ele>359.0</ele><time>2026-04-26T15:49:33.204Z</time></trkpt><trkpt lat="43.1863738" lon="11.6263161"><ele>359.0</ele><time>2026-04-26T15:49:34.208Z</time></trkpt><trkpt lat="43.1863471" lon="11.6261006"><ele>359.0</ele><time>2026-04-26T15:49:35.204Z</time></trkpt><trkpt lat="43.1863466" lon="11.6258815"><ele>359.0</ele><time>2026-04-26T15:49:36.202Z</time></trkpt><trkpt lat="43.1863772" lon="11.6256659"><ele>359.0</ele><time>2026-04-26T15:49:37.193Z</time></trkpt><trkpt lat="43.1864178" lon="11.6254413"><ele>359.0</ele><time>2026-04-26T15:49:38.195Z</time></trkpt><trkpt lat="43.1864726" lon="11.6252309"><ele>359.0</ele><time>2026-04-26T15:49:39.196Z</time></trkpt><trkpt lat="43.186517" lon="11.6250181"><ele>357.0</ele><time>2026-04-26T15:49:40.206Z</time></trkpt><trkpt lat="43.1865562" lon="11.6248015"><ele>355.0</ele><time>2026-04-26T15:49:41.199Z</time></trkpt><trkpt lat="43.1865908" lon="11.6245823"><ele>353.0</ele><time>2026-04-26T15:49:42.194Z</time></trkpt><trkpt lat="43.1866257" lon="11.6243754"><ele>353.0</ele><time>2026-04-26T15:49:43.208Z</time></trkpt><trkpt lat="43.1866712" lon="11.6241848"><ele>353.0</ele><time>2026-04-26T15:49:44.195Z</time></trkpt><trkpt lat="43.1867175" lon="11.6240158"><ele>353.0</ele><time>2026-04-26T15:49:45.205Z</time></trkpt><trkpt lat="43.1867623" lon="11.6238697"><ele>353.0</ele><time>2026-04-26T15:49:46.208Z</time></trkpt><trkpt lat="43.1867996" lon="11.6237461"><ele>353.1666666666667</ele><time>2026-04-26T15:49:47.207Z</time></trkpt><trkpt lat="43.1868318" lon="11.6236458"><ele>353.33333333333337</ele><time>2026-04-26T15:49:48.206Z</time></trkpt><trkpt lat="43.1868614" lon="11.6235599"><ele>353.5</ele><time>2026-04-26T15:49:49.192Z</time></trkpt><trkpt lat="43.1868909" lon="11.6234798"><ele>353.6666666666667</ele><time>2026-04-26T15:49:50.211Z</time></trkpt><trkpt lat="43.1869259" lon="11.6233906"><ele>353.8333333333333</ele><time>2026-04-26T15:49:51.195Z</time></trkpt><trkpt lat="43.1869757" lon="11.6232925"><ele>354.0</ele><time>2026-04-26T15:49:52.192Z</time></trkpt><trkpt lat="43.1870505" lon="11.6231945"><ele>354.0</ele><time>2026-04-26T15:49:53.201Z</time></trkpt><trkpt lat="43.187145" lon="11.6230964"><ele>354.0</ele><time>2026-04-26T15:49:54.209Z</time></trkpt><trkpt lat="43.1872512" lon="11.6229948"><ele>354.0</ele><time>2026-04-26T15:49:55.208Z</time></trkpt><trkpt lat="43.1873654" lon="11.6228879"><ele>354.0</ele><time>2026-04-26T15:49:56.206Z</time></trkpt><trkpt lat="43.1874913" lon="11.6227727"><ele>354.6666666666667</ele><time>2026-04-26T15:49:57.199Z</time></trkpt><trkpt lat="43.187621" lon="11.6226593"><ele>355.33333333333337</ele><time>2026-04-26T15:49:58.19Z</time></trkpt><trkpt lat="43.1877532" lon="11.6225446"><ele>356.0</ele><time>2026-04-26T15:49:59.196Z</time></trkpt><trkpt lat="43.1878805" lon="11.6224271"><ele>356.0</ele><time>2026-04-26T15:50:00.204Z</time></trkpt><trkpt lat="43.1879965" lon="11.6222864"><ele>356.0</ele><time>2026-04-26T15:50:01.197Z</time></trkpt><trkpt lat="43.1881001" lon="11.6221212"><ele>356.0</ele><time>2026-04-26T15:50:02.212Z</time></trkpt><trkpt lat="43.1882124" lon="11.6219414"><ele>357.33333333333337</ele><time>2026-04-26T15:50:03.2Z</time></trkpt><trkpt lat="43.1883103" lon="11.6217023"><ele>358.6666666666667</ele><time>2026-04-26T15:50:04.188Z</time></trkpt><trkpt lat="43.1884096" lon="11.6214655"><ele>360.0</ele><time>2026-04-26T15:50:05.217Z</time></trkpt><trkpt lat="43.1885088" lon="11.6212384"><ele>360.0</ele><time>2026-04-26T15:50:06.195Z</time></trkpt><trkpt lat="43.1886021" lon="11.6210142"><ele>360.0</ele><time>2026-04-26T15:50:07.206Z</time></trkpt><trkpt lat="43.1886755" lon="11.620816"><ele>360.0</ele><time>2026-04-26T15:50:08.211Z</time></trkpt><trkpt lat="43.1887464" lon="11.6206374"><ele>360.0</ele><time>2026-04-26T15:50:09.209Z</time></trkpt><trkpt lat="43.1888408" lon="11.6204992"><ele>360.0</ele><time>2026-04-26T15:50:10.193Z</time></trkpt><trkpt lat="43.1889582" lon="11.6204029"><ele>360.0</ele><time>2026-04-26T15:50:11.206Z</time></trkpt><trkpt lat="43.189087" lon="11.6203116"><ele>360.0</ele><time>2026-04-26T15:50:12.207Z</time></trkpt><trkpt lat="43.1892183" lon="11.6202046"><ele>360.3333333333333</ele><time>2026-04-26T15:50:13.201Z</time></trkpt><trkpt lat="43.1893473" lon="11.620088"><ele>360.66666666666663</ele><time>2026-04-26T15:50:14.211Z</time></trkpt><trkpt lat="43.1894582" lon="11.6198976"><ele>361.0</ele><time>2026-04-26T15:50:15.194Z</time></trkpt><trkpt lat="43.1895667" lon="11.619705"><ele>361.0</ele><time>2026-04-26T15:50:16.197Z</time></trkpt><trkpt lat="43.1896723" lon="11.6195222"><ele>361.0</ele><time>2026-04-26T15:50:17.204Z</time></trkpt><trkpt lat="43.1897789" lon="11.619346"><ele>361.0</ele><time>2026-04-26T15:50:18.195Z</time></trkpt><trkpt lat="43.189885" lon="11.6191696"><ele>360.66666666666663</ele><time>2026-04-26T15:50:19.206Z</time></trkpt><trkpt lat="43.1899842" lon="11.6189935"><ele>360.3333333333333</ele><time>2026-04-26T15:50:20.2Z</time></trkpt><trkpt lat="43.1900647" lon="11.6188154"><ele>360.0</ele><time>2026-04-26T15:50:21.212Z</time></trkpt><trkpt lat="43.190127" lon="11.6186382"><ele>359.25</ele><time>2026-04-26T15:50:22.198Z</time></trkpt><trkpt lat="43.1901678" lon="11.618456"><ele>358.5</ele><time>2026-04-26T15:50:23.204Z</time></trkpt><trkpt lat="43.1902002" lon="11.6182823"><ele>357.75</ele><time>2026-04-26T15:50:24.206Z</time></trkpt><trkpt lat="43.1901858" lon="11.6180843"><ele>357.0</ele><time>2026-04-26T15:50:25.197Z</time></trkpt><trkpt lat="43.1901527" lon="11.6178864"><ele>356.75</ele><time>2026-04-26T15:50:26.204Z</time></trkpt><trkpt lat="43.1901089" lon="11.6176968"><ele>356.5</ele><time>2026-04-26T15:50:27.195Z</time></trkpt><trkpt lat="43.1900595" lon="11.617521"><ele>356.25</ele><time>2026-04-26T15:50:28.211Z</time></trkpt><trkpt lat="43.1900041" lon="11.617353"><ele>356.0</ele><time>2026-04-26T15:50:29.208Z</time></trkpt><trkpt lat="43.1899583" lon="11.6171735"><ele>356.0</ele><time>2026-04-26T15:50:30.211Z</time></trkpt><trkpt lat="43.1899036" lon="11.616992"><ele>356.0</ele><time>2026-04-26T15:50:31.211Z</time></trkpt><trkpt lat="43.1898447" lon="11.616803"><ele>356.0</ele><time>2026-04-26T15:50:32.198Z</time></trkpt><trkpt lat="43.1897826" lon="11.6166068"><ele>356.0</ele><time>2026-04-26T15:50:33.198Z</time></trkpt><trkpt lat="43.1897198" lon="11.6164078"><ele>350.33333333333337</ele><time>2026-04-26T15:50:34.211Z</time></trkpt><trkpt lat="43.1896561" lon="11.6162059"><ele>344.6666666666667</ele><time>2026-04-26T15:50:35.205Z</time></trkpt><trkpt lat="43.1895954" lon="11.6160035"><ele>339.0</ele><time>2026-04-26T15:50:36.215Z</time></trkpt><trkpt lat="43.189535" lon="11.6157996"><ele>339.3333333333333</ele><time>2026-04-26T15:50:37.203Z</time></trkpt><trkpt lat="43.1894757" lon="11.61559"><ele>339.66666666666663</ele><time>2026-04-26T15:50:38.203Z</time></trkpt><trkpt lat="43.1894165" lon="11.6153783"><ele>340.0</ele><time>2026-04-26T15:50:39.202Z</time></trkpt><trkpt lat="43.1893568" lon="11.6151757"><ele>340.0</ele><time>2026-04-26T15:50:40.212Z</time></trkpt><trkpt lat="43.1892985" lon="11.6149601"><ele>340.0</ele><time>2026-04-26T15:50:41.195Z</time></trkpt><trkpt lat="43.1892495" lon="11.6147455"><ele>340.0</ele><time>2026-04-26T15:50:42.196Z</time></trkpt><trkpt lat="43.1892134" lon="11.6145282"><ele>340.66666666666663</ele><time>2026-04-26T15:50:43.211Z</time></trkpt><trkpt lat="43.1891997" lon="11.6142985"><ele>341.3333333333333</ele><time>2026-04-26T15:50:44.199Z</time></trkpt><trkpt lat="43.1892147" lon="11.6140578"><ele>342.0</ele><time>2026-04-26T15:50:45.21Z</time></trkpt><trkpt lat="43.1892508" lon="11.6138112"><ele>341.3333333333333</ele><time>2026-04-26T15:50:46.206Z</time></trkpt><trkpt lat="43.1892958" lon="11.613566"><ele>340.66666666666663</ele><time>2026-04-26T15:50:47.215Z</time></trkpt><trkpt lat="43.1893442" lon="11.613328"><ele>340.0</ele><time>2026-04-26T15:50:48.201Z</time></trkpt><trkpt lat="43.1893933" lon="11.6130936"><ele>340.0</ele><time>2026-04-26T15:50:49.206Z</time></trkpt><trkpt lat="43.1894413" lon="11.6128616"><ele>340.0</ele><time>2026-04-26T15:50:50.214Z</time></trkpt><trkpt lat="43.1894875" lon="11.6126346"><ele>340.0</ele><time>2026-04-26T15:50:51.208Z</time></trkpt><trkpt lat="43.1895293" lon="11.6124222"><ele>340.0</ele><time>2026-04-26T15:50:52.199Z</time></trkpt><trkpt lat="43.189572" lon="11.6122156"><ele>340.0</ele><time>2026-04-26T15:50:53.208Z</time></trkpt><trkpt lat="43.1896115" lon="11.6120185"><ele>340.0</ele><time>2026-04-26T15:50:54.187Z</time></trkpt><trkpt lat="43.189656" lon="11.6118238"><ele>339.0</ele><time>2026-04-26T15:50:55.204Z</time></trkpt><trkpt lat="43.1897202" lon="11.6116377"><ele>338.0</ele><time>2026-04-26T15:50:56.199Z</time></trkpt><trkpt lat="43.1897842" lon="11.6114479"><ele>337.0</ele><time>2026-04-26T15:50:57.202Z</time></trkpt><trkpt lat="43.1898724" lon="11.6112562"><ele>338.0</ele><time>2026-04-26T15:50:58.206Z</time></trkpt><trkpt lat="43.1899619" lon="11.6110753"><ele>339.0</ele><time>2026-04-26T15:50:59.212Z</time></trkpt><trkpt lat="43.1900496" lon="11.6108979"><ele>340.0</ele><time>2026-04-26T15:51:00.202Z</time></trkpt><trkpt lat="43.1901468" lon="11.6107287"><ele>340.0</ele><time>2026-04-26T15:51:01.207Z</time></trkpt><trkpt lat="43.1902539" lon="11.6105684"><ele>340.0</ele><time>2026-04-26T15:51:02.214Z</time></trkpt><trkpt lat="43.1903597" lon="11.6104127"><ele>340.0</ele><time>2026-04-26T15:51:03.206Z</time></trkpt><trkpt lat="43.1904627" lon="11.6102604"><ele>339.75</ele><time>2026-04-26T15:51:04.21Z</time></trkpt><trkpt lat="43.1905587" lon="11.6101187"><ele>339.5</ele><time>2026-04-26T15:51:05.202Z</time></trkpt><trkpt lat="43.1906291" lon="11.6099563"><ele>339.25</ele><time>2026-04-26T15:51:06.2Z</time></trkpt><trkpt lat="43.1906908" lon="11.6098066"><ele>339.0</ele><time>2026-04-26T15:51:07.209Z</time></trkpt><trkpt lat="43.190725" lon="11.6096497"><ele>338.75</ele><time>2026-04-26T15:51:08.194Z</time></trkpt><trkpt lat="43.1907376" lon="11.6094853"><ele>338.5</ele><time>2026-04-26T15:51:09.212Z</time></trkpt><trkpt lat="43.1907217" lon="11.6093164"><ele>338.25</ele><time>2026-04-26T15:51:10.203Z</time></trkpt><trkpt lat="43.1907116" lon="11.6091422"><ele>338.0</ele><time>2026-04-26T15:51:11.192Z</time></trkpt><trkpt lat="43.1907042" lon="11.6089838"><ele>338.0</ele><time>2026-04-26T15:51:12.187Z</time></trkpt><trkpt lat="43.1907175" lon="11.608823"><ele>338.0</ele><time>2026-04-26T15:51:13.207Z</time></trkpt><trkpt lat="43.19075" lon="11.6086525"><ele>338.0</ele><time>2026-04-26T15:51:14.194Z</time></trkpt><trkpt lat="43.1908048" lon="11.6084778"><ele>338.0</ele><time>2026-04-26T15:51:15.204Z</time></trkpt><trkpt lat="43.1908598" lon="11.6083156"><ele>337.0</ele><time>2026-04-26T15:51:16.203Z</time></trkpt><trkpt lat="43.1909157" lon="11.608154"><ele>336.0</ele><time>2026-04-26T15:51:17.192Z</time></trkpt><trkpt lat="43.1909687" lon="11.6079951"><ele>335.0</ele><time>2026-04-26T15:51:18.194Z</time></trkpt><trkpt lat="43.1910206" lon="11.6078327"><ele>334.0</ele><time>2026-04-26T15:51:19.197Z</time></trkpt><trkpt lat="43.1910771" lon="11.6076672"><ele>332.75</ele><time>2026-04-26T15:51:20.197Z</time></trkpt><trkpt lat="43.1911336" lon="11.6075045"><ele>331.5</ele><time>2026-04-26T15:51:21.207Z</time></trkpt><trkpt lat="43.1911888" lon="11.6073496"><ele>330.25</ele><time>2026-04-26T15:51:22.206Z</time></trkpt><trkpt lat="43.1912437" lon="11.6071907"><ele>329.0</ele><time>2026-04-26T15:51:23.194Z</time></trkpt><trkpt lat="43.1913027" lon="11.6070344"><ele>328.0</ele><time>2026-04-26T15:51:24.2Z</time></trkpt><trkpt lat="43.1913779" lon="11.6068919"><ele>327.0</ele><time>2026-04-26T15:51:25.206Z</time></trkpt><trkpt lat="43.191471" lon="11.6067733"><ele>326.0</ele><time>2026-04-26T15:51:26.203Z</time></trkpt><trkpt lat="43.1915795" lon="11.6066854"><ele>325.0</ele><time>2026-04-26T15:51:27.2Z</time></trkpt><trkpt lat="43.1917033" lon="11.6066369"><ele>325.0</ele><time>2026-04-26T15:51:28.2Z</time></trkpt><trkpt lat="43.191834" lon="11.6066163"><ele>325.0</ele><time>2026-04-26T15:51:29.206Z</time></trkpt><trkpt lat="43.1919666" lon="11.6066012"><ele>325.0</ele><time>2026-04-26T15:51:30.208Z</time></trkpt><trkpt lat="43.1921002" lon="11.6065823"><ele>325.0</ele><time>2026-04-26T15:51:31.197Z</time></trkpt><trkpt lat="43.192235" lon="11.6065696"><ele>323.5</ele><time>2026-04-26T15:51:32.207Z</time></trkpt><trkpt lat="43.1923683" lon="11.6065571"><ele>322.0</ele><time>2026-04-26T15:51:33.201Z</time></trkpt><trkpt lat="43.1925067" lon="11.6065543"><ele>320.5</ele><time>2026-04-26T15:51:34.195Z</time></trkpt><trkpt lat="43.1926464" lon="11.6065727"><ele>319.0</ele><time>2026-04-26T15:51:35.195Z</time></trkpt><trkpt lat="43.1927821" lon="11.6066102"><ele>319.0</ele><time>2026-04-26T15:51:36.205Z</time></trkpt><trkpt lat="43.1929159" lon="11.6066508"><ele>319.0</ele><time>2026-04-26T15:51:37.194Z</time></trkpt><trkpt lat="43.1930375" lon="11.6067103"><ele>319.0</ele><time>2026-04-26T15:51:38.201Z</time></trkpt><trkpt lat="43.1931567" lon="11.6067782"><ele>319.0</ele><time>2026-04-26T15:51:39.19Z</time></trkpt><trkpt lat="43.1932685" lon="11.6068586"><ele>318.5</ele><time>2026-04-26T15:51:40.188Z</time></trkpt><trkpt lat="43.1933723" lon="11.6069522"><ele>318.0</ele><time>2026-04-26T15:51:41.21Z</time></trkpt><trkpt lat="43.1934681" lon="11.6070515"><ele>317.5</ele><time>2026-04-26T15:51:42.196Z</time></trkpt><trkpt lat="43.1935565" lon="11.6071417"><ele>317.0</ele><time>2026-04-26T15:51:43.191Z</time></trkpt><trkpt lat="43.1936408" lon="11.607222"><ele>317.0</ele><time>2026-04-26T15:51:44.204Z</time></trkpt><trkpt lat="43.1937255" lon="11.6072721"><ele>317.0</ele><time>2026-04-26T15:51:45.205Z</time></trkpt><trkpt lat="43.19381" lon="11.6072729"><ele>317.0</ele><time>2026-04-26T15:51:46.207Z</time></trkpt><trkpt lat="43.1938869" lon="11.6072157"><ele>317.0</ele><time>2026-04-26T15:51:47.206Z</time></trkpt><trkpt lat="43.1939522" lon="11.6071014"><ele>317.0</ele><time>2026-04-26T15:51:48.188Z</time></trkpt><trkpt lat="43.1940109" lon="11.6069402"><ele>313.25</ele><time>2026-04-26T15:51:49.206Z</time></trkpt><trkpt lat="43.1940714" lon="11.6067681"><ele>309.5</ele><time>2026-04-26T15:51:50.194Z</time></trkpt><trkpt lat="43.194138" lon="11.6065949"><ele>305.75</ele><time>2026-04-26T15:51:51.209Z</time></trkpt><trkpt lat="43.1942033" lon="11.6064269"><ele>302.0</ele><time>2026-04-26T15:51:52.203Z</time></trkpt><trkpt lat="43.1942653" lon="11.6062653"><ele>301.25</ele><time>2026-04-26T15:51:53.208Z</time></trkpt><trkpt lat="43.1943205" lon="11.6061035"><ele>300.5</ele><time>2026-04-26T15:51:54.201Z</time></trkpt><trkpt lat="43.1943608" lon="11.6059344"><ele>299.75</ele><time>2026-04-26T15:51:55.206Z</time></trkpt><trkpt lat="43.1943865" lon="11.6057557"><ele>299.0</ele><time>2026-04-26T15:51:56.209Z</time></trkpt><trkpt lat="43.1944023" lon="11.6055696"><ele>299.0</ele><time>2026-04-26T15:51:57.196Z</time></trkpt><trkpt lat="43.1944156" lon="11.6053841"><ele>299.0</ele><time>2026-04-26T15:51:58.211Z</time></trkpt><trkpt lat="43.19443" lon="11.6052071"><ele>299.0</ele><time>2026-04-26T15:51:59.209Z</time></trkpt><trkpt lat="43.1944439" lon="11.6050341"><ele>299.0</ele><time>2026-04-26T15:52:00.196Z</time></trkpt><trkpt lat="43.1944562" lon="11.6048642"><ele>298.0</ele><time>2026-04-26T15:52:01.201Z</time></trkpt><trkpt lat="43.1944622" lon="11.6047"><ele>297.0</ele><time>2026-04-26T15:52:02.193Z</time></trkpt><trkpt lat="43.1944512" lon="11.6045434"><ele>296.0</ele><time>2026-04-26T15:52:03.21Z</time></trkpt><trkpt lat="43.1944179" lon="11.6043982"><ele>295.0</ele><time>2026-04-26T15:52:04.197Z</time></trkpt><trkpt lat="43.1943647" lon="11.6042605"><ele>294.0</ele><time>2026-04-26T15:52:05.2Z</time></trkpt><trkpt lat="43.1942973" lon="11.6041259"><ele>293.0</ele><time>2026-04-26T15:52:06.21Z</time></trkpt><trkpt lat="43.1942275" lon="11.60399"><ele>292.0</ele><time>2026-04-26T15:52:07.213Z</time></trkpt><trkpt lat="43.1941607" lon="11.6038624"><ele>291.0</ele><time>2026-04-26T15:52:08.204Z</time></trkpt><trkpt lat="43.1940979" lon="11.6037435"><ele>290.2</ele><time>2026-04-26T15:52:09.211Z</time></trkpt><trkpt lat="43.1940397" lon="11.6036335"><ele>289.40000000000003</ele><time>2026-04-26T15:52:10.203Z</time></trkpt><trkpt lat="43.1939871" lon="11.6035327"><ele>288.6</ele><time>2026-04-26T15:52:11.206Z</time></trkpt><trkpt lat="43.1939431" lon="11.6034433"><ele>287.8</ele><time>2026-04-26T15:52:12.214Z</time></trkpt><trkpt lat="43.1939065" lon="11.6033583"><ele>287.0</ele><time>2026-04-26T15:52:13.205Z</time></trkpt><trkpt lat="43.1938861" lon="11.6032018"><ele>287.0</ele><time>2026-04-26T15:52:15.209Z</time></trkpt><trkpt lat="43.1939414" lon="11.6030465"><ele>287.0</ele><time>2026-04-26T15:52:17.206Z</time></trkpt><trkpt lat="43.1939918" lon="11.6029674"><ele>287.0</ele><time>2026-04-26T15:52:18.209Z</time></trkpt><trkpt lat="43.1940544" lon="11.6028892"><ele>287.0</ele><time>2026-04-26T15:52:19.195Z</time></trkpt><trkpt lat="43.1941306" lon="11.6028157"><ele>287.0</ele><time>2026-04-26T15:52:20.19Z</time></trkpt><trkpt lat="43.1942215" lon="11.6027482"><ele>286.75</ele><time>2026-04-26T15:52:21.204Z</time></trkpt><trkpt lat="43.1943247" lon="11.6026909"><ele>286.5</ele><time>2026-04-26T15:52:22.204Z</time></trkpt><trkpt lat="43.1944359" lon="11.6026448"><ele>286.25</ele><time>2026-04-26T15:52:23.204Z</time></trkpt><trkpt lat="43.1945505" lon="11.6026079"><ele>286.0</ele><time>2026-04-26T15:52:24.207Z</time></trkpt><trkpt lat="43.1946689" lon="11.6025756"><ele>286.0</ele><time>2026-04-26T15:52:25.186Z</time></trkpt><trkpt lat="43.1947913" lon="11.6025484"><ele>286.0</ele><time>2026-04-26T15:52:26.185Z</time></trkpt><trkpt lat="43.1949154" lon="11.602524"><ele>286.0</ele><time>2026-04-26T15:52:27.199Z</time></trkpt><trkpt lat="43.1950394" lon="11.6025011"><ele>286.0</ele><time>2026-04-26T15:52:28.193Z</time></trkpt><trkpt lat="43.195162" lon="11.6024775"><ele>287.25</ele><time>2026-04-26T15:52:29.208Z</time></trkpt><trkpt lat="43.1952849" lon="11.602451"><ele>288.5</ele><time>2026-04-26T15:52:30.202Z</time></trkpt><trkpt lat="43.1954118" lon="11.6024208"><ele>289.75</ele><time>2026-04-26T15:52:31.204Z</time></trkpt><trkpt lat="43.1955361" lon="11.6023929"><ele>291.0</ele><time>2026-04-26T15:52:32.208Z</time></trkpt><trkpt lat="43.1956638" lon="11.6023627"><ele>292.25</ele><time>2026-04-26T15:52:33.204Z</time></trkpt><trkpt lat="43.1957919" lon="11.6023338"><ele>293.5</ele><time>2026-04-26T15:52:34.21Z</time></trkpt><trkpt lat="43.1959233" lon="11.6023043"><ele>294.75</ele><time>2026-04-26T15:52:35.201Z</time></trkpt><trkpt lat="43.1960643" lon="11.6022755"><ele>296.0</ele><time>2026-04-26T15:52:36.202Z</time></trkpt><trkpt lat="43.1962076" lon="11.6022508"><ele>296.0</ele><time>2026-04-26T15:52:37.204Z</time></trkpt><trkpt lat="43.1963547" lon="11.6022342"><ele>296.0</ele><time>2026-04-26T15:52:38.19Z</time></trkpt><trkpt lat="43.1965037" lon="11.6022283"><ele>296.0</ele><time>2026-04-26T15:52:39.206Z</time></trkpt><trkpt lat="43.1966538" lon="11.6022303"><ele>296.0</ele><time>2026-04-26T15:52:40.212Z</time></trkpt><trkpt lat="43.1968047" lon="11.6022405"><ele>296.0</ele><time>2026-04-26T15:52:41.2Z</time></trkpt><trkpt lat="43.1969608" lon="11.6022676"><ele>296.0</ele><time>2026-04-26T15:52:42.209Z</time></trkpt><trkpt lat="43.1971212" lon="11.6023185"><ele>296.0</ele><time>2026-04-26T15:52:43.193Z</time></trkpt><trkpt lat="43.1972855" lon="11.6023898"><ele>298.0</ele><time>2026-04-26T15:52:44.205Z</time></trkpt><trkpt lat="43.1974495" lon="11.6024806"><ele>300.0</ele><time>2026-04-26T15:52:45.202Z</time></trkpt><trkpt lat="43.1976104" lon="11.6025914"><ele>302.0</ele><time>2026-04-26T15:52:46.207Z</time></trkpt><trkpt lat="43.1977679" lon="11.6027196"><ele>300.33333333333337</ele><time>2026-04-26T15:52:47.203Z</time></trkpt><trkpt lat="43.1979238" lon="11.6028554"><ele>298.6666666666667</ele><time>2026-04-26T15:52:48.194Z</time></trkpt><trkpt lat="43.1980821" lon="11.6029878"><ele>297.0</ele><time>2026-04-26T15:52:49.192Z</time></trkpt><trkpt lat="43.1982483" lon="11.6030995"><ele>301.0</ele><time>2026-04-26T15:52:50.191Z</time></trkpt><trkpt lat="43.1984184" lon="11.6031962"><ele>305.0</ele><time>2026-04-26T15:52:51.198Z</time></trkpt><trkpt lat="43.1985853" lon="11.6032909"><ele>309.0</ele><time>2026-04-26T15:52:52.207Z</time></trkpt><trkpt lat="43.1987477" lon="11.6033889"><ele>309.0</ele><time>2026-04-26T15:52:53.21Z</time></trkpt><trkpt lat="43.1989049" lon="11.6034766"><ele>309.0</ele><time>2026-04-26T15:52:54.196Z</time></trkpt><trkpt lat="43.1990529" lon="11.6035771"><ele>309.0</ele><time>2026-04-26T15:52:55.193Z</time></trkpt><trkpt lat="43.1991869" lon="11.6037196"><ele>310.3333333333333</ele><time>2026-04-26T15:52:56.208Z</time></trkpt><trkpt lat="43.1993034" lon="11.6038928"><ele>311.66666666666663</ele><time>2026-04-26T15:52:57.206Z</time></trkpt><trkpt lat="43.1994042" lon="11.6040699"><ele>313.0</ele><time>2026-04-26T15:52:58.201Z</time></trkpt><trkpt lat="43.1995065" lon="11.6042368"><ele>313.0</ele><time>2026-04-26T15:52:59.207Z</time></trkpt><trkpt lat="43.1996217" lon="11.6043761"><ele>313.0</ele><time>2026-04-26T15:53:00.209Z</time></trkpt><trkpt lat="43.1997524" lon="11.6044756"><ele>313.0</ele><time>2026-04-26T15:53:01.192Z</time></trkpt><trkpt lat="43.1998879" lon="11.6045421"><ele>313.0</ele><time>2026-04-26T15:53:02.209Z</time></trkpt><trkpt lat="43.20002" lon="11.6045751"><ele>314.5</ele><time>2026-04-26T15:53:03.206Z</time></trkpt><trkpt lat="43.2001463" lon="11.6045684"><ele>316.0</ele><time>2026-04-26T15:53:04.192Z</time></trkpt><trkpt lat="43.2002657" lon="11.6045303"><ele>317.5</ele><time>2026-04-26T15:53:05.21Z</time></trkpt><trkpt lat="43.2003608" lon="11.6044577"><ele>319.0</ele><time>2026-04-26T15:53:06.203Z</time></trkpt><trkpt lat="43.2004273" lon="11.6043512"><ele>319.2</ele><time>2026-04-26T15:53:07.206Z</time></trkpt><trkpt lat="43.2004907" lon="11.6042451"><ele>319.4</ele><time>2026-04-26T15:53:08.191Z</time></trkpt><trkpt lat="43.2004723" lon="11.604106"><ele>319.6</ele><time>2026-04-26T15:53:09.189Z</time></trkpt><trkpt lat="43.200414" lon="11.6039726"><ele>319.8</ele><time>2026-04-26T15:53:10.2Z</time></trkpt><trkpt lat="43.2003308" lon="11.6038495"><ele>320.0</ele><time>2026-04-26T15:53:11.203Z</time></trkpt><trkpt lat="43.2002436" lon="11.6037079"><ele>318.5</ele><time>2026-04-26T15:53:12.208Z</time></trkpt><trkpt lat="43.2001884" lon="11.6035392"><ele>317.0</ele><time>2026-04-26T15:53:13.19Z</time></trkpt><trkpt lat="43.2001544" lon="11.6033402"><ele>315.5</ele><time>2026-04-26T15:53:14.196Z</time></trkpt><trkpt lat="43.2001248" lon="11.6031406"><ele>314.0</ele><time>2026-04-26T15:53:15.202Z</time></trkpt><trkpt lat="43.200106" lon="11.6029364"><ele>312.5</ele><time>2026-04-26T15:53:16.208Z</time></trkpt><trkpt lat="43.2001043" lon="11.6027255"><ele>311.0</ele><time>2026-04-26T15:53:17.203Z</time></trkpt><trkpt lat="43.2001176" lon="11.6025262"><ele>309.5</ele><time>2026-04-26T15:53:18.197Z</time></trkpt><trkpt lat="43.2001497" lon="11.6023436"><ele>308.0</ele><time>2026-04-26T15:53:19.196Z</time></trkpt><trkpt lat="43.2002063" lon="11.6021788"><ele>308.0</ele><time>2026-04-26T15:53:20.196Z</time></trkpt><trkpt lat="43.2002971" lon="11.6020393"><ele>308.0</ele><time>2026-04-26T15:53:21.199Z</time></trkpt><trkpt lat="43.2004034" lon="11.6018989"><ele>308.0</ele><time>2026-04-26T15:53:22.203Z</time></trkpt><trkpt lat="43.2005266" lon="11.6017874"><ele>308.0</ele><time>2026-04-26T15:53:23.186Z</time></trkpt><trkpt lat="43.2006469" lon="11.6016678"><ele>308.25</ele><time>2026-04-26T15:53:24.196Z</time></trkpt><trkpt lat="43.2007713" lon="11.6015604"><ele>308.5</ele><time>2026-04-26T15:53:25.202Z</time></trkpt><trkpt lat="43.2008993" lon="11.6014771"><ele>308.75</ele><time>2026-04-26T15:53:26.19Z</time></trkpt><trkpt lat="43.2010304" lon="11.6014061"><ele>309.0</ele><time>2026-04-26T15:53:27.204Z</time></trkpt><trkpt lat="43.2011569" lon="11.6013361"><ele>309.0</ele><time>2026-04-26T15:53:28.206Z</time></trkpt><trkpt lat="43.2012729" lon="11.601262"><ele>309.0</ele><time>2026-04-26T15:53:29.194Z</time></trkpt><trkpt lat="43.201376" lon="11.6011835"><ele>309.0</ele><time>2026-04-26T15:53:30.208Z</time></trkpt><trkpt lat="43.2014759" lon="11.6011117"><ele>309.0</ele><time>2026-04-26T15:53:31.204Z</time></trkpt><trkpt lat="43.2015811" lon="11.6010487"><ele>308.0</ele><time>2026-04-26T15:53:32.205Z</time></trkpt><trkpt lat="43.2016921" lon="11.6009927"><ele>307.0</ele><time>2026-04-26T15:53:33.189Z</time></trkpt><trkpt lat="43.2018106" lon="11.6009425"><ele>306.0</ele><time>2026-04-26T15:53:34.189Z</time></trkpt><trkpt lat="43.2019357" lon="11.6008951"><ele>305.0</ele><time>2026-04-26T15:53:35.2Z</time></trkpt><trkpt lat="43.202064" lon="11.600851"><ele>305.0</ele><time>2026-04-26T15:53:36.197Z</time></trkpt><trkpt lat="43.2021974" lon="11.600816"><ele>305.0</ele><time>2026-04-26T15:53:37.209Z</time></trkpt><trkpt lat="43.202335" lon="11.6008032"><ele>305.0</ele><time>2026-04-26T15:53:38.192Z</time></trkpt><trkpt lat="43.2024692" lon="11.6007997"><ele>305.0</ele><time>2026-04-26T15:53:39.188Z</time></trkpt><trkpt lat="43.2025981" lon="11.6007915"><ele>306.4</ele><time>2026-04-26T15:53:40.209Z</time></trkpt><trkpt lat="43.2027027" lon="11.6007421"><ele>307.8</ele><time>2026-04-26T15:53:41.193Z</time></trkpt><trkpt lat="43.2028067" lon="11.6007188"><ele>309.2</ele><time>2026-04-26T15:53:42.206Z</time></trkpt><trkpt lat="43.2029093" lon="11.6007625"><ele>310.6</ele><time>2026-04-26T15:53:43.195Z</time></trkpt><trkpt lat="43.2030222" lon="11.6008334"><ele>312.0</ele><time>2026-04-26T15:53:44.206Z</time></trkpt><trkpt lat="43.2031514" lon="11.6008833"><ele>313.5</ele><time>2026-04-26T15:53:45.191Z</time></trkpt><trkpt lat="43.2032933" lon="11.6008948"><ele>315.0</ele><time>2026-04-26T15:53:46.193Z</time></trkpt><trkpt lat="43.2034323" lon="11.6009013"><ele>316.5</ele><time>2026-04-26T15:53:47.199Z</time></trkpt><trkpt lat="43.203564" lon="11.6008873"><ele>318.0</ele><time>2026-04-26T15:53:48.201Z</time></trkpt><trkpt lat="43.2036837" lon="11.6008544"><ele>318.0</ele><time>2026-04-26T15:53:49.207Z</time></trkpt><trkpt lat="43.2037729" lon="11.6007958"><ele>318.0</ele><time>2026-04-26T15:53:50.195Z</time></trkpt><trkpt lat="43.2038279" lon="11.6007022"><ele>318.0</ele><time>2026-04-26T15:53:51.198Z</time></trkpt><trkpt lat="43.2038426" lon="11.6005799"><ele>318.0</ele><time>2026-04-26T15:53:52.2Z</time></trkpt><trkpt lat="43.2038157" lon="11.600442"><ele>318.0</ele><time>2026-04-26T15:53:53.207Z</time></trkpt><trkpt lat="43.203756" lon="11.6002939"><ele>317.0</ele><time>2026-04-26T15:53:54.195Z</time></trkpt><trkpt lat="43.2036834" lon="11.600151"><ele>316.0</ele><time>2026-04-26T15:53:55.193Z</time></trkpt><trkpt lat="43.2036117" lon="11.5999998"><ele>315.0</ele><time>2026-04-26T15:53:56.2Z</time></trkpt><trkpt lat="43.203551" lon="11.599846"><ele>314.0</ele><time>2026-04-26T15:53:57.193Z</time></trkpt><trkpt lat="43.2034986" lon="11.5996867"><ele>314.0</ele><time>2026-04-26T15:53:58.189Z</time></trkpt><trkpt lat="43.2034625" lon="11.5995302"><ele>314.0</ele><time>2026-04-26T15:53:59.197Z</time></trkpt><trkpt lat="43.2034307" lon="11.5993826"><ele>314.0</ele><time>2026-04-26T15:54:00.192Z</time></trkpt><trkpt lat="43.2033944" lon="11.599245"><ele>314.0</ele><time>2026-04-26T15:54:01.206Z</time></trkpt><trkpt lat="43.2033441" lon="11.5991259"><ele>314.0</ele><time>2026-04-26T15:54:02.193Z</time></trkpt><trkpt lat="43.2032776" lon="11.5990219"><ele>314.0</ele><time>2026-04-26T15:54:03.205Z</time></trkpt><trkpt lat="43.2032016" lon="11.5989335"><ele>314.0</ele><time>2026-04-26T15:54:04.204Z</time></trkpt><trkpt lat="43.2031175" lon="11.5988663"><ele>314.0</ele><time>2026-04-26T15:54:05.206Z</time></trkpt><trkpt lat="43.2030245" lon="11.5988214"><ele>314.0</ele><time>2026-04-26T15:54:06.202Z</time></trkpt><trkpt lat="43.202935" lon="11.5987893"><ele>314.0</ele><time>2026-04-26T15:54:07.194Z</time></trkpt><trkpt lat="43.2028621" lon="11.5987585"><ele>314.0</ele><time>2026-04-26T15:54:08.208Z</time></trkpt><trkpt lat="43.2027665" lon="11.5986742"><ele>314.0</ele><time>2026-04-26T15:54:10.203Z</time></trkpt><trkpt lat="43.202747" lon="11.5985685"><ele>314.0</ele><time>2026-04-26T15:54:12.192Z</time></trkpt><trkpt lat="43.2028389" lon="11.5985318"><ele>314.0</ele><time>2026-04-26T15:54:14.189Z</time></trkpt><trkpt lat="43.2029144" lon="11.5985445"><ele>314.0</ele><time>2026-04-26T15:54:15.194Z</time></trkpt><trkpt lat="43.2030025" lon="11.5985583"><ele>314.0</ele><time>2026-04-26T15:54:16.195Z</time></trkpt><trkpt lat="43.2030949" lon="11.5985642"><ele>314.0</ele><time>2026-04-26T15:54:17.194Z</time></trkpt><trkpt lat="43.2031928" lon="11.5985703"><ele>314.0</ele><time>2026-04-26T15:54:18.206Z</time></trkpt><trkpt lat="43.203296" lon="11.5985816"><ele>314.0</ele><time>2026-04-26T15:54:19.204Z</time></trkpt><trkpt lat="43.2034022" lon="11.5985992"><ele>314.0</ele><time>2026-04-26T15:54:20.191Z</time></trkpt><trkpt lat="43.2035104" lon="11.598628"><ele>314.0</ele><time>2026-04-26T15:54:21.195Z</time></trkpt><trkpt lat="43.2036195" lon="11.5986782"><ele>314.0</ele><time>2026-04-26T15:54:22.203Z</time></trkpt><trkpt lat="43.2037264" lon="11.5987453"><ele>314.0</ele><time>2026-04-26T15:54:23.192Z</time></trkpt><trkpt lat="43.203831" lon="11.5988233"><ele>314.0</ele><time>2026-04-26T15:54:24.207Z</time></trkpt><trkpt lat="43.2039359" lon="11.5989093"><ele>312.0</ele><time>2026-04-26T15:54:25.204Z</time></trkpt><trkpt lat="43.204042" lon="11.5989998"><ele>310.0</ele><time>2026-04-26T15:54:26.203Z</time></trkpt><trkpt lat="43.2041515" lon="11.5990865"><ele>308.0</ele><time>2026-04-26T15:54:27.208Z</time></trkpt><trkpt lat="43.2042679" lon="11.5991557"><ele>306.0</ele><time>2026-04-26T15:54:28.203Z</time></trkpt><trkpt lat="43.2043931" lon="11.599189"><ele>306.0</ele><time>2026-04-26T15:54:29.198Z</time></trkpt><trkpt lat="43.2045242" lon="11.5991887"><ele>306.0</ele><time>2026-04-26T15:54:30.211Z</time></trkpt><trkpt lat="43.2046586" lon="11.5991826"><ele>306.0</ele><time>2026-04-26T15:54:31.206Z</time></trkpt><trkpt lat="43.2047972" lon="11.599192"><ele>306.0</ele><time>2026-04-26T15:54:32.208Z</time></trkpt><trkpt lat="43.2049347" lon="11.5992353"><ele>305.5</ele><time>2026-04-26T15:54:33.2Z</time></trkpt><trkpt lat="43.2050626" lon="11.5993132"><ele>305.0</ele><time>2026-04-26T15:54:34.193Z</time></trkpt><trkpt lat="43.205167" lon="11.5994155"><ele>304.5</ele><time>2026-04-26T15:54:35.204Z</time></trkpt><trkpt lat="43.2052443" lon="11.5995152"><ele>304.0</ele><time>2026-04-26T15:54:36.209Z</time></trkpt><trkpt lat="43.2053111" lon="11.5995966"><ele>304.0</ele><time>2026-04-26T15:54:37.208Z</time></trkpt><trkpt lat="43.2053816" lon="11.5996448"><ele>304.0</ele><time>2026-04-26T15:54:38.198Z</time></trkpt><trkpt lat="43.2054569" lon="11.5996769"><ele>304.0</ele><time>2026-04-26T15:54:39.208Z</time></trkpt><trkpt lat="43.2055199" lon="11.5996219"><ele>304.0</ele><time>2026-04-26T15:54:40.191Z</time></trkpt><trkpt lat="43.2055462" lon="11.5995201"><ele>304.0</ele><time>2026-04-26T15:54:41.202Z</time></trkpt><trkpt lat="43.2055348" lon="11.5993912"><ele>304.0</ele><time>2026-04-26T15:54:42.204Z</time></trkpt><trkpt lat="43.2054913" lon="11.599241"><ele>301.5</ele><time>2026-04-26T15:54:43.202Z</time></trkpt><trkpt lat="43.2054348" lon="11.5990811"><ele>299.0</ele><time>2026-04-26T15:54:44.194Z</time></trkpt><trkpt lat="43.2053729" lon="11.5989112"><ele>296.5</ele><time>2026-04-26T15:54:45.194Z</time></trkpt><trkpt lat="43.2053039" lon="11.5987455"><ele>294.0</ele><time>2026-04-26T15:54:46.199Z</time></trkpt><trkpt lat="43.2052438" lon="11.5985945"><ele>290.75</ele><time>2026-04-26T15:54:47.191Z</time></trkpt><trkpt lat="43.2051915" lon="11.5984476"><ele>287.5</ele><time>2026-04-26T15:54:48.197Z</time></trkpt><trkpt lat="43.2051853" lon="11.5982933"><ele>284.25</ele><time>2026-04-26T15:54:49.193Z</time></trkpt><trkpt lat="43.2051906" lon="11.5981263"><ele>281.0</ele><time>2026-04-26T15:54:50.205Z</time></trkpt><trkpt lat="43.2052795" lon="11.5979798"><ele>281.0</ele><time>2026-04-26T15:54:51.212Z</time></trkpt><trkpt lat="43.2054067" lon="11.5978577"><ele>281.0</ele><time>2026-04-26T15:54:52.205Z</time></trkpt><trkpt lat="43.2055479" lon="11.5977434"><ele>281.0</ele><time>2026-04-26T15:54:53.193Z</time></trkpt><trkpt lat="43.2056884" lon="11.5976266"><ele>278.5</ele><time>2026-04-26T15:54:54.198Z</time></trkpt><trkpt lat="43.2058004" lon="11.5974838"><ele>276.0</ele><time>2026-04-26T15:54:55.196Z</time></trkpt><trkpt lat="43.2058986" lon="11.5973428"><ele>273.5</ele><time>2026-04-26T15:54:56.192Z</time></trkpt><trkpt lat="43.205992" lon="11.5972093"><ele>271.0</ele><time>2026-04-26T15:54:57.193Z</time></trkpt><trkpt lat="43.2060881" lon="11.5970754"><ele>268.75</ele><time>2026-04-26T15:54:58.207Z</time></trkpt><trkpt lat="43.2061869" lon="11.5969359"><ele>266.5</ele><time>2026-04-26T15:54:59.21Z</time></trkpt><trkpt lat="43.2062895" lon="11.5967958"><ele>264.25</ele><time>2026-04-26T15:55:00.19Z</time></trkpt><trkpt lat="43.2063958" lon="11.5966551"><ele>262.0</ele><time>2026-04-26T15:55:01.21Z</time></trkpt><trkpt lat="43.2065063" lon="11.5965115"><ele>262.0</ele><time>2026-04-26T15:55:02.211Z</time></trkpt><trkpt lat="43.2066183" lon="11.5963682"><ele>262.0</ele><time>2026-04-26T15:55:03.207Z</time></trkpt><trkpt lat="43.2067309" lon="11.5962207"><ele>262.0</ele><time>2026-04-26T15:55:04.206Z</time></trkpt><trkpt lat="43.2068403" lon="11.596064"><ele>261.3333333333333</ele><time>2026-04-26T15:55:05.206Z</time></trkpt><trkpt lat="43.2069418" lon="11.5958968"><ele>260.6666666666667</ele><time>2026-04-26T15:55:06.206Z</time></trkpt><trkpt lat="43.207037" lon="11.5957241"><ele>260.0</ele><time>2026-04-26T15:55:07.202Z</time></trkpt><trkpt lat="43.2071294" lon="11.5955497"><ele>260.0</ele><time>2026-04-26T15:55:08.201Z</time></trkpt><trkpt lat="43.2072209" lon="11.5953741"><ele>260.0</ele><time>2026-04-26T15:55:09.198Z</time></trkpt><trkpt lat="43.2073143" lon="11.5951984"><ele>260.0</ele><time>2026-04-26T15:55:10.199Z</time></trkpt><trkpt lat="43.2074094" lon="11.5950232"><ele>260.33333333333337</ele><time>2026-04-26T15:55:11.199Z</time></trkpt><trkpt lat="43.2075047" lon="11.5948479"><ele>260.6666666666667</ele><time>2026-04-26T15:55:12.208Z</time></trkpt><trkpt lat="43.2075986" lon="11.5946715"><ele>261.0</ele><time>2026-04-26T15:55:13.207Z</time></trkpt><trkpt lat="43.2076874" lon="11.5944888"><ele>258.6666666666667</ele><time>2026-04-26T15:55:14.207Z</time></trkpt><trkpt lat="43.2077647" lon="11.5942925"><ele>256.33333333333337</ele><time>2026-04-26T15:55:15.193Z</time></trkpt><trkpt lat="43.2078313" lon="11.5940863"><ele>254.0</ele><time>2026-04-26T15:55:16.203Z</time></trkpt><trkpt lat="43.2078915" lon="11.5938745"><ele>252.33333333333334</ele><time>2026-04-26T15:55:17.194Z</time></trkpt><trkpt lat="43.2079489" lon="11.5936612"><ele>250.66666666666669</ele><time>2026-04-26T15:55:18.209Z</time></trkpt><trkpt lat="43.2080068" lon="11.5934475"><ele>249.0</ele><time>2026-04-26T15:55:19.196Z</time></trkpt><trkpt lat="43.2080667" lon="11.593236"><ele>249.0</ele><time>2026-04-26T15:55:20.208Z</time></trkpt><trkpt lat="43.208129" lon="11.5930273"><ele>249.0</ele><time>2026-04-26T15:55:21.213Z</time></trkpt><trkpt lat="43.2081945" lon="11.5928213"><ele>249.0</ele><time>2026-04-26T15:55:22.2Z</time></trkpt><trkpt lat="43.2082642" lon="11.5926188"><ele>251.0</ele><time>2026-04-26T15:55:23.2Z</time></trkpt><trkpt lat="43.2083382" lon="11.5924187"><ele>253.0</ele><time>2026-04-26T15:55:24.206Z</time></trkpt><trkpt lat="43.2084137" lon="11.5922194"><ele>255.0</ele><time>2026-04-26T15:55:25.193Z</time></trkpt><trkpt lat="43.2084908" lon="11.5920209"><ele>253.66666666666669</ele><time>2026-04-26T15:55:26.211Z</time></trkpt><trkpt lat="43.2085704" lon="11.5918219"><ele>252.33333333333334</ele><time>2026-04-26T15:55:27.196Z</time></trkpt><trkpt lat="43.2086542" lon="11.5916226"><ele>251.0</ele><time>2026-04-26T15:55:28.194Z</time></trkpt><trkpt lat="43.2087419" lon="11.5914246"><ele>251.0</ele><time>2026-04-26T15:55:29.201Z</time></trkpt><trkpt lat="43.2088329" lon="11.5912344"><ele>251.0</ele><time>2026-04-26T15:55:30.208Z</time></trkpt><trkpt lat="43.2089303" lon="11.59104"><ele>251.0</ele><time>2026-04-26T15:55:31.196Z</time></trkpt><trkpt lat="43.2090324" lon="11.5908494"><ele>250.66666666666669</ele><time>2026-04-26T15:55:32.199Z</time></trkpt><trkpt lat="43.2091349" lon="11.5906572"><ele>250.33333333333331</ele><time>2026-04-26T15:55:33.208Z</time></trkpt><trkpt lat="43.2092483" lon="11.5904677"><ele>250.0</ele><time>2026-04-26T15:55:34.208Z</time></trkpt><trkpt lat="43.2093734" lon="11.5902966"><ele>250.0</ele><time>2026-04-26T15:55:35.196Z</time></trkpt><trkpt lat="43.2095071" lon="11.5901402"><ele>250.0</ele><time>2026-04-26T15:55:36.208Z</time></trkpt><trkpt lat="43.2096452" lon="11.5899901"><ele>250.0</ele><time>2026-04-26T15:55:37.196Z</time></trkpt><trkpt lat="43.2097836" lon="11.5898408"><ele>249.0</ele><time>2026-04-26T15:55:38.19Z</time></trkpt><trkpt lat="43.209926" lon="11.5896998"><ele>248.0</ele><time>2026-04-26T15:55:39.202Z</time></trkpt><trkpt lat="43.2100721" lon="11.589573"><ele>247.0</ele><time>2026-04-26T15:55:40.206Z</time></trkpt><trkpt lat="43.2102162" lon="11.5894465"><ele>247.0</ele><time>2026-04-26T15:55:41.193Z</time></trkpt><trkpt lat="43.2103559" lon="11.5893083"><ele>247.0</ele><time>2026-04-26T15:55:42.194Z</time></trkpt><trkpt lat="43.2104916" lon="11.5891621"><ele>247.0</ele><time>2026-04-26T15:55:43.191Z</time></trkpt><trkpt lat="43.2106278" lon="11.5890152"><ele>245.0</ele><time>2026-04-26T15:55:44.212Z</time></trkpt><trkpt lat="43.2107686" lon="11.5888783"><ele>243.0</ele><time>2026-04-26T15:55:45.204Z</time></trkpt><trkpt lat="43.2109146" lon="11.5887624"><ele>241.0</ele><time>2026-04-26T15:55:46.206Z</time></trkpt><trkpt lat="43.2110622" lon="11.5886707"><ele>241.0</ele><time>2026-04-26T15:55:47.206Z</time></trkpt><trkpt lat="43.2112118" lon="11.5886"><ele>241.0</ele><time>2026-04-26T15:55:48.203Z</time></trkpt><trkpt lat="43.2113639" lon="11.5885445"><ele>241.0</ele><time>2026-04-26T15:55:49.192Z</time></trkpt><trkpt lat="43.2115189" lon="11.5884993"><ele>239.66666666666666</ele><time>2026-04-26T15:55:50.204Z</time></trkpt><trkpt lat="43.2116753" lon="11.5884558"><ele>238.33333333333331</ele><time>2026-04-26T15:55:51.196Z</time></trkpt><trkpt lat="43.2118334" lon="11.5884106"><ele>237.0</ele><time>2026-04-26T15:55:52.194Z</time></trkpt><trkpt lat="43.21199" lon="11.5883661"><ele>237.0</ele><time>2026-04-26T15:55:53.202Z</time></trkpt><trkpt lat="43.2121399" lon="11.5883226"><ele>237.0</ele><time>2026-04-26T15:55:54.205Z</time></trkpt><trkpt lat="43.212284" lon="11.5882625"><ele>237.0</ele><time>2026-04-26T15:55:55.207Z</time></trkpt><trkpt lat="43.2124244" lon="11.5881913"><ele>236.33333333333331</ele><time>2026-04-26T15:55:56.206Z</time></trkpt><trkpt lat="43.2125453" lon="11.5880538"><ele>235.66666666666666</ele><time>2026-04-26T15:55:57.208Z</time></trkpt><trkpt lat="43.212654" lon="11.5878799"><ele>235.0</ele><time>2026-04-26T15:55:58.209Z</time></trkpt><trkpt lat="43.2127607" lon="11.5877023"><ele>235.0</ele><time>2026-04-26T15:55:59.195Z</time></trkpt><trkpt lat="43.2128734" lon="11.5875369"><ele>235.0</ele><time>2026-04-26T15:56:00.207Z</time></trkpt><trkpt lat="43.2129889" lon="11.58738"><ele>235.0</ele><time>2026-04-26T15:56:01.202Z</time></trkpt><trkpt lat="43.2131086" lon="11.5872457"><ele>234.0</ele><time>2026-04-26T15:56:02.207Z</time></trkpt><trkpt lat="43.2132331" lon="11.5871324"><ele>233.0</ele><time>2026-04-26T15:56:03.196Z</time></trkpt><trkpt lat="43.2133568" lon="11.5870357"><ele>232.0</ele><time>2026-04-26T15:56:04.194Z</time></trkpt><trkpt lat="43.2134795" lon="11.5869418"><ele>231.0</ele><time>2026-04-26T15:56:05.188Z</time></trkpt><trkpt lat="43.2135953" lon="11.586831"><ele>231.0</ele><time>2026-04-26T15:56:06.193Z</time></trkpt><trkpt lat="43.2136978" lon="11.5866908"><ele>231.0</ele><time>2026-04-26T15:56:07.199Z</time></trkpt><trkpt lat="43.2137841" lon="11.5865137"><ele>231.0</ele><time>2026-04-26T15:56:08.207Z</time></trkpt><trkpt lat="43.2138571" lon="11.586315"><ele>232.66666666666669</ele><time>2026-04-26T15:56:09.192Z</time></trkpt><trkpt lat="43.213928" lon="11.5861092"><ele>234.33333333333334</ele><time>2026-04-26T15:56:10.206Z</time></trkpt><trkpt lat="43.2139982" lon="11.5859054"><ele>236.0</ele><time>2026-04-26T15:56:11.201Z</time></trkpt><trkpt lat="43.2140653" lon="11.5857093"><ele>229.33333333333334</ele><time>2026-04-26T15:56:12.21Z</time></trkpt><trkpt lat="43.2141269" lon="11.585518"><ele>222.66666666666669</ele><time>2026-04-26T15:56:13.198Z</time></trkpt><trkpt lat="43.2141706" lon="11.5853231"><ele>216.0</ele><time>2026-04-26T15:56:14.209Z</time></trkpt><trkpt lat="43.2141923" lon="11.5851197"><ele>215.66666666666669</ele><time>2026-04-26T15:56:15.195Z</time></trkpt><trkpt lat="43.2141941" lon="11.5849084"><ele>215.33333333333334</ele><time>2026-04-26T15:56:16.194Z</time></trkpt><trkpt lat="43.2141863" lon="11.5846902"><ele>215.0</ele><time>2026-04-26T15:56:17.19Z</time></trkpt><trkpt lat="43.2141775" lon="11.5844705"><ele>214.25</ele><time>2026-04-26T15:56:18.195Z</time></trkpt><trkpt lat="43.214169" lon="11.5842583"><ele>213.5</ele><time>2026-04-26T15:56:19.192Z</time></trkpt><trkpt lat="43.2141638" lon="11.5840559"><ele>212.75</ele><time>2026-04-26T15:56:20.199Z</time></trkpt><trkpt lat="43.2141674" lon="11.5838595"><ele>212.0</ele><time>2026-04-26T15:56:21.209Z</time></trkpt><trkpt lat="43.2141849" lon="11.5836643"><ele>212.0</ele><time>2026-04-26T15:56:22.206Z</time></trkpt><trkpt lat="43.2142175" lon="11.5834701"><ele>212.0</ele><time>2026-04-26T15:56:23.202Z</time></trkpt><trkpt lat="43.2142585" lon="11.5832755"><ele>212.0</ele><time>2026-04-26T15:56:24.211Z</time></trkpt><trkpt lat="43.2143019" lon="11.5830783"><ele>212.0</ele><time>2026-04-26T15:56:25.201Z</time></trkpt><trkpt lat="43.2143444" lon="11.5828777"><ele>211.66666666666669</ele><time>2026-04-26T15:56:26.201Z</time></trkpt><trkpt lat="43.2143861" lon="11.5826746"><ele>211.33333333333331</ele><time>2026-04-26T15:56:27.204Z</time></trkpt><trkpt lat="43.2144266" lon="11.5824681"><ele>211.0</ele><time>2026-04-26T15:56:28.203Z</time></trkpt><trkpt lat="43.2144659" lon="11.5822577"><ele>211.0</ele><time>2026-04-26T15:56:29.2Z</time></trkpt><trkpt lat="43.2145052" lon="11.5820405"><ele>211.0</ele><time>2026-04-26T15:56:30.21Z</time></trkpt><trkpt lat="43.2145403" lon="11.581818"><ele>211.0</ele><time>2026-04-26T15:56:31.207Z</time></trkpt><trkpt lat="43.214571" lon="11.5815901"><ele>210.33333333333331</ele><time>2026-04-26T15:56:32.21Z</time></trkpt><trkpt lat="43.2145976" lon="11.581358"><ele>209.66666666666669</ele><time>2026-04-26T15:56:33.194Z</time></trkpt><trkpt lat="43.2146204" lon="11.5811226"><ele>209.0</ele><time>2026-04-26T15:56:34.19Z</time></trkpt><trkpt lat="43.2146427" lon="11.5808857"><ele>209.0</ele><time>2026-04-26T15:56:35.202Z</time></trkpt><trkpt lat="43.2146645" lon="11.5806486"><ele>209.0</ele><time>2026-04-26T15:56:36.2Z</time></trkpt><trkpt lat="43.2146859" lon="11.5804123"><ele>209.0</ele><time>2026-04-26T15:56:37.203Z</time></trkpt><trkpt lat="43.2147061" lon="11.5801766"><ele>208.66666666666669</ele><time>2026-04-26T15:56:38.191Z</time></trkpt><trkpt lat="43.2147238" lon="11.57994"><ele>208.33333333333331</ele><time>2026-04-26T15:56:39.194Z</time></trkpt><trkpt lat="43.2147383" lon="11.5797042"><ele>208.0</ele><time>2026-04-26T15:56:40.205Z</time></trkpt><trkpt lat="43.2147509" lon="11.5794722"><ele>207.33333333333331</ele><time>2026-04-26T15:56:41.206Z</time></trkpt><trkpt lat="43.2147662" lon="11.5792471"><ele>206.66666666666669</ele><time>2026-04-26T15:56:42.206Z</time></trkpt><trkpt lat="43.2147893" lon="11.5790329"><ele>206.0</ele><time>2026-04-26T15:56:43.206Z</time></trkpt><trkpt lat="43.2148254" lon="11.5788289"><ele>200.66666666666669</ele><time>2026-04-26T15:56:44.21Z</time></trkpt><trkpt lat="43.2148863" lon="11.5786378"><ele>195.33333333333334</ele><time>2026-04-26T15:56:45.202Z</time></trkpt><trkpt lat="43.2149826" lon="11.5784797"><ele>190.0</ele><time>2026-04-26T15:56:46.206Z</time></trkpt><trkpt lat="43.2151153" lon="11.5783643"><ele>190.0</ele><time>2026-04-26T15:56:47.206Z</time></trkpt><trkpt lat="43.2152736" lon="11.5782795"><ele>190.0</ele><time>2026-04-26T15:56:48.206Z</time></trkpt><trkpt lat="43.2154373" lon="11.5781861"><ele>190.0</ele><time>2026-04-26T15:56:49.205Z</time></trkpt><trkpt lat="43.2155924" lon="11.578052"><ele>190.33333333333334</ele><time>2026-04-26T15:56:50.208Z</time></trkpt><trkpt lat="43.2157343" lon="11.5778712"><ele>190.66666666666666</ele><time>2026-04-26T15:56:51.202Z</time></trkpt><trkpt lat="43.215881" lon="11.5776736"><ele>191.0</ele><time>2026-04-26T15:56:52.193Z</time></trkpt><trkpt lat="43.2160201" lon="11.5774663"><ele>191.33333333333331</ele><time>2026-04-26T15:56:53.206Z</time></trkpt><trkpt lat="43.2161691" lon="11.5772894"><ele>191.66666666666666</ele><time>2026-04-26T15:56:54.207Z</time></trkpt><trkpt lat="43.2163277" lon="11.5771415"><ele>192.0</ele><time>2026-04-26T15:56:55.19Z</time></trkpt><trkpt lat="43.2164902" lon="11.5770146"><ele>192.0</ele><time>2026-04-26T15:56:56.199Z</time></trkpt><trkpt lat="43.216655" lon="11.5769079"><ele>192.0</ele><time>2026-04-26T15:56:57.205Z</time></trkpt><trkpt lat="43.2168187" lon="11.5768091"><ele>192.0</ele><time>2026-04-26T15:56:58.196Z</time></trkpt><trkpt lat="43.2169891" lon="11.5767674"><ele>192.0</ele><time>2026-04-26T15:56:59.211Z</time></trkpt><trkpt lat="43.2171626" lon="11.5767465"><ele>192.0</ele><time>2026-04-26T15:57:00.192Z</time></trkpt><trkpt lat="43.2173429" lon="11.5767303"><ele>192.0</ele><time>2026-04-26T15:57:01.194Z</time></trkpt><trkpt lat="43.217524" lon="11.5767129"><ele>192.66666666666669</ele><time>2026-04-26T15:57:02.213Z</time></trkpt><trkpt lat="43.2177056" lon="11.5766972"><ele>193.33333333333334</ele><time>2026-04-26T15:57:03.198Z</time></trkpt><trkpt lat="43.2178843" lon="11.5766855"><ele>194.0</ele><time>2026-04-26T15:57:04.201Z</time></trkpt><trkpt lat="43.2180592" lon="11.5766736"><ele>194.33333333333334</ele><time>2026-04-26T15:57:05.2Z</time></trkpt><trkpt lat="43.2182321" lon="11.5766629"><ele>194.66666666666669</ele><time>2026-04-26T15:57:06.201Z</time></trkpt><trkpt lat="43.218402" lon="11.5766501"><ele>195.0</ele><time>2026-04-26T15:57:07.198Z</time></trkpt><trkpt lat="43.2185698" lon="11.5766253"><ele>195.0</ele><time>2026-04-26T15:57:08.192Z</time></trkpt><trkpt lat="43.2187358" lon="11.5765836"><ele>195.0</ele><time>2026-04-26T15:57:09.203Z</time></trkpt><trkpt lat="43.2189038" lon="11.5765308"><ele>195.0</ele><time>2026-04-26T15:57:10.21Z</time></trkpt><trkpt lat="43.2190761" lon="11.5764751"><ele>195.66666666666669</ele><time>2026-04-26T15:57:11.209Z</time></trkpt><trkpt lat="43.2192501" lon="11.5764229"><ele>196.33333333333334</ele><time>2026-04-26T15:57:12.194Z</time></trkpt><trkpt lat="43.2194206" lon="11.5763762"><ele>197.0</ele><time>2026-04-26T15:57:13.203Z</time></trkpt><trkpt lat="43.2195835" lon="11.5763339"><ele>197.0</ele><time>2026-04-26T15:57:14.211Z</time></trkpt><trkpt lat="43.2197368" lon="11.5762892"><ele>197.0</ele><time>2026-04-26T15:57:15.206Z</time></trkpt><trkpt lat="43.2198842" lon="11.5762338"><ele>197.0</ele><time>2026-04-26T15:57:16.199Z</time></trkpt><trkpt lat="43.2200246" lon="11.5761554"><ele>195.0</ele><time>2026-04-26T15:57:17.208Z</time></trkpt><trkpt lat="43.2201531" lon="11.5760459"><ele>193.0</ele><time>2026-04-26T15:57:18.21Z</time></trkpt><trkpt lat="43.2202665" lon="11.5759154"><ele>191.0</ele><time>2026-04-26T15:57:19.202Z</time></trkpt><trkpt lat="43.2203687" lon="11.5757741"><ele>189.0</ele><time>2026-04-26T15:57:20.209Z</time></trkpt><trkpt lat="43.2204637" lon="11.5756279"><ele>189.0</ele><time>2026-04-26T15:57:21.205Z</time></trkpt><trkpt lat="43.2205574" lon="11.575484"><ele>189.0</ele><time>2026-04-26T15:57:22.202Z</time></trkpt><trkpt lat="43.2206542" lon="11.5753372"><ele>189.0</ele><time>2026-04-26T15:57:23.205Z</time></trkpt><trkpt lat="43.2207528" lon="11.5751873"><ele>189.0</ele><time>2026-04-26T15:57:24.188Z</time></trkpt><trkpt lat="43.2208527" lon="11.5750363"><ele>190.0</ele><time>2026-04-26T15:57:25.209Z</time></trkpt><trkpt lat="43.2209499" lon="11.5748915"><ele>191.0</ele><time>2026-04-26T15:57:26.21Z</time></trkpt><trkpt lat="43.2210381" lon="11.5747615"><ele>192.0</ele><time>2026-04-26T15:57:27.195Z</time></trkpt><trkpt lat="43.2211132" lon="11.5746482"><ele>193.0</ele><time>2026-04-26T15:57:28.199Z</time></trkpt><trkpt lat="43.2211761" lon="11.5745491"><ele>193.33333333333331</ele><time>2026-04-26T15:57:29.201Z</time></trkpt><trkpt lat="43.2212344" lon="11.5744563"><ele>193.66666666666666</ele><time>2026-04-26T15:57:30.194Z</time></trkpt><trkpt lat="43.2212925" lon="11.5743687"><ele>194.0</ele><time>2026-04-26T15:57:31.21Z</time></trkpt><trkpt lat="43.2213518" lon="11.574284"><ele>194.33333333333331</ele><time>2026-04-26T15:57:32.206Z</time></trkpt><trkpt lat="43.2214115" lon="11.574198"><ele>194.66666666666666</ele><time>2026-04-26T15:57:33.201Z</time></trkpt><trkpt lat="43.2214733" lon="11.57411"><ele>195.0</ele><time>2026-04-26T15:57:34.202Z</time></trkpt><trkpt lat="43.2215404" lon="11.574016"><ele>195.0</ele><time>2026-04-26T15:57:35.198Z</time></trkpt><trkpt lat="43.2216109" lon="11.573915"><ele>195.0</ele><time>2026-04-26T15:57:36.194Z</time></trkpt><trkpt lat="43.2216825" lon="11.573807"><ele>195.0</ele><time>2026-04-26T15:57:37.218Z</time></trkpt><trkpt lat="43.2217536" lon="11.573695"><ele>195.0</ele><time>2026-04-26T15:57:38.207Z</time></trkpt><trkpt lat="43.2218244" lon="11.5735826"><ele>195.0</ele><time>2026-04-26T15:57:39.195Z</time></trkpt><trkpt lat="43.2218941" lon="11.5734727"><ele>193.4</ele><time>2026-04-26T15:57:40.196Z</time></trkpt><trkpt lat="43.2219605" lon="11.5733655"><ele>191.8</ele><time>2026-04-26T15:57:41.194Z</time></trkpt><trkpt lat="43.2220269" lon="11.5732582"><ele>190.2</ele><time>2026-04-26T15:57:42.196Z</time></trkpt><trkpt lat="43.222099" lon="11.5731555"><ele>188.6</ele><time>2026-04-26T15:57:43.21Z</time></trkpt><trkpt lat="43.2221798" lon="11.5730651"><ele>187.0</ele><time>2026-04-26T15:57:44.201Z</time></trkpt><trkpt lat="43.2222714" lon="11.5729898"><ele>186.5</ele><time>2026-04-26T15:57:45.199Z</time></trkpt><trkpt lat="43.2223719" lon="11.5729214"><ele>186.0</ele><time>2026-04-26T15:57:46.209Z</time></trkpt><trkpt lat="43.2224776" lon="11.5728576"><ele>185.5</ele><time>2026-04-26T15:57:47.199Z</time></trkpt><trkpt lat="43.2225853" lon="11.5728003"><ele>185.0</ele><time>2026-04-26T15:57:48.205Z</time></trkpt><trkpt lat="43.2226947" lon="11.5727454"><ele>185.0</ele><time>2026-04-26T15:57:49.207Z</time></trkpt><trkpt lat="43.2228062" lon="11.5726872"><ele>185.0</ele><time>2026-04-26T15:57:50.197Z</time></trkpt><trkpt lat="43.2229162" lon="11.5726161"><ele>185.0</ele><time>2026-04-26T15:57:51.195Z</time></trkpt><trkpt lat="43.2230186" lon="11.5725279"><ele>185.0</ele><time>2026-04-26T15:57:52.209Z</time></trkpt><trkpt lat="43.2231099" lon="11.5724188"><ele>185.5</ele><time>2026-04-26T15:57:53.199Z</time></trkpt><trkpt lat="43.2231856" lon="11.5722866"><ele>186.0</ele><time>2026-04-26T15:57:54.202Z</time></trkpt><trkpt lat="43.2232429" lon="11.5721253"><ele>186.5</ele><time>2026-04-26T15:57:55.205Z</time></trkpt><trkpt lat="43.2232867" lon="11.57194"><ele>187.0</ele><time>2026-04-26T15:57:56.207Z</time></trkpt><trkpt lat="43.2233218" lon="11.571726"><ele>187.33333333333334</ele><time>2026-04-26T15:57:57.202Z</time></trkpt><trkpt lat="43.2233481" lon="11.5714831"><ele>187.66666666666666</ele><time>2026-04-26T15:57:58.207Z</time></trkpt><trkpt lat="43.2233747" lon="11.5712159"><ele>188.0</ele><time>2026-04-26T15:57:59.198Z</time></trkpt><trkpt lat="43.2234055" lon="11.570942"><ele>187.66666666666666</ele><time>2026-04-26T15:58:00.202Z</time></trkpt><trkpt lat="43.2234375" lon="11.5706717"><ele>187.33333333333334</ele><time>2026-04-26T15:58:01.198Z</time></trkpt><trkpt lat="43.2234684" lon="11.5704076"><ele>187.0</ele><time>2026-04-26T15:58:02.209Z</time></trkpt><trkpt lat="43.2234976" lon="11.5701515"><ele>187.0</ele><time>2026-04-26T15:58:03.204Z</time></trkpt><trkpt lat="43.2235285" lon="11.5699074"><ele>187.0</ele><time>2026-04-26T15:58:04.208Z</time></trkpt><trkpt lat="43.2235679" lon="11.5696825"><ele>187.0</ele><time>2026-04-26T15:58:05.21Z</time></trkpt><trkpt lat="43.2236186" lon="11.5694779"><ele>186.5</ele><time>2026-04-26T15:58:06.204Z</time></trkpt><trkpt lat="43.2236799" lon="11.5692942"><ele>186.0</ele><time>2026-04-26T15:58:07.196Z</time></trkpt><trkpt lat="43.2237402" lon="11.5691251"><ele>185.5</ele><time>2026-04-26T15:58:08.211Z</time></trkpt><trkpt lat="43.2237949" lon="11.5689633"><ele>185.0</ele><time>2026-04-26T15:58:09.196Z</time></trkpt><trkpt lat="43.2238485" lon="11.5688004"><ele>184.5</ele><time>2026-04-26T15:58:10.21Z</time></trkpt><trkpt lat="43.2239011" lon="11.5686377"><ele>184.0</ele><time>2026-04-26T15:58:11.199Z</time></trkpt><trkpt lat="43.2239523" lon="11.5684776"><ele>183.5</ele><time>2026-04-26T15:58:12.208Z</time></trkpt><trkpt lat="43.2240034" lon="11.5683186"><ele>183.0</ele><time>2026-04-26T15:58:13.205Z</time></trkpt><trkpt lat="43.2240568" lon="11.5681557"><ele>184.25</ele><time>2026-04-26T15:58:14.198Z</time></trkpt><trkpt lat="43.2241142" lon="11.5679886"><ele>185.5</ele><time>2026-04-26T15:58:15.208Z</time></trkpt><trkpt lat="43.2241759" lon="11.5678169"><ele>186.75</ele><time>2026-04-26T15:58:16.204Z</time></trkpt><trkpt lat="43.2242446" lon="11.5676451"><ele>188.0</ele><time>2026-04-26T15:58:17.209Z</time></trkpt><trkpt lat="43.2243237" lon="11.5674796"><ele>188.0</ele><time>2026-04-26T15:58:18.205Z</time></trkpt><trkpt lat="43.2244325" lon="11.5673024"><ele>188.0</ele><time>2026-04-26T15:58:19.194Z</time></trkpt><trkpt lat="43.2245483" lon="11.567106"><ele>188.0</ele><time>2026-04-26T15:58:20.209Z</time></trkpt><trkpt lat="43.2246767" lon="11.566894"><ele>187.0</ele><time>2026-04-26T15:58:21.209Z</time></trkpt><trkpt lat="43.2248148" lon="11.5666638"><ele>186.0</ele><time>2026-04-26T15:58:22.207Z</time></trkpt><trkpt lat="43.2249692" lon="11.566426"><ele>185.0</ele><time>2026-04-26T15:58:23.195Z</time></trkpt><trkpt lat="43.2251399" lon="11.5661845"><ele>185.0</ele><time>2026-04-26T15:58:24.197Z</time></trkpt><trkpt lat="43.2253168" lon="11.565944"><ele>185.0</ele><time>2026-04-26T15:58:25.196Z</time></trkpt><trkpt lat="43.2254871" lon="11.5657054"><ele>187.0</ele><time>2026-04-26T15:58:26.205Z</time></trkpt><trkpt lat="43.225654" lon="11.5654682"><ele>189.0</ele><time>2026-04-26T15:58:27.198Z</time></trkpt><trkpt lat="43.2258086" lon="11.5652376"><ele>189.0</ele><time>2026-04-26T15:58:28.208Z</time></trkpt><trkpt lat="43.2259618" lon="11.5650258"><ele>189.0</ele><time>2026-04-26T15:58:29.192Z</time></trkpt><trkpt lat="43.226124" lon="11.5648365"><ele>189.0</ele><time>2026-04-26T15:58:30.21Z</time></trkpt><trkpt lat="43.2262975" lon="11.5646663"><ele>189.0</ele><time>2026-04-26T15:58:31.197Z</time></trkpt><trkpt lat="43.2264727" lon="11.5644988"><ele>189.0</ele><time>2026-04-26T15:58:32.193Z</time></trkpt><trkpt lat="43.2266599" lon="11.5643547"><ele>189.0</ele><time>2026-04-26T15:58:33.198Z</time></trkpt><trkpt lat="43.2268497" lon="11.5642099"><ele>189.0</ele><time>2026-04-26T15:58:34.211Z</time></trkpt><trkpt lat="43.2270377" lon="11.5640594"><ele>189.0</ele><time>2026-04-26T15:58:35.202Z</time></trkpt><trkpt lat="43.2272196" lon="11.5638941"><ele>189.0</ele><time>2026-04-26T15:58:36.214Z</time></trkpt><trkpt lat="43.2273917" lon="11.5637148"><ele>188.33333333333334</ele><time>2026-04-26T15:58:37.198Z</time></trkpt><trkpt lat="43.2275569" lon="11.5635224"><ele>187.66666666666669</ele><time>2026-04-26T15:58:38.209Z</time></trkpt><trkpt lat="43.2277104" lon="11.5633267"><ele>187.0</ele><time>2026-04-26T15:58:39.204Z</time></trkpt><trkpt lat="43.2278557" lon="11.563128"><ele>187.0</ele><time>2026-04-26T15:58:40.207Z</time></trkpt><trkpt lat="43.2279911" lon="11.5629264"><ele>187.0</ele><time>2026-04-26T15:58:41.209Z</time></trkpt><trkpt lat="43.2281172" lon="11.5627225"><ele>187.0</ele><time>2026-04-26T15:58:42.208Z</time></trkpt><trkpt lat="43.2282388" lon="11.5625224"><ele>185.66666666666669</ele><time>2026-04-26T15:58:43.202Z</time></trkpt><trkpt lat="43.2283605" lon="11.5623281"><ele>184.33333333333334</ele><time>2026-04-26T15:58:44.195Z</time></trkpt><trkpt lat="43.2284815" lon="11.5621441"><ele>183.0</ele><time>2026-04-26T15:58:45.205Z</time></trkpt><trkpt lat="43.2286025" lon="11.5619778"><ele>183.0</ele><time>2026-04-26T15:58:46.209Z</time></trkpt><trkpt lat="43.2287236" lon="11.561826"><ele>183.0</ele><time>2026-04-26T15:58:47.208Z</time></trkpt><trkpt lat="43.2288428" lon="11.5616814"><ele>183.0</ele><time>2026-04-26T15:58:48.205Z</time></trkpt><trkpt lat="43.2289573" lon="11.5615393"><ele>182.66666666666666</ele><time>2026-04-26T15:58:49.207Z</time></trkpt><trkpt lat="43.2290704" lon="11.561403"><ele>182.33333333333331</ele><time>2026-04-26T15:58:50.207Z</time></trkpt><trkpt lat="43.2291848" lon="11.5612685"><ele>182.0</ele><time>2026-04-26T15:58:51.191Z</time></trkpt><trkpt lat="43.2293078" lon="11.5611326"><ele>182.0</ele><time>2026-04-26T15:58:52.209Z</time></trkpt><trkpt lat="43.2294317" lon="11.5609976"><ele>182.0</ele><time>2026-04-26T15:58:53.207Z</time></trkpt><trkpt lat="43.229565" lon="11.5608929"><ele>182.0</ele><time>2026-04-26T15:58:54.199Z</time></trkpt><trkpt lat="43.2296992" lon="11.5607966"><ele>185.0</ele><time>2026-04-26T15:58:55.204Z</time></trkpt><trkpt lat="43.229854" lon="11.5607908"><ele>188.0</ele><time>2026-04-26T15:58:56.206Z</time></trkpt><trkpt lat="43.2300181" lon="11.5607739"><ele>191.0</ele><time>2026-04-26T15:58:57.204Z</time></trkpt><trkpt lat="43.2301839" lon="11.5607456"><ele>191.0</ele><time>2026-04-26T15:58:58.202Z</time></trkpt><trkpt lat="43.2303453" lon="11.5607095"><ele>191.0</ele><time>2026-04-26T15:58:59.202Z</time></trkpt><trkpt lat="43.2305025" lon="11.5606637"><ele>191.0</ele><time>2026-04-26T15:59:00.205Z</time></trkpt><trkpt lat="43.2306482" lon="11.5606099"><ele>189.5</ele><time>2026-04-26T15:59:01.209Z</time></trkpt><trkpt lat="43.2307848" lon="11.5605597"><ele>188.0</ele><time>2026-04-26T15:59:02.196Z</time></trkpt><trkpt lat="43.2309131" lon="11.5604928"><ele>186.5</ele><time>2026-04-26T15:59:03.193Z</time></trkpt><trkpt lat="43.2310388" lon="11.5604121"><ele>185.0</ele><time>2026-04-26T15:59:04.199Z</time></trkpt><trkpt lat="43.2311636" lon="11.5603275"><ele>185.0</ele><time>2026-04-26T15:59:05.208Z</time></trkpt><trkpt lat="43.2312797" lon="11.560245"><ele>185.0</ele><time>2026-04-26T15:59:06.207Z</time></trkpt><trkpt lat="43.2313961" lon="11.5601565"><ele>185.0</ele><time>2026-04-26T15:59:07.211Z</time></trkpt><trkpt lat="43.2315081" lon="11.5600628"><ele>185.0</ele><time>2026-04-26T15:59:08.204Z</time></trkpt><trkpt lat="43.2316148" lon="11.5599678"><ele>188.25</ele><time>2026-04-26T15:59:09.204Z</time></trkpt><trkpt lat="43.2317181" lon="11.5598789"><ele>191.5</ele><time>2026-04-26T15:59:10.202Z</time></trkpt><trkpt lat="43.231818" lon="11.5597912"><ele>194.75</ele><time>2026-04-26T15:59:11.192Z</time></trkpt><trkpt lat="43.2319155" lon="11.5597077"><ele>198.0</ele><time>2026-04-26T15:59:12.192Z</time></trkpt><trkpt lat="43.2320149" lon="11.5596292"><ele>198.0</ele><time>2026-04-26T15:59:13.194Z</time></trkpt><trkpt lat="43.2321182" lon="11.5595615"><ele>198.0</ele><time>2026-04-26T15:59:14.209Z</time></trkpt><trkpt lat="43.2322241" lon="11.559512"><ele>198.0</ele><time>2026-04-26T15:59:15.191Z</time></trkpt><trkpt lat="43.2323301" lon="11.5594642"><ele>198.0</ele><time>2026-04-26T15:59:16.209Z</time></trkpt><trkpt lat="43.2324429" lon="11.5594704"><ele>196.8</ele><time>2026-04-26T15:59:17.204Z</time></trkpt><trkpt lat="43.2325571" lon="11.5594803"><ele>195.60000000000002</ele><time>2026-04-26T15:59:18.206Z</time></trkpt><trkpt lat="43.2326642" lon="11.5594941"><ele>194.39999999999998</ele><time>2026-04-26T15:59:19.2Z</time></trkpt><trkpt lat="43.2327669" lon="11.5595203"><ele>193.2</ele><time>2026-04-26T15:59:20.198Z</time></trkpt><trkpt lat="43.2328682" lon="11.5595522"><ele>192.0</ele><time>2026-04-26T15:59:21.203Z</time></trkpt><trkpt lat="43.2329637" lon="11.5596091"><ele>193.6</ele><time>2026-04-26T15:59:22.203Z</time></trkpt><trkpt lat="43.2330522" lon="11.5596826"><ele>195.2</ele><time>2026-04-26T15:59:23.212Z</time></trkpt><trkpt lat="43.2331276" lon="11.5597689"><ele>196.8</ele><time>2026-04-26T15:59:24.203Z</time></trkpt><trkpt lat="43.2332008" lon="11.5598614"><ele>198.4</ele><time>2026-04-26T15:59:25.212Z</time></trkpt><trkpt lat="43.2332709" lon="11.5599496"><ele>200.0</ele><time>2026-04-26T15:59:26.188Z</time></trkpt><trkpt lat="43.2333359" lon="11.5600315"><ele>200.00000000000003</ele><time>2026-04-26T15:59:27.188Z</time></trkpt><trkpt lat="43.2333971" lon="11.5601061"><ele>200.0</ele><time>2026-04-26T15:59:28.208Z</time></trkpt><trkpt lat="43.2334535" lon="11.5601742"><ele>200.0</ele><time>2026-04-26T15:59:29.196Z</time></trkpt><trkpt lat="43.2335053" lon="11.5602351"><ele>200.0</ele><time>2026-04-26T15:59:30.214Z</time></trkpt><trkpt lat="43.2335559" lon="11.5602904"><ele>200.00000000000003</ele><time>2026-04-26T15:59:31.205Z</time></trkpt><trkpt lat="43.2336095" lon="11.5603381"><ele>200.0</ele><time>2026-04-26T15:59:32.209Z</time></trkpt><trkpt lat="43.2337026" lon="11.5604262"><ele>205.0</ele><time>2026-04-26T15:59:34.196Z</time></trkpt><trkpt lat="43.2337746" lon="11.5605115"><ele>205.0</ele><time>2026-04-26T15:59:36.208Z</time></trkpt><trkpt lat="43.2338285" lon="11.560583"><ele>205.0</ele><time>2026-04-26T15:59:39.193Z</time></trkpt><trkpt lat="43.2338791" lon="11.5606456"><ele>205.0</ele><time>2026-04-26T15:59:43.205Z</time></trkpt></trkseg></trk></gpx>